<?xml version="1.0" encoding="UTF-8" standalone="no" ?>
<gpx xmlns="http://www.topografix.com/GPX/1/1" xmlns:xsi="http://www.w3.org/2001/XMLSchema-instance" xsi:schemaLocation="http://www.topografix.com/GPX/1/1 http://www.topografix.com/GPX/1/1/gpx.xsd" version="1.1" creator="VisuGPX - https://www.visugpx.com">
  <metadata>
    <name>Sortie VTT Fraire</name>
  </metadata>
  <trk>
    <name><![CDATA[Sortie VTT Fraire]]></name>
    <extensions>
      <line xmlns="http://www.topografix.com/GPX/gpx_style/0/2">
        <color>0000FF</color>
        <width>4</width>
      </line>
    </extensions>
    <trkseg>
      <trkpt lat="50.26293" lon="4.50553">
        <ele>241.973989</ele>
        <time>2024-12-17T10:08:08.000Z</time>
      </trkpt>
      <trkpt lat="50.26293" lon="4.50553">
        <ele>241.973989</ele>
        <time>2024-12-17T10:08:09.000Z</time>
      </trkpt>
      <trkpt lat="50.26293" lon="4.50562">
        <ele>241.973989</ele>
        <time>2024-12-17T10:08:34.000Z</time>
      </trkpt>
      <trkpt lat="50.26294" lon="4.50564">
        <ele>241.973989</ele>
        <time>2024-12-17T10:08:35.000Z</time>
      </trkpt>
      <trkpt lat="50.26294" lon="4.50566">
        <ele>241.973989</ele>
        <time>2024-12-17T10:08:36.000Z</time>
      </trkpt>
      <trkpt lat="50.26294" lon="4.50568">
        <ele>241.973989</ele>
        <time>2024-12-17T10:08:37.000Z</time>
      </trkpt>
      <trkpt lat="50.26295" lon="4.50571">
        <ele>241.973989</ele>
        <time>2024-12-17T10:08:38.000Z</time>
      </trkpt>
      <trkpt lat="50.26295" lon="4.50574">
        <ele>241.973989</ele>
        <time>2024-12-17T10:08:39.000Z</time>
      </trkpt>
      <trkpt lat="50.26294" lon="4.50578">
        <ele>241.973989</ele>
        <time>2024-12-17T10:08:40.000Z</time>
      </trkpt>
      <trkpt lat="50.26295" lon="4.50583">
        <ele>241.973989</ele>
        <time>2024-12-17T10:08:41.000Z</time>
      </trkpt>
      <trkpt lat="50.26296" lon="4.50588">
        <ele>241.973989</ele>
        <time>2024-12-17T10:08:42.000Z</time>
      </trkpt>
      <trkpt lat="50.26297" lon="4.50592">
        <ele>241.973989</ele>
        <time>2024-12-17T10:08:43.000Z</time>
      </trkpt>
      <trkpt lat="50.26298" lon="4.50595">
        <ele>241.973989</ele>
        <time>2024-12-17T10:08:44.000Z</time>
      </trkpt>
      <trkpt lat="50.26299" lon="4.50599">
        <ele>241.973989</ele>
        <time>2024-12-17T10:08:45.000Z</time>
      </trkpt>
      <trkpt lat="50.263" lon="4.50603">
        <ele>241.973989</ele>
        <time>2024-12-17T10:08:46.000Z</time>
      </trkpt>
      <trkpt lat="50.26301" lon="4.50606">
        <ele>241.973989</ele>
        <time>2024-12-17T10:08:47.000Z</time>
      </trkpt>
      <trkpt lat="50.26303" lon="4.5061">
        <ele>241.973989</ele>
        <time>2024-12-17T10:08:48.000Z</time>
      </trkpt>
      <trkpt lat="50.26304" lon="4.50614">
        <ele>241.973989</ele>
        <time>2024-12-17T10:08:49.000Z</time>
      </trkpt>
      <trkpt lat="50.26305" lon="4.50618">
        <ele>241.973989</ele>
        <time>2024-12-17T10:08:50.000Z</time>
      </trkpt>
      <trkpt lat="50.26305" lon="4.50622">
        <ele>241.973989</ele>
        <time>2024-12-17T10:08:51.000Z</time>
      </trkpt>
      <trkpt lat="50.26306" lon="4.50626">
        <ele>241.973989</ele>
        <time>2024-12-17T10:08:52.000Z</time>
      </trkpt>
      <trkpt lat="50.26306" lon="4.5063">
        <ele>241.973989</ele>
        <time>2024-12-17T10:08:53.000Z</time>
      </trkpt>
      <trkpt lat="50.26306" lon="4.50635">
        <ele>241.973989</ele>
        <time>2024-12-17T10:08:54.000Z</time>
      </trkpt>
      <trkpt lat="50.26307" lon="4.50639">
        <ele>241.973989</ele>
        <time>2024-12-17T10:08:55.000Z</time>
      </trkpt>
      <trkpt lat="50.26307" lon="4.50644">
        <ele>241.973989</ele>
        <time>2024-12-17T10:08:56.000Z</time>
      </trkpt>
      <trkpt lat="50.26307" lon="4.50648">
        <ele>241.973989</ele>
        <time>2024-12-17T10:08:57.000Z</time>
      </trkpt>
      <trkpt lat="50.26307" lon="4.50652">
        <ele>241.973989</ele>
        <time>2024-12-17T10:08:58.000Z</time>
      </trkpt>
      <trkpt lat="50.26308" lon="4.50657">
        <ele>241.973989</ele>
        <time>2024-12-17T10:08:59.000Z</time>
      </trkpt>
      <trkpt lat="50.26308" lon="4.5066">
        <ele>241.973989</ele>
        <time>2024-12-17T10:09:00.000Z</time>
      </trkpt>
      <trkpt lat="50.26308" lon="4.50664">
        <ele>241.973989</ele>
        <time>2024-12-17T10:09:01.000Z</time>
      </trkpt>
      <trkpt lat="50.26308" lon="4.50669">
        <ele>241.973989</ele>
        <time>2024-12-17T10:09:02.000Z</time>
      </trkpt>
      <trkpt lat="50.26308" lon="4.50673">
        <ele>241.973989</ele>
        <time>2024-12-17T10:09:03.000Z</time>
      </trkpt>
      <trkpt lat="50.26308" lon="4.50677">
        <ele>241.973989</ele>
        <time>2024-12-17T10:09:04.000Z</time>
      </trkpt>
      <trkpt lat="50.26309" lon="4.50681">
        <ele>241.973989</ele>
        <time>2024-12-17T10:09:05.000Z</time>
      </trkpt>
      <trkpt lat="50.26309" lon="4.50685">
        <ele>241.973989</ele>
        <time>2024-12-17T10:09:06.000Z</time>
      </trkpt>
      <trkpt lat="50.26309" lon="4.5069">
        <ele>241.972607</ele>
        <time>2024-12-17T10:09:07.000Z</time>
      </trkpt>
      <trkpt lat="50.26309" lon="4.50694">
        <ele>241.964233</ele>
        <time>2024-12-17T10:09:08.000Z</time>
      </trkpt>
      <trkpt lat="50.26309" lon="4.50699">
        <ele>241.955454</ele>
        <time>2024-12-17T10:09:09.000Z</time>
      </trkpt>
      <trkpt lat="50.26309" lon="4.50704">
        <ele>241.946147</ele>
        <time>2024-12-17T10:09:10.000Z</time>
      </trkpt>
      <trkpt lat="50.26309" lon="4.50708">
        <ele>241.937179</ele>
        <time>2024-12-17T10:09:11.000Z</time>
      </trkpt>
      <trkpt lat="50.26309" lon="4.50713">
        <ele>241.927858</ele>
        <time>2024-12-17T10:09:12.000Z</time>
      </trkpt>
      <trkpt lat="50.26309" lon="4.50718">
        <ele>241.917981</ele>
        <time>2024-12-17T10:09:13.000Z</time>
      </trkpt>
      <trkpt lat="50.26309" lon="4.50723">
        <ele>241.908489</ele>
        <time>2024-12-17T10:09:14.000Z</time>
      </trkpt>
      <trkpt lat="50.26309" lon="4.50728">
        <ele>241.898992</ele>
        <time>2024-12-17T10:09:15.000Z</time>
      </trkpt>
      <trkpt lat="50.26309" lon="4.50734">
        <ele>241.889102</ele>
        <time>2024-12-17T10:09:16.000Z</time>
      </trkpt>
      <trkpt lat="50.26309" lon="4.50739">
        <ele>241.878845</ele>
        <time>2024-12-17T10:09:17.000Z</time>
      </trkpt>
      <trkpt lat="50.26309" lon="4.50745">
        <ele>241.868214</ele>
        <time>2024-12-17T10:09:18.000Z</time>
      </trkpt>
      <trkpt lat="50.26309" lon="4.5075">
        <ele>241.857945</ele>
        <time>2024-12-17T10:09:19.000Z</time>
      </trkpt>
      <trkpt lat="50.26309" lon="4.50756">
        <ele>241.847503</ele>
        <time>2024-12-17T10:09:20.000Z</time>
      </trkpt>
      <trkpt lat="50.26309" lon="4.50761">
        <ele>241.836476</ele>
        <time>2024-12-17T10:09:21.000Z</time>
      </trkpt>
      <trkpt lat="50.26309" lon="4.50768">
        <ele>241.82469</ele>
        <time>2024-12-17T10:09:22.000Z</time>
      </trkpt>
      <trkpt lat="50.26309" lon="4.50774">
        <ele>241.81216</ele>
        <time>2024-12-17T10:09:23.000Z</time>
      </trkpt>
      <trkpt lat="50.26309" lon="4.50781">
        <ele>241.799057</ele>
        <time>2024-12-17T10:09:24.000Z</time>
      </trkpt>
      <trkpt lat="50.26309" lon="4.50788">
        <ele>241.785764</ele>
        <time>2024-12-17T10:09:25.000Z</time>
      </trkpt>
      <trkpt lat="50.26309" lon="4.50795">
        <ele>241.772841</ele>
        <time>2024-12-17T10:09:26.000Z</time>
      </trkpt>
      <trkpt lat="50.2631" lon="4.50802">
        <ele>241.759349</ele>
        <time>2024-12-17T10:09:27.000Z</time>
      </trkpt>
      <trkpt lat="50.2631" lon="4.50809">
        <ele>241.745866</ele>
        <time>2024-12-17T10:09:28.000Z</time>
      </trkpt>
      <trkpt lat="50.2631" lon="4.50816">
        <ele>241.732334</ele>
        <time>2024-12-17T10:09:29.000Z</time>
      </trkpt>
      <trkpt lat="50.2631" lon="4.50823">
        <ele>241.719015</ele>
        <time>2024-12-17T10:09:30.000Z</time>
      </trkpt>
      <trkpt lat="50.26311" lon="4.5083">
        <ele>241.705885</ele>
        <time>2024-12-17T10:09:31.000Z</time>
      </trkpt>
      <trkpt lat="50.26311" lon="4.50837">
        <ele>241.692543</ele>
        <time>2024-12-17T10:09:32.000Z</time>
      </trkpt>
      <trkpt lat="50.26311" lon="4.50844">
        <ele>241.679602</ele>
        <time>2024-12-17T10:09:33.000Z</time>
      </trkpt>
      <trkpt lat="50.26312" lon="4.50851">
        <ele>241.66657</ele>
        <time>2024-12-17T10:09:34.000Z</time>
      </trkpt>
      <trkpt lat="50.26313" lon="4.50858">
        <ele>241.653307</ele>
        <time>2024-12-17T10:09:35.000Z</time>
      </trkpt>
      <trkpt lat="50.26314" lon="4.50864">
        <ele>241.640309</ele>
        <time>2024-12-17T10:09:36.000Z</time>
      </trkpt>
      <trkpt lat="50.26314" lon="4.50871">
        <ele>241.626939</ele>
        <time>2024-12-17T10:09:37.000Z</time>
      </trkpt>
      <trkpt lat="50.26315" lon="4.50878">
        <ele>241.613907</ele>
        <time>2024-12-17T10:09:38.000Z</time>
      </trkpt>
      <trkpt lat="50.26316" lon="4.50885">
        <ele>241.601206</ele>
        <time>2024-12-17T10:09:39.000Z</time>
      </trkpt>
      <trkpt lat="50.26316" lon="4.50891">
        <ele>241.589066</ele>
        <time>2024-12-17T10:09:40.000Z</time>
      </trkpt>
      <trkpt lat="50.26317" lon="4.50897">
        <ele>241.57739</ele>
        <time>2024-12-17T10:09:41.000Z</time>
      </trkpt>
      <trkpt lat="50.26318" lon="4.50902">
        <ele>241.568413</ele>
        <time>2024-12-17T10:09:42.000Z</time>
      </trkpt>
      <trkpt lat="50.26319" lon="4.50907">
        <ele>241.557192</ele>
        <time>2024-12-17T10:09:43.000Z</time>
      </trkpt>
      <trkpt lat="50.2632" lon="4.50914">
        <ele>241.544194</ele>
        <time>2024-12-17T10:09:44.000Z</time>
      </trkpt>
      <trkpt lat="50.2632" lon="4.50919">
        <ele>241.534211</ele>
        <time>2024-12-17T10:09:45.000Z</time>
      </trkpt>
      <trkpt lat="50.26321" lon="4.50925">
        <ele>241.523664</ele>
        <time>2024-12-17T10:09:46.000Z</time>
      </trkpt>
      <trkpt lat="50.26321" lon="4.5093">
        <ele>241.513206</ele>
        <time>2024-12-17T10:09:47.000Z</time>
      </trkpt>
      <trkpt lat="50.26321" lon="4.50936">
        <ele>241.50295</ele>
        <time>2024-12-17T10:09:48.000Z</time>
      </trkpt>
      <trkpt lat="50.26321" lon="4.50941">
        <ele>241.49268</ele>
        <time>2024-12-17T10:09:49.000Z</time>
      </trkpt>
      <trkpt lat="50.26321" lon="4.50947">
        <ele>241.481605</ele>
        <time>2024-12-17T10:09:50.000Z</time>
      </trkpt>
      <trkpt lat="50.26322" lon="4.50952">
        <ele>241.472415</ele>
        <time>2024-12-17T10:09:51.000Z</time>
      </trkpt>
      <trkpt lat="50.26322" lon="4.50959">
        <ele>241.458717</ele>
        <time>2024-12-17T10:09:52.000Z</time>
      </trkpt>
      <trkpt lat="50.26322" lon="4.50964">
        <ele>241.449396</ele>
        <time>2024-12-17T10:09:53.000Z</time>
      </trkpt>
      <trkpt lat="50.26323" lon="4.5097">
        <ele>241.409766</ele>
        <time>2024-12-17T10:09:54.000Z</time>
      </trkpt>
      <trkpt lat="50.26323" lon="4.50976">
        <ele>241.2577</ele>
        <time>2024-12-17T10:09:55.000Z</time>
      </trkpt>
      <trkpt lat="50.26323" lon="4.50983">
        <ele>241.093277</ele>
        <time>2024-12-17T10:09:56.000Z</time>
      </trkpt>
      <trkpt lat="50.26324" lon="4.50992">
        <ele>240.878884</ele>
        <time>2024-12-17T10:09:57.000Z</time>
      </trkpt>
      <trkpt lat="50.26324" lon="4.51">
        <ele>240.683399</ele>
        <time>2024-12-17T10:09:58.000Z</time>
      </trkpt>
      <trkpt lat="50.26325" lon="4.51008">
        <ele>240.514248</ele>
        <time>2024-12-17T10:09:59.000Z</time>
      </trkpt>
      <trkpt lat="50.26325" lon="4.51016">
        <ele>240.301441</ele>
        <time>2024-12-17T10:10:00.000Z</time>
      </trkpt>
      <trkpt lat="50.26326" lon="4.51027">
        <ele>240.048135</ele>
        <time>2024-12-17T10:10:01.000Z</time>
      </trkpt>
      <trkpt lat="50.26327" lon="4.51036">
        <ele>239.823945</ele>
        <time>2024-12-17T10:10:02.000Z</time>
      </trkpt>
      <trkpt lat="50.26327" lon="4.51047">
        <ele>239.581169</ele>
        <time>2024-12-17T10:10:03.000Z</time>
      </trkpt>
      <trkpt lat="50.26328" lon="4.51057">
        <ele>239.329233</ele>
        <time>2024-12-17T10:10:04.000Z</time>
      </trkpt>
      <trkpt lat="50.2633" lon="4.51066">
        <ele>239.119966</ele>
        <time>2024-12-17T10:10:05.000Z</time>
      </trkpt>
      <trkpt lat="50.26332" lon="4.51076">
        <ele>238.854132</ele>
        <time>2024-12-17T10:10:06.000Z</time>
      </trkpt>
      <trkpt lat="50.26334" lon="4.51087">
        <ele>238.598666</ele>
        <time>2024-12-17T10:10:07.000Z</time>
      </trkpt>
      <trkpt lat="50.26336" lon="4.51098">
        <ele>238.312549</ele>
        <time>2024-12-17T10:10:08.000Z</time>
      </trkpt>
      <trkpt lat="50.26338" lon="4.51108">
        <ele>238.067258</ele>
        <time>2024-12-17T10:10:09.000Z</time>
      </trkpt>
      <trkpt lat="50.2634" lon="4.51118">
        <ele>237.818202</ele>
        <time>2024-12-17T10:10:10.000Z</time>
      </trkpt>
      <trkpt lat="50.26342" lon="4.51128">
        <ele>237.565006</ele>
        <time>2024-12-17T10:10:11.000Z</time>
      </trkpt>
      <trkpt lat="50.26343" lon="4.51139">
        <ele>237.310155</ele>
        <time>2024-12-17T10:10:12.000Z</time>
      </trkpt>
      <trkpt lat="50.26344" lon="4.51149">
        <ele>237.062913</ele>
        <time>2024-12-17T10:10:13.000Z</time>
      </trkpt>
      <trkpt lat="50.26345" lon="4.51159">
        <ele>236.818553</ele>
        <time>2024-12-17T10:10:14.000Z</time>
      </trkpt>
      <trkpt lat="50.26346" lon="4.51169">
        <ele>236.582423</ele>
        <time>2024-12-17T10:10:15.000Z</time>
      </trkpt>
      <trkpt lat="50.26347" lon="4.51179">
        <ele>236.353302</ele>
        <time>2024-12-17T10:10:16.000Z</time>
      </trkpt>
      <trkpt lat="50.26349" lon="4.51188">
        <ele>236.135119</ele>
        <time>2024-12-17T10:10:17.000Z</time>
      </trkpt>
      <trkpt lat="50.2635" lon="4.51197">
        <ele>235.914392</ele>
        <time>2024-12-17T10:10:18.000Z</time>
      </trkpt>
      <trkpt lat="50.26352" lon="4.51205">
        <ele>235.698255</ele>
        <time>2024-12-17T10:10:19.000Z</time>
      </trkpt>
      <trkpt lat="50.26353" lon="4.51214">
        <ele>235.484716</ele>
        <time>2024-12-17T10:10:20.000Z</time>
      </trkpt>
      <trkpt lat="50.26354" lon="4.51223">
        <ele>235.268856</ele>
        <time>2024-12-17T10:10:21.000Z</time>
      </trkpt>
      <trkpt lat="50.26355" lon="4.51232">
        <ele>235.058389</ele>
        <time>2024-12-17T10:10:22.000Z</time>
      </trkpt>
      <trkpt lat="50.26356" lon="4.5124">
        <ele>234.846357</ele>
        <time>2024-12-17T10:10:23.000Z</time>
      </trkpt>
      <trkpt lat="50.26358" lon="4.51249">
        <ele>234.966507</ele>
        <time>2024-12-17T10:10:24.000Z</time>
      </trkpt>
      <trkpt lat="50.26359" lon="4.51257">
        <ele>235.303496</ele>
        <time>2024-12-17T10:10:25.000Z</time>
      </trkpt>
      <trkpt lat="50.2636" lon="4.51265">
        <ele>235.629007</ele>
        <time>2024-12-17T10:10:26.000Z</time>
      </trkpt>
      <trkpt lat="50.26361" lon="4.51273">
        <ele>235.947845</ele>
        <time>2024-12-17T10:10:27.000Z</time>
      </trkpt>
      <trkpt lat="50.26362" lon="4.51281">
        <ele>236.258982</ele>
        <time>2024-12-17T10:10:28.000Z</time>
      </trkpt>
      <trkpt lat="50.26364" lon="4.51288">
        <ele>236.565117</ele>
        <time>2024-12-17T10:10:29.000Z</time>
      </trkpt>
      <trkpt lat="50.26365" lon="4.51296">
        <ele>236.87878</ele>
        <time>2024-12-17T10:10:30.000Z</time>
      </trkpt>
      <trkpt lat="50.26367" lon="4.51303">
        <ele>237.184915</ele>
        <time>2024-12-17T10:10:31.000Z</time>
      </trkpt>
      <trkpt lat="50.26369" lon="4.5131">
        <ele>237.483897</ele>
        <time>2024-12-17T10:10:32.000Z</time>
      </trkpt>
      <trkpt lat="50.2637" lon="4.51317">
        <ele>237.776548</ele>
        <time>2024-12-17T10:10:33.000Z</time>
      </trkpt>
      <trkpt lat="50.26372" lon="4.51323">
        <ele>238.047685</ele>
        <time>2024-12-17T10:10:34.000Z</time>
      </trkpt>
      <trkpt lat="50.26375" lon="4.51329">
        <ele>238.31017</ele>
        <time>2024-12-17T10:10:35.000Z</time>
      </trkpt>
      <trkpt lat="50.26377" lon="4.51334">
        <ele>238.56309</ele>
        <time>2024-12-17T10:10:36.000Z</time>
      </trkpt>
      <trkpt lat="50.26379" lon="4.51339">
        <ele>238.809217</ele>
        <time>2024-12-17T10:10:37.000Z</time>
      </trkpt>
      <trkpt lat="50.26382" lon="4.51344">
        <ele>239.052644</ele>
        <time>2024-12-17T10:10:38.000Z</time>
      </trkpt>
      <trkpt lat="50.26384" lon="4.51349">
        <ele>239.286059</ele>
        <time>2024-12-17T10:10:39.000Z</time>
      </trkpt>
      <trkpt lat="50.26386" lon="4.51353">
        <ele>239.517165</ele>
        <time>2024-12-17T10:10:40.000Z</time>
      </trkpt>
      <trkpt lat="50.26389" lon="4.51357">
        <ele>239.736391</ele>
        <time>2024-12-17T10:10:41.000Z</time>
      </trkpt>
      <trkpt lat="50.26391" lon="4.51361">
        <ele>239.940507</ele>
        <time>2024-12-17T10:10:42.000Z</time>
      </trkpt>
      <trkpt lat="50.26393" lon="4.51365">
        <ele>240.130751</ele>
        <time>2024-12-17T10:10:43.000Z</time>
      </trkpt>
      <trkpt lat="50.26395" lon="4.51369">
        <ele>240.320441</ele>
        <time>2024-12-17T10:10:44.000Z</time>
      </trkpt>
      <trkpt lat="50.26397" lon="4.51373">
        <ele>240.517607</ele>
        <time>2024-12-17T10:10:45.000Z</time>
      </trkpt>
      <trkpt lat="50.26399" lon="4.51377">
        <ele>240.717864</ele>
        <time>2024-12-17T10:10:46.000Z</time>
      </trkpt>
      <trkpt lat="50.26401" lon="4.51381">
        <ele>240.925042</ele>
        <time>2024-12-17T10:10:47.000Z</time>
      </trkpt>
      <trkpt lat="50.26403" lon="4.51385">
        <ele>241.138518</ele>
        <time>2024-12-17T10:10:48.000Z</time>
      </trkpt>
      <trkpt lat="50.26405" lon="4.51389">
        <ele>241.348788</ele>
        <time>2024-12-17T10:10:49.000Z</time>
      </trkpt>
      <trkpt lat="50.26407" lon="4.51393">
        <ele>241.538204</ele>
        <time>2024-12-17T10:10:50.000Z</time>
      </trkpt>
      <trkpt lat="50.26409" lon="4.51397">
        <ele>241.741582</ele>
        <time>2024-12-17T10:10:51.000Z</time>
      </trkpt>
      <trkpt lat="50.26411" lon="4.51401">
        <ele>241.944959</ele>
        <time>2024-12-17T10:10:52.000Z</time>
      </trkpt>
      <trkpt lat="50.26412" lon="4.51405">
        <ele>242.104637</ele>
        <time>2024-12-17T10:10:53.000Z</time>
      </trkpt>
      <trkpt lat="50.26415" lon="4.5141">
        <ele>242.337271</ele>
        <time>2024-12-17T10:10:54.000Z</time>
      </trkpt>
      <trkpt lat="50.26416" lon="4.51413">
        <ele>242.506952</ele>
        <time>2024-12-17T10:10:55.000Z</time>
      </trkpt>
      <trkpt lat="50.26418" lon="4.51416">
        <ele>242.654058</ele>
        <time>2024-12-17T10:10:56.000Z</time>
      </trkpt>
      <trkpt lat="50.26419" lon="4.51419">
        <ele>242.794238</ele>
        <time>2024-12-17T10:10:57.000Z</time>
      </trkpt>
      <trkpt lat="50.2642" lon="4.51422">
        <ele>242.923915</ele>
        <time>2024-12-17T10:10:58.000Z</time>
      </trkpt>
      <trkpt lat="50.26422" lon="4.51424">
        <ele>243.05797</ele>
        <time>2024-12-17T10:10:59.000Z</time>
      </trkpt>
      <trkpt lat="50.26423" lon="4.51427">
        <ele>243.191265</ele>
        <time>2024-12-17T10:11:00.000Z</time>
      </trkpt>
      <trkpt lat="50.26424" lon="4.5143">
        <ele>243.320942</ele>
        <time>2024-12-17T10:11:01.000Z</time>
      </trkpt>
      <trkpt lat="50.26425" lon="4.51432">
        <ele>243.431083</ele>
        <time>2024-12-17T10:11:02.000Z</time>
      </trkpt>
      <trkpt lat="50.26426" lon="4.51434">
        <ele>243.530893</ele>
        <time>2024-12-17T10:11:03.000Z</time>
      </trkpt>
      <trkpt lat="50.26427" lon="4.51436">
        <ele>243.627294</ele>
        <time>2024-12-17T10:11:04.000Z</time>
      </trkpt>
      <trkpt lat="50.26428" lon="4.51438">
        <ele>243.71741</ele>
        <time>2024-12-17T10:11:05.000Z</time>
      </trkpt>
      <trkpt lat="50.26429" lon="4.51439">
        <ele>243.80565</ele>
        <time>2024-12-17T10:11:06.000Z</time>
      </trkpt>
      <trkpt lat="50.2643" lon="4.51441">
        <ele>243.90552</ele>
        <time>2024-12-17T10:11:07.000Z</time>
      </trkpt>
      <trkpt lat="50.26431" lon="4.51443">
        <ele>244.006605</ele>
        <time>2024-12-17T10:11:08.000Z</time>
      </trkpt>
      <trkpt lat="50.26432" lon="4.51445">
        <ele>244.111931</ele>
        <time>2024-12-17T10:11:09.000Z</time>
      </trkpt>
      <trkpt lat="50.26433" lon="4.51447">
        <ele>244.203033</ele>
        <time>2024-12-17T10:11:10.000Z</time>
      </trkpt>
      <trkpt lat="50.26434" lon="4.51448">
        <ele>244.286117</ele>
        <time>2024-12-17T10:11:11.000Z</time>
      </trkpt>
      <trkpt lat="50.26435" lon="4.51451">
        <ele>244.384077</ele>
        <time>2024-12-17T10:11:12.000Z</time>
      </trkpt>
      <trkpt lat="50.26435" lon="4.51453">
        <ele>244.477471</ele>
        <time>2024-12-17T10:11:13.000Z</time>
      </trkpt>
      <trkpt lat="50.26436" lon="4.51455">
        <ele>244.577172</ele>
        <time>2024-12-17T10:11:14.000Z</time>
      </trkpt>
      <trkpt lat="50.26437" lon="4.51457">
        <ele>244.676981</ele>
        <time>2024-12-17T10:11:15.000Z</time>
      </trkpt>
      <trkpt lat="50.26438" lon="4.51459">
        <ele>244.783432</ele>
        <time>2024-12-17T10:11:16.000Z</time>
      </trkpt>
      <trkpt lat="50.26439" lon="4.51462">
        <ele>244.893121</ele>
        <time>2024-12-17T10:11:17.000Z</time>
      </trkpt>
      <trkpt lat="50.2644" lon="4.51464">
        <ele>245.012777</ele>
        <time>2024-12-17T10:11:18.000Z</time>
      </trkpt>
      <trkpt lat="50.26441" lon="4.51466">
        <ele>245.099898</ele>
        <time>2024-12-17T10:11:19.000Z</time>
      </trkpt>
      <trkpt lat="50.26441" lon="4.51468">
        <ele>245.17995</ele>
        <time>2024-12-17T10:11:20.000Z</time>
      </trkpt>
      <trkpt lat="50.26442" lon="4.5147">
        <ele>245.266401</ele>
        <time>2024-12-17T10:11:21.000Z</time>
      </trkpt>
      <trkpt lat="50.26443" lon="4.51472">
        <ele>245.352852</ele>
        <time>2024-12-17T10:11:22.000Z</time>
      </trkpt>
      <trkpt lat="50.26444" lon="4.51473">
        <ele>245.446894</ele>
        <time>2024-12-17T10:11:23.000Z</time>
      </trkpt>
      <trkpt lat="50.26445" lon="4.51475">
        <ele>245.536611</ele>
        <time>2024-12-17T10:11:24.000Z</time>
      </trkpt>
      <trkpt lat="50.26445" lon="4.51477">
        <ele>245.613188</ele>
        <time>2024-12-17T10:11:25.000Z</time>
      </trkpt>
      <trkpt lat="50.26446" lon="4.51479">
        <ele>245.699639</ele>
        <time>2024-12-17T10:11:26.000Z</time>
      </trkpt>
      <trkpt lat="50.26447" lon="4.5148">
        <ele>245.776673</ele>
        <time>2024-12-17T10:11:27.000Z</time>
      </trkpt>
      <trkpt lat="50.26447" lon="4.51482">
        <ele>245.84645</ele>
        <time>2024-12-17T10:11:28.000Z</time>
      </trkpt>
      <trkpt lat="50.26448" lon="4.51483">
        <ele>245.8947</ele>
        <time>2024-12-17T10:11:29.000Z</time>
      </trkpt>
      <trkpt lat="50.26449" lon="4.51485">
        <ele>245.967954</ele>
        <time>2024-12-17T10:11:30.000Z</time>
      </trkpt>
      <trkpt lat="50.26449" lon="4.51487">
        <ele>246.03613</ele>
        <time>2024-12-17T10:11:31.000Z</time>
      </trkpt>
      <trkpt lat="50.2645" lon="4.51489">
        <ele>246.096999</ele>
        <time>2024-12-17T10:11:32.000Z</time>
      </trkpt>
      <trkpt lat="50.26451" lon="4.5149">
        <ele>246.157868</ele>
        <time>2024-12-17T10:11:33.000Z</time>
      </trkpt>
      <trkpt lat="50.26452" lon="4.51492">
        <ele>246.223561</ele>
        <time>2024-12-17T10:11:34.000Z</time>
      </trkpt>
      <trkpt lat="50.26452" lon="4.51494">
        <ele>246.287064</ele>
        <time>2024-12-17T10:11:35.000Z</time>
      </trkpt>
      <trkpt lat="50.26453" lon="4.51496">
        <ele>246.35776</ele>
        <time>2024-12-17T10:11:36.000Z</time>
      </trkpt>
      <trkpt lat="50.26454" lon="4.51497">
        <ele>246.408694</ele>
        <time>2024-12-17T10:11:37.000Z</time>
      </trkpt>
      <trkpt lat="50.26455" lon="4.51499">
        <ele>246.480698</ele>
        <time>2024-12-17T10:11:38.000Z</time>
      </trkpt>
      <trkpt lat="50.26456" lon="4.515">
        <ele>246.536283</ele>
        <time>2024-12-17T10:11:39.000Z</time>
      </trkpt>
      <trkpt lat="50.26456" lon="4.51502">
        <ele>246.597114</ele>
        <time>2024-12-17T10:11:40.000Z</time>
      </trkpt>
      <trkpt lat="50.26457" lon="4.51504">
        <ele>246.643065</ele>
        <time>2024-12-17T10:11:41.000Z</time>
      </trkpt>
      <trkpt lat="50.26457" lon="4.51506">
        <ele>246.710216</ele>
        <time>2024-12-17T10:11:42.000Z</time>
      </trkpt>
      <trkpt lat="50.26458" lon="4.51507">
        <ele>246.764498</ele>
        <time>2024-12-17T10:11:43.000Z</time>
      </trkpt>
      <trkpt lat="50.26458" lon="4.51509">
        <ele>246.817759</ele>
        <time>2024-12-17T10:11:44.000Z</time>
      </trkpt>
      <trkpt lat="50.26459" lon="4.5151">
        <ele>246.87341</ele>
        <time>2024-12-17T10:11:45.000Z</time>
      </trkpt>
      <trkpt lat="50.2646" lon="4.51512">
        <ele>246.936317</ele>
        <time>2024-12-17T10:11:46.000Z</time>
      </trkpt>
      <trkpt lat="50.26461" lon="4.51513">
        <ele>247.005544</ele>
        <time>2024-12-17T10:11:47.000Z</time>
      </trkpt>
      <trkpt lat="50.26462" lon="4.51516">
        <ele>247.0869</ele>
        <time>2024-12-17T10:11:48.000Z</time>
      </trkpt>
      <trkpt lat="50.26463" lon="4.51518">
        <ele>247.172745</ele>
        <time>2024-12-17T10:11:49.000Z</time>
      </trkpt>
      <trkpt lat="50.26464" lon="4.5152">
        <ele>247.2541</ele>
        <time>2024-12-17T10:11:50.000Z</time>
      </trkpt>
      <trkpt lat="50.26465" lon="4.51522">
        <ele>247.327355</ele>
        <time>2024-12-17T10:11:51.000Z</time>
      </trkpt>
      <trkpt lat="50.26466" lon="4.51524">
        <ele>247.400151</ele>
        <time>2024-12-17T10:11:52.000Z</time>
      </trkpt>
      <trkpt lat="50.26466" lon="4.51527">
        <ele>247.470118</ele>
        <time>2024-12-17T10:11:53.000Z</time>
      </trkpt>
      <trkpt lat="50.26467" lon="4.51529">
        <ele>247.541086</ele>
        <time>2024-12-17T10:11:54.000Z</time>
      </trkpt>
      <trkpt lat="50.26468" lon="4.51531">
        <ele>247.619354</ele>
        <time>2024-12-17T10:11:55.000Z</time>
      </trkpt>
      <trkpt lat="50.26469" lon="4.51533">
        <ele>247.695115</ele>
        <time>2024-12-17T10:11:56.000Z</time>
      </trkpt>
      <trkpt lat="50.2647" lon="4.51535">
        <ele>247.773583</ele>
        <time>2024-12-17T10:11:57.000Z</time>
      </trkpt>
      <trkpt lat="50.26471" lon="4.51537">
        <ele>247.857278</ele>
        <time>2024-12-17T10:11:58.000Z</time>
      </trkpt>
      <trkpt lat="50.26472" lon="4.5154">
        <ele>247.943352</ele>
        <time>2024-12-17T10:11:59.000Z</time>
      </trkpt>
      <trkpt lat="50.26473" lon="4.51542">
        <ele>248.034277</ele>
        <time>2024-12-17T10:12:00.000Z</time>
      </trkpt>
      <trkpt lat="50.26473" lon="4.51545">
        <ele>248.116062</ele>
        <time>2024-12-17T10:12:01.000Z</time>
      </trkpt>
      <trkpt lat="50.26474" lon="4.51547">
        <ele>248.197846</ele>
        <time>2024-12-17T10:12:02.000Z</time>
      </trkpt>
      <trkpt lat="50.26475" lon="4.51549">
        <ele>248.268815</ele>
        <time>2024-12-17T10:12:03.000Z</time>
      </trkpt>
      <trkpt lat="50.26476" lon="4.51551">
        <ele>248.334508</ele>
        <time>2024-12-17T10:12:04.000Z</time>
      </trkpt>
      <trkpt lat="50.26476" lon="4.51553">
        <ele>248.395103</ele>
        <time>2024-12-17T10:12:05.000Z</time>
      </trkpt>
      <trkpt lat="50.26477" lon="4.51555">
        <ele>248.449849</ele>
        <time>2024-12-17T10:12:06.000Z</time>
      </trkpt>
      <trkpt lat="50.26477" lon="4.51557">
        <ele>248.508494</ele>
        <time>2024-12-17T10:12:07.000Z</time>
      </trkpt>
      <trkpt lat="50.26478" lon="4.51558">
        <ele>248.571629</ele>
        <time>2024-12-17T10:12:08.000Z</time>
      </trkpt>
      <trkpt lat="50.26478" lon="4.5156">
        <ele>248.635131</ele>
        <time>2024-12-17T10:12:09.000Z</time>
      </trkpt>
      <trkpt lat="50.26479" lon="4.51562">
        <ele>248.692235</ele>
        <time>2024-12-17T10:12:10.000Z</time>
      </trkpt>
      <trkpt lat="50.26479" lon="4.51564">
        <ele>248.746172</ele>
        <time>2024-12-17T10:12:11.000Z</time>
      </trkpt>
      <trkpt lat="50.26479" lon="4.51566">
        <ele>248.797113</ele>
        <time>2024-12-17T10:12:12.000Z</time>
      </trkpt>
      <trkpt lat="50.26479" lon="4.51568">
        <ele>248.857773</ele>
        <time>2024-12-17T10:12:13.000Z</time>
      </trkpt>
      <trkpt lat="50.26479" lon="4.5157">
        <ele>248.927739</ele>
        <time>2024-12-17T10:12:14.000Z</time>
      </trkpt>
      <trkpt lat="50.2648" lon="4.51572">
        <ele>249.003583</ele>
        <time>2024-12-17T10:12:15.000Z</time>
      </trkpt>
      <trkpt lat="50.26481" lon="4.51574">
        <ele>249.08185</ele>
        <time>2024-12-17T10:12:16.000Z</time>
      </trkpt>
      <trkpt lat="50.26482" lon="4.51577">
        <ele>249.160899</ele>
        <time>2024-12-17T10:12:17.000Z</time>
      </trkpt>
      <trkpt lat="50.26482" lon="4.51579">
        <ele>249.235337</ele>
        <time>2024-12-17T10:12:18.000Z</time>
      </trkpt>
      <trkpt lat="50.26483" lon="4.51581">
        <ele>249.293982</ele>
        <time>2024-12-17T10:12:19.000Z</time>
      </trkpt>
      <trkpt lat="50.26483" lon="4.51583">
        <ele>249.374001</ele>
        <time>2024-12-17T10:12:20.000Z</time>
      </trkpt>
      <trkpt lat="50.26484" lon="4.51585">
        <ele>249.444698</ele>
        <time>2024-12-17T10:12:21.000Z</time>
      </trkpt>
      <trkpt lat="50.26484" lon="4.51588">
        <ele>249.516123</ele>
        <time>2024-12-17T10:12:22.000Z</time>
      </trkpt>
      <trkpt lat="50.26485" lon="4.5159">
        <ele>249.58353</ele>
        <time>2024-12-17T10:12:23.000Z</time>
      </trkpt>
      <trkpt lat="50.26485" lon="4.51592">
        <ele>249.641231</ele>
        <time>2024-12-17T10:12:24.000Z</time>
      </trkpt>
      <trkpt lat="50.26485" lon="4.51593">
        <ele>249.694077</ele>
        <time>2024-12-17T10:12:25.000Z</time>
      </trkpt>
      <trkpt lat="50.26485" lon="4.51595">
        <ele>249.744041</ele>
        <time>2024-12-17T10:12:26.000Z</time>
      </trkpt>
      <trkpt lat="50.26486" lon="4.51597">
        <ele>249.799627</ele>
        <time>2024-12-17T10:12:27.000Z</time>
      </trkpt>
      <trkpt lat="50.26487" lon="4.51598">
        <ele>249.852993</ele>
        <time>2024-12-17T10:12:28.000Z</time>
      </trkpt>
      <trkpt lat="50.26487" lon="4.516">
        <ele>249.91012</ele>
        <time>2024-12-17T10:12:29.000Z</time>
      </trkpt>
      <trkpt lat="50.26487" lon="4.51602">
        <ele>249.973221</ele>
        <time>2024-12-17T10:12:30.000Z</time>
      </trkpt>
      <trkpt lat="50.26487" lon="4.51605">
        <ele>250.04529</ele>
        <time>2024-12-17T10:12:31.000Z</time>
      </trkpt>
      <trkpt lat="50.26487" lon="4.51607">
        <ele>250.118569</ele>
        <time>2024-12-17T10:12:32.000Z</time>
      </trkpt>
      <trkpt lat="50.26487" lon="4.5161">
        <ele>250.197738</ele>
        <time>2024-12-17T10:12:33.000Z</time>
      </trkpt>
      <trkpt lat="50.26488" lon="4.51612">
        <ele>250.279185</ele>
        <time>2024-12-17T10:12:34.000Z</time>
      </trkpt>
      <trkpt lat="50.26488" lon="4.51615">
        <ele>250.357236</ele>
        <time>2024-12-17T10:12:35.000Z</time>
      </trkpt>
      <trkpt lat="50.26488" lon="4.51618">
        <ele>250.441269</ele>
        <time>2024-12-17T10:12:36.000Z</time>
      </trkpt>
      <trkpt lat="50.26488" lon="4.51621">
        <ele>250.529299</ele>
        <time>2024-12-17T10:12:37.000Z</time>
      </trkpt>
      <trkpt lat="50.26489" lon="4.51623">
        <ele>250.615271</ele>
        <time>2024-12-17T10:12:38.000Z</time>
      </trkpt>
      <trkpt lat="50.26489" lon="4.51626">
        <ele>250.703301</ele>
        <time>2024-12-17T10:12:39.000Z</time>
      </trkpt>
      <trkpt lat="50.26489" lon="4.51629">
        <ele>250.793684</ele>
        <time>2024-12-17T10:12:40.000Z</time>
      </trkpt>
      <trkpt lat="50.26489" lon="4.51632">
        <ele>250.880709</ele>
        <time>2024-12-17T10:12:41.000Z</time>
      </trkpt>
      <trkpt lat="50.26489" lon="4.51635">
        <ele>250.971093</ele>
        <time>2024-12-17T10:12:42.000Z</time>
      </trkpt>
      <trkpt lat="50.26489" lon="4.51638">
        <ele>251.06111</ele>
        <time>2024-12-17T10:12:43.000Z</time>
      </trkpt>
      <trkpt lat="50.26489" lon="4.51641">
        <ele>251.154475</ele>
        <time>2024-12-17T10:12:44.000Z</time>
      </trkpt>
      <trkpt lat="50.2649" lon="4.51645">
        <ele>251.253803</ele>
        <time>2024-12-17T10:12:45.000Z</time>
      </trkpt>
      <trkpt lat="50.2649" lon="4.51648">
        <ele>251.350149</ele>
        <time>2024-12-17T10:12:46.000Z</time>
      </trkpt>
      <trkpt lat="50.2649" lon="4.51651">
        <ele>251.450796</ele>
        <time>2024-12-17T10:12:47.000Z</time>
      </trkpt>
      <trkpt lat="50.2649" lon="4.51654">
        <ele>251.547142</ele>
        <time>2024-12-17T10:12:48.000Z</time>
      </trkpt>
      <trkpt lat="50.26491" lon="4.51658">
        <ele>251.647022</ele>
        <time>2024-12-17T10:12:49.000Z</time>
      </trkpt>
      <trkpt lat="50.26491" lon="4.51661">
        <ele>251.743368</ele>
        <time>2024-12-17T10:12:50.000Z</time>
      </trkpt>
      <trkpt lat="50.26491" lon="4.51664">
        <ele>251.84568</ele>
        <time>2024-12-17T10:12:51.000Z</time>
      </trkpt>
      <trkpt lat="50.26491" lon="4.51667">
        <ele>251.944677</ele>
        <time>2024-12-17T10:12:52.000Z</time>
      </trkpt>
      <trkpt lat="50.26491" lon="4.51671">
        <ele>252.04068</ele>
        <time>2024-12-17T10:12:53.000Z</time>
      </trkpt>
      <trkpt lat="50.26491" lon="4.51674">
        <ele>252.13369</ele>
        <time>2024-12-17T10:12:54.000Z</time>
      </trkpt>
      <trkpt lat="50.26492" lon="4.51677">
        <ele>252.237283</ele>
        <time>2024-12-17T10:12:55.000Z</time>
      </trkpt>
      <trkpt lat="50.26492" lon="4.51681">
        <ele>252.343824</ele>
        <time>2024-12-17T10:12:56.000Z</time>
      </trkpt>
      <trkpt lat="50.26492" lon="4.51684">
        <ele>252.450365</ele>
        <time>2024-12-17T10:12:57.000Z</time>
      </trkpt>
      <trkpt lat="50.26493" lon="4.51688">
        <ele>252.555348</ele>
        <time>2024-12-17T10:12:58.000Z</time>
      </trkpt>
      <trkpt lat="50.26493" lon="4.51691">
        <ele>252.663629</ele>
        <time>2024-12-17T10:12:59.000Z</time>
      </trkpt>
      <trkpt lat="50.26493" lon="4.51695">
        <ele>252.783856</ele>
        <time>2024-12-17T10:13:00.000Z</time>
      </trkpt>
      <trkpt lat="50.26493" lon="4.51699">
        <ele>252.89782</ele>
        <time>2024-12-17T10:13:01.000Z</time>
      </trkpt>
      <trkpt lat="50.26493" lon="4.51703">
        <ele>253.014779</ele>
        <time>2024-12-17T10:13:02.000Z</time>
      </trkpt>
      <trkpt lat="50.26493" lon="4.51707">
        <ele>253.134639</ele>
        <time>2024-12-17T10:13:03.000Z</time>
      </trkpt>
      <trkpt lat="50.26493" lon="4.51711">
        <ele>253.257586</ele>
        <time>2024-12-17T10:13:04.000Z</time>
      </trkpt>
      <trkpt lat="50.26493" lon="4.51715">
        <ele>253.377538</ele>
        <time>2024-12-17T10:13:05.000Z</time>
      </trkpt>
      <trkpt lat="50.26493" lon="4.51719">
        <ele>253.503479</ele>
        <time>2024-12-17T10:13:06.000Z</time>
      </trkpt>
      <trkpt lat="50.26493" lon="4.51723">
        <ele>253.626426</ele>
        <time>2024-12-17T10:13:07.000Z</time>
      </trkpt>
      <trkpt lat="50.26493" lon="4.51727">
        <ele>253.746653</ele>
        <time>2024-12-17T10:13:08.000Z</time>
      </trkpt>
      <trkpt lat="50.26493" lon="4.51732">
        <ele>253.872594</ele>
        <time>2024-12-17T10:13:09.000Z</time>
      </trkpt>
      <trkpt lat="50.26493" lon="4.51736">
        <ele>253.998448</ele>
        <time>2024-12-17T10:13:10.000Z</time>
      </trkpt>
      <trkpt lat="50.26493" lon="4.5174">
        <ele>254.127383</ele>
        <time>2024-12-17T10:13:11.000Z</time>
      </trkpt>
      <trkpt lat="50.26493" lon="4.51744">
        <ele>254.256319</ele>
        <time>2024-12-17T10:13:12.000Z</time>
      </trkpt>
      <trkpt lat="50.26493" lon="4.51749">
        <ele>254.32288</ele>
        <time>2024-12-17T10:13:13.000Z</time>
      </trkpt>
      <trkpt lat="50.26493" lon="4.51753">
        <ele>254.365467</ele>
        <time>2024-12-17T10:13:14.000Z</time>
      </trkpt>
      <trkpt lat="50.26494" lon="4.51757">
        <ele>254.410532</ele>
        <time>2024-12-17T10:13:15.000Z</time>
      </trkpt>
      <trkpt lat="50.26494" lon="4.51761">
        <ele>254.451215</ele>
        <time>2024-12-17T10:13:16.000Z</time>
      </trkpt>
      <trkpt lat="50.26494" lon="4.51765">
        <ele>254.49306</ele>
        <time>2024-12-17T10:13:17.000Z</time>
      </trkpt>
      <trkpt lat="50.26494" lon="4.5177">
        <ele>254.536921</ele>
        <time>2024-12-17T10:13:18.000Z</time>
      </trkpt>
      <trkpt lat="50.26494" lon="4.51774">
        <ele>254.578524</ele>
        <time>2024-12-17T10:13:19.000Z</time>
      </trkpt>
      <trkpt lat="50.26495" lon="4.51778">
        <ele>254.623393</ele>
        <time>2024-12-17T10:13:20.000Z</time>
      </trkpt>
      <trkpt lat="50.26495" lon="4.51782">
        <ele>254.666098</ele>
        <time>2024-12-17T10:13:21.000Z</time>
      </trkpt>
      <trkpt lat="50.26495" lon="4.51787">
        <ele>254.708804</ele>
        <time>2024-12-17T10:13:22.000Z</time>
      </trkpt>
      <trkpt lat="50.26495" lon="4.51791">
        <ele>254.750498</ele>
        <time>2024-12-17T10:13:23.000Z</time>
      </trkpt>
      <trkpt lat="50.26495" lon="4.51795">
        <ele>254.791826</ele>
        <time>2024-12-17T10:13:24.000Z</time>
      </trkpt>
      <trkpt lat="50.26496" lon="4.51799">
        <ele>254.831926</ele>
        <time>2024-12-17T10:13:25.000Z</time>
      </trkpt>
      <trkpt lat="50.26497" lon="4.51802">
        <ele>254.873969</ele>
        <time>2024-12-17T10:13:26.000Z</time>
      </trkpt>
      <trkpt lat="50.26498" lon="4.51807">
        <ele>254.91798</ele>
        <time>2024-12-17T10:13:27.000Z</time>
      </trkpt>
      <trkpt lat="50.26498" lon="4.51811">
        <ele>254.962297</ele>
        <time>2024-12-17T10:13:28.000Z</time>
      </trkpt>
      <trkpt lat="50.26499" lon="4.51815">
        <ele>255.007917</ele>
        <time>2024-12-17T10:13:29.000Z</time>
      </trkpt>
      <trkpt lat="50.265" lon="4.5182">
        <ele>255.056255</ele>
        <time>2024-12-17T10:13:30.000Z</time>
      </trkpt>
      <trkpt lat="50.265" lon="4.51825">
        <ele>255.104202</ele>
        <time>2024-12-17T10:13:31.000Z</time>
      </trkpt>
      <trkpt lat="50.26501" lon="4.51829">
        <ele>255.153136</ele>
        <time>2024-12-17T10:13:32.000Z</time>
      </trkpt>
      <trkpt lat="50.26502" lon="4.51834">
        <ele>255.20207</ele>
        <time>2024-12-17T10:13:33.000Z</time>
      </trkpt>
      <trkpt lat="50.26502" lon="4.51839">
        <ele>255.252981</ele>
        <time>2024-12-17T10:13:34.000Z</time>
      </trkpt>
      <trkpt lat="50.26503" lon="4.51844">
        <ele>255.303279</ele>
        <time>2024-12-17T10:13:35.000Z</time>
      </trkpt>
      <trkpt lat="50.26504" lon="4.51848">
        <ele>255.35109</ele>
        <time>2024-12-17T10:13:36.000Z</time>
      </trkpt>
      <trkpt lat="50.26505" lon="4.51853">
        <ele>255.397475</ele>
        <time>2024-12-17T10:13:37.000Z</time>
      </trkpt>
      <trkpt lat="50.26506" lon="4.51857">
        <ele>255.446742</ele>
        <time>2024-12-17T10:13:38.000Z</time>
      </trkpt>
      <trkpt lat="50.26507" lon="4.51862">
        <ele>255.49505</ele>
        <time>2024-12-17T10:13:39.000Z</time>
      </trkpt>
      <trkpt lat="50.26508" lon="4.51866">
        <ele>255.543388</ele>
        <time>2024-12-17T10:13:40.000Z</time>
      </trkpt>
      <trkpt lat="50.26509" lon="4.51871">
        <ele>255.588799</ele>
        <time>2024-12-17T10:13:41.000Z</time>
      </trkpt>
      <trkpt lat="50.26509" lon="4.51875">
        <ele>255.636609</ele>
        <time>2024-12-17T10:13:42.000Z</time>
      </trkpt>
      <trkpt lat="50.2651" lon="4.51879">
        <ele>255.682488</ele>
        <time>2024-12-17T10:13:43.000Z</time>
      </trkpt>
      <trkpt lat="50.26511" lon="4.51883">
        <ele>255.725519</ele>
        <time>2024-12-17T10:13:44.000Z</time>
      </trkpt>
      <trkpt lat="50.26512" lon="4.51888">
        <ele>255.768168</ele>
        <time>2024-12-17T10:13:45.000Z</time>
      </trkpt>
      <trkpt lat="50.26513" lon="4.51892">
        <ele>255.814047</ele>
        <time>2024-12-17T10:13:46.000Z</time>
      </trkpt>
      <trkpt lat="50.26514" lon="4.51896">
        <ele>255.861398</ele>
        <time>2024-12-17T10:13:47.000Z</time>
      </trkpt>
      <trkpt lat="50.26514" lon="4.51901">
        <ele>255.908242</ele>
        <time>2024-12-17T10:13:48.000Z</time>
      </trkpt>
      <trkpt lat="50.26515" lon="4.51905">
        <ele>255.954639</ele>
        <time>2024-12-17T10:13:49.000Z</time>
      </trkpt>
      <trkpt lat="50.26517" lon="4.51909">
        <ele>256.000662</ele>
        <time>2024-12-17T10:13:50.000Z</time>
      </trkpt>
      <trkpt lat="50.26518" lon="4.51914">
        <ele>256.048014</ele>
        <time>2024-12-17T10:13:51.000Z</time>
      </trkpt>
      <trkpt lat="50.26519" lon="4.51918">
        <ele>256.094411</ele>
        <time>2024-12-17T10:13:52.000Z</time>
      </trkpt>
      <trkpt lat="50.26519" lon="4.51922">
        <ele>256.14319</ele>
        <time>2024-12-17T10:13:53.000Z</time>
      </trkpt>
      <trkpt lat="50.26521" lon="4.51927">
        <ele>256.192041</ele>
        <time>2024-12-17T10:13:54.000Z</time>
      </trkpt>
      <trkpt lat="50.26522" lon="4.51931">
        <ele>256.242114</ele>
        <time>2024-12-17T10:13:55.000Z</time>
      </trkpt>
      <trkpt lat="50.26523" lon="4.51936">
        <ele>256.292186</ele>
        <time>2024-12-17T10:13:56.000Z</time>
      </trkpt>
      <trkpt lat="50.26524" lon="4.5194">
        <ele>256.341337</ele>
        <time>2024-12-17T10:13:57.000Z</time>
      </trkpt>
      <trkpt lat="50.26526" lon="4.51945">
        <ele>256.389568</ele>
        <time>2024-12-17T10:13:58.000Z</time>
      </trkpt>
      <trkpt lat="50.26527" lon="4.51949">
        <ele>256.438719</ele>
        <time>2024-12-17T10:13:59.000Z</time>
      </trkpt>
      <trkpt lat="50.26528" lon="4.51953">
        <ele>256.485366</ele>
        <time>2024-12-17T10:14:00.000Z</time>
      </trkpt>
      <trkpt lat="50.26529" lon="4.51957">
        <ele>256.53109</ele>
        <time>2024-12-17T10:14:01.000Z</time>
      </trkpt>
      <trkpt lat="50.26531" lon="4.51961">
        <ele>256.574978</ele>
        <time>2024-12-17T10:14:02.000Z</time>
      </trkpt>
      <trkpt lat="50.26532" lon="4.51965">
        <ele>256.619577</ele>
        <time>2024-12-17T10:14:03.000Z</time>
      </trkpt>
      <trkpt lat="50.26533" lon="4.51969">
        <ele>256.666894</ele>
        <time>2024-12-17T10:14:04.000Z</time>
      </trkpt>
      <trkpt lat="50.26534" lon="4.51974">
        <ele>256.714469</ele>
        <time>2024-12-17T10:14:05.000Z</time>
      </trkpt>
      <trkpt lat="50.26536" lon="4.51978">
        <ele>256.761786</ele>
        <time>2024-12-17T10:14:06.000Z</time>
      </trkpt>
      <trkpt lat="50.26537" lon="4.51982">
        <ele>256.811457</ele>
        <time>2024-12-17T10:14:07.000Z</time>
      </trkpt>
      <trkpt lat="50.26539" lon="4.51986">
        <ele>256.859486</ele>
        <time>2024-12-17T10:14:08.000Z</time>
      </trkpt>
      <trkpt lat="50.2654" lon="4.5199">
        <ele>256.905638</ele>
        <time>2024-12-17T10:14:09.000Z</time>
      </trkpt>
      <trkpt lat="50.26542" lon="4.51994">
        <ele>256.950111</ele>
        <time>2024-12-17T10:14:10.000Z</time>
      </trkpt>
      <trkpt lat="50.26543" lon="4.51998">
        <ele>256.993087</ele>
        <time>2024-12-17T10:14:11.000Z</time>
      </trkpt>
      <trkpt lat="50.26544" lon="4.52002">
        <ele>257.035157</ele>
        <time>2024-12-17T10:14:12.000Z</time>
      </trkpt>
      <trkpt lat="50.26545" lon="4.52005">
        <ele>257.078133</ele>
        <time>2024-12-17T10:14:13.000Z</time>
      </trkpt>
      <trkpt lat="50.26546" lon="4.52009">
        <ele>257.119179</ele>
        <time>2024-12-17T10:14:14.000Z</time>
      </trkpt>
      <trkpt lat="50.26548" lon="4.52012">
        <ele>257.151277</ele>
        <time>2024-12-17T10:14:15.000Z</time>
      </trkpt>
      <trkpt lat="50.26549" lon="4.52016">
        <ele>257.17051</ele>
        <time>2024-12-17T10:14:16.000Z</time>
      </trkpt>
      <trkpt lat="50.26551" lon="4.52019">
        <ele>257.191346</ele>
        <time>2024-12-17T10:14:17.000Z</time>
      </trkpt>
      <trkpt lat="50.26552" lon="4.52023">
        <ele>257.212358</ele>
        <time>2024-12-17T10:14:18.000Z</time>
      </trkpt>
      <trkpt lat="50.26553" lon="4.52027">
        <ele>257.233698</ele>
        <time>2024-12-17T10:14:19.000Z</time>
      </trkpt>
      <trkpt lat="50.26555" lon="4.52031">
        <ele>257.254969</ele>
        <time>2024-12-17T10:14:20.000Z</time>
      </trkpt>
      <trkpt lat="50.26556" lon="4.52035">
        <ele>257.275886</ele>
        <time>2024-12-17T10:14:21.000Z</time>
      </trkpt>
      <trkpt lat="50.26557" lon="4.52039">
        <ele>257.296469</ele>
        <time>2024-12-17T10:14:22.000Z</time>
      </trkpt>
      <trkpt lat="50.26559" lon="4.52043">
        <ele>257.316547</ele>
        <time>2024-12-17T10:14:23.000Z</time>
      </trkpt>
      <trkpt lat="50.2656" lon="4.52046">
        <ele>257.337383</ele>
        <time>2024-12-17T10:14:24.000Z</time>
      </trkpt>
      <trkpt lat="50.26562" lon="4.5205">
        <ele>257.359022</ele>
        <time>2024-12-17T10:14:25.000Z</time>
      </trkpt>
      <trkpt lat="50.26563" lon="4.52054">
        <ele>257.377569</ele>
        <time>2024-12-17T10:14:26.000Z</time>
      </trkpt>
      <trkpt lat="50.26564" lon="4.52058">
        <ele>257.397552</ele>
        <time>2024-12-17T10:14:27.000Z</time>
      </trkpt>
      <trkpt lat="50.26565" lon="4.52062">
        <ele>257.419239</ele>
        <time>2024-12-17T10:14:28.000Z</time>
      </trkpt>
      <trkpt lat="50.26567" lon="4.52066">
        <ele>257.441704</ele>
        <time>2024-12-17T10:14:29.000Z</time>
      </trkpt>
      <trkpt lat="50.26568" lon="4.5207">
        <ele>257.462717</ele>
        <time>2024-12-17T10:14:30.000Z</time>
      </trkpt>
      <trkpt lat="50.26569" lon="4.52073">
        <ele>257.482873</ele>
        <time>2024-12-17T10:14:31.000Z</time>
      </trkpt>
      <trkpt lat="50.2657" lon="4.52077">
        <ele>257.503145</ele>
        <time>2024-12-17T10:14:32.000Z</time>
      </trkpt>
      <trkpt lat="50.26572" lon="4.52081">
        <ele>257.523223</ele>
        <time>2024-12-17T10:14:33.000Z</time>
      </trkpt>
      <trkpt lat="50.26573" lon="4.52085">
        <ele>257.544139</ele>
        <time>2024-12-17T10:14:34.000Z</time>
      </trkpt>
      <trkpt lat="50.26574" lon="4.52089">
        <ele>257.563243</ele>
        <time>2024-12-17T10:14:35.000Z</time>
      </trkpt>
      <trkpt lat="50.26575" lon="4.52093">
        <ele>257.583515</ele>
        <time>2024-12-17T10:14:36.000Z</time>
      </trkpt>
      <trkpt lat="50.26576" lon="4.52096">
        <ele>257.604098</ele>
        <time>2024-12-17T10:14:37.000Z</time>
      </trkpt>
      <trkpt lat="50.26577" lon="4.521">
        <ele>257.624806</ele>
        <time>2024-12-17T10:14:38.000Z</time>
      </trkpt>
      <trkpt lat="50.26578" lon="4.52105">
        <ele>257.64625</ele>
        <time>2024-12-17T10:14:39.000Z</time>
      </trkpt>
      <trkpt lat="50.2658" lon="4.52109">
        <ele>257.669129</ele>
        <time>2024-12-17T10:14:40.000Z</time>
      </trkpt>
      <trkpt lat="50.26581" lon="4.52113">
        <ele>257.690046</ele>
        <time>2024-12-17T10:14:41.000Z</time>
      </trkpt>
      <trkpt lat="50.26583" lon="4.52116">
        <ele>257.710542</ele>
        <time>2024-12-17T10:14:42.000Z</time>
      </trkpt>
      <trkpt lat="50.26584" lon="4.5212">
        <ele>257.731813</ele>
        <time>2024-12-17T10:14:43.000Z</time>
      </trkpt>
      <trkpt lat="50.26585" lon="4.52125">
        <ele>257.754338</ele>
        <time>2024-12-17T10:14:44.000Z</time>
      </trkpt>
      <trkpt lat="50.26586" lon="4.52128">
        <ele>257.77361</ele>
        <time>2024-12-17T10:14:45.000Z</time>
      </trkpt>
      <trkpt lat="50.26587" lon="4.52133">
        <ele>257.796096</ele>
        <time>2024-12-17T10:14:46.000Z</time>
      </trkpt>
      <trkpt lat="50.26588" lon="4.52137">
        <ele>257.818308</ele>
        <time>2024-12-17T10:14:47.000Z</time>
      </trkpt>
      <trkpt lat="50.26589" lon="4.52142">
        <ele>257.840776</ele>
        <time>2024-12-17T10:14:48.000Z</time>
      </trkpt>
      <trkpt lat="50.2659" lon="4.52146">
        <ele>257.862967</ele>
        <time>2024-12-17T10:14:49.000Z</time>
      </trkpt>
      <trkpt lat="50.26591" lon="4.5215">
        <ele>257.885587</ele>
        <time>2024-12-17T10:14:50.000Z</time>
      </trkpt>
      <trkpt lat="50.26593" lon="4.52155">
        <ele>257.909071</ele>
        <time>2024-12-17T10:14:51.000Z</time>
      </trkpt>
      <trkpt lat="50.26594" lon="4.52159">
        <ele>257.932989</ele>
        <time>2024-12-17T10:14:52.000Z</time>
      </trkpt>
      <trkpt lat="50.26595" lon="4.52164">
        <ele>257.956789</ele>
        <time>2024-12-17T10:14:53.000Z</time>
      </trkpt>
      <trkpt lat="50.26597" lon="4.52168">
        <ele>257.979409</ele>
        <time>2024-12-17T10:14:54.000Z</time>
      </trkpt>
      <trkpt lat="50.26598" lon="4.52173">
        <ele>258.00246</ele>
        <time>2024-12-17T10:14:55.000Z</time>
      </trkpt>
      <trkpt lat="50.266" lon="4.52177">
        <ele>258.026595</ele>
        <time>2024-12-17T10:14:56.000Z</time>
      </trkpt>
      <trkpt lat="50.26601" lon="4.52181">
        <ele>258.048786</ele>
        <time>2024-12-17T10:14:57.000Z</time>
      </trkpt>
      <trkpt lat="50.26602" lon="4.52185">
        <ele>258.07055</ele>
        <time>2024-12-17T10:14:58.000Z</time>
      </trkpt>
      <trkpt lat="50.26603" lon="4.5219">
        <ele>258.092315</ele>
        <time>2024-12-17T10:14:59.000Z</time>
      </trkpt>
      <trkpt lat="50.26605" lon="4.52194">
        <ele>258.113899</ele>
        <time>2024-12-17T10:15:00.000Z</time>
      </trkpt>
      <trkpt lat="50.26606" lon="4.52198">
        <ele>258.135664</ele>
        <time>2024-12-17T10:15:01.000Z</time>
      </trkpt>
      <trkpt lat="50.26607" lon="4.52202">
        <ele>258.158129</ele>
        <time>2024-12-17T10:15:02.000Z</time>
      </trkpt>
      <trkpt lat="50.26609" lon="4.52206">
        <ele>258.180006</ele>
        <time>2024-12-17T10:15:03.000Z</time>
      </trkpt>
      <trkpt lat="50.2661" lon="4.5221">
        <ele>258.202031</ele>
        <time>2024-12-17T10:15:04.000Z</time>
      </trkpt>
      <trkpt lat="50.26611" lon="4.52214">
        <ele>258.223044</ele>
        <time>2024-12-17T10:15:05.000Z</time>
      </trkpt>
      <trkpt lat="50.26612" lon="4.52218">
        <ele>258.24396</ele>
        <time>2024-12-17T10:15:06.000Z</time>
      </trkpt>
      <trkpt lat="50.26613" lon="4.52222">
        <ele>258.265725</ele>
        <time>2024-12-17T10:15:07.000Z</time>
      </trkpt>
      <trkpt lat="50.26615" lon="4.52227">
        <ele>258.287489</ele>
        <time>2024-12-17T10:15:08.000Z</time>
      </trkpt>
      <trkpt lat="50.26616" lon="4.52231">
        <ele>258.309956</ele>
        <time>2024-12-17T10:15:09.000Z</time>
      </trkpt>
      <trkpt lat="50.26617" lon="4.52235">
        <ele>258.331296</ele>
        <time>2024-12-17T10:15:10.000Z</time>
      </trkpt>
      <trkpt lat="50.26618" lon="4.52239">
        <ele>258.352635</ele>
        <time>2024-12-17T10:15:11.000Z</time>
      </trkpt>
      <trkpt lat="50.2662" lon="4.52243">
        <ele>258.373648</ele>
        <time>2024-12-17T10:15:12.000Z</time>
      </trkpt>
      <trkpt lat="50.26621" lon="4.52247">
        <ele>258.395334</ele>
        <time>2024-12-17T10:15:13.000Z</time>
      </trkpt>
      <trkpt lat="50.26622" lon="4.52251">
        <ele>258.416605</ele>
        <time>2024-12-17T10:15:14.000Z</time>
      </trkpt>
      <trkpt lat="50.26624" lon="4.52254">
        <ele>258.436683</ele>
        <time>2024-12-17T10:15:15.000Z</time>
      </trkpt>
      <trkpt lat="50.26626" lon="4.52257">
        <ele>258.457452</ele>
        <time>2024-12-17T10:15:16.000Z</time>
      </trkpt>
      <trkpt lat="50.26627" lon="4.52261">
        <ele>258.478288</ele>
        <time>2024-12-17T10:15:17.000Z</time>
      </trkpt>
      <trkpt lat="50.26629" lon="4.52265">
        <ele>258.480286</ele>
        <time>2024-12-17T10:15:18.000Z</time>
      </trkpt>
      <trkpt lat="50.26629" lon="4.52269">
        <ele>258.479892</ele>
        <time>2024-12-17T10:15:19.000Z</time>
      </trkpt>
      <trkpt lat="50.2663" lon="4.52273">
        <ele>258.479501</ele>
        <time>2024-12-17T10:15:20.000Z</time>
      </trkpt>
      <trkpt lat="50.26632" lon="4.52277">
        <ele>258.479093</ele>
        <time>2024-12-17T10:15:21.000Z</time>
      </trkpt>
      <trkpt lat="50.26633" lon="4.5228">
        <ele>258.478708</ele>
        <time>2024-12-17T10:15:22.000Z</time>
      </trkpt>
      <trkpt lat="50.26634" lon="4.52284">
        <ele>258.478326</ele>
        <time>2024-12-17T10:15:23.000Z</time>
      </trkpt>
      <trkpt lat="50.26635" lon="4.52288">
        <ele>258.477943</ele>
        <time>2024-12-17T10:15:24.000Z</time>
      </trkpt>
      <trkpt lat="50.26636" lon="4.52292">
        <ele>258.477549</ele>
        <time>2024-12-17T10:15:25.000Z</time>
      </trkpt>
      <trkpt lat="50.26638" lon="4.52296">
        <ele>258.477147</ele>
        <time>2024-12-17T10:15:26.000Z</time>
      </trkpt>
      <trkpt lat="50.26639" lon="4.523">
        <ele>258.476733</ele>
        <time>2024-12-17T10:15:27.000Z</time>
      </trkpt>
      <trkpt lat="50.2664" lon="4.52304">
        <ele>258.476299</ele>
        <time>2024-12-17T10:15:28.000Z</time>
      </trkpt>
      <trkpt lat="50.26641" lon="4.52308">
        <ele>258.475877</ele>
        <time>2024-12-17T10:15:29.000Z</time>
      </trkpt>
      <trkpt lat="50.26642" lon="4.52312">
        <ele>258.475465</ele>
        <time>2024-12-17T10:15:30.000Z</time>
      </trkpt>
      <trkpt lat="50.26643" lon="4.52316">
        <ele>258.475064</ele>
        <time>2024-12-17T10:15:31.000Z</time>
      </trkpt>
      <trkpt lat="50.26643" lon="4.52321">
        <ele>258.474652</ele>
        <time>2024-12-17T10:15:32.000Z</time>
      </trkpt>
      <trkpt lat="50.26644" lon="4.52325">
        <ele>258.474245</ele>
        <time>2024-12-17T10:15:33.000Z</time>
      </trkpt>
      <trkpt lat="50.26645" lon="4.52329">
        <ele>258.473808</ele>
        <time>2024-12-17T10:15:34.000Z</time>
      </trkpt>
      <trkpt lat="50.26647" lon="4.52333">
        <ele>258.473366</ele>
        <time>2024-12-17T10:15:35.000Z</time>
      </trkpt>
      <trkpt lat="50.26648" lon="4.52338">
        <ele>258.472935</ele>
        <time>2024-12-17T10:15:36.000Z</time>
      </trkpt>
      <trkpt lat="50.26649" lon="4.52342">
        <ele>258.472498</ele>
        <time>2024-12-17T10:15:37.000Z</time>
      </trkpt>
      <trkpt lat="50.2665" lon="4.52346">
        <ele>258.472073</ele>
        <time>2024-12-17T10:15:38.000Z</time>
      </trkpt>
      <trkpt lat="50.26651" lon="4.52351">
        <ele>258.471636</ele>
        <time>2024-12-17T10:15:39.000Z</time>
      </trkpt>
      <trkpt lat="50.26652" lon="4.52355">
        <ele>258.471183</ele>
        <time>2024-12-17T10:15:40.000Z</time>
      </trkpt>
      <trkpt lat="50.26653" lon="4.52359">
        <ele>258.470775</ele>
        <time>2024-12-17T10:15:41.000Z</time>
      </trkpt>
      <trkpt lat="50.26654" lon="4.52363">
        <ele>258.470367</ele>
        <time>2024-12-17T10:15:42.000Z</time>
      </trkpt>
      <trkpt lat="50.26655" lon="4.52367">
        <ele>258.46997</ele>
        <time>2024-12-17T10:15:43.000Z</time>
      </trkpt>
      <trkpt lat="50.26656" lon="4.52371">
        <ele>258.469565</ele>
        <time>2024-12-17T10:15:44.000Z</time>
      </trkpt>
      <trkpt lat="50.26658" lon="4.52375">
        <ele>258.469152</ele>
        <time>2024-12-17T10:15:45.000Z</time>
      </trkpt>
      <trkpt lat="50.26659" lon="4.52379">
        <ele>258.468744</ele>
        <time>2024-12-17T10:15:46.000Z</time>
      </trkpt>
      <trkpt lat="50.26661" lon="4.52383">
        <ele>258.468336</ele>
        <time>2024-12-17T10:15:47.000Z</time>
      </trkpt>
      <trkpt lat="50.26662" lon="4.52386">
        <ele>258.467925</ele>
        <time>2024-12-17T10:15:48.000Z</time>
      </trkpt>
      <trkpt lat="50.26664" lon="4.52389">
        <ele>258.467565</ele>
        <time>2024-12-17T10:15:49.000Z</time>
      </trkpt>
      <trkpt lat="50.26665" lon="4.52392">
        <ele>258.467227</ele>
        <time>2024-12-17T10:15:50.000Z</time>
      </trkpt>
      <trkpt lat="50.26666" lon="4.52395">
        <ele>258.466943</ele>
        <time>2024-12-17T10:15:51.000Z</time>
      </trkpt>
      <trkpt lat="50.26667" lon="4.52398">
        <ele>258.466595</ele>
        <time>2024-12-17T10:15:52.000Z</time>
      </trkpt>
      <trkpt lat="50.26668" lon="4.52402">
        <ele>258.466247</ele>
        <time>2024-12-17T10:15:53.000Z</time>
      </trkpt>
      <trkpt lat="50.2667" lon="4.52405">
        <ele>258.465871</ele>
        <time>2024-12-17T10:15:54.000Z</time>
      </trkpt>
      <trkpt lat="50.26671" lon="4.52408">
        <ele>258.465494</ele>
        <time>2024-12-17T10:15:55.000Z</time>
      </trkpt>
      <trkpt lat="50.26673" lon="4.52412">
        <ele>258.4651</ele>
        <time>2024-12-17T10:15:56.000Z</time>
      </trkpt>
      <trkpt lat="50.26674" lon="4.52415">
        <ele>258.464698</ele>
        <time>2024-12-17T10:15:57.000Z</time>
      </trkpt>
      <trkpt lat="50.26676" lon="4.52419">
        <ele>258.46429</ele>
        <time>2024-12-17T10:15:58.000Z</time>
      </trkpt>
      <trkpt lat="50.26678" lon="4.52422">
        <ele>258.463874</ele>
        <time>2024-12-17T10:15:59.000Z</time>
      </trkpt>
      <trkpt lat="50.26679" lon="4.52426">
        <ele>258.463466</ele>
        <time>2024-12-17T10:16:00.000Z</time>
      </trkpt>
      <trkpt lat="50.26681" lon="4.5243">
        <ele>258.463066</ele>
        <time>2024-12-17T10:16:01.000Z</time>
      </trkpt>
      <trkpt lat="50.26682" lon="4.52433">
        <ele>258.462659</ele>
        <time>2024-12-17T10:16:02.000Z</time>
      </trkpt>
      <trkpt lat="50.26683" lon="4.52437">
        <ele>258.462274</ele>
        <time>2024-12-17T10:16:03.000Z</time>
      </trkpt>
      <trkpt lat="50.26685" lon="4.52441">
        <ele>258.46188</ele>
        <time>2024-12-17T10:16:04.000Z</time>
      </trkpt>
      <trkpt lat="50.26686" lon="4.52445">
        <ele>258.461471</ele>
        <time>2024-12-17T10:16:05.000Z</time>
      </trkpt>
      <trkpt lat="50.26687" lon="4.52449">
        <ele>258.461076</ele>
        <time>2024-12-17T10:16:06.000Z</time>
      </trkpt>
      <trkpt lat="50.26688" lon="4.52452">
        <ele>258.460697</ele>
        <time>2024-12-17T10:16:07.000Z</time>
      </trkpt>
      <trkpt lat="50.26689" lon="4.52456">
        <ele>258.4603</ele>
        <time>2024-12-17T10:16:08.000Z</time>
      </trkpt>
      <trkpt lat="50.2669" lon="4.5246">
        <ele>258.459909</ele>
        <time>2024-12-17T10:16:09.000Z</time>
      </trkpt>
      <trkpt lat="50.26691" lon="4.52464">
        <ele>258.45951</ele>
        <time>2024-12-17T10:16:10.000Z</time>
      </trkpt>
      <trkpt lat="50.26692" lon="4.52468">
        <ele>258.459116</ele>
        <time>2024-12-17T10:16:11.000Z</time>
      </trkpt>
      <trkpt lat="50.26693" lon="4.52472">
        <ele>258.458713</ele>
        <time>2024-12-17T10:16:12.000Z</time>
      </trkpt>
      <trkpt lat="50.26694" lon="4.52476">
        <ele>258.458323</ele>
        <time>2024-12-17T10:16:13.000Z</time>
      </trkpt>
      <trkpt lat="50.26695" lon="4.5248">
        <ele>258.457906</ele>
        <time>2024-12-17T10:16:14.000Z</time>
      </trkpt>
      <trkpt lat="50.26696" lon="4.52484">
        <ele>258.457489</ele>
        <time>2024-12-17T10:16:15.000Z</time>
      </trkpt>
      <trkpt lat="50.26697" lon="4.52489">
        <ele>258.457063</ele>
        <time>2024-12-17T10:16:16.000Z</time>
      </trkpt>
      <trkpt lat="50.26698" lon="4.52493">
        <ele>258.456655</ele>
        <time>2024-12-17T10:16:17.000Z</time>
      </trkpt>
      <trkpt lat="50.26699" lon="4.52497">
        <ele>258.456233</ele>
        <time>2024-12-17T10:16:18.000Z</time>
      </trkpt>
      <trkpt lat="50.267" lon="4.52501">
        <ele>258.455819</ele>
        <time>2024-12-17T10:16:19.000Z</time>
      </trkpt>
      <trkpt lat="50.26701" lon="4.52505">
        <ele>258.455402</ele>
        <time>2024-12-17T10:16:20.000Z</time>
      </trkpt>
      <trkpt lat="50.26702" lon="4.52509">
        <ele>258.454999</ele>
        <time>2024-12-17T10:16:21.000Z</time>
      </trkpt>
      <trkpt lat="50.26703" lon="4.52514">
        <ele>258.454587</ele>
        <time>2024-12-17T10:16:22.000Z</time>
      </trkpt>
      <trkpt lat="50.26704" lon="4.52517">
        <ele>258.401491</ele>
        <time>2024-12-17T10:16:23.000Z</time>
      </trkpt>
      <trkpt lat="50.26705" lon="4.52521">
        <ele>258.324212</ele>
        <time>2024-12-17T10:16:24.000Z</time>
      </trkpt>
      <trkpt lat="50.26706" lon="4.52525">
        <ele>258.247733</ele>
        <time>2024-12-17T10:16:25.000Z</time>
      </trkpt>
      <trkpt lat="50.26707" lon="4.52528">
        <ele>258.169408</ele>
        <time>2024-12-17T10:16:26.000Z</time>
      </trkpt>
      <trkpt lat="50.26708" lon="4.52532">
        <ele>258.092129</ele>
        <time>2024-12-17T10:16:27.000Z</time>
      </trkpt>
      <trkpt lat="50.26708" lon="4.52536">
        <ele>258.013887</ele>
        <time>2024-12-17T10:16:28.000Z</time>
      </trkpt>
      <trkpt lat="50.26709" lon="4.5254">
        <ele>257.930964</ele>
        <time>2024-12-17T10:16:29.000Z</time>
      </trkpt>
      <trkpt lat="50.2671" lon="4.52544">
        <ele>257.84299</ele>
        <time>2024-12-17T10:16:30.000Z</time>
      </trkpt>
      <trkpt lat="50.26711" lon="4.52548">
        <ele>257.755912</ele>
        <time>2024-12-17T10:16:31.000Z</time>
      </trkpt>
      <trkpt lat="50.26711" lon="4.52553">
        <ele>257.667983</ele>
        <time>2024-12-17T10:16:32.000Z</time>
      </trkpt>
      <trkpt lat="50.26711" lon="4.52557">
        <ele>257.578897</ele>
        <time>2024-12-17T10:16:33.000Z</time>
      </trkpt>
      <trkpt lat="50.26711" lon="4.52562">
        <ele>257.48393</ele>
        <time>2024-12-17T10:16:34.000Z</time>
      </trkpt>
      <trkpt lat="50.26711" lon="4.52567">
        <ele>257.383277</ele>
        <time>2024-12-17T10:16:35.000Z</time>
      </trkpt>
      <trkpt lat="50.2671" lon="4.52572">
        <ele>257.278658</ele>
        <time>2024-12-17T10:16:36.000Z</time>
      </trkpt>
      <trkpt lat="50.26708" lon="4.52577">
        <ele>257.171863</ele>
        <time>2024-12-17T10:16:37.000Z</time>
      </trkpt>
      <trkpt lat="50.26706" lon="4.52581">
        <ele>257.076412</ele>
        <time>2024-12-17T10:16:38.000Z</time>
      </trkpt>
      <trkpt lat="50.26704" lon="4.52583">
        <ele>256.982383</ele>
        <time>2024-12-17T10:16:39.000Z</time>
      </trkpt>
      <trkpt lat="50.26701" lon="4.52586">
        <ele>256.878927</ele>
        <time>2024-12-17T10:16:40.000Z</time>
      </trkpt>
      <trkpt lat="50.26698" lon="4.52589">
        <ele>256.77644</ele>
        <time>2024-12-17T10:16:41.000Z</time>
      </trkpt>
      <trkpt lat="50.26695" lon="4.52591">
        <ele>256.672984</ele>
        <time>2024-12-17T10:16:42.000Z</time>
      </trkpt>
      <trkpt lat="50.26692" lon="4.52594">
        <ele>256.564113</ele>
        <time>2024-12-17T10:16:43.000Z</time>
      </trkpt>
      <trkpt lat="50.26689" lon="4.52596">
        <ele>256.453403</ele>
        <time>2024-12-17T10:16:44.000Z</time>
      </trkpt>
      <trkpt lat="50.26686" lon="4.52599">
        <ele>256.351856</ele>
        <time>2024-12-17T10:16:45.000Z</time>
      </trkpt>
      <trkpt lat="50.26683" lon="4.52601">
        <ele>256.246647</ele>
        <time>2024-12-17T10:16:46.000Z</time>
      </trkpt>
      <trkpt lat="50.2668" lon="4.52604">
        <ele>256.138697</ele>
        <time>2024-12-17T10:16:47.000Z</time>
      </trkpt>
      <trkpt lat="50.26677" lon="4.52606">
        <ele>256.028857</ele>
        <time>2024-12-17T10:16:48.000Z</time>
      </trkpt>
      <trkpt lat="50.26673" lon="4.52609">
        <ele>255.915369</ele>
        <time>2024-12-17T10:16:49.000Z</time>
      </trkpt>
      <trkpt lat="50.2667" lon="4.52611">
        <ele>255.804339</ele>
        <time>2024-12-17T10:16:50.000Z</time>
      </trkpt>
      <trkpt lat="50.26667" lon="4.52613">
        <ele>255.688057</ele>
        <time>2024-12-17T10:16:51.000Z</time>
      </trkpt>
      <trkpt lat="50.26663" lon="4.52616">
        <ele>255.568967</ele>
        <time>2024-12-17T10:16:52.000Z</time>
      </trkpt>
      <trkpt lat="50.2666" lon="4.52619">
        <ele>255.447292</ele>
        <time>2024-12-17T10:16:53.000Z</time>
      </trkpt>
      <trkpt lat="50.26656" lon="4.52621">
        <ele>255.32538</ele>
        <time>2024-12-17T10:16:54.000Z</time>
      </trkpt>
      <trkpt lat="50.26653" lon="4.52623">
        <ele>255.205752</ele>
        <time>2024-12-17T10:16:55.000Z</time>
      </trkpt>
      <trkpt lat="50.26649" lon="4.52626">
        <ele>255.08042</ele>
        <time>2024-12-17T10:16:56.000Z</time>
      </trkpt>
      <trkpt lat="50.26645" lon="4.52629">
        <ele>254.945895</ele>
        <time>2024-12-17T10:16:57.000Z</time>
      </trkpt>
      <trkpt lat="50.26641" lon="4.52632">
        <ele>254.816905</ele>
        <time>2024-12-17T10:16:58.000Z</time>
      </trkpt>
      <trkpt lat="50.26638" lon="4.52635">
        <ele>254.685158</ele>
        <time>2024-12-17T10:16:59.000Z</time>
      </trkpt>
      <trkpt lat="50.26634" lon="4.52638">
        <ele>254.553941</ele>
        <time>2024-12-17T10:17:00.000Z</time>
      </trkpt>
      <trkpt lat="50.2663" lon="4.52641">
        <ele>254.429194</ele>
        <time>2024-12-17T10:17:01.000Z</time>
      </trkpt>
      <trkpt lat="50.26626" lon="4.52643">
        <ele>254.30378</ele>
        <time>2024-12-17T10:17:02.000Z</time>
      </trkpt>
      <trkpt lat="50.26622" lon="4.52645">
        <ele>254.176746</ele>
        <time>2024-12-17T10:17:03.000Z</time>
      </trkpt>
      <trkpt lat="50.26619" lon="4.52647">
        <ele>254.053855</ele>
        <time>2024-12-17T10:17:04.000Z</time>
      </trkpt>
      <trkpt lat="50.26615" lon="4.52648">
        <ele>253.93255</ele>
        <time>2024-12-17T10:17:05.000Z</time>
      </trkpt>
      <trkpt lat="50.26611" lon="4.52649">
        <ele>253.803445</ele>
        <time>2024-12-17T10:17:06.000Z</time>
      </trkpt>
      <trkpt lat="50.26606" lon="4.52651">
        <ele>253.654566</ele>
        <time>2024-12-17T10:17:07.000Z</time>
      </trkpt>
      <trkpt lat="50.26601" lon="4.52653">
        <ele>253.504795</ele>
        <time>2024-12-17T10:17:08.000Z</time>
      </trkpt>
      <trkpt lat="50.26597" lon="4.52655">
        <ele>253.356477</ele>
        <time>2024-12-17T10:17:09.000Z</time>
      </trkpt>
      <trkpt lat="50.26592" lon="4.52657">
        <ele>253.210549</ele>
        <time>2024-12-17T10:17:10.000Z</time>
      </trkpt>
      <trkpt lat="50.26587" lon="4.52659">
        <ele>253.058702</ele>
        <time>2024-12-17T10:17:11.000Z</time>
      </trkpt>
      <trkpt lat="50.26583" lon="4.52662">
        <ele>252.917391</ele>
        <time>2024-12-17T10:17:12.000Z</time>
      </trkpt>
      <trkpt lat="50.2658" lon="4.52664">
        <ele>252.934207</ele>
        <time>2024-12-17T10:17:13.000Z</time>
      </trkpt>
      <trkpt lat="50.26577" lon="4.52667">
        <ele>252.98584</ele>
        <time>2024-12-17T10:17:14.000Z</time>
      </trkpt>
      <trkpt lat="50.26575" lon="4.52669">
        <ele>253.032344</ele>
        <time>2024-12-17T10:17:15.000Z</time>
      </trkpt>
      <trkpt lat="50.26572" lon="4.52671">
        <ele>253.073036</ele>
        <time>2024-12-17T10:17:16.000Z</time>
      </trkpt>
      <trkpt lat="50.26571" lon="4.52673">
        <ele>253.108265</ele>
        <time>2024-12-17T10:17:17.000Z</time>
      </trkpt>
      <trkpt lat="50.26569" lon="4.52675">
        <ele>253.144529</ele>
        <time>2024-12-17T10:17:18.000Z</time>
      </trkpt>
      <trkpt lat="50.26567" lon="4.52676">
        <ele>253.1822</ele>
        <time>2024-12-17T10:17:19.000Z</time>
      </trkpt>
      <trkpt lat="50.26565" lon="4.52678">
        <ele>253.219871</ele>
        <time>2024-12-17T10:17:20.000Z</time>
      </trkpt>
      <trkpt lat="50.26563" lon="4.5268">
        <ele>253.25653</ele>
        <time>2024-12-17T10:17:21.000Z</time>
      </trkpt>
      <trkpt lat="50.26561" lon="4.52682">
        <ele>253.290641</ele>
        <time>2024-12-17T10:17:22.000Z</time>
      </trkpt>
      <trkpt lat="50.26559" lon="4.52684">
        <ele>253.323581</ele>
        <time>2024-12-17T10:17:23.000Z</time>
      </trkpt>
      <trkpt lat="50.26558" lon="4.52685">
        <ele>253.355949</ele>
        <time>2024-12-17T10:17:24.000Z</time>
      </trkpt>
      <trkpt lat="50.26556" lon="4.52687">
        <ele>253.385015</ele>
        <time>2024-12-17T10:17:25.000Z</time>
      </trkpt>
      <trkpt lat="50.26555" lon="4.52688">
        <ele>253.411595</ele>
        <time>2024-12-17T10:17:26.000Z</time>
      </trkpt>
      <trkpt lat="50.26553" lon="4.52689">
        <ele>253.446954</ele>
        <time>2024-12-17T10:17:27.000Z</time>
      </trkpt>
      <trkpt lat="50.26551" lon="4.52691">
        <ele>253.478319</ele>
        <time>2024-12-17T10:17:28.000Z</time>
      </trkpt>
      <trkpt lat="50.26549" lon="4.52693">
        <ele>253.511834</ele>
        <time>2024-12-17T10:17:29.000Z</time>
      </trkpt>
      <trkpt lat="50.26547" lon="4.52694">
        <ele>253.547606</ele>
        <time>2024-12-17T10:17:30.000Z</time>
      </trkpt>
      <trkpt lat="50.26545" lon="4.52695">
        <ele>253.582965</ele>
        <time>2024-12-17T10:17:31.000Z</time>
      </trkpt>
      <trkpt lat="50.26543" lon="4.52696">
        <ele>253.617937</ele>
        <time>2024-12-17T10:17:32.000Z</time>
      </trkpt>
      <trkpt lat="50.26542" lon="4.52697">
        <ele>253.647589</ele>
        <time>2024-12-17T10:17:33.000Z</time>
      </trkpt>
      <trkpt lat="50.2654" lon="4.52699">
        <ele>253.678483</ele>
        <time>2024-12-17T10:17:34.000Z</time>
      </trkpt>
      <trkpt lat="50.26538" lon="4.527">
        <ele>253.712283</ele>
        <time>2024-12-17T10:17:35.000Z</time>
      </trkpt>
      <trkpt lat="50.26536" lon="4.52702">
        <ele>253.748547</ele>
        <time>2024-12-17T10:17:36.000Z</time>
      </trkpt>
      <trkpt lat="50.26534" lon="4.52704">
        <ele>253.782875</ele>
        <time>2024-12-17T10:17:37.000Z</time>
      </trkpt>
      <trkpt lat="50.26533" lon="4.52705">
        <ele>253.810872</ele>
        <time>2024-12-17T10:17:38.000Z</time>
      </trkpt>
      <trkpt lat="50.26532" lon="4.52706">
        <ele>253.831781</ele>
        <time>2024-12-17T10:17:39.000Z</time>
      </trkpt>
      <trkpt lat="50.2653" lon="4.52707">
        <ele>253.858401</ele>
        <time>2024-12-17T10:17:40.000Z</time>
      </trkpt>
      <trkpt lat="50.26529" lon="4.52709">
        <ele>253.889266</ele>
        <time>2024-12-17T10:17:41.000Z</time>
      </trkpt>
      <trkpt lat="50.26527" lon="4.5271">
        <ele>253.918201</ele>
        <time>2024-12-17T10:17:42.000Z</time>
      </trkpt>
      <trkpt lat="50.26526" lon="4.52712">
        <ele>253.947266</ele>
        <time>2024-12-17T10:17:43.000Z</time>
      </trkpt>
      <trkpt lat="50.26524" lon="4.52713">
        <ele>253.978269</ele>
        <time>2024-12-17T10:17:44.000Z</time>
      </trkpt>
      <trkpt lat="50.26522" lon="4.52715">
        <ele>254.017023</ele>
        <time>2024-12-17T10:17:45.000Z</time>
      </trkpt>
      <trkpt lat="50.26521" lon="4.52717">
        <ele>254.049201</ele>
        <time>2024-12-17T10:17:46.000Z</time>
      </trkpt>
      <trkpt lat="50.26519" lon="4.52719">
        <ele>254.086362</ele>
        <time>2024-12-17T10:17:47.000Z</time>
      </trkpt>
      <trkpt lat="50.26517" lon="4.52721">
        <ele>254.126501</ele>
        <time>2024-12-17T10:17:48.000Z</time>
      </trkpt>
      <trkpt lat="50.26515" lon="4.52724">
        <ele>254.165799</ele>
        <time>2024-12-17T10:17:49.000Z</time>
      </trkpt>
      <trkpt lat="50.26513" lon="4.52726">
        <ele>254.206513</ele>
        <time>2024-12-17T10:17:50.000Z</time>
      </trkpt>
      <trkpt lat="50.26511" lon="4.52729">
        <ele>254.243899</ele>
        <time>2024-12-17T10:17:51.000Z</time>
      </trkpt>
      <trkpt lat="50.26509" lon="4.52731">
        <ele>254.283769</ele>
        <time>2024-12-17T10:17:52.000Z</time>
      </trkpt>
      <trkpt lat="50.26508" lon="4.52734">
        <ele>254.322584</ele>
        <time>2024-12-17T10:17:53.000Z</time>
      </trkpt>
      <trkpt lat="50.26506" lon="4.52736">
        <ele>254.359917</ele>
        <time>2024-12-17T10:17:54.000Z</time>
      </trkpt>
      <trkpt lat="50.26505" lon="4.52739">
        <ele>254.393826</ele>
        <time>2024-12-17T10:17:55.000Z</time>
      </trkpt>
      <trkpt lat="50.26503" lon="4.52741">
        <ele>254.428513</ele>
        <time>2024-12-17T10:17:56.000Z</time>
      </trkpt>
      <trkpt lat="50.26502" lon="4.52744">
        <ele>254.465064</ele>
        <time>2024-12-17T10:17:57.000Z</time>
      </trkpt>
      <trkpt lat="50.26501" lon="4.52746">
        <ele>254.499751</ele>
        <time>2024-12-17T10:17:58.000Z</time>
      </trkpt>
      <trkpt lat="50.26499" lon="4.52749">
        <ele>254.53026</ele>
        <time>2024-12-17T10:17:59.000Z</time>
      </trkpt>
      <trkpt lat="50.26498" lon="4.52751">
        <ele>254.558433</ele>
        <time>2024-12-17T10:18:00.000Z</time>
      </trkpt>
      <trkpt lat="50.26497" lon="4.52753">
        <ele>254.588331</ele>
        <time>2024-12-17T10:18:01.000Z</time>
      </trkpt>
      <trkpt lat="50.26496" lon="4.52755">
        <ele>254.617361</ele>
        <time>2024-12-17T10:18:02.000Z</time>
      </trkpt>
      <trkpt lat="50.26495" lon="4.52758">
        <ele>254.648345</ele>
        <time>2024-12-17T10:18:03.000Z</time>
      </trkpt>
      <trkpt lat="50.26494" lon="4.5276">
        <ele>254.682254</ele>
        <time>2024-12-17T10:18:04.000Z</time>
      </trkpt>
      <trkpt lat="50.26492" lon="4.52763">
        <ele>254.716163</ele>
        <time>2024-12-17T10:18:05.000Z</time>
      </trkpt>
      <trkpt lat="50.26491" lon="4.52765">
        <ele>254.750072</ele>
        <time>2024-12-17T10:18:06.000Z</time>
      </trkpt>
      <trkpt lat="50.26489" lon="4.52768">
        <ele>254.787737</ele>
        <time>2024-12-17T10:18:07.000Z</time>
      </trkpt>
      <trkpt lat="50.26488" lon="4.5277">
        <ele>254.825864</ele>
        <time>2024-12-17T10:18:08.000Z</time>
      </trkpt>
      <trkpt lat="50.26486" lon="4.52773">
        <ele>254.864796</ele>
        <time>2024-12-17T10:18:09.000Z</time>
      </trkpt>
      <trkpt lat="50.26485" lon="4.52776">
        <ele>254.902461</ele>
        <time>2024-12-17T10:18:10.000Z</time>
      </trkpt>
      <trkpt lat="50.26483" lon="4.52779">
        <ele>254.942441</ele>
        <time>2024-12-17T10:18:11.000Z</time>
      </trkpt>
      <trkpt lat="50.26482" lon="4.52782">
        <ele>254.983776</ele>
        <time>2024-12-17T10:18:12.000Z</time>
      </trkpt>
      <trkpt lat="50.2648" lon="4.52785">
        <ele>255.024245</ele>
        <time>2024-12-17T10:18:13.000Z</time>
      </trkpt>
      <trkpt lat="50.26479" lon="4.52788">
        <ele>255.066644</ele>
        <time>2024-12-17T10:18:14.000Z</time>
      </trkpt>
      <trkpt lat="50.26477" lon="4.52791">
        <ele>255.106624</ele>
        <time>2024-12-17T10:18:15.000Z</time>
      </trkpt>
      <trkpt lat="50.26475" lon="4.52795">
        <ele>255.152205</ele>
        <time>2024-12-17T10:18:16.000Z</time>
      </trkpt>
      <trkpt lat="50.26474" lon="4.52798">
        <ele>255.196267</ele>
        <time>2024-12-17T10:18:17.000Z</time>
      </trkpt>
      <trkpt lat="50.26472" lon="4.52801">
        <ele>255.240244</ele>
        <time>2024-12-17T10:18:18.000Z</time>
      </trkpt>
      <trkpt lat="50.26471" lon="4.52805">
        <ele>255.279857</ele>
        <time>2024-12-17T10:18:19.000Z</time>
      </trkpt>
      <trkpt lat="50.26469" lon="4.52808">
        <ele>255.320326</ele>
        <time>2024-12-17T10:18:20.000Z</time>
      </trkpt>
      <trkpt lat="50.26468" lon="4.52811">
        <ele>255.360902</ele>
        <time>2024-12-17T10:18:21.000Z</time>
      </trkpt>
      <trkpt lat="50.26466" lon="4.52814">
        <ele>255.401617</ele>
        <time>2024-12-17T10:18:22.000Z</time>
      </trkpt>
      <trkpt lat="50.26464" lon="4.52817">
        <ele>255.442392</ele>
        <time>2024-12-17T10:18:23.000Z</time>
      </trkpt>
      <trkpt lat="50.26463" lon="4.5282">
        <ele>255.483806</ele>
        <time>2024-12-17T10:18:24.000Z</time>
      </trkpt>
      <trkpt lat="50.26461" lon="4.52823">
        <ele>255.524382</ele>
        <time>2024-12-17T10:18:25.000Z</time>
      </trkpt>
      <trkpt lat="50.2646" lon="4.52826">
        <ele>255.567009</ele>
        <time>2024-12-17T10:18:26.000Z</time>
      </trkpt>
      <trkpt lat="50.26458" lon="4.52829">
        <ele>255.609408</ele>
        <time>2024-12-17T10:18:27.000Z</time>
      </trkpt>
      <trkpt lat="50.26456" lon="4.52833">
        <ele>255.654458</ele>
        <time>2024-12-17T10:18:28.000Z</time>
      </trkpt>
      <trkpt lat="50.26455" lon="4.52836">
        <ele>255.694927</ele>
        <time>2024-12-17T10:18:29.000Z</time>
      </trkpt>
      <trkpt lat="50.26454" lon="4.52839">
        <ele>255.735382</ele>
        <time>2024-12-17T10:18:30.000Z</time>
      </trkpt>
      <trkpt lat="50.26452" lon="4.52842">
        <ele>255.775837</ele>
        <time>2024-12-17T10:18:31.000Z</time>
      </trkpt>
      <trkpt lat="50.2645" lon="4.52845">
        <ele>255.819176</ele>
        <time>2024-12-17T10:18:32.000Z</time>
      </trkpt>
      <trkpt lat="50.26449" lon="4.52848">
        <ele>255.909869</ele>
        <time>2024-12-17T10:18:33.000Z</time>
      </trkpt>
      <trkpt lat="50.26447" lon="4.5285">
        <ele>255.999695</ele>
        <time>2024-12-17T10:18:34.000Z</time>
      </trkpt>
      <trkpt lat="50.26446" lon="4.52853">
        <ele>256.087565</ele>
        <time>2024-12-17T10:18:35.000Z</time>
      </trkpt>
      <trkpt lat="50.26445" lon="4.52856">
        <ele>256.159199</ele>
        <time>2024-12-17T10:18:36.000Z</time>
      </trkpt>
      <trkpt lat="50.26444" lon="4.52858">
        <ele>256.234184</ele>
        <time>2024-12-17T10:18:37.000Z</time>
      </trkpt>
      <trkpt lat="50.26443" lon="4.5286">
        <ele>256.30067</ele>
        <time>2024-12-17T10:18:38.000Z</time>
      </trkpt>
      <trkpt lat="50.26442" lon="4.52862">
        <ele>256.365142</ele>
        <time>2024-12-17T10:18:39.000Z</time>
      </trkpt>
      <trkpt lat="50.26441" lon="4.52864">
        <ele>256.424804</ele>
        <time>2024-12-17T10:18:40.000Z</time>
      </trkpt>
      <trkpt lat="50.2644" lon="4.52866">
        <ele>256.484467</ele>
        <time>2024-12-17T10:18:41.000Z</time>
      </trkpt>
      <trkpt lat="50.26439" lon="4.52868">
        <ele>256.542364</ele>
        <time>2024-12-17T10:18:42.000Z</time>
      </trkpt>
      <trkpt lat="50.26438" lon="4.5287">
        <ele>256.610907</ele>
        <time>2024-12-17T10:18:43.000Z</time>
      </trkpt>
      <trkpt lat="50.26437" lon="4.52872">
        <ele>256.673399</ele>
        <time>2024-12-17T10:18:44.000Z</time>
      </trkpt>
      <trkpt lat="50.26436" lon="4.52874">
        <ele>256.736629</ele>
        <time>2024-12-17T10:18:45.000Z</time>
      </trkpt>
      <trkpt lat="50.26435" lon="4.52876">
        <ele>256.798733</ele>
        <time>2024-12-17T10:18:46.000Z</time>
      </trkpt>
      <trkpt lat="50.26434" lon="4.52878">
        <ele>256.870254</ele>
        <time>2024-12-17T10:18:47.000Z</time>
      </trkpt>
      <trkpt lat="50.26433" lon="4.5288">
        <ele>256.936745</ele>
        <time>2024-12-17T10:18:48.000Z</time>
      </trkpt>
      <trkpt lat="50.26432" lon="4.52882">
        <ele>257.007374</ele>
        <time>2024-12-17T10:18:49.000Z</time>
      </trkpt>
      <trkpt lat="50.26431" lon="4.52885">
        <ele>257.089203</ele>
        <time>2024-12-17T10:18:50.000Z</time>
      </trkpt>
      <trkpt lat="50.26429" lon="4.52887">
        <ele>257.17443</ele>
        <time>2024-12-17T10:18:51.000Z</time>
      </trkpt>
      <trkpt lat="50.26428" lon="4.52889">
        <ele>257.258822</ele>
        <time>2024-12-17T10:18:52.000Z</time>
      </trkpt>
      <trkpt lat="50.26427" lon="4.52892">
        <ele>257.344445</ele>
        <time>2024-12-17T10:18:53.000Z</time>
      </trkpt>
      <trkpt lat="50.26425" lon="4.52895">
        <ele>257.438758</ele>
        <time>2024-12-17T10:18:54.000Z</time>
      </trkpt>
      <trkpt lat="50.26424" lon="4.52898">
        <ele>257.531033</ele>
        <time>2024-12-17T10:18:55.000Z</time>
      </trkpt>
      <trkpt lat="50.26423" lon="4.52901">
        <ele>257.623054</ele>
        <time>2024-12-17T10:18:56.000Z</time>
      </trkpt>
      <trkpt lat="50.26422" lon="4.52904">
        <ele>257.71087</ele>
        <time>2024-12-17T10:18:57.000Z</time>
      </trkpt>
      <trkpt lat="50.2642" lon="4.52907">
        <ele>257.798587</ele>
        <time>2024-12-17T10:18:58.000Z</time>
      </trkpt>
      <trkpt lat="50.26419" lon="4.5291">
        <ele>257.895856</ele>
        <time>2024-12-17T10:18:59.000Z</time>
      </trkpt>
      <trkpt lat="50.26418" lon="4.52913">
        <ele>257.979306</ele>
        <time>2024-12-17T10:19:00.000Z</time>
      </trkpt>
      <trkpt lat="50.26417" lon="4.52916">
        <ele>258.065757</ele>
        <time>2024-12-17T10:19:01.000Z</time>
      </trkpt>
      <trkpt lat="50.26417" lon="4.5292">
        <ele>258.154628</ele>
        <time>2024-12-17T10:19:02.000Z</time>
      </trkpt>
      <trkpt lat="50.26417" lon="4.52923">
        <ele>258.246812</ele>
        <time>2024-12-17T10:19:03.000Z</time>
      </trkpt>
      <trkpt lat="50.26417" lon="4.52927">
        <ele>258.340761</ele>
        <time>2024-12-17T10:19:04.000Z</time>
      </trkpt>
      <trkpt lat="50.26417" lon="4.5293">
        <ele>258.425437</ele>
        <time>2024-12-17T10:19:05.000Z</time>
      </trkpt>
      <trkpt lat="50.26418" lon="4.52933">
        <ele>258.498705</ele>
        <time>2024-12-17T10:19:06.000Z</time>
      </trkpt>
      <trkpt lat="50.26419" lon="4.52935">
        <ele>258.560809</ele>
        <time>2024-12-17T10:19:07.000Z</time>
      </trkpt>
      <trkpt lat="50.2642" lon="4.52937">
        <ele>258.633234</ele>
        <time>2024-12-17T10:19:08.000Z</time>
      </trkpt>
      <trkpt lat="50.26422" lon="4.52939">
        <ele>258.713192</ele>
        <time>2024-12-17T10:19:09.000Z</time>
      </trkpt>
      <trkpt lat="50.26423" lon="4.52941">
        <ele>258.797806</ele>
        <time>2024-12-17T10:19:10.000Z</time>
      </trkpt>
      <trkpt lat="50.26425" lon="4.52943">
        <ele>258.882421</ele>
        <time>2024-12-17T10:19:11.000Z</time>
      </trkpt>
      <trkpt lat="50.26427" lon="4.52945">
        <ele>258.971613</ele>
        <time>2024-12-17T10:19:12.000Z</time>
      </trkpt>
      <trkpt lat="50.26428" lon="4.52948">
        <ele>259.06325</ele>
        <time>2024-12-17T10:19:13.000Z</time>
      </trkpt>
      <trkpt lat="50.2643" lon="4.52951">
        <ele>259.156734</ele>
        <time>2024-12-17T10:19:14.000Z</time>
      </trkpt>
      <trkpt lat="50.26432" lon="4.52953">
        <ele>259.254787</ele>
        <time>2024-12-17T10:19:15.000Z</time>
      </trkpt>
      <trkpt lat="50.26433" lon="4.52956">
        <ele>259.354697</ele>
        <time>2024-12-17T10:19:16.000Z</time>
      </trkpt>
      <trkpt lat="50.26435" lon="4.52959">
        <ele>259.453753</ele>
        <time>2024-12-17T10:19:17.000Z</time>
      </trkpt>
      <trkpt lat="50.26437" lon="4.52962">
        <ele>259.559194</ele>
        <time>2024-12-17T10:19:18.000Z</time>
      </trkpt>
      <trkpt lat="50.26439" lon="4.52965">
        <ele>259.66099</ele>
        <time>2024-12-17T10:19:19.000Z</time>
      </trkpt>
      <trkpt lat="50.26441" lon="4.52968">
        <ele>259.764674</ele>
        <time>2024-12-17T10:19:20.000Z</time>
      </trkpt>
      <trkpt lat="50.26442" lon="4.5297">
        <ele>259.865504</ele>
        <time>2024-12-17T10:19:21.000Z</time>
      </trkpt>
      <trkpt lat="50.26444" lon="4.52973">
        <ele>259.969976</ele>
        <time>2024-12-17T10:19:22.000Z</time>
      </trkpt>
      <trkpt lat="50.26446" lon="4.52976">
        <ele>260.077206</ele>
        <time>2024-12-17T10:19:23.000Z</time>
      </trkpt>
      <trkpt lat="50.26448" lon="4.52979">
        <ele>260.18089</ele>
        <time>2024-12-17T10:19:24.000Z</time>
      </trkpt>
      <trkpt lat="50.2645" lon="4.52982">
        <ele>260.287229</ele>
        <time>2024-12-17T10:19:25.000Z</time>
      </trkpt>
      <trkpt lat="50.26452" lon="4.52985">
        <ele>260.391701</ele>
        <time>2024-12-17T10:19:26.000Z</time>
      </trkpt>
      <trkpt lat="50.26453" lon="4.52989">
        <ele>260.50447</ele>
        <time>2024-12-17T10:19:27.000Z</time>
      </trkpt>
      <trkpt lat="50.26455" lon="4.52992">
        <ele>260.61462</ele>
        <time>2024-12-17T10:19:28.000Z</time>
      </trkpt>
      <trkpt lat="50.26457" lon="4.52995">
        <ele>260.720958</ele>
        <time>2024-12-17T10:19:29.000Z</time>
      </trkpt>
      <trkpt lat="50.26459" lon="4.52998">
        <ele>260.833727</ele>
        <time>2024-12-17T10:19:30.000Z</time>
      </trkpt>
      <trkpt lat="50.26461" lon="4.53002">
        <ele>260.948395</ele>
        <time>2024-12-17T10:19:31.000Z</time>
      </trkpt>
      <trkpt lat="50.26463" lon="4.53005">
        <ele>261.064444</ele>
        <time>2024-12-17T10:19:32.000Z</time>
      </trkpt>
      <trkpt lat="50.26464" lon="4.53009">
        <ele>261.180494</ele>
        <time>2024-12-17T10:19:33.000Z</time>
      </trkpt>
      <trkpt lat="50.26466" lon="4.53012">
        <ele>261.290097</ele>
        <time>2024-12-17T10:19:34.000Z</time>
      </trkpt>
      <trkpt lat="50.26468" lon="4.53016">
        <ele>261.393252</ele>
        <time>2024-12-17T10:19:35.000Z</time>
      </trkpt>
      <trkpt lat="50.26469" lon="4.53019">
        <ele>261.498901</ele>
        <time>2024-12-17T10:19:36.000Z</time>
      </trkpt>
      <trkpt lat="50.26471" lon="4.53022">
        <ele>261.600069</ele>
        <time>2024-12-17T10:19:37.000Z</time>
      </trkpt>
      <trkpt lat="50.26473" lon="4.53025">
        <ele>261.699273</ele>
        <time>2024-12-17T10:19:38.000Z</time>
      </trkpt>
      <trkpt lat="50.26474" lon="4.53028">
        <ele>261.798478</ele>
        <time>2024-12-17T10:19:39.000Z</time>
      </trkpt>
      <trkpt lat="50.26476" lon="4.53031">
        <ele>261.902187</ele>
        <time>2024-12-17T10:19:40.000Z</time>
      </trkpt>
      <trkpt lat="50.26478" lon="4.53034">
        <ele>262.001391</ele>
        <time>2024-12-17T10:19:41.000Z</time>
      </trkpt>
      <trkpt lat="50.26479" lon="4.53037">
        <ele>262.096112</ele>
        <time>2024-12-17T10:19:42.000Z</time>
      </trkpt>
      <trkpt lat="50.26481" lon="4.5304">
        <ele>262.191473</ele>
        <time>2024-12-17T10:19:43.000Z</time>
      </trkpt>
      <trkpt lat="50.26482" lon="4.53042">
        <ele>262.284234</ele>
        <time>2024-12-17T10:19:44.000Z</time>
      </trkpt>
      <trkpt lat="50.26484" lon="4.53045">
        <ele>262.370551</ele>
        <time>2024-12-17T10:19:45.000Z</time>
      </trkpt>
      <trkpt lat="50.26485" lon="4.53048">
        <ele>262.449933</ele>
        <time>2024-12-17T10:19:46.000Z</time>
      </trkpt>
      <trkpt lat="50.26486" lon="4.5305">
        <ele>262.5273</ele>
        <time>2024-12-17T10:19:47.000Z</time>
      </trkpt>
      <trkpt lat="50.26487" lon="4.53052">
        <ele>262.607174</ele>
        <time>2024-12-17T10:19:48.000Z</time>
      </trkpt>
      <trkpt lat="50.26488" lon="4.53055">
        <ele>262.682557</ele>
        <time>2024-12-17T10:19:49.000Z</time>
      </trkpt>
      <trkpt lat="50.2649" lon="4.53056">
        <ele>262.743976</ele>
        <time>2024-12-17T10:19:50.000Z</time>
      </trkpt>
      <trkpt lat="50.26491" lon="4.53058">
        <ele>262.807386</ele>
        <time>2024-12-17T10:19:51.000Z</time>
      </trkpt>
      <trkpt lat="50.26492" lon="4.53058">
        <ele>262.860561</ele>
        <time>2024-12-17T10:19:52.000Z</time>
      </trkpt>
      <trkpt lat="50.26494" lon="4.53058">
        <ele>262.913188</ele>
        <time>2024-12-17T10:19:53.000Z</time>
      </trkpt>
      <trkpt lat="50.26495" lon="4.53059">
        <ele>262.960921</ele>
        <time>2024-12-17T10:19:54.000Z</time>
      </trkpt>
      <trkpt lat="50.26496" lon="4.53059">
        <ele>262.964031</ele>
        <time>2024-12-17T10:19:55.000Z</time>
      </trkpt>
      <trkpt lat="50.26497" lon="4.53058">
        <ele>262.958795</ele>
        <time>2024-12-17T10:19:56.000Z</time>
      </trkpt>
      <trkpt lat="50.26499" lon="4.53058">
        <ele>262.95317</ele>
        <time>2024-12-17T10:19:57.000Z</time>
      </trkpt>
      <trkpt lat="50.265" lon="4.53058">
        <ele>262.947519</ele>
        <time>2024-12-17T10:19:58.000Z</time>
      </trkpt>
      <trkpt lat="50.26502" lon="4.53058">
        <ele>262.940793</ele>
        <time>2024-12-17T10:19:59.000Z</time>
      </trkpt>
      <trkpt lat="50.26504" lon="4.53058">
        <ele>262.933259</ele>
        <time>2024-12-17T10:20:00.000Z</time>
      </trkpt>
      <trkpt lat="50.26506" lon="4.53058">
        <ele>262.925783</ele>
        <time>2024-12-17T10:20:01.000Z</time>
      </trkpt>
      <trkpt lat="50.26508" lon="4.53059">
        <ele>262.918249</ele>
        <time>2024-12-17T10:20:02.000Z</time>
      </trkpt>
      <trkpt lat="50.2651" lon="4.53059">
        <ele>262.911149</ele>
        <time>2024-12-17T10:20:03.000Z</time>
      </trkpt>
      <trkpt lat="50.26512" lon="4.53059">
        <ele>262.903676</ele>
        <time>2024-12-17T10:20:04.000Z</time>
      </trkpt>
      <trkpt lat="50.26514" lon="4.53058">
        <ele>262.895401</ele>
        <time>2024-12-17T10:20:05.000Z</time>
      </trkpt>
      <trkpt lat="50.26517" lon="4.53058">
        <ele>262.886354</ele>
        <time>2024-12-17T10:20:06.000Z</time>
      </trkpt>
      <trkpt lat="50.26519" lon="4.53058">
        <ele>262.877358</ele>
        <time>2024-12-17T10:20:07.000Z</time>
      </trkpt>
      <trkpt lat="50.26521" lon="4.53057">
        <ele>262.869106</ele>
        <time>2024-12-17T10:20:08.000Z</time>
      </trkpt>
      <trkpt lat="50.26523" lon="4.53057">
        <ele>262.861245</ele>
        <time>2024-12-17T10:20:09.000Z</time>
      </trkpt>
      <trkpt lat="50.26526" lon="4.53057">
        <ele>262.853395</ele>
        <time>2024-12-17T10:20:10.000Z</time>
      </trkpt>
      <trkpt lat="50.26527" lon="4.53057">
        <ele>262.846669</ele>
        <time>2024-12-17T10:20:11.000Z</time>
      </trkpt>
      <trkpt lat="50.26529" lon="4.53057">
        <ele>262.840299</ele>
        <time>2024-12-17T10:20:12.000Z</time>
      </trkpt>
      <trkpt lat="50.26531" lon="4.53057">
        <ele>262.833942</ele>
        <time>2024-12-17T10:20:13.000Z</time>
      </trkpt>
      <trkpt lat="50.26532" lon="4.53057">
        <ele>262.827921</ele>
        <time>2024-12-17T10:20:14.000Z</time>
      </trkpt>
      <trkpt lat="50.26534" lon="4.53058">
        <ele>262.821824</ele>
        <time>2024-12-17T10:20:15.000Z</time>
      </trkpt>
      <trkpt lat="50.26536" lon="4.53058">
        <ele>262.815313</ele>
        <time>2024-12-17T10:20:16.000Z</time>
      </trkpt>
      <trkpt lat="50.26537" lon="4.53059">
        <ele>262.808549</ele>
        <time>2024-12-17T10:20:17.000Z</time>
      </trkpt>
      <trkpt lat="50.26539" lon="4.53059">
        <ele>262.801042</ele>
        <time>2024-12-17T10:20:18.000Z</time>
      </trkpt>
      <trkpt lat="50.26542" lon="4.53059">
        <ele>262.793137</ele>
        <time>2024-12-17T10:20:19.000Z</time>
      </trkpt>
      <trkpt lat="50.26544" lon="4.5306">
        <ele>262.785649</ele>
        <time>2024-12-17T10:20:20.000Z</time>
      </trkpt>
      <trkpt lat="50.26546" lon="4.5306">
        <ele>262.777769</ele>
        <time>2024-12-17T10:20:21.000Z</time>
      </trkpt>
      <trkpt lat="50.26548" lon="4.5306">
        <ele>262.767239</ele>
        <time>2024-12-17T10:20:22.000Z</time>
      </trkpt>
      <trkpt lat="50.26551" lon="4.53061">
        <ele>262.757849</ele>
        <time>2024-12-17T10:20:23.000Z</time>
      </trkpt>
      <trkpt lat="50.26553" lon="4.53061">
        <ele>262.749597</ele>
        <time>2024-12-17T10:20:24.000Z</time>
      </trkpt>
      <trkpt lat="50.26555" lon="4.53062">
        <ele>262.740921</ele>
        <time>2024-12-17T10:20:25.000Z</time>
      </trkpt>
      <trkpt lat="50.26558" lon="4.53062">
        <ele>262.731839</ele>
        <time>2024-12-17T10:20:26.000Z</time>
      </trkpt>
      <trkpt lat="50.2656" lon="4.53063">
        <ele>262.723193</ele>
        <time>2024-12-17T10:20:27.000Z</time>
      </trkpt>
      <trkpt lat="50.26562" lon="4.53063">
        <ele>262.715685</ele>
        <time>2024-12-17T10:20:28.000Z</time>
      </trkpt>
      <trkpt lat="50.26564" lon="4.53063">
        <ele>262.707748</ele>
        <time>2024-12-17T10:20:29.000Z</time>
      </trkpt>
      <trkpt lat="50.26566" lon="4.53064">
        <ele>262.699672</ele>
        <time>2024-12-17T10:20:30.000Z</time>
      </trkpt>
      <trkpt lat="50.26568" lon="4.53065">
        <ele>262.692254</ele>
        <time>2024-12-17T10:20:31.000Z</time>
      </trkpt>
      <trkpt lat="50.2657" lon="4.53066">
        <ele>262.685624</ele>
        <time>2024-12-17T10:20:32.000Z</time>
      </trkpt>
      <trkpt lat="50.26572" lon="4.53067">
        <ele>262.677968</ele>
        <time>2024-12-17T10:20:33.000Z</time>
      </trkpt>
      <trkpt lat="50.26574" lon="4.53068">
        <ele>262.669472</ele>
        <time>2024-12-17T10:20:34.000Z</time>
      </trkpt>
      <trkpt lat="50.26576" lon="4.53069">
        <ele>262.660825</ele>
        <time>2024-12-17T10:20:35.000Z</time>
      </trkpt>
      <trkpt lat="50.26579" lon="4.53069">
        <ele>262.651374</ele>
        <time>2024-12-17T10:20:36.000Z</time>
      </trkpt>
      <trkpt lat="50.26581" lon="4.5307">
        <ele>262.641732</ele>
        <time>2024-12-17T10:20:37.000Z</time>
      </trkpt>
      <trkpt lat="50.26584" lon="4.53071">
        <ele>262.632282</ele>
        <time>2024-12-17T10:20:38.000Z</time>
      </trkpt>
      <trkpt lat="50.26586" lon="4.53072">
        <ele>262.622082</ele>
        <time>2024-12-17T10:20:39.000Z</time>
      </trkpt>
      <trkpt lat="50.26589" lon="4.53073">
        <ele>262.610569</ele>
        <time>2024-12-17T10:20:40.000Z</time>
      </trkpt>
      <trkpt lat="50.26593" lon="4.53074">
        <ele>262.595433</ele>
        <time>2024-12-17T10:20:41.000Z</time>
      </trkpt>
      <trkpt lat="50.26598" lon="4.53075">
        <ele>262.579651</ele>
        <time>2024-12-17T10:20:42.000Z</time>
      </trkpt>
      <trkpt lat="50.26601" lon="4.53076">
        <ele>262.565291</ele>
        <time>2024-12-17T10:20:43.000Z</time>
      </trkpt>
      <trkpt lat="50.26605" lon="4.53077">
        <ele>262.550524</ele>
        <time>2024-12-17T10:20:44.000Z</time>
      </trkpt>
      <trkpt lat="50.2661" lon="4.53078">
        <ele>262.534159</ele>
        <time>2024-12-17T10:20:45.000Z</time>
      </trkpt>
      <trkpt lat="50.26614" lon="4.5308">
        <ele>262.517333</ele>
        <time>2024-12-17T10:20:46.000Z</time>
      </trkpt>
      <trkpt lat="50.26619" lon="4.53081">
        <ele>262.498763</ele>
        <time>2024-12-17T10:20:47.000Z</time>
      </trkpt>
      <trkpt lat="50.26623" lon="4.53082">
        <ele>262.481252</ele>
        <time>2024-12-17T10:20:48.000Z</time>
      </trkpt>
      <trkpt lat="50.26628" lon="4.53084">
        <ele>262.465341</ele>
        <time>2024-12-17T10:20:49.000Z</time>
      </trkpt>
      <trkpt lat="50.26632" lon="4.53086">
        <ele>262.450025</ele>
        <time>2024-12-17T10:20:50.000Z</time>
      </trkpt>
      <trkpt lat="50.26635" lon="4.53087">
        <ele>262.436888</ele>
        <time>2024-12-17T10:20:51.000Z</time>
      </trkpt>
      <trkpt lat="50.26638" lon="4.53088">
        <ele>262.424173</ele>
        <time>2024-12-17T10:20:52.000Z</time>
      </trkpt>
      <trkpt lat="50.26642" lon="4.5309">
        <ele>262.410122</ele>
        <time>2024-12-17T10:20:53.000Z</time>
      </trkpt>
      <trkpt lat="50.26646" lon="4.53091">
        <ele>262.394857</ele>
        <time>2024-12-17T10:20:54.000Z</time>
      </trkpt>
      <trkpt lat="50.2665" lon="4.53092">
        <ele>262.380957</ele>
        <time>2024-12-17T10:20:55.000Z</time>
      </trkpt>
      <trkpt lat="50.26653" lon="4.53093">
        <ele>262.367663</ele>
        <time>2024-12-17T10:20:56.000Z</time>
      </trkpt>
      <trkpt lat="50.26657" lon="4.53094">
        <ele>262.353958</ele>
        <time>2024-12-17T10:20:57.000Z</time>
      </trkpt>
      <trkpt lat="50.2666" lon="4.53095">
        <ele>262.339928</ele>
        <time>2024-12-17T10:20:58.000Z</time>
      </trkpt>
      <trkpt lat="50.26664" lon="4.53096">
        <ele>262.327081</ele>
        <time>2024-12-17T10:20:59.000Z</time>
      </trkpt>
      <trkpt lat="50.26667" lon="4.53097">
        <ele>262.314785</ele>
        <time>2024-12-17T10:21:00.000Z</time>
      </trkpt>
      <trkpt lat="50.2667" lon="4.53098">
        <ele>262.302543</ele>
        <time>2024-12-17T10:21:01.000Z</time>
      </trkpt>
      <trkpt lat="50.26673" lon="4.53099">
        <ele>262.297074</ele>
        <time>2024-12-17T10:21:02.000Z</time>
      </trkpt>
      <trkpt lat="50.26677" lon="4.531">
        <ele>262.299462</ele>
        <time>2024-12-17T10:21:03.000Z</time>
      </trkpt>
      <trkpt lat="50.2668" lon="4.531">
        <ele>262.30213</ele>
        <time>2024-12-17T10:21:04.000Z</time>
      </trkpt>
      <trkpt lat="50.26684" lon="4.531">
        <ele>262.304649</ele>
        <time>2024-12-17T10:21:05.000Z</time>
      </trkpt>
      <trkpt lat="50.26688" lon="4.53101">
        <ele>262.307243</ele>
        <time>2024-12-17T10:21:06.000Z</time>
      </trkpt>
      <trkpt lat="50.26691" lon="4.53101">
        <ele>262.309761</ele>
        <time>2024-12-17T10:21:07.000Z</time>
      </trkpt>
      <trkpt lat="50.26695" lon="4.531">
        <ele>262.312562</ele>
        <time>2024-12-17T10:21:08.000Z</time>
      </trkpt>
      <trkpt lat="50.26699" lon="4.531">
        <ele>262.31543</ele>
        <time>2024-12-17T10:21:09.000Z</time>
      </trkpt>
      <trkpt lat="50.26703" lon="4.531">
        <ele>262.31802</ele>
        <time>2024-12-17T10:21:10.000Z</time>
      </trkpt>
      <trkpt lat="50.26706" lon="4.53101">
        <ele>262.320413</ele>
        <time>2024-12-17T10:21:11.000Z</time>
      </trkpt>
      <trkpt lat="50.2671" lon="4.53101">
        <ele>262.322932</ele>
        <time>2024-12-17T10:21:12.000Z</time>
      </trkpt>
      <trkpt lat="50.26714" lon="4.53101">
        <ele>262.325521</ele>
        <time>2024-12-17T10:21:13.000Z</time>
      </trkpt>
      <trkpt lat="50.26718" lon="4.53101">
        <ele>262.328179</ele>
        <time>2024-12-17T10:21:14.000Z</time>
      </trkpt>
      <trkpt lat="50.26721" lon="4.53101">
        <ele>262.330697</ele>
        <time>2024-12-17T10:21:15.000Z</time>
      </trkpt>
      <trkpt lat="50.26725" lon="4.53102">
        <ele>262.333079</ele>
        <time>2024-12-17T10:21:16.000Z</time>
      </trkpt>
      <trkpt lat="50.26728" lon="4.53102">
        <ele>262.335391</ele>
        <time>2024-12-17T10:21:17.000Z</time>
      </trkpt>
      <trkpt lat="50.26731" lon="4.53102">
        <ele>262.337631</ele>
        <time>2024-12-17T10:21:18.000Z</time>
      </trkpt>
      <trkpt lat="50.26735" lon="4.53101">
        <ele>262.340152</ele>
        <time>2024-12-17T10:21:19.000Z</time>
      </trkpt>
      <trkpt lat="50.26738" lon="4.53102">
        <ele>262.342813</ele>
        <time>2024-12-17T10:21:20.000Z</time>
      </trkpt>
      <trkpt lat="50.26742" lon="4.53102">
        <ele>262.344993</ele>
        <time>2024-12-17T10:21:21.000Z</time>
      </trkpt>
      <trkpt lat="50.26745" lon="4.53102">
        <ele>262.347233</ele>
        <time>2024-12-17T10:21:22.000Z</time>
      </trkpt>
      <trkpt lat="50.26748" lon="4.53102">
        <ele>262.349611</ele>
        <time>2024-12-17T10:21:23.000Z</time>
      </trkpt>
      <trkpt lat="50.26752" lon="4.53103">
        <ele>262.352412</ele>
        <time>2024-12-17T10:21:24.000Z</time>
      </trkpt>
      <trkpt lat="50.26756" lon="4.53103">
        <ele>262.355014</ele>
        <time>2024-12-17T10:21:25.000Z</time>
      </trkpt>
      <trkpt lat="50.26759" lon="4.53104">
        <ele>262.357476</ele>
        <time>2024-12-17T10:21:26.000Z</time>
      </trkpt>
      <trkpt lat="50.26763" lon="4.53104">
        <ele>262.359939</ele>
        <time>2024-12-17T10:21:27.000Z</time>
      </trkpt>
      <trkpt lat="50.26766" lon="4.53105">
        <ele>262.362324</ele>
        <time>2024-12-17T10:21:28.000Z</time>
      </trkpt>
      <trkpt lat="50.2677" lon="4.53105">
        <ele>262.364643</ele>
        <time>2024-12-17T10:21:29.000Z</time>
      </trkpt>
      <trkpt lat="50.26772" lon="4.53106">
        <ele>262.366683</ele>
        <time>2024-12-17T10:21:30.000Z</time>
      </trkpt>
      <trkpt lat="50.26776" lon="4.53106">
        <ele>262.368859</ele>
        <time>2024-12-17T10:21:31.000Z</time>
      </trkpt>
      <trkpt lat="50.26779" lon="4.53107">
        <ele>262.371317</ele>
        <time>2024-12-17T10:21:32.000Z</time>
      </trkpt>
      <trkpt lat="50.26782" lon="4.53107">
        <ele>262.373566</ele>
        <time>2024-12-17T10:21:33.000Z</time>
      </trkpt>
      <trkpt lat="50.26785" lon="4.53108">
        <ele>262.375751</ele>
        <time>2024-12-17T10:21:34.000Z</time>
      </trkpt>
      <trkpt lat="50.26788" lon="4.53109">
        <ele>262.377942</ele>
        <time>2024-12-17T10:21:35.000Z</time>
      </trkpt>
      <trkpt lat="50.26792" lon="4.5311">
        <ele>262.38037</ele>
        <time>2024-12-17T10:21:36.000Z</time>
      </trkpt>
      <trkpt lat="50.26795" lon="4.53111">
        <ele>262.382661</ele>
        <time>2024-12-17T10:21:37.000Z</time>
      </trkpt>
      <trkpt lat="50.26798" lon="4.53112">
        <ele>262.384997</ele>
        <time>2024-12-17T10:21:38.000Z</time>
      </trkpt>
      <trkpt lat="50.26801" lon="4.53112">
        <ele>262.387097</ele>
        <time>2024-12-17T10:21:39.000Z</time>
      </trkpt>
      <trkpt lat="50.26804" lon="4.53112">
        <ele>262.389196</ele>
        <time>2024-12-17T10:21:40.000Z</time>
      </trkpt>
      <trkpt lat="50.26807" lon="4.53111">
        <ele>262.391089</ele>
        <time>2024-12-17T10:21:41.000Z</time>
      </trkpt>
      <trkpt lat="50.2681" lon="4.5311">
        <ele>262.393052</ele>
        <time>2024-12-17T10:21:42.000Z</time>
      </trkpt>
      <trkpt lat="50.26813" lon="4.53109">
        <ele>262.395412</ele>
        <time>2024-12-17T10:21:43.000Z</time>
      </trkpt>
      <trkpt lat="50.26816" lon="4.53108">
        <ele>262.397617</ele>
        <time>2024-12-17T10:21:44.000Z</time>
      </trkpt>
      <trkpt lat="50.26819" lon="4.53107">
        <ele>262.39974</ele>
        <time>2024-12-17T10:21:45.000Z</time>
      </trkpt>
      <trkpt lat="50.26822" lon="4.53105">
        <ele>262.401583</ele>
        <time>2024-12-17T10:21:46.000Z</time>
      </trkpt>
      <trkpt lat="50.26824" lon="4.53104">
        <ele>262.403388</ele>
        <time>2024-12-17T10:21:47.000Z</time>
      </trkpt>
      <trkpt lat="50.26827" lon="4.53103">
        <ele>262.405391</ele>
        <time>2024-12-17T10:21:48.000Z</time>
      </trkpt>
      <trkpt lat="50.2683" lon="4.53101">
        <ele>262.407811</ele>
        <time>2024-12-17T10:21:49.000Z</time>
      </trkpt>
      <trkpt lat="50.26833" lon="4.53098">
        <ele>262.410254</ele>
        <time>2024-12-17T10:21:50.000Z</time>
      </trkpt>
      <trkpt lat="50.26836" lon="4.53095">
        <ele>262.413067</ele>
        <time>2024-12-17T10:21:51.000Z</time>
      </trkpt>
      <trkpt lat="50.2684" lon="4.53091">
        <ele>262.416091</ele>
        <time>2024-12-17T10:21:52.000Z</time>
      </trkpt>
      <trkpt lat="50.26844" lon="4.53088">
        <ele>262.419027</ele>
        <time>2024-12-17T10:21:53.000Z</time>
      </trkpt>
      <trkpt lat="50.26847" lon="4.53085">
        <ele>262.421818</ele>
        <time>2024-12-17T10:21:54.000Z</time>
      </trkpt>
      <trkpt lat="50.26851" lon="4.53082">
        <ele>262.501493</ele>
        <time>2024-12-17T10:21:55.000Z</time>
      </trkpt>
      <trkpt lat="50.26854" lon="4.53079">
        <ele>262.580167</ele>
        <time>2024-12-17T10:21:56.000Z</time>
      </trkpt>
      <trkpt lat="50.26858" lon="4.53077">
        <ele>262.661052</ele>
        <time>2024-12-17T10:21:57.000Z</time>
      </trkpt>
      <trkpt lat="50.26861" lon="4.53075">
        <ele>262.737449</ele>
        <time>2024-12-17T10:21:58.000Z</time>
      </trkpt>
      <trkpt lat="50.26866" lon="4.53073">
        <ele>262.824692</ele>
        <time>2024-12-17T10:21:59.000Z</time>
      </trkpt>
      <trkpt lat="50.26869" lon="4.53073">
        <ele>262.896752</ele>
        <time>2024-12-17T10:22:00.000Z</time>
      </trkpt>
      <trkpt lat="50.26872" lon="4.53072">
        <ele>262.963908</ele>
        <time>2024-12-17T10:22:01.000Z</time>
      </trkpt>
      <trkpt lat="50.26876" lon="4.53072">
        <ele>263.035204</ele>
        <time>2024-12-17T10:22:02.000Z</time>
      </trkpt>
      <trkpt lat="50.26879" lon="4.53072">
        <ele>263.096166</ele>
        <time>2024-12-17T10:22:03.000Z</time>
      </trkpt>
      <trkpt lat="50.26883" lon="4.53073">
        <ele>263.170038</ele>
        <time>2024-12-17T10:22:04.000Z</time>
      </trkpt>
      <trkpt lat="50.26887" lon="4.53074">
        <ele>263.266403</ele>
        <time>2024-12-17T10:22:05.000Z</time>
      </trkpt>
      <trkpt lat="50.26892" lon="4.53075">
        <ele>263.356198</ele>
        <time>2024-12-17T10:22:06.000Z</time>
      </trkpt>
      <trkpt lat="50.26896" lon="4.53077">
        <ele>263.451601</ele>
        <time>2024-12-17T10:22:07.000Z</time>
      </trkpt>
      <trkpt lat="50.269" lon="4.53079">
        <ele>263.534586</ele>
        <time>2024-12-17T10:22:08.000Z</time>
      </trkpt>
      <trkpt lat="50.26904" lon="4.53081">
        <ele>263.613702</ele>
        <time>2024-12-17T10:22:09.000Z</time>
      </trkpt>
      <trkpt lat="50.26907" lon="4.53082">
        <ele>263.688762</ele>
        <time>2024-12-17T10:22:10.000Z</time>
      </trkpt>
      <trkpt lat="50.26911" lon="4.53083">
        <ele>263.761045</ele>
        <time>2024-12-17T10:22:11.000Z</time>
      </trkpt>
      <trkpt lat="50.26914" lon="4.53085">
        <ele>263.833838</ele>
        <time>2024-12-17T10:22:12.000Z</time>
      </trkpt>
      <trkpt lat="50.26918" lon="4.53086">
        <ele>263.909202</ele>
        <time>2024-12-17T10:22:13.000Z</time>
      </trkpt>
      <trkpt lat="50.26921" lon="4.53087">
        <ele>263.980887</ele>
        <time>2024-12-17T10:22:14.000Z</time>
      </trkpt>
      <trkpt lat="50.26925" lon="4.53087">
        <ele>264.054209</ele>
        <time>2024-12-17T10:22:15.000Z</time>
      </trkpt>
      <trkpt lat="50.26929" lon="4.53088">
        <ele>264.133707</ele>
        <time>2024-12-17T10:22:16.000Z</time>
      </trkpt>
      <trkpt lat="50.26932" lon="4.53088">
        <ele>264.202891</ele>
        <time>2024-12-17T10:22:17.000Z</time>
      </trkpt>
      <trkpt lat="50.26936" lon="4.53089">
        <ele>264.280228</ele>
        <time>2024-12-17T10:22:18.000Z</time>
      </trkpt>
      <trkpt lat="50.2694" lon="4.5309">
        <ele>264.356996</ele>
        <time>2024-12-17T10:22:19.000Z</time>
      </trkpt>
      <trkpt lat="50.26945" lon="4.53092">
        <ele>264.4636</ele>
        <time>2024-12-17T10:22:20.000Z</time>
      </trkpt>
      <trkpt lat="50.2695" lon="4.53094">
        <ele>264.577249</ele>
        <time>2024-12-17T10:22:21.000Z</time>
      </trkpt>
      <trkpt lat="50.26953" lon="4.53095">
        <ele>264.6359</ele>
        <time>2024-12-17T10:22:22.000Z</time>
      </trkpt>
      <trkpt lat="50.26956" lon="4.53097">
        <ele>264.698808</ele>
        <time>2024-12-17T10:22:23.000Z</time>
      </trkpt>
      <trkpt lat="50.26959" lon="4.53098">
        <ele>264.761408</ele>
        <time>2024-12-17T10:22:24.000Z</time>
      </trkpt>
      <trkpt lat="50.26962" lon="4.53099">
        <ele>264.817778</ele>
        <time>2024-12-17T10:22:25.000Z</time>
      </trkpt>
      <trkpt lat="50.26965" lon="4.531">
        <ele>264.893661</ele>
        <time>2024-12-17T10:22:26.000Z</time>
      </trkpt>
      <trkpt lat="50.26969" lon="4.53102">
        <ele>264.969319</ele>
        <time>2024-12-17T10:22:27.000Z</time>
      </trkpt>
      <trkpt lat="50.26973" lon="4.53104">
        <ele>265.050911</ele>
        <time>2024-12-17T10:22:28.000Z</time>
      </trkpt>
      <trkpt lat="50.26976" lon="4.53105">
        <ele>265.127952</ele>
        <time>2024-12-17T10:22:29.000Z</time>
      </trkpt>
      <trkpt lat="50.2698" lon="4.53106">
        <ele>265.208242</ele>
        <time>2024-12-17T10:22:30.000Z</time>
      </trkpt>
      <trkpt lat="50.26984" lon="4.53106">
        <ele>265.279455</ele>
        <time>2024-12-17T10:22:31.000Z</time>
      </trkpt>
      <trkpt lat="50.26987" lon="4.53106">
        <ele>265.344479</ele>
        <time>2024-12-17T10:22:32.000Z</time>
      </trkpt>
      <trkpt lat="50.2699" lon="4.53107">
        <ele>265.40341</ele>
        <time>2024-12-17T10:22:33.000Z</time>
      </trkpt>
      <trkpt lat="50.26992" lon="4.53107">
        <ele>265.452169</ele>
        <time>2024-12-17T10:22:34.000Z</time>
      </trkpt>
      <trkpt lat="50.26994" lon="4.53106">
        <ele>265.496883</ele>
        <time>2024-12-17T10:22:35.000Z</time>
      </trkpt>
      <trkpt lat="50.26997" lon="4.53106">
        <ele>265.545659</ele>
        <time>2024-12-17T10:22:36.000Z</time>
      </trkpt>
      <trkpt lat="50.26999" lon="4.53106">
        <ele>265.594435</ele>
        <time>2024-12-17T10:22:37.000Z</time>
      </trkpt>
      <trkpt lat="50.27002" lon="4.53107">
        <ele>265.647828</ele>
        <time>2024-12-17T10:22:38.000Z</time>
      </trkpt>
      <trkpt lat="50.27004" lon="4.53107">
        <ele>265.698618</ele>
        <time>2024-12-17T10:22:39.000Z</time>
      </trkpt>
      <trkpt lat="50.27007" lon="4.53107">
        <ele>265.751456</ele>
        <time>2024-12-17T10:22:40.000Z</time>
      </trkpt>
      <trkpt lat="50.27009" lon="4.53107">
        <ele>265.804293</ele>
        <time>2024-12-17T10:22:41.000Z</time>
      </trkpt>
      <trkpt lat="50.27012" lon="4.53107">
        <ele>265.849158</ele>
        <time>2024-12-17T10:22:42.000Z</time>
      </trkpt>
      <trkpt lat="50.27014" lon="4.53108">
        <ele>265.894023</ele>
        <time>2024-12-17T10:22:43.000Z</time>
      </trkpt>
      <trkpt lat="50.27016" lon="4.53108">
        <ele>265.946909</ele>
        <time>2024-12-17T10:22:44.000Z</time>
      </trkpt>
      <trkpt lat="50.27019" lon="4.53108">
        <ele>265.999746</ele>
        <time>2024-12-17T10:22:45.000Z</time>
      </trkpt>
      <trkpt lat="50.27022" lon="4.53108">
        <ele>266.060708</ele>
        <time>2024-12-17T10:22:46.000Z</time>
      </trkpt>
      <trkpt lat="50.27025" lon="4.53108">
        <ele>266.041738</ele>
        <time>2024-12-17T10:22:47.000Z</time>
      </trkpt>
      <trkpt lat="50.27028" lon="4.53108">
        <ele>265.991292</ele>
        <time>2024-12-17T10:22:48.000Z</time>
      </trkpt>
      <trkpt lat="50.27032" lon="4.53108">
        <ele>265.937736</ele>
        <time>2024-12-17T10:22:49.000Z</time>
      </trkpt>
      <trkpt lat="50.27036" lon="4.53109">
        <ele>265.876196</ele>
        <time>2024-12-17T10:22:50.000Z</time>
      </trkpt>
      <trkpt lat="50.2704" lon="4.5311">
        <ele>265.807674</ele>
        <time>2024-12-17T10:22:51.000Z</time>
      </trkpt>
      <trkpt lat="50.27043" lon="4.53112">
        <ele>265.757455</ele>
        <time>2024-12-17T10:22:52.000Z</time>
      </trkpt>
      <trkpt lat="50.27046" lon="4.53113">
        <ele>265.709949</ele>
        <time>2024-12-17T10:22:53.000Z</time>
      </trkpt>
      <trkpt lat="50.27051" lon="4.53115">
        <ele>265.640908</ele>
        <time>2024-12-17T10:22:54.000Z</time>
      </trkpt>
      <trkpt lat="50.27055" lon="4.53118">
        <ele>265.56483</ele>
        <time>2024-12-17T10:22:55.000Z</time>
      </trkpt>
      <trkpt lat="50.27061" lon="4.5312">
        <ele>265.480064</ele>
        <time>2024-12-17T10:22:56.000Z</time>
      </trkpt>
      <trkpt lat="50.27066" lon="4.53123">
        <ele>265.395484</ele>
        <time>2024-12-17T10:22:57.000Z</time>
      </trkpt>
      <trkpt lat="50.27071" lon="4.53127">
        <ele>265.307012</ele>
        <time>2024-12-17T10:22:58.000Z</time>
      </trkpt>
      <trkpt lat="50.27077" lon="4.5313">
        <ele>265.215342</ele>
        <time>2024-12-17T10:22:59.000Z</time>
      </trkpt>
      <trkpt lat="50.27083" lon="4.53134">
        <ele>265.119</ele>
        <time>2024-12-17T10:23:00.000Z</time>
      </trkpt>
      <trkpt lat="50.27088" lon="4.53138">
        <ele>265.025054</ele>
        <time>2024-12-17T10:23:01.000Z</time>
      </trkpt>
      <trkpt lat="50.27094" lon="4.53142">
        <ele>264.931685</ele>
        <time>2024-12-17T10:23:02.000Z</time>
      </trkpt>
      <trkpt lat="50.27099" lon="4.53147">
        <ele>264.838286</ele>
        <time>2024-12-17T10:23:03.000Z</time>
      </trkpt>
      <trkpt lat="50.27105" lon="4.5315">
        <ele>264.751233</ele>
        <time>2024-12-17T10:23:04.000Z</time>
      </trkpt>
      <trkpt lat="50.2711" lon="4.53152">
        <ele>264.663352</ele>
        <time>2024-12-17T10:23:05.000Z</time>
      </trkpt>
      <trkpt lat="50.27115" lon="4.53154">
        <ele>264.582076</ele>
        <time>2024-12-17T10:23:06.000Z</time>
      </trkpt>
      <trkpt lat="50.27121" lon="4.53155">
        <ele>264.497683</ele>
        <time>2024-12-17T10:23:07.000Z</time>
      </trkpt>
      <trkpt lat="50.27126" lon="4.53155">
        <ele>264.422879</ele>
        <time>2024-12-17T10:23:08.000Z</time>
      </trkpt>
      <trkpt lat="50.2713" lon="4.53155">
        <ele>264.361828</ele>
        <time>2024-12-17T10:23:09.000Z</time>
      </trkpt>
      <trkpt lat="50.27133" lon="4.53155">
        <ele>264.309932</ele>
        <time>2024-12-17T10:23:10.000Z</time>
      </trkpt>
      <trkpt lat="50.27137" lon="4.53155">
        <ele>264.256483</ele>
        <time>2024-12-17T10:23:11.000Z</time>
      </trkpt>
      <trkpt lat="50.2714" lon="4.53156">
        <ele>264.206684</ele>
        <time>2024-12-17T10:23:12.000Z</time>
      </trkpt>
      <trkpt lat="50.27143" lon="4.53158">
        <ele>264.155263</ele>
        <time>2024-12-17T10:23:13.000Z</time>
      </trkpt>
      <trkpt lat="50.27145" lon="4.53162">
        <ele>264.106652</ele>
        <time>2024-12-17T10:23:14.000Z</time>
      </trkpt>
      <trkpt lat="50.27146" lon="4.53166">
        <ele>264.061449</ele>
        <time>2024-12-17T10:23:15.000Z</time>
      </trkpt>
      <trkpt lat="50.27148" lon="4.5317">
        <ele>264.015656</ele>
        <time>2024-12-17T10:23:16.000Z</time>
      </trkpt>
      <trkpt lat="50.27151" lon="4.53172">
        <ele>263.969378</ele>
        <time>2024-12-17T10:23:17.000Z</time>
      </trkpt>
      <trkpt lat="50.27154" lon="4.53175">
        <ele>263.91976</ele>
        <time>2024-12-17T10:23:18.000Z</time>
      </trkpt>
      <trkpt lat="50.27156" lon="4.53176">
        <ele>263.875699</ele>
        <time>2024-12-17T10:23:19.000Z</time>
      </trkpt>
      <trkpt lat="50.27159" lon="4.53177">
        <ele>263.834449</ele>
        <time>2024-12-17T10:23:20.000Z</time>
      </trkpt>
      <trkpt lat="50.27162" lon="4.53176">
        <ele>263.794011</ele>
        <time>2024-12-17T10:23:21.000Z</time>
      </trkpt>
      <trkpt lat="50.27164" lon="4.53175">
        <ele>263.751432</ele>
        <time>2024-12-17T10:23:22.000Z</time>
      </trkpt>
      <trkpt lat="50.27167" lon="4.53173">
        <ele>263.702398</ele>
        <time>2024-12-17T10:23:23.000Z</time>
      </trkpt>
      <trkpt lat="50.27171" lon="4.53171">
        <ele>263.645787</ele>
        <time>2024-12-17T10:23:24.000Z</time>
      </trkpt>
      <trkpt lat="50.27174" lon="4.5317">
        <ele>263.592992</ele>
        <time>2024-12-17T10:23:25.000Z</time>
      </trkpt>
      <trkpt lat="50.27177" lon="4.5317">
        <ele>263.546549</ele>
        <time>2024-12-17T10:23:26.000Z</time>
      </trkpt>
      <trkpt lat="50.27181" lon="4.53168">
        <ele>263.492895</ele>
        <time>2024-12-17T10:23:27.000Z</time>
      </trkpt>
      <trkpt lat="50.27183" lon="4.53167">
        <ele>263.457006</ele>
        <time>2024-12-17T10:23:28.000Z</time>
      </trkpt>
      <trkpt lat="50.27185" lon="4.53165">
        <ele>263.426932</ele>
        <time>2024-12-17T10:23:29.000Z</time>
      </trkpt>
      <trkpt lat="50.27185" lon="4.53164">
        <ele>263.414588</ele>
        <time>2024-12-17T10:23:30.000Z</time>
      </trkpt>
      <trkpt lat="50.27185" lon="4.53164">
        <ele>263.414588</ele>
        <time>2024-12-17T10:23:32.000Z</time>
      </trkpt>
      <trkpt lat="50.27193" lon="4.53159">
        <ele>263.348169</ele>
        <time>2024-12-17T10:24:40.000Z</time>
      </trkpt>
      <trkpt lat="50.27196" lon="4.53156">
        <ele>263.361402</ele>
        <time>2024-12-17T10:24:41.000Z</time>
      </trkpt>
      <trkpt lat="50.27198" lon="4.53153">
        <ele>263.376286</ele>
        <time>2024-12-17T10:24:42.000Z</time>
      </trkpt>
      <trkpt lat="50.27201" lon="4.53149">
        <ele>263.391548</ele>
        <time>2024-12-17T10:24:43.000Z</time>
      </trkpt>
      <trkpt lat="50.27203" lon="4.53146">
        <ele>263.407552</ele>
        <time>2024-12-17T10:24:44.000Z</time>
      </trkpt>
      <trkpt lat="50.27206" lon="4.53143">
        <ele>263.424165</ele>
        <time>2024-12-17T10:24:45.000Z</time>
      </trkpt>
      <trkpt lat="50.27209" lon="4.5314">
        <ele>263.44244</ele>
        <time>2024-12-17T10:24:46.000Z</time>
      </trkpt>
      <trkpt lat="50.27213" lon="4.53135">
        <ele>263.463393</ele>
        <time>2024-12-17T10:24:47.000Z</time>
      </trkpt>
      <trkpt lat="50.27217" lon="4.53131">
        <ele>263.48582</ele>
        <time>2024-12-17T10:24:48.000Z</time>
      </trkpt>
      <trkpt lat="50.2722" lon="4.53125">
        <ele>263.508966</ele>
        <time>2024-12-17T10:24:49.000Z</time>
      </trkpt>
      <trkpt lat="50.27224" lon="4.53119">
        <ele>263.533722</ele>
        <time>2024-12-17T10:24:50.000Z</time>
      </trkpt>
      <trkpt lat="50.27228" lon="4.53112">
        <ele>263.56339</ele>
        <time>2024-12-17T10:24:51.000Z</time>
      </trkpt>
      <trkpt lat="50.27233" lon="4.53105">
        <ele>263.591706</ele>
        <time>2024-12-17T10:24:52.000Z</time>
      </trkpt>
      <trkpt lat="50.27236" lon="4.53098">
        <ele>263.618352</ele>
        <time>2024-12-17T10:24:53.000Z</time>
      </trkpt>
      <trkpt lat="50.27239" lon="4.5309">
        <ele>263.646508</ele>
        <time>2024-12-17T10:24:54.000Z</time>
      </trkpt>
      <trkpt lat="50.27242" lon="4.53082">
        <ele>263.6739</ele>
        <time>2024-12-17T10:24:55.000Z</time>
      </trkpt>
      <trkpt lat="50.27245" lon="4.53075">
        <ele>263.700539</ele>
        <time>2024-12-17T10:24:56.000Z</time>
      </trkpt>
      <trkpt lat="50.27248" lon="4.53067">
        <ele>263.726295</ele>
        <time>2024-12-17T10:24:57.000Z</time>
      </trkpt>
      <trkpt lat="50.2725" lon="4.53059">
        <ele>263.751307</ele>
        <time>2024-12-17T10:24:58.000Z</time>
      </trkpt>
      <trkpt lat="50.27252" lon="4.53052">
        <ele>263.775312</ele>
        <time>2024-12-17T10:24:59.000Z</time>
      </trkpt>
      <trkpt lat="50.27254" lon="4.53045">
        <ele>263.798373</ele>
        <time>2024-12-17T10:25:00.000Z</time>
      </trkpt>
      <trkpt lat="50.27257" lon="4.53039">
        <ele>263.819991</ele>
        <time>2024-12-17T10:25:01.000Z</time>
      </trkpt>
      <trkpt lat="50.27259" lon="4.53034">
        <ele>263.840127</ele>
        <time>2024-12-17T10:25:02.000Z</time>
      </trkpt>
      <trkpt lat="50.27263" lon="4.5303">
        <ele>263.859903</ele>
        <time>2024-12-17T10:25:03.000Z</time>
      </trkpt>
      <trkpt lat="50.27267" lon="4.53028">
        <ele>263.878429</ele>
        <time>2024-12-17T10:25:04.000Z</time>
      </trkpt>
      <trkpt lat="50.27271" lon="4.53027">
        <ele>263.89692</ele>
        <time>2024-12-17T10:25:05.000Z</time>
      </trkpt>
      <trkpt lat="50.27275" lon="4.53026">
        <ele>263.915659</ele>
        <time>2024-12-17T10:25:06.000Z</time>
      </trkpt>
      <trkpt lat="50.27279" lon="4.53024">
        <ele>263.93455</ele>
        <time>2024-12-17T10:25:07.000Z</time>
      </trkpt>
      <trkpt lat="50.27282" lon="4.53022">
        <ele>263.952991</ele>
        <time>2024-12-17T10:25:08.000Z</time>
      </trkpt>
      <trkpt lat="50.27286" lon="4.53021">
        <ele>263.970623</ele>
        <time>2024-12-17T10:25:09.000Z</time>
      </trkpt>
      <trkpt lat="50.2729" lon="4.5302">
        <ele>263.988254</ele>
        <time>2024-12-17T10:25:10.000Z</time>
      </trkpt>
      <trkpt lat="50.27293" lon="4.53019">
        <ele>264.005563</ele>
        <time>2024-12-17T10:25:11.000Z</time>
      </trkpt>
      <trkpt lat="50.27296" lon="4.53017">
        <ele>264.019109</ele>
        <time>2024-12-17T10:25:12.000Z</time>
      </trkpt>
      <trkpt lat="50.27299" lon="4.53017">
        <ele>264.030559</ele>
        <time>2024-12-17T10:25:13.000Z</time>
      </trkpt>
      <trkpt lat="50.27301" lon="4.53015">
        <ele>264.041871</ele>
        <time>2024-12-17T10:25:14.000Z</time>
      </trkpt>
      <trkpt lat="50.27303" lon="4.53015">
        <ele>264.051832</ele>
        <time>2024-12-17T10:25:15.000Z</time>
      </trkpt>
      <trkpt lat="50.27305" lon="4.53015">
        <ele>264.060703</ele>
        <time>2024-12-17T10:25:16.000Z</time>
      </trkpt>
      <trkpt lat="50.27307" lon="4.53014">
        <ele>264.071583</ele>
        <time>2024-12-17T10:25:17.000Z</time>
      </trkpt>
      <trkpt lat="50.27309" lon="4.53013">
        <ele>264.081293</ele>
        <time>2024-12-17T10:25:18.000Z</time>
      </trkpt>
      <trkpt lat="50.27311" lon="4.53012">
        <ele>264.088247</ele>
        <time>2024-12-17T10:25:19.000Z</time>
      </trkpt>
      <trkpt lat="50.27312" lon="4.53012">
        <ele>264.094042</ele>
        <time>2024-12-17T10:25:20.000Z</time>
      </trkpt>
      <trkpt lat="50.27313" lon="4.53012">
        <ele>264.101602</ele>
        <time>2024-12-17T10:25:21.000Z</time>
      </trkpt>
      <trkpt lat="50.27315" lon="4.53011">
        <ele>264.110022</ele>
        <time>2024-12-17T10:25:22.000Z</time>
      </trkpt>
      <trkpt lat="50.27316" lon="4.53011">
        <ele>264.115164</ele>
        <time>2024-12-17T10:25:23.000Z</time>
      </trkpt>
      <trkpt lat="50.27317" lon="4.53011">
        <ele>264.11703</ele>
        <time>2024-12-17T10:25:24.000Z</time>
      </trkpt>
      <trkpt lat="50.27317" lon="4.53011">
        <ele>264.11703</ele>
        <time>2024-12-17T10:25:25.000Z</time>
      </trkpt>
      <trkpt lat="50.27324" lon="4.53011">
        <ele>264.149227</ele>
        <time>2024-12-17T10:25:44.000Z</time>
      </trkpt>
      <trkpt lat="50.27326" lon="4.5301">
        <ele>264.162508</ele>
        <time>2024-12-17T10:25:45.000Z</time>
      </trkpt>
      <trkpt lat="50.27331" lon="4.53008">
        <ele>264.244919</ele>
        <time>2024-12-17T10:25:46.000Z</time>
      </trkpt>
      <trkpt lat="50.27334" lon="4.53007">
        <ele>264.31272</ele>
        <time>2024-12-17T10:25:47.000Z</time>
      </trkpt>
      <trkpt lat="50.27337" lon="4.53005">
        <ele>264.386304</ele>
        <time>2024-12-17T10:25:48.000Z</time>
      </trkpt>
      <trkpt lat="50.27339" lon="4.53004">
        <ele>264.436575</ele>
        <time>2024-12-17T10:25:49.000Z</time>
      </trkpt>
      <trkpt lat="50.27341" lon="4.53002">
        <ele>264.483281</ele>
        <time>2024-12-17T10:25:50.000Z</time>
      </trkpt>
      <trkpt lat="50.27343" lon="4.53001">
        <ele>264.545709</ele>
        <time>2024-12-17T10:25:51.000Z</time>
      </trkpt>
      <trkpt lat="50.27346" lon="4.52999">
        <ele>264.617711</ele>
        <time>2024-12-17T10:25:52.000Z</time>
      </trkpt>
      <trkpt lat="50.27349" lon="4.52997">
        <ele>264.696627</ele>
        <time>2024-12-17T10:25:53.000Z</time>
      </trkpt>
      <trkpt lat="50.27353" lon="4.52995">
        <ele>264.77931</ele>
        <time>2024-12-17T10:25:54.000Z</time>
      </trkpt>
      <trkpt lat="50.27357" lon="4.52992">
        <ele>264.880274</ele>
        <time>2024-12-17T10:25:55.000Z</time>
      </trkpt>
      <trkpt lat="50.27362" lon="4.52989">
        <ele>265.011025</ele>
        <time>2024-12-17T10:25:56.000Z</time>
      </trkpt>
      <trkpt lat="50.27367" lon="4.52986">
        <ele>265.138466</ele>
        <time>2024-12-17T10:25:57.000Z</time>
      </trkpt>
      <trkpt lat="50.27371" lon="4.52983">
        <ele>265.226616</ele>
        <time>2024-12-17T10:25:58.000Z</time>
      </trkpt>
      <trkpt lat="50.27374" lon="4.5298">
        <ele>265.307886</ele>
        <time>2024-12-17T10:25:59.000Z</time>
      </trkpt>
      <trkpt lat="50.27378" lon="4.52978">
        <ele>265.405483</ele>
        <time>2024-12-17T10:26:00.000Z</time>
      </trkpt>
      <trkpt lat="50.27381" lon="4.52975">
        <ele>265.501037</ele>
        <time>2024-12-17T10:26:01.000Z</time>
      </trkpt>
      <trkpt lat="50.27386" lon="4.52971">
        <ele>265.610016</ele>
        <time>2024-12-17T10:26:02.000Z</time>
      </trkpt>
      <trkpt lat="50.2739" lon="4.52969">
        <ele>265.712752</ele>
        <time>2024-12-17T10:26:03.000Z</time>
      </trkpt>
      <trkpt lat="50.27394" lon="4.52965">
        <ele>265.821017</ele>
        <time>2024-12-17T10:26:04.000Z</time>
      </trkpt>
      <trkpt lat="50.27397" lon="4.52962">
        <ele>265.905633</ele>
        <time>2024-12-17T10:26:05.000Z</time>
      </trkpt>
      <trkpt lat="50.27401" lon="4.5296">
        <ele>266.009623</ele>
        <time>2024-12-17T10:26:06.000Z</time>
      </trkpt>
      <trkpt lat="50.27404" lon="4.52957">
        <ele>266.078025</ele>
        <time>2024-12-17T10:26:07.000Z</time>
      </trkpt>
      <trkpt lat="50.27408" lon="4.52955">
        <ele>266.172432</ele>
        <time>2024-12-17T10:26:08.000Z</time>
      </trkpt>
      <trkpt lat="50.2741" lon="4.52952">
        <ele>266.229276</ele>
        <time>2024-12-17T10:26:09.000Z</time>
      </trkpt>
      <trkpt lat="50.27414" lon="4.5295">
        <ele>266.329819</ele>
        <time>2024-12-17T10:26:10.000Z</time>
      </trkpt>
      <trkpt lat="50.27416" lon="4.52947">
        <ele>266.390725</ele>
        <time>2024-12-17T10:26:11.000Z</time>
      </trkpt>
      <trkpt lat="50.27417" lon="4.52944">
        <ele>266.437673</ele>
        <time>2024-12-17T10:26:12.000Z</time>
      </trkpt>
      <trkpt lat="50.27418" lon="4.52943">
        <ele>266.478962</ele>
        <time>2024-12-17T10:26:13.000Z</time>
      </trkpt>
      <trkpt lat="50.27419" lon="4.52942">
        <ele>266.513243</ele>
        <time>2024-12-17T10:26:14.000Z</time>
      </trkpt>
      <trkpt lat="50.27421" lon="4.5294">
        <ele>266.550235</ele>
        <time>2024-12-17T10:26:15.000Z</time>
      </trkpt>
      <trkpt lat="50.27422" lon="4.52939">
        <ele>266.583651</ele>
        <time>2024-12-17T10:26:16.000Z</time>
      </trkpt>
      <trkpt lat="50.27425" lon="4.52937">
        <ele>266.651431</ele>
        <time>2024-12-17T10:26:17.000Z</time>
      </trkpt>
      <trkpt lat="50.27427" lon="4.52937">
        <ele>266.71791</ele>
        <time>2024-12-17T10:26:18.000Z</time>
      </trkpt>
      <trkpt lat="50.27429" lon="4.52936">
        <ele>266.764307</ele>
        <time>2024-12-17T10:26:19.000Z</time>
      </trkpt>
      <trkpt lat="50.27431" lon="4.52935">
        <ele>266.80977</ele>
        <time>2024-12-17T10:26:20.000Z</time>
      </trkpt>
      <trkpt lat="50.27433" lon="4.52934">
        <ele>266.857856</ele>
        <time>2024-12-17T10:26:21.000Z</time>
      </trkpt>
      <trkpt lat="50.27435" lon="4.52933">
        <ele>266.910749</ele>
        <time>2024-12-17T10:26:22.000Z</time>
      </trkpt>
      <trkpt lat="50.27437" lon="4.52932">
        <ele>266.953227</ele>
        <time>2024-12-17T10:26:23.000Z</time>
      </trkpt>
      <trkpt lat="50.2744" lon="4.52931">
        <ele>267.0105</ele>
        <time>2024-12-17T10:26:24.000Z</time>
      </trkpt>
      <trkpt lat="50.27443" lon="4.5293">
        <ele>267.08045</ele>
        <time>2024-12-17T10:26:25.000Z</time>
      </trkpt>
      <trkpt lat="50.27445" lon="4.52928">
        <ele>267.1519</ele>
        <time>2024-12-17T10:26:26.000Z</time>
      </trkpt>
      <trkpt lat="50.27449" lon="4.52926">
        <ele>267.230285</ele>
        <time>2024-12-17T10:26:27.000Z</time>
      </trkpt>
      <trkpt lat="50.27451" lon="4.52924">
        <ele>267.289849</ele>
        <time>2024-12-17T10:26:28.000Z</time>
      </trkpt>
      <trkpt lat="50.27453" lon="4.52923">
        <ele>267.348509</ele>
        <time>2024-12-17T10:26:29.000Z</time>
      </trkpt>
      <trkpt lat="50.27456" lon="4.5292">
        <ele>267.412963</ele>
        <time>2024-12-17T10:26:30.000Z</time>
      </trkpt>
      <trkpt lat="50.27459" lon="4.52918">
        <ele>267.498298</ele>
        <time>2024-12-17T10:26:31.000Z</time>
      </trkpt>
      <trkpt lat="50.27462" lon="4.52917">
        <ele>267.55925</ele>
        <time>2024-12-17T10:26:32.000Z</time>
      </trkpt>
      <trkpt lat="50.27465" lon="4.52915">
        <ele>267.634479</ele>
        <time>2024-12-17T10:26:33.000Z</time>
      </trkpt>
      <trkpt lat="50.27467" lon="4.52914">
        <ele>267.693575</ele>
        <time>2024-12-17T10:26:34.000Z</time>
      </trkpt>
      <trkpt lat="50.2747" lon="4.52912">
        <ele>267.767888</ele>
        <time>2024-12-17T10:26:35.000Z</time>
      </trkpt>
      <trkpt lat="50.27473" lon="4.5291">
        <ele>267.842569</ele>
        <time>2024-12-17T10:26:36.000Z</time>
      </trkpt>
      <trkpt lat="50.27476" lon="4.52908">
        <ele>267.91037</ele>
        <time>2024-12-17T10:26:37.000Z</time>
      </trkpt>
      <trkpt lat="50.27479" lon="4.52907">
        <ele>267.977583</ele>
        <time>2024-12-17T10:26:38.000Z</time>
      </trkpt>
      <trkpt lat="50.27482" lon="4.52905">
        <ele>268.062426</ele>
        <time>2024-12-17T10:26:39.000Z</time>
      </trkpt>
      <trkpt lat="50.27486" lon="4.52903">
        <ele>268.156418</ele>
        <time>2024-12-17T10:26:40.000Z</time>
      </trkpt>
      <trkpt lat="50.2749" lon="4.529">
        <ele>268.245472</ele>
        <time>2024-12-17T10:26:41.000Z</time>
      </trkpt>
      <trkpt lat="50.27492" lon="4.52899">
        <ele>268.293028</ele>
        <time>2024-12-17T10:26:42.000Z</time>
      </trkpt>
      <trkpt lat="50.27494" lon="4.52898">
        <ele>268.305838</ele>
        <time>2024-12-17T10:26:43.000Z</time>
      </trkpt>
      <trkpt lat="50.27496" lon="4.52897">
        <ele>268.319387</ele>
        <time>2024-12-17T10:26:44.000Z</time>
      </trkpt>
      <trkpt lat="50.27498" lon="4.52896">
        <ele>268.333814</ele>
        <time>2024-12-17T10:26:45.000Z</time>
      </trkpt>
      <trkpt lat="50.27501" lon="4.52894">
        <ele>268.354016</ele>
        <time>2024-12-17T10:26:46.000Z</time>
      </trkpt>
      <trkpt lat="50.27503" lon="4.52893">
        <ele>268.37043</ele>
        <time>2024-12-17T10:26:47.000Z</time>
      </trkpt>
      <trkpt lat="50.27505" lon="4.5289">
        <ele>268.386971</ele>
        <time>2024-12-17T10:26:48.000Z</time>
      </trkpt>
      <trkpt lat="50.27508" lon="4.52889">
        <ele>268.405155</ele>
        <time>2024-12-17T10:26:49.000Z</time>
      </trkpt>
      <trkpt lat="50.2751" lon="4.52887">
        <ele>268.422329</ele>
        <time>2024-12-17T10:26:50.000Z</time>
      </trkpt>
      <trkpt lat="50.27513" lon="4.52886">
        <ele>268.437233</ele>
        <time>2024-12-17T10:26:51.000Z</time>
      </trkpt>
      <trkpt lat="50.27514" lon="4.52885">
        <ele>268.44785</ele>
        <time>2024-12-17T10:26:52.000Z</time>
      </trkpt>
      <trkpt lat="50.27514" lon="4.52885">
        <ele>268.449786</ele>
        <time>2024-12-17T10:26:53.000Z</time>
      </trkpt>
      <trkpt lat="50.27522" lon="4.5288">
        <ele>268.50091</ele>
        <time>2024-12-17T10:27:09.000Z</time>
      </trkpt>
      <trkpt lat="50.27523" lon="4.52878">
        <ele>268.513363</ele>
        <time>2024-12-17T10:27:10.000Z</time>
      </trkpt>
      <trkpt lat="50.27525" lon="4.52876">
        <ele>268.525193</ele>
        <time>2024-12-17T10:27:11.000Z</time>
      </trkpt>
      <trkpt lat="50.27527" lon="4.52875">
        <ele>268.539317</ele>
        <time>2024-12-17T10:27:12.000Z</time>
      </trkpt>
      <trkpt lat="50.27529" lon="4.52872">
        <ele>268.554859</ele>
        <time>2024-12-17T10:27:13.000Z</time>
      </trkpt>
      <trkpt lat="50.27531" lon="4.52871">
        <ele>268.571693</ele>
        <time>2024-12-17T10:27:14.000Z</time>
      </trkpt>
      <trkpt lat="50.27533" lon="4.5287">
        <ele>268.585986</ele>
        <time>2024-12-17T10:27:15.000Z</time>
      </trkpt>
      <trkpt lat="50.27535" lon="4.5287">
        <ele>268.59631</ele>
        <time>2024-12-17T10:27:16.000Z</time>
      </trkpt>
      <trkpt lat="50.27536" lon="4.52871">
        <ele>268.607556</ele>
        <time>2024-12-17T10:27:17.000Z</time>
      </trkpt>
      <trkpt lat="50.27538" lon="4.52872">
        <ele>268.617323</ele>
        <time>2024-12-17T10:27:18.000Z</time>
      </trkpt>
      <trkpt lat="50.27539" lon="4.52873">
        <ele>268.626513</ele>
        <time>2024-12-17T10:27:19.000Z</time>
      </trkpt>
      <trkpt lat="50.2754" lon="4.52875">
        <ele>268.637948</ele>
        <time>2024-12-17T10:27:20.000Z</time>
      </trkpt>
      <trkpt lat="50.27543" lon="4.52877">
        <ele>268.655229</ele>
        <time>2024-12-17T10:27:21.000Z</time>
      </trkpt>
      <trkpt lat="50.27544" lon="4.5288">
        <ele>268.668843</ele>
        <time>2024-12-17T10:27:22.000Z</time>
      </trkpt>
      <trkpt lat="50.27545" lon="4.52882">
        <ele>268.680461</ele>
        <time>2024-12-17T10:27:23.000Z</time>
      </trkpt>
      <trkpt lat="50.27547" lon="4.52884">
        <ele>268.693432</ele>
        <time>2024-12-17T10:27:24.000Z</time>
      </trkpt>
      <trkpt lat="50.27549" lon="4.52884">
        <ele>268.705626</ele>
        <time>2024-12-17T10:27:25.000Z</time>
      </trkpt>
      <trkpt lat="50.2755" lon="4.52885">
        <ele>268.716788</ele>
        <time>2024-12-17T10:27:26.000Z</time>
      </trkpt>
      <trkpt lat="50.27552" lon="4.52885">
        <ele>268.726468</ele>
        <time>2024-12-17T10:27:27.000Z</time>
      </trkpt>
      <trkpt lat="50.27554" lon="4.52885">
        <ele>268.737438</ele>
        <time>2024-12-17T10:27:28.000Z</time>
      </trkpt>
      <trkpt lat="50.27556" lon="4.52885">
        <ele>268.754236</ele>
        <time>2024-12-17T10:27:29.000Z</time>
      </trkpt>
      <trkpt lat="50.27559" lon="4.52886">
        <ele>268.772421</ele>
        <time>2024-12-17T10:27:30.000Z</time>
      </trkpt>
      <trkpt lat="50.27562" lon="4.52887">
        <ele>268.791499</ele>
        <time>2024-12-17T10:27:31.000Z</time>
      </trkpt>
      <trkpt lat="50.27563" lon="4.52887">
        <ele>268.800246</ele>
        <time>2024-12-17T10:27:32.000Z</time>
      </trkpt>
      <trkpt lat="50.27565" lon="4.52887">
        <ele>268.810644</ele>
        <time>2024-12-17T10:27:33.000Z</time>
      </trkpt>
      <trkpt lat="50.27567" lon="4.52888">
        <ele>268.823655</ele>
        <time>2024-12-17T10:27:34.000Z</time>
      </trkpt>
      <trkpt lat="50.27568" lon="4.52887">
        <ele>268.834627</ele>
        <time>2024-12-17T10:27:35.000Z</time>
      </trkpt>
      <trkpt lat="50.2757" lon="4.52886">
        <ele>268.843373</ele>
        <time>2024-12-17T10:27:36.000Z</time>
      </trkpt>
      <trkpt lat="50.27572" lon="4.52885">
        <ele>268.859632</ele>
        <time>2024-12-17T10:27:37.000Z</time>
      </trkpt>
      <trkpt lat="50.27575" lon="4.52885">
        <ele>268.877705</ele>
        <time>2024-12-17T10:27:38.000Z</time>
      </trkpt>
      <trkpt lat="50.27578" lon="4.52887">
        <ele>268.90026</ele>
        <time>2024-12-17T10:27:39.000Z</time>
      </trkpt>
      <trkpt lat="50.27579" lon="4.52889">
        <ele>268.910237</ele>
        <time>2024-12-17T10:27:40.000Z</time>
      </trkpt>
      <trkpt lat="50.2758" lon="4.5289">
        <ele>268.916151</ele>
        <time>2024-12-17T10:27:41.000Z</time>
      </trkpt>
      <trkpt lat="50.27584" lon="4.52893">
        <ele>268.943805</ele>
        <time>2024-12-17T10:27:42.000Z</time>
      </trkpt>
      <trkpt lat="50.27587" lon="4.52895">
        <ele>268.965013</ele>
        <time>2024-12-17T10:27:43.000Z</time>
      </trkpt>
      <trkpt lat="50.27591" lon="4.52896">
        <ele>268.993597</ele>
        <time>2024-12-17T10:27:44.000Z</time>
      </trkpt>
      <trkpt lat="50.27595" lon="4.52896">
        <ele>269.019492</ele>
        <time>2024-12-17T10:27:45.000Z</time>
      </trkpt>
      <trkpt lat="50.276" lon="4.52898">
        <ele>269.052509</ele>
        <time>2024-12-17T10:27:46.000Z</time>
      </trkpt>
      <trkpt lat="50.27604" lon="4.529">
        <ele>269.080404</ele>
        <time>2024-12-17T10:27:47.000Z</time>
      </trkpt>
      <trkpt lat="50.27608" lon="4.529">
        <ele>269.103124</ele>
        <time>2024-12-17T10:27:48.000Z</time>
      </trkpt>
      <trkpt lat="50.27612" lon="4.52902">
        <ele>269.128856</ele>
        <time>2024-12-17T10:27:49.000Z</time>
      </trkpt>
      <trkpt lat="50.27615" lon="4.52903">
        <ele>269.14844</ele>
        <time>2024-12-17T10:27:50.000Z</time>
      </trkpt>
      <trkpt lat="50.27617" lon="4.52904">
        <ele>269.166928</ele>
        <time>2024-12-17T10:27:51.000Z</time>
      </trkpt>
      <trkpt lat="50.27621" lon="4.52906">
        <ele>269.188485</ele>
        <time>2024-12-17T10:27:52.000Z</time>
      </trkpt>
      <trkpt lat="50.27625" lon="4.52907">
        <ele>269.217666</ele>
        <time>2024-12-17T10:27:53.000Z</time>
      </trkpt>
      <trkpt lat="50.27629" lon="4.52905">
        <ele>269.240787</ele>
        <time>2024-12-17T10:27:54.000Z</time>
      </trkpt>
      <trkpt lat="50.27631" lon="4.52906">
        <ele>269.259542</ele>
        <time>2024-12-17T10:27:55.000Z</time>
      </trkpt>
      <trkpt lat="50.27633" lon="4.52905">
        <ele>269.270635</ele>
        <time>2024-12-17T10:27:56.000Z</time>
      </trkpt>
      <trkpt lat="50.27635" lon="4.52905">
        <ele>269.280736</ele>
        <time>2024-12-17T10:27:57.000Z</time>
      </trkpt>
      <trkpt lat="50.27636" lon="4.52904">
        <ele>269.291265</ele>
        <time>2024-12-17T10:27:58.000Z</time>
      </trkpt>
      <trkpt lat="50.27638" lon="4.52904">
        <ele>269.300308</ele>
        <time>2024-12-17T10:27:59.000Z</time>
      </trkpt>
      <trkpt lat="50.27639" lon="4.52904">
        <ele>269.311471</ele>
        <time>2024-12-17T10:28:00.000Z</time>
      </trkpt>
      <trkpt lat="50.27641" lon="4.52903">
        <ele>269.322442</ele>
        <time>2024-12-17T10:28:01.000Z</time>
      </trkpt>
      <trkpt lat="50.27642" lon="4.52901">
        <ele>269.33363</ele>
        <time>2024-12-17T10:28:02.000Z</time>
      </trkpt>
      <trkpt lat="50.27644" lon="4.52899">
        <ele>269.345986</ele>
        <time>2024-12-17T10:28:03.000Z</time>
      </trkpt>
      <trkpt lat="50.27646" lon="4.52897">
        <ele>269.36011</ele>
        <time>2024-12-17T10:28:04.000Z</time>
      </trkpt>
      <trkpt lat="50.27648" lon="4.52896">
        <ele>269.375182</ele>
        <time>2024-12-17T10:28:05.000Z</time>
      </trkpt>
      <trkpt lat="50.27649" lon="4.52894">
        <ele>269.387808</ele>
        <time>2024-12-17T10:28:06.000Z</time>
      </trkpt>
      <trkpt lat="50.27651" lon="4.52894">
        <ele>269.395821</ele>
        <time>2024-12-17T10:28:07.000Z</time>
      </trkpt>
      <trkpt lat="50.27652" lon="4.52894">
        <ele>269.404301</ele>
        <time>2024-12-17T10:28:08.000Z</time>
      </trkpt>
      <trkpt lat="50.27657" lon="4.52894">
        <ele>269.43659</ele>
        <time>2024-12-17T10:28:11.000Z</time>
      </trkpt>
      <trkpt lat="50.27659" lon="4.52893">
        <ele>269.449286</ele>
        <time>2024-12-17T10:28:12.000Z</time>
      </trkpt>
      <trkpt lat="50.27661" lon="4.52891">
        <ele>269.45203</ele>
        <time>2024-12-17T10:28:13.000Z</time>
      </trkpt>
      <trkpt lat="50.27662" lon="4.5289">
        <ele>269.453841</ele>
        <time>2024-12-17T10:28:14.000Z</time>
      </trkpt>
      <trkpt lat="50.27664" lon="4.52889">
        <ele>269.455154</ele>
        <time>2024-12-17T10:28:15.000Z</time>
      </trkpt>
      <trkpt lat="50.27665" lon="4.52888">
        <ele>269.456646</ele>
        <time>2024-12-17T10:28:16.000Z</time>
      </trkpt>
      <trkpt lat="50.27667" lon="4.52887">
        <ele>269.458543</ele>
        <time>2024-12-17T10:28:17.000Z</time>
      </trkpt>
      <trkpt lat="50.2767" lon="4.52887">
        <ele>269.460598</ele>
        <time>2024-12-17T10:28:18.000Z</time>
      </trkpt>
      <trkpt lat="50.27673" lon="4.52887">
        <ele>269.463353</ele>
        <time>2024-12-17T10:28:19.000Z</time>
      </trkpt>
      <trkpt lat="50.27676" lon="4.52888">
        <ele>269.466047</ele>
        <time>2024-12-17T10:28:20.000Z</time>
      </trkpt>
      <trkpt lat="50.27679" lon="4.52889">
        <ele>269.468727</ele>
        <time>2024-12-17T10:28:21.000Z</time>
      </trkpt>
      <trkpt lat="50.27682" lon="4.5289">
        <ele>269.471353</ele>
        <time>2024-12-17T10:28:22.000Z</time>
      </trkpt>
      <trkpt lat="50.27684" lon="4.52891">
        <ele>269.473846</ele>
        <time>2024-12-17T10:28:23.000Z</time>
      </trkpt>
      <trkpt lat="50.27687" lon="4.52892">
        <ele>269.476311</ele>
        <time>2024-12-17T10:28:24.000Z</time>
      </trkpt>
      <trkpt lat="50.2769" lon="4.52893">
        <ele>269.478603</ele>
        <time>2024-12-17T10:28:25.000Z</time>
      </trkpt>
      <trkpt lat="50.27692" lon="4.52894">
        <ele>269.480783</ele>
        <time>2024-12-17T10:28:26.000Z</time>
      </trkpt>
      <trkpt lat="50.27694" lon="4.52895">
        <ele>269.482834</ele>
        <time>2024-12-17T10:28:27.000Z</time>
      </trkpt>
      <trkpt lat="50.27697" lon="4.52896">
        <ele>269.485529</ele>
        <time>2024-12-17T10:28:28.000Z</time>
      </trkpt>
      <trkpt lat="50.27701" lon="4.52896">
        <ele>269.488575</ele>
        <time>2024-12-17T10:28:29.000Z</time>
      </trkpt>
      <trkpt lat="50.27703" lon="4.52897">
        <ele>269.490424</ele>
        <time>2024-12-17T10:28:30.000Z</time>
      </trkpt>
      <trkpt lat="50.27704" lon="4.52899">
        <ele>269.492262</ele>
        <time>2024-12-17T10:28:31.000Z</time>
      </trkpt>
      <trkpt lat="50.27706" lon="4.52901">
        <ele>269.494101</ele>
        <time>2024-12-17T10:28:32.000Z</time>
      </trkpt>
      <trkpt lat="50.27708" lon="4.52901">
        <ele>269.495736</ele>
        <time>2024-12-17T10:28:33.000Z</time>
      </trkpt>
      <trkpt lat="50.2771" lon="4.52902">
        <ele>269.497535</ele>
        <time>2024-12-17T10:28:34.000Z</time>
      </trkpt>
      <trkpt lat="50.27712" lon="4.52902">
        <ele>269.499598</ele>
        <time>2024-12-17T10:28:35.000Z</time>
      </trkpt>
      <trkpt lat="50.27715" lon="4.52903">
        <ele>269.501942</ele>
        <time>2024-12-17T10:28:36.000Z</time>
      </trkpt>
      <trkpt lat="50.27718" lon="4.52903">
        <ele>269.504341</ele>
        <time>2024-12-17T10:28:37.000Z</time>
      </trkpt>
      <trkpt lat="50.27719" lon="4.52903">
        <ele>269.506029</ele>
        <time>2024-12-17T10:28:38.000Z</time>
      </trkpt>
      <trkpt lat="50.27722" lon="4.52904">
        <ele>269.508422</ele>
        <time>2024-12-17T10:28:39.000Z</time>
      </trkpt>
      <trkpt lat="50.27725" lon="4.52905">
        <ele>269.511203</ele>
        <time>2024-12-17T10:28:40.000Z</time>
      </trkpt>
      <trkpt lat="50.27727" lon="4.52907">
        <ele>269.513459</ele>
        <time>2024-12-17T10:28:41.000Z</time>
      </trkpt>
      <trkpt lat="50.2773" lon="4.52908">
        <ele>269.515651</ele>
        <time>2024-12-17T10:28:42.000Z</time>
      </trkpt>
      <trkpt lat="50.27732" lon="4.52909">
        <ele>269.518144</ele>
        <time>2024-12-17T10:28:43.000Z</time>
      </trkpt>
      <trkpt lat="50.27735" lon="4.52911">
        <ele>269.520773</ele>
        <time>2024-12-17T10:28:44.000Z</time>
      </trkpt>
      <trkpt lat="50.27738" lon="4.52912">
        <ele>269.523486</ele>
        <time>2024-12-17T10:28:45.000Z</time>
      </trkpt>
      <trkpt lat="50.27741" lon="4.52913">
        <ele>269.525813</ele>
        <time>2024-12-17T10:28:46.000Z</time>
      </trkpt>
      <trkpt lat="50.27744" lon="4.52913">
        <ele>269.528658</ele>
        <time>2024-12-17T10:28:47.000Z</time>
      </trkpt>
      <trkpt lat="50.27747" lon="4.52913">
        <ele>269.531501</ele>
        <time>2024-12-17T10:28:48.000Z</time>
      </trkpt>
      <trkpt lat="50.27751" lon="4.52912">
        <ele>269.53454</ele>
        <time>2024-12-17T10:28:49.000Z</time>
      </trkpt>
      <trkpt lat="50.27753" lon="4.52911">
        <ele>269.536796</ele>
        <time>2024-12-17T10:28:50.000Z</time>
      </trkpt>
      <trkpt lat="50.27755" lon="4.5291">
        <ele>269.538716</ele>
        <time>2024-12-17T10:28:51.000Z</time>
      </trkpt>
      <trkpt lat="50.27757" lon="4.52909">
        <ele>269.540344</ele>
        <time>2024-12-17T10:28:52.000Z</time>
      </trkpt>
      <trkpt lat="50.27759" lon="4.52908">
        <ele>269.542611</ele>
        <time>2024-12-17T10:28:53.000Z</time>
      </trkpt>
      <trkpt lat="50.27763" lon="4.52908">
        <ele>269.546092</ele>
        <time>2024-12-17T10:28:54.000Z</time>
      </trkpt>
      <trkpt lat="50.27766" lon="4.52907">
        <ele>269.548557</ele>
        <time>2024-12-17T10:28:55.000Z</time>
      </trkpt>
      <trkpt lat="50.27767" lon="4.52905">
        <ele>269.549959</ele>
        <time>2024-12-17T10:28:56.000Z</time>
      </trkpt>
      <trkpt lat="50.2777" lon="4.52904">
        <ele>269.552165</ele>
        <time>2024-12-17T10:28:57.000Z</time>
      </trkpt>
      <trkpt lat="50.27773" lon="4.52904">
        <ele>269.555116</ele>
        <time>2024-12-17T10:28:58.000Z</time>
      </trkpt>
      <trkpt lat="50.27776" lon="4.52903">
        <ele>269.558056</ele>
        <time>2024-12-17T10:28:59.000Z</time>
      </trkpt>
      <trkpt lat="50.27779" lon="4.52904">
        <ele>269.56056</ele>
        <time>2024-12-17T10:29:00.000Z</time>
      </trkpt>
      <trkpt lat="50.27781" lon="4.52905">
        <ele>269.562826</ele>
        <time>2024-12-17T10:29:01.000Z</time>
      </trkpt>
      <trkpt lat="50.27784" lon="4.52905">
        <ele>269.565105</ele>
        <time>2024-12-17T10:29:02.000Z</time>
      </trkpt>
      <trkpt lat="50.27786" lon="4.52907">
        <ele>269.566988</ele>
        <time>2024-12-17T10:29:03.000Z</time>
      </trkpt>
      <trkpt lat="50.27789" lon="4.52909">
        <ele>269.569981</ele>
        <time>2024-12-17T10:29:04.000Z</time>
      </trkpt>
      <trkpt lat="50.27792" lon="4.5291">
        <ele>269.572779</ele>
        <time>2024-12-17T10:29:05.000Z</time>
      </trkpt>
      <trkpt lat="50.27794" lon="4.52912">
        <ele>269.574785</ele>
        <time>2024-12-17T10:29:06.000Z</time>
      </trkpt>
      <trkpt lat="50.27796" lon="4.52913">
        <ele>269.576921</ele>
        <time>2024-12-17T10:29:07.000Z</time>
      </trkpt>
      <trkpt lat="50.27799" lon="4.52913">
        <ele>269.578965</ele>
        <time>2024-12-17T10:29:08.000Z</time>
      </trkpt>
      <trkpt lat="50.27801" lon="4.52913">
        <ele>269.581388</ele>
        <time>2024-12-17T10:29:09.000Z</time>
      </trkpt>
      <trkpt lat="50.27804" lon="4.52915">
        <ele>269.583601</ele>
        <time>2024-12-17T10:29:10.000Z</time>
      </trkpt>
      <trkpt lat="50.27806" lon="4.52917">
        <ele>269.585806</ele>
        <time>2024-12-17T10:29:11.000Z</time>
      </trkpt>
      <trkpt lat="50.27807" lon="4.5292">
        <ele>269.58794</ele>
        <time>2024-12-17T10:29:12.000Z</time>
      </trkpt>
      <trkpt lat="50.2781" lon="4.52921">
        <ele>269.590095</ele>
        <time>2024-12-17T10:29:13.000Z</time>
      </trkpt>
      <trkpt lat="50.27812" lon="4.52922">
        <ele>269.592081</ele>
        <time>2024-12-17T10:29:14.000Z</time>
      </trkpt>
      <trkpt lat="50.27814" lon="4.52925">
        <ele>269.594075</ele>
        <time>2024-12-17T10:29:15.000Z</time>
      </trkpt>
      <trkpt lat="50.27816" lon="4.52928">
        <ele>269.596944</ele>
        <time>2024-12-17T10:29:16.000Z</time>
      </trkpt>
      <trkpt lat="50.27818" lon="4.52931">
        <ele>269.599364</ele>
        <time>2024-12-17T10:29:17.000Z</time>
      </trkpt>
      <trkpt lat="50.2782" lon="4.52934">
        <ele>269.601516</ele>
        <time>2024-12-17T10:29:18.000Z</time>
      </trkpt>
      <trkpt lat="50.27821" lon="4.52936">
        <ele>269.60355</ele>
        <time>2024-12-17T10:29:19.000Z</time>
      </trkpt>
      <trkpt lat="50.27824" lon="4.52937">
        <ele>269.606385</ele>
        <time>2024-12-17T10:29:20.000Z</time>
      </trkpt>
      <trkpt lat="50.27827" lon="4.52939">
        <ele>269.608577</ele>
        <time>2024-12-17T10:29:21.000Z</time>
      </trkpt>
      <trkpt lat="50.27829" lon="4.5294">
        <ele>269.604684</ele>
        <time>2024-12-17T10:29:22.000Z</time>
      </trkpt>
      <trkpt lat="50.27831" lon="4.52941">
        <ele>269.586293</ele>
        <time>2024-12-17T10:29:23.000Z</time>
      </trkpt>
      <trkpt lat="50.27833" lon="4.52941">
        <ele>269.569801</ele>
        <time>2024-12-17T10:29:24.000Z</time>
      </trkpt>
      <trkpt lat="50.27835" lon="4.52941">
        <ele>269.552022</ele>
        <time>2024-12-17T10:29:25.000Z</time>
      </trkpt>
      <trkpt lat="50.27836" lon="4.5294">
        <ele>269.536453</ele>
        <time>2024-12-17T10:29:26.000Z</time>
      </trkpt>
      <trkpt lat="50.27839" lon="4.52939">
        <ele>269.518025</ele>
        <time>2024-12-17T10:29:27.000Z</time>
      </trkpt>
      <trkpt lat="50.27841" lon="4.52939">
        <ele>269.494497</ele>
        <time>2024-12-17T10:29:28.000Z</time>
      </trkpt>
      <trkpt lat="50.27844" lon="4.52939">
        <ele>269.471772</ele>
        <time>2024-12-17T10:29:29.000Z</time>
      </trkpt>
      <trkpt lat="50.27847" lon="4.5294">
        <ele>269.446728</ele>
        <time>2024-12-17T10:29:30.000Z</time>
      </trkpt>
      <trkpt lat="50.27849" lon="4.52941">
        <ele>269.424786</ele>
        <time>2024-12-17T10:29:31.000Z</time>
      </trkpt>
      <trkpt lat="50.27851" lon="4.52941">
        <ele>269.404642</ele>
        <time>2024-12-17T10:29:32.000Z</time>
      </trkpt>
      <trkpt lat="50.27854" lon="4.52942">
        <ele>269.378563</ele>
        <time>2024-12-17T10:29:33.000Z</time>
      </trkpt>
      <trkpt lat="50.27857" lon="4.52942">
        <ele>269.35514</ele>
        <time>2024-12-17T10:29:34.000Z</time>
      </trkpt>
      <trkpt lat="50.27859" lon="4.52942">
        <ele>269.336047</ele>
        <time>2024-12-17T10:29:35.000Z</time>
      </trkpt>
      <trkpt lat="50.27862" lon="4.52942">
        <ele>269.313484</ele>
        <time>2024-12-17T10:29:36.000Z</time>
      </trkpt>
      <trkpt lat="50.27865" lon="4.52942">
        <ele>269.290035</ele>
        <time>2024-12-17T10:29:37.000Z</time>
      </trkpt>
      <trkpt lat="50.27867" lon="4.52942">
        <ele>269.265738</ele>
        <time>2024-12-17T10:29:38.000Z</time>
      </trkpt>
      <trkpt lat="50.27869" lon="4.52943">
        <ele>269.247959</ele>
        <time>2024-12-17T10:29:39.000Z</time>
      </trkpt>
      <trkpt lat="50.27871" lon="4.52944">
        <ele>269.230986</ele>
        <time>2024-12-17T10:29:40.000Z</time>
      </trkpt>
      <trkpt lat="50.27874" lon="4.52945">
        <ele>269.210418</ele>
        <time>2024-12-17T10:29:41.000Z</time>
      </trkpt>
      <trkpt lat="50.27876" lon="4.52946">
        <ele>269.188723</ele>
        <time>2024-12-17T10:29:42.000Z</time>
      </trkpt>
      <trkpt lat="50.27879" lon="4.52947">
        <ele>269.163177</ele>
        <time>2024-12-17T10:29:43.000Z</time>
      </trkpt>
      <trkpt lat="50.27882" lon="4.52948">
        <ele>269.136568</ele>
        <time>2024-12-17T10:29:44.000Z</time>
      </trkpt>
      <trkpt lat="50.27884" lon="4.52948">
        <ele>269.114535</ele>
        <time>2024-12-17T10:29:45.000Z</time>
      </trkpt>
      <trkpt lat="50.27886" lon="4.52949">
        <ele>269.096284</ele>
        <time>2024-12-17T10:29:46.000Z</time>
      </trkpt>
      <trkpt lat="50.27889" lon="4.52949">
        <ele>269.074342</ele>
        <time>2024-12-17T10:29:47.000Z</time>
      </trkpt>
      <trkpt lat="50.27892" lon="4.52952">
        <ele>269.043793</ele>
        <time>2024-12-17T10:29:48.000Z</time>
      </trkpt>
      <trkpt lat="50.27895" lon="4.52953">
        <ele>269.021108</ele>
        <time>2024-12-17T10:29:49.000Z</time>
      </trkpt>
      <trkpt lat="50.27897" lon="4.52954">
        <ele>268.997038</ele>
        <time>2024-12-17T10:29:50.000Z</time>
      </trkpt>
      <trkpt lat="50.279" lon="4.52954">
        <ele>268.975237</ele>
        <time>2024-12-17T10:29:51.000Z</time>
      </trkpt>
      <trkpt lat="50.27903" lon="4.52954">
        <ele>268.950921</ele>
        <time>2024-12-17T10:29:52.000Z</time>
      </trkpt>
      <trkpt lat="50.27906" lon="4.52954">
        <ele>268.920477</ele>
        <time>2024-12-17T10:29:53.000Z</time>
      </trkpt>
      <trkpt lat="50.2791" lon="4.52955">
        <ele>268.888296</ele>
        <time>2024-12-17T10:29:54.000Z</time>
      </trkpt>
      <trkpt lat="50.27913" lon="4.52957">
        <ele>268.857747</ele>
        <time>2024-12-17T10:29:55.000Z</time>
      </trkpt>
      <trkpt lat="50.27916" lon="4.5296">
        <ele>268.828186</ele>
        <time>2024-12-17T10:29:56.000Z</time>
      </trkpt>
      <trkpt lat="50.27918" lon="4.52962">
        <ele>268.809654</ele>
        <time>2024-12-17T10:29:57.000Z</time>
      </trkpt>
      <trkpt lat="50.2792" lon="4.52963">
        <ele>268.784154</ele>
        <time>2024-12-17T10:29:58.000Z</time>
      </trkpt>
      <trkpt lat="50.27924" lon="4.52964">
        <ele>268.756898</ele>
        <time>2024-12-17T10:29:59.000Z</time>
      </trkpt>
      <trkpt lat="50.27928" lon="4.52966">
        <ele>268.715763</ele>
        <time>2024-12-17T10:30:00.000Z</time>
      </trkpt>
      <trkpt lat="50.27932" lon="4.52967">
        <ele>268.678621</ele>
        <time>2024-12-17T10:30:01.000Z</time>
      </trkpt>
      <trkpt lat="50.27936" lon="4.52969">
        <ele>268.642192</ele>
        <time>2024-12-17T10:30:02.000Z</time>
      </trkpt>
      <trkpt lat="50.2794" lon="4.52972">
        <ele>268.604217</ele>
        <time>2024-12-17T10:30:03.000Z</time>
      </trkpt>
      <trkpt lat="50.27944" lon="4.52973">
        <ele>268.573133</ele>
        <time>2024-12-17T10:30:04.000Z</time>
      </trkpt>
      <trkpt lat="50.27948" lon="4.52973">
        <ele>268.534862</ele>
        <time>2024-12-17T10:30:05.000Z</time>
      </trkpt>
      <trkpt lat="50.27953" lon="4.52975">
        <ele>268.496869</ele>
        <time>2024-12-17T10:30:06.000Z</time>
      </trkpt>
      <trkpt lat="50.27956" lon="4.52975">
        <ele>268.463903</ele>
        <time>2024-12-17T10:30:07.000Z</time>
      </trkpt>
      <trkpt lat="50.27959" lon="4.52975">
        <ele>268.438648</ele>
        <time>2024-12-17T10:30:08.000Z</time>
      </trkpt>
      <trkpt lat="50.27962" lon="4.52976">
        <ele>268.415962</ele>
        <time>2024-12-17T10:30:09.000Z</time>
      </trkpt>
      <trkpt lat="50.27964" lon="4.52977">
        <ele>268.394021</ele>
        <time>2024-12-17T10:30:10.000Z</time>
      </trkpt>
      <trkpt lat="50.27967" lon="4.52978">
        <ele>268.371033</ele>
        <time>2024-12-17T10:30:11.000Z</time>
      </trkpt>
      <trkpt lat="50.2797" lon="4.52978">
        <ele>268.341351</ele>
        <time>2024-12-17T10:30:12.000Z</time>
      </trkpt>
      <trkpt lat="50.27973" lon="4.5298">
        <ele>268.31509</ele>
        <time>2024-12-17T10:30:13.000Z</time>
      </trkpt>
      <trkpt lat="50.27977" lon="4.52983">
        <ele>268.28148</ele>
        <time>2024-12-17T10:30:14.000Z</time>
      </trkpt>
      <trkpt lat="50.2798" lon="4.52985">
        <ele>268.247312</ele>
        <time>2024-12-17T10:30:15.000Z</time>
      </trkpt>
      <trkpt lat="50.27984" lon="4.52988">
        <ele>268.213701</ele>
        <time>2024-12-17T10:30:16.000Z</time>
      </trkpt>
      <trkpt lat="50.27987" lon="4.5299">
        <ele>268.182917</ele>
        <time>2024-12-17T10:30:17.000Z</time>
      </trkpt>
      <trkpt lat="50.27989" lon="4.52991">
        <ele>268.162314</ele>
        <time>2024-12-17T10:30:18.000Z</time>
      </trkpt>
      <trkpt lat="50.27992" lon="4.52992">
        <ele>268.136666</ele>
        <time>2024-12-17T10:30:19.000Z</time>
      </trkpt>
      <trkpt lat="50.27995" lon="4.52996">
        <ele>268.106587</ele>
        <time>2024-12-17T10:30:20.000Z</time>
      </trkpt>
      <trkpt lat="50.27998" lon="4.52999">
        <ele>268.076429</ele>
        <time>2024-12-17T10:30:21.000Z</time>
      </trkpt>
      <trkpt lat="50.28001" lon="4.53">
        <ele>268.050677</ele>
        <time>2024-12-17T10:30:22.000Z</time>
      </trkpt>
      <trkpt lat="50.28002" lon="4.53">
        <ele>268.054455</ele>
        <time>2024-12-17T10:30:23.000Z</time>
      </trkpt>
      <trkpt lat="50.28003" lon="4.53001">
        <ele>268.059712</ele>
        <time>2024-12-17T10:30:24.000Z</time>
      </trkpt>
      <trkpt lat="50.28006" lon="4.53002">
        <ele>268.071524</ele>
        <time>2024-12-17T10:30:25.000Z</time>
      </trkpt>
      <trkpt lat="50.28011" lon="4.53005">
        <ele>268.087814</ele>
        <time>2024-12-17T10:30:26.000Z</time>
      </trkpt>
      <trkpt lat="50.28015" lon="4.53006">
        <ele>268.104463</ele>
        <time>2024-12-17T10:30:27.000Z</time>
      </trkpt>
      <trkpt lat="50.28019" lon="4.53008">
        <ele>268.117532</ele>
        <time>2024-12-17T10:30:28.000Z</time>
      </trkpt>
      <trkpt lat="50.28022" lon="4.53009">
        <ele>268.129213</ele>
        <time>2024-12-17T10:30:29.000Z</time>
      </trkpt>
      <trkpt lat="50.28025" lon="4.53011">
        <ele>268.143278</ele>
        <time>2024-12-17T10:30:30.000Z</time>
      </trkpt>
      <trkpt lat="50.28029" lon="4.53013">
        <ele>268.15727</ele>
        <time>2024-12-17T10:30:31.000Z</time>
      </trkpt>
      <trkpt lat="50.28032" lon="4.53015">
        <ele>268.169885</ele>
        <time>2024-12-17T10:30:32.000Z</time>
      </trkpt>
      <trkpt lat="50.28035" lon="4.53017">
        <ele>268.182678</ele>
        <time>2024-12-17T10:30:33.000Z</time>
      </trkpt>
      <trkpt lat="50.28038" lon="4.53019">
        <ele>268.194045</ele>
        <time>2024-12-17T10:30:34.000Z</time>
      </trkpt>
      <trkpt lat="50.28041" lon="4.5302">
        <ele>268.205441</ele>
        <time>2024-12-17T10:30:35.000Z</time>
      </trkpt>
      <trkpt lat="50.28044" lon="4.53021">
        <ele>268.21601</ele>
        <time>2024-12-17T10:30:36.000Z</time>
      </trkpt>
      <trkpt lat="50.28047" lon="4.53022">
        <ele>268.22571</ele>
        <time>2024-12-17T10:30:37.000Z</time>
      </trkpt>
      <trkpt lat="50.28049" lon="4.53023">
        <ele>268.235729</ele>
        <time>2024-12-17T10:30:38.000Z</time>
      </trkpt>
      <trkpt lat="50.28051" lon="4.53024">
        <ele>268.2437</ele>
        <time>2024-12-17T10:30:39.000Z</time>
      </trkpt>
      <trkpt lat="50.28054" lon="4.53025">
        <ele>268.252683</ele>
        <time>2024-12-17T10:30:40.000Z</time>
      </trkpt>
      <trkpt lat="50.28056" lon="4.53027">
        <ele>268.263337</ele>
        <time>2024-12-17T10:30:41.000Z</time>
      </trkpt>
      <trkpt lat="50.28058" lon="4.53028">
        <ele>268.271373</ele>
        <time>2024-12-17T10:30:42.000Z</time>
      </trkpt>
      <trkpt lat="50.2806" lon="4.5303">
        <ele>268.280253</ele>
        <time>2024-12-17T10:30:43.000Z</time>
      </trkpt>
      <trkpt lat="50.28062" lon="4.53032">
        <ele>268.289341</ele>
        <time>2024-12-17T10:30:44.000Z</time>
      </trkpt>
      <trkpt lat="50.28064" lon="4.53035">
        <ele>268.298581</ele>
        <time>2024-12-17T10:30:45.000Z</time>
      </trkpt>
      <trkpt lat="50.28066" lon="4.53037">
        <ele>268.306107</ele>
        <time>2024-12-17T10:30:46.000Z</time>
      </trkpt>
      <trkpt lat="50.28067" lon="4.53038">
        <ele>268.312934</ele>
        <time>2024-12-17T10:30:47.000Z</time>
      </trkpt>
      <trkpt lat="50.2807" lon="4.53039">
        <ele>268.321153</ele>
        <time>2024-12-17T10:30:48.000Z</time>
      </trkpt>
      <trkpt lat="50.28072" lon="4.5304">
        <ele>268.331781</ele>
        <time>2024-12-17T10:30:49.000Z</time>
      </trkpt>
      <trkpt lat="50.28074" lon="4.53042">
        <ele>268.340598</ele>
        <time>2024-12-17T10:30:50.000Z</time>
      </trkpt>
      <trkpt lat="50.28076" lon="4.53045">
        <ele>268.350422</ele>
        <time>2024-12-17T10:30:51.000Z</time>
      </trkpt>
      <trkpt lat="50.28079" lon="4.53048">
        <ele>268.360225</ele>
        <time>2024-12-17T10:30:52.000Z</time>
      </trkpt>
      <trkpt lat="50.2808" lon="4.5305">
        <ele>268.367489</ele>
        <time>2024-12-17T10:30:53.000Z</time>
      </trkpt>
      <trkpt lat="50.28082" lon="4.53052">
        <ele>268.374874</ele>
        <time>2024-12-17T10:30:54.000Z</time>
      </trkpt>
      <trkpt lat="50.28083" lon="4.53053">
        <ele>268.381474</ele>
        <time>2024-12-17T10:30:55.000Z</time>
      </trkpt>
      <trkpt lat="50.28084" lon="4.53055">
        <ele>268.386227</ele>
        <time>2024-12-17T10:30:56.000Z</time>
      </trkpt>
      <trkpt lat="50.28085" lon="4.53056">
        <ele>268.391391</ele>
        <time>2024-12-17T10:30:57.000Z</time>
      </trkpt>
      <trkpt lat="50.28085" lon="4.53058">
        <ele>268.396518</ele>
        <time>2024-12-17T10:30:58.000Z</time>
      </trkpt>
      <trkpt lat="50.28086" lon="4.53061">
        <ele>268.40232</ele>
        <time>2024-12-17T10:30:59.000Z</time>
      </trkpt>
      <trkpt lat="50.28087" lon="4.53063">
        <ele>268.409033</ele>
        <time>2024-12-17T10:31:00.000Z</time>
      </trkpt>
      <trkpt lat="50.28088" lon="4.53066">
        <ele>268.417512</ele>
        <time>2024-12-17T10:31:01.000Z</time>
      </trkpt>
      <trkpt lat="50.28089" lon="4.53069">
        <ele>268.424813</ele>
        <time>2024-12-17T10:31:02.000Z</time>
      </trkpt>
      <trkpt lat="50.2809" lon="4.53071">
        <ele>268.43106</ele>
        <time>2024-12-17T10:31:03.000Z</time>
      </trkpt>
      <trkpt lat="50.2809" lon="4.53074">
        <ele>268.437393</ele>
        <time>2024-12-17T10:31:04.000Z</time>
      </trkpt>
      <trkpt lat="50.28091" lon="4.53076">
        <ele>268.443903</ele>
        <time>2024-12-17T10:31:05.000Z</time>
      </trkpt>
      <trkpt lat="50.28092" lon="4.53079">
        <ele>268.451596</ele>
        <time>2024-12-17T10:31:06.000Z</time>
      </trkpt>
      <trkpt lat="50.28094" lon="4.53082">
        <ele>268.458891</ele>
        <time>2024-12-17T10:31:07.000Z</time>
      </trkpt>
      <trkpt lat="50.28095" lon="4.53084">
        <ele>268.465992</ele>
        <time>2024-12-17T10:31:08.000Z</time>
      </trkpt>
      <trkpt lat="50.28096" lon="4.53086">
        <ele>268.472772</ele>
        <time>2024-12-17T10:31:09.000Z</time>
      </trkpt>
      <trkpt lat="50.28098" lon="4.53087">
        <ele>268.481576</ele>
        <time>2024-12-17T10:31:10.000Z</time>
      </trkpt>
      <trkpt lat="50.28101" lon="4.53088">
        <ele>268.491642</ele>
        <time>2024-12-17T10:31:11.000Z</time>
      </trkpt>
      <trkpt lat="50.28103" lon="4.5309">
        <ele>268.500523</ele>
        <time>2024-12-17T10:31:12.000Z</time>
      </trkpt>
      <trkpt lat="50.28105" lon="4.53093">
        <ele>268.510932</ele>
        <time>2024-12-17T10:31:13.000Z</time>
      </trkpt>
      <trkpt lat="50.28107" lon="4.53096">
        <ele>268.521403</ele>
        <time>2024-12-17T10:31:14.000Z</time>
      </trkpt>
      <trkpt lat="50.28109" lon="4.53099">
        <ele>268.531228</ele>
        <time>2024-12-17T10:31:15.000Z</time>
      </trkpt>
      <trkpt lat="50.28112" lon="4.53101">
        <ele>268.540642</ele>
        <time>2024-12-17T10:31:16.000Z</time>
      </trkpt>
      <trkpt lat="50.28114" lon="4.53103">
        <ele>268.550163</ele>
        <time>2024-12-17T10:31:17.000Z</time>
      </trkpt>
      <trkpt lat="50.28115" lon="4.53105">
        <ele>268.558117</ele>
        <time>2024-12-17T10:31:18.000Z</time>
      </trkpt>
      <trkpt lat="50.28117" lon="4.53108">
        <ele>268.567204</ele>
        <time>2024-12-17T10:31:19.000Z</time>
      </trkpt>
      <trkpt lat="50.28119" lon="4.5311">
        <ele>268.573878</ele>
        <time>2024-12-17T10:31:20.000Z</time>
      </trkpt>
      <trkpt lat="50.2812" lon="4.53112">
        <ele>268.580943</ele>
        <time>2024-12-17T10:31:21.000Z</time>
      </trkpt>
      <trkpt lat="50.28123" lon="4.53113">
        <ele>268.590493</ele>
        <time>2024-12-17T10:31:22.000Z</time>
      </trkpt>
      <trkpt lat="50.28125" lon="4.53115">
        <ele>268.601254</ele>
        <time>2024-12-17T10:31:23.000Z</time>
      </trkpt>
      <trkpt lat="50.28126" lon="4.53115">
        <ele>268.60345</ele>
        <time>2024-12-17T10:31:24.000Z</time>
      </trkpt>
      <trkpt lat="50.28127" lon="4.53115">
        <ele>268.605756</ele>
        <time>2024-12-17T10:31:26.000Z</time>
      </trkpt>
      <trkpt lat="50.2814" lon="4.53132">
        <ele>268.668182</ele>
        <time>2024-12-17T10:31:39.000Z</time>
      </trkpt>
      <trkpt lat="50.28142" lon="4.53133">
        <ele>268.676218</ele>
        <time>2024-12-17T10:31:40.000Z</time>
      </trkpt>
      <trkpt lat="50.28144" lon="4.53134">
        <ele>268.683576</ele>
        <time>2024-12-17T10:31:41.000Z</time>
      </trkpt>
      <trkpt lat="50.28145" lon="4.53135">
        <ele>268.687688</ele>
        <time>2024-12-17T10:31:42.000Z</time>
      </trkpt>
      <trkpt lat="50.28146" lon="4.53135">
        <ele>268.692179</ele>
        <time>2024-12-17T10:31:43.000Z</time>
      </trkpt>
      <trkpt lat="50.28147" lon="4.53136">
        <ele>268.698148</ele>
        <time>2024-12-17T10:31:44.000Z</time>
      </trkpt>
      <trkpt lat="50.28149" lon="4.53138">
        <ele>268.705796</ele>
        <time>2024-12-17T10:31:45.000Z</time>
      </trkpt>
      <trkpt lat="50.28151" lon="4.5314">
        <ele>268.723287</ele>
        <time>2024-12-17T10:31:46.000Z</time>
      </trkpt>
      <trkpt lat="50.28152" lon="4.53141">
        <ele>268.735975</ele>
        <time>2024-12-17T10:31:47.000Z</time>
      </trkpt>
      <trkpt lat="50.28152" lon="4.53142">
        <ele>268.747698</ele>
        <time>2024-12-17T10:31:48.000Z</time>
      </trkpt>
      <trkpt lat="50.28154" lon="4.53144">
        <ele>268.76619</ele>
        <time>2024-12-17T10:31:49.000Z</time>
      </trkpt>
      <trkpt lat="50.28155" lon="4.53145">
        <ele>268.785222</ele>
        <time>2024-12-17T10:31:50.000Z</time>
      </trkpt>
      <trkpt lat="50.28155" lon="4.53147">
        <ele>268.797421</ele>
        <time>2024-12-17T10:31:51.000Z</time>
      </trkpt>
      <trkpt lat="50.28155" lon="4.53149">
        <ele>268.812452</ele>
        <time>2024-12-17T10:31:52.000Z</time>
      </trkpt>
      <trkpt lat="50.28156" lon="4.53151">
        <ele>268.8264</ele>
        <time>2024-12-17T10:31:53.000Z</time>
      </trkpt>
      <trkpt lat="50.28156" lon="4.53153">
        <ele>268.840348</ele>
        <time>2024-12-17T10:31:54.000Z</time>
      </trkpt>
      <trkpt lat="50.28157" lon="4.53155">
        <ele>268.858357</ele>
        <time>2024-12-17T10:31:55.000Z</time>
      </trkpt>
      <trkpt lat="50.28158" lon="4.53156">
        <ele>268.880351</ele>
        <time>2024-12-17T10:31:56.000Z</time>
      </trkpt>
      <trkpt lat="50.2816" lon="4.53158">
        <ele>268.907765</ele>
        <time>2024-12-17T10:31:57.000Z</time>
      </trkpt>
      <trkpt lat="50.28162" lon="4.5316">
        <ele>268.930327</ele>
        <time>2024-12-17T10:31:58.000Z</time>
      </trkpt>
      <trkpt lat="50.28163" lon="4.53161">
        <ele>268.943864</ele>
        <time>2024-12-17T10:31:59.000Z</time>
      </trkpt>
      <trkpt lat="50.28165" lon="4.53162">
        <ele>268.965604</ele>
        <time>2024-12-17T10:32:00.000Z</time>
      </trkpt>
      <trkpt lat="50.28167" lon="4.53165">
        <ele>268.993179</ele>
        <time>2024-12-17T10:32:01.000Z</time>
      </trkpt>
      <trkpt lat="50.28168" lon="4.53167">
        <ele>269.014052</ele>
        <time>2024-12-17T10:32:02.000Z</time>
      </trkpt>
      <trkpt lat="50.28168" lon="4.53168">
        <ele>269.02826</ele>
        <time>2024-12-17T10:32:03.000Z</time>
      </trkpt>
      <trkpt lat="50.28169" lon="4.5317">
        <ele>269.044412</ele>
        <time>2024-12-17T10:32:04.000Z</time>
      </trkpt>
      <trkpt lat="50.2817" lon="4.53172">
        <ele>269.061134</ele>
        <time>2024-12-17T10:32:05.000Z</time>
      </trkpt>
      <trkpt lat="50.28172" lon="4.53175">
        <ele>269.089926</ele>
        <time>2024-12-17T10:32:06.000Z</time>
      </trkpt>
      <trkpt lat="50.28174" lon="4.53177">
        <ele>269.121989</ele>
        <time>2024-12-17T10:32:07.000Z</time>
      </trkpt>
      <trkpt lat="50.28176" lon="4.53179">
        <ele>269.151493</ele>
        <time>2024-12-17T10:32:08.000Z</time>
      </trkpt>
      <trkpt lat="50.28179" lon="4.53181">
        <ele>269.179639</ele>
        <time>2024-12-17T10:32:09.000Z</time>
      </trkpt>
      <trkpt lat="50.28181" lon="4.53183">
        <ele>269.20877</ele>
        <time>2024-12-17T10:32:10.000Z</time>
      </trkpt>
      <trkpt lat="50.28183" lon="4.53185">
        <ele>269.241256</ele>
        <time>2024-12-17T10:32:11.000Z</time>
      </trkpt>
      <trkpt lat="50.28185" lon="4.53187">
        <ele>269.26867</ele>
        <time>2024-12-17T10:32:12.000Z</time>
      </trkpt>
      <trkpt lat="50.28187" lon="4.53189">
        <ele>269.294099</ele>
        <time>2024-12-17T10:32:13.000Z</time>
      </trkpt>
      <trkpt lat="50.28189" lon="4.53191">
        <ele>269.319805</ele>
        <time>2024-12-17T10:32:14.000Z</time>
      </trkpt>
      <trkpt lat="50.28191" lon="4.53194">
        <ele>269.351872</ele>
        <time>2024-12-17T10:32:15.000Z</time>
      </trkpt>
      <trkpt lat="50.28193" lon="4.53197">
        <ele>269.382596</ele>
        <time>2024-12-17T10:32:16.000Z</time>
      </trkpt>
      <trkpt lat="50.28195" lon="4.53199">
        <ele>269.407686</ele>
        <time>2024-12-17T10:32:17.000Z</time>
      </trkpt>
      <trkpt lat="50.28197" lon="4.53201">
        <ele>269.438549</ele>
        <time>2024-12-17T10:32:18.000Z</time>
      </trkpt>
      <trkpt lat="50.282" lon="4.53204">
        <ele>269.479831</ele>
        <time>2024-12-17T10:32:19.000Z</time>
      </trkpt>
      <trkpt lat="50.28203" lon="4.53206">
        <ele>269.51333</ele>
        <time>2024-12-17T10:32:20.000Z</time>
      </trkpt>
      <trkpt lat="50.28205" lon="4.53208">
        <ele>269.547531</ele>
        <time>2024-12-17T10:32:21.000Z</time>
      </trkpt>
      <trkpt lat="50.28208" lon="4.5321">
        <ele>269.576301</ele>
        <time>2024-12-17T10:32:22.000Z</time>
      </trkpt>
      <trkpt lat="50.2821" lon="4.53212">
        <ele>269.606593</ele>
        <time>2024-12-17T10:32:23.000Z</time>
      </trkpt>
      <trkpt lat="50.28211" lon="4.53214">
        <ele>269.625899</ele>
        <time>2024-12-17T10:32:24.000Z</time>
      </trkpt>
      <trkpt lat="50.28213" lon="4.53217">
        <ele>269.655672</ele>
        <time>2024-12-17T10:32:25.000Z</time>
      </trkpt>
      <trkpt lat="50.28215" lon="4.53219">
        <ele>269.686535</ele>
        <time>2024-12-17T10:32:26.000Z</time>
      </trkpt>
      <trkpt lat="50.28217" lon="4.53221">
        <ele>269.711593</ele>
        <time>2024-12-17T10:32:27.000Z</time>
      </trkpt>
      <trkpt lat="50.28218" lon="4.53222">
        <ele>269.724798</ele>
        <time>2024-12-17T10:32:28.000Z</time>
      </trkpt>
      <trkpt lat="50.28219" lon="4.53223">
        <ele>269.74058</ele>
        <time>2024-12-17T10:32:29.000Z</time>
      </trkpt>
      <trkpt lat="50.28221" lon="4.53225">
        <ele>269.764931</ele>
        <time>2024-12-17T10:32:30.000Z</time>
      </trkpt>
      <trkpt lat="50.28222" lon="4.53227">
        <ele>269.787646</ele>
        <time>2024-12-17T10:32:31.000Z</time>
      </trkpt>
      <trkpt lat="50.28224" lon="4.5323">
        <ele>269.812521</ele>
        <time>2024-12-17T10:32:32.000Z</time>
      </trkpt>
      <trkpt lat="50.28225" lon="4.53233">
        <ele>269.835948</ele>
        <time>2024-12-17T10:32:33.000Z</time>
      </trkpt>
      <trkpt lat="50.28226" lon="4.53236">
        <ele>269.86254</ele>
        <time>2024-12-17T10:32:34.000Z</time>
      </trkpt>
      <trkpt lat="50.28228" lon="4.53238">
        <ele>269.890529</ele>
        <time>2024-12-17T10:32:35.000Z</time>
      </trkpt>
      <trkpt lat="50.2823" lon="4.5324">
        <ele>269.917317</ele>
        <time>2024-12-17T10:32:36.000Z</time>
      </trkpt>
      <trkpt lat="50.28232" lon="4.53241">
        <ele>269.946135</ele>
        <time>2024-12-17T10:32:37.000Z</time>
      </trkpt>
      <trkpt lat="50.28235" lon="4.53242">
        <ele>269.971267</ele>
        <time>2024-12-17T10:32:38.000Z</time>
      </trkpt>
      <trkpt lat="50.28237" lon="4.53244">
        <ele>269.998459</ele>
        <time>2024-12-17T10:32:39.000Z</time>
      </trkpt>
      <trkpt lat="50.28239" lon="4.53245">
        <ele>270.021807</ele>
        <time>2024-12-17T10:32:40.000Z</time>
      </trkpt>
      <trkpt lat="50.2824" lon="4.53247">
        <ele>270.042795</ele>
        <time>2024-12-17T10:32:41.000Z</time>
      </trkpt>
      <trkpt lat="50.28242" lon="4.53248">
        <ele>270.064535</ele>
        <time>2024-12-17T10:32:42.000Z</time>
      </trkpt>
      <trkpt lat="50.28243" lon="4.5325">
        <ele>270.088444</ele>
        <time>2024-12-17T10:32:43.000Z</time>
      </trkpt>
      <trkpt lat="50.28245" lon="4.53253">
        <ele>270.111462</ele>
        <time>2024-12-17T10:32:44.000Z</time>
      </trkpt>
      <trkpt lat="50.28246" lon="4.53256">
        <ele>270.136784</ele>
        <time>2024-12-17T10:32:45.000Z</time>
      </trkpt>
      <trkpt lat="50.28248" lon="4.53258">
        <ele>270.166168</ele>
        <time>2024-12-17T10:32:46.000Z</time>
      </trkpt>
      <trkpt lat="50.2825" lon="4.53261">
        <ele>270.198916</ele>
        <time>2024-12-17T10:32:47.000Z</time>
      </trkpt>
      <trkpt lat="50.28252" lon="4.53266">
        <ele>270.237359</ele>
        <time>2024-12-17T10:32:48.000Z</time>
      </trkpt>
      <trkpt lat="50.28254" lon="4.5327">
        <ele>270.271885</ele>
        <time>2024-12-17T10:32:49.000Z</time>
      </trkpt>
      <trkpt lat="50.28255" lon="4.53274">
        <ele>270.308259</ele>
        <time>2024-12-17T10:32:50.000Z</time>
      </trkpt>
      <trkpt lat="50.28257" lon="4.53277">
        <ele>270.341599</ele>
        <time>2024-12-17T10:32:51.000Z</time>
      </trkpt>
      <trkpt lat="50.28259" lon="4.5328">
        <ele>270.377229</ele>
        <time>2024-12-17T10:32:52.000Z</time>
      </trkpt>
      <trkpt lat="50.28261" lon="4.53282">
        <ele>270.40093</ele>
        <time>2024-12-17T10:32:53.000Z</time>
      </trkpt>
      <trkpt lat="50.28263" lon="4.53283">
        <ele>270.417549</ele>
        <time>2024-12-17T10:32:54.000Z</time>
      </trkpt>
      <trkpt lat="50.28265" lon="4.53283">
        <ele>270.440553</ele>
        <time>2024-12-17T10:32:55.000Z</time>
      </trkpt>
      <trkpt lat="50.28267" lon="4.53284">
        <ele>270.464188</ele>
        <time>2024-12-17T10:32:56.000Z</time>
      </trkpt>
      <trkpt lat="50.28268" lon="4.53285">
        <ele>270.485851</ele>
        <time>2024-12-17T10:32:57.000Z</time>
      </trkpt>
      <trkpt lat="50.2827" lon="4.53286">
        <ele>270.504817</ele>
        <time>2024-12-17T10:32:58.000Z</time>
      </trkpt>
      <trkpt lat="50.28272" lon="4.53287">
        <ele>270.527831</ele>
        <time>2024-12-17T10:32:59.000Z</time>
      </trkpt>
      <trkpt lat="50.28274" lon="4.53289">
        <ele>270.556954</ele>
        <time>2024-12-17T10:33:00.000Z</time>
      </trkpt>
      <trkpt lat="50.28276" lon="4.53291">
        <ele>270.588461</ele>
        <time>2024-12-17T10:33:01.000Z</time>
      </trkpt>
      <trkpt lat="50.28279" lon="4.53293">
        <ele>270.617904</ele>
        <time>2024-12-17T10:33:02.000Z</time>
      </trkpt>
      <trkpt lat="50.28281" lon="4.53294">
        <ele>270.640918</ele>
        <time>2024-12-17T10:33:03.000Z</time>
      </trkpt>
      <trkpt lat="50.28283" lon="4.53296">
        <ele>270.673139</ele>
        <time>2024-12-17T10:33:04.000Z</time>
      </trkpt>
      <trkpt lat="50.28285" lon="4.53299">
        <ele>270.697525</ele>
        <time>2024-12-17T10:33:05.000Z</time>
      </trkpt>
      <trkpt lat="50.28287" lon="4.53302">
        <ele>270.734044</ele>
        <time>2024-12-17T10:33:06.000Z</time>
      </trkpt>
      <trkpt lat="50.28288" lon="4.53304">
        <ele>270.75044</ele>
        <time>2024-12-17T10:33:07.000Z</time>
      </trkpt>
      <trkpt lat="50.28289" lon="4.53306">
        <ele>270.767459</ele>
        <time>2024-12-17T10:33:08.000Z</time>
      </trkpt>
      <trkpt lat="50.28292" lon="4.53307">
        <ele>270.767292</ele>
        <time>2024-12-17T10:33:09.000Z</time>
      </trkpt>
      <trkpt lat="50.28294" lon="4.53308">
        <ele>270.76713</ele>
        <time>2024-12-17T10:33:10.000Z</time>
      </trkpt>
      <trkpt lat="50.28298" lon="4.53308">
        <ele>270.766899</ele>
        <time>2024-12-17T10:33:11.000Z</time>
      </trkpt>
      <trkpt lat="50.283" lon="4.5331">
        <ele>270.766711</ele>
        <time>2024-12-17T10:33:12.000Z</time>
      </trkpt>
      <trkpt lat="50.28303" lon="4.53312">
        <ele>270.76652</ele>
        <time>2024-12-17T10:33:13.000Z</time>
      </trkpt>
      <trkpt lat="50.28305" lon="4.53315">
        <ele>270.766337</ele>
        <time>2024-12-17T10:33:14.000Z</time>
      </trkpt>
      <trkpt lat="50.28307" lon="4.53318">
        <ele>270.76617</ele>
        <time>2024-12-17T10:33:15.000Z</time>
      </trkpt>
      <trkpt lat="50.28309" lon="4.5332">
        <ele>270.765999</ele>
        <time>2024-12-17T10:33:16.000Z</time>
      </trkpt>
      <trkpt lat="50.28311" lon="4.53321">
        <ele>270.765844</ele>
        <time>2024-12-17T10:33:17.000Z</time>
      </trkpt>
      <trkpt lat="50.28314" lon="4.5332">
        <ele>270.765683</ele>
        <time>2024-12-17T10:33:18.000Z</time>
      </trkpt>
      <trkpt lat="50.28316" lon="4.53321">
        <ele>270.765504</ele>
        <time>2024-12-17T10:33:19.000Z</time>
      </trkpt>
      <trkpt lat="50.28318" lon="4.53322">
        <ele>270.765396</ele>
        <time>2024-12-17T10:33:20.000Z</time>
      </trkpt>
      <trkpt lat="50.28319" lon="4.53324">
        <ele>270.76529</ele>
        <time>2024-12-17T10:33:21.000Z</time>
      </trkpt>
      <trkpt lat="50.2832" lon="4.53327">
        <ele>270.765159</ele>
        <time>2024-12-17T10:33:22.000Z</time>
      </trkpt>
      <trkpt lat="50.28321" lon="4.53327">
        <ele>270.765102</ele>
        <time>2024-12-17T10:33:23.000Z</time>
      </trkpt>
      <trkpt lat="50.28322" lon="4.53329">
        <ele>270.764982</ele>
        <time>2024-12-17T10:33:24.000Z</time>
      </trkpt>
      <trkpt lat="50.28323" lon="4.5333">
        <ele>270.7649</ele>
        <time>2024-12-17T10:33:25.000Z</time>
      </trkpt>
      <trkpt lat="50.28324" lon="4.53332">
        <ele>270.764792</ele>
        <time>2024-12-17T10:33:26.000Z</time>
      </trkpt>
      <trkpt lat="50.28325" lon="4.53334">
        <ele>270.764684</ele>
        <time>2024-12-17T10:33:27.000Z</time>
      </trkpt>
      <trkpt lat="50.28327" lon="4.53336">
        <ele>270.764554</ele>
        <time>2024-12-17T10:33:28.000Z</time>
      </trkpt>
      <trkpt lat="50.28328" lon="4.53338">
        <ele>270.764427</ele>
        <time>2024-12-17T10:33:29.000Z</time>
      </trkpt>
      <trkpt lat="50.2833" lon="4.5334">
        <ele>270.764292</ele>
        <time>2024-12-17T10:33:30.000Z</time>
      </trkpt>
      <trkpt lat="50.28332" lon="4.53342">
        <ele>270.76415</ele>
        <time>2024-12-17T10:33:31.000Z</time>
      </trkpt>
      <trkpt lat="50.28333" lon="4.53344">
        <ele>270.764007</ele>
        <time>2024-12-17T10:33:32.000Z</time>
      </trkpt>
      <trkpt lat="50.28334" lon="4.53345">
        <ele>270.763899</ele>
        <time>2024-12-17T10:33:33.000Z</time>
      </trkpt>
      <trkpt lat="50.28336" lon="4.53347">
        <ele>270.763793</ele>
        <time>2024-12-17T10:33:34.000Z</time>
      </trkpt>
      <trkpt lat="50.28336" lon="4.53349">
        <ele>270.763686</ele>
        <time>2024-12-17T10:33:35.000Z</time>
      </trkpt>
      <trkpt lat="50.28336" lon="4.53351">
        <ele>270.76364</ele>
        <time>2024-12-17T10:33:36.000Z</time>
      </trkpt>
      <trkpt lat="50.28337" lon="4.53351">
        <ele>270.763611</ele>
        <time>2024-12-17T10:33:37.000Z</time>
      </trkpt>
      <trkpt lat="50.28338" lon="4.53354">
        <ele>270.763479</ele>
        <time>2024-12-17T10:33:38.000Z</time>
      </trkpt>
      <trkpt lat="50.28339" lon="4.53357">
        <ele>270.763327</ele>
        <time>2024-12-17T10:33:39.000Z</time>
      </trkpt>
      <trkpt lat="50.2834" lon="4.53359">
        <ele>270.76321</ele>
        <time>2024-12-17T10:33:40.000Z</time>
      </trkpt>
      <trkpt lat="50.28342" lon="4.5336">
        <ele>270.763101</ele>
        <time>2024-12-17T10:33:41.000Z</time>
      </trkpt>
      <trkpt lat="50.28343" lon="4.53361">
        <ele>270.762987</ele>
        <time>2024-12-17T10:33:42.000Z</time>
      </trkpt>
      <trkpt lat="50.28345" lon="4.53362">
        <ele>270.762843</ele>
        <time>2024-12-17T10:33:43.000Z</time>
      </trkpt>
      <trkpt lat="50.28347" lon="4.53364">
        <ele>270.762699</ele>
        <time>2024-12-17T10:33:44.000Z</time>
      </trkpt>
      <trkpt lat="50.28349" lon="4.53366">
        <ele>270.762547</ele>
        <time>2024-12-17T10:33:45.000Z</time>
      </trkpt>
      <trkpt lat="50.28351" lon="4.53367">
        <ele>270.762402</ele>
        <time>2024-12-17T10:33:46.000Z</time>
      </trkpt>
      <trkpt lat="50.28353" lon="4.53368">
        <ele>270.762259</ele>
        <time>2024-12-17T10:33:47.000Z</time>
      </trkpt>
      <trkpt lat="50.28355" lon="4.53369">
        <ele>270.762132</ele>
        <time>2024-12-17T10:33:48.000Z</time>
      </trkpt>
      <trkpt lat="50.28357" lon="4.5337">
        <ele>270.762015</ele>
        <time>2024-12-17T10:33:49.000Z</time>
      </trkpt>
      <trkpt lat="50.28357" lon="4.53371">
        <ele>270.761961</ele>
        <time>2024-12-17T10:33:50.000Z</time>
      </trkpt>
      <trkpt lat="50.28359" lon="4.53372">
        <ele>270.761867</ele>
        <time>2024-12-17T10:33:51.000Z</time>
      </trkpt>
      <trkpt lat="50.2836" lon="4.53373">
        <ele>270.761783</ele>
        <time>2024-12-17T10:33:52.000Z</time>
      </trkpt>
      <trkpt lat="50.28361" lon="4.53374">
        <ele>270.761679</ele>
        <time>2024-12-17T10:33:53.000Z</time>
      </trkpt>
      <trkpt lat="50.28364" lon="4.53376">
        <ele>270.761491</ele>
        <time>2024-12-17T10:33:54.000Z</time>
      </trkpt>
      <trkpt lat="50.28367" lon="4.53379">
        <ele>270.761256</ele>
        <time>2024-12-17T10:33:55.000Z</time>
      </trkpt>
      <trkpt lat="50.28369" lon="4.53381">
        <ele>270.761064</ele>
        <time>2024-12-17T10:33:56.000Z</time>
      </trkpt>
      <trkpt lat="50.28371" lon="4.53383">
        <ele>270.760908</ele>
        <time>2024-12-17T10:33:57.000Z</time>
      </trkpt>
      <trkpt lat="50.28374" lon="4.53385">
        <ele>270.760745</ele>
        <time>2024-12-17T10:33:58.000Z</time>
      </trkpt>
      <trkpt lat="50.28375" lon="4.53387">
        <ele>270.760624</ele>
        <time>2024-12-17T10:33:59.000Z</time>
      </trkpt>
      <trkpt lat="50.28376" lon="4.53389">
        <ele>270.760506</ele>
        <time>2024-12-17T10:34:00.000Z</time>
      </trkpt>
      <trkpt lat="50.28378" lon="4.53392">
        <ele>270.760348</ele>
        <time>2024-12-17T10:34:01.000Z</time>
      </trkpt>
      <trkpt lat="50.28379" lon="4.53395">
        <ele>270.760167</ele>
        <time>2024-12-17T10:34:02.000Z</time>
      </trkpt>
      <trkpt lat="50.28382" lon="4.53398">
        <ele>270.759986</ele>
        <time>2024-12-17T10:34:03.000Z</time>
      </trkpt>
      <trkpt lat="50.28384" lon="4.534">
        <ele>270.759809</ele>
        <time>2024-12-17T10:34:04.000Z</time>
      </trkpt>
      <trkpt lat="50.28386" lon="4.53403">
        <ele>270.759631</ele>
        <time>2024-12-17T10:34:05.000Z</time>
      </trkpt>
      <trkpt lat="50.28388" lon="4.53405">
        <ele>270.759462</ele>
        <time>2024-12-17T10:34:06.000Z</time>
      </trkpt>
      <trkpt lat="50.28388" lon="4.53406">
        <ele>270.759398</ele>
        <time>2024-12-17T10:34:07.000Z</time>
      </trkpt>
      <trkpt lat="50.28386" lon="4.53409">
        <ele>270.759242</ele>
        <time>2024-12-17T10:34:08.000Z</time>
      </trkpt>
      <trkpt lat="50.28385" lon="4.53411">
        <ele>270.75912</ele>
        <time>2024-12-17T10:34:09.000Z</time>
      </trkpt>
      <trkpt lat="50.28385" lon="4.53416">
        <ele>270.758933</ele>
        <time>2024-12-17T10:34:10.000Z</time>
      </trkpt>
      <trkpt lat="50.28387" lon="4.53419">
        <ele>270.758746</ele>
        <time>2024-12-17T10:34:11.000Z</time>
      </trkpt>
      <trkpt lat="50.28389" lon="4.5342">
        <ele>270.758634</ele>
        <time>2024-12-17T10:34:12.000Z</time>
      </trkpt>
      <trkpt lat="50.2839" lon="4.53422">
        <ele>270.758487</ele>
        <time>2024-12-17T10:34:13.000Z</time>
      </trkpt>
      <trkpt lat="50.28392" lon="4.53424">
        <ele>270.758351</ele>
        <time>2024-12-17T10:34:14.000Z</time>
      </trkpt>
      <trkpt lat="50.28392" lon="4.53427">
        <ele>270.758245</ele>
        <time>2024-12-17T10:34:15.000Z</time>
      </trkpt>
      <trkpt lat="50.28391" lon="4.53429">
        <ele>270.758141</ele>
        <time>2024-12-17T10:34:16.000Z</time>
      </trkpt>
      <trkpt lat="50.28391" lon="4.53431">
        <ele>270.75806</ele>
        <time>2024-12-17T10:34:17.000Z</time>
      </trkpt>
      <trkpt lat="50.28392" lon="4.53433">
        <ele>270.757961</ele>
        <time>2024-12-17T10:34:18.000Z</time>
      </trkpt>
      <trkpt lat="50.28392" lon="4.53433">
        <ele>270.757932</ele>
        <time>2024-12-17T10:34:19.000Z</time>
      </trkpt>
      <trkpt lat="50.28405" lon="4.5344">
        <ele>270.757031</ele>
        <time>2024-12-17T10:34:28.000Z</time>
      </trkpt>
      <trkpt lat="50.28407" lon="4.53441">
        <ele>270.75692</ele>
        <time>2024-12-17T10:34:29.000Z</time>
      </trkpt>
      <trkpt lat="50.28408" lon="4.53443">
        <ele>270.75679</ele>
        <time>2024-12-17T10:34:30.000Z</time>
      </trkpt>
      <trkpt lat="50.28408" lon="4.53445">
        <ele>270.756716</ele>
        <time>2024-12-17T10:34:31.000Z</time>
      </trkpt>
      <trkpt lat="50.2841" lon="4.53446">
        <ele>270.756633</ele>
        <time>2024-12-17T10:34:32.000Z</time>
      </trkpt>
      <trkpt lat="50.2841" lon="4.53447">
        <ele>270.75656</ele>
        <time>2024-12-17T10:34:33.000Z</time>
      </trkpt>
      <trkpt lat="50.28411" lon="4.53449">
        <ele>270.756462</ele>
        <time>2024-12-17T10:34:34.000Z</time>
      </trkpt>
      <trkpt lat="50.28412" lon="4.53451">
        <ele>270.756365</ele>
        <time>2024-12-17T10:34:35.000Z</time>
      </trkpt>
      <trkpt lat="50.28413" lon="4.53454">
        <ele>270.756234</ele>
        <time>2024-12-17T10:34:36.000Z</time>
      </trkpt>
      <trkpt lat="50.28414" lon="4.53455">
        <ele>270.756132</ele>
        <time>2024-12-17T10:34:37.000Z</time>
      </trkpt>
      <trkpt lat="50.28416" lon="4.53458">
        <ele>270.755953</ele>
        <time>2024-12-17T10:34:38.000Z</time>
      </trkpt>
      <trkpt lat="50.28417" lon="4.5346">
        <ele>270.755822</ele>
        <time>2024-12-17T10:34:39.000Z</time>
      </trkpt>
      <trkpt lat="50.28418" lon="4.53463">
        <ele>270.755694</ele>
        <time>2024-12-17T10:34:40.000Z</time>
      </trkpt>
      <trkpt lat="50.28419" lon="4.53464">
        <ele>270.746421</ele>
        <time>2024-12-17T10:34:41.000Z</time>
      </trkpt>
      <trkpt lat="50.28421" lon="4.53465">
        <ele>270.730678</ele>
        <time>2024-12-17T10:34:42.000Z</time>
      </trkpt>
      <trkpt lat="50.28422" lon="4.53466">
        <ele>270.715066</ele>
        <time>2024-12-17T10:34:43.000Z</time>
      </trkpt>
      <trkpt lat="50.28425" lon="4.53468">
        <ele>270.684955</ele>
        <time>2024-12-17T10:34:44.000Z</time>
      </trkpt>
      <trkpt lat="50.28428" lon="4.53469">
        <ele>270.648601</ele>
        <time>2024-12-17T10:34:45.000Z</time>
      </trkpt>
      <trkpt lat="50.28431" lon="4.5347">
        <ele>270.615292</ele>
        <time>2024-12-17T10:34:46.000Z</time>
      </trkpt>
      <trkpt lat="50.28433" lon="4.53471">
        <ele>270.592748</ele>
        <time>2024-12-17T10:34:47.000Z</time>
      </trkpt>
      <trkpt lat="50.28435" lon="4.53472">
        <ele>270.567156</ele>
        <time>2024-12-17T10:34:48.000Z</time>
      </trkpt>
      <trkpt lat="50.28437" lon="4.53475">
        <ele>270.547185</ele>
        <time>2024-12-17T10:34:49.000Z</time>
      </trkpt>
      <trkpt lat="50.28438" lon="4.53476">
        <ele>270.532396</ele>
        <time>2024-12-17T10:34:50.000Z</time>
      </trkpt>
      <trkpt lat="50.28438" lon="4.53478">
        <ele>270.521563</ele>
        <time>2024-12-17T10:34:51.000Z</time>
      </trkpt>
      <trkpt lat="50.28439" lon="4.5348">
        <ele>270.507596</ele>
        <time>2024-12-17T10:34:52.000Z</time>
      </trkpt>
      <trkpt lat="50.28439" lon="4.53481">
        <ele>270.495231</ele>
        <time>2024-12-17T10:34:53.000Z</time>
      </trkpt>
      <trkpt lat="50.28439" lon="4.53483">
        <ele>270.481536</ele>
        <time>2024-12-17T10:34:54.000Z</time>
      </trkpt>
      <trkpt lat="50.28439" lon="4.53484">
        <ele>270.47281</ele>
        <time>2024-12-17T10:34:55.000Z</time>
      </trkpt>
      <trkpt lat="50.28439" lon="4.53486">
        <ele>270.461977</ele>
        <time>2024-12-17T10:34:56.000Z</time>
      </trkpt>
      <trkpt lat="50.2844" lon="4.53487">
        <ele>270.448741</ele>
        <time>2024-12-17T10:34:57.000Z</time>
      </trkpt>
      <trkpt lat="50.28441" lon="4.53489">
        <ele>270.432978</ele>
        <time>2024-12-17T10:34:58.000Z</time>
      </trkpt>
      <trkpt lat="50.28442" lon="4.53492">
        <ele>270.412667</ele>
        <time>2024-12-17T10:34:59.000Z</time>
      </trkpt>
      <trkpt lat="50.28443" lon="4.53493">
        <ele>270.395579</ele>
        <time>2024-12-17T10:35:00.000Z</time>
      </trkpt>
      <trkpt lat="50.28444" lon="4.53495">
        <ele>270.378328</ele>
        <time>2024-12-17T10:35:01.000Z</time>
      </trkpt>
      <trkpt lat="50.28446" lon="4.53497">
        <ele>270.356548</ele>
        <time>2024-12-17T10:35:02.000Z</time>
      </trkpt>
      <trkpt lat="50.28447" lon="4.53499">
        <ele>270.336576</ele>
        <time>2024-12-17T10:35:03.000Z</time>
      </trkpt>
      <trkpt lat="50.28448" lon="4.53502">
        <ele>270.318385</ele>
        <time>2024-12-17T10:35:04.000Z</time>
      </trkpt>
      <trkpt lat="50.28449" lon="4.53505">
        <ele>270.297943</ele>
        <time>2024-12-17T10:35:05.000Z</time>
      </trkpt>
      <trkpt lat="50.28449" lon="4.53507">
        <ele>270.280489</ele>
        <time>2024-12-17T10:35:06.000Z</time>
      </trkpt>
      <trkpt lat="50.28449" lon="4.5351">
        <ele>270.264844</ele>
        <time>2024-12-17T10:35:07.000Z</time>
      </trkpt>
      <trkpt lat="50.28449" lon="4.53511">
        <ele>270.2508</ele>
        <time>2024-12-17T10:35:08.000Z</time>
      </trkpt>
      <trkpt lat="50.2845" lon="4.53514">
        <ele>270.232182</ele>
        <time>2024-12-17T10:35:09.000Z</time>
      </trkpt>
      <trkpt lat="50.28451" lon="4.53516">
        <ele>270.21414</ele>
        <time>2024-12-17T10:35:10.000Z</time>
      </trkpt>
      <trkpt lat="50.28452" lon="4.53518">
        <ele>270.195506</ele>
        <time>2024-12-17T10:35:11.000Z</time>
      </trkpt>
      <trkpt lat="50.28453" lon="4.53521">
        <ele>270.177409</ele>
        <time>2024-12-17T10:35:12.000Z</time>
      </trkpt>
      <trkpt lat="50.28453" lon="4.53524">
        <ele>270.155922</ele>
        <time>2024-12-17T10:35:13.000Z</time>
      </trkpt>
      <trkpt lat="50.28455" lon="4.53526">
        <ele>270.133767</ele>
        <time>2024-12-17T10:35:14.000Z</time>
      </trkpt>
      <trkpt lat="50.28456" lon="4.53529">
        <ele>270.115792</ele>
        <time>2024-12-17T10:35:15.000Z</time>
      </trkpt>
      <trkpt lat="50.28458" lon="4.53531">
        <ele>270.090242</ele>
        <time>2024-12-17T10:35:16.000Z</time>
      </trkpt>
      <trkpt lat="50.28459" lon="4.53534">
        <ele>270.069549</ele>
        <time>2024-12-17T10:35:17.000Z</time>
      </trkpt>
      <trkpt lat="50.28461" lon="4.53535">
        <ele>270.049193</ele>
        <time>2024-12-17T10:35:18.000Z</time>
      </trkpt>
      <trkpt lat="50.28463" lon="4.53536">
        <ele>270.027822</ele>
        <time>2024-12-17T10:35:19.000Z</time>
      </trkpt>
      <trkpt lat="50.28465" lon="4.53537">
        <ele>270.003602</ele>
        <time>2024-12-17T10:35:20.000Z</time>
      </trkpt>
      <trkpt lat="50.28466" lon="4.53537">
        <ele>269.995151</ele>
        <time>2024-12-17T10:35:21.000Z</time>
      </trkpt>
      <trkpt lat="50.28466" lon="4.53537">
        <ele>269.988753</ele>
        <time>2024-12-17T10:35:22.000Z</time>
      </trkpt>
      <trkpt lat="50.28467" lon="4.53538">
        <ele>269.976367</ele>
        <time>2024-12-17T10:35:23.000Z</time>
      </trkpt>
      <trkpt lat="50.28469" lon="4.53539">
        <ele>269.956011</ele>
        <time>2024-12-17T10:35:24.000Z</time>
      </trkpt>
      <trkpt lat="50.2847" lon="4.53541">
        <ele>269.939551</ele>
        <time>2024-12-17T10:35:25.000Z</time>
      </trkpt>
      <trkpt lat="50.28471" lon="4.53542">
        <ele>269.925104</ele>
        <time>2024-12-17T10:35:26.000Z</time>
      </trkpt>
      <trkpt lat="50.28472" lon="4.53543">
        <ele>269.922214</ele>
        <time>2024-12-17T10:35:27.000Z</time>
      </trkpt>
      <trkpt lat="50.28472" lon="4.53543">
        <ele>269.918282</ele>
        <time>2024-12-17T10:35:28.000Z</time>
      </trkpt>
      <trkpt lat="50.28472" lon="4.53544">
        <ele>269.91092</ele>
        <time>2024-12-17T10:35:29.000Z</time>
      </trkpt>
      <trkpt lat="50.28474" lon="4.5355">
        <ele>269.868544</ele>
        <time>2024-12-17T10:35:32.000Z</time>
      </trkpt>
      <trkpt lat="50.28476" lon="4.53552">
        <ele>269.841666</ele>
        <time>2024-12-17T10:35:33.000Z</time>
      </trkpt>
      <trkpt lat="50.28478" lon="4.53554">
        <ele>269.816198</ele>
        <time>2024-12-17T10:35:34.000Z</time>
      </trkpt>
      <trkpt lat="50.2848" lon="4.53557">
        <ele>269.789429</ele>
        <time>2024-12-17T10:35:35.000Z</time>
      </trkpt>
      <trkpt lat="50.28482" lon="4.53559">
        <ele>269.763142</ele>
        <time>2024-12-17T10:35:36.000Z</time>
      </trkpt>
      <trkpt lat="50.28484" lon="4.53564">
        <ele>269.727695</ele>
        <time>2024-12-17T10:35:37.000Z</time>
      </trkpt>
      <trkpt lat="50.28486" lon="4.53567">
        <ele>269.697381</ele>
        <time>2024-12-17T10:35:38.000Z</time>
      </trkpt>
      <trkpt lat="50.28487" lon="4.53569">
        <ele>269.678053</ele>
        <time>2024-12-17T10:35:39.000Z</time>
      </trkpt>
      <trkpt lat="50.28489" lon="4.5357">
        <ele>269.662638</ele>
        <time>2024-12-17T10:35:40.000Z</time>
      </trkpt>
      <trkpt lat="50.2849" lon="4.53571">
        <ele>269.643184</ele>
        <time>2024-12-17T10:35:41.000Z</time>
      </trkpt>
      <trkpt lat="50.28491" lon="4.53572">
        <ele>269.634042</ele>
        <time>2024-12-17T10:35:42.000Z</time>
      </trkpt>
      <trkpt lat="50.28491" lon="4.53574">
        <ele>269.618843</ele>
        <time>2024-12-17T10:35:43.000Z</time>
      </trkpt>
      <trkpt lat="50.28493" lon="4.53577">
        <ele>269.597672</ele>
        <time>2024-12-17T10:35:44.000Z</time>
      </trkpt>
      <trkpt lat="50.28493" lon="4.53579">
        <ele>269.582862</ele>
        <time>2024-12-17T10:35:45.000Z</time>
      </trkpt>
      <trkpt lat="50.28494" lon="4.53581">
        <ele>269.563177</ele>
        <time>2024-12-17T10:35:46.000Z</time>
      </trkpt>
      <trkpt lat="50.28495" lon="4.53583">
        <ele>269.548324</ele>
        <time>2024-12-17T10:35:47.000Z</time>
      </trkpt>
      <trkpt lat="50.28497" lon="4.53584">
        <ele>269.525225</ele>
        <time>2024-12-17T10:35:48.000Z</time>
      </trkpt>
      <trkpt lat="50.28499" lon="4.53586">
        <ele>269.503042</ele>
        <time>2024-12-17T10:35:49.000Z</time>
      </trkpt>
      <trkpt lat="50.285" lon="4.53588">
        <ele>269.486172</ele>
        <time>2024-12-17T10:35:50.000Z</time>
      </trkpt>
      <trkpt lat="50.285" lon="4.5359">
        <ele>269.468718</ele>
        <time>2024-12-17T10:35:51.000Z</time>
      </trkpt>
      <trkpt lat="50.28502" lon="4.53593">
        <ele>269.444066</ele>
        <time>2024-12-17T10:35:52.000Z</time>
      </trkpt>
      <trkpt lat="50.28502" lon="4.53593">
        <ele>269.438955</ele>
        <time>2024-12-17T10:35:53.000Z</time>
      </trkpt>
      <trkpt lat="50.28502" lon="4.53594">
        <ele>269.434384</ele>
        <time>2024-12-17T10:35:54.000Z</time>
      </trkpt>
      <trkpt lat="50.28503" lon="4.53597">
        <ele>269.411852</ele>
        <time>2024-12-17T10:35:55.000Z</time>
      </trkpt>
      <trkpt lat="50.28504" lon="4.53599">
        <ele>269.393117</ele>
        <time>2024-12-17T10:35:56.000Z</time>
      </trkpt>
      <trkpt lat="50.28505" lon="4.53602">
        <ele>269.370216</ele>
        <time>2024-12-17T10:35:57.000Z</time>
      </trkpt>
      <trkpt lat="50.28506" lon="4.53605">
        <ele>269.351068</ele>
        <time>2024-12-17T10:35:58.000Z</time>
      </trkpt>
      <trkpt lat="50.28507" lon="4.53607">
        <ele>269.33217</ele>
        <time>2024-12-17T10:35:59.000Z</time>
      </trkpt>
      <trkpt lat="50.28509" lon="4.53609">
        <ele>269.307068</ele>
        <time>2024-12-17T10:36:00.000Z</time>
      </trkpt>
      <trkpt lat="50.2851" lon="4.53611">
        <ele>269.291668</ele>
        <time>2024-12-17T10:36:01.000Z</time>
      </trkpt>
      <trkpt lat="50.2851" lon="4.53613">
        <ele>269.276339</ele>
        <time>2024-12-17T10:36:02.000Z</time>
      </trkpt>
      <trkpt lat="50.28511" lon="4.53614">
        <ele>269.262459</ele>
        <time>2024-12-17T10:36:03.000Z</time>
      </trkpt>
      <trkpt lat="50.28512" lon="4.53614">
        <ele>269.25926</ele>
        <time>2024-12-17T10:36:04.000Z</time>
      </trkpt>
      <trkpt lat="50.28532" lon="4.53637">
        <ele>268.997963</ele>
        <time>2024-12-17T10:36:21.000Z</time>
      </trkpt>
      <trkpt lat="50.28533" lon="4.5364">
        <ele>268.974118</ele>
        <time>2024-12-17T10:36:22.000Z</time>
      </trkpt>
      <trkpt lat="50.28535" lon="4.53643">
        <ele>268.951002</ele>
        <time>2024-12-17T10:36:23.000Z</time>
      </trkpt>
      <trkpt lat="50.28536" lon="4.53645">
        <ele>268.931212</ele>
        <time>2024-12-17T10:36:24.000Z</time>
      </trkpt>
      <trkpt lat="50.28538" lon="4.53648">
        <ele>268.899884</ele>
        <time>2024-12-17T10:36:25.000Z</time>
      </trkpt>
      <trkpt lat="50.2854" lon="4.53651">
        <ele>268.878788</ele>
        <time>2024-12-17T10:36:26.000Z</time>
      </trkpt>
      <trkpt lat="50.28542" lon="4.53654">
        <ele>268.870037</ele>
        <time>2024-12-17T10:36:27.000Z</time>
      </trkpt>
      <trkpt lat="50.28545" lon="4.53656">
        <ele>268.862706</ele>
        <time>2024-12-17T10:36:28.000Z</time>
      </trkpt>
      <trkpt lat="50.28548" lon="4.53659">
        <ele>268.854293</ele>
        <time>2024-12-17T10:36:29.000Z</time>
      </trkpt>
      <trkpt lat="50.2855" lon="4.53661">
        <ele>268.847268</ele>
        <time>2024-12-17T10:36:30.000Z</time>
      </trkpt>
      <trkpt lat="50.28551" lon="4.53663">
        <ele>268.842857</ele>
        <time>2024-12-17T10:36:31.000Z</time>
      </trkpt>
      <trkpt lat="50.28552" lon="4.53665">
        <ele>268.839791</ele>
        <time>2024-12-17T10:36:32.000Z</time>
      </trkpt>
      <trkpt lat="50.28553" lon="4.53667">
        <ele>268.834365</ele>
        <time>2024-12-17T10:36:33.000Z</time>
      </trkpt>
      <trkpt lat="50.28555" lon="4.5367">
        <ele>268.826855</ele>
        <time>2024-12-17T10:36:34.000Z</time>
      </trkpt>
      <trkpt lat="50.28557" lon="4.53673">
        <ele>268.820637</ele>
        <time>2024-12-17T10:36:35.000Z</time>
      </trkpt>
      <trkpt lat="50.28557" lon="4.53675">
        <ele>268.816382</ele>
        <time>2024-12-17T10:36:36.000Z</time>
      </trkpt>
      <trkpt lat="50.28558" lon="4.53678">
        <ele>268.81091</ele>
        <time>2024-12-17T10:36:37.000Z</time>
      </trkpt>
      <trkpt lat="50.2856" lon="4.53682">
        <ele>268.804071</ele>
        <time>2024-12-17T10:36:38.000Z</time>
      </trkpt>
      <trkpt lat="50.28562" lon="4.53685">
        <ele>268.797137</ele>
        <time>2024-12-17T10:36:39.000Z</time>
      </trkpt>
      <trkpt lat="50.28563" lon="4.53687">
        <ele>268.792235</ele>
        <time>2024-12-17T10:36:40.000Z</time>
      </trkpt>
      <trkpt lat="50.28564" lon="4.53689">
        <ele>268.788177</ele>
        <time>2024-12-17T10:36:41.000Z</time>
      </trkpt>
      <trkpt lat="50.28564" lon="4.53693">
        <ele>268.781903</ele>
        <time>2024-12-17T10:36:42.000Z</time>
      </trkpt>
      <trkpt lat="50.28565" lon="4.53696">
        <ele>268.775611</ele>
        <time>2024-12-17T10:36:43.000Z</time>
      </trkpt>
      <trkpt lat="50.28566" lon="4.53699">
        <ele>268.769997</ele>
        <time>2024-12-17T10:36:44.000Z</time>
      </trkpt>
      <trkpt lat="50.28568" lon="4.53701">
        <ele>268.764036</ele>
        <time>2024-12-17T10:36:45.000Z</time>
      </trkpt>
      <trkpt lat="50.2857" lon="4.53703">
        <ele>268.756709</ele>
        <time>2024-12-17T10:36:46.000Z</time>
      </trkpt>
      <trkpt lat="50.28572" lon="4.53705">
        <ele>268.752279</ele>
        <time>2024-12-17T10:36:47.000Z</time>
      </trkpt>
      <trkpt lat="50.28574" lon="4.53707">
        <ele>268.745313</ele>
        <time>2024-12-17T10:36:48.000Z</time>
      </trkpt>
      <trkpt lat="50.28576" lon="4.53709">
        <ele>268.740101</ele>
        <time>2024-12-17T10:36:49.000Z</time>
      </trkpt>
      <trkpt lat="50.28578" lon="4.53712">
        <ele>268.731323</ele>
        <time>2024-12-17T10:36:50.000Z</time>
      </trkpt>
      <trkpt lat="50.28583" lon="4.53717">
        <ele>268.718092</ele>
        <time>2024-12-17T10:36:51.000Z</time>
      </trkpt>
      <trkpt lat="50.28587" lon="4.53722">
        <ele>268.704251</ele>
        <time>2024-12-17T10:36:52.000Z</time>
      </trkpt>
      <trkpt lat="50.28587" lon="4.53725">
        <ele>268.699599</ele>
        <time>2024-12-17T10:36:53.000Z</time>
      </trkpt>
      <trkpt lat="50.28587" lon="4.53729">
        <ele>268.692335</ele>
        <time>2024-12-17T10:36:54.000Z</time>
      </trkpt>
      <trkpt lat="50.28586" lon="4.53734">
        <ele>268.683527</ele>
        <time>2024-12-17T10:36:55.000Z</time>
      </trkpt>
      <trkpt lat="50.28587" lon="4.53738">
        <ele>268.676743</ele>
        <time>2024-12-17T10:36:56.000Z</time>
      </trkpt>
      <trkpt lat="50.28588" lon="4.53743">
        <ele>268.669343</ele>
        <time>2024-12-17T10:36:57.000Z</time>
      </trkpt>
      <trkpt lat="50.28586" lon="4.53746">
        <ele>268.662009</ele>
        <time>2024-12-17T10:36:58.000Z</time>
      </trkpt>
      <trkpt lat="50.28584" lon="4.53749">
        <ele>268.655558</ele>
        <time>2024-12-17T10:36:59.000Z</time>
      </trkpt>
      <trkpt lat="50.28582" lon="4.53752">
        <ele>268.64843</ele>
        <time>2024-12-17T10:37:00.000Z</time>
      </trkpt>
      <trkpt lat="50.28581" lon="4.53756">
        <ele>268.641044</ele>
        <time>2024-12-17T10:37:01.000Z</time>
      </trkpt>
      <trkpt lat="50.28584" lon="4.53757">
        <ele>268.633658</ele>
        <time>2024-12-17T10:37:02.000Z</time>
      </trkpt>
      <trkpt lat="50.28585" lon="4.53761">
        <ele>268.627288</ele>
        <time>2024-12-17T10:37:03.000Z</time>
      </trkpt>
      <trkpt lat="50.28585" lon="4.53764">
        <ele>268.621338</ele>
        <time>2024-12-17T10:37:04.000Z</time>
      </trkpt>
      <trkpt lat="50.28585" lon="4.53767">
        <ele>268.616379</ele>
        <time>2024-12-17T10:37:05.000Z</time>
      </trkpt>
      <trkpt lat="50.28586" lon="4.5377">
        <ele>268.611721</ele>
        <time>2024-12-17T10:37:06.000Z</time>
      </trkpt>
      <trkpt lat="50.28586" lon="4.53772">
        <ele>268.607683</ele>
        <time>2024-12-17T10:37:07.000Z</time>
      </trkpt>
      <trkpt lat="50.28586" lon="4.53775">
        <ele>268.602507</ele>
        <time>2024-12-17T10:37:08.000Z</time>
      </trkpt>
      <trkpt lat="50.28586" lon="4.53779">
        <ele>268.596425</ele>
        <time>2024-12-17T10:37:09.000Z</time>
      </trkpt>
      <trkpt lat="50.28587" lon="4.53782">
        <ele>268.590527</ele>
        <time>2024-12-17T10:37:10.000Z</time>
      </trkpt>
      <trkpt lat="50.28588" lon="4.53786">
        <ele>268.585088</ele>
        <time>2024-12-17T10:37:11.000Z</time>
      </trkpt>
      <trkpt lat="50.28588" lon="4.53788">
        <ele>268.580833</ele>
        <time>2024-12-17T10:37:12.000Z</time>
      </trkpt>
      <trkpt lat="50.28588" lon="4.5379">
        <ele>268.577373</ele>
        <time>2024-12-17T10:37:13.000Z</time>
      </trkpt>
      <trkpt lat="50.2859" lon="4.53792">
        <ele>268.571263</ele>
        <time>2024-12-17T10:37:14.000Z</time>
      </trkpt>
      <trkpt lat="50.28591" lon="4.53794">
        <ele>268.56787</ele>
        <time>2024-12-17T10:37:15.000Z</time>
      </trkpt>
      <trkpt lat="50.28591" lon="4.53797">
        <ele>268.563219</ele>
        <time>2024-12-17T10:37:16.000Z</time>
      </trkpt>
      <trkpt lat="50.28591" lon="4.53799">
        <ele>268.559387</ele>
        <time>2024-12-17T10:37:17.000Z</time>
      </trkpt>
      <trkpt lat="50.28591" lon="4.53802">
        <ele>268.554592</ele>
        <time>2024-12-17T10:37:18.000Z</time>
      </trkpt>
      <trkpt lat="50.28591" lon="4.53805">
        <ele>268.549776</ele>
        <time>2024-12-17T10:37:19.000Z</time>
      </trkpt>
      <trkpt lat="50.28591" lon="4.53808">
        <ele>268.544823</ele>
        <time>2024-12-17T10:37:20.000Z</time>
      </trkpt>
      <trkpt lat="50.28591" lon="4.53812">
        <ele>268.538993</ele>
        <time>2024-12-17T10:37:21.000Z</time>
      </trkpt>
      <trkpt lat="50.28591" lon="4.53816">
        <ele>268.532554</ele>
        <time>2024-12-17T10:37:22.000Z</time>
      </trkpt>
      <trkpt lat="50.2859" lon="4.53819">
        <ele>268.527275</ele>
        <time>2024-12-17T10:37:23.000Z</time>
      </trkpt>
      <trkpt lat="50.2859" lon="4.53822">
        <ele>268.52215</ele>
        <time>2024-12-17T10:37:24.000Z</time>
      </trkpt>
      <trkpt lat="50.28591" lon="4.53825">
        <ele>268.516828</ele>
        <time>2024-12-17T10:37:25.000Z</time>
      </trkpt>
      <trkpt lat="50.28593" lon="4.53828">
        <ele>268.510958</ele>
        <time>2024-12-17T10:37:26.000Z</time>
      </trkpt>
      <trkpt lat="50.28594" lon="4.5383">
        <ele>268.505109</ele>
        <time>2024-12-17T10:37:27.000Z</time>
      </trkpt>
      <trkpt lat="50.28596" lon="4.53834">
        <ele>268.49807</ele>
        <time>2024-12-17T10:37:28.000Z</time>
      </trkpt>
      <trkpt lat="50.28597" lon="4.53837">
        <ele>268.49145</ele>
        <time>2024-12-17T10:37:29.000Z</time>
      </trkpt>
      <trkpt lat="50.28599" lon="4.5384">
        <ele>268.484476</ele>
        <time>2024-12-17T10:37:30.000Z</time>
      </trkpt>
      <trkpt lat="50.286" lon="4.53842">
        <ele>268.479189</ele>
        <time>2024-12-17T10:37:31.000Z</time>
      </trkpt>
      <trkpt lat="50.286" lon="4.53846">
        <ele>268.4739</ele>
        <time>2024-12-17T10:37:32.000Z</time>
      </trkpt>
      <trkpt lat="50.286" lon="4.53847">
        <ele>268.470126</ele>
        <time>2024-12-17T10:37:33.000Z</time>
      </trkpt>
      <trkpt lat="50.28599" lon="4.53849">
        <ele>268.466607</ele>
        <time>2024-12-17T10:37:34.000Z</time>
      </trkpt>
      <trkpt lat="50.28598" lon="4.53852">
        <ele>268.46143</ele>
        <time>2024-12-17T10:37:35.000Z</time>
      </trkpt>
      <trkpt lat="50.28598" lon="4.53855">
        <ele>268.456254</ele>
        <time>2024-12-17T10:37:36.000Z</time>
      </trkpt>
      <trkpt lat="50.28599" lon="4.53858">
        <ele>268.45169</ele>
        <time>2024-12-17T10:37:37.000Z</time>
      </trkpt>
      <trkpt lat="50.286" lon="4.53861">
        <ele>268.446249</ele>
        <time>2024-12-17T10:37:38.000Z</time>
      </trkpt>
      <trkpt lat="50.28601" lon="4.53864">
        <ele>268.438702</ele>
        <time>2024-12-17T10:37:39.000Z</time>
      </trkpt>
      <trkpt lat="50.28603" lon="4.53869">
        <ele>268.430438</ele>
        <time>2024-12-17T10:37:40.000Z</time>
      </trkpt>
      <trkpt lat="50.28603" lon="4.53872">
        <ele>268.425314</ele>
        <time>2024-12-17T10:37:41.000Z</time>
      </trkpt>
      <trkpt lat="50.28603" lon="4.53877">
        <ele>268.417055</ele>
        <time>2024-12-17T10:37:42.000Z</time>
      </trkpt>
      <trkpt lat="50.28604" lon="4.53883">
        <ele>268.377457</ele>
        <time>2024-12-17T10:37:43.000Z</time>
      </trkpt>
      <trkpt lat="50.28603" lon="4.53887">
        <ele>268.341112</ele>
        <time>2024-12-17T10:37:44.000Z</time>
      </trkpt>
      <trkpt lat="50.28603" lon="4.53891">
        <ele>268.312205</ele>
        <time>2024-12-17T10:37:45.000Z</time>
      </trkpt>
      <trkpt lat="50.28603" lon="4.53894">
        <ele>268.285852</ele>
        <time>2024-12-17T10:37:46.000Z</time>
      </trkpt>
      <trkpt lat="50.28605" lon="4.53897">
        <ele>268.252255</ele>
        <time>2024-12-17T10:37:47.000Z</time>
      </trkpt>
      <trkpt lat="50.28607" lon="4.53899">
        <ele>268.23233</ele>
        <time>2024-12-17T10:37:48.000Z</time>
      </trkpt>
      <trkpt lat="50.28608" lon="4.53902">
        <ele>268.20455</ele>
        <time>2024-12-17T10:37:49.000Z</time>
      </trkpt>
      <trkpt lat="50.28609" lon="4.53905">
        <ele>268.176211</ele>
        <time>2024-12-17T10:37:50.000Z</time>
      </trkpt>
      <trkpt lat="50.28611" lon="4.53908">
        <ele>268.139149</ele>
        <time>2024-12-17T10:37:51.000Z</time>
      </trkpt>
      <trkpt lat="50.28611" lon="4.53911">
        <ele>268.110241</ele>
        <time>2024-12-17T10:37:52.000Z</time>
      </trkpt>
      <trkpt lat="50.28611" lon="4.53915">
        <ele>268.083813</ele>
        <time>2024-12-17T10:37:53.000Z</time>
      </trkpt>
      <trkpt lat="50.28611" lon="4.53918">
        <ele>268.054828</ele>
        <time>2024-12-17T10:37:54.000Z</time>
      </trkpt>
      <trkpt lat="50.28608" lon="4.53922">
        <ele>268.013533</ele>
        <time>2024-12-17T10:37:55.000Z</time>
      </trkpt>
      <trkpt lat="50.28608" lon="4.53925">
        <ele>267.985877</ele>
        <time>2024-12-17T10:37:56.000Z</time>
      </trkpt>
      <trkpt lat="50.28608" lon="4.53929">
        <ele>267.957434</ele>
        <time>2024-12-17T10:37:57.000Z</time>
      </trkpt>
      <trkpt lat="50.28608" lon="4.53932">
        <ele>267.928527</ele>
        <time>2024-12-17T10:37:58.000Z</time>
      </trkpt>
      <trkpt lat="50.28608" lon="4.53936">
        <ele>267.901299</ele>
        <time>2024-12-17T10:37:59.000Z</time>
      </trkpt>
      <trkpt lat="50.28608" lon="4.53938">
        <ele>267.879664</ele>
        <time>2024-12-17T10:38:00.000Z</time>
      </trkpt>
      <trkpt lat="50.28609" lon="4.53941">
        <ele>267.855302</ele>
        <time>2024-12-17T10:38:01.000Z</time>
      </trkpt>
      <trkpt lat="50.2861" lon="4.53944">
        <ele>267.830337</ele>
        <time>2024-12-17T10:38:02.000Z</time>
      </trkpt>
      <trkpt lat="50.2861" lon="4.53947">
        <ele>267.804707</ele>
        <time>2024-12-17T10:38:03.000Z</time>
      </trkpt>
      <trkpt lat="50.28609" lon="4.5395">
        <ele>267.779634</ele>
        <time>2024-12-17T10:38:04.000Z</time>
      </trkpt>
      <trkpt lat="50.2861" lon="4.53952">
        <ele>267.76344</ele>
        <time>2024-12-17T10:38:05.000Z</time>
      </trkpt>
      <trkpt lat="50.2861" lon="4.53955">
        <ele>267.738641</ele>
        <time>2024-12-17T10:38:06.000Z</time>
      </trkpt>
      <trkpt lat="50.2861" lon="4.53958">
        <ele>267.708936</ele>
        <time>2024-12-17T10:38:07.000Z</time>
      </trkpt>
      <trkpt lat="50.28611" lon="4.53963">
        <ele>267.676042</ele>
        <time>2024-12-17T10:38:08.000Z</time>
      </trkpt>
      <trkpt lat="50.28612" lon="4.53967">
        <ele>267.635283</ele>
        <time>2024-12-17T10:38:09.000Z</time>
      </trkpt>
      <trkpt lat="50.28612" lon="4.53971">
        <ele>267.601661</ele>
        <time>2024-12-17T10:38:10.000Z</time>
      </trkpt>
      <trkpt lat="50.28611" lon="4.53975">
        <ele>267.568013</ele>
        <time>2024-12-17T10:38:11.000Z</time>
      </trkpt>
      <trkpt lat="50.2861" lon="4.5398">
        <ele>267.531208</ele>
        <time>2024-12-17T10:38:12.000Z</time>
      </trkpt>
      <trkpt lat="50.28611" lon="4.53984">
        <ele>267.497032</ele>
        <time>2024-12-17T10:38:13.000Z</time>
      </trkpt>
      <trkpt lat="50.28613" lon="4.53989">
        <ele>267.449776</ele>
        <time>2024-12-17T10:38:14.000Z</time>
      </trkpt>
      <trkpt lat="50.28614" lon="4.53993">
        <ele>267.411979</ele>
        <time>2024-12-17T10:38:15.000Z</time>
      </trkpt>
      <trkpt lat="50.28615" lon="4.53998">
        <ele>267.374929</ele>
        <time>2024-12-17T10:38:16.000Z</time>
      </trkpt>
      <trkpt lat="50.28614" lon="4.54001">
        <ele>267.344827</ele>
        <time>2024-12-17T10:38:17.000Z</time>
      </trkpt>
      <trkpt lat="50.28614" lon="4.54005">
        <ele>267.316384</ele>
        <time>2024-12-17T10:38:18.000Z</time>
      </trkpt>
      <trkpt lat="50.28613" lon="4.54007">
        <ele>267.293126</ele>
        <time>2024-12-17T10:38:19.000Z</time>
      </trkpt>
      <trkpt lat="50.28613" lon="4.5401">
        <ele>267.273285</ele>
        <time>2024-12-17T10:38:20.000Z</time>
      </trkpt>
      <trkpt lat="50.28612" lon="4.54013">
        <ele>267.24236</ele>
        <time>2024-12-17T10:38:21.000Z</time>
      </trkpt>
      <trkpt lat="50.28612" lon="4.54017">
        <ele>267.214333</ele>
        <time>2024-12-17T10:38:22.000Z</time>
      </trkpt>
      <trkpt lat="50.28614" lon="4.5402">
        <ele>267.181265</ele>
        <time>2024-12-17T10:38:23.000Z</time>
      </trkpt>
      <trkpt lat="50.28616" lon="4.54022">
        <ele>267.148591</ele>
        <time>2024-12-17T10:38:24.000Z</time>
      </trkpt>
      <trkpt lat="50.28617" lon="4.54026">
        <ele>267.109453</ele>
        <time>2024-12-17T10:38:25.000Z</time>
      </trkpt>
      <trkpt lat="50.2862" lon="4.54029">
        <ele>267.074939</ele>
        <time>2024-12-17T10:38:26.000Z</time>
      </trkpt>
      <trkpt lat="50.28621" lon="4.54032">
        <ele>267.041029</ele>
        <time>2024-12-17T10:38:27.000Z</time>
      </trkpt>
      <trkpt lat="50.28621" lon="4.54036">
        <ele>267.011798</ele>
        <time>2024-12-17T10:38:28.000Z</time>
      </trkpt>
      <trkpt lat="50.28619" lon="4.54039">
        <ele>266.98069</ele>
        <time>2024-12-17T10:38:29.000Z</time>
      </trkpt>
      <trkpt lat="50.28618" lon="4.54042">
        <ele>266.947638</ele>
        <time>2024-12-17T10:38:30.000Z</time>
      </trkpt>
      <trkpt lat="50.28616" lon="4.54046">
        <ele>266.911182</ele>
        <time>2024-12-17T10:38:31.000Z</time>
      </trkpt>
      <trkpt lat="50.28615" lon="4.54048">
        <ele>266.889478</ele>
        <time>2024-12-17T10:38:32.000Z</time>
      </trkpt>
      <trkpt lat="50.28613" lon="4.54051">
        <ele>266.86048</ele>
        <time>2024-12-17T10:38:33.000Z</time>
      </trkpt>
      <trkpt lat="50.28613" lon="4.54054">
        <ele>266.832824</ele>
        <time>2024-12-17T10:38:34.000Z</time>
      </trkpt>
      <trkpt lat="50.28612" lon="4.54057">
        <ele>266.811461</ele>
        <time>2024-12-17T10:38:35.000Z</time>
      </trkpt>
      <trkpt lat="50.28612" lon="4.54059">
        <ele>266.793258</ele>
        <time>2024-12-17T10:38:36.000Z</time>
      </trkpt>
      <trkpt lat="50.28611" lon="4.54061">
        <ele>266.77166</ele>
        <time>2024-12-17T10:38:37.000Z</time>
      </trkpt>
      <trkpt lat="50.2861" lon="4.54062">
        <ele>266.757503</ele>
        <time>2024-12-17T10:38:38.000Z</time>
      </trkpt>
      <trkpt lat="50.2861" lon="4.54064">
        <ele>266.741847</ele>
        <time>2024-12-17T10:38:39.000Z</time>
      </trkpt>
      <trkpt lat="50.28609" lon="4.54066">
        <ele>266.722186</ele>
        <time>2024-12-17T10:38:40.000Z</time>
      </trkpt>
      <trkpt lat="50.28608" lon="4.54069">
        <ele>266.699231</ele>
        <time>2024-12-17T10:38:41.000Z</time>
      </trkpt>
      <trkpt lat="50.28607" lon="4.54072">
        <ele>266.674158</ele>
        <time>2024-12-17T10:38:42.000Z</time>
      </trkpt>
      <trkpt lat="50.28607" lon="4.54074">
        <ele>266.655758</ele>
        <time>2024-12-17T10:38:43.000Z</time>
      </trkpt>
      <trkpt lat="50.28607" lon="4.54076">
        <ele>266.63971</ele>
        <time>2024-12-17T10:38:44.000Z</time>
      </trkpt>
      <trkpt lat="50.28607" lon="4.54078">
        <ele>266.621268</ele>
        <time>2024-12-17T10:38:45.000Z</time>
      </trkpt>
      <trkpt lat="50.28607" lon="4.5408">
        <ele>266.606653</ele>
        <time>2024-12-17T10:38:46.000Z</time>
      </trkpt>
      <trkpt lat="50.28606" lon="4.54082">
        <ele>266.587732</ele>
        <time>2024-12-17T10:38:47.000Z</time>
      </trkpt>
      <trkpt lat="50.28605" lon="4.54084">
        <ele>266.565785</ele>
        <time>2024-12-17T10:38:48.000Z</time>
      </trkpt>
      <trkpt lat="50.28603" lon="4.54086">
        <ele>266.540946</ele>
        <time>2024-12-17T10:38:49.000Z</time>
      </trkpt>
      <trkpt lat="50.28602" lon="4.54089">
        <ele>266.512977</ele>
        <time>2024-12-17T10:38:50.000Z</time>
      </trkpt>
      <trkpt lat="50.28602" lon="4.54093">
        <ele>266.481306</ele>
        <time>2024-12-17T10:38:51.000Z</time>
      </trkpt>
      <trkpt lat="50.28601" lon="4.54097">
        <ele>266.448129</ele>
        <time>2024-12-17T10:38:52.000Z</time>
      </trkpt>
      <trkpt lat="50.286" lon="4.54101">
        <ele>266.413406</ele>
        <time>2024-12-17T10:38:53.000Z</time>
      </trkpt>
      <trkpt lat="50.286" lon="4.54105">
        <ele>266.381316</ele>
        <time>2024-12-17T10:38:54.000Z</time>
      </trkpt>
      <trkpt lat="50.28599" lon="4.54109">
        <ele>266.353205</ele>
        <time>2024-12-17T10:38:55.000Z</time>
      </trkpt>
      <trkpt lat="50.286" lon="4.54112">
        <ele>266.329704</ele>
        <time>2024-12-17T10:38:56.000Z</time>
      </trkpt>
      <trkpt lat="50.28599" lon="4.54116">
        <ele>266.294495</ele>
        <time>2024-12-17T10:38:57.000Z</time>
      </trkpt>
      <trkpt lat="50.28599" lon="4.5412">
        <ele>266.259097</ele>
        <time>2024-12-17T10:38:58.000Z</time>
      </trkpt>
      <trkpt lat="50.28598" lon="4.54124">
        <ele>266.228559</ele>
        <time>2024-12-17T10:38:59.000Z</time>
      </trkpt>
      <trkpt lat="50.28597" lon="4.54127">
        <ele>266.201491</ele>
        <time>2024-12-17T10:39:00.000Z</time>
      </trkpt>
      <trkpt lat="50.28596" lon="4.54129">
        <ele>266.17857</ele>
        <time>2024-12-17T10:39:01.000Z</time>
      </trkpt>
      <trkpt lat="50.28595" lon="4.54132">
        <ele>266.14688</ele>
        <time>2024-12-17T10:39:02.000Z</time>
      </trkpt>
      <trkpt lat="50.28595" lon="4.54134">
        <ele>266.121123</ele>
        <time>2024-12-17T10:39:03.000Z</time>
      </trkpt>
      <trkpt lat="50.28595" lon="4.54138">
        <ele>266.083038</ele>
        <time>2024-12-17T10:39:04.000Z</time>
      </trkpt>
      <trkpt lat="50.28594" lon="4.54142">
        <ele>266.035282</ele>
        <time>2024-12-17T10:39:05.000Z</time>
      </trkpt>
      <trkpt lat="50.28593" lon="4.54146">
        <ele>265.979469</ele>
        <time>2024-12-17T10:39:06.000Z</time>
      </trkpt>
      <trkpt lat="50.28593" lon="4.5415">
        <ele>265.93716</ele>
        <time>2024-12-17T10:39:07.000Z</time>
      </trkpt>
      <trkpt lat="50.28594" lon="4.54155">
        <ele>265.885895</ele>
        <time>2024-12-17T10:39:08.000Z</time>
      </trkpt>
      <trkpt lat="50.28593" lon="4.54159">
        <ele>265.83145</ele>
        <time>2024-12-17T10:39:09.000Z</time>
      </trkpt>
      <trkpt lat="50.28592" lon="4.54163">
        <ele>265.7865</ele>
        <time>2024-12-17T10:39:10.000Z</time>
      </trkpt>
      <trkpt lat="50.28591" lon="4.54168">
        <ele>265.735723</ele>
        <time>2024-12-17T10:39:11.000Z</time>
      </trkpt>
      <trkpt lat="50.28589" lon="4.54172">
        <ele>265.679363</ele>
        <time>2024-12-17T10:39:12.000Z</time>
      </trkpt>
      <trkpt lat="50.28588" lon="4.54174">
        <ele>265.636847</ele>
        <time>2024-12-17T10:39:13.000Z</time>
      </trkpt>
      <trkpt lat="50.28589" lon="4.54179">
        <ele>265.58815</ele>
        <time>2024-12-17T10:39:14.000Z</time>
      </trkpt>
      <trkpt lat="50.2859" lon="4.54182">
        <ele>265.542183</ele>
        <time>2024-12-17T10:39:15.000Z</time>
      </trkpt>
      <trkpt lat="50.28589" lon="4.54186">
        <ele>265.488266</ele>
        <time>2024-12-17T10:39:16.000Z</time>
      </trkpt>
      <trkpt lat="50.28587" lon="4.54189">
        <ele>265.441665</ele>
        <time>2024-12-17T10:39:17.000Z</time>
      </trkpt>
      <trkpt lat="50.28585" lon="4.54191">
        <ele>265.399211</ele>
        <time>2024-12-17T10:39:18.000Z</time>
      </trkpt>
      <trkpt lat="50.28585" lon="4.54196">
        <ele>265.34634</ele>
        <time>2024-12-17T10:39:19.000Z</time>
      </trkpt>
      <trkpt lat="50.28584" lon="4.542">
        <ele>265.298771</ele>
        <time>2024-12-17T10:39:20.000Z</time>
      </trkpt>
      <trkpt lat="50.28583" lon="4.54205">
        <ele>265.243637</ele>
        <time>2024-12-17T10:39:21.000Z</time>
      </trkpt>
      <trkpt lat="50.28581" lon="4.54209">
        <ele>265.182857</ele>
        <time>2024-12-17T10:39:22.000Z</time>
      </trkpt>
      <trkpt lat="50.28579" lon="4.54213">
        <ele>265.131429</ele>
        <time>2024-12-17T10:39:23.000Z</time>
      </trkpt>
      <trkpt lat="50.28578" lon="4.54217">
        <ele>265.091108</ele>
        <time>2024-12-17T10:39:24.000Z</time>
      </trkpt>
      <trkpt lat="50.28577" lon="4.54221">
        <ele>265.035294</ele>
        <time>2024-12-17T10:39:25.000Z</time>
      </trkpt>
      <trkpt lat="50.28576" lon="4.54224">
        <ele>264.994072</ele>
        <time>2024-12-17T10:39:26.000Z</time>
      </trkpt>
      <trkpt lat="50.28575" lon="4.54228">
        <ele>264.947398</ele>
        <time>2024-12-17T10:39:27.000Z</time>
      </trkpt>
      <trkpt lat="50.28574" lon="4.54233">
        <ele>264.892353</ele>
        <time>2024-12-17T10:39:28.000Z</time>
      </trkpt>
      <trkpt lat="50.28574" lon="4.54238">
        <ele>264.841939</ele>
        <time>2024-12-17T10:39:29.000Z</time>
      </trkpt>
      <trkpt lat="50.28574" lon="4.54242">
        <ele>264.794183</ele>
        <time>2024-12-17T10:39:30.000Z</time>
      </trkpt>
      <trkpt lat="50.28575" lon="4.54247">
        <ele>264.740217</ele>
        <time>2024-12-17T10:39:31.000Z</time>
      </trkpt>
      <trkpt lat="50.28575" lon="4.54251">
        <ele>264.686954</ele>
        <time>2024-12-17T10:39:32.000Z</time>
      </trkpt>
      <trkpt lat="50.28574" lon="4.54255">
        <ele>264.642003</ele>
        <time>2024-12-17T10:39:33.000Z</time>
      </trkpt>
      <trkpt lat="50.28575" lon="4.54261">
        <ele>264.577246</ele>
        <time>2024-12-17T10:39:34.000Z</time>
      </trkpt>
      <trkpt lat="50.28576" lon="4.54268">
        <ele>264.49943</ele>
        <time>2024-12-17T10:39:35.000Z</time>
      </trkpt>
      <trkpt lat="50.28577" lon="4.54273">
        <ele>264.438649</ele>
        <time>2024-12-17T10:39:36.000Z</time>
      </trkpt>
      <trkpt lat="50.28577" lon="4.54279">
        <ele>264.376484</ele>
        <time>2024-12-17T10:39:37.000Z</time>
      </trkpt>
      <trkpt lat="50.28576" lon="4.54285">
        <ele>264.307232</ele>
        <time>2024-12-17T10:39:38.000Z</time>
      </trkpt>
      <trkpt lat="50.28575" lon="4.54288">
        <ele>264.265267</ele>
        <time>2024-12-17T10:39:39.000Z</time>
      </trkpt>
      <trkpt lat="50.28575" lon="4.54292">
        <ele>264.220881</ele>
        <time>2024-12-17T10:39:40.000Z</time>
      </trkpt>
      <trkpt lat="50.28575" lon="4.54297">
        <ele>264.172026</ele>
        <time>2024-12-17T10:39:41.000Z</time>
      </trkpt>
      <trkpt lat="50.28575" lon="4.54301">
        <ele>264.121612</ele>
        <time>2024-12-17T10:39:42.000Z</time>
      </trkpt>
      <trkpt lat="50.28575" lon="4.54306">
        <ele>264.065454</ele>
        <time>2024-12-17T10:39:43.000Z</time>
      </trkpt>
      <trkpt lat="50.28575" lon="4.5431">
        <ele>264.024397</ele>
        <time>2024-12-17T10:39:44.000Z</time>
      </trkpt>
      <trkpt lat="50.28575" lon="4.54313">
        <ele>263.986311</ele>
        <time>2024-12-17T10:39:45.000Z</time>
      </trkpt>
      <trkpt lat="50.28575" lon="4.54318">
        <ele>263.933899</ele>
        <time>2024-12-17T10:39:46.000Z</time>
      </trkpt>
      <trkpt lat="50.28573" lon="4.54323">
        <ele>263.870259</ele>
        <time>2024-12-17T10:39:47.000Z</time>
      </trkpt>
      <trkpt lat="50.28574" lon="4.54326">
        <ele>263.825289</ele>
        <time>2024-12-17T10:39:48.000Z</time>
      </trkpt>
      <trkpt lat="50.28577" lon="4.54329">
        <ele>263.774685</ele>
        <time>2024-12-17T10:39:49.000Z</time>
      </trkpt>
      <trkpt lat="50.28578" lon="4.54332">
        <ele>263.734353</ele>
        <time>2024-12-17T10:39:50.000Z</time>
      </trkpt>
      <trkpt lat="50.28577" lon="4.54335">
        <ele>263.696282</ele>
        <time>2024-12-17T10:39:51.000Z</time>
      </trkpt>
      <trkpt lat="50.28576" lon="4.54338">
        <ele>263.657901</ele>
        <time>2024-12-17T10:39:52.000Z</time>
      </trkpt>
      <trkpt lat="50.28576" lon="4.54342">
        <ele>263.621241</ele>
        <time>2024-12-17T10:39:53.000Z</time>
      </trkpt>
      <trkpt lat="50.28576" lon="4.54344">
        <ele>263.591566</ele>
        <time>2024-12-17T10:39:54.000Z</time>
      </trkpt>
      <trkpt lat="50.28577" lon="4.54347">
        <ele>263.548204</ele>
        <time>2024-12-17T10:39:55.000Z</time>
      </trkpt>
      <trkpt lat="50.28577" lon="4.54352">
        <ele>263.496374</ele>
        <time>2024-12-17T10:39:56.000Z</time>
      </trkpt>
      <trkpt lat="50.28576" lon="4.54355">
        <ele>263.460823</ele>
        <time>2024-12-17T10:39:57.000Z</time>
      </trkpt>
      <trkpt lat="50.28577" lon="4.54358">
        <ele>263.426788</ele>
        <time>2024-12-17T10:39:58.000Z</time>
      </trkpt>
      <trkpt lat="50.28578" lon="4.54361">
        <ele>263.389241</ele>
        <time>2024-12-17T10:39:59.000Z</time>
      </trkpt>
      <trkpt lat="50.2858" lon="4.54363">
        <ele>263.352254</ele>
        <time>2024-12-17T10:40:00.000Z</time>
      </trkpt>
      <trkpt lat="50.2858" lon="4.54365">
        <ele>263.327938</ele>
        <time>2024-12-17T10:40:01.000Z</time>
      </trkpt>
      <trkpt lat="50.28579" lon="4.54368">
        <ele>263.287719</ele>
        <time>2024-12-17T10:40:02.000Z</time>
      </trkpt>
      <trkpt lat="50.28578" lon="4.54371">
        <ele>263.252669</ele>
        <time>2024-12-17T10:40:03.000Z</time>
      </trkpt>
      <trkpt lat="50.28578" lon="4.54374">
        <ele>263.2236</ele>
        <time>2024-12-17T10:40:04.000Z</time>
      </trkpt>
      <trkpt lat="50.28579" lon="4.54376">
        <ele>263.195541</ele>
        <time>2024-12-17T10:40:05.000Z</time>
      </trkpt>
      <trkpt lat="50.28578" lon="4.54376">
        <ele>263.185121</ele>
        <time>2024-12-17T10:40:06.000Z</time>
      </trkpt>
      <trkpt lat="50.28578" lon="4.54379">
        <ele>263.157554</ele>
        <time>2024-12-17T10:40:07.000Z</time>
      </trkpt>
      <trkpt lat="50.28576" lon="4.54381">
        <ele>263.121787</ele>
        <time>2024-12-17T10:40:08.000Z</time>
      </trkpt>
      <trkpt lat="50.28574" lon="4.54384">
        <ele>263.071097</ele>
        <time>2024-12-17T10:40:09.000Z</time>
      </trkpt>
      <trkpt lat="50.28572" lon="4.54387">
        <ele>263.008831</ele>
        <time>2024-12-17T10:40:10.000Z</time>
      </trkpt>
      <trkpt lat="50.28569" lon="4.54389">
        <ele>262.943134</ele>
        <time>2024-12-17T10:40:11.000Z</time>
      </trkpt>
      <trkpt lat="50.28568" lon="4.54391">
        <ele>262.894787</ele>
        <time>2024-12-17T10:40:12.000Z</time>
      </trkpt>
      <trkpt lat="50.28566" lon="4.54393">
        <ele>262.846116</ele>
        <time>2024-12-17T10:40:13.000Z</time>
      </trkpt>
      <trkpt lat="50.28564" lon="4.54395">
        <ele>262.794862</ele>
        <time>2024-12-17T10:40:14.000Z</time>
      </trkpt>
      <trkpt lat="50.28563" lon="4.54397">
        <ele>262.747515</ele>
        <time>2024-12-17T10:40:15.000Z</time>
      </trkpt>
      <trkpt lat="50.28562" lon="4.54399">
        <ele>262.701212</ele>
        <time>2024-12-17T10:40:16.000Z</time>
      </trkpt>
      <trkpt lat="50.28561" lon="4.54402">
        <ele>262.652287</ele>
        <time>2024-12-17T10:40:17.000Z</time>
      </trkpt>
      <trkpt lat="50.28561" lon="4.54403">
        <ele>262.629137</ele>
        <time>2024-12-17T10:40:18.000Z</time>
      </trkpt>
      <trkpt lat="50.28561" lon="4.54405">
        <ele>262.605095</ele>
        <time>2024-12-17T10:40:19.000Z</time>
      </trkpt>
      <trkpt lat="50.28562" lon="4.54414">
        <ele>262.449195</ele>
        <time>2024-12-17T10:40:22.000Z</time>
      </trkpt>
      <trkpt lat="50.28562" lon="4.54419">
        <ele>262.370197</ele>
        <time>2024-12-17T10:40:23.000Z</time>
      </trkpt>
      <trkpt lat="50.28561" lon="4.54424">
        <ele>262.299665</ele>
        <time>2024-12-17T10:40:24.000Z</time>
      </trkpt>
      <trkpt lat="50.2856" lon="4.54428">
        <ele>262.224973</ele>
        <time>2024-12-17T10:40:25.000Z</time>
      </trkpt>
      <trkpt lat="50.2856" lon="4.54433">
        <ele>262.155299</ele>
        <time>2024-12-17T10:40:26.000Z</time>
      </trkpt>
      <trkpt lat="50.28559" lon="4.54438">
        <ele>262.068663</ele>
        <time>2024-12-17T10:40:27.000Z</time>
      </trkpt>
      <trkpt lat="50.28557" lon="4.54445">
        <ele>261.95653</ele>
        <time>2024-12-17T10:40:28.000Z</time>
      </trkpt>
      <trkpt lat="50.28555" lon="4.54451">
        <ele>261.838933</ele>
        <time>2024-12-17T10:40:29.000Z</time>
      </trkpt>
      <trkpt lat="50.28552" lon="4.54458">
        <ele>261.715772</ele>
        <time>2024-12-17T10:40:30.000Z</time>
      </trkpt>
      <trkpt lat="50.28551" lon="4.54463">
        <ele>261.635038</ele>
        <time>2024-12-17T10:40:31.000Z</time>
      </trkpt>
      <trkpt lat="50.2855" lon="4.54467">
        <ele>261.560704</ele>
        <time>2024-12-17T10:40:32.000Z</time>
      </trkpt>
      <trkpt lat="50.28549" lon="4.54472">
        <ele>261.476078</ele>
        <time>2024-12-17T10:40:33.000Z</time>
      </trkpt>
      <trkpt lat="50.28547" lon="4.54478">
        <ele>261.379434</ele>
        <time>2024-12-17T10:40:34.000Z</time>
      </trkpt>
      <trkpt lat="50.28546" lon="4.54486">
        <ele>261.250608</ele>
        <time>2024-12-17T10:40:35.000Z</time>
      </trkpt>
      <trkpt lat="50.28545" lon="4.54493">
        <ele>261.133373</ele>
        <time>2024-12-17T10:40:36.000Z</time>
      </trkpt>
      <trkpt lat="50.28543" lon="4.545">
        <ele>261.017626</ele>
        <time>2024-12-17T10:40:37.000Z</time>
      </trkpt>
      <trkpt lat="50.28541" lon="4.54505">
        <ele>260.923717</ele>
        <time>2024-12-17T10:40:38.000Z</time>
      </trkpt>
      <trkpt lat="50.2854" lon="4.54509">
        <ele>260.846658</ele>
        <time>2024-12-17T10:40:39.000Z</time>
      </trkpt>
      <trkpt lat="50.2854" lon="4.54515">
        <ele>260.758729</ele>
        <time>2024-12-17T10:40:40.000Z</time>
      </trkpt>
      <trkpt lat="50.28544" lon="4.54521">
        <ele>260.618144</ele>
        <time>2024-12-17T10:40:41.000Z</time>
      </trkpt>
      <trkpt lat="50.28548" lon="4.54527">
        <ele>260.491856</ele>
        <time>2024-12-17T10:40:42.000Z</time>
      </trkpt>
      <trkpt lat="50.28552" lon="4.54532">
        <ele>260.359128</ele>
        <time>2024-12-17T10:40:43.000Z</time>
      </trkpt>
      <trkpt lat="50.28555" lon="4.54538">
        <ele>260.234592</ele>
        <time>2024-12-17T10:40:44.000Z</time>
      </trkpt>
      <trkpt lat="50.28559" lon="4.54543">
        <ele>260.127986</ele>
        <time>2024-12-17T10:40:45.000Z</time>
      </trkpt>
      <trkpt lat="50.28562" lon="4.54548">
        <ele>260.017634</ele>
        <time>2024-12-17T10:40:46.000Z</time>
      </trkpt>
      <trkpt lat="50.28565" lon="4.54553">
        <ele>259.906141</ele>
        <time>2024-12-17T10:40:47.000Z</time>
      </trkpt>
      <trkpt lat="50.28568" lon="4.54558">
        <ele>259.79616</ele>
        <time>2024-12-17T10:40:48.000Z</time>
      </trkpt>
      <trkpt lat="50.2857" lon="4.54564">
        <ele>259.694419</ele>
        <time>2024-12-17T10:40:49.000Z</time>
      </trkpt>
      <trkpt lat="50.28573" lon="4.54569">
        <ele>259.588154</ele>
        <time>2024-12-17T10:40:50.000Z</time>
      </trkpt>
      <trkpt lat="50.28575" lon="4.54575">
        <ele>259.48066</ele>
        <time>2024-12-17T10:40:51.000Z</time>
      </trkpt>
      <trkpt lat="50.28578" lon="4.5458">
        <ele>259.373403</ele>
        <time>2024-12-17T10:40:52.000Z</time>
      </trkpt>
      <trkpt lat="50.28581" lon="4.54585">
        <ele>259.264379</ele>
        <time>2024-12-17T10:40:53.000Z</time>
      </trkpt>
      <trkpt lat="50.28584" lon="4.54591">
        <ele>259.150153</ele>
        <time>2024-12-17T10:40:54.000Z</time>
      </trkpt>
      <trkpt lat="50.28586" lon="4.54596">
        <ele>259.048314</ele>
        <time>2024-12-17T10:40:55.000Z</time>
      </trkpt>
      <trkpt lat="50.28589" lon="4.54601">
        <ele>258.949664</ele>
        <time>2024-12-17T10:40:56.000Z</time>
      </trkpt>
      <trkpt lat="50.28591" lon="4.54606">
        <ele>258.857357</ele>
        <time>2024-12-17T10:40:57.000Z</time>
      </trkpt>
      <trkpt lat="50.28593" lon="4.5461">
        <ele>258.77064</ele>
        <time>2024-12-17T10:40:58.000Z</time>
      </trkpt>
      <trkpt lat="50.28596" lon="4.54614">
        <ele>258.69025</ele>
        <time>2024-12-17T10:40:59.000Z</time>
      </trkpt>
      <trkpt lat="50.28597" lon="4.54617">
        <ele>258.623761</ele>
        <time>2024-12-17T10:41:00.000Z</time>
      </trkpt>
      <trkpt lat="50.28599" lon="4.54621">
        <ele>258.604261</ele>
        <time>2024-12-17T10:41:01.000Z</time>
      </trkpt>
      <trkpt lat="50.28601" lon="4.54624">
        <ele>258.586619</ele>
        <time>2024-12-17T10:41:02.000Z</time>
      </trkpt>
      <trkpt lat="50.28602" lon="4.54627">
        <ele>258.570255</ele>
        <time>2024-12-17T10:41:03.000Z</time>
      </trkpt>
      <trkpt lat="50.28604" lon="4.5463">
        <ele>258.554996</ele>
        <time>2024-12-17T10:41:04.000Z</time>
      </trkpt>
      <trkpt lat="50.28605" lon="4.54632">
        <ele>258.540669</ele>
        <time>2024-12-17T10:41:05.000Z</time>
      </trkpt>
      <trkpt lat="50.28606" lon="4.54635">
        <ele>258.525982</ele>
        <time>2024-12-17T10:41:06.000Z</time>
      </trkpt>
      <trkpt lat="50.28607" lon="4.54638">
        <ele>258.512033</ele>
        <time>2024-12-17T10:41:07.000Z</time>
      </trkpt>
      <trkpt lat="50.28608" lon="4.54641">
        <ele>258.496982</ele>
        <time>2024-12-17T10:41:08.000Z</time>
      </trkpt>
      <trkpt lat="50.2861" lon="4.54644">
        <ele>258.481153</ele>
        <time>2024-12-17T10:41:09.000Z</time>
      </trkpt>
      <trkpt lat="50.28611" lon="4.54647">
        <ele>258.465364</ele>
        <time>2024-12-17T10:41:10.000Z</time>
      </trkpt>
      <trkpt lat="50.28612" lon="4.54649">
        <ele>258.451526</ele>
        <time>2024-12-17T10:41:11.000Z</time>
      </trkpt>
      <trkpt lat="50.28614" lon="4.54651">
        <ele>258.437006</ele>
        <time>2024-12-17T10:41:12.000Z</time>
      </trkpt>
      <trkpt lat="50.28615" lon="4.54654">
        <ele>258.423169</ele>
        <time>2024-12-17T10:41:13.000Z</time>
      </trkpt>
      <trkpt lat="50.28617" lon="4.54656">
        <ele>258.40813</ele>
        <time>2024-12-17T10:41:14.000Z</time>
      </trkpt>
      <trkpt lat="50.28619" lon="4.54658">
        <ele>258.39363</ele>
        <time>2024-12-17T10:41:15.000Z</time>
      </trkpt>
      <trkpt lat="50.2862" lon="4.5466">
        <ele>258.381358</ele>
        <time>2024-12-17T10:41:16.000Z</time>
      </trkpt>
      <trkpt lat="50.28621" lon="4.54662">
        <ele>258.369529</ele>
        <time>2024-12-17T10:41:17.000Z</time>
      </trkpt>
      <trkpt lat="50.28622" lon="4.54665">
        <ele>258.357048</ele>
        <time>2024-12-17T10:41:18.000Z</time>
      </trkpt>
      <trkpt lat="50.28623" lon="4.54667">
        <ele>258.344355</ele>
        <time>2024-12-17T10:41:19.000Z</time>
      </trkpt>
      <trkpt lat="50.28623" lon="4.5467">
        <ele>258.331127</ele>
        <time>2024-12-17T10:41:20.000Z</time>
      </trkpt>
      <trkpt lat="50.28623" lon="4.54673">
        <ele>258.319366</ele>
        <time>2024-12-17T10:41:21.000Z</time>
      </trkpt>
      <trkpt lat="50.28623" lon="4.54678">
        <ele>258.298711</ele>
        <time>2024-12-17T10:41:22.000Z</time>
      </trkpt>
      <trkpt lat="50.28624" lon="4.54683">
        <ele>258.275055</ele>
        <time>2024-12-17T10:41:23.000Z</time>
      </trkpt>
      <trkpt lat="50.28626" lon="4.54688">
        <ele>258.247488</ele>
        <time>2024-12-17T10:41:24.000Z</time>
      </trkpt>
      <trkpt lat="50.28629" lon="4.54693">
        <ele>258.220593</ele>
        <time>2024-12-17T10:41:25.000Z</time>
      </trkpt>
      <trkpt lat="50.28631" lon="4.54697">
        <ele>258.198041</ele>
        <time>2024-12-17T10:41:26.000Z</time>
      </trkpt>
      <trkpt lat="50.28632" lon="4.547">
        <ele>258.184092</ele>
        <time>2024-12-17T10:41:27.000Z</time>
      </trkpt>
      <trkpt lat="50.28633" lon="4.54702">
        <ele>258.171974</ele>
        <time>2024-12-17T10:41:28.000Z</time>
      </trkpt>
      <trkpt lat="50.28634" lon="4.54704">
        <ele>258.160805</ele>
        <time>2024-12-17T10:41:29.000Z</time>
      </trkpt>
      <trkpt lat="50.28635" lon="4.54707">
        <ele>258.147099</ele>
        <time>2024-12-17T10:41:30.000Z</time>
      </trkpt>
      <trkpt lat="50.28637" lon="4.54709">
        <ele>258.13149</ele>
        <time>2024-12-17T10:41:31.000Z</time>
      </trkpt>
      <trkpt lat="50.28639" lon="4.54711">
        <ele>258.1145</ele>
        <time>2024-12-17T10:41:32.000Z</time>
      </trkpt>
      <trkpt lat="50.28641" lon="4.54714">
        <ele>258.09544</ele>
        <time>2024-12-17T10:41:33.000Z</time>
      </trkpt>
      <trkpt lat="50.28644" lon="4.54716">
        <ele>258.077709</ele>
        <time>2024-12-17T10:41:34.000Z</time>
      </trkpt>
      <trkpt lat="50.28646" lon="4.54717">
        <ele>258.061435</ele>
        <time>2024-12-17T10:41:35.000Z</time>
      </trkpt>
      <trkpt lat="50.28648" lon="4.54717">
        <ele>258.047689</ele>
        <time>2024-12-17T10:41:36.000Z</time>
      </trkpt>
      <trkpt lat="50.2865" lon="4.54717">
        <ele>258.034735</ele>
        <time>2024-12-17T10:41:37.000Z</time>
      </trkpt>
      <trkpt lat="50.28652" lon="4.54717">
        <ele>258.021716</ele>
        <time>2024-12-17T10:41:38.000Z</time>
      </trkpt>
      <trkpt lat="50.28654" lon="4.54717">
        <ele>258.006692</ele>
        <time>2024-12-17T10:41:39.000Z</time>
      </trkpt>
      <trkpt lat="50.28656" lon="4.54717">
        <ele>257.99033</ele>
        <time>2024-12-17T10:41:40.000Z</time>
      </trkpt>
      <trkpt lat="50.28658" lon="4.54716">
        <ele>257.977685</ele>
        <time>2024-12-17T10:41:41.000Z</time>
      </trkpt>
      <trkpt lat="50.2866" lon="4.54715">
        <ele>257.966733</ele>
        <time>2024-12-17T10:41:42.000Z</time>
      </trkpt>
      <trkpt lat="50.28661" lon="4.54714">
        <ele>257.95385</ele>
        <time>2024-12-17T10:41:43.000Z</time>
      </trkpt>
      <trkpt lat="50.28663" lon="4.54713">
        <ele>257.94317</ele>
        <time>2024-12-17T10:41:44.000Z</time>
      </trkpt>
      <trkpt lat="50.28664" lon="4.54711">
        <ele>257.932422</ele>
        <time>2024-12-17T10:41:45.000Z</time>
      </trkpt>
      <trkpt lat="50.28665" lon="4.54709">
        <ele>257.919907</ele>
        <time>2024-12-17T10:41:46.000Z</time>
      </trkpt>
      <trkpt lat="50.28666" lon="4.54707">
        <ele>257.908739</ele>
        <time>2024-12-17T10:41:47.000Z</time>
      </trkpt>
      <trkpt lat="50.28667" lon="4.54706">
        <ele>257.899295</ele>
        <time>2024-12-17T10:41:48.000Z</time>
      </trkpt>
      <trkpt lat="50.28668" lon="4.54704">
        <ele>257.891114</ele>
        <time>2024-12-17T10:41:49.000Z</time>
      </trkpt>
      <trkpt lat="50.2867" lon="4.54703">
        <ele>257.874717</ele>
        <time>2024-12-17T10:41:50.000Z</time>
      </trkpt>
      <trkpt lat="50.28673" lon="4.54704">
        <ele>257.854774</ele>
        <time>2024-12-17T10:41:51.000Z</time>
      </trkpt>
      <trkpt lat="50.28676" lon="4.54705">
        <ele>257.835727</ele>
        <time>2024-12-17T10:41:52.000Z</time>
      </trkpt>
      <trkpt lat="50.28678" lon="4.54706">
        <ele>257.820329</ele>
        <time>2024-12-17T10:41:53.000Z</time>
      </trkpt>
      <trkpt lat="50.2868" lon="4.54708">
        <ele>257.801188</ele>
        <time>2024-12-17T10:41:54.000Z</time>
      </trkpt>
      <trkpt lat="50.28683" lon="4.54709">
        <ele>257.781783</ele>
        <time>2024-12-17T10:41:55.000Z</time>
      </trkpt>
      <trkpt lat="50.28685" lon="4.5471">
        <ele>257.769401</ele>
        <time>2024-12-17T10:41:56.000Z</time>
      </trkpt>
      <trkpt lat="50.28687" lon="4.54711">
        <ele>257.756518</ele>
        <time>2024-12-17T10:41:57.000Z</time>
      </trkpt>
      <trkpt lat="50.28688" lon="4.54712">
        <ele>257.745847</ele>
        <time>2024-12-17T10:41:58.000Z</time>
      </trkpt>
      <trkpt lat="50.2869" lon="4.54713">
        <ele>257.731394</ele>
        <time>2024-12-17T10:41:59.000Z</time>
      </trkpt>
      <trkpt lat="50.28693" lon="4.54714">
        <ele>257.71408</ele>
        <time>2024-12-17T10:42:00.000Z</time>
      </trkpt>
      <trkpt lat="50.28695" lon="4.54716">
        <ele>257.693096</ele>
        <time>2024-12-17T10:42:01.000Z</time>
      </trkpt>
      <trkpt lat="50.28697" lon="4.54719">
        <ele>257.674696</ele>
        <time>2024-12-17T10:42:02.000Z</time>
      </trkpt>
      <trkpt lat="50.287" lon="4.54721">
        <ele>257.653943</ele>
        <time>2024-12-17T10:42:03.000Z</time>
      </trkpt>
      <trkpt lat="50.28704" lon="4.54724">
        <ele>257.625331</ele>
        <time>2024-12-17T10:42:04.000Z</time>
      </trkpt>
      <trkpt lat="50.28706" lon="4.54725">
        <ele>257.606511</ele>
        <time>2024-12-17T10:42:05.000Z</time>
      </trkpt>
      <trkpt lat="50.28708" lon="4.54724">
        <ele>257.594408</ele>
        <time>2024-12-17T10:42:06.000Z</time>
      </trkpt>
      <trkpt lat="50.2871" lon="4.54725">
        <ele>257.581425</ele>
        <time>2024-12-17T10:42:07.000Z</time>
      </trkpt>
      <trkpt lat="50.28711" lon="4.54725">
        <ele>257.571405</ele>
        <time>2024-12-17T10:42:08.000Z</time>
      </trkpt>
      <trkpt lat="50.28715" lon="4.54726">
        <ele>257.546978</ele>
        <time>2024-12-17T10:42:09.000Z</time>
      </trkpt>
      <trkpt lat="50.28719" lon="4.54729">
        <ele>257.514566</ele>
        <time>2024-12-17T10:42:10.000Z</time>
      </trkpt>
      <trkpt lat="50.28724" lon="4.54732">
        <ele>257.481046</ele>
        <time>2024-12-17T10:42:11.000Z</time>
      </trkpt>
      <trkpt lat="50.28726" lon="4.54734">
        <ele>257.463478</ele>
        <time>2024-12-17T10:42:12.000Z</time>
      </trkpt>
      <trkpt lat="50.2873" lon="4.54738">
        <ele>257.434585</ele>
        <time>2024-12-17T10:42:13.000Z</time>
      </trkpt>
      <trkpt lat="50.28732" lon="4.5474">
        <ele>257.414984</ele>
        <time>2024-12-17T10:42:14.000Z</time>
      </trkpt>
      <trkpt lat="50.28734" lon="4.54742">
        <ele>257.403077</ele>
        <time>2024-12-17T10:42:15.000Z</time>
      </trkpt>
      <trkpt lat="50.28736" lon="4.54743">
        <ele>257.304528</ele>
        <time>2024-12-17T10:42:16.000Z</time>
      </trkpt>
      <trkpt lat="50.28738" lon="4.54745">
        <ele>257.176637</ele>
        <time>2024-12-17T10:42:17.000Z</time>
      </trkpt>
      <trkpt lat="50.28742" lon="4.54745">
        <ele>257.013248</ele>
        <time>2024-12-17T10:42:18.000Z</time>
      </trkpt>
      <trkpt lat="50.28744" lon="4.54746">
        <ele>256.882984</ele>
        <time>2024-12-17T10:42:19.000Z</time>
      </trkpt>
      <trkpt lat="50.28748" lon="4.54748">
        <ele>256.667414</ele>
        <time>2024-12-17T10:42:20.000Z</time>
      </trkpt>
      <trkpt lat="50.28751" lon="4.54749">
        <ele>256.541752</ele>
        <time>2024-12-17T10:42:21.000Z</time>
      </trkpt>
      <trkpt lat="50.28754" lon="4.5475">
        <ele>256.414972</ele>
        <time>2024-12-17T10:42:22.000Z</time>
      </trkpt>
      <trkpt lat="50.28756" lon="4.5475">
        <ele>256.280277</ele>
        <time>2024-12-17T10:42:23.000Z</time>
      </trkpt>
      <trkpt lat="50.28761" lon="4.54749">
        <ele>256.036707</ele>
        <time>2024-12-17T10:42:24.000Z</time>
      </trkpt>
      <trkpt lat="50.28765" lon="4.54748">
        <ele>255.875734</ele>
        <time>2024-12-17T10:42:25.000Z</time>
      </trkpt>
      <trkpt lat="50.28768" lon="4.54747">
        <ele>255.728334</ele>
        <time>2024-12-17T10:42:26.000Z</time>
      </trkpt>
      <trkpt lat="50.28771" lon="4.54745">
        <ele>255.55215</ele>
        <time>2024-12-17T10:42:27.000Z</time>
      </trkpt>
      <trkpt lat="50.28775" lon="4.54743">
        <ele>255.369579</ele>
        <time>2024-12-17T10:42:28.000Z</time>
      </trkpt>
      <trkpt lat="50.28777" lon="4.54741">
        <ele>255.217288</ele>
        <time>2024-12-17T10:42:29.000Z</time>
      </trkpt>
      <trkpt lat="50.2878" lon="4.54738">
        <ele>255.073044</ele>
        <time>2024-12-17T10:42:30.000Z</time>
      </trkpt>
      <trkpt lat="50.28782" lon="4.54735">
        <ele>254.942026</ele>
        <time>2024-12-17T10:42:31.000Z</time>
      </trkpt>
      <trkpt lat="50.28784" lon="4.54733">
        <ele>254.824317</ele>
        <time>2024-12-17T10:42:32.000Z</time>
      </trkpt>
      <trkpt lat="50.28785" lon="4.54729">
        <ele>254.699969</ele>
        <time>2024-12-17T10:42:33.000Z</time>
      </trkpt>
      <trkpt lat="50.28786" lon="4.54727">
        <ele>254.611757</ele>
        <time>2024-12-17T10:42:34.000Z</time>
      </trkpt>
      <trkpt lat="50.28788" lon="4.54725">
        <ele>254.530349</ele>
        <time>2024-12-17T10:42:35.000Z</time>
      </trkpt>
      <trkpt lat="50.2879" lon="4.54723">
        <ele>254.409599</ele>
        <time>2024-12-17T10:42:36.000Z</time>
      </trkpt>
      <trkpt lat="50.28792" lon="4.54722">
        <ele>254.303023</ele>
        <time>2024-12-17T10:42:37.000Z</time>
      </trkpt>
      <trkpt lat="50.28794" lon="4.54722">
        <ele>254.210895</ele>
        <time>2024-12-17T10:42:38.000Z</time>
      </trkpt>
      <trkpt lat="50.28796" lon="4.5472">
        <ele>254.07421</ele>
        <time>2024-12-17T10:42:39.000Z</time>
      </trkpt>
      <trkpt lat="50.288" lon="4.54717">
        <ele>253.865381</ele>
        <time>2024-12-17T10:42:40.000Z</time>
      </trkpt>
      <trkpt lat="50.28804" lon="4.54715">
        <ele>253.686327</ele>
        <time>2024-12-17T10:42:41.000Z</time>
      </trkpt>
      <trkpt lat="50.28807" lon="4.54714">
        <ele>253.520618</ele>
        <time>2024-12-17T10:42:42.000Z</time>
      </trkpt>
      <trkpt lat="50.28811" lon="4.54715">
        <ele>253.347373</ele>
        <time>2024-12-17T10:42:43.000Z</time>
      </trkpt>
      <trkpt lat="50.28814" lon="4.54714">
        <ele>253.174265</ele>
        <time>2024-12-17T10:42:44.000Z</time>
      </trkpt>
      <trkpt lat="50.28818" lon="4.54715">
        <ele>253.017452</ele>
        <time>2024-12-17T10:42:45.000Z</time>
      </trkpt>
      <trkpt lat="50.28821" lon="4.54717">
        <ele>252.833876</ele>
        <time>2024-12-17T10:42:46.000Z</time>
      </trkpt>
      <trkpt lat="50.28826" lon="4.54718">
        <ele>252.620634</ele>
        <time>2024-12-17T10:42:47.000Z</time>
      </trkpt>
      <trkpt lat="50.28829" lon="4.54721">
        <ele>252.438786</ele>
        <time>2024-12-17T10:42:48.000Z</time>
      </trkpt>
      <trkpt lat="50.28833" lon="4.54725">
        <ele>252.216382</ele>
        <time>2024-12-17T10:42:49.000Z</time>
      </trkpt>
      <trkpt lat="50.28837" lon="4.54729">
        <ele>252.002428</ele>
        <time>2024-12-17T10:42:50.000Z</time>
      </trkpt>
      <trkpt lat="50.2884" lon="4.54733">
        <ele>251.797736</ele>
        <time>2024-12-17T10:42:51.000Z</time>
      </trkpt>
      <trkpt lat="50.28842" lon="4.54738">
        <ele>251.62949</ele>
        <time>2024-12-17T10:42:52.000Z</time>
      </trkpt>
      <trkpt lat="50.28843" lon="4.54743">
        <ele>251.452871</ele>
        <time>2024-12-17T10:42:53.000Z</time>
      </trkpt>
      <trkpt lat="50.28846" lon="4.54748">
        <ele>251.246705</ele>
        <time>2024-12-17T10:42:54.000Z</time>
      </trkpt>
      <trkpt lat="50.28849" lon="4.54752">
        <ele>251.071506</ele>
        <time>2024-12-17T10:42:55.000Z</time>
      </trkpt>
      <trkpt lat="50.28851" lon="4.54756">
        <ele>250.907757</ele>
        <time>2024-12-17T10:42:56.000Z</time>
      </trkpt>
      <trkpt lat="50.28853" lon="4.5476">
        <ele>250.752478</ele>
        <time>2024-12-17T10:42:57.000Z</time>
      </trkpt>
      <trkpt lat="50.28855" lon="4.54764">
        <ele>250.590426</ele>
        <time>2024-12-17T10:42:58.000Z</time>
      </trkpt>
      <trkpt lat="50.28857" lon="4.54767">
        <ele>250.438917</ele>
        <time>2024-12-17T10:42:59.000Z</time>
      </trkpt>
      <trkpt lat="50.28859" lon="4.54771">
        <ele>250.299186</ele>
        <time>2024-12-17T10:43:00.000Z</time>
      </trkpt>
      <trkpt lat="50.2886" lon="4.54777">
        <ele>250.126998</ele>
        <time>2024-12-17T10:43:01.000Z</time>
      </trkpt>
      <trkpt lat="50.28859" lon="4.54781">
        <ele>249.988081</ele>
        <time>2024-12-17T10:43:02.000Z</time>
      </trkpt>
      <trkpt lat="50.28859" lon="4.54785">
        <ele>249.861927</ele>
        <time>2024-12-17T10:43:03.000Z</time>
      </trkpt>
      <trkpt lat="50.28858" lon="4.54788">
        <ele>249.758077</ele>
        <time>2024-12-17T10:43:04.000Z</time>
      </trkpt>
      <trkpt lat="50.28858" lon="4.54792">
        <ele>249.650185</ele>
        <time>2024-12-17T10:43:05.000Z</time>
      </trkpt>
      <trkpt lat="50.28858" lon="4.54796">
        <ele>249.526527</ele>
        <time>2024-12-17T10:43:06.000Z</time>
      </trkpt>
      <trkpt lat="50.28858" lon="4.548">
        <ele>249.394152</ele>
        <time>2024-12-17T10:43:07.000Z</time>
      </trkpt>
      <trkpt lat="50.28858" lon="4.54804">
        <ele>249.286582</ele>
        <time>2024-12-17T10:43:08.000Z</time>
      </trkpt>
      <trkpt lat="50.28859" lon="4.54806">
        <ele>249.203126</ele>
        <time>2024-12-17T10:43:09.000Z</time>
      </trkpt>
      <trkpt lat="50.28858" lon="4.54809">
        <ele>249.125025</ele>
        <time>2024-12-17T10:43:10.000Z</time>
      </trkpt>
      <trkpt lat="50.28858" lon="4.54812">
        <ele>249.045195</ele>
        <time>2024-12-17T10:43:11.000Z</time>
      </trkpt>
      <trkpt lat="50.28858" lon="4.54814">
        <ele>248.959225</ele>
        <time>2024-12-17T10:43:12.000Z</time>
      </trkpt>
      <trkpt lat="50.28858" lon="4.54817">
        <ele>248.88715</ele>
        <time>2024-12-17T10:43:13.000Z</time>
      </trkpt>
      <trkpt lat="50.28857" lon="4.54819">
        <ele>248.813706</ele>
        <time>2024-12-17T10:43:14.000Z</time>
      </trkpt>
      <trkpt lat="50.28857" lon="4.54821">
        <ele>248.752246</ele>
        <time>2024-12-17T10:43:15.000Z</time>
      </trkpt>
      <trkpt lat="50.28857" lon="4.54823">
        <ele>248.702532</ele>
        <time>2024-12-17T10:43:16.000Z</time>
      </trkpt>
      <trkpt lat="50.28857" lon="4.54825">
        <ele>248.65319</ele>
        <time>2024-12-17T10:43:17.000Z</time>
      </trkpt>
      <trkpt lat="50.28857" lon="4.54829">
        <ele>248.576405</ele>
        <time>2024-12-17T10:43:18.000Z</time>
      </trkpt>
      <trkpt lat="50.28856" lon="4.54833">
        <ele>248.477939</ele>
        <time>2024-12-17T10:43:19.000Z</time>
      </trkpt>
      <trkpt lat="50.28855" lon="4.54838">
        <ele>248.364125</ele>
        <time>2024-12-17T10:43:20.000Z</time>
      </trkpt>
      <trkpt lat="50.28855" lon="4.54843">
        <ele>248.243268</ele>
        <time>2024-12-17T10:43:21.000Z</time>
      </trkpt>
      <trkpt lat="50.28856" lon="4.54848">
        <ele>248.128316</ele>
        <time>2024-12-17T10:43:22.000Z</time>
      </trkpt>
      <trkpt lat="50.28856" lon="4.54854">
        <ele>248.009282</ele>
        <time>2024-12-17T10:43:23.000Z</time>
      </trkpt>
      <trkpt lat="50.28857" lon="4.54859">
        <ele>247.895221</ele>
        <time>2024-12-17T10:43:24.000Z</time>
      </trkpt>
      <trkpt lat="50.28857" lon="4.54863">
        <ele>247.785801</ele>
        <time>2024-12-17T10:43:25.000Z</time>
      </trkpt>
      <trkpt lat="50.28857" lon="4.54869">
        <ele>247.665946</ele>
        <time>2024-12-17T10:43:26.000Z</time>
      </trkpt>
      <trkpt lat="50.28857" lon="4.54873">
        <ele>247.565213</ele>
        <time>2024-12-17T10:43:27.000Z</time>
      </trkpt>
      <trkpt lat="50.28858" lon="4.54877">
        <ele>247.461591</ele>
        <time>2024-12-17T10:43:28.000Z</time>
      </trkpt>
      <trkpt lat="50.28859" lon="4.54881">
        <ele>247.376663</ele>
        <time>2024-12-17T10:43:29.000Z</time>
      </trkpt>
      <trkpt lat="50.28861" lon="4.54883">
        <ele>247.302803</ele>
        <time>2024-12-17T10:43:30.000Z</time>
      </trkpt>
      <trkpt lat="50.28861" lon="4.54887">
        <ele>247.216645</ele>
        <time>2024-12-17T10:43:31.000Z</time>
      </trkpt>
      <trkpt lat="50.28861" lon="4.54889">
        <ele>247.158989</ele>
        <time>2024-12-17T10:43:32.000Z</time>
      </trkpt>
      <trkpt lat="50.2886" lon="4.54892">
        <ele>247.098245</ele>
        <time>2024-12-17T10:43:33.000Z</time>
      </trkpt>
      <trkpt lat="50.2886" lon="4.54893">
        <ele>247.071851</ele>
        <time>2024-12-17T10:43:34.000Z</time>
      </trkpt>
      <trkpt lat="50.28859" lon="4.54896">
        <ele>246.992521</ele>
        <time>2024-12-17T10:43:35.000Z</time>
      </trkpt>
      <trkpt lat="50.28858" lon="4.54899">
        <ele>246.918376</ele>
        <time>2024-12-17T10:43:36.000Z</time>
      </trkpt>
      <trkpt lat="50.28858" lon="4.54903">
        <ele>246.842232</ele>
        <time>2024-12-17T10:43:37.000Z</time>
      </trkpt>
      <trkpt lat="50.28856" lon="4.54907">
        <ele>246.713685</ele>
        <time>2024-12-17T10:43:38.000Z</time>
      </trkpt>
      <trkpt lat="50.28855" lon="4.54912">
        <ele>246.602861</ele>
        <time>2024-12-17T10:43:39.000Z</time>
      </trkpt>
      <trkpt lat="50.28857" lon="4.54915">
        <ele>246.486517</ele>
        <time>2024-12-17T10:43:40.000Z</time>
      </trkpt>
      <trkpt lat="50.28861" lon="4.54915">
        <ele>246.37447</ele>
        <time>2024-12-17T10:43:41.000Z</time>
      </trkpt>
      <trkpt lat="50.28862" lon="4.54915">
        <ele>246.328732</ele>
        <time>2024-12-17T10:43:42.000Z</time>
      </trkpt>
      <trkpt lat="50.28865" lon="4.54915">
        <ele>246.237009</ele>
        <time>2024-12-17T10:43:43.000Z</time>
      </trkpt>
      <trkpt lat="50.28866" lon="4.54917">
        <ele>246.181755</ele>
        <time>2024-12-17T10:43:44.000Z</time>
      </trkpt>
      <trkpt lat="50.28868" lon="4.5492">
        <ele>246.092895</ele>
        <time>2024-12-17T10:43:45.000Z</time>
      </trkpt>
      <trkpt lat="50.28869" lon="4.54923">
        <ele>246.003187</ele>
        <time>2024-12-17T10:43:46.000Z</time>
      </trkpt>
      <trkpt lat="50.28869" lon="4.54925">
        <ele>245.951732</ele>
        <time>2024-12-17T10:43:47.000Z</time>
      </trkpt>
      <trkpt lat="50.28871" lon="4.54929">
        <ele>245.834848</ele>
        <time>2024-12-17T10:43:48.000Z</time>
      </trkpt>
      <trkpt lat="50.28873" lon="4.54933">
        <ele>245.720127</ele>
        <time>2024-12-17T10:43:49.000Z</time>
      </trkpt>
      <trkpt lat="50.28874" lon="4.54938">
        <ele>245.614638</ele>
        <time>2024-12-17T10:43:50.000Z</time>
      </trkpt>
      <trkpt lat="50.28876" lon="4.54943">
        <ele>245.471361</ele>
        <time>2024-12-17T10:43:51.000Z</time>
      </trkpt>
      <trkpt lat="50.28878" lon="4.54947">
        <ele>245.36774</ele>
        <time>2024-12-17T10:43:52.000Z</time>
      </trkpt>
      <trkpt lat="50.28881" lon="4.54952">
        <ele>245.212653</ele>
        <time>2024-12-17T10:43:53.000Z</time>
      </trkpt>
      <trkpt lat="50.28883" lon="4.54956">
        <ele>245.100795</ele>
        <time>2024-12-17T10:43:54.000Z</time>
      </trkpt>
      <trkpt lat="50.28886" lon="4.5496">
        <ele>244.958685</ele>
        <time>2024-12-17T10:43:55.000Z</time>
      </trkpt>
      <trkpt lat="50.28888" lon="4.54964">
        <ele>244.832628</ele>
        <time>2024-12-17T10:43:56.000Z</time>
      </trkpt>
      <trkpt lat="50.28891" lon="4.54968">
        <ele>244.72191</ele>
        <time>2024-12-17T10:43:57.000Z</time>
      </trkpt>
      <trkpt lat="50.28893" lon="4.54971">
        <ele>244.616116</ele>
        <time>2024-12-17T10:43:58.000Z</time>
      </trkpt>
      <trkpt lat="50.28895" lon="4.54974">
        <ele>244.494776</ele>
        <time>2024-12-17T10:43:59.000Z</time>
      </trkpt>
      <trkpt lat="50.28898" lon="4.54978">
        <ele>244.37733</ele>
        <time>2024-12-17T10:44:00.000Z</time>
      </trkpt>
      <trkpt lat="50.289" lon="4.54981">
        <ele>244.281228</ele>
        <time>2024-12-17T10:44:01.000Z</time>
      </trkpt>
      <trkpt lat="50.28902" lon="4.54984">
        <ele>244.183168</ele>
        <time>2024-12-17T10:44:02.000Z</time>
      </trkpt>
      <trkpt lat="50.28905" lon="4.54986">
        <ele>244.073466</ele>
        <time>2024-12-17T10:44:03.000Z</time>
      </trkpt>
      <trkpt lat="50.28908" lon="4.54988">
        <ele>243.9658</ele>
        <time>2024-12-17T10:44:04.000Z</time>
      </trkpt>
      <trkpt lat="50.2891" lon="4.54989">
        <ele>243.862175</ele>
        <time>2024-12-17T10:44:05.000Z</time>
      </trkpt>
      <trkpt lat="50.28913" lon="4.54992">
        <ele>243.745205</ele>
        <time>2024-12-17T10:44:06.000Z</time>
      </trkpt>
      <trkpt lat="50.28916" lon="4.54993">
        <ele>243.638347</ele>
        <time>2024-12-17T10:44:07.000Z</time>
      </trkpt>
      <trkpt lat="50.28919" lon="4.54995">
        <ele>243.528073</ele>
        <time>2024-12-17T10:44:08.000Z</time>
      </trkpt>
      <trkpt lat="50.28921" lon="4.54997">
        <ele>243.438032</ele>
        <time>2024-12-17T10:44:09.000Z</time>
      </trkpt>
      <trkpt lat="50.28924" lon="4.54999">
        <ele>243.321011</ele>
        <time>2024-12-17T10:44:10.000Z</time>
      </trkpt>
      <trkpt lat="50.28927" lon="4.55002">
        <ele>243.205856</ele>
        <time>2024-12-17T10:44:11.000Z</time>
      </trkpt>
      <trkpt lat="50.2893" lon="4.55005">
        <ele>243.091859</ele>
        <time>2024-12-17T10:44:12.000Z</time>
      </trkpt>
      <trkpt lat="50.28933" lon="4.55007">
        <ele>242.981353</ele>
        <time>2024-12-17T10:44:13.000Z</time>
      </trkpt>
      <trkpt lat="50.28935" lon="4.5501">
        <ele>242.860854</ele>
        <time>2024-12-17T10:44:14.000Z</time>
      </trkpt>
      <trkpt lat="50.28938" lon="4.55013">
        <ele>242.757363</ele>
        <time>2024-12-17T10:44:15.000Z</time>
      </trkpt>
      <trkpt lat="50.2894" lon="4.55016">
        <ele>242.648112</ele>
        <time>2024-12-17T10:44:16.000Z</time>
      </trkpt>
      <trkpt lat="50.28943" lon="4.5502">
        <ele>242.517107</ele>
        <time>2024-12-17T10:44:17.000Z</time>
      </trkpt>
      <trkpt lat="50.28946" lon="4.55024">
        <ele>242.339932</ele>
        <time>2024-12-17T10:44:18.000Z</time>
      </trkpt>
      <trkpt lat="50.28949" lon="4.55027">
        <ele>242.128314</ele>
        <time>2024-12-17T10:44:19.000Z</time>
      </trkpt>
      <trkpt lat="50.28951" lon="4.5503">
        <ele>241.957151</ele>
        <time>2024-12-17T10:44:20.000Z</time>
      </trkpt>
      <trkpt lat="50.28952" lon="4.55034">
        <ele>241.793523</ele>
        <time>2024-12-17T10:44:21.000Z</time>
      </trkpt>
      <trkpt lat="50.28954" lon="4.55037">
        <ele>241.635909</ele>
        <time>2024-12-17T10:44:22.000Z</time>
      </trkpt>
      <trkpt lat="50.28956" lon="4.5504">
        <ele>241.47291</ele>
        <time>2024-12-17T10:44:23.000Z</time>
      </trkpt>
      <trkpt lat="50.28958" lon="4.55044">
        <ele>241.315659</ele>
        <time>2024-12-17T10:44:24.000Z</time>
      </trkpt>
      <trkpt lat="50.28959" lon="4.55047">
        <ele>241.18178</ele>
        <time>2024-12-17T10:44:25.000Z</time>
      </trkpt>
      <trkpt lat="50.2896" lon="4.55051">
        <ele>241.005275</ele>
        <time>2024-12-17T10:44:26.000Z</time>
      </trkpt>
      <trkpt lat="50.28963" lon="4.55055">
        <ele>240.776188</ele>
        <time>2024-12-17T10:44:27.000Z</time>
      </trkpt>
      <trkpt lat="50.28966" lon="4.55059">
        <ele>240.577797</ele>
        <time>2024-12-17T10:44:28.000Z</time>
      </trkpt>
      <trkpt lat="50.28969" lon="4.55062">
        <ele>240.337785</ele>
        <time>2024-12-17T10:44:29.000Z</time>
      </trkpt>
      <trkpt lat="50.28973" lon="4.55064">
        <ele>240.104653</ele>
        <time>2024-12-17T10:44:30.000Z</time>
      </trkpt>
      <trkpt lat="50.28977" lon="4.55067">
        <ele>239.850872</ele>
        <time>2024-12-17T10:44:31.000Z</time>
      </trkpt>
      <trkpt lat="50.28981" lon="4.55071">
        <ele>239.569526</ele>
        <time>2024-12-17T10:44:32.000Z</time>
      </trkpt>
      <trkpt lat="50.28985" lon="4.55073">
        <ele>239.336394</ele>
        <time>2024-12-17T10:44:33.000Z</time>
      </trkpt>
      <trkpt lat="50.28988" lon="4.55076">
        <ele>239.109313</ele>
        <time>2024-12-17T10:44:34.000Z</time>
      </trkpt>
      <trkpt lat="50.28992" lon="4.55078">
        <ele>238.876344</ele>
        <time>2024-12-17T10:44:35.000Z</time>
      </trkpt>
      <trkpt lat="50.28995" lon="4.5508">
        <ele>238.691672</ele>
        <time>2024-12-17T10:44:36.000Z</time>
      </trkpt>
      <trkpt lat="50.28998" lon="4.55082">
        <ele>238.519063</ele>
        <time>2024-12-17T10:44:37.000Z</time>
      </trkpt>
      <trkpt lat="50.29" lon="4.55085">
        <ele>238.316591</ele>
        <time>2024-12-17T10:44:38.000Z</time>
      </trkpt>
      <trkpt lat="50.29004" lon="4.5509">
        <ele>238.033745</ele>
        <time>2024-12-17T10:44:39.000Z</time>
      </trkpt>
      <trkpt lat="50.29007" lon="4.55095">
        <ele>237.757615</ele>
        <time>2024-12-17T10:44:40.000Z</time>
      </trkpt>
      <trkpt lat="50.2901" lon="4.55101">
        <ele>237.493415</ele>
        <time>2024-12-17T10:44:41.000Z</time>
      </trkpt>
      <trkpt lat="50.29015" lon="4.55105">
        <ele>237.187122</ele>
        <time>2024-12-17T10:44:42.000Z</time>
      </trkpt>
      <trkpt lat="50.29017" lon="4.5511">
        <ele>236.962627</ele>
        <time>2024-12-17T10:44:43.000Z</time>
      </trkpt>
      <trkpt lat="50.29019" lon="4.55114">
        <ele>236.775287</ele>
        <time>2024-12-17T10:44:44.000Z</time>
      </trkpt>
      <trkpt lat="50.29024" lon="4.55117">
        <ele>236.498808</ele>
        <time>2024-12-17T10:44:45.000Z</time>
      </trkpt>
      <trkpt lat="50.29028" lon="4.5512">
        <ele>236.229193</ele>
        <time>2024-12-17T10:44:46.000Z</time>
      </trkpt>
      <trkpt lat="50.29031" lon="4.55124">
        <ele>235.978652</ele>
        <time>2024-12-17T10:44:47.000Z</time>
      </trkpt>
      <trkpt lat="50.29034" lon="4.5513">
        <ele>235.722803</ele>
        <time>2024-12-17T10:44:48.000Z</time>
      </trkpt>
      <trkpt lat="50.29037" lon="4.55134">
        <ele>235.480137</ele>
        <time>2024-12-17T10:44:49.000Z</time>
      </trkpt>
      <trkpt lat="50.29039" lon="4.55138">
        <ele>235.268085</ele>
        <time>2024-12-17T10:44:50.000Z</time>
      </trkpt>
      <trkpt lat="50.29042" lon="4.55141">
        <ele>235.100111</ele>
        <time>2024-12-17T10:44:51.000Z</time>
      </trkpt>
      <trkpt lat="50.29044" lon="4.55144">
        <ele>234.906762</ele>
        <time>2024-12-17T10:44:52.000Z</time>
      </trkpt>
      <trkpt lat="50.29048" lon="4.55146">
        <ele>234.697895</ele>
        <time>2024-12-17T10:44:53.000Z</time>
      </trkpt>
      <trkpt lat="50.2905" lon="4.55149">
        <ele>234.527437</ele>
        <time>2024-12-17T10:44:54.000Z</time>
      </trkpt>
      <trkpt lat="50.29053" lon="4.55151">
        <ele>234.359943</ele>
        <time>2024-12-17T10:44:55.000Z</time>
      </trkpt>
      <trkpt lat="50.29055" lon="4.55154">
        <ele>234.165898</ele>
        <time>2024-12-17T10:44:56.000Z</time>
      </trkpt>
      <trkpt lat="50.29058" lon="4.55157">
        <ele>233.977293</ele>
        <time>2024-12-17T10:44:57.000Z</time>
      </trkpt>
      <trkpt lat="50.2906" lon="4.5516">
        <ele>233.795567</ele>
        <time>2024-12-17T10:44:58.000Z</time>
      </trkpt>
      <trkpt lat="50.29062" lon="4.55162">
        <ele>233.666146</ele>
        <time>2024-12-17T10:44:59.000Z</time>
      </trkpt>
      <trkpt lat="50.29064" lon="4.55164">
        <ele>233.559096</ele>
        <time>2024-12-17T10:45:00.000Z</time>
      </trkpt>
      <trkpt lat="50.29065" lon="4.55165">
        <ele>233.458963</ele>
        <time>2024-12-17T10:45:01.000Z</time>
      </trkpt>
      <trkpt lat="50.29067" lon="4.55167">
        <ele>233.341674</ele>
        <time>2024-12-17T10:45:02.000Z</time>
      </trkpt>
      <trkpt lat="50.29069" lon="4.55169">
        <ele>233.194497</ele>
        <time>2024-12-17T10:45:03.000Z</time>
      </trkpt>
      <trkpt lat="50.29071" lon="4.55171">
        <ele>233.009826</ele>
        <time>2024-12-17T10:45:04.000Z</time>
      </trkpt>
      <trkpt lat="50.29074" lon="4.55173">
        <ele>232.856168</ele>
        <time>2024-12-17T10:45:05.000Z</time>
      </trkpt>
      <trkpt lat="50.29076" lon="4.55176">
        <ele>232.695593</ele>
        <time>2024-12-17T10:45:06.000Z</time>
      </trkpt>
      <trkpt lat="50.29078" lon="4.55177">
        <ele>232.582901</ele>
        <time>2024-12-17T10:45:07.000Z</time>
      </trkpt>
      <trkpt lat="50.29079" lon="4.55181">
        <ele>232.424734</ele>
        <time>2024-12-17T10:45:08.000Z</time>
      </trkpt>
      <trkpt lat="50.29082" lon="4.55185">
        <ele>232.182069</ele>
        <time>2024-12-17T10:45:09.000Z</time>
      </trkpt>
      <trkpt lat="50.29085" lon="4.5519">
        <ele>231.943113</ele>
        <time>2024-12-17T10:45:10.000Z</time>
      </trkpt>
      <trkpt lat="50.29088" lon="4.55195">
        <ele>231.597081</ele>
        <time>2024-12-17T10:45:11.000Z</time>
      </trkpt>
      <trkpt lat="50.29091" lon="4.552">
        <ele>231.221259</ele>
        <time>2024-12-17T10:45:12.000Z</time>
      </trkpt>
      <trkpt lat="50.29095" lon="4.55205">
        <ele>230.788159</ele>
        <time>2024-12-17T10:45:13.000Z</time>
      </trkpt>
      <trkpt lat="50.291" lon="4.5521">
        <ele>230.333045</ele>
        <time>2024-12-17T10:45:14.000Z</time>
      </trkpt>
      <trkpt lat="50.29105" lon="4.55214">
        <ele>229.882498</ele>
        <time>2024-12-17T10:45:15.000Z</time>
      </trkpt>
      <trkpt lat="50.2911" lon="4.55218">
        <ele>229.477156</ele>
        <time>2024-12-17T10:45:16.000Z</time>
      </trkpt>
      <trkpt lat="50.29114" lon="4.55224">
        <ele>229.034653</ele>
        <time>2024-12-17T10:45:17.000Z</time>
      </trkpt>
      <trkpt lat="50.29117" lon="4.55228">
        <ele>228.712433</ele>
        <time>2024-12-17T10:45:18.000Z</time>
      </trkpt>
      <trkpt lat="50.2912" lon="4.55231">
        <ele>228.411376</ele>
        <time>2024-12-17T10:45:19.000Z</time>
      </trkpt>
      <trkpt lat="50.29124" lon="4.55233">
        <ele>228.116303</ele>
        <time>2024-12-17T10:45:20.000Z</time>
      </trkpt>
      <trkpt lat="50.29127" lon="4.55235">
        <ele>227.807031</ele>
        <time>2024-12-17T10:45:21.000Z</time>
      </trkpt>
      <trkpt lat="50.29131" lon="4.55237">
        <ele>227.497074</ele>
        <time>2024-12-17T10:45:22.000Z</time>
      </trkpt>
      <trkpt lat="50.29135" lon="4.55239">
        <ele>227.159067</ele>
        <time>2024-12-17T10:45:23.000Z</time>
      </trkpt>
      <trkpt lat="50.29139" lon="4.5524">
        <ele>226.816648</ele>
        <time>2024-12-17T10:45:24.000Z</time>
      </trkpt>
      <trkpt lat="50.29142" lon="4.55242">
        <ele>226.573248</ele>
        <time>2024-12-17T10:45:25.000Z</time>
      </trkpt>
      <trkpt lat="50.29143" lon="4.55243">
        <ele>226.436888</ele>
        <time>2024-12-17T10:45:26.000Z</time>
      </trkpt>
      <trkpt lat="50.29146" lon="4.55244">
        <ele>226.187229</ele>
        <time>2024-12-17T10:45:27.000Z</time>
      </trkpt>
      <trkpt lat="50.29149" lon="4.55244">
        <ele>225.946129</ele>
        <time>2024-12-17T10:45:28.000Z</time>
      </trkpt>
      <trkpt lat="50.29153" lon="4.55245">
        <ele>225.654503</ele>
        <time>2024-12-17T10:45:29.000Z</time>
      </trkpt>
      <trkpt lat="50.29156" lon="4.55246">
        <ele>225.441984</ele>
        <time>2024-12-17T10:45:30.000Z</time>
      </trkpt>
      <trkpt lat="50.29158" lon="4.55246">
        <ele>225.224468</ele>
        <time>2024-12-17T10:45:31.000Z</time>
      </trkpt>
      <trkpt lat="50.29162" lon="4.55246">
        <ele>224.967767</ele>
        <time>2024-12-17T10:45:32.000Z</time>
      </trkpt>
      <trkpt lat="50.29164" lon="4.55246">
        <ele>224.750674</ele>
        <time>2024-12-17T10:45:33.000Z</time>
      </trkpt>
      <trkpt lat="50.29165" lon="4.55246">
        <ele>224.702552</ele>
        <time>2024-12-17T10:45:34.000Z</time>
      </trkpt>
      <trkpt lat="50.29165" lon="4.55246">
        <ele>224.661162</ele>
        <time>2024-12-17T10:45:35.000Z</time>
      </trkpt>
      <trkpt lat="50.29167" lon="4.55246">
        <ele>224.556772</ele>
        <time>2024-12-17T10:45:36.000Z</time>
      </trkpt>
      <trkpt lat="50.29172" lon="4.55244">
        <ele>224.125685</ele>
        <time>2024-12-17T10:45:40.000Z</time>
      </trkpt>
      <trkpt lat="50.29174" lon="4.55244">
        <ele>223.969135</ele>
        <time>2024-12-17T10:45:41.000Z</time>
      </trkpt>
      <trkpt lat="50.29175" lon="4.55243">
        <ele>223.838278</ele>
        <time>2024-12-17T10:45:42.000Z</time>
      </trkpt>
      <trkpt lat="50.29177" lon="4.55242">
        <ele>223.714854</ele>
        <time>2024-12-17T10:45:43.000Z</time>
      </trkpt>
      <trkpt lat="50.29178" lon="4.55241">
        <ele>223.572094</ele>
        <time>2024-12-17T10:45:44.000Z</time>
      </trkpt>
      <trkpt lat="50.2918" lon="4.55239">
        <ele>223.399054</ele>
        <time>2024-12-17T10:45:45.000Z</time>
      </trkpt>
      <trkpt lat="50.29183" lon="4.55237">
        <ele>223.180442</ele>
        <time>2024-12-17T10:45:46.000Z</time>
      </trkpt>
      <trkpt lat="50.29186" lon="4.55236">
        <ele>222.943085</ele>
        <time>2024-12-17T10:45:47.000Z</time>
      </trkpt>
      <trkpt lat="50.29189" lon="4.55232">
        <ele>222.601539</ele>
        <time>2024-12-17T10:45:48.000Z</time>
      </trkpt>
      <trkpt lat="50.29193" lon="4.55229">
        <ele>222.275161</ele>
        <time>2024-12-17T10:45:49.000Z</time>
      </trkpt>
      <trkpt lat="50.29195" lon="4.55224">
        <ele>221.956599</ele>
        <time>2024-12-17T10:45:50.000Z</time>
      </trkpt>
      <trkpt lat="50.29198" lon="4.5522">
        <ele>221.621662</ele>
        <time>2024-12-17T10:45:51.000Z</time>
      </trkpt>
      <trkpt lat="50.29202" lon="4.55216">
        <ele>221.274089</ele>
        <time>2024-12-17T10:45:52.000Z</time>
      </trkpt>
      <trkpt lat="50.29206" lon="4.55212">
        <ele>220.890612</ele>
        <time>2024-12-17T10:45:53.000Z</time>
      </trkpt>
      <trkpt lat="50.2921" lon="4.55208">
        <ele>220.522168</ele>
        <time>2024-12-17T10:45:54.000Z</time>
      </trkpt>
      <trkpt lat="50.29213" lon="4.55204">
        <ele>220.162057</ele>
        <time>2024-12-17T10:45:55.000Z</time>
      </trkpt>
      <trkpt lat="50.29218" lon="4.55199">
        <ele>219.694453</ele>
        <time>2024-12-17T10:45:56.000Z</time>
      </trkpt>
      <trkpt lat="50.29222" lon="4.55193">
        <ele>219.261552</ele>
        <time>2024-12-17T10:45:57.000Z</time>
      </trkpt>
      <trkpt lat="50.29225" lon="4.55186">
        <ele>218.850675</ele>
        <time>2024-12-17T10:45:58.000Z</time>
      </trkpt>
      <trkpt lat="50.29228" lon="4.55179">
        <ele>218.414392</ele>
        <time>2024-12-17T10:45:59.000Z</time>
      </trkpt>
      <trkpt lat="50.2923" lon="4.55171">
        <ele>217.968132</ele>
        <time>2024-12-17T10:46:00.000Z</time>
      </trkpt>
      <trkpt lat="50.29232" lon="4.55164">
        <ele>217.56114</ele>
        <time>2024-12-17T10:46:01.000Z</time>
      </trkpt>
      <trkpt lat="50.29236" lon="4.55157">
        <ele>217.4694</ele>
        <time>2024-12-17T10:46:02.000Z</time>
      </trkpt>
      <trkpt lat="50.29239" lon="4.55151">
        <ele>217.412912</ele>
        <time>2024-12-17T10:46:03.000Z</time>
      </trkpt>
      <trkpt lat="50.29241" lon="4.55146">
        <ele>217.36673</ele>
        <time>2024-12-17T10:46:04.000Z</time>
      </trkpt>
      <trkpt lat="50.29243" lon="4.5514">
        <ele>217.317903</ele>
        <time>2024-12-17T10:46:05.000Z</time>
      </trkpt>
      <trkpt lat="50.29244" lon="4.55133">
        <ele>217.265777</ele>
        <time>2024-12-17T10:46:06.000Z</time>
      </trkpt>
      <trkpt lat="50.29246" lon="4.55127">
        <ele>217.213208</ele>
        <time>2024-12-17T10:46:07.000Z</time>
      </trkpt>
      <trkpt lat="50.29248" lon="4.55122">
        <ele>217.168333</ele>
        <time>2024-12-17T10:46:08.000Z</time>
      </trkpt>
      <trkpt lat="50.2925" lon="4.55116">
        <ele>217.116634</ele>
        <time>2024-12-17T10:46:09.000Z</time>
      </trkpt>
      <trkpt lat="50.29254" lon="4.55108">
        <ele>217.040217</ele>
        <time>2024-12-17T10:46:10.000Z</time>
      </trkpt>
      <trkpt lat="50.29256" lon="4.55103">
        <ele>216.996459</ele>
        <time>2024-12-17T10:46:11.000Z</time>
      </trkpt>
      <trkpt lat="50.29257" lon="4.55097">
        <ele>216.950414</ele>
        <time>2024-12-17T10:46:12.000Z</time>
      </trkpt>
      <trkpt lat="50.29259" lon="4.55091">
        <ele>216.898492</ele>
        <time>2024-12-17T10:46:13.000Z</time>
      </trkpt>
      <trkpt lat="50.2926" lon="4.55084">
        <ele>216.844027</ele>
        <time>2024-12-17T10:46:14.000Z</time>
      </trkpt>
      <trkpt lat="50.29261" lon="4.55078">
        <ele>216.795727</ele>
        <time>2024-12-17T10:46:15.000Z</time>
      </trkpt>
      <trkpt lat="50.2926" lon="4.55072">
        <ele>216.750773</ele>
        <time>2024-12-17T10:46:16.000Z</time>
      </trkpt>
      <trkpt lat="50.29262" lon="4.55067">
        <ele>216.712222</ele>
        <time>2024-12-17T10:46:17.000Z</time>
      </trkpt>
      <trkpt lat="50.29261" lon="4.55063">
        <ele>216.68043</ele>
        <time>2024-12-17T10:46:18.000Z</time>
      </trkpt>
      <trkpt lat="50.29259" lon="4.55059">
        <ele>216.638684</ele>
        <time>2024-12-17T10:46:19.000Z</time>
      </trkpt>
      <trkpt lat="50.29257" lon="4.55053">
        <ele>216.586654</ele>
        <time>2024-12-17T10:46:20.000Z</time>
      </trkpt>
      <trkpt lat="50.29257" lon="4.55048">
        <ele>216.549948</ele>
        <time>2024-12-17T10:46:21.000Z</time>
      </trkpt>
      <trkpt lat="50.29253" lon="4.55042">
        <ele>216.486143</ele>
        <time>2024-12-17T10:46:22.000Z</time>
      </trkpt>
      <trkpt lat="50.29254" lon="4.55038">
        <ele>216.448921</ele>
        <time>2024-12-17T10:46:23.000Z</time>
      </trkpt>
      <trkpt lat="50.29257" lon="4.55034">
        <ele>216.404575</ele>
        <time>2024-12-17T10:46:24.000Z</time>
      </trkpt>
      <trkpt lat="50.2926" lon="4.5503">
        <ele>216.361572</ele>
        <time>2024-12-17T10:46:25.000Z</time>
      </trkpt>
      <trkpt lat="50.2926" lon="4.55027">
        <ele>216.343441</ele>
        <time>2024-12-17T10:46:26.000Z</time>
      </trkpt>
      <trkpt lat="50.29261" lon="4.55026">
        <ele>216.328198</ele>
        <time>2024-12-17T10:46:27.000Z</time>
      </trkpt>
      <trkpt lat="50.29261" lon="4.55025">
        <ele>216.316026</ele>
        <time>2024-12-17T10:46:28.000Z</time>
      </trkpt>
      <trkpt lat="50.29262" lon="4.55023">
        <ele>216.301039</ele>
        <time>2024-12-17T10:46:29.000Z</time>
      </trkpt>
      <trkpt lat="50.2926" lon="4.54985">
        <ele>216.019415</ele>
        <time>2024-12-17T10:46:40.000Z</time>
      </trkpt>
      <trkpt lat="50.29261" lon="4.54982">
        <ele>215.994785</ele>
        <time>2024-12-17T10:46:41.000Z</time>
      </trkpt>
      <trkpt lat="50.29261" lon="4.54979">
        <ele>215.967715</ele>
        <time>2024-12-17T10:46:42.000Z</time>
      </trkpt>
      <trkpt lat="50.29259" lon="4.54975">
        <ele>215.936631</ele>
        <time>2024-12-17T10:46:43.000Z</time>
      </trkpt>
      <trkpt lat="50.29259" lon="4.54971">
        <ele>215.905232</ele>
        <time>2024-12-17T10:46:44.000Z</time>
      </trkpt>
      <trkpt lat="50.29259" lon="4.54967">
        <ele>215.877758</ele>
        <time>2024-12-17T10:46:45.000Z</time>
      </trkpt>
      <trkpt lat="50.2926" lon="4.54964">
        <ele>215.853071</ele>
        <time>2024-12-17T10:46:46.000Z</time>
      </trkpt>
      <trkpt lat="50.2926" lon="4.54961">
        <ele>215.827024</ele>
        <time>2024-12-17T10:46:47.000Z</time>
      </trkpt>
      <trkpt lat="50.29258" lon="4.54957">
        <ele>215.784671</ele>
        <time>2024-12-17T10:46:48.000Z</time>
      </trkpt>
      <trkpt lat="50.29257" lon="4.54952">
        <ele>215.750132</ele>
        <time>2024-12-17T10:46:49.000Z</time>
      </trkpt>
      <trkpt lat="50.29258" lon="4.54948">
        <ele>215.717256</ele>
        <time>2024-12-17T10:46:50.000Z</time>
      </trkpt>
      <trkpt lat="50.29258" lon="4.54944">
        <ele>215.688573</ele>
        <time>2024-12-17T10:46:51.000Z</time>
      </trkpt>
      <trkpt lat="50.2926" lon="4.5494">
        <ele>215.64941</ele>
        <time>2024-12-17T10:46:52.000Z</time>
      </trkpt>
      <trkpt lat="50.29262" lon="4.54936">
        <ele>215.615335</ele>
        <time>2024-12-17T10:46:53.000Z</time>
      </trkpt>
      <trkpt lat="50.29263" lon="4.54933">
        <ele>215.583702</ele>
        <time>2024-12-17T10:46:54.000Z</time>
      </trkpt>
      <trkpt lat="50.29265" lon="4.54929">
        <ele>215.547548</ele>
        <time>2024-12-17T10:46:55.000Z</time>
      </trkpt>
      <trkpt lat="50.29266" lon="4.54925">
        <ele>215.519752</ele>
        <time>2024-12-17T10:46:56.000Z</time>
      </trkpt>
      <trkpt lat="50.29268" lon="4.54923">
        <ele>215.487886</ele>
        <time>2024-12-17T10:46:57.000Z</time>
      </trkpt>
      <trkpt lat="50.29271" lon="4.54921">
        <ele>215.451575</ele>
        <time>2024-12-17T10:46:58.000Z</time>
      </trkpt>
      <trkpt lat="50.29273" lon="4.54919">
        <ele>215.423958</ele>
        <time>2024-12-17T10:46:59.000Z</time>
      </trkpt>
      <trkpt lat="50.29278" lon="4.54915">
        <ele>215.540704</ele>
        <time>2024-12-17T10:47:00.000Z</time>
      </trkpt>
      <trkpt lat="50.29283" lon="4.5491">
        <ele>215.690479</ele>
        <time>2024-12-17T10:47:01.000Z</time>
      </trkpt>
      <trkpt lat="50.29287" lon="4.54906">
        <ele>215.806126</ele>
        <time>2024-12-17T10:47:02.000Z</time>
      </trkpt>
      <trkpt lat="50.29291" lon="4.54902">
        <ele>215.912711</ele>
        <time>2024-12-17T10:47:03.000Z</time>
      </trkpt>
      <trkpt lat="50.29295" lon="4.549">
        <ele>216.024464</ele>
        <time>2024-12-17T10:47:04.000Z</time>
      </trkpt>
      <trkpt lat="50.29298" lon="4.54895">
        <ele>216.122073</ele>
        <time>2024-12-17T10:47:05.000Z</time>
      </trkpt>
      <trkpt lat="50.29301" lon="4.54893">
        <ele>216.205939</ele>
        <time>2024-12-17T10:47:06.000Z</time>
      </trkpt>
      <trkpt lat="50.29302" lon="4.54892">
        <ele>216.231491</ele>
        <time>2024-12-17T10:47:07.000Z</time>
      </trkpt>
      <trkpt lat="50.29304" lon="4.54891">
        <ele>216.278437</ele>
        <time>2024-12-17T10:47:08.000Z</time>
      </trkpt>
      <trkpt lat="50.29306" lon="4.5489">
        <ele>216.334389</ele>
        <time>2024-12-17T10:47:09.000Z</time>
      </trkpt>
      <trkpt lat="50.29309" lon="4.54891">
        <ele>216.392304</ele>
        <time>2024-12-17T10:47:10.000Z</time>
      </trkpt>
      <trkpt lat="50.29311" lon="4.54892">
        <ele>216.449756</ele>
        <time>2024-12-17T10:47:11.000Z</time>
      </trkpt>
      <trkpt lat="50.29311" lon="4.54894">
        <ele>216.478197</ele>
        <time>2024-12-17T10:47:12.000Z</time>
      </trkpt>
      <trkpt lat="50.29311" lon="4.54896">
        <ele>216.51039</ele>
        <time>2024-12-17T10:47:13.000Z</time>
      </trkpt>
      <trkpt lat="50.29311" lon="4.54898">
        <ele>216.546376</ele>
        <time>2024-12-17T10:47:14.000Z</time>
      </trkpt>
      <trkpt lat="50.29312" lon="4.54901">
        <ele>216.585884</ele>
        <time>2024-12-17T10:47:15.000Z</time>
      </trkpt>
      <trkpt lat="50.29313" lon="4.54901">
        <ele>216.6088</ele>
        <time>2024-12-17T10:47:16.000Z</time>
      </trkpt>
      <trkpt lat="50.29312" lon="4.54903">
        <ele>216.635299</ele>
        <time>2024-12-17T10:47:17.000Z</time>
      </trkpt>
      <trkpt lat="50.29313" lon="4.54905">
        <ele>216.66779</ele>
        <time>2024-12-17T10:47:18.000Z</time>
      </trkpt>
      <trkpt lat="50.29314" lon="4.54906">
        <ele>216.705655</ele>
        <time>2024-12-17T10:47:19.000Z</time>
      </trkpt>
      <trkpt lat="50.29315" lon="4.54907">
        <ele>216.733054</ele>
        <time>2024-12-17T10:47:20.000Z</time>
      </trkpt>
      <trkpt lat="50.29317" lon="4.54909">
        <ele>216.768515</ele>
        <time>2024-12-17T10:47:21.000Z</time>
      </trkpt>
      <trkpt lat="50.29318" lon="4.5491">
        <ele>216.810421</ele>
        <time>2024-12-17T10:47:22.000Z</time>
      </trkpt>
      <trkpt lat="50.2932" lon="4.54911">
        <ele>216.856789</ele>
        <time>2024-12-17T10:47:23.000Z</time>
      </trkpt>
      <trkpt lat="50.29322" lon="4.54912">
        <ele>216.900929</ele>
        <time>2024-12-17T10:47:24.000Z</time>
      </trkpt>
      <trkpt lat="50.29323" lon="4.54914">
        <ele>216.953025</ele>
        <time>2024-12-17T10:47:25.000Z</time>
      </trkpt>
      <trkpt lat="50.29325" lon="4.54916">
        <ele>217.009735</ele>
        <time>2024-12-17T10:47:26.000Z</time>
      </trkpt>
      <trkpt lat="50.29327" lon="4.54919">
        <ele>217.071151</ele>
        <time>2024-12-17T10:47:27.000Z</time>
      </trkpt>
      <trkpt lat="50.29329" lon="4.54922">
        <ele>217.132045</ele>
        <time>2024-12-17T10:47:28.000Z</time>
      </trkpt>
      <trkpt lat="50.29331" lon="4.54924">
        <ele>217.191868</ele>
        <time>2024-12-17T10:47:29.000Z</time>
      </trkpt>
      <trkpt lat="50.29333" lon="4.54927">
        <ele>217.251428</ele>
        <time>2024-12-17T10:47:30.000Z</time>
      </trkpt>
      <trkpt lat="50.29335" lon="4.54929">
        <ele>217.312844</ele>
        <time>2024-12-17T10:47:31.000Z</time>
      </trkpt>
      <trkpt lat="50.29337" lon="4.54932">
        <ele>217.371616</ele>
        <time>2024-12-17T10:47:32.000Z</time>
      </trkpt>
      <trkpt lat="50.29338" lon="4.54935">
        <ele>217.433194</ele>
        <time>2024-12-17T10:47:33.000Z</time>
      </trkpt>
      <trkpt lat="50.2934" lon="4.54937">
        <ele>217.491779</ele>
        <time>2024-12-17T10:47:34.000Z</time>
      </trkpt>
      <trkpt lat="50.29342" lon="4.54939">
        <ele>217.548489</ele>
        <time>2024-12-17T10:47:35.000Z</time>
      </trkpt>
      <trkpt lat="50.29344" lon="4.54941">
        <ele>217.598593</ele>
        <time>2024-12-17T10:47:36.000Z</time>
      </trkpt>
      <trkpt lat="50.29345" lon="4.54943">
        <ele>217.636095</ele>
        <time>2024-12-17T10:47:37.000Z</time>
      </trkpt>
      <trkpt lat="50.29346" lon="4.54945">
        <ele>217.683376</ele>
        <time>2024-12-17T10:47:38.000Z</time>
      </trkpt>
      <trkpt lat="50.29349" lon="4.54947">
        <ele>217.743165</ele>
        <time>2024-12-17T10:47:39.000Z</time>
      </trkpt>
      <trkpt lat="50.29351" lon="4.54948">
        <ele>217.79638</ele>
        <time>2024-12-17T10:47:40.000Z</time>
      </trkpt>
      <trkpt lat="50.29352" lon="4.54949">
        <ele>217.844611</ele>
        <time>2024-12-17T10:47:41.000Z</time>
      </trkpt>
      <trkpt lat="50.29354" lon="4.5495">
        <ele>217.892711</ele>
        <time>2024-12-17T10:47:42.000Z</time>
      </trkpt>
      <trkpt lat="50.29356" lon="4.54951">
        <ele>217.942245</ele>
        <time>2024-12-17T10:47:43.000Z</time>
      </trkpt>
      <trkpt lat="50.29358" lon="4.54952">
        <ele>217.989082</ele>
        <time>2024-12-17T10:47:44.000Z</time>
      </trkpt>
      <trkpt lat="50.2936" lon="4.54953">
        <ele>218.029387</ele>
        <time>2024-12-17T10:47:45.000Z</time>
      </trkpt>
      <trkpt lat="50.29361" lon="4.54953">
        <ele>218.059184</ele>
        <time>2024-12-17T10:47:46.000Z</time>
      </trkpt>
      <trkpt lat="50.29362" lon="4.54953">
        <ele>218.090529</ele>
        <time>2024-12-17T10:47:47.000Z</time>
      </trkpt>
      <trkpt lat="50.29364" lon="4.54954">
        <ele>218.129409</ele>
        <time>2024-12-17T10:47:48.000Z</time>
      </trkpt>
      <trkpt lat="50.29366" lon="4.54954">
        <ele>218.1774</ele>
        <time>2024-12-17T10:47:49.000Z</time>
      </trkpt>
      <trkpt lat="50.29368" lon="4.54954">
        <ele>218.235173</ele>
        <time>2024-12-17T10:47:50.000Z</time>
      </trkpt>
      <trkpt lat="50.29371" lon="4.54953">
        <ele>218.302431</ele>
        <time>2024-12-17T10:47:51.000Z</time>
      </trkpt>
      <trkpt lat="50.29374" lon="4.54954">
        <ele>218.374679</ele>
        <time>2024-12-17T10:47:52.000Z</time>
      </trkpt>
      <trkpt lat="50.29377" lon="4.54954">
        <ele>218.444536</ele>
        <time>2024-12-17T10:47:53.000Z</time>
      </trkpt>
      <trkpt lat="50.2938" lon="4.54955">
        <ele>218.505766</ele>
        <time>2024-12-17T10:47:54.000Z</time>
      </trkpt>
      <trkpt lat="50.29382" lon="4.54955">
        <ele>218.556529</ele>
        <time>2024-12-17T10:47:55.000Z</time>
      </trkpt>
      <trkpt lat="50.29383" lon="4.54956">
        <ele>218.600396</ele>
        <time>2024-12-17T10:47:56.000Z</time>
      </trkpt>
      <trkpt lat="50.29385" lon="4.54956">
        <ele>218.646628</ele>
        <time>2024-12-17T10:47:57.000Z</time>
      </trkpt>
      <trkpt lat="50.29387" lon="4.54957">
        <ele>218.694262</ele>
        <time>2024-12-17T10:47:58.000Z</time>
      </trkpt>
      <trkpt lat="50.29389" lon="4.54958">
        <ele>218.740493</ele>
        <time>2024-12-17T10:47:59.000Z</time>
      </trkpt>
      <trkpt lat="50.29391" lon="4.54958">
        <ele>218.784999</ele>
        <time>2024-12-17T10:48:00.000Z</time>
      </trkpt>
      <trkpt lat="50.29393" lon="4.5496">
        <ele>218.836769</ele>
        <time>2024-12-17T10:48:01.000Z</time>
      </trkpt>
      <trkpt lat="50.29395" lon="4.5496">
        <ele>218.885151</ele>
        <time>2024-12-17T10:48:02.000Z</time>
      </trkpt>
      <trkpt lat="50.29397" lon="4.54961">
        <ele>218.926202</ele>
        <time>2024-12-17T10:48:03.000Z</time>
      </trkpt>
      <trkpt lat="50.29398" lon="4.54961">
        <ele>218.96487</ele>
        <time>2024-12-17T10:48:04.000Z</time>
      </trkpt>
      <trkpt lat="50.294" lon="4.54961">
        <ele>219.003385</ele>
        <time>2024-12-17T10:48:05.000Z</time>
      </trkpt>
      <trkpt lat="50.29402" lon="4.54961">
        <ele>219.046577</ele>
        <time>2024-12-17T10:48:06.000Z</time>
      </trkpt>
      <trkpt lat="50.29403" lon="4.54962">
        <ele>219.082894</ele>
        <time>2024-12-17T10:48:07.000Z</time>
      </trkpt>
      <trkpt lat="50.29404" lon="4.54962">
        <ele>219.117724</ele>
        <time>2024-12-17T10:48:08.000Z</time>
      </trkpt>
      <trkpt lat="50.29406" lon="4.54963">
        <ele>219.153487</ele>
        <time>2024-12-17T10:48:09.000Z</time>
      </trkpt>
      <trkpt lat="50.29407" lon="4.54964">
        <ele>219.189804</ele>
        <time>2024-12-17T10:48:10.000Z</time>
      </trkpt>
      <trkpt lat="50.29409" lon="4.54965">
        <ele>219.22507</ele>
        <time>2024-12-17T10:48:11.000Z</time>
      </trkpt>
      <trkpt lat="50.2941" lon="4.54966">
        <ele>219.259179</ele>
        <time>2024-12-17T10:48:12.000Z</time>
      </trkpt>
      <trkpt lat="50.29411" lon="4.54966">
        <ele>219.292698</ele>
        <time>2024-12-17T10:48:13.000Z</time>
      </trkpt>
      <trkpt lat="50.29412" lon="4.54967">
        <ele>219.32522</ele>
        <time>2024-12-17T10:48:14.000Z</time>
      </trkpt>
      <trkpt lat="50.29414" lon="4.54968">
        <ele>219.362021</ele>
        <time>2024-12-17T10:48:15.000Z</time>
      </trkpt>
      <trkpt lat="50.29415" lon="4.54968">
        <ele>219.395928</ele>
        <time>2024-12-17T10:48:16.000Z</time>
      </trkpt>
      <trkpt lat="50.29417" lon="4.54969">
        <ele>219.435792</ele>
        <time>2024-12-17T10:48:17.000Z</time>
      </trkpt>
      <trkpt lat="50.29418" lon="4.54969">
        <ele>219.471555</ele>
        <time>2024-12-17T10:48:18.000Z</time>
      </trkpt>
      <trkpt lat="50.2942" lon="4.5497">
        <ele>219.51007</ele>
        <time>2024-12-17T10:48:19.000Z</time>
      </trkpt>
      <trkpt lat="50.29421" lon="4.54969">
        <ele>219.538906</ele>
        <time>2024-12-17T10:48:20.000Z</time>
      </trkpt>
      <trkpt lat="50.29422" lon="4.5497">
        <ele>219.570138</ele>
        <time>2024-12-17T10:48:21.000Z</time>
      </trkpt>
      <trkpt lat="50.29424" lon="4.5497">
        <ele>219.601332</ele>
        <time>2024-12-17T10:48:22.000Z</time>
      </trkpt>
      <trkpt lat="50.29425" lon="4.5497">
        <ele>219.632565</ele>
        <time>2024-12-17T10:48:23.000Z</time>
      </trkpt>
      <trkpt lat="50.29426" lon="4.5497">
        <ele>219.6614</ele>
        <time>2024-12-17T10:48:24.000Z</time>
      </trkpt>
      <trkpt lat="50.29427" lon="4.5497">
        <ele>219.690358</ele>
        <time>2024-12-17T10:48:25.000Z</time>
      </trkpt>
      <trkpt lat="50.29429" lon="4.5497">
        <ele>219.728782</ele>
        <time>2024-12-17T10:48:26.000Z</time>
      </trkpt>
      <trkpt lat="50.2943" lon="4.5497">
        <ele>219.807182</ele>
        <time>2024-12-17T10:48:27.000Z</time>
      </trkpt>
      <trkpt lat="50.29432" lon="4.5497">
        <ele>219.897871</ele>
        <time>2024-12-17T10:48:28.000Z</time>
      </trkpt>
      <trkpt lat="50.29433" lon="4.54971">
        <ele>219.990506</ele>
        <time>2024-12-17T10:48:29.000Z</time>
      </trkpt>
      <trkpt lat="50.29435" lon="4.54971">
        <ele>220.095031</ele>
        <time>2024-12-17T10:48:30.000Z</time>
      </trkpt>
      <trkpt lat="50.29436" lon="4.54972">
        <ele>220.193966</ele>
        <time>2024-12-17T10:48:31.000Z</time>
      </trkpt>
      <trkpt lat="50.29438" lon="4.54972">
        <ele>220.287604</ele>
        <time>2024-12-17T10:48:32.000Z</time>
      </trkpt>
      <trkpt lat="50.29439" lon="4.54973">
        <ele>220.353288</ele>
        <time>2024-12-17T10:48:33.000Z</time>
      </trkpt>
      <trkpt lat="50.2944" lon="4.54973">
        <ele>220.437555</ele>
        <time>2024-12-17T10:48:34.000Z</time>
      </trkpt>
      <trkpt lat="50.29442" lon="4.54973">
        <ele>220.535107</ele>
        <time>2024-12-17T10:48:35.000Z</time>
      </trkpt>
      <trkpt lat="50.29443" lon="4.54972">
        <ele>220.651298</ele>
        <time>2024-12-17T10:48:36.000Z</time>
      </trkpt>
      <trkpt lat="50.29445" lon="4.54972">
        <ele>220.748151</ele>
        <time>2024-12-17T10:48:37.000Z</time>
      </trkpt>
      <trkpt lat="50.29446" lon="4.54972">
        <ele>220.83856</ele>
        <time>2024-12-17T10:48:38.000Z</time>
      </trkpt>
      <trkpt lat="50.29448" lon="4.54972">
        <ele>220.948536</ele>
        <time>2024-12-17T10:48:39.000Z</time>
      </trkpt>
      <trkpt lat="50.29449" lon="4.54972">
        <ele>221.033306</ele>
        <time>2024-12-17T10:48:40.000Z</time>
      </trkpt>
      <trkpt lat="50.29451" lon="4.54972">
        <ele>221.118075</ele>
        <time>2024-12-17T10:48:41.000Z</time>
      </trkpt>
      <trkpt lat="50.29452" lon="4.54971">
        <ele>221.216235</ele>
        <time>2024-12-17T10:48:42.000Z</time>
      </trkpt>
      <trkpt lat="50.29453" lon="4.54971">
        <ele>221.292836</ele>
        <time>2024-12-17T10:48:43.000Z</time>
      </trkpt>
      <trkpt lat="50.29454" lon="4.5497">
        <ele>221.355941</ele>
        <time>2024-12-17T10:48:44.000Z</time>
      </trkpt>
      <trkpt lat="50.29456" lon="4.5497">
        <ele>221.453493</ele>
        <time>2024-12-17T10:48:45.000Z</time>
      </trkpt>
      <trkpt lat="50.29457" lon="4.54969">
        <ele>221.539851</ele>
        <time>2024-12-17T10:48:46.000Z</time>
      </trkpt>
      <trkpt lat="50.29458" lon="4.54969">
        <ele>221.63801</ele>
        <time>2024-12-17T10:48:47.000Z</time>
      </trkpt>
      <trkpt lat="50.2946" lon="4.54968">
        <ele>221.72278</ele>
        <time>2024-12-17T10:48:48.000Z</time>
      </trkpt>
      <trkpt lat="50.2946" lon="4.54968">
        <ele>221.786334</ele>
        <time>2024-12-17T10:48:49.000Z</time>
      </trkpt>
      <trkpt lat="50.29461" lon="4.54967">
        <ele>221.819356</ele>
        <time>2024-12-17T10:48:50.000Z</time>
      </trkpt>
      <trkpt lat="50.29461" lon="4.54967">
        <ele>221.847625</ele>
        <time>2024-12-17T10:48:51.000Z</time>
      </trkpt>
      <trkpt lat="50.29462" lon="4.54966">
        <ele>221.91652</ele>
        <time>2024-12-17T10:48:52.000Z</time>
      </trkpt>
      <trkpt lat="50.29463" lon="4.54965">
        <ele>222.006631</ele>
        <time>2024-12-17T10:48:53.000Z</time>
      </trkpt>
      <trkpt lat="50.29465" lon="4.54964">
        <ele>222.09247</ele>
        <time>2024-12-17T10:48:54.000Z</time>
      </trkpt>
      <trkpt lat="50.29465" lon="4.54963">
        <ele>222.154078</ele>
        <time>2024-12-17T10:48:55.000Z</time>
      </trkpt>
      <trkpt lat="50.29467" lon="4.54963">
        <ele>222.22797</ele>
        <time>2024-12-17T10:48:56.000Z</time>
      </trkpt>
      <trkpt lat="50.29467" lon="4.54962">
        <ele>222.285196</ele>
        <time>2024-12-17T10:48:57.000Z</time>
      </trkpt>
      <trkpt lat="50.29468" lon="4.54961">
        <ele>222.354091</ele>
        <time>2024-12-17T10:48:58.000Z</time>
      </trkpt>
      <trkpt lat="50.29469" lon="4.54961">
        <ele>222.438232</ele>
        <time>2024-12-17T10:48:59.000Z</time>
      </trkpt>
      <trkpt lat="50.29471" lon="4.5496">
        <ele>222.525931</ele>
        <time>2024-12-17T10:49:00.000Z</time>
      </trkpt>
      <trkpt lat="50.29472" lon="4.54959">
        <ele>222.61177</ele>
        <time>2024-12-17T10:49:01.000Z</time>
      </trkpt>
      <trkpt lat="50.29473" lon="4.54958">
        <ele>222.667682</ele>
        <time>2024-12-17T10:49:02.000Z</time>
      </trkpt>
      <trkpt lat="50.29473" lon="4.54957">
        <ele>222.72129</ele>
        <time>2024-12-17T10:49:03.000Z</time>
      </trkpt>
      <trkpt lat="50.29474" lon="4.54956">
        <ele>222.769564</ele>
        <time>2024-12-17T10:49:04.000Z</time>
      </trkpt>
      <trkpt lat="50.29474" lon="4.54955">
        <ele>222.826527</ele>
        <time>2024-12-17T10:49:05.000Z</time>
      </trkpt>
      <trkpt lat="50.29475" lon="4.54954">
        <ele>222.910733</ele>
        <time>2024-12-17T10:49:06.000Z</time>
      </trkpt>
      <trkpt lat="50.29476" lon="4.54952">
        <ele>222.991261</ele>
        <time>2024-12-17T10:49:07.000Z</time>
      </trkpt>
      <trkpt lat="50.29477" lon="4.54951">
        <ele>223.070262</ele>
        <time>2024-12-17T10:49:08.000Z</time>
      </trkpt>
      <trkpt lat="50.29478" lon="4.5495">
        <ele>223.134248</ele>
        <time>2024-12-17T10:49:09.000Z</time>
      </trkpt>
      <trkpt lat="50.29479" lon="4.54949">
        <ele>223.206695</ele>
        <time>2024-12-17T10:49:10.000Z</time>
      </trkpt>
      <trkpt lat="50.29479" lon="4.54948">
        <ele>223.282961</ele>
        <time>2024-12-17T10:49:11.000Z</time>
      </trkpt>
      <trkpt lat="50.2948" lon="4.54946">
        <ele>223.370817</ele>
        <time>2024-12-17T10:49:12.000Z</time>
      </trkpt>
      <trkpt lat="50.29481" lon="4.54945">
        <ele>223.457662</ele>
        <time>2024-12-17T10:49:13.000Z</time>
      </trkpt>
      <trkpt lat="50.29481" lon="4.54943">
        <ele>223.544029</ele>
        <time>2024-12-17T10:49:14.000Z</time>
      </trkpt>
      <trkpt lat="50.29482" lon="4.54941">
        <ele>223.631045</ele>
        <time>2024-12-17T10:49:15.000Z</time>
      </trkpt>
      <trkpt lat="50.29483" lon="4.54939">
        <ele>223.717889</ele>
        <time>2024-12-17T10:49:16.000Z</time>
      </trkpt>
      <trkpt lat="50.29484" lon="4.54937">
        <ele>223.808256</ele>
        <time>2024-12-17T10:49:17.000Z</time>
      </trkpt>
      <trkpt lat="50.29484" lon="4.54935">
        <ele>223.899315</ele>
        <time>2024-12-17T10:49:18.000Z</time>
      </trkpt>
      <trkpt lat="50.29485" lon="4.54933">
        <ele>223.987997</ele>
        <time>2024-12-17T10:49:19.000Z</time>
      </trkpt>
      <trkpt lat="50.29485" lon="4.54931">
        <ele>224.074781</ele>
        <time>2024-12-17T10:49:20.000Z</time>
      </trkpt>
      <trkpt lat="50.29485" lon="4.54929">
        <ele>224.16329</ele>
        <time>2024-12-17T10:49:21.000Z</time>
      </trkpt>
      <trkpt lat="50.29486" lon="4.54927">
        <ele>224.235974</ele>
        <time>2024-12-17T10:49:22.000Z</time>
      </trkpt>
      <trkpt lat="50.29486" lon="4.54925">
        <ele>224.328333</ele>
        <time>2024-12-17T10:49:23.000Z</time>
      </trkpt>
      <trkpt lat="50.29487" lon="4.54924">
        <ele>224.408252</ele>
        <time>2024-12-17T10:49:24.000Z</time>
      </trkpt>
      <trkpt lat="50.29488" lon="4.54922">
        <ele>224.503488</ele>
        <time>2024-12-17T10:49:25.000Z</time>
      </trkpt>
      <trkpt lat="50.29488" lon="4.5492">
        <ele>224.583407</ele>
        <time>2024-12-17T10:49:26.000Z</time>
      </trkpt>
      <trkpt lat="50.29489" lon="4.54919">
        <ele>224.663448</ele>
        <time>2024-12-17T10:49:27.000Z</time>
      </trkpt>
      <trkpt lat="50.2949" lon="4.54917">
        <ele>224.747119</ele>
        <time>2024-12-17T10:49:28.000Z</time>
      </trkpt>
      <trkpt lat="50.2949" lon="4.54915">
        <ele>224.839827</ele>
        <time>2024-12-17T10:49:29.000Z</time>
      </trkpt>
      <trkpt lat="50.2949" lon="4.54913">
        <ele>224.922271</ele>
        <time>2024-12-17T10:49:30.000Z</time>
      </trkpt>
      <trkpt lat="50.29491" lon="4.54911">
        <ele>224.996931</ele>
        <time>2024-12-17T10:49:31.000Z</time>
      </trkpt>
      <trkpt lat="50.29491" lon="4.5491">
        <ele>225.061707</ele>
        <time>2024-12-17T10:49:32.000Z</time>
      </trkpt>
      <trkpt lat="50.29492" lon="4.54908">
        <ele>225.152097</ele>
        <time>2024-12-17T10:49:33.000Z</time>
      </trkpt>
      <trkpt lat="50.29493" lon="4.54906">
        <ele>225.254753</ele>
        <time>2024-12-17T10:49:34.000Z</time>
      </trkpt>
      <trkpt lat="50.29494" lon="4.54904">
        <ele>225.348953</ele>
        <time>2024-12-17T10:49:35.000Z</time>
      </trkpt>
      <trkpt lat="50.29494" lon="4.54903">
        <ele>225.425412</ele>
        <time>2024-12-17T10:49:36.000Z</time>
      </trkpt>
      <trkpt lat="50.29495" lon="4.54901">
        <ele>225.498347</ele>
        <time>2024-12-17T10:49:37.000Z</time>
      </trkpt>
      <trkpt lat="50.29495" lon="4.549">
        <ele>225.560882</ele>
        <time>2024-12-17T10:49:38.000Z</time>
      </trkpt>
      <trkpt lat="50.29495" lon="4.54897">
        <ele>225.656542</ele>
        <time>2024-12-17T10:49:39.000Z</time>
      </trkpt>
      <trkpt lat="50.29496" lon="4.54896">
        <ele>225.719077</ele>
        <time>2024-12-17T10:49:40.000Z</time>
      </trkpt>
      <trkpt lat="50.29496" lon="4.54895">
        <ele>225.785171</ele>
        <time>2024-12-17T10:49:41.000Z</time>
      </trkpt>
      <trkpt lat="50.29497" lon="4.54893">
        <ele>225.851271</ele>
        <time>2024-12-17T10:49:42.000Z</time>
      </trkpt>
      <trkpt lat="50.29498" lon="4.54892">
        <ele>225.921339</ele>
        <time>2024-12-17T10:49:43.000Z</time>
      </trkpt>
      <trkpt lat="50.29498" lon="4.54891">
        <ele>225.998748</ele>
        <time>2024-12-17T10:49:44.000Z</time>
      </trkpt>
      <trkpt lat="50.29499" lon="4.54889">
        <ele>226.076157</ele>
        <time>2024-12-17T10:49:45.000Z</time>
      </trkpt>
      <trkpt lat="50.295" lon="4.54888">
        <ele>226.15057</ele>
        <time>2024-12-17T10:49:46.000Z</time>
      </trkpt>
      <trkpt lat="50.29501" lon="4.54888">
        <ele>226.213675</ele>
        <time>2024-12-17T10:49:47.000Z</time>
      </trkpt>
      <trkpt lat="50.29502" lon="4.54888">
        <ele>226.273036</ele>
        <time>2024-12-17T10:49:48.000Z</time>
      </trkpt>
      <trkpt lat="50.29503" lon="4.54887">
        <ele>226.334644</ele>
        <time>2024-12-17T10:49:49.000Z</time>
      </trkpt>
      <trkpt lat="50.29504" lon="4.54886">
        <ele>226.386127</ele>
        <time>2024-12-17T10:49:50.000Z</time>
      </trkpt>
      <trkpt lat="50.29504" lon="4.54886">
        <ele>226.455023</ele>
        <time>2024-12-17T10:49:51.000Z</time>
      </trkpt>
      <trkpt lat="50.29505" lon="4.54884">
        <ele>226.521991</ele>
        <time>2024-12-17T10:49:52.000Z</time>
      </trkpt>
      <trkpt lat="50.29506" lon="4.54883">
        <ele>226.580428</ele>
        <time>2024-12-17T10:49:53.000Z</time>
      </trkpt>
      <trkpt lat="50.29507" lon="4.54882">
        <ele>226.651627</ele>
        <time>2024-12-17T10:49:54.000Z</time>
      </trkpt>
      <trkpt lat="50.29508" lon="4.54882">
        <ele>226.726039</ele>
        <time>2024-12-17T10:49:55.000Z</time>
      </trkpt>
      <trkpt lat="50.29509" lon="4.54881">
        <ele>226.806109</ele>
        <time>2024-12-17T10:49:56.000Z</time>
      </trkpt>
      <trkpt lat="50.2951" lon="4.5488">
        <ele>226.855745</ele>
        <time>2024-12-17T10:49:57.000Z</time>
      </trkpt>
      <trkpt lat="50.29566" lon="4.54823">
        <ele>231.178403</ele>
        <time>2024-12-17T10:50:56.000Z</time>
      </trkpt>
      <trkpt lat="50.29566" lon="4.54821">
        <ele>231.251668</ele>
        <time>2024-12-17T10:50:57.000Z</time>
      </trkpt>
      <trkpt lat="50.29567" lon="4.5482">
        <ele>231.339339</ele>
        <time>2024-12-17T10:50:58.000Z</time>
      </trkpt>
      <trkpt lat="50.29568" lon="4.54818">
        <ele>231.395032</ele>
        <time>2024-12-17T10:50:59.000Z</time>
      </trkpt>
      <trkpt lat="50.29569" lon="4.54816">
        <ele>231.459296</ele>
        <time>2024-12-17T10:51:00.000Z</time>
      </trkpt>
      <trkpt lat="50.29571" lon="4.54815">
        <ele>231.551937</ele>
        <time>2024-12-17T10:51:01.000Z</time>
      </trkpt>
      <trkpt lat="50.29572" lon="4.54814">
        <ele>231.609509</ele>
        <time>2024-12-17T10:51:02.000Z</time>
      </trkpt>
      <trkpt lat="50.29573" lon="4.54812">
        <ele>231.668692</ele>
        <time>2024-12-17T10:51:03.000Z</time>
      </trkpt>
      <trkpt lat="50.29574" lon="4.5481">
        <ele>231.741982</ele>
        <time>2024-12-17T10:51:04.000Z</time>
      </trkpt>
      <trkpt lat="50.29575" lon="4.54809">
        <ele>231.813347</ele>
        <time>2024-12-17T10:51:05.000Z</time>
      </trkpt>
      <trkpt lat="50.29577" lon="4.54807">
        <ele>231.89114</ele>
        <time>2024-12-17T10:51:06.000Z</time>
      </trkpt>
      <trkpt lat="50.29578" lon="4.54805">
        <ele>231.965665</ele>
        <time>2024-12-17T10:51:07.000Z</time>
      </trkpt>
      <trkpt lat="50.29579" lon="4.54804">
        <ele>232.024848</ele>
        <time>2024-12-17T10:51:08.000Z</time>
      </trkpt>
      <trkpt lat="50.29581" lon="4.54802">
        <ele>232.093386</ele>
        <time>2024-12-17T10:51:09.000Z</time>
      </trkpt>
      <trkpt lat="50.29582" lon="4.54801">
        <ele>232.156049</ele>
        <time>2024-12-17T10:51:10.000Z</time>
      </trkpt>
      <trkpt lat="50.29583" lon="4.548">
        <ele>232.221989</ele>
        <time>2024-12-17T10:51:11.000Z</time>
      </trkpt>
      <trkpt lat="50.29584" lon="4.54798">
        <ele>232.286872</ele>
        <time>2024-12-17T10:51:12.000Z</time>
      </trkpt>
      <trkpt lat="50.29585" lon="4.54796">
        <ele>232.348273</ele>
        <time>2024-12-17T10:51:13.000Z</time>
      </trkpt>
      <trkpt lat="50.29586" lon="4.54795">
        <ele>232.410936</ele>
        <time>2024-12-17T10:51:14.000Z</time>
      </trkpt>
      <trkpt lat="50.29587" lon="4.54794">
        <ele>232.47574</ele>
        <time>2024-12-17T10:51:15.000Z</time>
      </trkpt>
      <trkpt lat="50.29589" lon="4.54792">
        <ele>232.536884</ele>
        <time>2024-12-17T10:51:16.000Z</time>
      </trkpt>
      <trkpt lat="50.2959" lon="4.54792">
        <ele>232.59402</ele>
        <time>2024-12-17T10:51:17.000Z</time>
      </trkpt>
      <trkpt lat="50.29591" lon="4.54791">
        <ele>232.637173</ele>
        <time>2024-12-17T10:51:18.000Z</time>
      </trkpt>
      <trkpt lat="50.29592" lon="4.5479">
        <ele>232.689255</ele>
        <time>2024-12-17T10:51:19.000Z</time>
      </trkpt>
      <trkpt lat="50.29593" lon="4.54789">
        <ele>232.750292</ele>
        <time>2024-12-17T10:51:20.000Z</time>
      </trkpt>
      <trkpt lat="50.29594" lon="4.54788">
        <ele>232.808666</ele>
        <time>2024-12-17T10:51:21.000Z</time>
      </trkpt>
      <trkpt lat="50.29595" lon="4.54787">
        <ele>232.861147</ele>
        <time>2024-12-17T10:51:22.000Z</time>
      </trkpt>
      <trkpt lat="50.29597" lon="4.54786">
        <ele>232.923344</ele>
        <time>2024-12-17T10:51:23.000Z</time>
      </trkpt>
      <trkpt lat="50.29598" lon="4.54786">
        <ele>232.968421</ele>
        <time>2024-12-17T10:51:24.000Z</time>
      </trkpt>
      <trkpt lat="50.29599" lon="4.54785">
        <ele>233.011574</ele>
        <time>2024-12-17T10:51:25.000Z</time>
      </trkpt>
      <trkpt lat="50.296" lon="4.54784">
        <ele>233.061592</ele>
        <time>2024-12-17T10:51:26.000Z</time>
      </trkpt>
      <trkpt lat="50.29601" lon="4.54784">
        <ele>233.103597</ele>
        <time>2024-12-17T10:51:27.000Z</time>
      </trkpt>
      <trkpt lat="50.29601" lon="4.54783">
        <ele>233.144604</ele>
        <time>2024-12-17T10:51:28.000Z</time>
      </trkpt>
      <trkpt lat="50.29602" lon="4.54783">
        <ele>233.190589</ele>
        <time>2024-12-17T10:51:29.000Z</time>
      </trkpt>
      <trkpt lat="50.29603" lon="4.54782">
        <ele>233.229943</ele>
        <time>2024-12-17T10:51:30.000Z</time>
      </trkpt>
      <trkpt lat="50.29604" lon="4.54781">
        <ele>233.282026</ele>
        <time>2024-12-17T10:51:31.000Z</time>
      </trkpt>
      <trkpt lat="50.29606" lon="4.5478">
        <ele>233.336118</ele>
        <time>2024-12-17T10:51:32.000Z</time>
      </trkpt>
      <trkpt lat="50.29607" lon="4.54779">
        <ele>233.397262</ele>
        <time>2024-12-17T10:51:33.000Z</time>
      </trkpt>
      <trkpt lat="50.29608" lon="4.54779">
        <ele>233.448249</ele>
        <time>2024-12-17T10:51:34.000Z</time>
      </trkpt>
      <trkpt lat="50.29609" lon="4.54778">
        <ele>233.493325</ele>
        <time>2024-12-17T10:51:35.000Z</time>
      </trkpt>
      <trkpt lat="50.2961" lon="4.54778">
        <ele>233.559179</ele>
        <time>2024-12-17T10:51:36.000Z</time>
      </trkpt>
      <trkpt lat="50.29612" lon="4.54777">
        <ele>233.623174</ele>
        <time>2024-12-17T10:51:37.000Z</time>
      </trkpt>
      <trkpt lat="50.29613" lon="4.54776">
        <ele>233.689027</ele>
        <time>2024-12-17T10:51:38.000Z</time>
      </trkpt>
      <trkpt lat="50.29615" lon="4.54776">
        <ele>233.750136</ele>
        <time>2024-12-17T10:51:39.000Z</time>
      </trkpt>
      <trkpt lat="50.29616" lon="4.54775">
        <ele>233.791143</ele>
        <time>2024-12-17T10:51:40.000Z</time>
      </trkpt>
      <trkpt lat="50.29617" lon="4.54775">
        <ele>233.83818</ele>
        <time>2024-12-17T10:51:41.000Z</time>
      </trkpt>
      <trkpt lat="50.29618" lon="4.54774">
        <ele>233.89816</ele>
        <time>2024-12-17T10:51:42.000Z</time>
      </trkpt>
      <trkpt lat="50.29619" lon="4.54774">
        <ele>233.949687</ele>
        <time>2024-12-17T10:51:43.000Z</time>
      </trkpt>
      <trkpt lat="50.2962" lon="4.54774">
        <ele>234.005777</ele>
        <time>2024-12-17T10:51:44.000Z</time>
      </trkpt>
      <trkpt lat="50.29622" lon="4.54774">
        <ele>234.066453</ele>
        <time>2024-12-17T10:51:45.000Z</time>
      </trkpt>
      <trkpt lat="50.29623" lon="4.54774">
        <ele>234.135375</ele>
        <time>2024-12-17T10:51:46.000Z</time>
      </trkpt>
      <trkpt lat="50.29625" lon="4.54774">
        <ele>234.208424</ele>
        <time>2024-12-17T10:51:47.000Z</time>
      </trkpt>
      <trkpt lat="50.29626" lon="4.54773">
        <ele>234.260604</ele>
        <time>2024-12-17T10:51:48.000Z</time>
      </trkpt>
      <trkpt lat="50.29627" lon="4.54773">
        <ele>234.302608</ele>
        <time>2024-12-17T10:51:49.000Z</time>
      </trkpt>
      <trkpt lat="50.29629" lon="4.54772">
        <ele>234.373944</ele>
        <time>2024-12-17T10:51:50.000Z</time>
      </trkpt>
      <trkpt lat="50.2963" lon="4.54771">
        <ele>234.426026</ele>
        <time>2024-12-17T10:51:51.000Z</time>
      </trkpt>
      <trkpt lat="50.29631" lon="4.5477">
        <ele>234.482032</ele>
        <time>2024-12-17T10:51:52.000Z</time>
      </trkpt>
      <trkpt lat="50.29632" lon="4.5477">
        <ele>234.538038</ele>
        <time>2024-12-17T10:51:53.000Z</time>
      </trkpt>
      <trkpt lat="50.29634" lon="4.54769">
        <ele>234.600365</ele>
        <time>2024-12-17T10:51:54.000Z</time>
      </trkpt>
      <trkpt lat="50.29634" lon="4.54768">
        <ele>234.634634</ele>
        <time>2024-12-17T10:51:55.000Z</time>
      </trkpt>
      <trkpt lat="50.29635" lon="4.54768">
        <ele>234.683818</ele>
        <time>2024-12-17T10:51:56.000Z</time>
      </trkpt>
      <trkpt lat="50.29637" lon="4.54768">
        <ele>234.731131</ele>
        <time>2024-12-17T10:51:57.000Z</time>
      </trkpt>
      <trkpt lat="50.29638" lon="4.54767">
        <ele>234.783814</ele>
        <time>2024-12-17T10:51:58.000Z</time>
      </trkpt>
      <trkpt lat="50.29639" lon="4.54767">
        <ele>234.835414</ele>
        <time>2024-12-17T10:51:59.000Z</time>
      </trkpt>
      <trkpt lat="50.2964" lon="4.54767">
        <ele>234.882647</ele>
        <time>2024-12-17T10:52:00.000Z</time>
      </trkpt>
      <trkpt lat="50.29641" lon="4.54767">
        <ele>234.939072</ele>
        <time>2024-12-17T10:52:01.000Z</time>
      </trkpt>
      <trkpt lat="50.29642" lon="4.54766">
        <ele>234.989091</ele>
        <time>2024-12-17T10:52:02.000Z</time>
      </trkpt>
      <trkpt lat="50.29643" lon="4.54766">
        <ele>235.035076</ele>
        <time>2024-12-17T10:52:03.000Z</time>
      </trkpt>
      <trkpt lat="50.29645" lon="4.54766">
        <ele>235.108279</ele>
        <time>2024-12-17T10:52:04.000Z</time>
      </trkpt>
      <trkpt lat="50.29646" lon="4.54766">
        <ele>235.155592</ele>
        <time>2024-12-17T10:52:05.000Z</time>
      </trkpt>
      <trkpt lat="50.29647" lon="4.54766">
        <ele>235.191654</ele>
        <time>2024-12-17T10:52:06.000Z</time>
      </trkpt>
      <trkpt lat="50.29648" lon="4.54765">
        <ele>235.233658</ele>
        <time>2024-12-17T10:52:07.000Z</time>
      </trkpt>
      <trkpt lat="50.29649" lon="4.54765">
        <ele>235.27317</ele>
        <time>2024-12-17T10:52:08.000Z</time>
      </trkpt>
      <trkpt lat="50.2965" lon="4.54764">
        <ele>235.321115</ele>
        <time>2024-12-17T10:52:09.000Z</time>
      </trkpt>
      <trkpt lat="50.29651" lon="4.54764">
        <ele>235.357176</ele>
        <time>2024-12-17T10:52:10.000Z</time>
      </trkpt>
      <trkpt lat="50.29652" lon="4.54764">
        <ele>235.400464</ele>
        <time>2024-12-17T10:52:11.000Z</time>
      </trkpt>
      <trkpt lat="50.29653" lon="4.54763">
        <ele>235.448956</ele>
        <time>2024-12-17T10:52:12.000Z</time>
      </trkpt>
      <trkpt lat="50.29654" lon="4.54763">
        <ele>235.506437</ele>
        <time>2024-12-17T10:52:13.000Z</time>
      </trkpt>
      <trkpt lat="50.29656" lon="4.54762">
        <ele>235.567545</ele>
        <time>2024-12-17T10:52:14.000Z</time>
      </trkpt>
      <trkpt lat="50.29657" lon="4.54762">
        <ele>235.620228</ele>
        <time>2024-12-17T10:52:15.000Z</time>
      </trkpt>
      <trkpt lat="50.29658" lon="4.54762">
        <ele>235.668173</ele>
        <time>2024-12-17T10:52:16.000Z</time>
      </trkpt>
      <trkpt lat="50.29659" lon="4.54762">
        <ele>235.702634</ele>
        <time>2024-12-17T10:52:17.000Z</time>
      </trkpt>
      <trkpt lat="50.29659" lon="4.54761">
        <ele>235.737421</ele>
        <time>2024-12-17T10:52:18.000Z</time>
      </trkpt>
      <trkpt lat="50.29661" lon="4.54762">
        <ele>235.797599</ele>
        <time>2024-12-17T10:52:19.000Z</time>
      </trkpt>
      <trkpt lat="50.29662" lon="4.54761">
        <ele>235.836632</ele>
        <time>2024-12-17T10:52:20.000Z</time>
      </trkpt>
      <trkpt lat="50.29663" lon="4.54761">
        <ele>235.888232</ele>
        <time>2024-12-17T10:52:21.000Z</time>
      </trkpt>
      <trkpt lat="50.29664" lon="4.54762">
        <ele>235.931259</ele>
        <time>2024-12-17T10:52:22.000Z</time>
      </trkpt>
      <trkpt lat="50.29665" lon="4.54761">
        <ele>235.982859</ele>
        <time>2024-12-17T10:52:23.000Z</time>
      </trkpt>
      <trkpt lat="50.29667" lon="4.54761">
        <ele>236.051781</ele>
        <time>2024-12-17T10:52:24.000Z</time>
      </trkpt>
      <trkpt lat="50.29668" lon="4.54761">
        <ele>236.11619</ele>
        <time>2024-12-17T10:52:25.000Z</time>
      </trkpt>
      <trkpt lat="50.2967" lon="4.54761">
        <ele>236.176306</ele>
        <time>2024-12-17T10:52:26.000Z</time>
      </trkpt>
      <trkpt lat="50.29671" lon="4.54761">
        <ele>236.228124</ele>
        <time>2024-12-17T10:52:27.000Z</time>
      </trkpt>
      <trkpt lat="50.29672" lon="4.54761">
        <ele>236.277308</ele>
        <time>2024-12-17T10:52:28.000Z</time>
      </trkpt>
      <trkpt lat="50.29673" lon="4.5476">
        <ele>236.312632</ele>
        <time>2024-12-17T10:52:29.000Z</time>
      </trkpt>
      <trkpt lat="50.29674" lon="4.5476">
        <ele>236.364159</ele>
        <time>2024-12-17T10:52:30.000Z</time>
      </trkpt>
      <trkpt lat="50.29675" lon="4.5476">
        <ele>236.424524</ele>
        <time>2024-12-17T10:52:31.000Z</time>
      </trkpt>
      <trkpt lat="50.29676" lon="4.5476">
        <ele>236.471758</ele>
        <time>2024-12-17T10:52:32.000Z</time>
      </trkpt>
      <trkpt lat="50.29677" lon="4.54761">
        <ele>236.514785</ele>
        <time>2024-12-17T10:52:33.000Z</time>
      </trkpt>
      <trkpt lat="50.29678" lon="4.54761">
        <ele>236.557724</ele>
        <time>2024-12-17T10:52:34.000Z</time>
      </trkpt>
      <trkpt lat="50.2968" lon="4.5476">
        <ele>236.605037</ele>
        <time>2024-12-17T10:52:35.000Z</time>
      </trkpt>
      <trkpt lat="50.29681" lon="4.5476">
        <ele>236.660926</ele>
        <time>2024-12-17T10:52:36.000Z</time>
      </trkpt>
      <trkpt lat="50.29683" lon="4.5476">
        <ele>236.751141</ele>
        <time>2024-12-17T10:52:37.000Z</time>
      </trkpt>
      <trkpt lat="50.29684" lon="4.5476">
        <ele>236.815783</ele>
        <time>2024-12-17T10:52:38.000Z</time>
      </trkpt>
      <trkpt lat="50.29685" lon="4.5476">
        <ele>236.85881</ele>
        <time>2024-12-17T10:52:39.000Z</time>
      </trkpt>
      <trkpt lat="50.29687" lon="4.5476">
        <ele>236.914699</ele>
        <time>2024-12-17T10:52:40.000Z</time>
      </trkpt>
      <trkpt lat="50.29688" lon="4.5476">
        <ele>236.987902</ele>
        <time>2024-12-17T10:52:41.000Z</time>
      </trkpt>
      <trkpt lat="50.2969" lon="4.5476">
        <ele>237.069671</ele>
        <time>2024-12-17T10:52:42.000Z</time>
      </trkpt>
      <trkpt lat="50.29692" lon="4.5476">
        <ele>237.138593</ele>
        <time>2024-12-17T10:52:43.000Z</time>
      </trkpt>
      <trkpt lat="50.29693" lon="4.54761">
        <ele>237.203235</ele>
        <time>2024-12-17T10:52:44.000Z</time>
      </trkpt>
      <trkpt lat="50.29695" lon="4.54761">
        <ele>237.269088</ele>
        <time>2024-12-17T10:52:45.000Z</time>
      </trkpt>
      <trkpt lat="50.29697" lon="4.54761">
        <ele>237.346574</ele>
        <time>2024-12-17T10:52:46.000Z</time>
      </trkpt>
      <trkpt lat="50.29698" lon="4.54761">
        <ele>237.406752</ele>
        <time>2024-12-17T10:52:47.000Z</time>
      </trkpt>
      <trkpt lat="50.297" lon="4.54762">
        <ele>237.466929</ele>
        <time>2024-12-17T10:52:48.000Z</time>
      </trkpt>
      <trkpt lat="50.29701" lon="4.54762">
        <ele>237.523819</ele>
        <time>2024-12-17T10:52:49.000Z</time>
      </trkpt>
      <trkpt lat="50.29703" lon="4.54763">
        <ele>237.613972</ele>
        <time>2024-12-17T10:52:50.000Z</time>
      </trkpt>
      <trkpt lat="50.29704" lon="4.54764">
        <ele>237.681235</ele>
        <time>2024-12-17T10:52:51.000Z</time>
      </trkpt>
      <trkpt lat="50.29706" lon="4.54765">
        <ele>237.747713</ele>
        <time>2024-12-17T10:52:52.000Z</time>
      </trkpt>
      <trkpt lat="50.29707" lon="4.54765">
        <ele>237.807891</ele>
        <time>2024-12-17T10:52:53.000Z</time>
      </trkpt>
      <trkpt lat="50.29708" lon="4.54765">
        <ele>237.863981</ele>
        <time>2024-12-17T10:52:54.000Z</time>
      </trkpt>
      <trkpt lat="50.2971" lon="4.54765">
        <ele>237.91987</ele>
        <time>2024-12-17T10:52:55.000Z</time>
      </trkpt>
      <trkpt lat="50.29711" lon="4.54765">
        <ele>237.971397</ele>
        <time>2024-12-17T10:52:56.000Z</time>
      </trkpt>
      <trkpt lat="50.29712" lon="4.54765">
        <ele>238.023216</ele>
        <time>2024-12-17T10:52:57.000Z</time>
      </trkpt>
      <trkpt lat="50.29713" lon="4.54766">
        <ele>238.075899</ele>
        <time>2024-12-17T10:52:58.000Z</time>
      </trkpt>
      <trkpt lat="50.29715" lon="4.54766">
        <ele>238.141236</ele>
        <time>2024-12-17T10:52:59.000Z</time>
      </trkpt>
      <trkpt lat="50.29717" lon="4.54767">
        <ele>238.224464</ele>
        <time>2024-12-17T10:53:00.000Z</time>
      </trkpt>
      <trkpt lat="50.29719" lon="4.54767">
        <ele>238.30481</ele>
        <time>2024-12-17T10:53:01.000Z</time>
      </trkpt>
      <trkpt lat="50.2972" lon="4.54768">
        <ele>238.376146</ele>
        <time>2024-12-17T10:53:02.000Z</time>
      </trkpt>
      <trkpt lat="50.29722" lon="4.54768">
        <ele>238.44534</ele>
        <time>2024-12-17T10:53:03.000Z</time>
      </trkpt>
      <trkpt lat="50.29723" lon="4.54769">
        <ele>238.518799</ele>
        <time>2024-12-17T10:53:04.000Z</time>
      </trkpt>
      <trkpt lat="50.29725" lon="4.54769">
        <ele>238.592259</ele>
        <time>2024-12-17T10:53:05.000Z</time>
      </trkpt>
      <trkpt lat="50.29727" lon="4.54769">
        <ele>238.674578</ele>
        <time>2024-12-17T10:53:06.000Z</time>
      </trkpt>
      <trkpt lat="50.29729" lon="4.5477">
        <ele>238.769204</ele>
        <time>2024-12-17T10:53:07.000Z</time>
      </trkpt>
      <trkpt lat="50.29731" lon="4.5477">
        <ele>238.847703</ele>
        <time>2024-12-17T10:53:08.000Z</time>
      </trkpt>
      <trkpt lat="50.29733" lon="4.54771">
        <ele>238.926727</ele>
        <time>2024-12-17T10:53:09.000Z</time>
      </trkpt>
      <trkpt lat="50.29734" lon="4.54771">
        <ele>238.9963</ele>
        <time>2024-12-17T10:53:10.000Z</time>
      </trkpt>
      <trkpt lat="50.29736" lon="4.54771">
        <ele>239.060768</ele>
        <time>2024-12-17T10:53:11.000Z</time>
      </trkpt>
      <trkpt lat="50.29737" lon="4.54771">
        <ele>239.046586</ele>
        <time>2024-12-17T10:53:12.000Z</time>
      </trkpt>
      <trkpt lat="50.29739" lon="4.54771">
        <ele>239.028296</ele>
        <time>2024-12-17T10:53:13.000Z</time>
      </trkpt>
      <trkpt lat="50.29741" lon="4.54771">
        <ele>239.010021</ele>
        <time>2024-12-17T10:53:14.000Z</time>
      </trkpt>
      <trkpt lat="50.29742" lon="4.54771">
        <ele>238.99048</ele>
        <time>2024-12-17T10:53:15.000Z</time>
      </trkpt>
      <trkpt lat="50.29744" lon="4.54771">
        <ele>238.973331</ele>
        <time>2024-12-17T10:53:16.000Z</time>
      </trkpt>
      <trkpt lat="50.29745" lon="4.54771">
        <ele>238.958465</ele>
        <time>2024-12-17T10:53:17.000Z</time>
      </trkpt>
      <trkpt lat="50.29747" lon="4.54772">
        <ele>238.937699</ele>
        <time>2024-12-17T10:53:18.000Z</time>
      </trkpt>
      <trkpt lat="50.29749" lon="4.54772">
        <ele>238.913536</ele>
        <time>2024-12-17T10:53:19.000Z</time>
      </trkpt>
      <trkpt lat="50.29751" lon="4.54772">
        <ele>238.895203</ele>
        <time>2024-12-17T10:53:20.000Z</time>
      </trkpt>
      <trkpt lat="50.29752" lon="4.54773">
        <ele>238.877823</ele>
        <time>2024-12-17T10:53:21.000Z</time>
      </trkpt>
      <trkpt lat="50.29753" lon="4.54774">
        <ele>238.863196</ele>
        <time>2024-12-17T10:53:22.000Z</time>
      </trkpt>
      <trkpt lat="50.29754" lon="4.54775">
        <ele>238.849236</ele>
        <time>2024-12-17T10:53:23.000Z</time>
      </trkpt>
      <trkpt lat="50.29755" lon="4.54776">
        <ele>238.835698</ele>
        <time>2024-12-17T10:53:24.000Z</time>
      </trkpt>
      <trkpt lat="50.29755" lon="4.54778">
        <ele>238.823242</ele>
        <time>2024-12-17T10:53:25.000Z</time>
      </trkpt>
      <trkpt lat="50.29754" lon="4.5478">
        <ele>238.809669</ele>
        <time>2024-12-17T10:53:26.000Z</time>
      </trkpt>
      <trkpt lat="50.29754" lon="4.54782">
        <ele>238.791736</ele>
        <time>2024-12-17T10:53:27.000Z</time>
      </trkpt>
      <trkpt lat="50.29753" lon="4.54784">
        <ele>238.775046</ele>
        <time>2024-12-17T10:53:28.000Z</time>
      </trkpt>
      <trkpt lat="50.29753" lon="4.54786">
        <ele>238.759581</ele>
        <time>2024-12-17T10:53:29.000Z</time>
      </trkpt>
      <trkpt lat="50.29752" lon="4.54788">
        <ele>238.743881</ele>
        <time>2024-12-17T10:53:30.000Z</time>
      </trkpt>
      <trkpt lat="50.29752" lon="4.5479">
        <ele>238.726843</ele>
        <time>2024-12-17T10:53:31.000Z</time>
      </trkpt>
      <trkpt lat="50.29751" lon="4.54792">
        <ele>238.713846</ele>
        <time>2024-12-17T10:53:32.000Z</time>
      </trkpt>
      <trkpt lat="50.29751" lon="4.54794">
        <ele>238.696393</ele>
        <time>2024-12-17T10:53:33.000Z</time>
      </trkpt>
      <trkpt lat="50.2975" lon="4.54797">
        <ele>238.673771</ele>
        <time>2024-12-17T10:53:34.000Z</time>
      </trkpt>
      <trkpt lat="50.2975" lon="4.54799">
        <ele>238.658279</ele>
        <time>2024-12-17T10:53:35.000Z</time>
      </trkpt>
      <trkpt lat="50.29749" lon="4.54802">
        <ele>238.634288</ele>
        <time>2024-12-17T10:53:36.000Z</time>
      </trkpt>
      <trkpt lat="50.29749" lon="4.54805">
        <ele>238.613354</ele>
        <time>2024-12-17T10:53:37.000Z</time>
      </trkpt>
      <trkpt lat="50.29749" lon="4.54808">
        <ele>238.593131</ele>
        <time>2024-12-17T10:53:38.000Z</time>
      </trkpt>
      <trkpt lat="50.29748" lon="4.5481">
        <ele>238.573319</ele>
        <time>2024-12-17T10:53:39.000Z</time>
      </trkpt>
      <trkpt lat="50.29748" lon="4.54813">
        <ele>238.552461</ele>
        <time>2024-12-17T10:53:40.000Z</time>
      </trkpt>
      <trkpt lat="50.29747" lon="4.54816">
        <ele>238.528826</ele>
        <time>2024-12-17T10:53:41.000Z</time>
      </trkpt>
      <trkpt lat="50.29746" lon="4.54819">
        <ele>238.506204</ele>
        <time>2024-12-17T10:53:42.000Z</time>
      </trkpt>
      <trkpt lat="50.29746" lon="4.54823">
        <ele>238.479111</ele>
        <time>2024-12-17T10:53:43.000Z</time>
      </trkpt>
      <trkpt lat="50.29746" lon="4.54827">
        <ele>238.450449</ele>
        <time>2024-12-17T10:53:44.000Z</time>
      </trkpt>
      <trkpt lat="50.29745" lon="4.54831">
        <ele>238.417841</ele>
        <time>2024-12-17T10:53:45.000Z</time>
      </trkpt>
      <trkpt lat="50.29745" lon="4.54836">
        <ele>238.382651</ele>
        <time>2024-12-17T10:53:46.000Z</time>
      </trkpt>
      <trkpt lat="50.29745" lon="4.54841">
        <ele>238.348187</ele>
        <time>2024-12-17T10:53:47.000Z</time>
      </trkpt>
      <trkpt lat="50.29745" lon="4.54845">
        <ele>238.319708</ele>
        <time>2024-12-17T10:53:48.000Z</time>
      </trkpt>
      <trkpt lat="50.29744" lon="4.5485">
        <ele>238.279432</ele>
        <time>2024-12-17T10:53:49.000Z</time>
      </trkpt>
      <trkpt lat="50.29744" lon="4.54855">
        <ele>238.247307</ele>
        <time>2024-12-17T10:53:50.000Z</time>
      </trkpt>
      <trkpt lat="50.29744" lon="4.54859">
        <ele>238.215912</ele>
        <time>2024-12-17T10:53:51.000Z</time>
      </trkpt>
      <trkpt lat="50.29744" lon="4.54863">
        <ele>238.185076</ele>
        <time>2024-12-17T10:53:52.000Z</time>
      </trkpt>
      <trkpt lat="50.29744" lon="4.54867">
        <ele>238.153618</ele>
        <time>2024-12-17T10:53:53.000Z</time>
      </trkpt>
      <trkpt lat="50.29744" lon="4.54871">
        <ele>238.13002</ele>
        <time>2024-12-17T10:53:54.000Z</time>
      </trkpt>
      <trkpt lat="50.29744" lon="4.54875">
        <ele>238.097592</ele>
        <time>2024-12-17T10:53:55.000Z</time>
      </trkpt>
      <trkpt lat="50.29745" lon="4.54878">
        <ele>238.074132</ele>
        <time>2024-12-17T10:53:56.000Z</time>
      </trkpt>
      <trkpt lat="50.29745" lon="4.54881">
        <ele>238.050783</ele>
        <time>2024-12-17T10:53:57.000Z</time>
      </trkpt>
      <trkpt lat="50.29745" lon="4.54885">
        <ele>238.024516</ele>
        <time>2024-12-17T10:53:58.000Z</time>
      </trkpt>
      <trkpt lat="50.29745" lon="4.54889">
        <ele>237.994579</ele>
        <time>2024-12-17T10:53:59.000Z</time>
      </trkpt>
      <trkpt lat="50.29745" lon="4.54893">
        <ele>237.962151</ele>
        <time>2024-12-17T10:54:00.000Z</time>
      </trkpt>
      <trkpt lat="50.29745" lon="4.54898">
        <ele>237.929298</ele>
        <time>2024-12-17T10:54:01.000Z</time>
      </trkpt>
      <trkpt lat="50.29745" lon="4.54903">
        <ele>237.895734</ele>
        <time>2024-12-17T10:54:02.000Z</time>
      </trkpt>
      <trkpt lat="50.29745" lon="4.54907">
        <ele>237.861422</ele>
        <time>2024-12-17T10:54:03.000Z</time>
      </trkpt>
      <trkpt lat="50.29745" lon="4.54912">
        <ele>237.824193</ele>
        <time>2024-12-17T10:54:04.000Z</time>
      </trkpt>
      <trkpt lat="50.29745" lon="4.54917">
        <ele>237.786981</ele>
        <time>2024-12-17T10:54:05.000Z</time>
      </trkpt>
      <trkpt lat="50.29745" lon="4.54923">
        <ele>237.748242</ele>
        <time>2024-12-17T10:54:06.000Z</time>
      </trkpt>
      <trkpt lat="50.29744" lon="4.54928">
        <ele>237.707966</ele>
        <time>2024-12-17T10:54:07.000Z</time>
      </trkpt>
      <trkpt lat="50.29744" lon="4.54934">
        <ele>237.668549</ele>
        <time>2024-12-17T10:54:08.000Z</time>
      </trkpt>
      <trkpt lat="50.29744" lon="4.54939">
        <ele>237.630453</ele>
        <time>2024-12-17T10:54:09.000Z</time>
      </trkpt>
      <trkpt lat="50.29744" lon="4.54944">
        <ele>237.593971</ele>
        <time>2024-12-17T10:54:10.000Z</time>
      </trkpt>
      <trkpt lat="50.29744" lon="4.54949">
        <ele>237.559659</ele>
        <time>2024-12-17T10:54:11.000Z</time>
      </trkpt>
      <trkpt lat="50.29744" lon="4.54953">
        <ele>237.528097</ele>
        <time>2024-12-17T10:54:12.000Z</time>
      </trkpt>
      <trkpt lat="50.29743" lon="4.54957">
        <ele>237.499997</ele>
        <time>2024-12-17T10:54:13.000Z</time>
      </trkpt>
      <trkpt lat="50.29743" lon="4.5496">
        <ele>237.472144</ele>
        <time>2024-12-17T10:54:14.000Z</time>
      </trkpt>
      <trkpt lat="50.29742" lon="4.54964">
        <ele>237.444169</ele>
        <time>2024-12-17T10:54:15.000Z</time>
      </trkpt>
      <trkpt lat="50.29741" lon="4.54968">
        <ele>237.413225</ele>
        <time>2024-12-17T10:54:16.000Z</time>
      </trkpt>
      <trkpt lat="50.2974" lon="4.54972">
        <ele>237.380105</ele>
        <time>2024-12-17T10:54:17.000Z</time>
      </trkpt>
      <trkpt lat="50.29738" lon="4.54976">
        <ele>237.346308</ele>
        <time>2024-12-17T10:54:18.000Z</time>
      </trkpt>
      <trkpt lat="50.29737" lon="4.5498">
        <ele>237.318332</ele>
        <time>2024-12-17T10:54:19.000Z</time>
      </trkpt>
      <trkpt lat="50.29736" lon="4.54985">
        <ele>237.275179</ele>
        <time>2024-12-17T10:54:20.000Z</time>
      </trkpt>
      <trkpt lat="50.29734" lon="4.54989">
        <ele>237.238237</ele>
        <time>2024-12-17T10:54:21.000Z</time>
      </trkpt>
      <trkpt lat="50.29732" lon="4.54994">
        <ele>237.201334</ele>
        <time>2024-12-17T10:54:22.000Z</time>
      </trkpt>
      <trkpt lat="50.2973" lon="4.54998">
        <ele>237.164117</ele>
        <time>2024-12-17T10:54:23.000Z</time>
      </trkpt>
      <trkpt lat="50.29728" lon="4.55002">
        <ele>237.124487</ele>
        <time>2024-12-17T10:54:24.000Z</time>
      </trkpt>
      <trkpt lat="50.29726" lon="4.55006">
        <ele>237.082824</ele>
        <time>2024-12-17T10:54:25.000Z</time>
      </trkpt>
      <trkpt lat="50.29723" lon="4.5501">
        <ele>237.04116</ele>
        <time>2024-12-17T10:54:26.000Z</time>
      </trkpt>
      <trkpt lat="50.29721" lon="4.55015">
        <ele>237.011529</ele>
        <time>2024-12-17T10:54:27.000Z</time>
      </trkpt>
      <trkpt lat="50.29718" lon="4.55019">
        <ele>237.029856</ele>
        <time>2024-12-17T10:54:28.000Z</time>
      </trkpt>
      <trkpt lat="50.29716" lon="4.55023">
        <ele>237.047534</ele>
        <time>2024-12-17T10:54:29.000Z</time>
      </trkpt>
      <trkpt lat="50.29713" lon="4.55028">
        <ele>237.066012</ele>
        <time>2024-12-17T10:54:30.000Z</time>
      </trkpt>
      <trkpt lat="50.29711" lon="4.55032">
        <ele>237.084425</ele>
        <time>2024-12-17T10:54:31.000Z</time>
      </trkpt>
      <trkpt lat="50.29709" lon="4.55037">
        <ele>237.102903</ele>
        <time>2024-12-17T10:54:32.000Z</time>
      </trkpt>
      <trkpt lat="50.29706" lon="4.55041">
        <ele>237.120581</ele>
        <time>2024-12-17T10:54:33.000Z</time>
      </trkpt>
      <trkpt lat="50.29704" lon="4.55045">
        <ele>237.138343</ele>
        <time>2024-12-17T10:54:34.000Z</time>
      </trkpt>
      <trkpt lat="50.29702" lon="4.55049">
        <ele>237.155543</ele>
        <time>2024-12-17T10:54:35.000Z</time>
      </trkpt>
      <trkpt lat="50.29699" lon="4.55053">
        <ele>237.173409</ele>
        <time>2024-12-17T10:54:36.000Z</time>
      </trkpt>
      <trkpt lat="50.29697" lon="4.55058">
        <ele>237.191407</ele>
        <time>2024-12-17T10:54:37.000Z</time>
      </trkpt>
      <trkpt lat="50.29694" lon="4.55062">
        <ele>237.210867</ele>
        <time>2024-12-17T10:54:38.000Z</time>
      </trkpt>
      <trkpt lat="50.29692" lon="4.55067">
        <ele>237.23033</ele>
        <time>2024-12-17T10:54:39.000Z</time>
      </trkpt>
      <trkpt lat="50.2969" lon="4.55073">
        <ele>237.25009</ele>
        <time>2024-12-17T10:54:40.000Z</time>
      </trkpt>
      <trkpt lat="50.29689" lon="4.55079">
        <ele>237.270858</ele>
        <time>2024-12-17T10:54:41.000Z</time>
      </trkpt>
      <trkpt lat="50.29689" lon="4.55086">
        <ele>237.292</ele>
        <time>2024-12-17T10:54:42.000Z</time>
      </trkpt>
      <trkpt lat="50.2969" lon="4.55092">
        <ele>237.312869</ele>
        <time>2024-12-17T10:54:43.000Z</time>
      </trkpt>
      <trkpt lat="50.29693" lon="4.55098">
        <ele>237.33389</ele>
        <time>2024-12-17T10:54:44.000Z</time>
      </trkpt>
      <trkpt lat="50.29696" lon="4.55103">
        <ele>237.354527</ele>
        <time>2024-12-17T10:54:45.000Z</time>
      </trkpt>
      <trkpt lat="50.29698" lon="4.55107">
        <ele>237.375016</ele>
        <time>2024-12-17T10:54:46.000Z</time>
      </trkpt>
      <trkpt lat="50.29701" lon="4.55112">
        <ele>237.395301</ele>
        <time>2024-12-17T10:54:47.000Z</time>
      </trkpt>
      <trkpt lat="50.29704" lon="4.55116">
        <ele>237.413644</ele>
        <time>2024-12-17T10:54:48.000Z</time>
      </trkpt>
      <trkpt lat="50.29707" lon="4.5512">
        <ele>237.431987</ele>
        <time>2024-12-17T10:54:49.000Z</time>
      </trkpt>
      <trkpt lat="50.29709" lon="4.55124">
        <ele>237.449853</ele>
        <time>2024-12-17T10:54:50.000Z</time>
      </trkpt>
      <trkpt lat="50.29712" lon="4.55128">
        <ele>237.468288</ele>
        <time>2024-12-17T10:54:51.000Z</time>
      </trkpt>
      <trkpt lat="50.29714" lon="4.55132">
        <ele>237.485817</ele>
        <time>2024-12-17T10:54:52.000Z</time>
      </trkpt>
      <trkpt lat="50.29717" lon="4.55136">
        <ele>237.503456</ele>
        <time>2024-12-17T10:54:53.000Z</time>
      </trkpt>
      <trkpt lat="50.29719" lon="4.5514">
        <ele>237.520077</ele>
        <time>2024-12-17T10:54:54.000Z</time>
      </trkpt>
      <trkpt lat="50.29721" lon="4.55143">
        <ele>237.535555</ele>
        <time>2024-12-17T10:54:55.000Z</time>
      </trkpt>
      <trkpt lat="50.29723" lon="4.55147">
        <ele>237.550274</ele>
        <time>2024-12-17T10:54:56.000Z</time>
      </trkpt>
      <trkpt lat="50.29725" lon="4.5515">
        <ele>237.563291</ele>
        <time>2024-12-17T10:54:57.000Z</time>
      </trkpt>
      <trkpt lat="50.29726" lon="4.55154">
        <ele>237.575777</ele>
        <time>2024-12-17T10:54:58.000Z</time>
      </trkpt>
      <trkpt lat="50.29728" lon="4.55157">
        <ele>237.588264</ele>
        <time>2024-12-17T10:54:59.000Z</time>
      </trkpt>
      <trkpt lat="50.29729" lon="4.55161">
        <ele>237.601819</ele>
        <time>2024-12-17T10:55:00.000Z</time>
      </trkpt>
      <trkpt lat="50.29731" lon="4.55165">
        <ele>237.617492</ele>
        <time>2024-12-17T10:55:01.000Z</time>
      </trkpt>
      <trkpt lat="50.29731" lon="4.55169">
        <ele>237.631673</ele>
        <time>2024-12-17T10:55:02.000Z</time>
      </trkpt>
      <trkpt lat="50.29731" lon="4.55174">
        <ele>237.646496</ele>
        <time>2024-12-17T10:55:03.000Z</time>
      </trkpt>
      <trkpt lat="50.29731" lon="4.55178">
        <ele>237.660444</ele>
        <time>2024-12-17T10:55:04.000Z</time>
      </trkpt>
      <trkpt lat="50.2973" lon="4.55183">
        <ele>237.674864</ele>
        <time>2024-12-17T10:55:05.000Z</time>
      </trkpt>
      <trkpt lat="50.29729" lon="4.55187">
        <ele>237.688881</ele>
        <time>2024-12-17T10:55:06.000Z</time>
      </trkpt>
      <trkpt lat="50.29728" lon="4.55191">
        <ele>237.703814</ele>
        <time>2024-12-17T10:55:07.000Z</time>
      </trkpt>
      <trkpt lat="50.29726" lon="4.55195">
        <ele>237.719257</ele>
        <time>2024-12-17T10:55:08.000Z</time>
      </trkpt>
      <trkpt lat="50.29724" lon="4.55199">
        <ele>237.734168</ele>
        <time>2024-12-17T10:55:09.000Z</time>
      </trkpt>
      <trkpt lat="50.29723" lon="4.55203">
        <ele>237.748252</ele>
        <time>2024-12-17T10:55:10.000Z</time>
      </trkpt>
      <trkpt lat="50.29721" lon="4.55207">
        <ele>237.763666</ele>
        <time>2024-12-17T10:55:11.000Z</time>
      </trkpt>
      <trkpt lat="50.29719" lon="4.55211">
        <ele>237.779632</ele>
        <time>2024-12-17T10:55:12.000Z</time>
      </trkpt>
      <trkpt lat="50.29718" lon="4.55215">
        <ele>237.794291</ele>
        <time>2024-12-17T10:55:13.000Z</time>
      </trkpt>
      <trkpt lat="50.29716" lon="4.55218">
        <ele>237.807858</ele>
        <time>2024-12-17T10:55:14.000Z</time>
      </trkpt>
      <trkpt lat="50.29714" lon="4.55222">
        <ele>237.821169</ele>
        <time>2024-12-17T10:55:15.000Z</time>
      </trkpt>
      <trkpt lat="50.29713" lon="4.55225">
        <ele>237.833659</ele>
        <time>2024-12-17T10:55:16.000Z</time>
      </trkpt>
      <trkpt lat="50.29712" lon="4.55228">
        <ele>237.845084</ele>
        <time>2024-12-17T10:55:17.000Z</time>
      </trkpt>
      <trkpt lat="50.29711" lon="4.55232">
        <ele>237.856105</ele>
        <time>2024-12-17T10:55:18.000Z</time>
      </trkpt>
      <trkpt lat="50.2971" lon="4.55235">
        <ele>237.868074</ele>
        <time>2024-12-17T10:55:19.000Z</time>
      </trkpt>
      <trkpt lat="50.29709" lon="4.55238">
        <ele>237.880043</ele>
        <time>2024-12-17T10:55:20.000Z</time>
      </trkpt>
      <trkpt lat="50.29708" lon="4.55242">
        <ele>237.892523</ele>
        <time>2024-12-17T10:55:21.000Z</time>
      </trkpt>
      <trkpt lat="50.29707" lon="4.55246">
        <ele>237.945629</ele>
        <time>2024-12-17T10:55:22.000Z</time>
      </trkpt>
      <trkpt lat="50.29707" lon="4.5525">
        <ele>238.008634</ele>
        <time>2024-12-17T10:55:23.000Z</time>
      </trkpt>
      <trkpt lat="50.29706" lon="4.55253">
        <ele>238.066044</ele>
        <time>2024-12-17T10:55:24.000Z</time>
      </trkpt>
      <trkpt lat="50.29706" lon="4.55257">
        <ele>238.126666</ele>
        <time>2024-12-17T10:55:25.000Z</time>
      </trkpt>
      <trkpt lat="50.29705" lon="4.5526">
        <ele>238.187288</ele>
        <time>2024-12-17T10:55:26.000Z</time>
      </trkpt>
      <trkpt lat="50.29705" lon="4.55264">
        <ele>238.253909</ele>
        <time>2024-12-17T10:55:27.000Z</time>
      </trkpt>
      <trkpt lat="50.29704" lon="4.55268">
        <ele>238.321519</ele>
        <time>2024-12-17T10:55:28.000Z</time>
      </trkpt>
      <trkpt lat="50.29704" lon="4.55272">
        <ele>238.384892</ele>
        <time>2024-12-17T10:55:29.000Z</time>
      </trkpt>
      <trkpt lat="50.29704" lon="4.55276">
        <ele>238.446263</ele>
        <time>2024-12-17T10:55:30.000Z</time>
      </trkpt>
      <trkpt lat="50.29703" lon="4.5528">
        <ele>238.512273</ele>
        <time>2024-12-17T10:55:31.000Z</time>
      </trkpt>
      <trkpt lat="50.29702" lon="4.55283">
        <ele>238.576549</ele>
        <time>2024-12-17T10:55:32.000Z</time>
      </trkpt>
      <trkpt lat="50.29701" lon="4.55287">
        <ele>238.641912</ele>
        <time>2024-12-17T10:55:33.000Z</time>
      </trkpt>
      <trkpt lat="50.297" lon="4.5529">
        <ele>238.705831</ele>
        <time>2024-12-17T10:55:34.000Z</time>
      </trkpt>
      <trkpt lat="50.29699" lon="4.55293">
        <ele>238.759954</ele>
        <time>2024-12-17T10:55:35.000Z</time>
      </trkpt>
      <trkpt lat="50.29698" lon="4.55295">
        <ele>238.804384</ele>
        <time>2024-12-17T10:55:36.000Z</time>
      </trkpt>
      <trkpt lat="50.29697" lon="4.55297">
        <ele>238.836295</ele>
        <time>2024-12-17T10:55:37.000Z</time>
      </trkpt>
      <trkpt lat="50.29697" lon="4.55298">
        <ele>238.860594</ele>
        <time>2024-12-17T10:55:38.000Z</time>
      </trkpt>
      <trkpt lat="50.29696" lon="4.55299">
        <ele>238.884892</ele>
        <time>2024-12-17T10:55:39.000Z</time>
      </trkpt>
      <trkpt lat="50.29696" lon="4.55301">
        <ele>238.912331</ele>
        <time>2024-12-17T10:55:40.000Z</time>
      </trkpt>
      <trkpt lat="50.29696" lon="4.55303">
        <ele>238.943701</ele>
        <time>2024-12-17T10:55:41.000Z</time>
      </trkpt>
      <trkpt lat="50.29697" lon="4.55303">
        <ele>238.963521</ele>
        <time>2024-12-17T10:55:42.000Z</time>
      </trkpt>
      <trkpt lat="50.29698" lon="4.55302">
        <ele>238.989892</ele>
        <time>2024-12-17T10:55:43.000Z</time>
      </trkpt>
      <trkpt lat="50.29699" lon="4.55301">
        <ele>239.025974</ele>
        <time>2024-12-17T10:55:44.000Z</time>
      </trkpt>
      <trkpt lat="50.29699" lon="4.55298">
        <ele>239.071985</ele>
        <time>2024-12-17T10:55:45.000Z</time>
      </trkpt>
      <trkpt lat="50.297" lon="4.55295">
        <ele>239.123712</ele>
        <time>2024-12-17T10:55:46.000Z</time>
      </trkpt>
      <trkpt lat="50.29701" lon="4.55292">
        <ele>239.17921</ele>
        <time>2024-12-17T10:55:47.000Z</time>
      </trkpt>
      <trkpt lat="50.29703" lon="4.5529">
        <ele>239.24531</ele>
        <time>2024-12-17T10:55:48.000Z</time>
      </trkpt>
      <trkpt lat="50.29705" lon="4.55287">
        <ele>239.316951</ele>
        <time>2024-12-17T10:55:49.000Z</time>
      </trkpt>
      <trkpt lat="50.29708" lon="4.55286">
        <ele>239.40006</ele>
        <time>2024-12-17T10:55:50.000Z</time>
      </trkpt>
      <trkpt lat="50.29711" lon="4.55285">
        <ele>239.47845</ele>
        <time>2024-12-17T10:55:51.000Z</time>
      </trkpt>
      <trkpt lat="50.29715" lon="4.55285">
        <ele>239.56603</ele>
        <time>2024-12-17T10:55:52.000Z</time>
      </trkpt>
      <trkpt lat="50.29718" lon="4.55285">
        <ele>239.656322</ele>
        <time>2024-12-17T10:55:53.000Z</time>
      </trkpt>
      <trkpt lat="50.29722" lon="4.55285">
        <ele>239.751857</ele>
        <time>2024-12-17T10:55:54.000Z</time>
      </trkpt>
      <trkpt lat="50.29726" lon="4.55285">
        <ele>239.847292</ele>
        <time>2024-12-17T10:55:55.000Z</time>
      </trkpt>
      <trkpt lat="50.29729" lon="4.55284">
        <ele>239.943294</ele>
        <time>2024-12-17T10:55:56.000Z</time>
      </trkpt>
      <trkpt lat="50.29733" lon="4.55284">
        <ele>240.043754</ele>
        <time>2024-12-17T10:55:57.000Z</time>
      </trkpt>
      <trkpt lat="50.29737" lon="4.55284">
        <ele>240.131473</ele>
        <time>2024-12-17T10:55:58.000Z</time>
      </trkpt>
      <trkpt lat="50.2974" lon="4.55284">
        <ele>240.226795</ele>
        <time>2024-12-17T10:55:59.000Z</time>
      </trkpt>
      <trkpt lat="50.29744" lon="4.55283">
        <ele>240.317011</ele>
        <time>2024-12-17T10:56:00.000Z</time>
      </trkpt>
      <trkpt lat="50.29748" lon="4.55283">
        <ele>240.410456</ele>
        <time>2024-12-17T10:56:01.000Z</time>
      </trkpt>
      <trkpt lat="50.29752" lon="4.55283">
        <ele>240.51608</ele>
        <time>2024-12-17T10:56:02.000Z</time>
      </trkpt>
      <trkpt lat="50.29756" lon="4.55283">
        <ele>240.621705</ele>
        <time>2024-12-17T10:56:03.000Z</time>
      </trkpt>
      <trkpt lat="50.29759" lon="4.55284">
        <ele>240.717917</ele>
        <time>2024-12-17T10:56:04.000Z</time>
      </trkpt>
      <trkpt lat="50.29763" lon="4.55285">
        <ele>240.809873</ele>
        <time>2024-12-17T10:56:05.000Z</time>
      </trkpt>
      <trkpt lat="50.29766" lon="4.55286">
        <ele>240.889632</ele>
        <time>2024-12-17T10:56:06.000Z</time>
      </trkpt>
      <trkpt lat="50.29769" lon="4.55288">
        <ele>240.965225</ele>
        <time>2024-12-17T10:56:07.000Z</time>
      </trkpt>
      <trkpt lat="50.29771" lon="4.5529">
        <ele>241.035261</ele>
        <time>2024-12-17T10:56:08.000Z</time>
      </trkpt>
      <trkpt lat="50.29773" lon="4.55292">
        <ele>241.10035</ele>
        <time>2024-12-17T10:56:09.000Z</time>
      </trkpt>
      <trkpt lat="50.29774" lon="4.55294">
        <ele>241.145056</ele>
        <time>2024-12-17T10:56:10.000Z</time>
      </trkpt>
      <trkpt lat="50.29775" lon="4.55295">
        <ele>241.1798</ele>
        <time>2024-12-17T10:56:11.000Z</time>
      </trkpt>
      <trkpt lat="50.29776" lon="4.55297">
        <ele>241.211953</ele>
        <time>2024-12-17T10:56:12.000Z</time>
      </trkpt>
      <trkpt lat="50.29777" lon="4.55298">
        <ele>241.248471</ele>
        <time>2024-12-17T10:56:13.000Z</time>
      </trkpt>
      <trkpt lat="50.29778" lon="4.553">
        <ele>241.284146</ele>
        <time>2024-12-17T10:56:14.000Z</time>
      </trkpt>
      <trkpt lat="50.2978" lon="4.55301">
        <ele>241.339319</ele>
        <time>2024-12-17T10:56:15.000Z</time>
      </trkpt>
      <trkpt lat="50.29782" lon="4.55303">
        <ele>241.40415</ele>
        <time>2024-12-17T10:56:16.000Z</time>
      </trkpt>
      <trkpt lat="50.29785" lon="4.55304">
        <ele>241.483917</ele>
        <time>2024-12-17T10:56:17.000Z</time>
      </trkpt>
      <trkpt lat="50.29788" lon="4.55306">
        <ele>241.557182</ele>
        <time>2024-12-17T10:56:18.000Z</time>
      </trkpt>
      <trkpt lat="50.29791" lon="4.55307">
        <ele>241.627488</ele>
        <time>2024-12-17T10:56:19.000Z</time>
      </trkpt>
      <trkpt lat="50.29793" lon="4.55308">
        <ele>241.703203</ele>
        <time>2024-12-17T10:56:20.000Z</time>
      </trkpt>
      <trkpt lat="50.29796" lon="4.5531">
        <ele>241.777982</ele>
        <time>2024-12-17T10:56:21.000Z</time>
      </trkpt>
      <trkpt lat="50.29799" lon="4.55311">
        <ele>241.858165</ele>
        <time>2024-12-17T10:56:22.000Z</time>
      </trkpt>
      <trkpt lat="50.29802" lon="4.55312">
        <ele>241.939803</ele>
        <time>2024-12-17T10:56:23.000Z</time>
      </trkpt>
      <trkpt lat="50.29806" lon="4.55314">
        <ele>242.033362</ele>
        <time>2024-12-17T10:56:24.000Z</time>
      </trkpt>
      <trkpt lat="50.29809" lon="4.55316">
        <ele>242.124515</ele>
        <time>2024-12-17T10:56:25.000Z</time>
      </trkpt>
      <trkpt lat="50.29812" lon="4.55319">
        <ele>242.214542</ele>
        <time>2024-12-17T10:56:26.000Z</time>
      </trkpt>
      <trkpt lat="50.29815" lon="4.55322">
        <ele>242.312353</ele>
        <time>2024-12-17T10:56:27.000Z</time>
      </trkpt>
      <trkpt lat="50.29818" lon="4.55326">
        <ele>242.415835</ele>
        <time>2024-12-17T10:56:28.000Z</time>
      </trkpt>
      <trkpt lat="50.29822" lon="4.5533">
        <ele>242.521317</ele>
        <time>2024-12-17T10:56:29.000Z</time>
      </trkpt>
      <trkpt lat="50.29824" lon="4.55334">
        <ele>242.612411</ele>
        <time>2024-12-17T10:56:30.000Z</time>
      </trkpt>
      <trkpt lat="50.29827" lon="4.55339">
        <ele>242.708466</ele>
        <time>2024-12-17T10:56:31.000Z</time>
      </trkpt>
      <trkpt lat="50.2983" lon="4.55344">
        <ele>242.808815</ele>
        <time>2024-12-17T10:56:32.000Z</time>
      </trkpt>
      <trkpt lat="50.29832" lon="4.55349">
        <ele>242.908933</ele>
        <time>2024-12-17T10:56:33.000Z</time>
      </trkpt>
      <trkpt lat="50.29835" lon="4.55354">
        <ele>243.008839</ele>
        <time>2024-12-17T10:56:34.000Z</time>
      </trkpt>
      <trkpt lat="50.29838" lon="4.55359">
        <ele>243.115325</ele>
        <time>2024-12-17T10:56:35.000Z</time>
      </trkpt>
      <trkpt lat="50.29841" lon="4.55364">
        <ele>243.221372</ele>
        <time>2024-12-17T10:56:36.000Z</time>
      </trkpt>
      <trkpt lat="50.29844" lon="4.55369">
        <ele>243.322029</ele>
        <time>2024-12-17T10:56:37.000Z</time>
      </trkpt>
      <trkpt lat="50.29846" lon="4.55374">
        <ele>243.421521</ele>
        <time>2024-12-17T10:56:38.000Z</time>
      </trkpt>
      <trkpt lat="50.29849" lon="4.5538">
        <ele>243.516389</ele>
        <time>2024-12-17T10:56:39.000Z</time>
      </trkpt>
      <trkpt lat="50.29851" lon="4.55384">
        <ele>243.607826</ele>
        <time>2024-12-17T10:56:40.000Z</time>
      </trkpt>
      <trkpt lat="50.29853" lon="4.55389">
        <ele>243.696234</ele>
        <time>2024-12-17T10:56:41.000Z</time>
      </trkpt>
      <trkpt lat="50.29854" lon="4.55394">
        <ele>243.767215</ele>
        <time>2024-12-17T10:56:42.000Z</time>
      </trkpt>
      <trkpt lat="50.29852" lon="4.55398">
        <ele>243.847055</ele>
        <time>2024-12-17T10:56:43.000Z</time>
      </trkpt>
      <trkpt lat="50.29851" lon="4.55403">
        <ele>243.926894</ele>
        <time>2024-12-17T10:56:44.000Z</time>
      </trkpt>
      <trkpt lat="50.29849" lon="4.55408">
        <ele>244.007825</ele>
        <time>2024-12-17T10:56:45.000Z</time>
      </trkpt>
      <trkpt lat="50.29848" lon="4.55413">
        <ele>244.089902</ele>
        <time>2024-12-17T10:56:46.000Z</time>
      </trkpt>
      <trkpt lat="50.29846" lon="4.55417">
        <ele>244.170087</ele>
        <time>2024-12-17T10:56:47.000Z</time>
      </trkpt>
      <trkpt lat="50.29845" lon="4.55422">
        <ele>244.249704</ele>
        <time>2024-12-17T10:56:48.000Z</time>
      </trkpt>
      <trkpt lat="50.29845" lon="4.55427">
        <ele>244.320251</ele>
        <time>2024-12-17T10:56:49.000Z</time>
      </trkpt>
      <trkpt lat="50.29845" lon="4.55431">
        <ele>244.384119</ele>
        <time>2024-12-17T10:56:50.000Z</time>
      </trkpt>
      <trkpt lat="50.29845" lon="4.55435">
        <ele>244.45072</ele>
        <time>2024-12-17T10:56:51.000Z</time>
      </trkpt>
      <trkpt lat="50.29847" lon="4.55439">
        <ele>244.522438</ele>
        <time>2024-12-17T10:56:52.000Z</time>
      </trkpt>
      <trkpt lat="50.29849" lon="4.55443">
        <ele>244.593113</ele>
        <time>2024-12-17T10:56:53.000Z</time>
      </trkpt>
      <trkpt lat="50.29851" lon="4.55446">
        <ele>244.659054</ele>
        <time>2024-12-17T10:56:54.000Z</time>
      </trkpt>
      <trkpt lat="50.29853" lon="4.55449">
        <ele>244.722181</ele>
        <time>2024-12-17T10:56:55.000Z</time>
      </trkpt>
      <trkpt lat="50.29854" lon="4.55452">
        <ele>244.783122</ele>
        <time>2024-12-17T10:56:56.000Z</time>
      </trkpt>
      <trkpt lat="50.29856" lon="4.55455">
        <ele>244.847319</ele>
        <time>2024-12-17T10:56:57.000Z</time>
      </trkpt>
      <trkpt lat="50.29858" lon="4.55458">
        <ele>244.912112</ele>
        <time>2024-12-17T10:56:58.000Z</time>
      </trkpt>
      <trkpt lat="50.2986" lon="4.55462">
        <ele>244.978757</ele>
        <time>2024-12-17T10:56:59.000Z</time>
      </trkpt>
      <trkpt lat="50.29861" lon="4.55466">
        <ele>245.046654</ele>
        <time>2024-12-17T10:57:00.000Z</time>
      </trkpt>
      <trkpt lat="50.29863" lon="4.55469">
        <ele>245.10961</ele>
        <time>2024-12-17T10:57:01.000Z</time>
      </trkpt>
      <trkpt lat="50.29864" lon="4.55472">
        <ele>245.172857</ele>
        <time>2024-12-17T10:57:02.000Z</time>
      </trkpt>
      <trkpt lat="50.29866" lon="4.55476">
        <ele>245.237279</ele>
        <time>2024-12-17T10:57:03.000Z</time>
      </trkpt>
      <trkpt lat="50.29868" lon="4.55479">
        <ele>245.301701</ele>
        <time>2024-12-17T10:57:04.000Z</time>
      </trkpt>
      <trkpt lat="50.2987" lon="4.55482">
        <ele>245.367313</ele>
        <time>2024-12-17T10:57:05.000Z</time>
      </trkpt>
      <trkpt lat="50.29871" lon="4.55486">
        <ele>245.434128</ele>
        <time>2024-12-17T10:57:06.000Z</time>
      </trkpt>
      <trkpt lat="50.29873" lon="4.55489">
        <ele>245.500943</ele>
        <time>2024-12-17T10:57:07.000Z</time>
      </trkpt>
      <trkpt lat="50.29875" lon="4.55493">
        <ele>245.568047</ele>
        <time>2024-12-17T10:57:08.000Z</time>
      </trkpt>
      <trkpt lat="50.29877" lon="4.55496">
        <ele>245.633989</ele>
        <time>2024-12-17T10:57:09.000Z</time>
      </trkpt>
      <trkpt lat="50.29878" lon="4.55499">
        <ele>245.697235</ele>
        <time>2024-12-17T10:57:10.000Z</time>
      </trkpt>
      <trkpt lat="50.2988" lon="4.55502">
        <ele>245.759321</ele>
        <time>2024-12-17T10:57:11.000Z</time>
      </trkpt>
      <trkpt lat="50.29882" lon="4.55505">
        <ele>245.818709</ele>
        <time>2024-12-17T10:57:12.000Z</time>
      </trkpt>
      <trkpt lat="50.29883" lon="4.55508">
        <ele>245.87694</ele>
        <time>2024-12-17T10:57:13.000Z</time>
      </trkpt>
      <trkpt lat="50.29884" lon="4.55511">
        <ele>245.928177</ele>
        <time>2024-12-17T10:57:14.000Z</time>
      </trkpt>
      <trkpt lat="50.29886" lon="4.55514">
        <ele>245.982211</ele>
        <time>2024-12-17T10:57:15.000Z</time>
      </trkpt>
      <trkpt lat="50.29887" lon="4.55517">
        <ele>246.040103</ele>
        <time>2024-12-17T10:57:16.000Z</time>
      </trkpt>
      <trkpt lat="50.29889" lon="4.5552">
        <ele>246.10165</ele>
        <time>2024-12-17T10:57:17.000Z</time>
      </trkpt>
      <trkpt lat="50.2989" lon="4.55523">
        <ele>246.156888</ele>
        <time>2024-12-17T10:57:18.000Z</time>
      </trkpt>
      <trkpt lat="50.29892" lon="4.55526">
        <ele>246.215118</ele>
        <time>2024-12-17T10:57:19.000Z</time>
      </trkpt>
      <trkpt lat="50.29893" lon="4.55529">
        <ele>246.273011</ele>
        <time>2024-12-17T10:57:20.000Z</time>
      </trkpt>
      <trkpt lat="50.29895" lon="4.55532">
        <ele>246.33321</ele>
        <time>2024-12-17T10:57:21.000Z</time>
      </trkpt>
      <trkpt lat="50.29896" lon="4.55535">
        <ele>246.394962</ele>
        <time>2024-12-17T10:57:22.000Z</time>
      </trkpt>
      <trkpt lat="50.29898" lon="4.55539">
        <ele>246.458208</ele>
        <time>2024-12-17T10:57:23.000Z</time>
      </trkpt>
      <trkpt lat="50.29899" lon="4.55542">
        <ele>246.517305</ele>
        <time>2024-12-17T10:57:24.000Z</time>
      </trkpt>
      <trkpt lat="50.29901" lon="4.55545">
        <ele>246.583949</ele>
        <time>2024-12-17T10:57:25.000Z</time>
      </trkpt>
      <trkpt lat="50.29903" lon="4.55549">
        <ele>246.658032</ele>
        <time>2024-12-17T10:57:26.000Z</time>
      </trkpt>
      <trkpt lat="50.29905" lon="4.55552">
        <ele>246.729393</ele>
        <time>2024-12-17T10:57:27.000Z</time>
      </trkpt>
      <trkpt lat="50.29907" lon="4.55556">
        <ele>246.79344</ele>
        <time>2024-12-17T10:57:28.000Z</time>
      </trkpt>
      <trkpt lat="50.29908" lon="4.55559">
        <ele>246.883349</ele>
        <time>2024-12-17T10:57:29.000Z</time>
      </trkpt>
      <trkpt lat="50.2991" lon="4.55563">
        <ele>246.982329</ele>
        <time>2024-12-17T10:57:30.000Z</time>
      </trkpt>
      <trkpt lat="50.29911" lon="4.55567">
        <ele>247.087553</ele>
        <time>2024-12-17T10:57:31.000Z</time>
      </trkpt>
      <trkpt lat="50.29913" lon="4.5557">
        <ele>247.188495</ele>
        <time>2024-12-17T10:57:32.000Z</time>
      </trkpt>
      <trkpt lat="50.29914" lon="4.55574">
        <ele>247.287474</ele>
        <time>2024-12-17T10:57:33.000Z</time>
      </trkpt>
      <trkpt lat="50.29916" lon="4.55577">
        <ele>247.378654</ele>
        <time>2024-12-17T10:57:34.000Z</time>
      </trkpt>
      <trkpt lat="50.29917" lon="4.5558">
        <ele>247.462092</ele>
        <time>2024-12-17T10:57:35.000Z</time>
      </trkpt>
      <trkpt lat="50.29918" lon="4.55583">
        <ele>247.541708</ele>
        <time>2024-12-17T10:57:36.000Z</time>
      </trkpt>
      <trkpt lat="50.2992" lon="4.55587">
        <ele>247.637063</ele>
        <time>2024-12-17T10:57:37.000Z</time>
      </trkpt>
      <trkpt lat="50.29922" lon="4.5559">
        <ele>247.738702</ele>
        <time>2024-12-17T10:57:38.000Z</time>
      </trkpt>
      <trkpt lat="50.29923" lon="4.55594">
        <ele>247.835708</ele>
        <time>2024-12-17T10:57:39.000Z</time>
      </trkpt>
      <trkpt lat="50.29925" lon="4.55598">
        <ele>247.946292</ele>
        <time>2024-12-17T10:57:40.000Z</time>
      </trkpt>
      <trkpt lat="50.29926" lon="4.55602">
        <ele>248.056872</ele>
        <time>2024-12-17T10:57:41.000Z</time>
      </trkpt>
      <trkpt lat="50.29928" lon="4.55606">
        <ele>248.178362</ele>
        <time>2024-12-17T10:57:42.000Z</time>
      </trkpt>
      <trkpt lat="50.2993" lon="4.55609">
        <ele>248.291688</ele>
        <time>2024-12-17T10:57:43.000Z</time>
      </trkpt>
      <trkpt lat="50.29933" lon="4.55613">
        <ele>248.403898</ele>
        <time>2024-12-17T10:57:44.000Z</time>
      </trkpt>
      <trkpt lat="50.29934" lon="4.55616">
        <ele>248.501474</ele>
        <time>2024-12-17T10:57:45.000Z</time>
      </trkpt>
      <trkpt lat="50.29935" lon="4.55619">
        <ele>248.57718</ele>
        <time>2024-12-17T10:57:46.000Z</time>
      </trkpt>
      <trkpt lat="50.29937" lon="4.55621">
        <ele>248.645167</ele>
        <time>2024-12-17T10:57:47.000Z</time>
      </trkpt>
      <trkpt lat="50.29938" lon="4.55623">
        <ele>248.700073</ele>
        <time>2024-12-17T10:57:48.000Z</time>
      </trkpt>
      <trkpt lat="50.29938" lon="4.55625">
        <ele>248.750892</ele>
        <time>2024-12-17T10:57:49.000Z</time>
      </trkpt>
      <trkpt lat="50.2994" lon="4.55627">
        <ele>248.813399</ele>
        <time>2024-12-17T10:57:50.000Z</time>
      </trkpt>
      <trkpt lat="50.29941" lon="4.55629">
        <ele>248.877703</ele>
        <time>2024-12-17T10:57:51.000Z</time>
      </trkpt>
      <trkpt lat="50.29942" lon="4.55631">
        <ele>248.944287</ele>
        <time>2024-12-17T10:57:52.000Z</time>
      </trkpt>
      <trkpt lat="50.29943" lon="4.55634">
        <ele>249.018483</ele>
        <time>2024-12-17T10:57:53.000Z</time>
      </trkpt>
      <trkpt lat="50.29944" lon="4.55637">
        <ele>249.09609</ele>
        <time>2024-12-17T10:57:54.000Z</time>
      </trkpt>
      <trkpt lat="50.29946" lon="4.5564">
        <ele>249.180199</ele>
        <time>2024-12-17T10:57:55.000Z</time>
      </trkpt>
      <trkpt lat="50.29947" lon="4.55642">
        <ele>249.262039</ele>
        <time>2024-12-17T10:57:56.000Z</time>
      </trkpt>
      <trkpt lat="50.29949" lon="4.55645">
        <ele>249.343582</ele>
        <time>2024-12-17T10:57:57.000Z</time>
      </trkpt>
      <trkpt lat="50.2995" lon="4.55648">
        <ele>249.428988</ele>
        <time>2024-12-17T10:57:58.000Z</time>
      </trkpt>
      <trkpt lat="50.29951" lon="4.55652">
        <ele>249.51637</ele>
        <time>2024-12-17T10:57:59.000Z</time>
      </trkpt>
      <trkpt lat="50.29953" lon="4.55654">
        <ele>249.607801</ele>
        <time>2024-12-17T10:58:00.000Z</time>
      </trkpt>
      <trkpt lat="50.29955" lon="4.55657">
        <ele>249.69427</ele>
        <time>2024-12-17T10:58:01.000Z</time>
      </trkpt>
      <trkpt lat="50.29956" lon="4.5566">
        <ele>249.787801</ele>
        <time>2024-12-17T10:58:02.000Z</time>
      </trkpt>
      <trkpt lat="50.29958" lon="4.55664">
        <ele>249.877072</ele>
        <time>2024-12-17T10:58:03.000Z</time>
      </trkpt>
      <trkpt lat="50.29959" lon="4.55667">
        <ele>249.967024</ele>
        <time>2024-12-17T10:58:04.000Z</time>
      </trkpt>
      <trkpt lat="50.29961" lon="4.55669">
        <ele>250.055935</ele>
        <time>2024-12-17T10:58:05.000Z</time>
      </trkpt>
      <trkpt lat="50.29962" lon="4.55672">
        <ele>250.142404</ele>
        <time>2024-12-17T10:58:06.000Z</time>
      </trkpt>
      <trkpt lat="50.29964" lon="4.55675">
        <ele>250.228289</ele>
        <time>2024-12-17T10:58:07.000Z</time>
      </trkpt>
      <trkpt lat="50.29965" lon="4.55678">
        <ele>250.309832</ele>
        <time>2024-12-17T10:58:08.000Z</time>
      </trkpt>
      <trkpt lat="50.29966" lon="4.55681">
        <ele>250.38936</ele>
        <time>2024-12-17T10:58:09.000Z</time>
      </trkpt>
      <trkpt lat="50.29968" lon="4.55684">
        <ele>250.476741</ele>
        <time>2024-12-17T10:58:10.000Z</time>
      </trkpt>
      <trkpt lat="50.29969" lon="4.55687">
        <ele>250.560178</ele>
        <time>2024-12-17T10:58:11.000Z</time>
      </trkpt>
      <trkpt lat="50.2997" lon="4.5569">
        <ele>250.64553</ele>
        <time>2024-12-17T10:58:12.000Z</time>
      </trkpt>
      <trkpt lat="50.29972" lon="4.55693">
        <ele>250.728968</ele>
        <time>2024-12-17T10:58:13.000Z</time>
      </trkpt>
      <trkpt lat="50.29973" lon="4.55696">
        <ele>250.818238</ele>
        <time>2024-12-17T10:58:14.000Z</time>
      </trkpt>
      <trkpt lat="50.29975" lon="4.55699">
        <ele>250.914032</ele>
        <time>2024-12-17T10:58:15.000Z</time>
      </trkpt>
      <trkpt lat="50.29976" lon="4.55702">
        <ele>251.001718</ele>
        <time>2024-12-17T10:58:16.000Z</time>
      </trkpt>
      <trkpt lat="50.29978" lon="4.55706">
        <ele>251.091228</ele>
        <time>2024-12-17T10:58:17.000Z</time>
      </trkpt>
      <trkpt lat="50.2998" lon="4.55708">
        <ele>251.178485</ele>
        <time>2024-12-17T10:58:18.000Z</time>
      </trkpt>
      <trkpt lat="50.29981" lon="4.55711">
        <ele>251.267397</ele>
        <time>2024-12-17T10:58:19.000Z</time>
      </trkpt>
      <trkpt lat="50.29983" lon="4.55714">
        <ele>251.372096</ele>
        <time>2024-12-17T10:58:20.000Z</time>
      </trkpt>
      <trkpt lat="50.29985" lon="4.55718">
        <ele>251.491265</ele>
        <time>2024-12-17T10:58:21.000Z</time>
      </trkpt>
      <trkpt lat="50.29987" lon="4.55722">
        <ele>251.612221</ele>
        <time>2024-12-17T10:58:22.000Z</time>
      </trkpt>
      <trkpt lat="50.2999" lon="4.55726">
        <ele>251.73439</ele>
        <time>2024-12-17T10:58:23.000Z</time>
      </trkpt>
      <trkpt lat="50.29992" lon="4.5573">
        <ele>251.860994</ele>
        <time>2024-12-17T10:58:24.000Z</time>
      </trkpt>
      <trkpt lat="50.29995" lon="4.55734">
        <ele>251.988162</ele>
        <time>2024-12-17T10:58:25.000Z</time>
      </trkpt>
      <trkpt lat="50.29997" lon="4.55737">
        <ele>252.096247</ele>
        <time>2024-12-17T10:58:26.000Z</time>
      </trkpt>
      <trkpt lat="50.29999" lon="4.55741">
        <ele>252.200221</ele>
        <time>2024-12-17T10:58:27.000Z</time>
      </trkpt>
      <trkpt lat="50.3" lon="4.55744">
        <ele>252.28433</ele>
        <time>2024-12-17T10:58:28.000Z</time>
      </trkpt>
      <trkpt lat="50.30001" lon="4.55747">
        <ele>252.361957</ele>
        <time>2024-12-17T10:58:29.000Z</time>
      </trkpt>
      <trkpt lat="50.30002" lon="4.55749">
        <ele>252.422682</ele>
        <time>2024-12-17T10:58:30.000Z</time>
      </trkpt>
      <trkpt lat="50.30002" lon="4.55752">
        <ele>252.493218</ele>
        <time>2024-12-17T10:58:31.000Z</time>
      </trkpt>
      <trkpt lat="50.30003" lon="4.55756">
        <ele>252.590153</ele>
        <time>2024-12-17T10:58:32.000Z</time>
      </trkpt>
      <trkpt lat="50.30002" lon="4.5576">
        <ele>252.675711</ele>
        <time>2024-12-17T10:58:33.000Z</time>
      </trkpt>
      <trkpt lat="50.3" lon="4.55763">
        <ele>252.766889</ele>
        <time>2024-12-17T10:58:34.000Z</time>
      </trkpt>
      <trkpt lat="50.29999" lon="4.55766">
        <ele>252.860925</ele>
        <time>2024-12-17T10:58:35.000Z</time>
      </trkpt>
      <trkpt lat="50.29997" lon="4.55769">
        <ele>252.959151</ele>
        <time>2024-12-17T10:58:36.000Z</time>
      </trkpt>
      <trkpt lat="50.29995" lon="4.55772">
        <ele>253.054308</ele>
        <time>2024-12-17T10:58:37.000Z</time>
      </trkpt>
      <trkpt lat="50.29993" lon="4.55774">
        <ele>253.147151</ele>
        <time>2024-12-17T10:58:38.000Z</time>
      </trkpt>
      <trkpt lat="50.2999" lon="4.55776">
        <ele>253.237683</ele>
        <time>2024-12-17T10:58:39.000Z</time>
      </trkpt>
      <trkpt lat="50.29988" lon="4.55778">
        <ele>253.32423</ele>
        <time>2024-12-17T10:58:40.000Z</time>
      </trkpt>
      <trkpt lat="50.29986" lon="4.5578">
        <ele>253.407757</ele>
        <time>2024-12-17T10:58:41.000Z</time>
      </trkpt>
      <trkpt lat="50.29983" lon="4.55782">
        <ele>253.489776</ele>
        <time>2024-12-17T10:58:42.000Z</time>
      </trkpt>
      <trkpt lat="50.29981" lon="4.55785">
        <ele>253.565154</ele>
        <time>2024-12-17T10:58:43.000Z</time>
      </trkpt>
      <trkpt lat="50.29979" lon="4.55787">
        <ele>253.642019</ele>
        <time>2024-12-17T10:58:44.000Z</time>
      </trkpt>
      <trkpt lat="50.29977" lon="4.55789">
        <ele>253.724984</ele>
        <time>2024-12-17T10:58:45.000Z</time>
      </trkpt>
      <trkpt lat="50.29974" lon="4.55791">
        <ele>253.821116</ele>
        <time>2024-12-17T10:58:46.000Z</time>
      </trkpt>
      <trkpt lat="50.29971" lon="4.55793">
        <ele>253.919148</ele>
        <time>2024-12-17T10:58:47.000Z</time>
      </trkpt>
      <trkpt lat="50.29968" lon="4.55795">
        <ele>254.011765</ele>
        <time>2024-12-17T10:58:48.000Z</time>
      </trkpt>
      <trkpt lat="50.29965" lon="4.55797">
        <ele>254.10087</ele>
        <time>2024-12-17T10:58:49.000Z</time>
      </trkpt>
      <trkpt lat="50.29963" lon="4.55799">
        <ele>254.183771</ele>
        <time>2024-12-17T10:58:50.000Z</time>
      </trkpt>
      <trkpt lat="50.29961" lon="4.55801">
        <ele>254.246414</ele>
        <time>2024-12-17T10:58:51.000Z</time>
      </trkpt>
      <trkpt lat="50.29958" lon="4.55802">
        <ele>254.342255</ele>
        <time>2024-12-17T10:58:52.000Z</time>
      </trkpt>
      <trkpt lat="50.29955" lon="4.55804">
        <ele>254.422824</ele>
        <time>2024-12-17T10:58:53.000Z</time>
      </trkpt>
      <trkpt lat="50.29953" lon="4.55806">
        <ele>254.501406</ele>
        <time>2024-12-17T10:58:54.000Z</time>
      </trkpt>
      <trkpt lat="50.29951" lon="4.55808">
        <ele>254.578113</ele>
        <time>2024-12-17T10:58:55.000Z</time>
      </trkpt>
      <trkpt lat="50.29948" lon="4.55809">
        <ele>254.658974</ele>
        <time>2024-12-17T10:58:56.000Z</time>
      </trkpt>
      <trkpt lat="50.29946" lon="4.5581">
        <ele>254.724453</ele>
        <time>2024-12-17T10:58:57.000Z</time>
      </trkpt>
      <trkpt lat="50.29944" lon="4.55812">
        <ele>254.793272</ele>
        <time>2024-12-17T10:58:58.000Z</time>
      </trkpt>
      <trkpt lat="50.29942" lon="4.55813">
        <ele>254.855982</ele>
        <time>2024-12-17T10:58:59.000Z</time>
      </trkpt>
      <trkpt lat="50.29941" lon="4.55815">
        <ele>254.91706</ele>
        <time>2024-12-17T10:59:00.000Z</time>
      </trkpt>
      <trkpt lat="50.29939" lon="4.55817">
        <ele>254.979771</ele>
        <time>2024-12-17T10:59:01.000Z</time>
      </trkpt>
      <trkpt lat="50.29937" lon="4.55818">
        <ele>255.035404</ele>
        <time>2024-12-17T10:59:02.000Z</time>
      </trkpt>
      <trkpt lat="50.29936" lon="4.5582">
        <ele>255.089447</ele>
        <time>2024-12-17T10:59:03.000Z</time>
      </trkpt>
      <trkpt lat="50.29934" lon="4.55822">
        <ele>255.145986</ele>
        <time>2024-12-17T10:59:04.000Z</time>
      </trkpt>
      <trkpt lat="50.29933" lon="4.55824">
        <ele>255.196594</ele>
        <time>2024-12-17T10:59:05.000Z</time>
      </trkpt>
      <trkpt lat="50.29931" lon="4.55825">
        <ele>255.250369</ele>
        <time>2024-12-17T10:59:06.000Z</time>
      </trkpt>
      <trkpt lat="50.2993" lon="4.55826">
        <ele>255.305048</ele>
        <time>2024-12-17T10:59:07.000Z</time>
      </trkpt>
      <trkpt lat="50.29928" lon="4.55828">
        <ele>255.36422</ele>
        <time>2024-12-17T10:59:08.000Z</time>
      </trkpt>
      <trkpt lat="50.29927" lon="4.5583">
        <ele>255.415928</ele>
        <time>2024-12-17T10:59:09.000Z</time>
      </trkpt>
      <trkpt lat="50.29925" lon="4.55831">
        <ele>255.475886</ele>
        <time>2024-12-17T10:59:10.000Z</time>
      </trkpt>
      <trkpt lat="50.29923" lon="4.55833">
        <ele>255.531519</ele>
        <time>2024-12-17T10:59:11.000Z</time>
      </trkpt>
      <trkpt lat="50.29922" lon="4.55834">
        <ele>255.589204</ele>
        <time>2024-12-17T10:59:12.000Z</time>
      </trkpt>
      <trkpt lat="50.2992" lon="4.55836">
        <ele>255.646888</ele>
        <time>2024-12-17T10:59:13.000Z</time>
      </trkpt>
      <trkpt lat="50.29918" lon="4.55838">
        <ele>255.70606</ele>
        <time>2024-12-17T10:59:14.000Z</time>
      </trkpt>
      <trkpt lat="50.29917" lon="4.55839">
        <ele>255.770419</ele>
        <time>2024-12-17T10:59:15.000Z</time>
      </trkpt>
      <trkpt lat="50.29915" lon="4.55841">
        <ele>255.831249</ele>
        <time>2024-12-17T10:59:16.000Z</time>
      </trkpt>
      <trkpt lat="50.29913" lon="4.55842">
        <ele>255.897498</ele>
        <time>2024-12-17T10:59:17.000Z</time>
      </trkpt>
      <trkpt lat="50.29911" lon="4.55844">
        <ele>255.960935</ele>
        <time>2024-12-17T10:59:18.000Z</time>
      </trkpt>
      <trkpt lat="50.29909" lon="4.55846">
        <ele>256.02678</ele>
        <time>2024-12-17T10:59:19.000Z</time>
      </trkpt>
      <trkpt lat="50.29908" lon="4.55849">
        <ele>256.093747</ele>
        <time>2024-12-17T10:59:20.000Z</time>
      </trkpt>
      <trkpt lat="50.29906" lon="4.55851">
        <ele>256.160774</ele>
        <time>2024-12-17T10:59:21.000Z</time>
      </trkpt>
      <trkpt lat="50.29904" lon="4.55853">
        <ele>256.231272</ele>
        <time>2024-12-17T10:59:22.000Z</time>
      </trkpt>
      <trkpt lat="50.29902" lon="4.55855">
        <ele>256.300654</ele>
        <time>2024-12-17T10:59:23.000Z</time>
      </trkpt>
      <trkpt lat="50.299" lon="4.55857">
        <ele>256.373572</ele>
        <time>2024-12-17T10:59:24.000Z</time>
      </trkpt>
      <trkpt lat="50.29898" lon="4.55859">
        <ele>256.447907</ele>
        <time>2024-12-17T10:59:25.000Z</time>
      </trkpt>
      <trkpt lat="50.29896" lon="4.55862">
        <ele>256.524361</ele>
        <time>2024-12-17T10:59:26.000Z</time>
      </trkpt>
      <trkpt lat="50.29894" lon="4.55864">
        <ele>256.597279</ele>
        <time>2024-12-17T10:59:27.000Z</time>
      </trkpt>
      <trkpt lat="50.29892" lon="4.55866">
        <ele>256.671614</ele>
        <time>2024-12-17T10:59:28.000Z</time>
      </trkpt>
      <trkpt lat="50.2989" lon="4.55869">
        <ele>256.751483</ele>
        <time>2024-12-17T10:59:29.000Z</time>
      </trkpt>
      <trkpt lat="50.29888" lon="4.55871">
        <ele>256.831523</ele>
        <time>2024-12-17T10:59:30.000Z</time>
      </trkpt>
      <trkpt lat="50.29886" lon="4.55874">
        <ele>256.915058</ele>
        <time>2024-12-17T10:59:31.000Z</time>
      </trkpt>
      <trkpt lat="50.29884" lon="4.55877">
        <ele>256.996381</ele>
        <time>2024-12-17T10:59:32.000Z</time>
      </trkpt>
      <trkpt lat="50.29882" lon="4.5588">
        <ele>257.072729</ele>
        <time>2024-12-17T10:59:33.000Z</time>
      </trkpt>
      <trkpt lat="50.2988" lon="4.55882">
        <ele>257.148009</ele>
        <time>2024-12-17T10:59:34.000Z</time>
      </trkpt>
      <trkpt lat="50.29878" lon="4.55885">
        <ele>257.222039</ele>
        <time>2024-12-17T10:59:35.000Z</time>
      </trkpt>
      <trkpt lat="50.29876" lon="4.55887">
        <ele>257.296069</ele>
        <time>2024-12-17T10:59:36.000Z</time>
      </trkpt>
      <trkpt lat="50.29874" lon="4.5589">
        <ele>257.371349</ele>
        <time>2024-12-17T10:59:37.000Z</time>
      </trkpt>
      <trkpt lat="50.29872" lon="4.55892">
        <ele>257.447897</ele>
        <time>2024-12-17T10:59:38.000Z</time>
      </trkpt>
      <trkpt lat="50.2987" lon="4.55895">
        <ele>257.522264</ele>
        <time>2024-12-17T10:59:39.000Z</time>
      </trkpt>
      <trkpt lat="50.29868" lon="4.55898">
        <ele>257.603329</ele>
        <time>2024-12-17T10:59:40.000Z</time>
      </trkpt>
      <trkpt lat="50.29866" lon="4.559">
        <ele>257.687909</ele>
        <time>2024-12-17T10:59:41.000Z</time>
      </trkpt>
      <trkpt lat="50.29864" lon="4.55903">
        <ele>257.769232</ele>
        <time>2024-12-17T10:59:42.000Z</time>
      </trkpt>
      <trkpt lat="50.29862" lon="4.55906">
        <ele>257.848392</ele>
        <time>2024-12-17T10:59:43.000Z</time>
      </trkpt>
      <trkpt lat="50.2986" lon="4.55909">
        <ele>257.923566</ele>
        <time>2024-12-17T10:59:44.000Z</time>
      </trkpt>
      <trkpt lat="50.29858" lon="4.55911">
        <ele>257.996484</ele>
        <time>2024-12-17T10:59:45.000Z</time>
      </trkpt>
      <trkpt lat="50.29856" lon="4.55913">
        <ele>258.069313</ele>
        <time>2024-12-17T10:59:46.000Z</time>
      </trkpt>
      <trkpt lat="50.29854" lon="4.55916">
        <ele>258.147154</ele>
        <time>2024-12-17T10:59:47.000Z</time>
      </trkpt>
      <trkpt lat="50.29852" lon="4.55919">
        <ele>258.221195</ele>
        <time>2024-12-17T10:59:48.000Z</time>
      </trkpt>
      <trkpt lat="50.2985" lon="4.55921">
        <ele>258.296369</ele>
        <time>2024-12-17T10:59:49.000Z</time>
      </trkpt>
      <trkpt lat="50.29848" lon="4.55923">
        <ele>258.370409</ele>
        <time>2024-12-17T10:59:50.000Z</time>
      </trkpt>
      <trkpt lat="50.29846" lon="4.55926">
        <ele>258.44347</ele>
        <time>2024-12-17T10:59:51.000Z</time>
      </trkpt>
      <trkpt lat="50.29844" lon="4.55928">
        <ele>258.516388</ele>
        <time>2024-12-17T10:59:52.000Z</time>
      </trkpt>
      <trkpt lat="50.29843" lon="4.5593">
        <ele>258.586886</ele>
        <time>2024-12-17T10:59:53.000Z</time>
      </trkpt>
      <trkpt lat="50.29841" lon="4.55933">
        <ele>258.663933</ele>
        <time>2024-12-17T10:59:54.000Z</time>
      </trkpt>
      <trkpt lat="50.29839" lon="4.55936">
        <ele>258.741729</ele>
        <time>2024-12-17T10:59:55.000Z</time>
      </trkpt>
      <trkpt lat="50.29837" lon="4.55938">
        <ele>258.817212</ele>
        <time>2024-12-17T10:59:56.000Z</time>
      </trkpt>
      <trkpt lat="50.29835" lon="4.5594">
        <ele>258.893238</ele>
        <time>2024-12-17T10:59:57.000Z</time>
      </trkpt>
      <trkpt lat="50.29833" lon="4.55942">
        <ele>258.965002</ele>
        <time>2024-12-17T10:59:58.000Z</time>
      </trkpt>
      <trkpt lat="50.29831" lon="4.55943">
        <ele>259.020538</ele>
        <time>2024-12-17T10:59:59.000Z</time>
      </trkpt>
      <trkpt lat="50.2983" lon="4.55945">
        <ele>259.067447</ele>
        <time>2024-12-17T11:00:00.000Z</time>
      </trkpt>
      <trkpt lat="50.29829" lon="4.55946">
        <ele>259.10464</ele>
        <time>2024-12-17T11:00:01.000Z</time>
      </trkpt>
      <trkpt lat="50.29828" lon="4.55947">
        <ele>259.154991</ele>
        <time>2024-12-17T11:00:02.000Z</time>
      </trkpt>
      <trkpt lat="50.29826" lon="4.55948">
        <ele>259.20691</ele>
        <time>2024-12-17T11:00:03.000Z</time>
      </trkpt>
      <trkpt lat="50.29825" lon="4.55949">
        <ele>259.2627</ele>
        <time>2024-12-17T11:00:04.000Z</time>
      </trkpt>
      <trkpt lat="50.29823" lon="4.55951">
        <ele>259.310833</ele>
        <time>2024-12-17T11:00:05.000Z</time>
      </trkpt>
      <trkpt lat="50.29822" lon="4.55953">
        <ele>259.37259</ele>
        <time>2024-12-17T11:00:06.000Z</time>
      </trkpt>
      <trkpt lat="50.2982" lon="4.55954">
        <ele>259.432099</ele>
        <time>2024-12-17T11:00:07.000Z</time>
      </trkpt>
      <trkpt lat="50.29819" lon="4.55956">
        <ele>259.487635</ele>
        <time>2024-12-17T11:00:08.000Z</time>
      </trkpt>
      <trkpt lat="50.29817" lon="4.55958">
        <ele>259.550581</ele>
        <time>2024-12-17T11:00:09.000Z</time>
      </trkpt>
      <trkpt lat="50.29816" lon="4.55959">
        <ele>259.61079</ele>
        <time>2024-12-17T11:00:10.000Z</time>
      </trkpt>
      <trkpt lat="50.29813" lon="4.5596">
        <ele>259.683178</ele>
        <time>2024-12-17T11:00:11.000Z</time>
      </trkpt>
      <trkpt lat="50.29811" lon="4.55962">
        <ele>259.750802</ele>
        <time>2024-12-17T11:00:12.000Z</time>
      </trkpt>
      <trkpt lat="50.29809" lon="4.55964">
        <ele>259.824904</ele>
        <time>2024-12-17T11:00:13.000Z</time>
      </trkpt>
      <trkpt lat="50.29807" lon="4.55965">
        <ele>259.898232</ele>
        <time>2024-12-17T11:00:14.000Z</time>
      </trkpt>
      <trkpt lat="50.29806" lon="4.55967">
        <ele>259.962409</ele>
        <time>2024-12-17T11:00:15.000Z</time>
      </trkpt>
      <trkpt lat="50.29804" lon="4.55969">
        <ele>260.029357</ele>
        <time>2024-12-17T11:00:16.000Z</time>
      </trkpt>
      <trkpt lat="50.29802" lon="4.55971">
        <ele>260.093272</ele>
        <time>2024-12-17T11:00:17.000Z</time>
      </trkpt>
      <trkpt lat="50.298" lon="4.55972">
        <ele>260.159093</ele>
        <time>2024-12-17T11:00:18.000Z</time>
      </trkpt>
      <trkpt lat="50.29798" lon="4.55974">
        <ele>260.225792</ele>
        <time>2024-12-17T11:00:19.000Z</time>
      </trkpt>
      <trkpt lat="50.29796" lon="4.55975">
        <ele>260.295303</ele>
        <time>2024-12-17T11:00:20.000Z</time>
      </trkpt>
      <trkpt lat="50.29794" lon="4.55977">
        <ele>260.362926</ele>
        <time>2024-12-17T11:00:21.000Z</time>
      </trkpt>
      <trkpt lat="50.29792" lon="4.55978">
        <ele>260.441815</ele>
        <time>2024-12-17T11:00:22.000Z</time>
      </trkpt>
      <trkpt lat="50.2979" lon="4.5598">
        <ele>260.509692</ele>
        <time>2024-12-17T11:00:23.000Z</time>
      </trkpt>
      <trkpt lat="50.29788" lon="4.55981">
        <ele>260.579203</ele>
        <time>2024-12-17T11:00:24.000Z</time>
      </trkpt>
      <trkpt lat="50.29786" lon="4.55983">
        <ele>260.647873</ele>
        <time>2024-12-17T11:00:25.000Z</time>
      </trkpt>
      <trkpt lat="50.29784" lon="4.55984">
        <ele>260.715497</ele>
        <time>2024-12-17T11:00:26.000Z</time>
      </trkpt>
      <trkpt lat="50.29782" lon="4.55986">
        <ele>260.779412</ele>
        <time>2024-12-17T11:00:27.000Z</time>
      </trkpt>
      <trkpt lat="50.29781" lon="4.55987">
        <ele>260.836865</ele>
        <time>2024-12-17T11:00:28.000Z</time>
      </trkpt>
      <trkpt lat="50.29779" lon="4.55988">
        <ele>260.897073</ele>
        <time>2024-12-17T11:00:29.000Z</time>
      </trkpt>
      <trkpt lat="50.29777" lon="4.5599">
        <ele>260.958396</ele>
        <time>2024-12-17T11:00:30.000Z</time>
      </trkpt>
      <trkpt lat="50.29776" lon="4.5599">
        <ele>261.014036</ele>
        <time>2024-12-17T11:00:31.000Z</time>
      </trkpt>
      <trkpt lat="50.29774" lon="4.55992">
        <ele>261.07617</ele>
        <time>2024-12-17T11:00:32.000Z</time>
      </trkpt>
      <trkpt lat="50.29772" lon="4.55994">
        <ele>261.146838</ele>
        <time>2024-12-17T11:00:33.000Z</time>
      </trkpt>
      <trkpt lat="50.2977" lon="4.55995">
        <ele>261.208595</ele>
        <time>2024-12-17T11:00:34.000Z</time>
      </trkpt>
      <trkpt lat="50.29769" lon="4.55997">
        <ele>261.274487</ele>
        <time>2024-12-17T11:00:35.000Z</time>
      </trkpt>
      <trkpt lat="50.29767" lon="4.55999">
        <ele>261.337716</ele>
        <time>2024-12-17T11:00:36.000Z</time>
      </trkpt>
      <trkpt lat="50.29765" lon="4.56">
        <ele>261.39989</ele>
        <time>2024-12-17T11:00:37.000Z</time>
      </trkpt>
      <trkpt lat="50.29763" lon="4.56002">
        <ele>261.46856</ele>
        <time>2024-12-17T11:00:38.000Z</time>
      </trkpt>
      <trkpt lat="50.29761" lon="4.56003">
        <ele>261.527011</ele>
        <time>2024-12-17T11:00:39.000Z</time>
      </trkpt>
      <trkpt lat="50.2976" lon="4.56004">
        <ele>261.590507</ele>
        <time>2024-12-17T11:00:40.000Z</time>
      </trkpt>
      <trkpt lat="50.29757" lon="4.56005">
        <ele>261.661289</ele>
        <time>2024-12-17T11:00:41.000Z</time>
      </trkpt>
      <trkpt lat="50.29756" lon="4.56007">
        <ele>261.729884</ele>
        <time>2024-12-17T11:00:42.000Z</time>
      </trkpt>
      <trkpt lat="50.29754" lon="4.56009">
        <ele>261.795329</ele>
        <time>2024-12-17T11:00:43.000Z</time>
      </trkpt>
      <trkpt lat="50.29752" lon="4.56011">
        <ele>261.859658</ele>
        <time>2024-12-17T11:00:44.000Z</time>
      </trkpt>
      <trkpt lat="50.2975" lon="4.56013">
        <ele>261.933761</ele>
        <time>2024-12-17T11:00:45.000Z</time>
      </trkpt>
      <trkpt lat="50.29748" lon="4.56015">
        <ele>262.007089</ele>
        <time>2024-12-17T11:00:46.000Z</time>
      </trkpt>
      <trkpt lat="50.29746" lon="4.56017">
        <ele>262.076275</ele>
        <time>2024-12-17T11:00:47.000Z</time>
      </trkpt>
      <trkpt lat="50.29744" lon="4.56019">
        <ele>262.150662</ele>
        <time>2024-12-17T11:00:48.000Z</time>
      </trkpt>
      <trkpt lat="50.29742" lon="4.5602">
        <ele>262.225706</ele>
        <time>2024-12-17T11:00:49.000Z</time>
      </trkpt>
      <trkpt lat="50.2974" lon="4.56022">
        <ele>262.304461</ele>
        <time>2024-12-17T11:00:50.000Z</time>
      </trkpt>
      <trkpt lat="50.29738" lon="4.56024">
        <ele>262.376771</ele>
        <time>2024-12-17T11:00:51.000Z</time>
      </trkpt>
      <trkpt lat="50.29736" lon="4.56026">
        <ele>262.449081</ele>
        <time>2024-12-17T11:00:52.000Z</time>
      </trkpt>
      <trkpt lat="50.29734" lon="4.56028">
        <ele>262.522285</ele>
        <time>2024-12-17T11:00:53.000Z</time>
      </trkpt>
      <trkpt lat="50.29732" lon="4.56029">
        <ele>262.591797</ele>
        <time>2024-12-17T11:00:54.000Z</time>
      </trkpt>
      <trkpt lat="50.2973" lon="4.56031">
        <ele>262.667822</ele>
        <time>2024-12-17T11:00:55.000Z</time>
      </trkpt>
      <trkpt lat="50.29728" lon="4.56033">
        <ele>262.74563</ele>
        <time>2024-12-17T11:00:56.000Z</time>
      </trkpt>
      <trkpt lat="50.29726" lon="4.56034">
        <ele>262.814225</ele>
        <time>2024-12-17T11:00:57.000Z</time>
      </trkpt>
      <trkpt lat="50.29724" lon="4.56036">
        <ele>262.883835</ele>
        <time>2024-12-17T11:00:58.000Z</time>
      </trkpt>
      <trkpt lat="50.29722" lon="4.56038">
        <ele>262.958878</ele>
        <time>2024-12-17T11:00:59.000Z</time>
      </trkpt>
      <trkpt lat="50.2972" lon="4.56039">
        <ele>263.030421</ele>
        <time>2024-12-17T11:01:00.000Z</time>
      </trkpt>
      <trkpt lat="50.29718" lon="4.56041">
        <ele>263.103626</ele>
        <time>2024-12-17T11:01:01.000Z</time>
      </trkpt>
      <trkpt lat="50.29716" lon="4.56043">
        <ele>263.174294</ele>
        <time>2024-12-17T11:01:02.000Z</time>
      </trkpt>
      <trkpt lat="50.29713" lon="4.56045">
        <ele>263.251194</ele>
        <time>2024-12-17T11:01:03.000Z</time>
      </trkpt>
      <trkpt lat="50.29711" lon="4.56046">
        <ele>263.322737</ele>
        <time>2024-12-17T11:01:04.000Z</time>
      </trkpt>
      <trkpt lat="50.29709" lon="4.56048">
        <ele>263.397781</ele>
        <time>2024-12-17T11:01:05.000Z</time>
      </trkpt>
      <trkpt lat="50.29707" lon="4.5605">
        <ele>263.468145</ele>
        <time>2024-12-17T11:01:06.000Z</time>
      </trkpt>
      <trkpt lat="50.29706" lon="4.56052">
        <ele>263.539724</ele>
        <time>2024-12-17T11:01:07.000Z</time>
      </trkpt>
      <trkpt lat="50.29704" lon="4.56055">
        <ele>263.60781</ele>
        <time>2024-12-17T11:01:08.000Z</time>
      </trkpt>
      <trkpt lat="50.29703" lon="4.56058">
        <ele>263.673628</ele>
        <time>2024-12-17T11:01:09.000Z</time>
      </trkpt>
      <trkpt lat="50.29703" lon="4.56061">
        <ele>263.738387</ele>
        <time>2024-12-17T11:01:10.000Z</time>
      </trkpt>
      <trkpt lat="50.29703" lon="4.56065">
        <ele>263.8155</ele>
        <time>2024-12-17T11:01:11.000Z</time>
      </trkpt>
      <trkpt lat="50.29704" lon="4.56068">
        <ele>263.894102</ele>
        <time>2024-12-17T11:01:12.000Z</time>
      </trkpt>
      <trkpt lat="50.29706" lon="4.56071">
        <ele>263.971969</ele>
        <time>2024-12-17T11:01:13.000Z</time>
      </trkpt>
      <trkpt lat="50.29708" lon="4.56074">
        <ele>264.05489</ele>
        <time>2024-12-17T11:01:14.000Z</time>
      </trkpt>
      <trkpt lat="50.2971" lon="4.56075">
        <ele>264.139188</ele>
        <time>2024-12-17T11:01:15.000Z</time>
      </trkpt>
      <trkpt lat="50.29713" lon="4.56077">
        <ele>264.220701</ele>
        <time>2024-12-17T11:01:16.000Z</time>
      </trkpt>
      <trkpt lat="50.29715" lon="4.56079">
        <ele>264.292754</ele>
        <time>2024-12-17T11:01:17.000Z</time>
      </trkpt>
      <trkpt lat="50.29717" lon="4.56081">
        <ele>264.30213</ele>
        <time>2024-12-17T11:01:18.000Z</time>
      </trkpt>
      <trkpt lat="50.2972" lon="4.56082">
        <ele>264.312415</ele>
        <time>2024-12-17T11:01:19.000Z</time>
      </trkpt>
      <trkpt lat="50.29722" lon="4.56084">
        <ele>264.322699</ele>
        <time>2024-12-17T11:01:20.000Z</time>
      </trkpt>
      <trkpt lat="50.29725" lon="4.56086">
        <ele>264.33355</ele>
        <time>2024-12-17T11:01:21.000Z</time>
      </trkpt>
      <trkpt lat="50.29727" lon="4.56088">
        <ele>264.3436</ele>
        <time>2024-12-17T11:01:22.000Z</time>
      </trkpt>
      <trkpt lat="50.29729" lon="4.5609">
        <ele>264.353769</ele>
        <time>2024-12-17T11:01:23.000Z</time>
      </trkpt>
      <trkpt lat="50.29731" lon="4.56092">
        <ele>264.364059</ele>
        <time>2024-12-17T11:01:24.000Z</time>
      </trkpt>
      <trkpt lat="50.29734" lon="4.56094">
        <ele>264.374808</ele>
        <time>2024-12-17T11:01:25.000Z</time>
      </trkpt>
      <trkpt lat="50.29736" lon="4.56097">
        <ele>264.385224</ele>
        <time>2024-12-17T11:01:26.000Z</time>
      </trkpt>
      <trkpt lat="50.29739" lon="4.56099">
        <ele>264.396366</ele>
        <time>2024-12-17T11:01:27.000Z</time>
      </trkpt>
      <trkpt lat="50.29741" lon="4.56101">
        <ele>264.407572</ele>
        <time>2024-12-17T11:01:28.000Z</time>
      </trkpt>
      <trkpt lat="50.29743" lon="4.56104">
        <ele>264.418579</ele>
        <time>2024-12-17T11:01:29.000Z</time>
      </trkpt>
      <trkpt lat="50.29746" lon="4.56107">
        <ele>264.430637</ele>
        <time>2024-12-17T11:01:30.000Z</time>
      </trkpt>
      <trkpt lat="50.29749" lon="4.56109">
        <ele>264.443314</ele>
        <time>2024-12-17T11:01:31.000Z</time>
      </trkpt>
      <trkpt lat="50.29752" lon="4.56111">
        <ele>264.455992</ele>
        <time>2024-12-17T11:01:32.000Z</time>
      </trkpt>
      <trkpt lat="50.29755" lon="4.56114">
        <ele>264.469244</ele>
        <time>2024-12-17T11:01:33.000Z</time>
      </trkpt>
      <trkpt lat="50.29758" lon="4.56117">
        <ele>264.482743</ele>
        <time>2024-12-17T11:01:34.000Z</time>
      </trkpt>
      <trkpt lat="50.29761" lon="4.56119">
        <ele>264.496453</ele>
        <time>2024-12-17T11:01:35.000Z</time>
      </trkpt>
      <trkpt lat="50.29764" lon="4.56122">
        <ele>264.510211</ele>
        <time>2024-12-17T11:01:36.000Z</time>
      </trkpt>
      <trkpt lat="50.29767" lon="4.56126">
        <ele>264.524562</ele>
        <time>2024-12-17T11:01:37.000Z</time>
      </trkpt>
      <trkpt lat="50.2977" lon="4.56129">
        <ele>264.53905</ele>
        <time>2024-12-17T11:01:38.000Z</time>
      </trkpt>
      <trkpt lat="50.29773" lon="4.56132">
        <ele>264.553997</ele>
        <time>2024-12-17T11:01:39.000Z</time>
      </trkpt>
      <trkpt lat="50.29777" lon="4.56136">
        <ele>264.56986</ele>
        <time>2024-12-17T11:01:40.000Z</time>
      </trkpt>
      <trkpt lat="50.2978" lon="4.56139">
        <ele>264.585265</ele>
        <time>2024-12-17T11:01:41.000Z</time>
      </trkpt>
      <trkpt lat="50.29783" lon="4.56143">
        <ele>264.60064</ele>
        <time>2024-12-17T11:01:42.000Z</time>
      </trkpt>
      <trkpt lat="50.29787" lon="4.56146">
        <ele>264.615972</ele>
        <time>2024-12-17T11:01:43.000Z</time>
      </trkpt>
      <trkpt lat="50.2979" lon="4.56149">
        <ele>264.631851</ele>
        <time>2024-12-17T11:01:44.000Z</time>
      </trkpt>
      <trkpt lat="50.29794" lon="4.56153">
        <ele>264.647516</ele>
        <time>2024-12-17T11:01:45.000Z</time>
      </trkpt>
      <trkpt lat="50.29797" lon="4.56156">
        <ele>264.663639</ele>
        <time>2024-12-17T11:01:46.000Z</time>
      </trkpt>
      <trkpt lat="50.29801" lon="4.56159">
        <ele>264.679888</ele>
        <time>2024-12-17T11:01:47.000Z</time>
      </trkpt>
      <trkpt lat="50.29805" lon="4.56163">
        <ele>264.696595</ele>
        <time>2024-12-17T11:01:48.000Z</time>
      </trkpt>
      <trkpt lat="50.29808" lon="4.56166">
        <ele>264.713271</ele>
        <time>2024-12-17T11:01:49.000Z</time>
      </trkpt>
      <trkpt lat="50.29812" lon="4.56169">
        <ele>264.730186</ele>
        <time>2024-12-17T11:01:50.000Z</time>
      </trkpt>
      <trkpt lat="50.29816" lon="4.56173">
        <ele>264.746371</ele>
        <time>2024-12-17T11:01:51.000Z</time>
      </trkpt>
      <trkpt lat="50.29819" lon="4.56177">
        <ele>264.762235</ele>
        <time>2024-12-17T11:01:52.000Z</time>
      </trkpt>
      <trkpt lat="50.29822" lon="4.56181">
        <ele>264.778061</ele>
        <time>2024-12-17T11:01:53.000Z</time>
      </trkpt>
      <trkpt lat="50.29826" lon="4.56185">
        <ele>264.794042</ele>
        <time>2024-12-17T11:01:54.000Z</time>
      </trkpt>
      <trkpt lat="50.29829" lon="4.56189">
        <ele>264.809715</ele>
        <time>2024-12-17T11:01:55.000Z</time>
      </trkpt>
      <trkpt lat="50.29832" lon="4.56192">
        <ele>264.825402</ele>
        <time>2024-12-17T11:01:56.000Z</time>
      </trkpt>
      <trkpt lat="50.29836" lon="4.56196">
        <ele>264.841193</ele>
        <time>2024-12-17T11:01:57.000Z</time>
      </trkpt>
      <trkpt lat="50.29839" lon="4.56199">
        <ele>264.85688</ele>
        <time>2024-12-17T11:01:58.000Z</time>
      </trkpt>
      <trkpt lat="50.29842" lon="4.56203">
        <ele>264.872607</ele>
        <time>2024-12-17T11:01:59.000Z</time>
      </trkpt>
      <trkpt lat="50.29846" lon="4.56206">
        <ele>264.888152</ele>
        <time>2024-12-17T11:02:00.000Z</time>
      </trkpt>
      <trkpt lat="50.29849" lon="4.5621">
        <ele>264.903526</ele>
        <time>2024-12-17T11:02:01.000Z</time>
      </trkpt>
      <trkpt lat="50.29852" lon="4.56214">
        <ele>264.918896</ele>
        <time>2024-12-17T11:02:02.000Z</time>
      </trkpt>
      <trkpt lat="50.29855" lon="4.56218">
        <ele>264.933656</ele>
        <time>2024-12-17T11:02:03.000Z</time>
      </trkpt>
      <trkpt lat="50.29858" lon="4.56221">
        <ele>264.948145</ele>
        <time>2024-12-17T11:02:04.000Z</time>
      </trkpt>
      <trkpt lat="50.29861" lon="4.56224">
        <ele>264.962174</ele>
        <time>2024-12-17T11:02:05.000Z</time>
      </trkpt>
      <trkpt lat="50.29864" lon="4.56228">
        <ele>264.976478</ele>
        <time>2024-12-17T11:02:06.000Z</time>
      </trkpt>
      <trkpt lat="50.29867" lon="4.56231">
        <ele>264.993709</ele>
        <time>2024-12-17T11:02:07.000Z</time>
      </trkpt>
      <trkpt lat="50.29869" lon="4.56235">
        <ele>265.018277</ele>
        <time>2024-12-17T11:02:08.000Z</time>
      </trkpt>
      <trkpt lat="50.29872" lon="4.56239">
        <ele>265.043566</ele>
        <time>2024-12-17T11:02:09.000Z</time>
      </trkpt>
      <trkpt lat="50.29874" lon="4.56243">
        <ele>265.070007</ele>
        <time>2024-12-17T11:02:10.000Z</time>
      </trkpt>
      <trkpt lat="50.29877" lon="4.56247">
        <ele>265.097727</ele>
        <time>2024-12-17T11:02:11.000Z</time>
      </trkpt>
      <trkpt lat="50.2988" lon="4.56251">
        <ele>265.1248</ele>
        <time>2024-12-17T11:02:12.000Z</time>
      </trkpt>
      <trkpt lat="50.29882" lon="4.56256">
        <ele>265.150585</ele>
        <time>2024-12-17T11:02:13.000Z</time>
      </trkpt>
      <trkpt lat="50.29884" lon="4.5626">
        <ele>265.176723</ele>
        <time>2024-12-17T11:02:14.000Z</time>
      </trkpt>
      <trkpt lat="50.29886" lon="4.56265">
        <ele>265.202344</ele>
        <time>2024-12-17T11:02:15.000Z</time>
      </trkpt>
      <trkpt lat="50.29888" lon="4.56269">
        <ele>265.225597</ele>
        <time>2024-12-17T11:02:16.000Z</time>
      </trkpt>
      <trkpt lat="50.2989" lon="4.56273">
        <ele>265.247686</ele>
        <time>2024-12-17T11:02:17.000Z</time>
      </trkpt>
      <trkpt lat="50.29891" lon="4.56277">
        <ele>265.269466</ele>
        <time>2024-12-17T11:02:18.000Z</time>
      </trkpt>
      <trkpt lat="50.29892" lon="4.56282">
        <ele>265.290937</ele>
        <time>2024-12-17T11:02:19.000Z</time>
      </trkpt>
      <trkpt lat="50.29893" lon="4.56286">
        <ele>265.312521</ele>
        <time>2024-12-17T11:02:20.000Z</time>
      </trkpt>
      <trkpt lat="50.29893" lon="4.56291">
        <ele>265.336439</ele>
        <time>2024-12-17T11:02:21.000Z</time>
      </trkpt>
      <trkpt lat="50.29892" lon="4.56297">
        <ele>265.361817</ele>
        <time>2024-12-17T11:02:22.000Z</time>
      </trkpt>
      <trkpt lat="50.29892" lon="4.56302">
        <ele>265.38703</ele>
        <time>2024-12-17T11:02:23.000Z</time>
      </trkpt>
      <trkpt lat="50.29891" lon="4.56308">
        <ele>265.412515</ele>
        <time>2024-12-17T11:02:24.000Z</time>
      </trkpt>
      <trkpt lat="50.2989" lon="4.56313">
        <ele>265.438805</ele>
        <time>2024-12-17T11:02:25.000Z</time>
      </trkpt>
      <trkpt lat="50.29888" lon="4.56318">
        <ele>265.465336</ele>
        <time>2024-12-17T11:02:26.000Z</time>
      </trkpt>
      <trkpt lat="50.29887" lon="4.56324">
        <ele>265.491437</ele>
        <time>2024-12-17T11:02:27.000Z</time>
      </trkpt>
      <trkpt lat="50.29886" lon="4.56329">
        <ele>265.517559</ele>
        <time>2024-12-17T11:02:28.000Z</time>
      </trkpt>
      <trkpt lat="50.29884" lon="4.56334">
        <ele>265.546064</ele>
        <time>2024-12-17T11:02:29.000Z</time>
      </trkpt>
      <trkpt lat="50.29882" lon="4.5634">
        <ele>265.573982</ele>
        <time>2024-12-17T11:02:30.000Z</time>
      </trkpt>
      <trkpt lat="50.29881" lon="4.56346">
        <ele>265.602057</ele>
        <time>2024-12-17T11:02:31.000Z</time>
      </trkpt>
      <trkpt lat="50.29879" lon="4.56351">
        <ele>265.6304</ele>
        <time>2024-12-17T11:02:32.000Z</time>
      </trkpt>
      <trkpt lat="50.29878" lon="4.56357">
        <ele>265.658475</ele>
        <time>2024-12-17T11:02:33.000Z</time>
      </trkpt>
      <trkpt lat="50.29877" lon="4.56363">
        <ele>265.686734</ele>
        <time>2024-12-17T11:02:34.000Z</time>
      </trkpt>
      <trkpt lat="50.29875" lon="4.56369">
        <ele>265.71524</ele>
        <time>2024-12-17T11:02:35.000Z</time>
      </trkpt>
      <trkpt lat="50.29874" lon="4.56374">
        <ele>265.742887</ele>
        <time>2024-12-17T11:02:36.000Z</time>
      </trkpt>
      <trkpt lat="50.29873" lon="4.5638">
        <ele>265.771144</ele>
        <time>2024-12-17T11:02:37.000Z</time>
      </trkpt>
      <trkpt lat="50.29872" lon="4.56386">
        <ele>265.799611</ele>
        <time>2024-12-17T11:02:38.000Z</time>
      </trkpt>
      <trkpt lat="50.2987" lon="4.56392">
        <ele>265.828516</ele>
        <time>2024-12-17T11:02:39.000Z</time>
      </trkpt>
      <trkpt lat="50.2987" lon="4.56398">
        <ele>265.855957</ele>
        <time>2024-12-17T11:02:40.000Z</time>
      </trkpt>
      <trkpt lat="50.29869" lon="4.56403">
        <ele>265.880994</ele>
        <time>2024-12-17T11:02:41.000Z</time>
      </trkpt>
      <trkpt lat="50.29868" lon="4.56409">
        <ele>265.907446</ele>
        <time>2024-12-17T11:02:42.000Z</time>
      </trkpt>
      <trkpt lat="50.29868" lon="4.56415">
        <ele>265.934266</ele>
        <time>2024-12-17T11:02:43.000Z</time>
      </trkpt>
      <trkpt lat="50.29867" lon="4.5642">
        <ele>265.961442</ele>
        <time>2024-12-17T11:02:44.000Z</time>
      </trkpt>
      <trkpt lat="50.29866" lon="4.56426">
        <ele>265.987544</ele>
        <time>2024-12-17T11:02:45.000Z</time>
      </trkpt>
      <trkpt lat="50.29865" lon="4.56432">
        <ele>266.014557</ele>
        <time>2024-12-17T11:02:46.000Z</time>
      </trkpt>
      <trkpt lat="50.29865" lon="4.56437">
        <ele>266.040791</ele>
        <time>2024-12-17T11:02:47.000Z</time>
      </trkpt>
      <trkpt lat="50.29864" lon="4.56443">
        <ele>266.066004</ele>
        <time>2024-12-17T11:02:48.000Z</time>
      </trkpt>
      <trkpt lat="50.29863" lon="4.56448">
        <ele>266.092238</ele>
        <time>2024-12-17T11:02:49.000Z</time>
      </trkpt>
      <trkpt lat="50.29862" lon="4.56455">
        <ele>266.123123</ele>
        <time>2024-12-17T11:02:50.000Z</time>
      </trkpt>
      <trkpt lat="50.29861" lon="4.56462">
        <ele>266.156401</ele>
        <time>2024-12-17T11:02:51.000Z</time>
      </trkpt>
      <trkpt lat="50.2986" lon="4.56469">
        <ele>266.18893</ele>
        <time>2024-12-17T11:02:52.000Z</time>
      </trkpt>
      <trkpt lat="50.29859" lon="4.56475">
        <ele>266.219845</ele>
        <time>2024-12-17T11:02:53.000Z</time>
      </trkpt>
      <trkpt lat="50.29858" lon="4.56481">
        <ele>266.248628</ele>
        <time>2024-12-17T11:02:54.000Z</time>
      </trkpt>
      <trkpt lat="50.29858" lon="4.56487">
        <ele>266.274113</ele>
        <time>2024-12-17T11:02:55.000Z</time>
      </trkpt>
      <trkpt lat="50.29857" lon="4.56492">
        <ele>266.295074</ele>
        <time>2024-12-17T11:02:56.000Z</time>
      </trkpt>
      <trkpt lat="50.29856" lon="4.56497">
        <ele>266.313028</ele>
        <time>2024-12-17T11:02:57.000Z</time>
      </trkpt>
      <trkpt lat="50.29855" lon="4.56501">
        <ele>266.330809</ele>
        <time>2024-12-17T11:02:58.000Z</time>
      </trkpt>
      <trkpt lat="50.29854" lon="4.56506">
        <ele>266.348652</ele>
        <time>2024-12-17T11:02:59.000Z</time>
      </trkpt>
      <trkpt lat="50.29852" lon="4.5651">
        <ele>266.365823</ele>
        <time>2024-12-17T11:03:00.000Z</time>
      </trkpt>
      <trkpt lat="50.29852" lon="4.56515">
        <ele>266.383126</ele>
        <time>2024-12-17T11:03:01.000Z</time>
      </trkpt>
      <trkpt lat="50.29851" lon="4.56519">
        <ele>266.400476</ele>
        <time>2024-12-17T11:03:02.000Z</time>
      </trkpt>
      <trkpt lat="50.29851" lon="4.56524">
        <ele>266.418995</ele>
        <time>2024-12-17T11:03:03.000Z</time>
      </trkpt>
      <trkpt lat="50.2985" lon="4.56529">
        <ele>266.436892</ele>
        <time>2024-12-17T11:03:04.000Z</time>
      </trkpt>
      <trkpt lat="50.2985" lon="4.56534">
        <ele>266.453967</ele>
        <time>2024-12-17T11:03:05.000Z</time>
      </trkpt>
      <trkpt lat="50.29849" lon="4.56539">
        <ele>266.471402</ele>
        <time>2024-12-17T11:03:06.000Z</time>
      </trkpt>
      <trkpt lat="50.29848" lon="4.56543">
        <ele>266.489908</ele>
        <time>2024-12-17T11:03:07.000Z</time>
      </trkpt>
      <trkpt lat="50.29848" lon="4.56548">
        <ele>266.507924</ele>
        <time>2024-12-17T11:03:08.000Z</time>
      </trkpt>
      <trkpt lat="50.29847" lon="4.56553">
        <ele>266.525723</ele>
        <time>2024-12-17T11:03:09.000Z</time>
      </trkpt>
      <trkpt lat="50.29846" lon="4.56558">
        <ele>266.543739</ele>
        <time>2024-12-17T11:03:10.000Z</time>
      </trkpt>
      <trkpt lat="50.29845" lon="4.56562">
        <ele>266.560831</ele>
        <time>2024-12-17T11:03:11.000Z</time>
      </trkpt>
      <trkpt lat="50.29845" lon="4.56567">
        <ele>266.578085</ele>
        <time>2024-12-17T11:03:12.000Z</time>
      </trkpt>
      <trkpt lat="50.29844" lon="4.56571">
        <ele>266.595178</ele>
        <time>2024-12-17T11:03:13.000Z</time>
      </trkpt>
      <trkpt lat="50.29843" lon="4.56576">
        <ele>266.611641</ele>
        <time>2024-12-17T11:03:14.000Z</time>
      </trkpt>
      <trkpt lat="50.29843" lon="4.5658">
        <ele>266.627634</ele>
        <time>2024-12-17T11:03:15.000Z</time>
      </trkpt>
      <trkpt lat="50.29842" lon="4.56584">
        <ele>266.643352</ele>
        <time>2024-12-17T11:03:16.000Z</time>
      </trkpt>
      <trkpt lat="50.29841" lon="4.56587">
        <ele>266.656772</ele>
        <time>2024-12-17T11:03:17.000Z</time>
      </trkpt>
      <trkpt lat="50.2984" lon="4.56591">
        <ele>266.668472</ele>
        <time>2024-12-17T11:03:18.000Z</time>
      </trkpt>
      <trkpt lat="50.2984" lon="4.56593">
        <ele>266.678861</ele>
        <time>2024-12-17T11:03:19.000Z</time>
      </trkpt>
      <trkpt lat="50.2984" lon="4.56596">
        <ele>266.687092</ele>
        <time>2024-12-17T11:03:20.000Z</time>
      </trkpt>
      <trkpt lat="50.2984" lon="4.56597">
        <ele>266.693417</ele>
        <time>2024-12-17T11:03:21.000Z</time>
      </trkpt>
      <trkpt lat="50.2984" lon="4.56599">
        <ele>266.699638</ele>
        <time>2024-12-17T11:03:22.000Z</time>
      </trkpt>
      <trkpt lat="50.29839" lon="4.56601">
        <ele>266.708228</ele>
        <time>2024-12-17T11:03:23.000Z</time>
      </trkpt>
      <trkpt lat="50.29839" lon="4.56604">
        <ele>266.718617</ele>
        <time>2024-12-17T11:03:24.000Z</time>
      </trkpt>
      <trkpt lat="50.29839" lon="4.56607">
        <ele>266.728926</ele>
        <time>2024-12-17T11:03:25.000Z</time>
      </trkpt>
      <trkpt lat="50.29838" lon="4.5661">
        <ele>266.740779</ele>
        <time>2024-12-17T11:03:26.000Z</time>
      </trkpt>
      <trkpt lat="50.29838" lon="4.56613">
        <ele>266.75404</ele>
        <time>2024-12-17T11:03:27.000Z</time>
      </trkpt>
      <trkpt lat="50.29837" lon="4.56617">
        <ele>266.76705</ele>
        <time>2024-12-17T11:03:28.000Z</time>
      </trkpt>
      <trkpt lat="50.29837" lon="4.5662">
        <ele>266.779254</ele>
        <time>2024-12-17T11:03:29.000Z</time>
      </trkpt>
      <trkpt lat="50.29836" lon="4.56623">
        <ele>266.791106</ele>
        <time>2024-12-17T11:03:30.000Z</time>
      </trkpt>
      <trkpt lat="50.29835" lon="4.56626">
        <ele>266.80331</ele>
        <time>2024-12-17T11:03:31.000Z</time>
      </trkpt>
      <trkpt lat="50.29835" lon="4.5663">
        <ele>266.815865</ele>
        <time>2024-12-17T11:03:32.000Z</time>
      </trkpt>
      <trkpt lat="50.29834" lon="4.56633">
        <ele>266.828099</ele>
        <time>2024-12-17T11:03:33.000Z</time>
      </trkpt>
      <trkpt lat="50.29833" lon="4.56636">
        <ele>266.840807</ele>
        <time>2024-12-17T11:03:34.000Z</time>
      </trkpt>
      <trkpt lat="50.29832" lon="4.5664">
        <ele>266.854776</ele>
        <time>2024-12-17T11:03:35.000Z</time>
      </trkpt>
      <trkpt lat="50.29832" lon="4.56643">
        <ele>266.868507</ele>
        <time>2024-12-17T11:03:36.000Z</time>
      </trkpt>
      <trkpt lat="50.29832" lon="4.56647">
        <ele>266.882518</ele>
        <time>2024-12-17T11:03:37.000Z</time>
      </trkpt>
      <trkpt lat="50.29831" lon="4.56651">
        <ele>266.897333</ele>
        <time>2024-12-17T11:03:38.000Z</time>
      </trkpt>
      <trkpt lat="50.29831" lon="4.56655">
        <ele>266.912157</ele>
        <time>2024-12-17T11:03:39.000Z</time>
      </trkpt>
      <trkpt lat="50.2983" lon="4.56659">
        <ele>266.927905</ele>
        <time>2024-12-17T11:03:40.000Z</time>
      </trkpt>
      <trkpt lat="50.2983" lon="4.56664">
        <ele>266.943733</ele>
        <time>2024-12-17T11:03:41.000Z</time>
      </trkpt>
      <trkpt lat="50.29829" lon="4.56668">
        <ele>266.959481</ele>
        <time>2024-12-17T11:03:42.000Z</time>
      </trkpt>
      <trkpt lat="50.29828" lon="4.56672">
        <ele>266.976222</ele>
        <time>2024-12-17T11:03:43.000Z</time>
      </trkpt>
      <trkpt lat="50.29828" lon="4.56677">
        <ele>266.992685</ele>
        <time>2024-12-17T11:03:44.000Z</time>
      </trkpt>
      <trkpt lat="50.29827" lon="4.56681">
        <ele>267.009148</ele>
        <time>2024-12-17T11:03:45.000Z</time>
      </trkpt>
      <trkpt lat="50.29827" lon="4.56685">
        <ele>267.025969</ele>
        <time>2024-12-17T11:03:46.000Z</time>
      </trkpt>
      <trkpt lat="50.29826" lon="4.5669">
        <ele>267.042917</ele>
        <time>2024-12-17T11:03:47.000Z</time>
      </trkpt>
      <trkpt lat="50.29825" lon="4.56694">
        <ele>267.059865</ele>
        <time>2024-12-17T11:03:48.000Z</time>
      </trkpt>
      <trkpt lat="50.29824" lon="4.56699">
        <ele>267.076605</ele>
        <time>2024-12-17T11:03:49.000Z</time>
      </trkpt>
      <trkpt lat="50.29824" lon="4.56703">
        <ele>267.093345</ele>
        <time>2024-12-17T11:03:50.000Z</time>
      </trkpt>
      <trkpt lat="50.29823" lon="4.56708">
        <ele>267.111143</ele>
        <time>2024-12-17T11:03:51.000Z</time>
      </trkpt>
      <trkpt lat="50.29822" lon="4.56713">
        <ele>267.129618</ele>
        <time>2024-12-17T11:03:52.000Z</time>
      </trkpt>
      <trkpt lat="50.29821" lon="4.56718">
        <ele>267.148627</ele>
        <time>2024-12-17T11:03:53.000Z</time>
      </trkpt>
      <trkpt lat="50.2982" lon="4.56723">
        <ele>267.166643</ele>
        <time>2024-12-17T11:03:54.000Z</time>
      </trkpt>
      <trkpt lat="50.2982" lon="4.56727">
        <ele>267.184356</ele>
        <time>2024-12-17T11:03:55.000Z</time>
      </trkpt>
      <trkpt lat="50.29819" lon="4.56732">
        <ele>267.200819</ele>
        <time>2024-12-17T11:03:56.000Z</time>
      </trkpt>
      <trkpt lat="50.29818" lon="4.56736">
        <ele>267.215995</ele>
        <time>2024-12-17T11:03:57.000Z</time>
      </trkpt>
      <trkpt lat="50.29818" lon="4.5674">
        <ele>267.231269</ele>
        <time>2024-12-17T11:03:58.000Z</time>
      </trkpt>
      <trkpt lat="50.29817" lon="4.56744">
        <ele>267.246184</ele>
        <time>2024-12-17T11:03:59.000Z</time>
      </trkpt>
      <trkpt lat="50.29817" lon="4.56748">
        <ele>267.260655</ele>
        <time>2024-12-17T11:04:00.000Z</time>
      </trkpt>
      <trkpt lat="50.29816" lon="4.56751">
        <ele>267.27427</ele>
        <time>2024-12-17T11:04:01.000Z</time>
      </trkpt>
      <trkpt lat="50.29816" lon="4.56755">
        <ele>267.287884</ele>
        <time>2024-12-17T11:04:02.000Z</time>
      </trkpt>
      <trkpt lat="50.29815" lon="4.56758">
        <ele>267.301304</ele>
        <time>2024-12-17T11:04:03.000Z</time>
      </trkpt>
      <trkpt lat="50.29814" lon="4.56762">
        <ele>267.302649</ele>
        <time>2024-12-17T11:04:04.000Z</time>
      </trkpt>
      <trkpt lat="50.29814" lon="4.56765">
        <ele>267.268481</ele>
        <time>2024-12-17T11:04:05.000Z</time>
      </trkpt>
      <trkpt lat="50.29813" lon="4.56768">
        <ele>267.235923</ele>
        <time>2024-12-17T11:04:06.000Z</time>
      </trkpt>
      <trkpt lat="50.29813" lon="4.56772">
        <ele>267.198547</ele>
        <time>2024-12-17T11:04:07.000Z</time>
      </trkpt>
      <trkpt lat="50.29813" lon="4.56776">
        <ele>267.159724</ele>
        <time>2024-12-17T11:04:08.000Z</time>
      </trkpt>
      <trkpt lat="50.29813" lon="4.5678">
        <ele>267.120162</ele>
        <time>2024-12-17T11:04:09.000Z</time>
      </trkpt>
      <trkpt lat="50.29812" lon="4.56784">
        <ele>267.079172</ele>
        <time>2024-12-17T11:04:10.000Z</time>
      </trkpt>
      <trkpt lat="50.29811" lon="4.56788">
        <ele>267.036273</ele>
        <time>2024-12-17T11:04:11.000Z</time>
      </trkpt>
      <trkpt lat="50.29811" lon="4.56793">
        <ele>266.992011</ele>
        <time>2024-12-17T11:04:12.000Z</time>
      </trkpt>
      <trkpt lat="50.2981" lon="4.56797">
        <ele>266.948229</ele>
        <time>2024-12-17T11:04:13.000Z</time>
      </trkpt>
      <trkpt lat="50.29809" lon="4.56801">
        <ele>266.906316</ele>
        <time>2024-12-17T11:04:14.000Z</time>
      </trkpt>
      <trkpt lat="50.29808" lon="4.56805">
        <ele>266.86246</ele>
        <time>2024-12-17T11:04:15.000Z</time>
      </trkpt>
      <trkpt lat="50.29808" lon="4.5681">
        <ele>266.816345</ele>
        <time>2024-12-17T11:04:16.000Z</time>
      </trkpt>
      <trkpt lat="50.29807" lon="4.56814">
        <ele>266.77303</ele>
        <time>2024-12-17T11:04:17.000Z</time>
      </trkpt>
      <trkpt lat="50.29806" lon="4.56818">
        <ele>266.729656</ele>
        <time>2024-12-17T11:04:18.000Z</time>
      </trkpt>
      <trkpt lat="50.29805" lon="4.56822">
        <ele>266.684794</ele>
        <time>2024-12-17T11:04:19.000Z</time>
      </trkpt>
      <trkpt lat="50.29804" lon="4.56826">
        <ele>266.642851</ele>
        <time>2024-12-17T11:04:20.000Z</time>
      </trkpt>
      <trkpt lat="50.29804" lon="4.56831">
        <ele>266.598136</ele>
        <time>2024-12-17T11:04:21.000Z</time>
      </trkpt>
      <trkpt lat="50.29803" lon="4.56835">
        <ele>266.553234</ele>
        <time>2024-12-17T11:04:22.000Z</time>
      </trkpt>
      <trkpt lat="50.29803" lon="4.5684">
        <ele>266.510484</ele>
        <time>2024-12-17T11:04:23.000Z</time>
      </trkpt>
      <trkpt lat="50.29803" lon="4.56844">
        <ele>266.469494</ele>
        <time>2024-12-17T11:04:24.000Z</time>
      </trkpt>
      <trkpt lat="50.29802" lon="4.56848">
        <ele>266.430181</ele>
        <time>2024-12-17T11:04:25.000Z</time>
      </trkpt>
      <trkpt lat="50.29802" lon="4.56851">
        <ele>266.393411</ele>
        <time>2024-12-17T11:04:26.000Z</time>
      </trkpt>
      <trkpt lat="50.29801" lon="4.56854">
        <ele>266.365628</ele>
        <time>2024-12-17T11:04:27.000Z</time>
      </trkpt>
      <trkpt lat="50.298" lon="4.56856">
        <ele>266.344681</ele>
        <time>2024-12-17T11:04:28.000Z</time>
      </trkpt>
      <trkpt lat="50.298" lon="4.56858">
        <ele>266.322532</ele>
        <time>2024-12-17T11:04:29.000Z</time>
      </trkpt>
      <trkpt lat="50.29799" lon="4.56861">
        <ele>266.293798</ele>
        <time>2024-12-17T11:04:30.000Z</time>
      </trkpt>
      <trkpt lat="50.29799" lon="4.56864">
        <ele>266.260755</ele>
        <time>2024-12-17T11:04:31.000Z</time>
      </trkpt>
      <trkpt lat="50.29798" lon="4.56867">
        <ele>266.227795</ele>
        <time>2024-12-17T11:04:32.000Z</time>
      </trkpt>
      <trkpt lat="50.29798" lon="4.5687">
        <ele>266.197985</ele>
        <time>2024-12-17T11:04:33.000Z</time>
      </trkpt>
      <trkpt lat="50.29797" lon="4.56873">
        <ele>266.167858</ele>
        <time>2024-12-17T11:04:34.000Z</time>
      </trkpt>
      <trkpt lat="50.29797" lon="4.56876">
        <ele>266.1353</ele>
        <time>2024-12-17T11:04:35.000Z</time>
      </trkpt>
      <trkpt lat="50.29796" lon="4.5688">
        <ele>266.097924</ele>
        <time>2024-12-17T11:04:36.000Z</time>
      </trkpt>
      <trkpt lat="50.29796" lon="4.56883">
        <ele>266.062784</ele>
        <time>2024-12-17T11:04:37.000Z</time>
      </trkpt>
      <trkpt lat="50.29795" lon="4.56887">
        <ele>266.027644</ele>
        <time>2024-12-17T11:04:38.000Z</time>
      </trkpt>
      <trkpt lat="50.29795" lon="4.5689">
        <ele>265.993278</ele>
        <time>2024-12-17T11:04:39.000Z</time>
      </trkpt>
      <trkpt lat="50.29794" lon="4.56893">
        <ele>265.958913</ele>
        <time>2024-12-17T11:04:40.000Z</time>
      </trkpt>
      <trkpt lat="50.29793" lon="4.56897">
        <ele>265.924548</ele>
        <time>2024-12-17T11:04:41.000Z</time>
      </trkpt>
      <trkpt lat="50.29793" lon="4.569">
        <ele>265.890066</ele>
        <time>2024-12-17T11:04:42.000Z</time>
      </trkpt>
      <trkpt lat="50.29792" lon="4.56904">
        <ele>265.852396</ele>
        <time>2024-12-17T11:04:43.000Z</time>
      </trkpt>
      <trkpt lat="50.29791" lon="4.56908">
        <ele>265.811164</ele>
        <time>2024-12-17T11:04:44.000Z</time>
      </trkpt>
      <trkpt lat="50.2979" lon="4.56911">
        <ele>265.77111</ele>
        <time>2024-12-17T11:04:45.000Z</time>
      </trkpt>
      <trkpt lat="50.29789" lon="4.56916">
        <ele>265.727328</ele>
        <time>2024-12-17T11:04:46.000Z</time>
      </trkpt>
      <trkpt lat="50.29788" lon="4.5692">
        <ele>265.683546</ele>
        <time>2024-12-17T11:04:47.000Z</time>
      </trkpt>
      <trkpt lat="50.29787" lon="4.56924">
        <ele>265.638074</ele>
        <time>2024-12-17T11:04:48.000Z</time>
      </trkpt>
      <trkpt lat="50.29786" lon="4.56928">
        <ele>265.590455</ele>
        <time>2024-12-17T11:04:49.000Z</time>
      </trkpt>
      <trkpt lat="50.29785" lon="4.56933">
        <ele>265.541348</ele>
        <time>2024-12-17T11:04:50.000Z</time>
      </trkpt>
      <trkpt lat="50.29784" lon="4.56938">
        <ele>265.491325</ele>
        <time>2024-12-17T11:04:51.000Z</time>
      </trkpt>
      <trkpt lat="50.29782" lon="4.56942">
        <ele>265.440966</ele>
        <time>2024-12-17T11:04:52.000Z</time>
      </trkpt>
      <trkpt lat="50.29781" lon="4.56947">
        <ele>265.386698</ele>
        <time>2024-12-17T11:04:53.000Z</time>
      </trkpt>
      <trkpt lat="50.2978" lon="4.56953">
        <ele>265.327811</ele>
        <time>2024-12-17T11:04:54.000Z</time>
      </trkpt>
      <trkpt lat="50.29778" lon="4.56959">
        <ele>265.267063</ele>
        <time>2024-12-17T11:04:55.000Z</time>
      </trkpt>
      <trkpt lat="50.29777" lon="4.56965">
        <ele>265.204446</ele>
        <time>2024-12-17T11:04:56.000Z</time>
      </trkpt>
      <trkpt lat="50.29775" lon="4.56971">
        <ele>265.141687</ele>
        <time>2024-12-17T11:04:57.000Z</time>
      </trkpt>
      <trkpt lat="50.29774" lon="4.56977">
        <ele>265.079484</ele>
        <time>2024-12-17T11:04:58.000Z</time>
      </trkpt>
      <trkpt lat="50.29773" lon="4.56983">
        <ele>265.018289</ele>
        <time>2024-12-17T11:04:59.000Z</time>
      </trkpt>
      <trkpt lat="50.29772" lon="4.56988">
        <ele>264.958982</ele>
        <time>2024-12-17T11:05:00.000Z</time>
      </trkpt>
      <trkpt lat="50.29771" lon="4.56994">
        <ele>264.902269</ele>
        <time>2024-12-17T11:05:01.000Z</time>
      </trkpt>
      <trkpt lat="50.2977" lon="4.56999">
        <ele>264.849977</ele>
        <time>2024-12-17T11:05:02.000Z</time>
      </trkpt>
      <trkpt lat="50.29769" lon="4.57004">
        <ele>264.80087</ele>
        <time>2024-12-17T11:05:03.000Z</time>
      </trkpt>
      <trkpt lat="50.29768" lon="4.57009">
        <ele>264.749089</ele>
        <time>2024-12-17T11:05:04.000Z</time>
      </trkpt>
      <trkpt lat="50.29767" lon="4.57014">
        <ele>264.695375</ele>
        <time>2024-12-17T11:05:05.000Z</time>
      </trkpt>
      <trkpt lat="50.29766" lon="4.57019">
        <ele>264.64142</ele>
        <time>2024-12-17T11:05:06.000Z</time>
      </trkpt>
      <trkpt lat="50.29764" lon="4.57024">
        <ele>264.588068</ele>
        <time>2024-12-17T11:05:07.000Z</time>
      </trkpt>
      <trkpt lat="50.29763" lon="4.57029">
        <ele>264.537679</ele>
        <time>2024-12-17T11:05:08.000Z</time>
      </trkpt>
      <trkpt lat="50.29762" lon="4.57034">
        <ele>264.513021</ele>
        <time>2024-12-17T11:05:09.000Z</time>
      </trkpt>
      <trkpt lat="50.29761" lon="4.57038">
        <ele>264.495899</ele>
        <time>2024-12-17T11:05:10.000Z</time>
      </trkpt>
      <trkpt lat="50.2976" lon="4.57043">
        <ele>264.479196</ele>
        <time>2024-12-17T11:05:11.000Z</time>
      </trkpt>
      <trkpt lat="50.29759" lon="4.57047">
        <ele>264.463133</ele>
        <time>2024-12-17T11:05:12.000Z</time>
      </trkpt>
      <trkpt lat="50.29758" lon="4.57051">
        <ele>264.447245</ele>
        <time>2024-12-17T11:05:13.000Z</time>
      </trkpt>
      <trkpt lat="50.29757" lon="4.57055">
        <ele>264.432527</ele>
        <time>2024-12-17T11:05:14.000Z</time>
      </trkpt>
      <trkpt lat="50.29756" lon="4.57059">
        <ele>264.418421</ele>
        <time>2024-12-17T11:05:15.000Z</time>
      </trkpt>
      <trkpt lat="50.29756" lon="4.57063">
        <ele>264.404519</ele>
        <time>2024-12-17T11:05:16.000Z</time>
      </trkpt>
      <trkpt lat="50.29755" lon="4.57067">
        <ele>264.389802</ele>
        <time>2024-12-17T11:05:17.000Z</time>
      </trkpt>
      <trkpt lat="50.29754" lon="4.5707">
        <ele>264.376087</ele>
        <time>2024-12-17T11:05:18.000Z</time>
      </trkpt>
      <trkpt lat="50.29753" lon="4.57074">
        <ele>264.363164</ele>
        <time>2024-12-17T11:05:19.000Z</time>
      </trkpt>
      <trkpt lat="50.29752" lon="4.57077">
        <ele>264.349525</ele>
        <time>2024-12-17T11:05:20.000Z</time>
      </trkpt>
      <trkpt lat="50.29751" lon="4.57081">
        <ele>264.335309</ele>
        <time>2024-12-17T11:05:21.000Z</time>
      </trkpt>
      <trkpt lat="50.29749" lon="4.57085">
        <ele>264.320018</ele>
        <time>2024-12-17T11:05:22.000Z</time>
      </trkpt>
      <trkpt lat="50.29748" lon="4.57089">
        <ele>264.30395</ele>
        <time>2024-12-17T11:05:23.000Z</time>
      </trkpt>
      <trkpt lat="50.29747" lon="4.57093">
        <ele>264.287883</ele>
        <time>2024-12-17T11:05:24.000Z</time>
      </trkpt>
      <trkpt lat="50.29746" lon="4.57097">
        <ele>264.272473</ele>
        <time>2024-12-17T11:05:25.000Z</time>
      </trkpt>
      <trkpt lat="50.29746" lon="4.57102">
        <ele>264.256585</ele>
        <time>2024-12-17T11:05:26.000Z</time>
      </trkpt>
      <trkpt lat="50.29745" lon="4.57106">
        <ele>264.240517</ele>
        <time>2024-12-17T11:05:27.000Z</time>
      </trkpt>
      <trkpt lat="50.29744" lon="4.57111">
        <ele>264.223625</ele>
        <time>2024-12-17T11:05:28.000Z</time>
      </trkpt>
      <trkpt lat="50.29743" lon="4.57115">
        <ele>264.206896</ele>
        <time>2024-12-17T11:05:29.000Z</time>
      </trkpt>
      <trkpt lat="50.29742" lon="4.5712">
        <ele>264.189817</ele>
        <time>2024-12-17T11:05:30.000Z</time>
      </trkpt>
      <trkpt lat="50.29741" lon="4.57125">
        <ele>264.171915</ele>
        <time>2024-12-17T11:05:31.000Z</time>
      </trkpt>
      <trkpt lat="50.2974" lon="4.5713">
        <ele>264.154627</ele>
        <time>2024-12-17T11:05:32.000Z</time>
      </trkpt>
      <trkpt lat="50.2974" lon="4.57134">
        <ele>264.137454</ele>
        <time>2024-12-17T11:05:33.000Z</time>
      </trkpt>
      <trkpt lat="50.2974" lon="4.57139">
        <ele>264.120942</ele>
        <time>2024-12-17T11:05:34.000Z</time>
      </trkpt>
      <trkpt lat="50.2974" lon="4.57144">
        <ele>264.104402</ele>
        <time>2024-12-17T11:05:35.000Z</time>
      </trkpt>
      <trkpt lat="50.2974" lon="4.57148">
        <ele>264.089996</ele>
        <time>2024-12-17T11:05:36.000Z</time>
      </trkpt>
      <trkpt lat="50.2974" lon="4.57152">
        <ele>264.076993</ele>
        <time>2024-12-17T11:05:37.000Z</time>
      </trkpt>
      <trkpt lat="50.29739" lon="4.57155">
        <ele>264.0644</ele>
        <time>2024-12-17T11:05:38.000Z</time>
      </trkpt>
      <trkpt lat="50.29739" lon="4.57158">
        <ele>264.052261</ele>
        <time>2024-12-17T11:05:39.000Z</time>
      </trkpt>
      <trkpt lat="50.29739" lon="4.57162">
        <ele>264.038045</ele>
        <time>2024-12-17T11:05:40.000Z</time>
      </trkpt>
      <trkpt lat="50.2974" lon="4.57167">
        <ele>264.022787</ele>
        <time>2024-12-17T11:05:41.000Z</time>
      </trkpt>
      <trkpt lat="50.2974" lon="4.57171">
        <ele>264.007948</ele>
        <time>2024-12-17T11:05:42.000Z</time>
      </trkpt>
      <trkpt lat="50.2974" lon="4.57175">
        <ele>263.993552</ele>
        <time>2024-12-17T11:05:43.000Z</time>
      </trkpt>
      <trkpt lat="50.2974" lon="4.57179">
        <ele>263.977947</ele>
        <time>2024-12-17T11:05:44.000Z</time>
      </trkpt>
      <trkpt lat="50.2974" lon="4.57184">
        <ele>263.963551</ele>
        <time>2024-12-17T11:05:45.000Z</time>
      </trkpt>
      <trkpt lat="50.29739" lon="4.57187">
        <ele>263.950272</ele>
        <time>2024-12-17T11:05:46.000Z</time>
      </trkpt>
      <trkpt lat="50.29738" lon="4.57191">
        <ele>263.936186</ele>
        <time>2024-12-17T11:05:47.000Z</time>
      </trkpt>
      <trkpt lat="50.29738" lon="4.57195">
        <ele>263.922131</ele>
        <time>2024-12-17T11:05:48.000Z</time>
      </trkpt>
      <trkpt lat="50.29738" lon="4.57199">
        <ele>263.907734</ele>
        <time>2024-12-17T11:05:49.000Z</time>
      </trkpt>
      <trkpt lat="50.29739" lon="4.57203">
        <ele>263.893296</ele>
        <time>2024-12-17T11:05:50.000Z</time>
      </trkpt>
      <trkpt lat="50.29739" lon="4.57207">
        <ele>263.879909</ele>
        <time>2024-12-17T11:05:51.000Z</time>
      </trkpt>
      <trkpt lat="50.29739" lon="4.57211">
        <ele>263.865512</ele>
        <time>2024-12-17T11:05:52.000Z</time>
      </trkpt>
      <trkpt lat="50.29738" lon="4.57215">
        <ele>263.850949</ele>
        <time>2024-12-17T11:05:53.000Z</time>
      </trkpt>
      <trkpt lat="50.29738" lon="4.57219">
        <ele>263.836386</ele>
        <time>2024-12-17T11:05:54.000Z</time>
      </trkpt>
      <trkpt lat="50.29738" lon="4.57224">
        <ele>263.821198</ele>
        <time>2024-12-17T11:05:55.000Z</time>
      </trkpt>
      <trkpt lat="50.29738" lon="4.57228">
        <ele>263.805037</ele>
        <time>2024-12-17T11:05:56.000Z</time>
      </trkpt>
      <trkpt lat="50.29737" lon="4.57233">
        <ele>263.788525</ele>
        <time>2024-12-17T11:05:57.000Z</time>
      </trkpt>
      <trkpt lat="50.29737" lon="4.57238">
        <ele>263.771352</ele>
        <time>2024-12-17T11:05:58.000Z</time>
      </trkpt>
      <trkpt lat="50.29736" lon="4.57243">
        <ele>263.754703</ele>
        <time>2024-12-17T11:05:59.000Z</time>
      </trkpt>
      <trkpt lat="50.29736" lon="4.57247">
        <ele>263.738514</ele>
        <time>2024-12-17T11:06:00.000Z</time>
      </trkpt>
      <trkpt lat="50.29736" lon="4.57252">
        <ele>263.721685</ele>
        <time>2024-12-17T11:06:01.000Z</time>
      </trkpt>
      <trkpt lat="50.29735" lon="4.57257">
        <ele>263.703957</ele>
        <time>2024-12-17T11:06:02.000Z</time>
      </trkpt>
      <trkpt lat="50.29734" lon="4.57262">
        <ele>263.686534</ele>
        <time>2024-12-17T11:06:03.000Z</time>
      </trkpt>
      <trkpt lat="50.29733" lon="4.57266">
        <ele>263.669116</ele>
        <time>2024-12-17T11:06:04.000Z</time>
      </trkpt>
      <trkpt lat="50.29732" lon="4.57271">
        <ele>263.652054</ele>
        <time>2024-12-17T11:06:05.000Z</time>
      </trkpt>
      <trkpt lat="50.29732" lon="4.57275">
        <ele>263.636017</ele>
        <time>2024-12-17T11:06:06.000Z</time>
      </trkpt>
      <trkpt lat="50.29731" lon="4.57281">
        <ele>263.617975</ele>
        <time>2024-12-17T11:06:07.000Z</time>
      </trkpt>
      <trkpt lat="50.29731" lon="4.57285">
        <ele>263.60104</ele>
        <time>2024-12-17T11:06:08.000Z</time>
      </trkpt>
      <trkpt lat="50.29731" lon="4.5729">
        <ele>263.585902</ele>
        <time>2024-12-17T11:06:09.000Z</time>
      </trkpt>
      <trkpt lat="50.2973" lon="4.57294">
        <ele>263.57079</ele>
        <time>2024-12-17T11:06:10.000Z</time>
      </trkpt>
      <trkpt lat="50.2973" lon="4.57298">
        <ele>263.556363</ele>
        <time>2024-12-17T11:06:11.000Z</time>
      </trkpt>
      <trkpt lat="50.29729" lon="4.57302">
        <ele>263.541803</ele>
        <time>2024-12-17T11:06:12.000Z</time>
      </trkpt>
      <trkpt lat="50.29728" lon="4.57306">
        <ele>263.563142</ele>
        <time>2024-12-17T11:06:13.000Z</time>
      </trkpt>
      <trkpt lat="50.29728" lon="4.57309">
        <ele>263.589541</ele>
        <time>2024-12-17T11:06:14.000Z</time>
      </trkpt>
      <trkpt lat="50.29728" lon="4.57313">
        <ele>263.615513</ele>
        <time>2024-12-17T11:06:15.000Z</time>
      </trkpt>
      <trkpt lat="50.29729" lon="4.57317">
        <ele>263.643663</ele>
        <time>2024-12-17T11:06:16.000Z</time>
      </trkpt>
      <trkpt lat="50.29728" lon="4.57322">
        <ele>263.672067</ele>
        <time>2024-12-17T11:06:17.000Z</time>
      </trkpt>
      <trkpt lat="50.29727" lon="4.57326">
        <ele>263.702928</ele>
        <time>2024-12-17T11:06:18.000Z</time>
      </trkpt>
      <trkpt lat="50.29726" lon="4.5733">
        <ele>263.735814</ele>
        <time>2024-12-17T11:06:19.000Z</time>
      </trkpt>
      <trkpt lat="50.29725" lon="4.57335">
        <ele>263.765087</ele>
        <time>2024-12-17T11:06:20.000Z</time>
      </trkpt>
      <trkpt lat="50.29725" lon="4.57339">
        <ele>263.794645</ele>
        <time>2024-12-17T11:06:21.000Z</time>
      </trkpt>
      <trkpt lat="50.29724" lon="4.57343">
        <ele>263.826796</ele>
        <time>2024-12-17T11:06:22.000Z</time>
      </trkpt>
      <trkpt lat="50.29723" lon="4.57348">
        <ele>263.860103</ele>
        <time>2024-12-17T11:06:23.000Z</time>
      </trkpt>
      <trkpt lat="50.29722" lon="4.57352">
        <ele>263.888253</ele>
        <time>2024-12-17T11:06:24.000Z</time>
      </trkpt>
      <trkpt lat="50.29721" lon="4.57356">
        <ele>263.915307</ele>
        <time>2024-12-17T11:06:25.000Z</time>
      </trkpt>
      <trkpt lat="50.29722" lon="4.5736">
        <ele>263.943711</ele>
        <time>2024-12-17T11:06:26.000Z</time>
      </trkpt>
      <trkpt lat="50.29722" lon="4.57364">
        <ele>263.970382</ele>
        <time>2024-12-17T11:06:27.000Z</time>
      </trkpt>
      <trkpt lat="50.29723" lon="4.57369">
        <ele>264.004119</ele>
        <time>2024-12-17T11:06:28.000Z</time>
      </trkpt>
      <trkpt lat="50.29724" lon="4.57373">
        <ele>264.036889</ele>
        <time>2024-12-17T11:06:29.000Z</time>
      </trkpt>
      <trkpt lat="50.29725" lon="4.57378">
        <ele>264.07102</ele>
        <time>2024-12-17T11:06:30.000Z</time>
      </trkpt>
      <trkpt lat="50.29724" lon="4.57384">
        <ele>264.107818</ele>
        <time>2024-12-17T11:06:31.000Z</time>
      </trkpt>
      <trkpt lat="50.29723" lon="4.57389">
        <ele>264.142509</ele>
        <time>2024-12-17T11:06:32.000Z</time>
      </trkpt>
      <trkpt lat="50.29723" lon="4.57392">
        <ele>264.168014</ele>
        <time>2024-12-17T11:06:33.000Z</time>
      </trkpt>
      <trkpt lat="50.29723" lon="4.57398">
        <ele>264.203773</ele>
        <time>2024-12-17T11:06:34.000Z</time>
      </trkpt>
      <trkpt lat="50.29721" lon="4.57404">
        <ele>264.248109</ele>
        <time>2024-12-17T11:06:35.000Z</time>
      </trkpt>
      <trkpt lat="50.2972" lon="4.57412">
        <ele>264.301561</ele>
        <time>2024-12-17T11:06:36.000Z</time>
      </trkpt>
      <trkpt lat="50.29719" lon="4.57419">
        <ele>264.353277</ele>
        <time>2024-12-17T11:06:37.000Z</time>
      </trkpt>
      <trkpt lat="50.29718" lon="4.57425">
        <ele>264.398397</ele>
        <time>2024-12-17T11:06:38.000Z</time>
      </trkpt>
      <trkpt lat="50.29717" lon="4.57431">
        <ele>264.439073</ele>
        <time>2024-12-17T11:06:39.000Z</time>
      </trkpt>
      <trkpt lat="50.29717" lon="4.57436">
        <ele>264.472935</ele>
        <time>2024-12-17T11:06:40.000Z</time>
      </trkpt>
      <trkpt lat="50.29718" lon="4.57442">
        <ele>264.51606</ele>
        <time>2024-12-17T11:06:41.000Z</time>
      </trkpt>
      <trkpt lat="50.29717" lon="4.57449">
        <ele>264.5586</ele>
        <time>2024-12-17T11:06:42.000Z</time>
      </trkpt>
      <trkpt lat="50.29716" lon="4.57454">
        <ele>264.595585</ele>
        <time>2024-12-17T11:06:43.000Z</time>
      </trkpt>
      <trkpt lat="50.29715" lon="4.57459">
        <ele>264.630126</ele>
        <time>2024-12-17T11:06:44.000Z</time>
      </trkpt>
      <trkpt lat="50.29714" lon="4.57464">
        <ele>264.667286</ele>
        <time>2024-12-17T11:06:45.000Z</time>
      </trkpt>
      <trkpt lat="50.29714" lon="4.57469">
        <ele>264.701697</ele>
        <time>2024-12-17T11:06:46.000Z</time>
      </trkpt>
      <trkpt lat="50.29714" lon="4.57474">
        <ele>264.733198</ele>
        <time>2024-12-17T11:06:47.000Z</time>
      </trkpt>
      <trkpt lat="50.29713" lon="4.57478">
        <ele>264.764666</ele>
        <time>2024-12-17T11:06:48.000Z</time>
      </trkpt>
      <trkpt lat="50.29712" lon="4.57483">
        <ele>264.796818</ele>
        <time>2024-12-17T11:06:49.000Z</time>
      </trkpt>
      <trkpt lat="50.29712" lon="4.57487">
        <ele>264.826294</ele>
        <time>2024-12-17T11:06:50.000Z</time>
      </trkpt>
      <trkpt lat="50.29711" lon="4.57491">
        <ele>264.852693</ele>
        <time>2024-12-17T11:06:51.000Z</time>
      </trkpt>
      <trkpt lat="50.2971" lon="4.57495">
        <ele>264.879364</ele>
        <time>2024-12-17T11:06:52.000Z</time>
      </trkpt>
      <trkpt lat="50.2971" lon="4.57499">
        <ele>264.90733</ele>
        <time>2024-12-17T11:06:53.000Z</time>
      </trkpt>
      <trkpt lat="50.29709" lon="4.57502">
        <ele>264.931631</ele>
        <time>2024-12-17T11:06:54.000Z</time>
      </trkpt>
      <trkpt lat="50.29709" lon="4.57506">
        <ele>264.95728</ele>
        <time>2024-12-17T11:06:55.000Z</time>
      </trkpt>
      <trkpt lat="50.2971" lon="4.5751">
        <ele>264.982725</ele>
        <time>2024-12-17T11:06:56.000Z</time>
      </trkpt>
      <trkpt lat="50.2971" lon="4.57513">
        <ele>265.002283</ele>
        <time>2024-12-17T11:06:57.000Z</time>
      </trkpt>
      <trkpt lat="50.2971" lon="4.57516">
        <ele>265.023846</ele>
        <time>2024-12-17T11:06:58.000Z</time>
      </trkpt>
      <trkpt lat="50.29709" lon="4.57518">
        <ele>265.043125</ele>
        <time>2024-12-17T11:06:59.000Z</time>
      </trkpt>
      <trkpt lat="50.29709" lon="4.57521">
        <ele>265.062038</ele>
        <time>2024-12-17T11:07:00.000Z</time>
      </trkpt>
      <trkpt lat="50.29709" lon="4.57524">
        <ele>265.082971</ele>
        <time>2024-12-17T11:07:01.000Z</time>
      </trkpt>
      <trkpt lat="50.29709" lon="4.57528">
        <ele>265.105326</ele>
        <time>2024-12-17T11:07:02.000Z</time>
      </trkpt>
      <trkpt lat="50.29709" lon="4.57531">
        <ele>265.126259</ele>
        <time>2024-12-17T11:07:03.000Z</time>
      </trkpt>
      <trkpt lat="50.29708" lon="4.57535">
        <ele>265.153884</ele>
        <time>2024-12-17T11:07:04.000Z</time>
      </trkpt>
      <trkpt lat="50.29708" lon="4.57538">
        <ele>265.179857</ele>
        <time>2024-12-17T11:07:05.000Z</time>
      </trkpt>
      <trkpt lat="50.29707" lon="4.57542">
        <ele>265.208198</ele>
        <time>2024-12-17T11:07:06.000Z</time>
      </trkpt>
      <trkpt lat="50.29707" lon="4.57545">
        <ele>265.22854</ele>
        <time>2024-12-17T11:07:07.000Z</time>
      </trkpt>
      <trkpt lat="50.29707" lon="4.57549">
        <ele>265.253848</ele>
        <time>2024-12-17T11:07:08.000Z</time>
      </trkpt>
      <trkpt lat="50.29707" lon="4.57552">
        <ele>265.271383</ele>
        <time>2024-12-17T11:07:09.000Z</time>
      </trkpt>
      <trkpt lat="50.29707" lon="4.57556">
        <ele>265.299033</ele>
        <time>2024-12-17T11:07:10.000Z</time>
      </trkpt>
      <trkpt lat="50.29707" lon="4.57559">
        <ele>265.324748</ele>
        <time>2024-12-17T11:07:11.000Z</time>
      </trkpt>
      <trkpt lat="50.29706" lon="4.57564">
        <ele>265.356548</ele>
        <time>2024-12-17T11:07:12.000Z</time>
      </trkpt>
      <trkpt lat="50.29707" lon="4.5757">
        <ele>265.397064</ele>
        <time>2024-12-17T11:07:13.000Z</time>
      </trkpt>
      <trkpt lat="50.29709" lon="4.57575">
        <ele>265.436458</ele>
        <time>2024-12-17T11:07:14.000Z</time>
      </trkpt>
      <trkpt lat="50.2971" lon="4.57579">
        <ele>265.464723</ele>
        <time>2024-12-17T11:07:15.000Z</time>
      </trkpt>
      <trkpt lat="50.2971" lon="4.57583">
        <ele>265.490774</ele>
        <time>2024-12-17T11:07:16.000Z</time>
      </trkpt>
      <trkpt lat="50.2971" lon="4.57589">
        <ele>265.523069</ele>
        <time>2024-12-17T11:07:17.000Z</time>
      </trkpt>
      <trkpt lat="50.29709" lon="4.57594">
        <ele>265.560492</ele>
        <time>2024-12-17T11:07:18.000Z</time>
      </trkpt>
      <trkpt lat="50.29708" lon="4.57601">
        <ele>265.601246</ele>
        <time>2024-12-17T11:07:19.000Z</time>
      </trkpt>
      <trkpt lat="50.29709" lon="4.57607">
        <ele>265.641399</ele>
        <time>2024-12-17T11:07:20.000Z</time>
      </trkpt>
      <trkpt lat="50.2971" lon="4.57612">
        <ele>265.672387</ele>
        <time>2024-12-17T11:07:21.000Z</time>
      </trkpt>
      <trkpt lat="50.2971" lon="4.57618">
        <ele>265.707697</ele>
        <time>2024-12-17T11:07:22.000Z</time>
      </trkpt>
      <trkpt lat="50.2971" lon="4.57624">
        <ele>265.743781</ele>
        <time>2024-12-17T11:07:23.000Z</time>
      </trkpt>
      <trkpt lat="50.2971" lon="4.57629">
        <ele>265.778541</ele>
        <time>2024-12-17T11:07:24.000Z</time>
      </trkpt>
      <trkpt lat="50.2971" lon="4.57635">
        <ele>265.812166</ele>
        <time>2024-12-17T11:07:25.000Z</time>
      </trkpt>
      <trkpt lat="50.2971" lon="4.5764">
        <ele>265.846859</ele>
        <time>2024-12-17T11:07:26.000Z</time>
      </trkpt>
      <trkpt lat="50.2971" lon="4.57645">
        <ele>265.876505</ele>
        <time>2024-12-17T11:07:27.000Z</time>
      </trkpt>
      <trkpt lat="50.29709" lon="4.5765">
        <ele>265.91148</ele>
        <time>2024-12-17T11:07:28.000Z</time>
      </trkpt>
      <trkpt lat="50.29709" lon="4.57655">
        <ele>265.942468</ele>
        <time>2024-12-17T11:07:29.000Z</time>
      </trkpt>
      <trkpt lat="50.29708" lon="4.5766">
        <ele>265.97341</ele>
        <time>2024-12-17T11:07:30.000Z</time>
      </trkpt>
      <trkpt lat="50.29708" lon="4.57665">
        <ele>266.00376</ele>
        <time>2024-12-17T11:07:31.000Z</time>
      </trkpt>
      <trkpt lat="50.29707" lon="4.5767">
        <ele>266.034013</ele>
        <time>2024-12-17T11:07:32.000Z</time>
      </trkpt>
      <trkpt lat="50.29706" lon="4.57675">
        <ele>266.064706</ele>
        <time>2024-12-17T11:07:33.000Z</time>
      </trkpt>
      <trkpt lat="50.29706" lon="4.5768">
        <ele>266.095694</ele>
        <time>2024-12-17T11:07:34.000Z</time>
      </trkpt>
      <trkpt lat="50.29706" lon="4.57685">
        <ele>266.127299</ele>
        <time>2024-12-17T11:07:35.000Z</time>
      </trkpt>
      <trkpt lat="50.29706" lon="4.5769">
        <ele>266.157607</ele>
        <time>2024-12-17T11:07:36.000Z</time>
      </trkpt>
      <trkpt lat="50.29706" lon="4.57694">
        <ele>266.187297</ele>
        <time>2024-12-17T11:07:37.000Z</time>
      </trkpt>
      <trkpt lat="50.29706" lon="4.57699">
        <ele>266.216369</ele>
        <time>2024-12-17T11:07:38.000Z</time>
      </trkpt>
      <trkpt lat="50.29706" lon="4.57704">
        <ele>266.246059</ele>
        <time>2024-12-17T11:07:39.000Z</time>
      </trkpt>
      <trkpt lat="50.29706" lon="4.57708">
        <ele>266.273292</ele>
        <time>2024-12-17T11:07:40.000Z</time>
      </trkpt>
      <trkpt lat="50.29706" lon="4.57713">
        <ele>266.301762</ele>
        <time>2024-12-17T11:07:41.000Z</time>
      </trkpt>
      <trkpt lat="50.29705" lon="4.57717">
        <ele>266.331748</ele>
        <time>2024-12-17T11:07:42.000Z</time>
      </trkpt>
      <trkpt lat="50.29704" lon="4.57722">
        <ele>266.359577</ele>
        <time>2024-12-17T11:07:43.000Z</time>
      </trkpt>
      <trkpt lat="50.29704" lon="4.57727">
        <ele>266.389282</ele>
        <time>2024-12-17T11:07:44.000Z</time>
      </trkpt>
      <trkpt lat="50.29704" lon="4.57731">
        <ele>266.41837</ele>
        <time>2024-12-17T11:07:45.000Z</time>
      </trkpt>
      <trkpt lat="50.29704" lon="4.57736">
        <ele>266.446221</ele>
        <time>2024-12-17T11:07:46.000Z</time>
      </trkpt>
      <trkpt lat="50.29704" lon="4.5774">
        <ele>266.474056</ele>
        <time>2024-12-17T11:07:47.000Z</time>
      </trkpt>
      <trkpt lat="50.29704" lon="4.57745">
        <ele>266.502525</ele>
        <time>2024-12-17T11:07:48.000Z</time>
      </trkpt>
      <trkpt lat="50.29705" lon="4.5775">
        <ele>266.53444</ele>
        <time>2024-12-17T11:07:49.000Z</time>
      </trkpt>
      <trkpt lat="50.29705" lon="4.57755">
        <ele>266.567856</ele>
        <time>2024-12-17T11:07:50.000Z</time>
      </trkpt>
      <trkpt lat="50.29705" lon="4.5776">
        <ele>266.59818</ele>
        <time>2024-12-17T11:07:51.000Z</time>
      </trkpt>
      <trkpt lat="50.29705" lon="4.57765">
        <ele>266.626649</ele>
        <time>2024-12-17T11:07:52.000Z</time>
      </trkpt>
      <trkpt lat="50.29704" lon="4.57769">
        <ele>266.654501</ele>
        <time>2024-12-17T11:07:53.000Z</time>
      </trkpt>
      <trkpt lat="50.29704" lon="4.57774">
        <ele>266.682954</ele>
        <time>2024-12-17T11:07:54.000Z</time>
      </trkpt>
      <trkpt lat="50.29704" lon="4.57778">
        <ele>266.709621</ele>
        <time>2024-12-17T11:07:55.000Z</time>
      </trkpt>
      <trkpt lat="50.29704" lon="4.57782">
        <ele>266.73544</ele>
        <time>2024-12-17T11:07:56.000Z</time>
      </trkpt>
      <trkpt lat="50.29704" lon="4.57786">
        <ele>266.759737</ele>
        <time>2024-12-17T11:07:57.000Z</time>
      </trkpt>
      <trkpt lat="50.29704" lon="4.57791">
        <ele>266.787022</ele>
        <time>2024-12-17T11:07:58.000Z</time>
      </trkpt>
      <trkpt lat="50.29704" lon="4.57794">
        <ele>266.808406</ele>
        <time>2024-12-17T11:07:59.000Z</time>
      </trkpt>
      <trkpt lat="50.29704" lon="4.57799">
        <ele>266.841246</ele>
        <time>2024-12-17T11:08:00.000Z</time>
      </trkpt>
      <trkpt lat="50.29704" lon="4.57803">
        <ele>266.866007</ele>
        <time>2024-12-17T11:08:01.000Z</time>
      </trkpt>
      <trkpt lat="50.29704" lon="4.57807">
        <ele>266.888463</ele>
        <time>2024-12-17T11:08:02.000Z</time>
      </trkpt>
      <trkpt lat="50.29706" lon="4.5781">
        <ele>266.914006</ele>
        <time>2024-12-17T11:08:03.000Z</time>
      </trkpt>
      <trkpt lat="50.29707" lon="4.57813">
        <ele>266.93757</ele>
        <time>2024-12-17T11:08:04.000Z</time>
      </trkpt>
      <trkpt lat="50.29708" lon="4.57816">
        <ele>266.954368</ele>
        <time>2024-12-17T11:08:05.000Z</time>
      </trkpt>
      <trkpt lat="50.29709" lon="4.57817">
        <ele>266.969596</ele>
        <time>2024-12-17T11:08:06.000Z</time>
      </trkpt>
      <trkpt lat="50.2971" lon="4.5782">
        <ele>266.985797</ele>
        <time>2024-12-17T11:08:07.000Z</time>
      </trkpt>
      <trkpt lat="50.29711" lon="4.57822">
        <ele>267.002896</ele>
        <time>2024-12-17T11:08:08.000Z</time>
      </trkpt>
      <trkpt lat="50.29712" lon="4.57826">
        <ele>267.024992</ele>
        <time>2024-12-17T11:08:09.000Z</time>
      </trkpt>
      <trkpt lat="50.29712" lon="4.57829">
        <ele>267.047407</ele>
        <time>2024-12-17T11:08:10.000Z</time>
      </trkpt>
      <trkpt lat="50.29713" lon="4.57832">
        <ele>267.068183</ele>
        <time>2024-12-17T11:08:11.000Z</time>
      </trkpt>
      <trkpt lat="50.29713" lon="4.57836">
        <ele>267.090377</ele>
        <time>2024-12-17T11:08:12.000Z</time>
      </trkpt>
      <trkpt lat="50.29715" lon="4.57839">
        <ele>267.114505</ele>
        <time>2024-12-17T11:08:13.000Z</time>
      </trkpt>
      <trkpt lat="50.29716" lon="4.57844">
        <ele>267.146022</ele>
        <time>2024-12-17T11:08:14.000Z</time>
      </trkpt>
      <trkpt lat="50.29718" lon="4.57848">
        <ele>267.177787</ele>
        <time>2024-12-17T11:08:15.000Z</time>
      </trkpt>
      <trkpt lat="50.2972" lon="4.57852">
        <ele>267.09458</ele>
        <time>2024-12-17T11:08:16.000Z</time>
      </trkpt>
      <trkpt lat="50.2972" lon="4.57858">
        <ele>266.981145</ele>
        <time>2024-12-17T11:08:17.000Z</time>
      </trkpt>
      <trkpt lat="50.29721" lon="4.57861">
        <ele>266.926796</ele>
        <time>2024-12-17T11:08:18.000Z</time>
      </trkpt>
      <trkpt lat="50.29722" lon="4.57869">
        <ele>266.786819</ele>
        <time>2024-12-17T11:08:19.000Z</time>
      </trkpt>
      <trkpt lat="50.29726" lon="4.57874">
        <ele>266.632825</ele>
        <time>2024-12-17T11:08:20.000Z</time>
      </trkpt>
      <trkpt lat="50.29729" lon="4.57879">
        <ele>266.523652</ele>
        <time>2024-12-17T11:08:21.000Z</time>
      </trkpt>
      <trkpt lat="50.29732" lon="4.57883">
        <ele>266.400155</ele>
        <time>2024-12-17T11:08:22.000Z</time>
      </trkpt>
      <trkpt lat="50.29735" lon="4.57889">
        <ele>266.2791</ele>
        <time>2024-12-17T11:08:23.000Z</time>
      </trkpt>
      <trkpt lat="50.29737" lon="4.57895">
        <ele>266.143112</ele>
        <time>2024-12-17T11:08:24.000Z</time>
      </trkpt>
      <trkpt lat="50.2974" lon="4.579">
        <ele>266.030245</ele>
        <time>2024-12-17T11:08:25.000Z</time>
      </trkpt>
      <trkpt lat="50.29741" lon="4.57906">
        <ele>265.92265</ele>
        <time>2024-12-17T11:08:26.000Z</time>
      </trkpt>
      <trkpt lat="50.29744" lon="4.57913">
        <ele>265.774557</ele>
        <time>2024-12-17T11:08:27.000Z</time>
      </trkpt>
      <trkpt lat="50.29745" lon="4.5792">
        <ele>265.646137</ele>
        <time>2024-12-17T11:08:28.000Z</time>
      </trkpt>
      <trkpt lat="50.2975" lon="4.57925">
        <ele>265.488755</ele>
        <time>2024-12-17T11:08:29.000Z</time>
      </trkpt>
      <trkpt lat="50.29753" lon="4.57931">
        <ele>265.363021</ele>
        <time>2024-12-17T11:08:30.000Z</time>
      </trkpt>
      <trkpt lat="50.29755" lon="4.57936">
        <ele>265.249491</ele>
        <time>2024-12-17T11:08:31.000Z</time>
      </trkpt>
      <trkpt lat="50.29756" lon="4.57942">
        <ele>265.141897</ele>
        <time>2024-12-17T11:08:32.000Z</time>
      </trkpt>
      <trkpt lat="50.29758" lon="4.57948">
        <ele>265.034302</ele>
        <time>2024-12-17T11:08:33.000Z</time>
      </trkpt>
      <trkpt lat="50.29759" lon="4.57956">
        <ele>264.888625</ele>
        <time>2024-12-17T11:08:34.000Z</time>
      </trkpt>
      <trkpt lat="50.2976" lon="4.57963">
        <ele>264.764369</ele>
        <time>2024-12-17T11:08:35.000Z</time>
      </trkpt>
      <trkpt lat="50.29761" lon="4.57969">
        <ele>264.651065</ele>
        <time>2024-12-17T11:08:36.000Z</time>
      </trkpt>
      <trkpt lat="50.29762" lon="4.57974">
        <ele>264.541834</ele>
        <time>2024-12-17T11:08:37.000Z</time>
      </trkpt>
      <trkpt lat="50.29763" lon="4.57979">
        <ele>264.457414</ele>
        <time>2024-12-17T11:08:38.000Z</time>
      </trkpt>
      <trkpt lat="50.29764" lon="4.57984">
        <ele>264.366083</ele>
        <time>2024-12-17T11:08:39.000Z</time>
      </trkpt>
      <trkpt lat="50.29765" lon="4.57989">
        <ele>264.272332</ele>
        <time>2024-12-17T11:08:40.000Z</time>
      </trkpt>
      <trkpt lat="50.29768" lon="4.57995">
        <ele>264.139411</ele>
        <time>2024-12-17T11:08:41.000Z</time>
      </trkpt>
      <trkpt lat="50.29771" lon="4.58001">
        <ele>264.011678</ele>
        <time>2024-12-17T11:08:42.000Z</time>
      </trkpt>
      <trkpt lat="50.29773" lon="4.58007">
        <ele>263.87578</ele>
        <time>2024-12-17T11:08:43.000Z</time>
      </trkpt>
      <trkpt lat="50.29775" lon="4.58013">
        <ele>263.760551</ele>
        <time>2024-12-17T11:08:44.000Z</time>
      </trkpt>
      <trkpt lat="50.29777" lon="4.58019">
        <ele>263.640879</ele>
        <time>2024-12-17T11:08:45.000Z</time>
      </trkpt>
      <trkpt lat="50.29779" lon="4.58024">
        <ele>263.532182</ele>
        <time>2024-12-17T11:08:46.000Z</time>
      </trkpt>
      <trkpt lat="50.29781" lon="4.5803">
        <ele>263.41473</ele>
        <time>2024-12-17T11:08:47.000Z</time>
      </trkpt>
      <trkpt lat="50.29783" lon="4.58036">
        <ele>263.286265</ele>
        <time>2024-12-17T11:08:48.000Z</time>
      </trkpt>
      <trkpt lat="50.29786" lon="4.58043">
        <ele>263.142917</ele>
        <time>2024-12-17T11:08:49.000Z</time>
      </trkpt>
      <trkpt lat="50.29788" lon="4.5805">
        <ele>263.01787</ele>
        <time>2024-12-17T11:08:50.000Z</time>
      </trkpt>
      <trkpt lat="50.2979" lon="4.58056">
        <ele>262.900418</ele>
        <time>2024-12-17T11:08:51.000Z</time>
      </trkpt>
      <trkpt lat="50.29791" lon="4.58062">
        <ele>262.780292</ele>
        <time>2024-12-17T11:08:52.000Z</time>
      </trkpt>
      <trkpt lat="50.29793" lon="4.58068">
        <ele>262.663452</ele>
        <time>2024-12-17T11:08:53.000Z</time>
      </trkpt>
      <trkpt lat="50.29795" lon="4.58074">
        <ele>262.542783</ele>
        <time>2024-12-17T11:08:54.000Z</time>
      </trkpt>
      <trkpt lat="50.29797" lon="4.5808">
        <ele>262.421295</ele>
        <time>2024-12-17T11:08:55.000Z</time>
      </trkpt>
      <trkpt lat="50.29799" lon="4.58087">
        <ele>262.29346</ele>
        <time>2024-12-17T11:08:56.000Z</time>
      </trkpt>
      <trkpt lat="50.298" lon="4.58093">
        <ele>262.162142</ele>
        <time>2024-12-17T11:08:57.000Z</time>
      </trkpt>
      <trkpt lat="50.29802" lon="4.58099">
        <ele>261.971624</ele>
        <time>2024-12-17T11:08:58.000Z</time>
      </trkpt>
      <trkpt lat="50.29804" lon="4.58105">
        <ele>261.789922</ele>
        <time>2024-12-17T11:08:59.000Z</time>
      </trkpt>
      <trkpt lat="50.29806" lon="4.58109">
        <ele>261.638263</ele>
        <time>2024-12-17T11:09:00.000Z</time>
      </trkpt>
      <trkpt lat="50.29807" lon="4.58116">
        <ele>261.427178</ele>
        <time>2024-12-17T11:09:01.000Z</time>
      </trkpt>
      <trkpt lat="50.29807" lon="4.58123">
        <ele>261.237485</ele>
        <time>2024-12-17T11:09:02.000Z</time>
      </trkpt>
      <trkpt lat="50.29806" lon="4.5813">
        <ele>261.040706</ele>
        <time>2024-12-17T11:09:03.000Z</time>
      </trkpt>
      <trkpt lat="50.29805" lon="4.58136">
        <ele>260.842952</ele>
        <time>2024-12-17T11:09:04.000Z</time>
      </trkpt>
      <trkpt lat="50.29804" lon="4.58143">
        <ele>260.645725</ele>
        <time>2024-12-17T11:09:05.000Z</time>
      </trkpt>
      <trkpt lat="50.29802" lon="4.58149">
        <ele>260.454011</ele>
        <time>2024-12-17T11:09:06.000Z</time>
      </trkpt>
      <trkpt lat="50.29801" lon="4.58156">
        <ele>260.251249</ele>
        <time>2024-12-17T11:09:07.000Z</time>
      </trkpt>
      <trkpt lat="50.298" lon="4.58163">
        <ele>260.043206</ele>
        <time>2024-12-17T11:09:08.000Z</time>
      </trkpt>
      <trkpt lat="50.29799" lon="4.58171">
        <ele>259.814553</ele>
        <time>2024-12-17T11:09:09.000Z</time>
      </trkpt>
      <trkpt lat="50.29799" lon="4.58179">
        <ele>259.58875</ele>
        <time>2024-12-17T11:09:10.000Z</time>
      </trkpt>
      <trkpt lat="50.29798" lon="4.58188">
        <ele>259.327316</ele>
        <time>2024-12-17T11:09:11.000Z</time>
      </trkpt>
      <trkpt lat="50.29797" lon="4.58196">
        <ele>259.079681</ele>
        <time>2024-12-17T11:09:12.000Z</time>
      </trkpt>
      <trkpt lat="50.29795" lon="4.58205">
        <ele>258.826677</ele>
        <time>2024-12-17T11:09:13.000Z</time>
      </trkpt>
      <trkpt lat="50.29795" lon="4.58214">
        <ele>258.573369</ele>
        <time>2024-12-17T11:09:14.000Z</time>
      </trkpt>
      <trkpt lat="50.29794" lon="4.58222">
        <ele>258.320061</ele>
        <time>2024-12-17T11:09:15.000Z</time>
      </trkpt>
      <trkpt lat="50.29792" lon="4.58231">
        <ele>258.064247</ele>
        <time>2024-12-17T11:09:16.000Z</time>
      </trkpt>
      <trkpt lat="50.29792" lon="4.5824">
        <ele>257.808102</ele>
        <time>2024-12-17T11:09:17.000Z</time>
      </trkpt>
      <trkpt lat="50.29791" lon="4.58249">
        <ele>257.545545</ele>
        <time>2024-12-17T11:09:18.000Z</time>
      </trkpt>
      <trkpt lat="50.2979" lon="4.58258">
        <ele>257.280881</ele>
        <time>2024-12-17T11:09:19.000Z</time>
      </trkpt>
      <trkpt lat="50.29789" lon="4.58267">
        <ele>257.002626</ele>
        <time>2024-12-17T11:09:20.000Z</time>
      </trkpt>
      <trkpt lat="50.29788" lon="4.58277">
        <ele>256.724295</ele>
        <time>2024-12-17T11:09:21.000Z</time>
      </trkpt>
      <trkpt lat="50.29787" lon="4.58287">
        <ele>256.436219</ele>
        <time>2024-12-17T11:09:22.000Z</time>
      </trkpt>
      <trkpt lat="50.29786" lon="4.58297">
        <ele>256.144574</ele>
        <time>2024-12-17T11:09:23.000Z</time>
      </trkpt>
      <trkpt lat="50.29784" lon="4.58307">
        <ele>255.847263</ele>
        <time>2024-12-17T11:09:24.000Z</time>
      </trkpt>
      <trkpt lat="50.29784" lon="4.58317">
        <ele>255.551316</ele>
        <time>2024-12-17T11:09:25.000Z</time>
      </trkpt>
      <trkpt lat="50.29783" lon="4.58327">
        <ele>255.258216</ele>
        <time>2024-12-17T11:09:26.000Z</time>
      </trkpt>
      <trkpt lat="50.29782" lon="4.58337">
        <ele>254.967963</ele>
        <time>2024-12-17T11:09:27.000Z</time>
      </trkpt>
      <trkpt lat="50.29781" lon="4.58347">
        <ele>254.681154</ele>
        <time>2024-12-17T11:09:28.000Z</time>
      </trkpt>
      <trkpt lat="50.2978" lon="4.58357">
        <ele>254.397732</ele>
        <time>2024-12-17T11:09:29.000Z</time>
      </trkpt>
      <trkpt lat="50.2978" lon="4.58367">
        <ele>254.11431</ele>
        <time>2024-12-17T11:09:30.000Z</time>
      </trkpt>
      <trkpt lat="50.29779" lon="4.58376">
        <ele>254.063464</ele>
        <time>2024-12-17T11:09:31.000Z</time>
      </trkpt>
      <trkpt lat="50.29778" lon="4.58386">
        <ele>254.027917</ele>
        <time>2024-12-17T11:09:32.000Z</time>
      </trkpt>
      <trkpt lat="50.29777" lon="4.58394">
        <ele>253.993302</ele>
        <time>2024-12-17T11:09:33.000Z</time>
      </trkpt>
      <trkpt lat="50.29777" lon="4.58403">
        <ele>253.96029</ele>
        <time>2024-12-17T11:09:34.000Z</time>
      </trkpt>
      <trkpt lat="50.29776" lon="4.58411">
        <ele>253.929313</ele>
        <time>2024-12-17T11:09:35.000Z</time>
      </trkpt>
      <trkpt lat="50.29776" lon="4.58418">
        <ele>253.900436</ele>
        <time>2024-12-17T11:09:36.000Z</time>
      </trkpt>
      <trkpt lat="50.29775" lon="4.58425">
        <ele>253.873691</ele>
        <time>2024-12-17T11:09:37.000Z</time>
      </trkpt>
      <trkpt lat="50.29775" lon="4.58432">
        <ele>253.847268</ele>
        <time>2024-12-17T11:09:38.000Z</time>
      </trkpt>
      <trkpt lat="50.29774" lon="4.58438">
        <ele>253.822378</ele>
        <time>2024-12-17T11:09:39.000Z</time>
      </trkpt>
      <trkpt lat="50.29774" lon="4.58445">
        <ele>253.798638</ele>
        <time>2024-12-17T11:09:40.000Z</time>
      </trkpt>
      <trkpt lat="50.29773" lon="4.5845">
        <ele>253.775575</ele>
        <time>2024-12-17T11:09:41.000Z</time>
      </trkpt>
      <trkpt lat="50.29772" lon="4.58456">
        <ele>253.752894</ele>
        <time>2024-12-17T11:09:42.000Z</time>
      </trkpt>
      <trkpt lat="50.29772" lon="4.58462">
        <ele>253.731831</ele>
        <time>2024-12-17T11:09:43.000Z</time>
      </trkpt>
      <trkpt lat="50.29771" lon="4.58467">
        <ele>253.71115</ele>
        <time>2024-12-17T11:09:44.000Z</time>
      </trkpt>
      <trkpt lat="50.29771" lon="4.58472">
        <ele>253.691379</ele>
        <time>2024-12-17T11:09:45.000Z</time>
      </trkpt>
      <trkpt lat="50.29771" lon="4.58477">
        <ele>253.673914</ele>
        <time>2024-12-17T11:09:46.000Z</time>
      </trkpt>
      <trkpt lat="50.29771" lon="4.5848">
        <ele>253.660389</ele>
        <time>2024-12-17T11:09:47.000Z</time>
      </trkpt>
      <trkpt lat="50.29771" lon="4.58482">
        <ele>253.651811</ele>
        <time>2024-12-17T11:09:48.000Z</time>
      </trkpt>
      <trkpt lat="50.2977" lon="4.58484">
        <ele>253.644979</ele>
        <time>2024-12-17T11:09:49.000Z</time>
      </trkpt>
      <trkpt lat="50.2977" lon="4.58487">
        <ele>253.633579</ele>
        <time>2024-12-17T11:09:50.000Z</time>
      </trkpt>
      <trkpt lat="50.2977" lon="4.5849">
        <ele>253.621982</ele>
        <time>2024-12-17T11:09:51.000Z</time>
      </trkpt>
      <trkpt lat="50.2977" lon="4.58492">
        <ele>253.612256</ele>
        <time>2024-12-17T11:09:52.000Z</time>
      </trkpt>
      <trkpt lat="50.2977" lon="4.58495">
        <ele>253.599007</ele>
        <time>2024-12-17T11:09:53.000Z</time>
      </trkpt>
      <trkpt lat="50.29769" lon="4.58499">
        <ele>253.583896</ele>
        <time>2024-12-17T11:09:54.000Z</time>
      </trkpt>
      <trkpt lat="50.29768" lon="4.58505">
        <ele>253.562069</ele>
        <time>2024-12-17T11:09:55.000Z</time>
      </trkpt>
      <trkpt lat="50.29769" lon="4.5851">
        <ele>253.541467</ele>
        <time>2024-12-17T11:09:56.000Z</time>
      </trkpt>
      <trkpt lat="50.29769" lon="4.58515">
        <ele>253.521358</ele>
        <time>2024-12-17T11:09:57.000Z</time>
      </trkpt>
      <trkpt lat="50.2977" lon="4.58521">
        <ele>253.500294</ele>
        <time>2024-12-17T11:09:58.000Z</time>
      </trkpt>
      <trkpt lat="50.29769" lon="4.58527">
        <ele>253.477487</ele>
        <time>2024-12-17T11:09:59.000Z</time>
      </trkpt>
      <trkpt lat="50.29768" lon="4.58532">
        <ele>253.455944</ele>
        <time>2024-12-17T11:10:00.000Z</time>
      </trkpt>
      <trkpt lat="50.29767" lon="4.58537">
        <ele>253.43424</ele>
        <time>2024-12-17T11:10:01.000Z</time>
      </trkpt>
      <trkpt lat="50.29766" lon="4.58543">
        <ele>253.41326</ele>
        <time>2024-12-17T11:10:02.000Z</time>
      </trkpt>
      <trkpt lat="50.29765" lon="4.58548">
        <ele>253.389167</ele>
        <time>2024-12-17T11:10:03.000Z</time>
      </trkpt>
      <trkpt lat="50.29764" lon="4.58555">
        <ele>253.365044</ele>
        <time>2024-12-17T11:10:04.000Z</time>
      </trkpt>
      <trkpt lat="50.29764" lon="4.58561">
        <ele>253.339692</ele>
        <time>2024-12-17T11:10:05.000Z</time>
      </trkpt>
      <trkpt lat="50.29763" lon="4.58568">
        <ele>253.31338</ele>
        <time>2024-12-17T11:10:06.000Z</time>
      </trkpt>
      <trkpt lat="50.29762" lon="4.58574">
        <ele>253.288028</ele>
        <time>2024-12-17T11:10:07.000Z</time>
      </trkpt>
      <trkpt lat="50.29762" lon="4.5858">
        <ele>253.266964</ele>
        <time>2024-12-17T11:10:08.000Z</time>
      </trkpt>
      <trkpt lat="50.29762" lon="4.58585">
        <ele>253.246084</ele>
        <time>2024-12-17T11:10:09.000Z</time>
      </trkpt>
      <trkpt lat="50.29761" lon="4.58591">
        <ele>253.222413</ele>
        <time>2024-12-17T11:10:10.000Z</time>
      </trkpt>
      <trkpt lat="50.29761" lon="4.58596">
        <ele>253.202716</ele>
        <time>2024-12-17T11:10:11.000Z</time>
      </trkpt>
      <trkpt lat="50.29761" lon="4.58602">
        <ele>253.181476</ele>
        <time>2024-12-17T11:10:12.000Z</time>
      </trkpt>
      <trkpt lat="50.29761" lon="4.58607">
        <ele>253.161321</ele>
        <time>2024-12-17T11:10:13.000Z</time>
      </trkpt>
      <trkpt lat="50.29761" lon="4.58612">
        <ele>253.141935</ele>
        <time>2024-12-17T11:10:14.000Z</time>
      </trkpt>
      <trkpt lat="50.2976" lon="4.58616">
        <ele>253.125386</ele>
        <time>2024-12-17T11:10:15.000Z</time>
      </trkpt>
      <trkpt lat="50.29759" lon="4.58619">
        <ele>253.113314</ele>
        <time>2024-12-17T11:10:16.000Z</time>
      </trkpt>
      <trkpt lat="50.29757" lon="4.5862">
        <ele>253.099742</ele>
        <time>2024-12-17T11:10:17.000Z</time>
      </trkpt>
      <trkpt lat="50.29755" lon="4.58621">
        <ele>253.085898</ele>
        <time>2024-12-17T11:10:18.000Z</time>
      </trkpt>
      <trkpt lat="50.29752" lon="4.58621">
        <ele>253.072598</ele>
        <time>2024-12-17T11:10:19.000Z</time>
      </trkpt>
      <trkpt lat="50.2975" lon="4.58621">
        <ele>253.058049</ele>
        <time>2024-12-17T11:10:20.000Z</time>
      </trkpt>
      <trkpt lat="50.29747" lon="4.58621">
        <ele>253.042897</ele>
        <time>2024-12-17T11:10:21.000Z</time>
      </trkpt>
      <trkpt lat="50.29745" lon="4.5862">
        <ele>253.027477</ele>
        <time>2024-12-17T11:10:22.000Z</time>
      </trkpt>
      <trkpt lat="50.29742" lon="4.5862">
        <ele>253.020414</ele>
        <time>2024-12-17T11:10:23.000Z</time>
      </trkpt>
      <trkpt lat="50.29739" lon="4.58618">
        <ele>253.127549</ele>
        <time>2024-12-17T11:10:24.000Z</time>
      </trkpt>
      <trkpt lat="50.29736" lon="4.58617">
        <ele>253.231861</ele>
        <time>2024-12-17T11:10:25.000Z</time>
      </trkpt>
      <trkpt lat="50.29734" lon="4.58616">
        <ele>253.326693</ele>
        <time>2024-12-17T11:10:26.000Z</time>
      </trkpt>
      <trkpt lat="50.29732" lon="4.58614">
        <ele>253.398742</ele>
        <time>2024-12-17T11:10:27.000Z</time>
      </trkpt>
      <trkpt lat="50.2973" lon="4.58612">
        <ele>253.480026</ele>
        <time>2024-12-17T11:10:28.000Z</time>
      </trkpt>
      <trkpt lat="50.29728" lon="4.58611">
        <ele>253.581613</ele>
        <time>2024-12-17T11:10:29.000Z</time>
      </trkpt>
      <trkpt lat="50.29725" lon="4.58609">
        <ele>253.693422</ele>
        <time>2024-12-17T11:10:30.000Z</time>
      </trkpt>
      <trkpt lat="50.29722" lon="4.58608">
        <ele>253.802508</ele>
        <time>2024-12-17T11:10:31.000Z</time>
      </trkpt>
      <trkpt lat="50.29719" lon="4.58606">
        <ele>253.919091</ele>
        <time>2024-12-17T11:10:32.000Z</time>
      </trkpt>
      <trkpt lat="50.29715" lon="4.58605">
        <ele>254.034328</ele>
        <time>2024-12-17T11:10:33.000Z</time>
      </trkpt>
      <trkpt lat="50.29712" lon="4.58604">
        <ele>254.153</ele>
        <time>2024-12-17T11:10:34.000Z</time>
      </trkpt>
      <trkpt lat="50.2971" lon="4.58602">
        <ele>254.259686</ele>
        <time>2024-12-17T11:10:35.000Z</time>
      </trkpt>
      <trkpt lat="50.29707" lon="4.586">
        <ele>254.361273</ele>
        <time>2024-12-17T11:10:36.000Z</time>
      </trkpt>
      <trkpt lat="50.29704" lon="4.58598">
        <ele>254.478591</ele>
        <time>2024-12-17T11:10:37.000Z</time>
      </trkpt>
      <trkpt lat="50.29701" lon="4.58597">
        <ele>254.587676</ele>
        <time>2024-12-17T11:10:38.000Z</time>
      </trkpt>
      <trkpt lat="50.29698" lon="4.58596">
        <ele>254.698268</ele>
        <time>2024-12-17T11:10:39.000Z</time>
      </trkpt>
      <trkpt lat="50.29695" lon="4.58594">
        <ele>254.811466</ele>
        <time>2024-12-17T11:10:40.000Z</time>
      </trkpt>
      <trkpt lat="50.29692" lon="4.58593">
        <ele>254.920551</ele>
        <time>2024-12-17T11:10:41.000Z</time>
      </trkpt>
      <trkpt lat="50.29689" lon="4.58592">
        <ele>255.029244</ele>
        <time>2024-12-17T11:10:42.000Z</time>
      </trkpt>
      <trkpt lat="50.29687" lon="4.58591">
        <ele>255.117948</ele>
        <time>2024-12-17T11:10:43.000Z</time>
      </trkpt>
      <trkpt lat="50.29684" lon="4.58589">
        <ele>255.199471</ele>
        <time>2024-12-17T11:10:44.000Z</time>
      </trkpt>
      <trkpt lat="50.29682" lon="4.58588">
        <ele>255.298729</ele>
        <time>2024-12-17T11:10:45.000Z</time>
      </trkpt>
      <trkpt lat="50.29679" lon="4.58586">
        <ele>255.401212</ele>
        <time>2024-12-17T11:10:46.000Z</time>
      </trkpt>
      <trkpt lat="50.29677" lon="4.58584">
        <ele>255.502751</ele>
        <time>2024-12-17T11:10:47.000Z</time>
      </trkpt>
      <trkpt lat="50.29674" lon="4.58582">
        <ele>255.591742</ele>
        <time>2024-12-17T11:10:48.000Z</time>
      </trkpt>
      <trkpt lat="50.29672" lon="4.58581">
        <ele>255.677448</ele>
        <time>2024-12-17T11:10:49.000Z</time>
      </trkpt>
      <trkpt lat="50.2967" lon="4.5858">
        <ele>255.761436</ele>
        <time>2024-12-17T11:10:50.000Z</time>
      </trkpt>
      <trkpt lat="50.29668" lon="4.58578">
        <ele>255.844853</ele>
        <time>2024-12-17T11:10:51.000Z</time>
      </trkpt>
      <trkpt lat="50.29666" lon="4.58576">
        <ele>255.930365</ele>
        <time>2024-12-17T11:10:52.000Z</time>
      </trkpt>
      <trkpt lat="50.29664" lon="4.58574">
        <ele>256.004971</ele>
        <time>2024-12-17T11:10:53.000Z</time>
      </trkpt>
      <trkpt lat="50.29662" lon="4.58572">
        <ele>256.08942</ele>
        <time>2024-12-17T11:10:54.000Z</time>
      </trkpt>
      <trkpt lat="50.29661" lon="4.5857">
        <ele>256.172408</ele>
        <time>2024-12-17T11:10:55.000Z</time>
      </trkpt>
      <trkpt lat="50.29659" lon="4.58568">
        <ele>256.255966</ele>
        <time>2024-12-17T11:10:56.000Z</time>
      </trkpt>
      <trkpt lat="50.29657" lon="4.58566">
        <ele>256.34073</ele>
        <time>2024-12-17T11:10:57.000Z</time>
      </trkpt>
      <trkpt lat="50.29655" lon="4.58564">
        <ele>256.418894</ele>
        <time>2024-12-17T11:10:58.000Z</time>
      </trkpt>
      <trkpt lat="50.29653" lon="4.58562">
        <ele>256.490943</ele>
        <time>2024-12-17T11:10:59.000Z</time>
      </trkpt>
      <trkpt lat="50.29652" lon="4.58561">
        <ele>256.552855</ele>
        <time>2024-12-17T11:11:00.000Z</time>
      </trkpt>
      <trkpt lat="50.2965" lon="4.58559">
        <ele>256.616377</ele>
        <time>2024-12-17T11:11:01.000Z</time>
      </trkpt>
      <trkpt lat="50.29648" lon="4.58556">
        <ele>256.700827</ele>
        <time>2024-12-17T11:11:02.000Z</time>
      </trkpt>
      <trkpt lat="50.29647" lon="4.58554">
        <ele>256.783197</ele>
        <time>2024-12-17T11:11:03.000Z</time>
      </trkpt>
      <trkpt lat="50.29645" lon="4.58551">
        <ele>256.871846</ele>
        <time>2024-12-17T11:11:04.000Z</time>
      </trkpt>
      <trkpt lat="50.29643" lon="4.58549">
        <ele>256.939351</ele>
        <time>2024-12-17T11:11:05.000Z</time>
      </trkpt>
      <trkpt lat="50.29641" lon="4.58547">
        <ele>257.033679</ele>
        <time>2024-12-17T11:11:06.000Z</time>
      </trkpt>
      <trkpt lat="50.29639" lon="4.58544">
        <ele>257.137888</ele>
        <time>2024-12-17T11:11:07.000Z</time>
      </trkpt>
      <trkpt lat="50.29637" lon="4.58542">
        <ele>257.217209</ele>
        <time>2024-12-17T11:11:08.000Z</time>
      </trkpt>
      <trkpt lat="50.29635" lon="4.5854">
        <ele>257.305004</ele>
        <time>2024-12-17T11:11:09.000Z</time>
      </trkpt>
      <trkpt lat="50.29634" lon="4.58538">
        <ele>257.381065</ele>
        <time>2024-12-17T11:11:10.000Z</time>
      </trkpt>
      <trkpt lat="50.29632" lon="4.58535">
        <ele>257.468542</ele>
        <time>2024-12-17T11:11:11.000Z</time>
      </trkpt>
      <trkpt lat="50.2963" lon="4.58532">
        <ele>257.559474</ele>
        <time>2024-12-17T11:11:12.000Z</time>
      </trkpt>
      <trkpt lat="50.29628" lon="4.58529">
        <ele>257.669892</ele>
        <time>2024-12-17T11:11:13.000Z</time>
      </trkpt>
      <trkpt lat="50.29625" lon="4.58526">
        <ele>257.784324</ele>
        <time>2024-12-17T11:11:14.000Z</time>
      </trkpt>
      <trkpt lat="50.29623" lon="4.58524">
        <ele>257.868764</ele>
        <time>2024-12-17T11:11:15.000Z</time>
      </trkpt>
      <trkpt lat="50.29622" lon="4.58523">
        <ele>257.937831</ele>
        <time>2024-12-17T11:11:16.000Z</time>
      </trkpt>
      <trkpt lat="50.2962" lon="4.58521">
        <ele>258.015371</ele>
        <time>2024-12-17T11:11:17.000Z</time>
      </trkpt>
      <trkpt lat="50.29617" lon="4.58519">
        <ele>258.113572</ele>
        <time>2024-12-17T11:11:18.000Z</time>
      </trkpt>
      <trkpt lat="50.29614" lon="4.58516">
        <ele>258.249871</ele>
        <time>2024-12-17T11:11:19.000Z</time>
      </trkpt>
      <trkpt lat="50.29613" lon="4.58514">
        <ele>258.320246</ele>
        <time>2024-12-17T11:11:20.000Z</time>
      </trkpt>
      <trkpt lat="50.29611" lon="4.58512">
        <ele>258.3962</ele>
        <time>2024-12-17T11:11:21.000Z</time>
      </trkpt>
      <trkpt lat="50.29609" lon="4.5851">
        <ele>258.475408</ele>
        <time>2024-12-17T11:11:22.000Z</time>
      </trkpt>
      <trkpt lat="50.29606" lon="4.58508">
        <ele>258.580969</ele>
        <time>2024-12-17T11:11:23.000Z</time>
      </trkpt>
      <trkpt lat="50.29605" lon="4.58507">
        <ele>258.647575</ele>
        <time>2024-12-17T11:11:24.000Z</time>
      </trkpt>
      <trkpt lat="50.29603" lon="4.58505">
        <ele>258.708812</ele>
        <time>2024-12-17T11:11:25.000Z</time>
      </trkpt>
      <trkpt lat="50.29602" lon="4.58504">
        <ele>258.777879</ele>
        <time>2024-12-17T11:11:26.000Z</time>
      </trkpt>
      <trkpt lat="50.29599" lon="4.58502">
        <ele>258.874988</ele>
        <time>2024-12-17T11:11:27.000Z</time>
      </trkpt>
      <trkpt lat="50.29597" lon="4.58501">
        <ele>258.954092</ele>
        <time>2024-12-17T11:11:28.000Z</time>
      </trkpt>
      <trkpt lat="50.29596" lon="4.58501">
        <ele>259.004562</ele>
        <time>2024-12-17T11:11:29.000Z</time>
      </trkpt>
      <trkpt lat="50.29594" lon="4.58501">
        <ele>259.055031</ele>
        <time>2024-12-17T11:11:30.000Z</time>
      </trkpt>
      <trkpt lat="50.29593" lon="4.58501">
        <ele>259.108654</ele>
        <time>2024-12-17T11:11:31.000Z</time>
      </trkpt>
      <trkpt lat="50.29591" lon="4.58501">
        <ele>259.158657</ele>
        <time>2024-12-17T11:11:32.000Z</time>
      </trkpt>
      <trkpt lat="50.2959" lon="4.58501">
        <ele>259.219418</ele>
        <time>2024-12-17T11:11:33.000Z</time>
      </trkpt>
      <trkpt lat="50.29588" lon="4.58501">
        <ele>259.27661</ele>
        <time>2024-12-17T11:11:34.000Z</time>
      </trkpt>
      <trkpt lat="50.29586" lon="4.58501">
        <ele>259.333756</ele>
        <time>2024-12-17T11:11:35.000Z</time>
      </trkpt>
      <trkpt lat="50.29585" lon="4.585">
        <ele>259.390948</ele>
        <time>2024-12-17T11:11:36.000Z</time>
      </trkpt>
      <trkpt lat="50.29584" lon="4.585">
        <ele>259.433808</ele>
        <time>2024-12-17T11:11:37.000Z</time>
      </trkpt>
      <trkpt lat="50.29582" lon="4.585">
        <ele>259.548964</ele>
        <time>2024-12-17T11:11:38.000Z</time>
      </trkpt>
      <trkpt lat="50.2958" lon="4.585">
        <ele>259.642237</ele>
        <time>2024-12-17T11:11:39.000Z</time>
      </trkpt>
      <trkpt lat="50.29579" lon="4.58499">
        <ele>259.734207</ele>
        <time>2024-12-17T11:11:40.000Z</time>
      </trkpt>
      <trkpt lat="50.29577" lon="4.58499">
        <ele>259.82675</ele>
        <time>2024-12-17T11:11:41.000Z</time>
      </trkpt>
      <trkpt lat="50.29575" lon="4.58498">
        <ele>259.937934</ele>
        <time>2024-12-17T11:11:42.000Z</time>
      </trkpt>
      <trkpt lat="50.29574" lon="4.58498">
        <ele>260.035939</ele>
        <time>2024-12-17T11:11:43.000Z</time>
      </trkpt>
      <trkpt lat="50.29572" lon="4.58498">
        <ele>260.139623</ele>
        <time>2024-12-17T11:11:44.000Z</time>
      </trkpt>
      <trkpt lat="50.2957" lon="4.58497">
        <ele>260.24561</ele>
        <time>2024-12-17T11:11:45.000Z</time>
      </trkpt>
      <trkpt lat="50.29569" lon="4.58497">
        <ele>260.355703</ele>
        <time>2024-12-17T11:11:46.000Z</time>
      </trkpt>
      <trkpt lat="50.29567" lon="4.58496">
        <ele>260.455766</ele>
        <time>2024-12-17T11:11:47.000Z</time>
      </trkpt>
      <trkpt lat="50.29565" lon="4.58496">
        <ele>260.567694</ele>
        <time>2024-12-17T11:11:48.000Z</time>
      </trkpt>
      <trkpt lat="50.29564" lon="4.58496">
        <ele>260.652929</ele>
        <time>2024-12-17T11:11:49.000Z</time>
      </trkpt>
      <trkpt lat="50.29562" lon="4.58495">
        <ele>260.750549</ele>
        <time>2024-12-17T11:11:50.000Z</time>
      </trkpt>
      <trkpt lat="50.2956" lon="4.58495">
        <ele>260.85575</ele>
        <time>2024-12-17T11:11:51.000Z</time>
      </trkpt>
      <trkpt lat="50.29558" lon="4.58494">
        <ele>260.980391</ele>
        <time>2024-12-17T11:11:52.000Z</time>
      </trkpt>
      <trkpt lat="50.29557" lon="4.58494">
        <ele>261.093193</ele>
        <time>2024-12-17T11:11:53.000Z</time>
      </trkpt>
      <trkpt lat="50.29555" lon="4.58493">
        <ele>261.191736</ele>
        <time>2024-12-17T11:11:54.000Z</time>
      </trkpt>
      <trkpt lat="50.29553" lon="4.58493">
        <ele>261.295201</ele>
        <time>2024-12-17T11:11:55.000Z</time>
      </trkpt>
      <trkpt lat="50.29552" lon="4.58493">
        <ele>261.393206</ele>
        <time>2024-12-17T11:11:56.000Z</time>
      </trkpt>
      <trkpt lat="50.29551" lon="4.58493">
        <ele>261.466292</ele>
        <time>2024-12-17T11:11:57.000Z</time>
      </trkpt>
      <trkpt lat="50.29549" lon="4.58493">
        <ele>261.55752</ele>
        <time>2024-12-17T11:11:58.000Z</time>
      </trkpt>
      <trkpt lat="50.29548" lon="4.58493">
        <ele>261.637439</ele>
        <time>2024-12-17T11:11:59.000Z</time>
      </trkpt>
      <trkpt lat="50.29546" lon="4.58493">
        <ele>261.73475</ele>
        <time>2024-12-17T11:12:00.000Z</time>
      </trkpt>
      <trkpt lat="50.29545" lon="4.58493">
        <ele>261.815327</ele>
        <time>2024-12-17T11:12:01.000Z</time>
      </trkpt>
      <trkpt lat="50.29544" lon="4.58492">
        <ele>261.8781</ele>
        <time>2024-12-17T11:12:02.000Z</time>
      </trkpt>
      <trkpt lat="50.29543" lon="4.58492">
        <ele>261.939043</ele>
        <time>2024-12-17T11:12:03.000Z</time>
      </trkpt>
      <trkpt lat="50.29541" lon="4.58492">
        <ele>262.024278</ele>
        <time>2024-12-17T11:12:04.000Z</time>
      </trkpt>
      <trkpt lat="50.2954" lon="4.58492">
        <ele>262.103437</ele>
        <time>2024-12-17T11:12:05.000Z</time>
      </trkpt>
      <trkpt lat="50.29539" lon="4.58492">
        <ele>262.184015</ele>
        <time>2024-12-17T11:12:06.000Z</time>
      </trkpt>
      <trkpt lat="50.29537" lon="4.58491">
        <ele>262.277288</ele>
        <time>2024-12-17T11:12:07.000Z</time>
      </trkpt>
      <trkpt lat="50.29536" lon="4.58491">
        <ele>262.369831</ele>
        <time>2024-12-17T11:12:08.000Z</time>
      </trkpt>
      <trkpt lat="50.29534" lon="4.58491">
        <ele>262.473296</ele>
        <time>2024-12-17T11:12:09.000Z</time>
      </trkpt>
      <trkpt lat="50.29533" lon="4.5849">
        <ele>262.570915</ele>
        <time>2024-12-17T11:12:10.000Z</time>
      </trkpt>
      <trkpt lat="50.29531" lon="4.5849">
        <ele>262.669459</ele>
        <time>2024-12-17T11:12:11.000Z</time>
      </trkpt>
      <trkpt lat="50.2953" lon="4.5849">
        <ele>262.755399</ele>
        <time>2024-12-17T11:12:12.000Z</time>
      </trkpt>
      <trkpt lat="50.29528" lon="4.5849">
        <ele>262.852787</ele>
        <time>2024-12-17T11:12:13.000Z</time>
      </trkpt>
      <trkpt lat="50.29526" lon="4.5849">
        <ele>262.950174</ele>
        <time>2024-12-17T11:12:14.000Z</time>
      </trkpt>
      <trkpt lat="50.29525" lon="4.58489">
        <ele>263.030093</ele>
        <time>2024-12-17T11:12:15.000Z</time>
      </trkpt>
      <trkpt lat="50.29524" lon="4.58489">
        <ele>263.068401</ele>
        <time>2024-12-17T11:12:16.000Z</time>
      </trkpt>
      <trkpt lat="50.29524" lon="4.58489">
        <ele>263.068401</ele>
        <time>2024-12-17T11:12:18.000Z</time>
      </trkpt>
      <trkpt lat="50.29515" lon="4.58486">
        <ele>263.680959</ele>
        <time>2024-12-17T11:15:08.000Z</time>
      </trkpt>
      <trkpt lat="50.29513" lon="4.58486">
        <ele>263.785005</ele>
        <time>2024-12-17T11:15:09.000Z</time>
      </trkpt>
      <trkpt lat="50.29511" lon="4.58486">
        <ele>263.871558</ele>
        <time>2024-12-17T11:15:10.000Z</time>
      </trkpt>
      <trkpt lat="50.2951" lon="4.58485">
        <ele>263.958893</ele>
        <time>2024-12-17T11:15:11.000Z</time>
      </trkpt>
      <trkpt lat="50.29509" lon="4.58485">
        <ele>264.03947</ele>
        <time>2024-12-17T11:15:12.000Z</time>
      </trkpt>
      <trkpt lat="50.29508" lon="4.58484">
        <ele>264.100591</ele>
        <time>2024-12-17T11:15:13.000Z</time>
      </trkpt>
      <trkpt lat="50.29507" lon="4.58483">
        <ele>264.186815</ele>
        <time>2024-12-17T11:15:14.000Z</time>
      </trkpt>
      <trkpt lat="50.29505" lon="4.58481">
        <ele>264.280635</ele>
        <time>2024-12-17T11:15:15.000Z</time>
      </trkpt>
      <trkpt lat="50.29504" lon="4.5848">
        <ele>264.379636</ele>
        <time>2024-12-17T11:15:16.000Z</time>
      </trkpt>
      <trkpt lat="50.29503" lon="4.58479">
        <ele>264.46118</ele>
        <time>2024-12-17T11:15:17.000Z</time>
      </trkpt>
      <trkpt lat="50.29502" lon="4.58478">
        <ele>264.551056</ele>
        <time>2024-12-17T11:15:18.000Z</time>
      </trkpt>
      <trkpt lat="50.29499" lon="4.58476">
        <ele>264.732725</ele>
        <time>2024-12-17T11:15:19.000Z</time>
      </trkpt>
      <trkpt lat="50.29496" lon="4.58473">
        <ele>264.932232</ele>
        <time>2024-12-17T11:15:20.000Z</time>
      </trkpt>
      <trkpt lat="50.29495" lon="4.58471">
        <ele>265.047506</ele>
        <time>2024-12-17T11:15:21.000Z</time>
      </trkpt>
      <trkpt lat="50.29492" lon="4.58468">
        <ele>265.227533</ele>
        <time>2024-12-17T11:15:22.000Z</time>
      </trkpt>
      <trkpt lat="50.29491" lon="4.58466">
        <ele>265.331341</ele>
        <time>2024-12-17T11:15:23.000Z</time>
      </trkpt>
      <trkpt lat="50.2949" lon="4.58464">
        <ele>265.439511</ele>
        <time>2024-12-17T11:15:24.000Z</time>
      </trkpt>
      <trkpt lat="50.29487" lon="4.58462">
        <ele>265.627153</ele>
        <time>2024-12-17T11:15:25.000Z</time>
      </trkpt>
      <trkpt lat="50.29485" lon="4.58459">
        <ele>265.794806</ele>
        <time>2024-12-17T11:15:26.000Z</time>
      </trkpt>
      <trkpt lat="50.29484" lon="4.58457">
        <ele>265.911243</ele>
        <time>2024-12-17T11:15:27.000Z</time>
      </trkpt>
      <trkpt lat="50.29482" lon="4.58455">
        <ele>266.021638</ele>
        <time>2024-12-17T11:15:28.000Z</time>
      </trkpt>
      <trkpt lat="50.29482" lon="4.58454">
        <ele>266.096984</ele>
        <time>2024-12-17T11:15:29.000Z</time>
      </trkpt>
      <trkpt lat="50.2948" lon="4.58452">
        <ele>266.232055</ele>
        <time>2024-12-17T11:15:30.000Z</time>
      </trkpt>
      <trkpt lat="50.29479" lon="4.58451">
        <ele>266.309223</ele>
        <time>2024-12-17T11:15:31.000Z</time>
      </trkpt>
      <trkpt lat="50.29478" lon="4.58449">
        <ele>266.38861</ele>
        <time>2024-12-17T11:15:32.000Z</time>
      </trkpt>
      <trkpt lat="50.29476" lon="4.58448">
        <ele>266.509251</ele>
        <time>2024-12-17T11:15:33.000Z</time>
      </trkpt>
      <trkpt lat="50.29475" lon="4.58446">
        <ele>266.595475</ele>
        <time>2024-12-17T11:15:34.000Z</time>
      </trkpt>
      <trkpt lat="50.29474" lon="4.58445">
        <ele>266.679301</ele>
        <time>2024-12-17T11:15:35.000Z</time>
      </trkpt>
      <trkpt lat="50.29473" lon="4.58444">
        <ele>266.763128</ele>
        <time>2024-12-17T11:15:36.000Z</time>
      </trkpt>
      <trkpt lat="50.29471" lon="4.58442">
        <ele>266.861351</ele>
        <time>2024-12-17T11:15:37.000Z</time>
      </trkpt>
      <trkpt lat="50.29471" lon="4.58441">
        <ele>266.938519</ele>
        <time>2024-12-17T11:15:38.000Z</time>
      </trkpt>
      <trkpt lat="50.2947" lon="4.5844">
        <ele>267.011499</ele>
        <time>2024-12-17T11:15:39.000Z</time>
      </trkpt>
      <trkpt lat="50.29469" lon="4.58438">
        <ele>267.100255</ele>
        <time>2024-12-17T11:15:40.000Z</time>
      </trkpt>
      <trkpt lat="50.29467" lon="4.58437">
        <ele>267.189012</ele>
        <time>2024-12-17T11:15:41.000Z</time>
      </trkpt>
      <trkpt lat="50.29466" lon="4.58436">
        <ele>267.280035</ele>
        <time>2024-12-17T11:15:42.000Z</time>
      </trkpt>
      <trkpt lat="50.29465" lon="4.58434">
        <ele>267.391516</ele>
        <time>2024-12-17T11:15:43.000Z</time>
      </trkpt>
      <trkpt lat="50.29463" lon="4.58433">
        <ele>267.496941</ele>
        <time>2024-12-17T11:15:44.000Z</time>
      </trkpt>
      <trkpt lat="50.29462" lon="4.58431">
        <ele>267.568843</ele>
        <time>2024-12-17T11:15:45.000Z</time>
      </trkpt>
      <trkpt lat="50.29461" lon="4.5843">
        <ele>267.662856</ele>
        <time>2024-12-17T11:15:46.000Z</time>
      </trkpt>
      <trkpt lat="50.2946" lon="4.58427">
        <ele>267.792377</ele>
        <time>2024-12-17T11:15:47.000Z</time>
      </trkpt>
      <trkpt lat="50.29458" lon="4.58426">
        <ele>267.924416</ele>
        <time>2024-12-17T11:15:48.000Z</time>
      </trkpt>
      <trkpt lat="50.29456" lon="4.58424">
        <ele>268.014292</ele>
        <time>2024-12-17T11:15:49.000Z</time>
      </trkpt>
      <trkpt lat="50.29455" lon="4.58424">
        <ele>268.084447</ele>
        <time>2024-12-17T11:15:50.000Z</time>
      </trkpt>
      <trkpt lat="50.29454" lon="4.58423">
        <ele>268.158216</ele>
        <time>2024-12-17T11:15:51.000Z</time>
      </trkpt>
      <trkpt lat="50.29453" lon="4.58421">
        <ele>268.252229</ele>
        <time>2024-12-17T11:15:52.000Z</time>
      </trkpt>
      <trkpt lat="50.29451" lon="4.58419">
        <ele>268.40173</ele>
        <time>2024-12-17T11:15:53.000Z</time>
      </trkpt>
      <trkpt lat="50.2945" lon="4.58418">
        <ele>268.504912</ele>
        <time>2024-12-17T11:15:54.000Z</time>
      </trkpt>
      <trkpt lat="50.29448" lon="4.58416">
        <ele>268.615307</ele>
        <time>2024-12-17T11:15:55.000Z</time>
      </trkpt>
      <trkpt lat="50.29446" lon="4.58414">
        <ele>268.773475</ele>
        <time>2024-12-17T11:15:56.000Z</time>
      </trkpt>
      <trkpt lat="50.29444" lon="4.58412">
        <ele>268.907724</ele>
        <time>2024-12-17T11:15:57.000Z</time>
      </trkpt>
      <trkpt lat="50.29443" lon="4.58411">
        <ele>269.021152</ele>
        <time>2024-12-17T11:15:58.000Z</time>
      </trkpt>
      <trkpt lat="50.29441" lon="4.58409">
        <ele>269.156223</ele>
        <time>2024-12-17T11:15:59.000Z</time>
      </trkpt>
      <trkpt lat="50.29439" lon="4.58407">
        <ele>269.298269</ele>
        <time>2024-12-17T11:16:00.000Z</time>
      </trkpt>
      <trkpt lat="50.29437" lon="4.58406">
        <ele>269.420512</ele>
        <time>2024-12-17T11:16:01.000Z</time>
      </trkpt>
      <trkpt lat="50.29435" lon="4.58404">
        <ele>269.535582</ele>
        <time>2024-12-17T11:16:02.000Z</time>
      </trkpt>
      <trkpt lat="50.29433" lon="4.58403">
        <ele>269.670653</ele>
        <time>2024-12-17T11:16:03.000Z</time>
      </trkpt>
      <trkpt lat="50.29432" lon="4.58401">
        <ele>269.767729</ele>
        <time>2024-12-17T11:16:04.000Z</time>
      </trkpt>
      <trkpt lat="50.2943" lon="4.58399">
        <ele>269.909187</ele>
        <time>2024-12-17T11:16:05.000Z</time>
      </trkpt>
      <trkpt lat="50.29428" lon="4.58398">
        <ele>270.031877</ele>
        <time>2024-12-17T11:16:06.000Z</time>
      </trkpt>
      <trkpt lat="50.29427" lon="4.58396">
        <ele>270.134329</ele>
        <time>2024-12-17T11:16:07.000Z</time>
      </trkpt>
      <trkpt lat="50.29425" lon="4.58395">
        <ele>270.236781</ele>
        <time>2024-12-17T11:16:08.000Z</time>
      </trkpt>
      <trkpt lat="50.29424" lon="4.58394">
        <ele>270.343063</ele>
        <time>2024-12-17T11:16:09.000Z</time>
      </trkpt>
      <trkpt lat="50.29422" lon="4.58393">
        <ele>270.373637</ele>
        <time>2024-12-17T11:16:10.000Z</time>
      </trkpt>
      <trkpt lat="50.2942" lon="4.58391">
        <ele>270.371794</ele>
        <time>2024-12-17T11:16:11.000Z</time>
      </trkpt>
      <trkpt lat="50.29419" lon="4.5839">
        <ele>270.369985</ele>
        <time>2024-12-17T11:16:12.000Z</time>
      </trkpt>
      <trkpt lat="50.29417" lon="4.58389">
        <ele>270.367864</ele>
        <time>2024-12-17T11:16:13.000Z</time>
      </trkpt>
      <trkpt lat="50.29416" lon="4.58387">
        <ele>270.365824</ele>
        <time>2024-12-17T11:16:14.000Z</time>
      </trkpt>
      <trkpt lat="50.29414" lon="4.58385">
        <ele>270.36373</ele>
        <time>2024-12-17T11:16:15.000Z</time>
      </trkpt>
      <trkpt lat="50.29412" lon="4.58384">
        <ele>270.361579</ele>
        <time>2024-12-17T11:16:16.000Z</time>
      </trkpt>
      <trkpt lat="50.2941" lon="4.58383">
        <ele>270.359293</ele>
        <time>2024-12-17T11:16:17.000Z</time>
      </trkpt>
      <trkpt lat="50.29408" lon="4.58381">
        <ele>270.356892</ele>
        <time>2024-12-17T11:16:18.000Z</time>
      </trkpt>
      <trkpt lat="50.29406" lon="4.58379">
        <ele>270.354548</ele>
        <time>2024-12-17T11:16:19.000Z</time>
      </trkpt>
      <trkpt lat="50.29404" lon="4.58377">
        <ele>270.352044</ele>
        <time>2024-12-17T11:16:20.000Z</time>
      </trkpt>
      <trkpt lat="50.29402" lon="4.58375">
        <ele>270.349575</ele>
        <time>2024-12-17T11:16:21.000Z</time>
      </trkpt>
      <trkpt lat="50.294" lon="4.58373">
        <ele>270.347016</ele>
        <time>2024-12-17T11:16:22.000Z</time>
      </trkpt>
      <trkpt lat="50.29398" lon="4.58372">
        <ele>270.344332</ele>
        <time>2024-12-17T11:16:23.000Z</time>
      </trkpt>
      <trkpt lat="50.29395" lon="4.5837">
        <ele>270.341587</ele>
        <time>2024-12-17T11:16:24.000Z</time>
      </trkpt>
      <trkpt lat="50.29394" lon="4.58368">
        <ele>270.339094</ele>
        <time>2024-12-17T11:16:25.000Z</time>
      </trkpt>
      <trkpt lat="50.29392" lon="4.58365">
        <ele>270.336846</ele>
        <time>2024-12-17T11:16:26.000Z</time>
      </trkpt>
      <trkpt lat="50.2939" lon="4.58363">
        <ele>270.33481</ele>
        <time>2024-12-17T11:16:27.000Z</time>
      </trkpt>
      <trkpt lat="50.29389" lon="4.58362">
        <ele>270.333023</ele>
        <time>2024-12-17T11:16:28.000Z</time>
      </trkpt>
      <trkpt lat="50.29388" lon="4.5836">
        <ele>270.331191</ele>
        <time>2024-12-17T11:16:29.000Z</time>
      </trkpt>
      <trkpt lat="50.29386" lon="4.58358">
        <ele>270.32905</ele>
        <time>2024-12-17T11:16:30.000Z</time>
      </trkpt>
      <trkpt lat="50.29385" lon="4.58355">
        <ele>270.326859</ele>
        <time>2024-12-17T11:16:31.000Z</time>
      </trkpt>
      <trkpt lat="50.29383" lon="4.58352">
        <ele>270.324205</ele>
        <time>2024-12-17T11:16:32.000Z</time>
      </trkpt>
      <trkpt lat="50.29382" lon="4.58349">
        <ele>270.321646</ele>
        <time>2024-12-17T11:16:33.000Z</time>
      </trkpt>
      <trkpt lat="50.29381" lon="4.58346">
        <ele>270.319033</ele>
        <time>2024-12-17T11:16:34.000Z</time>
      </trkpt>
      <trkpt lat="50.29379" lon="4.58343">
        <ele>270.316362</ele>
        <time>2024-12-17T11:16:35.000Z</time>
      </trkpt>
      <trkpt lat="50.29378" lon="4.58339">
        <ele>270.313691</ele>
        <time>2024-12-17T11:16:36.000Z</time>
      </trkpt>
      <trkpt lat="50.29377" lon="4.58336">
        <ele>270.311241</ele>
        <time>2024-12-17T11:16:37.000Z</time>
      </trkpt>
      <trkpt lat="50.29376" lon="4.58333">
        <ele>270.308855</ele>
        <time>2024-12-17T11:16:38.000Z</time>
      </trkpt>
      <trkpt lat="50.29375" lon="4.58331">
        <ele>270.306809</ele>
        <time>2024-12-17T11:16:39.000Z</time>
      </trkpt>
      <trkpt lat="50.29374" lon="4.58328">
        <ele>270.304933</ele>
        <time>2024-12-17T11:16:40.000Z</time>
      </trkpt>
      <trkpt lat="50.29373" lon="4.58326">
        <ele>270.302999</ele>
        <time>2024-12-17T11:16:41.000Z</time>
      </trkpt>
      <trkpt lat="50.29372" lon="4.58323">
        <ele>270.300725</ele>
        <time>2024-12-17T11:16:42.000Z</time>
      </trkpt>
      <trkpt lat="50.2937" lon="4.5832">
        <ele>270.298224</ele>
        <time>2024-12-17T11:16:43.000Z</time>
      </trkpt>
      <trkpt lat="50.29369" lon="4.58316">
        <ele>270.295667</ele>
        <time>2024-12-17T11:16:44.000Z</time>
      </trkpt>
      <trkpt lat="50.29368" lon="4.58313">
        <ele>270.293099</ele>
        <time>2024-12-17T11:16:45.000Z</time>
      </trkpt>
      <trkpt lat="50.29366" lon="4.5831">
        <ele>270.290412</ele>
        <time>2024-12-17T11:16:46.000Z</time>
      </trkpt>
      <trkpt lat="50.29364" lon="4.58307">
        <ele>270.287588</ele>
        <time>2024-12-17T11:16:47.000Z</time>
      </trkpt>
      <trkpt lat="50.29363" lon="4.58305">
        <ele>270.285296</ele>
        <time>2024-12-17T11:16:48.000Z</time>
      </trkpt>
      <trkpt lat="50.29361" lon="4.58303">
        <ele>270.28288</ele>
        <time>2024-12-17T11:16:49.000Z</time>
      </trkpt>
      <trkpt lat="50.29359" lon="4.58301">
        <ele>270.280589</ele>
        <time>2024-12-17T11:16:50.000Z</time>
      </trkpt>
      <trkpt lat="50.29357" lon="4.58299">
        <ele>270.278468</ele>
        <time>2024-12-17T11:16:51.000Z</time>
      </trkpt>
      <trkpt lat="50.29355" lon="4.58298">
        <ele>270.276429</ele>
        <time>2024-12-17T11:16:52.000Z</time>
      </trkpt>
      <trkpt lat="50.29354" lon="4.58297">
        <ele>270.274527</ele>
        <time>2024-12-17T11:16:53.000Z</time>
      </trkpt>
      <trkpt lat="50.29352" lon="4.58295">
        <ele>270.272612</ele>
        <time>2024-12-17T11:16:54.000Z</time>
      </trkpt>
      <trkpt lat="50.29351" lon="4.58294">
        <ele>270.270491</ele>
        <time>2024-12-17T11:16:55.000Z</time>
      </trkpt>
      <trkpt lat="50.29349" lon="4.58293">
        <ele>270.268673</ele>
        <time>2024-12-17T11:16:56.000Z</time>
      </trkpt>
      <trkpt lat="50.29347" lon="4.58292">
        <ele>270.266436</ele>
        <time>2024-12-17T11:16:57.000Z</time>
      </trkpt>
      <trkpt lat="50.29344" lon="4.5829">
        <ele>270.263473</ele>
        <time>2024-12-17T11:16:58.000Z</time>
      </trkpt>
      <trkpt lat="50.29342" lon="4.58288">
        <ele>270.260261</ele>
        <time>2024-12-17T11:16:59.000Z</time>
      </trkpt>
      <trkpt lat="50.29339" lon="4.58285">
        <ele>270.256985</ele>
        <time>2024-12-17T11:17:00.000Z</time>
      </trkpt>
      <trkpt lat="50.29336" lon="4.58283">
        <ele>270.253544</ele>
        <time>2024-12-17T11:17:01.000Z</time>
      </trkpt>
      <trkpt lat="50.29333" lon="4.58282">
        <ele>270.25035</ele>
        <time>2024-12-17T11:17:02.000Z</time>
      </trkpt>
      <trkpt lat="50.29331" lon="4.5828">
        <ele>270.247377</ele>
        <time>2024-12-17T11:17:03.000Z</time>
      </trkpt>
      <trkpt lat="50.29328" lon="4.58278">
        <ele>270.244663</ele>
        <time>2024-12-17T11:17:04.000Z</time>
      </trkpt>
      <trkpt lat="50.29326" lon="4.58276">
        <ele>270.241919</ele>
        <time>2024-12-17T11:17:05.000Z</time>
      </trkpt>
      <trkpt lat="50.29324" lon="4.58274">
        <ele>270.2392</ele>
        <time>2024-12-17T11:17:06.000Z</time>
      </trkpt>
      <trkpt lat="50.29322" lon="4.58272">
        <ele>270.236695</ele>
        <time>2024-12-17T11:17:07.000Z</time>
      </trkpt>
      <trkpt lat="50.2932" lon="4.5827">
        <ele>270.234352</ele>
        <time>2024-12-17T11:17:08.000Z</time>
      </trkpt>
      <trkpt lat="50.29318" lon="4.58268">
        <ele>270.231973</ele>
        <time>2024-12-17T11:17:09.000Z</time>
      </trkpt>
      <trkpt lat="50.29316" lon="4.58267">
        <ele>270.229538</ele>
        <time>2024-12-17T11:17:10.000Z</time>
      </trkpt>
      <trkpt lat="50.29314" lon="4.58265">
        <ele>270.227168</ele>
        <time>2024-12-17T11:17:11.000Z</time>
      </trkpt>
      <trkpt lat="50.29312" lon="4.58263">
        <ele>270.224664</ele>
        <time>2024-12-17T11:17:12.000Z</time>
      </trkpt>
      <trkpt lat="50.2931" lon="4.58261">
        <ele>270.222104</ele>
        <time>2024-12-17T11:17:13.000Z</time>
      </trkpt>
      <trkpt lat="50.29308" lon="4.58259">
        <ele>270.219453</ele>
        <time>2024-12-17T11:17:14.000Z</time>
      </trkpt>
      <trkpt lat="50.29305" lon="4.58257">
        <ele>270.216709</ele>
        <time>2024-12-17T11:17:15.000Z</time>
      </trkpt>
      <trkpt lat="50.29303" lon="4.58256">
        <ele>270.214203</ele>
        <time>2024-12-17T11:17:16.000Z</time>
      </trkpt>
      <trkpt lat="50.29301" lon="4.58256">
        <ele>270.21218</ele>
        <time>2024-12-17T11:17:17.000Z</time>
      </trkpt>
      <trkpt lat="50.293" lon="4.58256">
        <ele>270.210696</ele>
        <time>2024-12-17T11:17:18.000Z</time>
      </trkpt>
      <trkpt lat="50.29299" lon="4.58257">
        <ele>270.209354</ele>
        <time>2024-12-17T11:17:19.000Z</time>
      </trkpt>
      <trkpt lat="50.29298" lon="4.58258">
        <ele>270.207938</ele>
        <time>2024-12-17T11:17:20.000Z</time>
      </trkpt>
      <trkpt lat="50.29297" lon="4.5826">
        <ele>270.206553</ele>
        <time>2024-12-17T11:17:21.000Z</time>
      </trkpt>
      <trkpt lat="50.29297" lon="4.58263">
        <ele>270.204772</ele>
        <time>2024-12-17T11:17:22.000Z</time>
      </trkpt>
      <trkpt lat="50.29297" lon="4.58265">
        <ele>270.202969</ele>
        <time>2024-12-17T11:17:23.000Z</time>
      </trkpt>
      <trkpt lat="50.29296" lon="4.58268">
        <ele>270.2011</ele>
        <time>2024-12-17T11:17:24.000Z</time>
      </trkpt>
      <trkpt lat="50.29296" lon="4.58271">
        <ele>270.19892</ele>
        <time>2024-12-17T11:17:25.000Z</time>
      </trkpt>
      <trkpt lat="50.29296" lon="4.58274">
        <ele>270.196752</ele>
        <time>2024-12-17T11:17:26.000Z</time>
      </trkpt>
      <trkpt lat="50.29296" lon="4.58278">
        <ele>270.194458</ele>
        <time>2024-12-17T11:17:27.000Z</time>
      </trkpt>
      <trkpt lat="50.29295" lon="4.58281">
        <ele>270.192211</ele>
        <time>2024-12-17T11:17:28.000Z</time>
      </trkpt>
      <trkpt lat="50.29295" lon="4.58285">
        <ele>270.189842</ele>
        <time>2024-12-17T11:17:29.000Z</time>
      </trkpt>
      <trkpt lat="50.29295" lon="4.58288">
        <ele>270.187348</ele>
        <time>2024-12-17T11:17:30.000Z</time>
      </trkpt>
      <trkpt lat="50.29295" lon="4.58292">
        <ele>270.184741</ele>
        <time>2024-12-17T11:17:31.000Z</time>
      </trkpt>
      <trkpt lat="50.29295" lon="4.58295">
        <ele>270.177467</ele>
        <time>2024-12-17T11:17:32.000Z</time>
      </trkpt>
      <trkpt lat="50.29295" lon="4.58298">
        <ele>270.169932</ele>
        <time>2024-12-17T11:17:33.000Z</time>
      </trkpt>
      <trkpt lat="50.29295" lon="4.58302">
        <ele>270.161741</ele>
        <time>2024-12-17T11:17:34.000Z</time>
      </trkpt>
      <trkpt lat="50.29295" lon="4.58305">
        <ele>270.153777</ele>
        <time>2024-12-17T11:17:35.000Z</time>
      </trkpt>
      <trkpt lat="50.29295" lon="4.58308">
        <ele>270.146721</ele>
        <time>2024-12-17T11:17:36.000Z</time>
      </trkpt>
      <trkpt lat="50.29295" lon="4.58311">
        <ele>270.139639</ele>
        <time>2024-12-17T11:17:37.000Z</time>
      </trkpt>
      <trkpt lat="50.29295" lon="4.58314">
        <ele>270.13281</ele>
        <time>2024-12-17T11:17:38.000Z</time>
      </trkpt>
      <trkpt lat="50.29295" lon="4.58318">
        <ele>270.125763</ele>
        <time>2024-12-17T11:17:39.000Z</time>
      </trkpt>
      <trkpt lat="50.29295" lon="4.58321">
        <ele>270.11758</ele>
        <time>2024-12-17T11:17:40.000Z</time>
      </trkpt>
      <trkpt lat="50.29295" lon="4.58325">
        <ele>270.109162</ele>
        <time>2024-12-17T11:17:41.000Z</time>
      </trkpt>
      <trkpt lat="50.29295" lon="4.58329">
        <ele>270.099608</ele>
        <time>2024-12-17T11:17:42.000Z</time>
      </trkpt>
      <trkpt lat="50.29295" lon="4.58333">
        <ele>270.0896</ele>
        <time>2024-12-17T11:17:43.000Z</time>
      </trkpt>
      <trkpt lat="50.29295" lon="4.58338">
        <ele>270.080026</ele>
        <time>2024-12-17T11:17:44.000Z</time>
      </trkpt>
      <trkpt lat="50.29294" lon="4.58342">
        <ele>270.070453</ele>
        <time>2024-12-17T11:17:45.000Z</time>
      </trkpt>
      <trkpt lat="50.29294" lon="4.58346">
        <ele>270.061133</ele>
        <time>2024-12-17T11:17:46.000Z</time>
      </trkpt>
      <trkpt lat="50.29294" lon="4.5835">
        <ele>270.051813</ele>
        <time>2024-12-17T11:17:47.000Z</time>
      </trkpt>
      <trkpt lat="50.29294" lon="4.58354">
        <ele>270.041786</ele>
        <time>2024-12-17T11:17:48.000Z</time>
      </trkpt>
      <trkpt lat="50.29294" lon="4.58359">
        <ele>270.031953</ele>
        <time>2024-12-17T11:17:49.000Z</time>
      </trkpt>
      <trkpt lat="50.29293" lon="4.58363">
        <ele>270.022525</ele>
        <time>2024-12-17T11:17:50.000Z</time>
      </trkpt>
      <trkpt lat="50.29293" lon="4.58367">
        <ele>270.013144</ele>
        <time>2024-12-17T11:17:51.000Z</time>
      </trkpt>
      <trkpt lat="50.29293" lon="4.58371">
        <ele>270.004045</ele>
        <time>2024-12-17T11:17:52.000Z</time>
      </trkpt>
      <trkpt lat="50.29293" lon="4.58375">
        <ele>269.99489</ele>
        <time>2024-12-17T11:17:53.000Z</time>
      </trkpt>
      <trkpt lat="50.29292" lon="4.58379">
        <ele>269.986186</ele>
        <time>2024-12-17T11:17:54.000Z</time>
      </trkpt>
      <trkpt lat="50.29292" lon="4.58382">
        <ele>269.977509</ele>
        <time>2024-12-17T11:17:55.000Z</time>
      </trkpt>
      <trkpt lat="50.29291" lon="4.58386">
        <ele>269.96965</ele>
        <time>2024-12-17T11:17:56.000Z</time>
      </trkpt>
      <trkpt lat="50.29292" lon="4.58389">
        <ele>269.962822</ele>
        <time>2024-12-17T11:17:57.000Z</time>
      </trkpt>
      <trkpt lat="50.29292" lon="4.58392">
        <ele>269.956457</ele>
        <time>2024-12-17T11:17:58.000Z</time>
      </trkpt>
      <trkpt lat="50.29291" lon="4.58394">
        <ele>269.950819</ele>
        <time>2024-12-17T11:17:59.000Z</time>
      </trkpt>
      <trkpt lat="50.2929" lon="4.58396">
        <ele>269.944866</ele>
        <time>2024-12-17T11:18:00.000Z</time>
      </trkpt>
      <trkpt lat="50.2929" lon="4.58399">
        <ele>269.939127</ele>
        <time>2024-12-17T11:18:01.000Z</time>
      </trkpt>
      <trkpt lat="50.2929" lon="4.58402">
        <ele>269.932723</ele>
        <time>2024-12-17T11:18:02.000Z</time>
      </trkpt>
      <trkpt lat="50.29289" lon="4.58405">
        <ele>269.925821</ele>
        <time>2024-12-17T11:18:03.000Z</time>
      </trkpt>
      <trkpt lat="50.29289" lon="4.58407">
        <ele>269.919228</ele>
        <time>2024-12-17T11:18:04.000Z</time>
      </trkpt>
      <trkpt lat="50.2929" lon="4.5841">
        <ele>269.91305</ele>
        <time>2024-12-17T11:18:05.000Z</time>
      </trkpt>
      <trkpt lat="50.2929" lon="4.58413">
        <ele>269.907367</ele>
        <time>2024-12-17T11:18:06.000Z</time>
      </trkpt>
      <trkpt lat="50.29289" lon="4.58415">
        <ele>269.902697</ele>
        <time>2024-12-17T11:18:07.000Z</time>
      </trkpt>
      <trkpt lat="50.29289" lon="4.58417">
        <ele>269.897646</ele>
        <time>2024-12-17T11:18:08.000Z</time>
      </trkpt>
      <trkpt lat="50.29289" lon="4.58419">
        <ele>269.892551</ele>
        <time>2024-12-17T11:18:09.000Z</time>
      </trkpt>
      <trkpt lat="50.29288" lon="4.58421">
        <ele>269.887215</ele>
        <time>2024-12-17T11:18:10.000Z</time>
      </trkpt>
      <trkpt lat="50.29288" lon="4.58424">
        <ele>269.881532</ele>
        <time>2024-12-17T11:18:11.000Z</time>
      </trkpt>
      <trkpt lat="50.29288" lon="4.58426">
        <ele>269.876292</ele>
        <time>2024-12-17T11:18:12.000Z</time>
      </trkpt>
      <trkpt lat="50.29288" lon="4.58428">
        <ele>269.871311</ele>
        <time>2024-12-17T11:18:13.000Z</time>
      </trkpt>
      <trkpt lat="50.29287" lon="4.5843">
        <ele>269.867465</ele>
        <time>2024-12-17T11:18:14.000Z</time>
      </trkpt>
      <trkpt lat="50.29287" lon="4.58431">
        <ele>269.86305</ele>
        <time>2024-12-17T11:18:15.000Z</time>
      </trkpt>
      <trkpt lat="50.29286" lon="4.58434">
        <ele>269.857742</ele>
        <time>2024-12-17T11:18:16.000Z</time>
      </trkpt>
      <trkpt lat="50.29285" lon="4.58436">
        <ele>269.851951</ele>
        <time>2024-12-17T11:18:17.000Z</time>
      </trkpt>
      <trkpt lat="50.29285" lon="4.58438">
        <ele>269.846093</ele>
        <time>2024-12-17T11:18:18.000Z</time>
      </trkpt>
      <trkpt lat="50.29285" lon="4.5844">
        <ele>269.841491</ele>
        <time>2024-12-17T11:18:19.000Z</time>
      </trkpt>
      <trkpt lat="50.29285" lon="4.58442">
        <ele>269.836889</ele>
        <time>2024-12-17T11:18:20.000Z</time>
      </trkpt>
      <trkpt lat="50.29285" lon="4.58444">
        <ele>269.831908</ele>
        <time>2024-12-17T11:18:21.000Z</time>
      </trkpt>
      <trkpt lat="50.29285" lon="4.58446">
        <ele>269.827134</ele>
        <time>2024-12-17T11:18:22.000Z</time>
      </trkpt>
      <trkpt lat="50.29285" lon="4.58449">
        <ele>269.821352</ele>
        <time>2024-12-17T11:18:23.000Z</time>
      </trkpt>
      <trkpt lat="50.29285" lon="4.58452">
        <ele>269.815052</ele>
        <time>2024-12-17T11:18:24.000Z</time>
      </trkpt>
      <trkpt lat="50.29284" lon="4.58454">
        <ele>269.808847</ele>
        <time>2024-12-17T11:18:25.000Z</time>
      </trkpt>
      <trkpt lat="50.29283" lon="4.58456">
        <ele>269.803483</ele>
        <time>2024-12-17T11:18:26.000Z</time>
      </trkpt>
      <trkpt lat="50.29282" lon="4.58458">
        <ele>269.797836</ele>
        <time>2024-12-17T11:18:27.000Z</time>
      </trkpt>
      <trkpt lat="50.29282" lon="4.58461">
        <ele>269.792313</ele>
        <time>2024-12-17T11:18:28.000Z</time>
      </trkpt>
      <trkpt lat="50.29282" lon="4.58463">
        <ele>269.787712</ele>
        <time>2024-12-17T11:18:29.000Z</time>
      </trkpt>
      <trkpt lat="50.29282" lon="4.58466">
        <ele>269.780403</ele>
        <time>2024-12-17T11:18:30.000Z</time>
      </trkpt>
      <trkpt lat="50.29281" lon="4.58468">
        <ele>269.774448</ele>
        <time>2024-12-17T11:18:31.000Z</time>
      </trkpt>
      <trkpt lat="50.29281" lon="4.58472">
        <ele>269.765694</ele>
        <time>2024-12-17T11:18:32.000Z</time>
      </trkpt>
      <trkpt lat="50.29281" lon="4.58475">
        <ele>269.758331</ele>
        <time>2024-12-17T11:18:33.000Z</time>
      </trkpt>
      <trkpt lat="50.29281" lon="4.58476">
        <ele>269.756378</ele>
        <time>2024-12-17T11:18:34.000Z</time>
      </trkpt>
      <trkpt lat="50.2928" lon="4.58477">
        <ele>269.753996</ele>
        <time>2024-12-17T11:18:35.000Z</time>
      </trkpt>
      <trkpt lat="50.2928" lon="4.58479">
        <ele>269.748438</ele>
        <time>2024-12-17T11:18:36.000Z</time>
      </trkpt>
      <trkpt lat="50.29279" lon="4.58482">
        <ele>269.741814</ele>
        <time>2024-12-17T11:18:37.000Z</time>
      </trkpt>
      <trkpt lat="50.29278" lon="4.58485">
        <ele>269.734326</ele>
        <time>2024-12-17T11:18:38.000Z</time>
      </trkpt>
      <trkpt lat="50.29278" lon="4.58488">
        <ele>269.727066</ele>
        <time>2024-12-17T11:18:39.000Z</time>
      </trkpt>
      <trkpt lat="50.29277" lon="4.58492">
        <ele>269.717801</ele>
        <time>2024-12-17T11:18:40.000Z</time>
      </trkpt>
      <trkpt lat="50.29276" lon="4.58495">
        <ele>269.70999</ele>
        <time>2024-12-17T11:18:41.000Z</time>
      </trkpt>
      <trkpt lat="50.29276" lon="4.58499">
        <ele>269.702059</ele>
        <time>2024-12-17T11:18:42.000Z</time>
      </trkpt>
      <trkpt lat="50.29276" lon="4.58503">
        <ele>269.692856</ele>
        <time>2024-12-17T11:18:43.000Z</time>
      </trkpt>
      <trkpt lat="50.29275" lon="4.58508">
        <ele>269.68144</ele>
        <time>2024-12-17T11:18:44.000Z</time>
      </trkpt>
      <trkpt lat="50.29276" lon="4.58511">
        <ele>269.674251</ele>
        <time>2024-12-17T11:18:45.000Z</time>
      </trkpt>
      <trkpt lat="50.29276" lon="4.58513">
        <ele>269.668795</ele>
        <time>2024-12-17T11:18:46.000Z</time>
      </trkpt>
      <trkpt lat="50.29276" lon="4.58515">
        <ele>269.66418</ele>
        <time>2024-12-17T11:18:47.000Z</time>
      </trkpt>
      <trkpt lat="50.29277" lon="4.58518">
        <ele>269.657055</ele>
        <time>2024-12-17T11:18:48.000Z</time>
      </trkpt>
      <trkpt lat="50.29277" lon="4.58521">
        <ele>269.650311</ele>
        <time>2024-12-17T11:18:49.000Z</time>
      </trkpt>
      <trkpt lat="50.29277" lon="4.58524">
        <ele>269.643228</ele>
        <time>2024-12-17T11:18:50.000Z</time>
      </trkpt>
      <trkpt lat="50.29277" lon="4.58527">
        <ele>269.635488</ele>
        <time>2024-12-17T11:18:51.000Z</time>
      </trkpt>
      <trkpt lat="50.29278" lon="4.58529">
        <ele>269.629534</ele>
        <time>2024-12-17T11:18:52.000Z</time>
      </trkpt>
      <trkpt lat="50.29279" lon="4.58532">
        <ele>269.622025</ele>
        <time>2024-12-17T11:18:53.000Z</time>
      </trkpt>
      <trkpt lat="50.29278" lon="4.58535">
        <ele>269.615196</ele>
        <time>2024-12-17T11:18:54.000Z</time>
      </trkpt>
      <trkpt lat="50.29278" lon="4.58538">
        <ele>269.609117</ele>
        <time>2024-12-17T11:18:55.000Z</time>
      </trkpt>
      <trkpt lat="50.29277" lon="4.5854">
        <ele>269.604519</ele>
        <time>2024-12-17T11:18:56.000Z</time>
      </trkpt>
      <trkpt lat="50.29276" lon="4.58542">
        <ele>269.596855</ele>
        <time>2024-12-17T11:18:57.000Z</time>
      </trkpt>
      <trkpt lat="50.29277" lon="4.58547">
        <ele>269.587427</ele>
        <time>2024-12-17T11:18:58.000Z</time>
      </trkpt>
      <trkpt lat="50.29277" lon="4.5855">
        <ele>269.580118</ele>
        <time>2024-12-17T11:18:59.000Z</time>
      </trkpt>
      <trkpt lat="50.29277" lon="4.58552">
        <ele>269.576027</ele>
        <time>2024-12-17T11:19:00.000Z</time>
      </trkpt>
      <trkpt lat="50.29276" lon="4.58554">
        <ele>269.569467</ele>
        <time>2024-12-17T11:19:01.000Z</time>
      </trkpt>
      <trkpt lat="50.29275" lon="4.58556">
        <ele>269.564214</ele>
        <time>2024-12-17T11:19:02.000Z</time>
      </trkpt>
      <trkpt lat="50.29274" lon="4.58556">
        <ele>269.561631</ele>
        <time>2024-12-17T11:19:03.000Z</time>
      </trkpt>
      <trkpt lat="50.29273" lon="4.58557">
        <ele>269.557821</ele>
        <time>2024-12-17T11:19:04.000Z</time>
      </trkpt>
      <trkpt lat="50.29272" lon="4.58558">
        <ele>269.552518</ele>
        <time>2024-12-17T11:19:05.000Z</time>
      </trkpt>
      <trkpt lat="50.2927" lon="4.58558">
        <ele>269.546949</ele>
        <time>2024-12-17T11:19:06.000Z</time>
      </trkpt>
      <trkpt lat="50.29269" lon="4.58559">
        <ele>269.553126</ele>
        <time>2024-12-17T11:19:07.000Z</time>
      </trkpt>
      <trkpt lat="50.29268" lon="4.58559">
        <ele>269.565757</ele>
        <time>2024-12-17T11:19:08.000Z</time>
      </trkpt>
      <trkpt lat="50.29267" lon="4.58558">
        <ele>269.57552</ele>
        <time>2024-12-17T11:19:09.000Z</time>
      </trkpt>
      <trkpt lat="50.29266" lon="4.58558">
        <ele>269.58538</ele>
        <time>2024-12-17T11:19:10.000Z</time>
      </trkpt>
      <trkpt lat="50.29265" lon="4.58558">
        <ele>269.595375</ele>
        <time>2024-12-17T11:19:11.000Z</time>
      </trkpt>
      <trkpt lat="50.29264" lon="4.58557">
        <ele>269.603966</ele>
        <time>2024-12-17T11:19:12.000Z</time>
      </trkpt>
      <trkpt lat="50.29263" lon="4.58557">
        <ele>269.612877</ele>
        <time>2024-12-17T11:19:13.000Z</time>
      </trkpt>
      <trkpt lat="50.29262" lon="4.58557">
        <ele>269.623548</ele>
        <time>2024-12-17T11:19:14.000Z</time>
      </trkpt>
      <trkpt lat="50.29261" lon="4.58557">
        <ele>269.633408</ele>
        <time>2024-12-17T11:19:15.000Z</time>
      </trkpt>
      <trkpt lat="50.29258" lon="4.58572">
        <ele>269.730367</ele>
        <time>2024-12-17T11:19:22.000Z</time>
      </trkpt>
      <trkpt lat="50.29259" lon="4.58575">
        <ele>269.747184</ele>
        <time>2024-12-17T11:19:23.000Z</time>
      </trkpt>
      <trkpt lat="50.29258" lon="4.58577">
        <ele>269.762158</ele>
        <time>2024-12-17T11:19:24.000Z</time>
      </trkpt>
      <trkpt lat="50.29258" lon="4.58579">
        <ele>269.776076</ele>
        <time>2024-12-17T11:19:25.000Z</time>
      </trkpt>
      <trkpt lat="50.29258" lon="4.58582">
        <ele>269.792161</ele>
        <time>2024-12-17T11:19:26.000Z</time>
      </trkpt>
      <trkpt lat="50.29258" lon="4.58585">
        <ele>269.808978</ele>
        <time>2024-12-17T11:19:27.000Z</time>
      </trkpt>
      <trkpt lat="50.29259" lon="4.58587">
        <ele>269.824923</ele>
        <time>2024-12-17T11:19:28.000Z</time>
      </trkpt>
      <trkpt lat="50.29259" lon="4.58589">
        <ele>269.84042</ele>
        <time>2024-12-17T11:19:29.000Z</time>
      </trkpt>
      <trkpt lat="50.29259" lon="4.58592">
        <ele>269.853978</ele>
        <time>2024-12-17T11:19:30.000Z</time>
      </trkpt>
      <trkpt lat="50.2926" lon="4.58594">
        <ele>269.86974</ele>
        <time>2024-12-17T11:19:31.000Z</time>
      </trkpt>
      <trkpt lat="50.29261" lon="4.58597">
        <ele>269.891371</ele>
        <time>2024-12-17T11:19:32.000Z</time>
      </trkpt>
      <trkpt lat="50.29262" lon="4.58601">
        <ele>269.918825</ele>
        <time>2024-12-17T11:19:33.000Z</time>
      </trkpt>
      <trkpt lat="50.29262" lon="4.58605">
        <ele>269.944649</ele>
        <time>2024-12-17T11:19:34.000Z</time>
      </trkpt>
      <trkpt lat="50.29262" lon="4.58609">
        <ele>269.968855</ele>
        <time>2024-12-17T11:19:35.000Z</time>
      </trkpt>
      <trkpt lat="50.29262" lon="4.58614">
        <ele>269.996078</ele>
        <time>2024-12-17T11:19:36.000Z</time>
      </trkpt>
      <trkpt lat="50.29262" lon="4.58618">
        <ele>270.022699</ele>
        <time>2024-12-17T11:19:37.000Z</time>
      </trkpt>
      <trkpt lat="50.29261" lon="4.58622">
        <ele>270.047762</ele>
        <time>2024-12-17T11:19:38.000Z</time>
      </trkpt>
      <trkpt lat="50.29262" lon="4.58626">
        <ele>270.072825</ele>
        <time>2024-12-17T11:19:39.000Z</time>
      </trkpt>
      <trkpt lat="50.29263" lon="4.58631">
        <ele>270.102683</ele>
        <time>2024-12-17T11:19:40.000Z</time>
      </trkpt>
      <trkpt lat="50.29263" lon="4.58635">
        <ele>270.128507</ele>
        <time>2024-12-17T11:19:41.000Z</time>
      </trkpt>
      <trkpt lat="50.29264" lon="4.58638">
        <ele>270.150695</ele>
        <time>2024-12-17T11:19:42.000Z</time>
      </trkpt>
      <trkpt lat="50.29264" lon="4.58641">
        <ele>270.169555</ele>
        <time>2024-12-17T11:19:43.000Z</time>
      </trkpt>
      <trkpt lat="50.29264" lon="4.58644">
        <ele>270.189447</ele>
        <time>2024-12-17T11:19:44.000Z</time>
      </trkpt>
      <trkpt lat="50.29264" lon="4.58649">
        <ele>270.217439</ele>
        <time>2024-12-17T11:19:45.000Z</time>
      </trkpt>
      <trkpt lat="50.29263" lon="4.58655">
        <ele>270.255747</ele>
        <time>2024-12-17T11:19:46.000Z</time>
      </trkpt>
      <trkpt lat="50.29263" lon="4.58659">
        <ele>270.284006</ele>
        <time>2024-12-17T11:19:47.000Z</time>
      </trkpt>
      <trkpt lat="50.29263" lon="4.58663">
        <ele>270.310152</ele>
        <time>2024-12-17T11:19:48.000Z</time>
      </trkpt>
      <trkpt lat="50.29263" lon="4.58667">
        <ele>270.331541</ele>
        <time>2024-12-17T11:19:49.000Z</time>
      </trkpt>
      <trkpt lat="50.29265" lon="4.5867">
        <ele>270.354783</ele>
        <time>2024-12-17T11:19:50.000Z</time>
      </trkpt>
      <trkpt lat="50.29266" lon="4.58672">
        <ele>270.373197</ele>
        <time>2024-12-17T11:19:51.000Z</time>
      </trkpt>
      <trkpt lat="50.29266" lon="4.58675">
        <ele>270.39337</ele>
        <time>2024-12-17T11:19:52.000Z</time>
      </trkpt>
      <trkpt lat="50.29267" lon="4.58679">
        <ele>270.414055</ele>
        <time>2024-12-17T11:19:53.000Z</time>
      </trkpt>
      <trkpt lat="50.29268" lon="4.58681">
        <ele>270.436192</ele>
        <time>2024-12-17T11:19:54.000Z</time>
      </trkpt>
      <trkpt lat="50.29269" lon="4.58684">
        <ele>270.454046</ele>
        <time>2024-12-17T11:19:55.000Z</time>
      </trkpt>
      <trkpt lat="50.29268" lon="4.58689">
        <ele>270.487662</ele>
        <time>2024-12-17T11:19:56.000Z</time>
      </trkpt>
      <trkpt lat="50.29267" lon="4.58692">
        <ele>270.511241</ele>
        <time>2024-12-17T11:19:57.000Z</time>
      </trkpt>
      <trkpt lat="50.29265" lon="4.58696">
        <ele>270.535374</ele>
        <time>2024-12-17T11:19:58.000Z</time>
      </trkpt>
      <trkpt lat="50.29265" lon="4.58698">
        <ele>270.550871</ele>
        <time>2024-12-17T11:19:59.000Z</time>
      </trkpt>
      <trkpt lat="50.29265" lon="4.58702">
        <ele>270.571906</ele>
        <time>2024-12-17T11:20:00.000Z</time>
      </trkpt>
      <trkpt lat="50.29266" lon="4.58705">
        <ele>270.594105</ele>
        <time>2024-12-17T11:20:01.000Z</time>
      </trkpt>
      <trkpt lat="50.29267" lon="4.58708">
        <ele>270.611792</ele>
        <time>2024-12-17T11:20:02.000Z</time>
      </trkpt>
      <trkpt lat="50.29268" lon="4.5871">
        <ele>270.6311</ele>
        <time>2024-12-17T11:20:03.000Z</time>
      </trkpt>
      <trkpt lat="50.29269" lon="4.58714">
        <ele>270.653697</ele>
        <time>2024-12-17T11:20:04.000Z</time>
      </trkpt>
      <trkpt lat="50.29269" lon="4.58716">
        <ele>270.67022</ele>
        <time>2024-12-17T11:20:05.000Z</time>
      </trkpt>
      <trkpt lat="50.2927" lon="4.58719">
        <ele>270.685957</ele>
        <time>2024-12-17T11:20:06.000Z</time>
      </trkpt>
      <trkpt lat="50.29269" lon="4.58721">
        <ele>270.701902</ele>
        <time>2024-12-17T11:20:07.000Z</time>
      </trkpt>
      <trkpt lat="50.2927" lon="4.58723">
        <ele>270.711989</ele>
        <time>2024-12-17T11:20:08.000Z</time>
      </trkpt>
      <trkpt lat="50.2927" lon="4.58724">
        <ele>270.720761</ele>
        <time>2024-12-17T11:20:09.000Z</time>
      </trkpt>
      <trkpt lat="50.29271" lon="4.58726">
        <ele>270.736523</ele>
        <time>2024-12-17T11:20:10.000Z</time>
      </trkpt>
      <trkpt lat="50.29273" lon="4.58728">
        <ele>270.764441</ele>
        <time>2024-12-17T11:20:11.000Z</time>
      </trkpt>
      <trkpt lat="50.29277" lon="4.58732">
        <ele>270.809967</ele>
        <time>2024-12-17T11:20:12.000Z</time>
      </trkpt>
      <trkpt lat="50.29279" lon="4.58734">
        <ele>270.827191</ele>
        <time>2024-12-17T11:20:13.000Z</time>
      </trkpt>
      <trkpt lat="50.2928" lon="4.58736">
        <ele>270.846046</ele>
        <time>2024-12-17T11:20:14.000Z</time>
      </trkpt>
      <trkpt lat="50.2928" lon="4.58739">
        <ele>270.862161</ele>
        <time>2024-12-17T11:20:15.000Z</time>
      </trkpt>
      <trkpt lat="50.2928" lon="4.58742">
        <ele>270.879511</ele>
        <time>2024-12-17T11:20:16.000Z</time>
      </trkpt>
      <trkpt lat="50.29279" lon="4.58745">
        <ele>270.899292</ele>
        <time>2024-12-17T11:20:17.000Z</time>
      </trkpt>
      <trkpt lat="50.2928" lon="4.58748">
        <ele>270.91726</ele>
        <time>2024-12-17T11:20:18.000Z</time>
      </trkpt>
      <trkpt lat="50.2928" lon="4.58751">
        <ele>270.935921</ele>
        <time>2024-12-17T11:20:19.000Z</time>
      </trkpt>
      <trkpt lat="50.2928" lon="4.58753">
        <ele>270.952626</ele>
        <time>2024-12-17T11:20:20.000Z</time>
      </trkpt>
      <trkpt lat="50.2928" lon="4.58756">
        <ele>270.970672</ele>
        <time>2024-12-17T11:20:21.000Z</time>
      </trkpt>
      <trkpt lat="50.2928" lon="4.58759">
        <ele>270.985703</ele>
        <time>2024-12-17T11:20:22.000Z</time>
      </trkpt>
      <trkpt lat="50.29281" lon="4.58761">
        <ele>270.99899</ele>
        <time>2024-12-17T11:20:23.000Z</time>
      </trkpt>
      <trkpt lat="50.29281" lon="4.58762">
        <ele>271.00962</ele>
        <time>2024-12-17T11:20:24.000Z</time>
      </trkpt>
      <trkpt lat="50.29281" lon="4.58764">
        <ele>271.021411</ele>
        <time>2024-12-17T11:20:25.000Z</time>
      </trkpt>
      <trkpt lat="50.29282" lon="4.58766">
        <ele>271.031497</ele>
        <time>2024-12-17T11:20:26.000Z</time>
      </trkpt>
      <trkpt lat="50.29282" lon="4.58767">
        <ele>271.042447</ele>
        <time>2024-12-17T11:20:27.000Z</time>
      </trkpt>
      <trkpt lat="50.29281" lon="4.58769">
        <ele>271.057857</ele>
        <time>2024-12-17T11:20:28.000Z</time>
      </trkpt>
      <trkpt lat="50.29279" lon="4.58772">
        <ele>271.081756</ele>
        <time>2024-12-17T11:20:29.000Z</time>
      </trkpt>
      <trkpt lat="50.29279" lon="4.58774">
        <ele>271.09787</ele>
        <time>2024-12-17T11:20:30.000Z</time>
      </trkpt>
      <trkpt lat="50.29279" lon="4.58775">
        <ele>271.102467</ele>
        <time>2024-12-17T11:20:31.000Z</time>
      </trkpt>
      <trkpt lat="50.29279" lon="4.58775">
        <ele>271.107181</ele>
        <time>2024-12-17T11:20:32.000Z</time>
      </trkpt>
      <trkpt lat="50.29279" lon="4.58777">
        <ele>271.118976</ele>
        <time>2024-12-17T11:20:33.000Z</time>
      </trkpt>
      <trkpt lat="50.2928" lon="4.5878">
        <ele>271.139149</ele>
        <time>2024-12-17T11:20:34.000Z</time>
      </trkpt>
      <trkpt lat="50.2928" lon="4.58782">
        <ele>271.151293</ele>
        <time>2024-12-17T11:20:35.000Z</time>
      </trkpt>
      <trkpt lat="50.2928" lon="4.58784">
        <ele>271.162204</ele>
        <time>2024-12-17T11:20:36.000Z</time>
      </trkpt>
      <trkpt lat="50.29281" lon="4.58786">
        <ele>271.17517</ele>
        <time>2024-12-17T11:20:37.000Z</time>
      </trkpt>
      <trkpt lat="50.29281" lon="4.58788">
        <ele>271.189035</ele>
        <time>2024-12-17T11:20:38.000Z</time>
      </trkpt>
      <trkpt lat="50.29282" lon="4.58791">
        <ele>271.205834</ele>
        <time>2024-12-17T11:20:39.000Z</time>
      </trkpt>
      <trkpt lat="50.29282" lon="4.58794">
        <ele>271.229523</ele>
        <time>2024-12-17T11:20:40.000Z</time>
      </trkpt>
      <trkpt lat="50.29283" lon="4.58797">
        <ele>271.24755</ele>
        <time>2024-12-17T11:20:41.000Z</time>
      </trkpt>
      <trkpt lat="50.29283" lon="4.58798">
        <ele>271.253118</ele>
        <time>2024-12-17T11:20:42.000Z</time>
      </trkpt>
      <trkpt lat="50.29283" lon="4.58799">
        <ele>271.260497</ele>
        <time>2024-12-17T11:20:43.000Z</time>
      </trkpt>
      <trkpt lat="50.29284" lon="4.58801">
        <ele>271.274606</ele>
        <time>2024-12-17T11:20:44.000Z</time>
      </trkpt>
      <trkpt lat="50.29284" lon="4.58803">
        <ele>271.283532</ele>
        <time>2024-12-17T11:20:45.000Z</time>
      </trkpt>
      <trkpt lat="50.29285" lon="4.58805">
        <ele>271.270684</ele>
        <time>2024-12-17T11:20:46.000Z</time>
      </trkpt>
      <trkpt lat="50.29285" lon="4.58807">
        <ele>271.257837</ele>
        <time>2024-12-17T11:20:47.000Z</time>
      </trkpt>
      <trkpt lat="50.29286" lon="4.58809">
        <ele>271.242867</ele>
        <time>2024-12-17T11:20:48.000Z</time>
      </trkpt>
      <trkpt lat="50.29286" lon="4.58811">
        <ele>271.229034</ele>
        <time>2024-12-17T11:20:49.000Z</time>
      </trkpt>
      <trkpt lat="50.29287" lon="4.58813">
        <ele>271.212435</ele>
        <time>2024-12-17T11:20:50.000Z</time>
      </trkpt>
      <trkpt lat="50.29288" lon="4.58815">
        <ele>271.197334</ele>
        <time>2024-12-17T11:20:51.000Z</time>
      </trkpt>
      <trkpt lat="50.29288" lon="4.58817">
        <ele>271.182949</ele>
        <time>2024-12-17T11:20:52.000Z</time>
      </trkpt>
      <trkpt lat="50.29289" lon="4.5882">
        <ele>271.164428</ele>
        <time>2024-12-17T11:20:53.000Z</time>
      </trkpt>
      <trkpt lat="50.2929" lon="4.58822">
        <ele>271.148268</ele>
        <time>2024-12-17T11:20:54.000Z</time>
      </trkpt>
      <trkpt lat="50.29291" lon="4.58825">
        <ele>271.125547</ele>
        <time>2024-12-17T11:20:55.000Z</time>
      </trkpt>
      <trkpt lat="50.29291" lon="4.58828">
        <ele>271.105828</ele>
        <time>2024-12-17T11:20:56.000Z</time>
      </trkpt>
      <trkpt lat="50.29291" lon="4.58831">
        <ele>271.082673</ele>
        <time>2024-12-17T11:20:57.000Z</time>
      </trkpt>
      <trkpt lat="50.29291" lon="4.58834">
        <ele>271.062324</ele>
        <time>2024-12-17T11:20:58.000Z</time>
      </trkpt>
      <trkpt lat="50.2929" lon="4.58836">
        <ele>271.04619</ele>
        <time>2024-12-17T11:20:59.000Z</time>
      </trkpt>
      <trkpt lat="50.2929" lon="4.58837">
        <ele>271.042751</ele>
        <time>2024-12-17T11:21:00.000Z</time>
      </trkpt>
      <trkpt lat="50.29272" lon="4.58875">
        <ele>270.730026</ele>
        <time>2024-12-17T11:21:52.000Z</time>
      </trkpt>
      <trkpt lat="50.29269" lon="4.58873">
        <ele>270.697244</ele>
        <time>2024-12-17T11:21:53.000Z</time>
      </trkpt>
      <trkpt lat="50.29266" lon="4.58872">
        <ele>270.665189</ele>
        <time>2024-12-17T11:21:54.000Z</time>
      </trkpt>
      <trkpt lat="50.29262" lon="4.5887">
        <ele>270.630058</ele>
        <time>2024-12-17T11:21:55.000Z</time>
      </trkpt>
      <trkpt lat="50.29259" lon="4.58869">
        <ele>270.594096</ele>
        <time>2024-12-17T11:21:56.000Z</time>
      </trkpt>
      <trkpt lat="50.29256" lon="4.58867">
        <ele>270.560556</ele>
        <time>2024-12-17T11:21:57.000Z</time>
      </trkpt>
      <trkpt lat="50.29253" lon="4.58865">
        <ele>270.525618</ele>
        <time>2024-12-17T11:21:58.000Z</time>
      </trkpt>
      <trkpt lat="50.2925" lon="4.58864">
        <ele>270.494023</ele>
        <time>2024-12-17T11:21:59.000Z</time>
      </trkpt>
      <trkpt lat="50.29247" lon="4.58863">
        <ele>270.463767</ele>
        <time>2024-12-17T11:22:00.000Z</time>
      </trkpt>
      <trkpt lat="50.29244" lon="4.58862">
        <ele>270.436898</ele>
        <time>2024-12-17T11:22:01.000Z</time>
      </trkpt>
      <trkpt lat="50.29242" lon="4.58861">
        <ele>270.411772</ele>
        <time>2024-12-17T11:22:02.000Z</time>
      </trkpt>
      <trkpt lat="50.2924" lon="4.58859">
        <ele>270.38392</ele>
        <time>2024-12-17T11:22:03.000Z</time>
      </trkpt>
      <trkpt lat="50.29237" lon="4.58858">
        <ele>270.356246</ele>
        <time>2024-12-17T11:22:04.000Z</time>
      </trkpt>
      <trkpt lat="50.29235" lon="4.58857">
        <ele>270.330889</ele>
        <time>2024-12-17T11:22:05.000Z</time>
      </trkpt>
      <trkpt lat="50.29232" lon="4.58856">
        <ele>270.304572</ele>
        <time>2024-12-17T11:22:06.000Z</time>
      </trkpt>
      <trkpt lat="50.29229" lon="4.58854">
        <ele>270.27347</ele>
        <time>2024-12-17T11:22:07.000Z</time>
      </trkpt>
      <trkpt lat="50.29227" lon="4.58852">
        <ele>270.244518</ele>
        <time>2024-12-17T11:22:08.000Z</time>
      </trkpt>
      <trkpt lat="50.29224" lon="4.58851">
        <ele>270.215962</ele>
        <time>2024-12-17T11:22:09.000Z</time>
      </trkpt>
      <trkpt lat="50.29222" lon="4.58848">
        <ele>270.186494</ele>
        <time>2024-12-17T11:22:10.000Z</time>
      </trkpt>
      <trkpt lat="50.29219" lon="4.58847">
        <ele>270.158219</ele>
        <time>2024-12-17T11:22:11.000Z</time>
      </trkpt>
      <trkpt lat="50.29217" lon="4.58845">
        <ele>270.132617</ele>
        <time>2024-12-17T11:22:12.000Z</time>
      </trkpt>
      <trkpt lat="50.29215" lon="4.58844">
        <ele>270.106064</ele>
        <time>2024-12-17T11:22:13.000Z</time>
      </trkpt>
      <trkpt lat="50.29212" lon="4.58842">
        <ele>270.079511</ele>
        <time>2024-12-17T11:22:14.000Z</time>
      </trkpt>
      <trkpt lat="50.29209" lon="4.5884">
        <ele>270.047916</ele>
        <time>2024-12-17T11:22:15.000Z</time>
      </trkpt>
      <trkpt lat="50.29206" lon="4.58838">
        <ele>270.015115</ele>
        <time>2024-12-17T11:22:16.000Z</time>
      </trkpt>
      <trkpt lat="50.29204" lon="4.58836">
        <ele>269.98353</ele>
        <time>2024-12-17T11:22:17.000Z</time>
      </trkpt>
      <trkpt lat="50.292" lon="4.58833">
        <ele>269.943063</ele>
        <time>2024-12-17T11:22:18.000Z</time>
      </trkpt>
      <trkpt lat="50.29197" lon="4.58831">
        <ele>269.905742</ele>
        <time>2024-12-17T11:22:19.000Z</time>
      </trkpt>
      <trkpt lat="50.29194" lon="4.58829">
        <ele>269.87249</ele>
        <time>2024-12-17T11:22:20.000Z</time>
      </trkpt>
      <trkpt lat="50.29191" lon="4.58828">
        <ele>269.837768</ele>
        <time>2024-12-17T11:22:21.000Z</time>
      </trkpt>
      <trkpt lat="50.29186" lon="4.58826">
        <ele>269.792032</ele>
        <time>2024-12-17T11:22:22.000Z</time>
      </trkpt>
      <trkpt lat="50.29183" lon="4.58826">
        <ele>269.756016</ele>
        <time>2024-12-17T11:22:23.000Z</time>
      </trkpt>
      <trkpt lat="50.2918" lon="4.58826">
        <ele>269.726038</ele>
        <time>2024-12-17T11:22:24.000Z</time>
      </trkpt>
      <trkpt lat="50.29178" lon="4.58827">
        <ele>269.702831</ele>
        <time>2024-12-17T11:22:25.000Z</time>
      </trkpt>
      <trkpt lat="50.29176" lon="4.58828">
        <ele>269.681049</ele>
        <time>2024-12-17T11:22:26.000Z</time>
      </trkpt>
      <trkpt lat="50.29173" lon="4.58829">
        <ele>269.654733</ele>
        <time>2024-12-17T11:22:27.000Z</time>
      </trkpt>
      <trkpt lat="50.2917" lon="4.58832">
        <ele>269.622541</ele>
        <time>2024-12-17T11:22:28.000Z</time>
      </trkpt>
      <trkpt lat="50.29167" lon="4.58834">
        <ele>269.581803</ele>
        <time>2024-12-17T11:22:29.000Z</time>
      </trkpt>
      <trkpt lat="50.29164" lon="4.58836">
        <ele>269.546107</ele>
        <time>2024-12-17T11:22:30.000Z</time>
      </trkpt>
      <trkpt lat="50.29159" lon="4.58836">
        <ele>269.503795</ele>
        <time>2024-12-17T11:22:31.000Z</time>
      </trkpt>
      <trkpt lat="50.29156" lon="4.58838">
        <ele>269.465731</ele>
        <time>2024-12-17T11:22:32.000Z</time>
      </trkpt>
      <trkpt lat="50.29152" lon="4.58841">
        <ele>269.407743</ele>
        <time>2024-12-17T11:22:33.000Z</time>
      </trkpt>
      <trkpt lat="50.29148" lon="4.58845">
        <ele>269.294861</ele>
        <time>2024-12-17T11:22:34.000Z</time>
      </trkpt>
      <trkpt lat="50.29143" lon="4.58849">
        <ele>269.185445</ele>
        <time>2024-12-17T11:22:35.000Z</time>
      </trkpt>
      <trkpt lat="50.29139" lon="4.58852">
        <ele>269.089157</ele>
        <time>2024-12-17T11:22:36.000Z</time>
      </trkpt>
      <trkpt lat="50.29135" lon="4.58853">
        <ele>268.994566</ele>
        <time>2024-12-17T11:22:37.000Z</time>
      </trkpt>
      <trkpt lat="50.2913" lon="4.58856">
        <ele>268.878586</ele>
        <time>2024-12-17T11:22:38.000Z</time>
      </trkpt>
      <trkpt lat="50.29125" lon="4.5886">
        <ele>268.76781</ele>
        <time>2024-12-17T11:22:39.000Z</time>
      </trkpt>
      <trkpt lat="50.2912" lon="4.58864">
        <ele>268.653821</ele>
        <time>2024-12-17T11:22:40.000Z</time>
      </trkpt>
      <trkpt lat="50.29116" lon="4.58868">
        <ele>268.548666</ele>
        <time>2024-12-17T11:22:41.000Z</time>
      </trkpt>
      <trkpt lat="50.29111" lon="4.5887">
        <ele>268.435366</ele>
        <time>2024-12-17T11:22:42.000Z</time>
      </trkpt>
      <trkpt lat="50.29106" lon="4.58873">
        <ele>268.321444</ele>
        <time>2024-12-17T11:22:43.000Z</time>
      </trkpt>
      <trkpt lat="50.29101" lon="4.58877">
        <ele>268.212629</ele>
        <time>2024-12-17T11:22:44.000Z</time>
      </trkpt>
      <trkpt lat="50.29097" lon="4.58878">
        <ele>268.128546</ele>
        <time>2024-12-17T11:22:45.000Z</time>
      </trkpt>
      <trkpt lat="50.29094" lon="4.5888">
        <ele>268.060268</ele>
        <time>2024-12-17T11:22:46.000Z</time>
      </trkpt>
      <trkpt lat="50.29091" lon="4.58882">
        <ele>267.978973</ele>
        <time>2024-12-17T11:22:47.000Z</time>
      </trkpt>
      <trkpt lat="50.29088" lon="4.58884">
        <ele>267.903185</ele>
        <time>2024-12-17T11:22:48.000Z</time>
      </trkpt>
      <trkpt lat="50.29084" lon="4.58887">
        <ele>267.816899</ele>
        <time>2024-12-17T11:22:49.000Z</time>
      </trkpt>
      <trkpt lat="50.2908" lon="4.58888">
        <ele>267.730395</ele>
        <time>2024-12-17T11:22:50.000Z</time>
      </trkpt>
      <trkpt lat="50.29076" lon="4.5889">
        <ele>267.647018</ele>
        <time>2024-12-17T11:22:51.000Z</time>
      </trkpt>
      <trkpt lat="50.29073" lon="4.58891">
        <ele>267.568983</ele>
        <time>2024-12-17T11:22:52.000Z</time>
      </trkpt>
      <trkpt lat="50.2907" lon="4.58893">
        <ele>267.5031</ele>
        <time>2024-12-17T11:22:53.000Z</time>
      </trkpt>
      <trkpt lat="50.29066" lon="4.58895">
        <ele>267.427011</ele>
        <time>2024-12-17T11:22:54.000Z</time>
      </trkpt>
      <trkpt lat="50.29063" lon="4.58897">
        <ele>267.342545</ele>
        <time>2024-12-17T11:22:55.000Z</time>
      </trkpt>
      <trkpt lat="50.29059" lon="4.58899">
        <ele>267.253878</ele>
        <time>2024-12-17T11:22:56.000Z</time>
      </trkpt>
      <trkpt lat="50.29055" lon="4.58902">
        <ele>267.168354</ele>
        <time>2024-12-17T11:22:57.000Z</time>
      </trkpt>
      <trkpt lat="50.2905" lon="4.58906">
        <ele>267.054322</ele>
        <time>2024-12-17T11:22:58.000Z</time>
      </trkpt>
      <trkpt lat="50.29046" lon="4.58908">
        <ele>266.959656</ele>
        <time>2024-12-17T11:22:59.000Z</time>
      </trkpt>
      <trkpt lat="50.29042" lon="4.5891">
        <ele>266.866995</ele>
        <time>2024-12-17T11:23:00.000Z</time>
      </trkpt>
      <trkpt lat="50.29039" lon="4.58912">
        <ele>266.796306</ele>
        <time>2024-12-17T11:23:01.000Z</time>
      </trkpt>
      <trkpt lat="50.29035" lon="4.58913">
        <ele>266.721153</ele>
        <time>2024-12-17T11:23:02.000Z</time>
      </trkpt>
      <trkpt lat="50.29031" lon="4.58916">
        <ele>266.621539</ele>
        <time>2024-12-17T11:23:03.000Z</time>
      </trkpt>
      <trkpt lat="50.29026" lon="4.58919">
        <ele>266.508882</ele>
        <time>2024-12-17T11:23:04.000Z</time>
      </trkpt>
      <trkpt lat="50.29022" lon="4.58922">
        <ele>266.409268</ele>
        <time>2024-12-17T11:23:05.000Z</time>
      </trkpt>
      <trkpt lat="50.29017" lon="4.58926">
        <ele>266.293576</ele>
        <time>2024-12-17T11:23:06.000Z</time>
      </trkpt>
      <trkpt lat="50.29013" lon="4.5893">
        <ele>266.184761</ele>
        <time>2024-12-17T11:23:07.000Z</time>
      </trkpt>
      <trkpt lat="50.29008" lon="4.58933">
        <ele>266.075718</ele>
        <time>2024-12-17T11:23:08.000Z</time>
      </trkpt>
      <trkpt lat="50.29004" lon="4.58936">
        <ele>265.976635</ele>
        <time>2024-12-17T11:23:09.000Z</time>
      </trkpt>
      <trkpt lat="50.29" lon="4.58938">
        <ele>265.887702</ele>
        <time>2024-12-17T11:23:10.000Z</time>
      </trkpt>
      <trkpt lat="50.28995" lon="4.5894">
        <ele>265.793069</ele>
        <time>2024-12-17T11:23:11.000Z</time>
      </trkpt>
      <trkpt lat="50.28991" lon="4.58944">
        <ele>265.689267</ele>
        <time>2024-12-17T11:23:12.000Z</time>
      </trkpt>
      <trkpt lat="50.28988" lon="4.58946">
        <ele>265.61628</ele>
        <time>2024-12-17T11:23:13.000Z</time>
      </trkpt>
      <trkpt lat="50.28986" lon="4.58947">
        <ele>265.59394</ele>
        <time>2024-12-17T11:23:14.000Z</time>
      </trkpt>
      <trkpt lat="50.28983" lon="4.58948">
        <ele>265.572694</ele>
        <time>2024-12-17T11:23:15.000Z</time>
      </trkpt>
      <trkpt lat="50.28981" lon="4.5895">
        <ele>265.551083</ele>
        <time>2024-12-17T11:23:16.000Z</time>
      </trkpt>
      <trkpt lat="50.28978" lon="4.58951">
        <ele>265.526175</ele>
        <time>2024-12-17T11:23:17.000Z</time>
      </trkpt>
      <trkpt lat="50.28973" lon="4.58953">
        <ele>265.490895</ele>
        <time>2024-12-17T11:23:18.000Z</time>
      </trkpt>
      <trkpt lat="50.2897" lon="4.58956">
        <ele>265.461648</ele>
        <time>2024-12-17T11:23:19.000Z</time>
      </trkpt>
      <trkpt lat="50.28966" lon="4.58957">
        <ele>265.430489</ele>
        <time>2024-12-17T11:23:20.000Z</time>
      </trkpt>
      <trkpt lat="50.28963" lon="4.58959">
        <ele>265.403449</ele>
        <time>2024-12-17T11:23:21.000Z</time>
      </trkpt>
      <trkpt lat="50.28959" lon="4.58961">
        <ele>265.37299</ele>
        <time>2024-12-17T11:23:22.000Z</time>
      </trkpt>
      <trkpt lat="50.28955" lon="4.58963">
        <ele>265.337386</ele>
        <time>2024-12-17T11:23:23.000Z</time>
      </trkpt>
      <trkpt lat="50.28952" lon="4.58965">
        <ele>265.307947</ele>
        <time>2024-12-17T11:23:24.000Z</time>
      </trkpt>
      <trkpt lat="50.28949" lon="4.58967">
        <ele>265.282161</ele>
        <time>2024-12-17T11:23:25.000Z</time>
      </trkpt>
      <trkpt lat="50.28947" lon="4.58969">
        <ele>265.261542</ele>
        <time>2024-12-17T11:23:26.000Z</time>
      </trkpt>
      <trkpt lat="50.28945" lon="4.5897">
        <ele>265.248102</ele>
        <time>2024-12-17T11:23:27.000Z</time>
      </trkpt>
      <trkpt lat="50.28944" lon="4.5897">
        <ele>265.243273</ele>
        <time>2024-12-17T11:23:28.000Z</time>
      </trkpt>
      <trkpt lat="50.28944" lon="4.5897">
        <ele>265.237672</ele>
        <time>2024-12-17T11:23:29.000Z</time>
      </trkpt>
      <trkpt lat="50.28943" lon="4.58969">
        <ele>265.230089</ele>
        <time>2024-12-17T11:23:30.000Z</time>
      </trkpt>
      <trkpt lat="50.28942" lon="4.58968">
        <ele>265.220594</ele>
        <time>2024-12-17T11:23:31.000Z</time>
      </trkpt>
      <trkpt lat="50.28935" lon="4.58959">
        <ele>265.144301</ele>
        <time>2024-12-17T11:23:39.000Z</time>
      </trkpt>
      <trkpt lat="50.28934" lon="4.58955">
        <ele>265.126256</ele>
        <time>2024-12-17T11:23:40.000Z</time>
      </trkpt>
      <trkpt lat="50.28933" lon="4.58952">
        <ele>265.108212</ele>
        <time>2024-12-17T11:23:41.000Z</time>
      </trkpt>
      <trkpt lat="50.28932" lon="4.58948">
        <ele>265.087972</ele>
        <time>2024-12-17T11:23:42.000Z</time>
      </trkpt>
      <trkpt lat="50.28931" lon="4.58945">
        <ele>265.066962</ele>
        <time>2024-12-17T11:23:43.000Z</time>
      </trkpt>
      <trkpt lat="50.2893" lon="4.5894">
        <ele>265.044315</ele>
        <time>2024-12-17T11:23:44.000Z</time>
      </trkpt>
      <trkpt lat="50.28929" lon="4.58936">
        <ele>265.021182</ele>
        <time>2024-12-17T11:23:45.000Z</time>
      </trkpt>
      <trkpt lat="50.28928" lon="4.58931">
        <ele>264.996072</ele>
        <time>2024-12-17T11:23:46.000Z</time>
      </trkpt>
      <trkpt lat="50.28927" lon="4.58927">
        <ele>264.969889</ele>
        <time>2024-12-17T11:23:47.000Z</time>
      </trkpt>
      <trkpt lat="50.28926" lon="4.58922">
        <ele>264.9443</ele>
        <time>2024-12-17T11:23:48.000Z</time>
      </trkpt>
      <trkpt lat="50.28925" lon="4.58917">
        <ele>264.917176</ele>
        <time>2024-12-17T11:23:49.000Z</time>
      </trkpt>
      <trkpt lat="50.28923" lon="4.58912">
        <ele>264.88987</ele>
        <time>2024-12-17T11:23:50.000Z</time>
      </trkpt>
      <trkpt lat="50.28922" lon="4.58907">
        <ele>264.862085</ele>
        <time>2024-12-17T11:23:51.000Z</time>
      </trkpt>
      <trkpt lat="50.28921" lon="4.58902">
        <ele>264.832857</ele>
        <time>2024-12-17T11:23:52.000Z</time>
      </trkpt>
      <trkpt lat="50.2892" lon="4.58896">
        <ele>264.801915</ele>
        <time>2024-12-17T11:23:53.000Z</time>
      </trkpt>
      <trkpt lat="50.28918" lon="4.5889">
        <ele>264.770696</ele>
        <time>2024-12-17T11:23:54.000Z</time>
      </trkpt>
      <trkpt lat="50.28917" lon="4.58884">
        <ele>264.738041</ele>
        <time>2024-12-17T11:23:55.000Z</time>
      </trkpt>
      <trkpt lat="50.28916" lon="4.58879">
        <ele>264.708314</ele>
        <time>2024-12-17T11:23:56.000Z</time>
      </trkpt>
      <trkpt lat="50.28915" lon="4.58873">
        <ele>264.67908</ele>
        <time>2024-12-17T11:23:57.000Z</time>
      </trkpt>
      <trkpt lat="50.28914" lon="4.58868">
        <ele>264.650334</ele>
        <time>2024-12-17T11:23:58.000Z</time>
      </trkpt>
      <trkpt lat="50.28913" lon="4.58863">
        <ele>264.623299</ele>
        <time>2024-12-17T11:23:59.000Z</time>
      </trkpt>
      <trkpt lat="50.28912" lon="4.58858">
        <ele>264.596514</ele>
        <time>2024-12-17T11:24:00.000Z</time>
      </trkpt>
      <trkpt lat="50.28911" lon="4.58853">
        <ele>264.568752</ele>
        <time>2024-12-17T11:24:01.000Z</time>
      </trkpt>
      <trkpt lat="50.28909" lon="4.58847">
        <ele>264.53925</ele>
        <time>2024-12-17T11:24:02.000Z</time>
      </trkpt>
      <trkpt lat="50.28908" lon="4.58842">
        <ele>264.510022</ele>
        <time>2024-12-17T11:24:03.000Z</time>
      </trkpt>
      <trkpt lat="50.28907" lon="4.58836">
        <ele>264.478802</ele>
        <time>2024-12-17T11:24:04.000Z</time>
      </trkpt>
      <trkpt lat="50.28906" lon="4.5883">
        <ele>264.448121</ele>
        <time>2024-12-17T11:24:05.000Z</time>
      </trkpt>
      <trkpt lat="50.28904" lon="4.58824">
        <ele>264.415465</ele>
        <time>2024-12-17T11:24:06.000Z</time>
      </trkpt>
      <trkpt lat="50.28903" lon="4.58818">
        <ele>264.381847</ele>
        <time>2024-12-17T11:24:07.000Z</time>
      </trkpt>
      <trkpt lat="50.28901" lon="4.58812">
        <ele>264.347476</ele>
        <time>2024-12-17T11:24:08.000Z</time>
      </trkpt>
      <trkpt lat="50.289" lon="4.58806">
        <ele>264.313583</ele>
        <time>2024-12-17T11:24:09.000Z</time>
      </trkpt>
      <trkpt lat="50.28898" lon="4.58799">
        <ele>264.278448</ele>
        <time>2024-12-17T11:24:10.000Z</time>
      </trkpt>
      <trkpt lat="50.28897" lon="4.58793">
        <ele>264.244263</ele>
        <time>2024-12-17T11:24:11.000Z</time>
      </trkpt>
      <trkpt lat="50.28895" lon="4.58787">
        <ele>264.211389</ele>
        <time>2024-12-17T11:24:12.000Z</time>
      </trkpt>
      <trkpt lat="50.28894" lon="4.58781">
        <ele>264.178621</ele>
        <time>2024-12-17T11:24:13.000Z</time>
      </trkpt>
      <trkpt lat="50.28892" lon="4.58776">
        <ele>264.113337</ele>
        <time>2024-12-17T11:24:14.000Z</time>
      </trkpt>
      <trkpt lat="50.28891" lon="4.5877">
        <ele>264.046658</ele>
        <time>2024-12-17T11:24:15.000Z</time>
      </trkpt>
      <trkpt lat="50.2889" lon="4.58765">
        <ele>263.980533</ele>
        <time>2024-12-17T11:24:16.000Z</time>
      </trkpt>
      <trkpt lat="50.28889" lon="4.5876">
        <ele>263.913013</ele>
        <time>2024-12-17T11:24:17.000Z</time>
      </trkpt>
      <trkpt lat="50.28887" lon="4.58755">
        <ele>263.852451</ele>
        <time>2024-12-17T11:24:18.000Z</time>
      </trkpt>
      <trkpt lat="50.28886" lon="4.5875">
        <ele>263.79204</ele>
        <time>2024-12-17T11:24:19.000Z</time>
      </trkpt>
      <trkpt lat="50.28886" lon="4.58746">
        <ele>263.73384</ele>
        <time>2024-12-17T11:24:20.000Z</time>
      </trkpt>
      <trkpt lat="50.28885" lon="4.58741">
        <ele>263.672822</ele>
        <time>2024-12-17T11:24:21.000Z</time>
      </trkpt>
      <trkpt lat="50.28883" lon="4.58736">
        <ele>263.608414</ele>
        <time>2024-12-17T11:24:22.000Z</time>
      </trkpt>
      <trkpt lat="50.28882" lon="4.5873">
        <ele>263.543436</ele>
        <time>2024-12-17T11:24:23.000Z</time>
      </trkpt>
      <trkpt lat="50.28881" lon="4.58725">
        <ele>263.473894</ele>
        <time>2024-12-17T11:24:24.000Z</time>
      </trkpt>
      <trkpt lat="50.2888" lon="4.58719">
        <ele>263.401236</ele>
        <time>2024-12-17T11:24:25.000Z</time>
      </trkpt>
      <trkpt lat="50.28878" lon="4.58714">
        <ele>263.330395</ele>
        <time>2024-12-17T11:24:26.000Z</time>
      </trkpt>
      <trkpt lat="50.28877" lon="4.58708">
        <ele>263.258083</ele>
        <time>2024-12-17T11:24:27.000Z</time>
      </trkpt>
      <trkpt lat="50.28875" lon="4.58703">
        <ele>263.18679</ele>
        <time>2024-12-17T11:24:28.000Z</time>
      </trkpt>
      <trkpt lat="50.28874" lon="4.58697">
        <ele>263.112113</ele>
        <time>2024-12-17T11:24:29.000Z</time>
      </trkpt>
      <trkpt lat="50.28873" lon="4.58691">
        <ele>263.039164</ele>
        <time>2024-12-17T11:24:30.000Z</time>
      </trkpt>
      <trkpt lat="50.28872" lon="4.58685">
        <ele>262.96222</ele>
        <time>2024-12-17T11:24:31.000Z</time>
      </trkpt>
      <trkpt lat="50.2887" lon="4.58679">
        <ele>262.884664</ele>
        <time>2024-12-17T11:24:32.000Z</time>
      </trkpt>
      <trkpt lat="50.28869" lon="4.58673">
        <ele>262.804851</ele>
        <time>2024-12-17T11:24:33.000Z</time>
      </trkpt>
      <trkpt lat="50.28867" lon="4.58666">
        <ele>262.725523</ele>
        <time>2024-12-17T11:24:34.000Z</time>
      </trkpt>
      <trkpt lat="50.28866" lon="4.5866">
        <ele>262.64883</ele>
        <time>2024-12-17T11:24:35.000Z</time>
      </trkpt>
      <trkpt lat="50.28864" lon="4.58655">
        <ele>262.573821</ele>
        <time>2024-12-17T11:24:36.000Z</time>
      </trkpt>
      <trkpt lat="50.28862" lon="4.58649">
        <ele>262.497951</ele>
        <time>2024-12-17T11:24:37.000Z</time>
      </trkpt>
      <trkpt lat="50.2886" lon="4.58643">
        <ele>262.419415</ele>
        <time>2024-12-17T11:24:38.000Z</time>
      </trkpt>
      <trkpt lat="50.28859" lon="4.58637">
        <ele>262.339602</ele>
        <time>2024-12-17T11:24:39.000Z</time>
      </trkpt>
      <trkpt lat="50.28858" lon="4.58631">
        <ele>262.259244</ele>
        <time>2024-12-17T11:24:40.000Z</time>
      </trkpt>
      <trkpt lat="50.28856" lon="4.58624">
        <ele>262.177167</ele>
        <time>2024-12-17T11:24:41.000Z</time>
      </trkpt>
      <trkpt lat="50.28855" lon="4.58618">
        <ele>262.094473</ele>
        <time>2024-12-17T11:24:42.000Z</time>
      </trkpt>
      <trkpt lat="50.28853" lon="4.58611">
        <ele>262.011261</ele>
        <time>2024-12-17T11:24:43.000Z</time>
      </trkpt>
      <trkpt lat="50.28852" lon="4.58604">
        <ele>261.926311</ele>
        <time>2024-12-17T11:24:44.000Z</time>
      </trkpt>
      <trkpt lat="50.2885" lon="4.58597">
        <ele>261.839685</ele>
        <time>2024-12-17T11:24:45.000Z</time>
      </trkpt>
      <trkpt lat="50.28849" lon="4.5859">
        <ele>261.753607</ele>
        <time>2024-12-17T11:24:46.000Z</time>
      </trkpt>
      <trkpt lat="50.28848" lon="4.58583">
        <ele>261.665262</ele>
        <time>2024-12-17T11:24:47.000Z</time>
      </trkpt>
      <trkpt lat="50.28846" lon="4.58576">
        <ele>261.578036</ele>
        <time>2024-12-17T11:24:48.000Z</time>
      </trkpt>
      <trkpt lat="50.28845" lon="4.58569">
        <ele>261.490268</ele>
        <time>2024-12-17T11:24:49.000Z</time>
      </trkpt>
      <trkpt lat="50.28843" lon="4.58562">
        <ele>261.399542</ele>
        <time>2024-12-17T11:24:50.000Z</time>
      </trkpt>
      <trkpt lat="50.28842" lon="4.58555">
        <ele>261.307694</ele>
        <time>2024-12-17T11:24:51.000Z</time>
      </trkpt>
      <trkpt lat="50.2884" lon="4.58548">
        <ele>261.216479</ele>
        <time>2024-12-17T11:24:52.000Z</time>
      </trkpt>
      <trkpt lat="50.28838" lon="4.58541">
        <ele>261.128646</ele>
        <time>2024-12-17T11:24:53.000Z</time>
      </trkpt>
      <trkpt lat="50.28837" lon="4.58534">
        <ele>261.045434</ele>
        <time>2024-12-17T11:24:54.000Z</time>
      </trkpt>
      <trkpt lat="50.28836" lon="4.58528">
        <ele>260.96449</ele>
        <time>2024-12-17T11:24:55.000Z</time>
      </trkpt>
      <trkpt lat="50.28834" lon="4.58522">
        <ele>260.883545</ele>
        <time>2024-12-17T11:24:56.000Z</time>
      </trkpt>
      <trkpt lat="50.28833" lon="4.58515">
        <ele>260.801323</ele>
        <time>2024-12-17T11:24:57.000Z</time>
      </trkpt>
      <trkpt lat="50.28831" lon="4.58509">
        <ele>260.717201</ele>
        <time>2024-12-17T11:24:58.000Z</time>
      </trkpt>
      <trkpt lat="50.2883" lon="4.58502">
        <ele>260.631982</ele>
        <time>2024-12-17T11:24:59.000Z</time>
      </trkpt>
      <trkpt lat="50.28828" lon="4.58496">
        <ele>260.544333</ele>
        <time>2024-12-17T11:25:00.000Z</time>
      </trkpt>
      <trkpt lat="50.28827" lon="4.58489">
        <ele>260.454323</ele>
        <time>2024-12-17T11:25:01.000Z</time>
      </trkpt>
      <trkpt lat="50.28826" lon="4.58482">
        <ele>260.361912</ele>
        <time>2024-12-17T11:25:02.000Z</time>
      </trkpt>
      <trkpt lat="50.28824" lon="4.58475">
        <ele>260.268891</ele>
        <time>2024-12-17T11:25:03.000Z</time>
      </trkpt>
      <trkpt lat="50.28822" lon="4.58468">
        <ele>260.17285</ele>
        <time>2024-12-17T11:25:04.000Z</time>
      </trkpt>
      <trkpt lat="50.28821" lon="4.5846">
        <ele>260.074457</ele>
        <time>2024-12-17T11:25:05.000Z</time>
      </trkpt>
      <trkpt lat="50.28819" lon="4.58453">
        <ele>259.974932</ele>
        <time>2024-12-17T11:25:06.000Z</time>
      </trkpt>
      <trkpt lat="50.28818" lon="4.58445">
        <ele>259.871239</ele>
        <time>2024-12-17T11:25:07.000Z</time>
      </trkpt>
      <trkpt lat="50.28816" lon="4.58437">
        <ele>259.768738</ele>
        <time>2024-12-17T11:25:08.000Z</time>
      </trkpt>
      <trkpt lat="50.28814" lon="4.58429">
        <ele>259.664973</ele>
        <time>2024-12-17T11:25:09.000Z</time>
      </trkpt>
      <trkpt lat="50.28812" lon="4.58421">
        <ele>259.560672</ele>
        <time>2024-12-17T11:25:10.000Z</time>
      </trkpt>
      <trkpt lat="50.28811" lon="4.58413">
        <ele>259.454591</ele>
        <time>2024-12-17T11:25:11.000Z</time>
      </trkpt>
      <trkpt lat="50.28809" lon="4.58405">
        <ele>259.346106</ele>
        <time>2024-12-17T11:25:12.000Z</time>
      </trkpt>
      <trkpt lat="50.28807" lon="4.58397">
        <ele>259.235571</ele>
        <time>2024-12-17T11:25:13.000Z</time>
      </trkpt>
      <trkpt lat="50.28805" lon="4.58389">
        <ele>259.127086</ele>
        <time>2024-12-17T11:25:14.000Z</time>
      </trkpt>
      <trkpt lat="50.28803" lon="4.5838">
        <ele>259.010721</ele>
        <time>2024-12-17T11:25:15.000Z</time>
      </trkpt>
      <trkpt lat="50.28801" lon="4.58371">
        <ele>258.89511</ele>
        <time>2024-12-17T11:25:16.000Z</time>
      </trkpt>
      <trkpt lat="50.28799" lon="4.58362">
        <ele>258.77405</ele>
        <time>2024-12-17T11:25:17.000Z</time>
      </trkpt>
      <trkpt lat="50.28797" lon="4.58353">
        <ele>258.65299</ele>
        <time>2024-12-17T11:25:18.000Z</time>
      </trkpt>
      <trkpt lat="50.28795" lon="4.58344">
        <ele>258.533272</ele>
        <time>2024-12-17T11:25:19.000Z</time>
      </trkpt>
      <trkpt lat="50.28792" lon="4.58336">
        <ele>258.416997</ele>
        <time>2024-12-17T11:25:20.000Z</time>
      </trkpt>
      <trkpt lat="50.2879" lon="4.58328">
        <ele>258.303793</ele>
        <time>2024-12-17T11:25:21.000Z</time>
      </trkpt>
      <trkpt lat="50.28786" lon="4.5832">
        <ele>258.194054</ele>
        <time>2024-12-17T11:25:22.000Z</time>
      </trkpt>
      <trkpt lat="50.28783" lon="4.58312">
        <ele>258.080055</ele>
        <time>2024-12-17T11:25:23.000Z</time>
      </trkpt>
      <trkpt lat="50.28781" lon="4.58304">
        <ele>257.965516</ele>
        <time>2024-12-17T11:25:24.000Z</time>
      </trkpt>
      <trkpt lat="50.28778" lon="4.58296">
        <ele>257.850384</ele>
        <time>2024-12-17T11:25:25.000Z</time>
      </trkpt>
      <trkpt lat="50.28776" lon="4.58287">
        <ele>257.734696</ele>
        <time>2024-12-17T11:25:26.000Z</time>
      </trkpt>
      <trkpt lat="50.28775" lon="4.58278">
        <ele>257.619656</ele>
        <time>2024-12-17T11:25:27.000Z</time>
      </trkpt>
      <trkpt lat="50.28773" lon="4.5827">
        <ele>257.5058</ele>
        <time>2024-12-17T11:25:28.000Z</time>
      </trkpt>
      <trkpt lat="50.28771" lon="4.58261">
        <ele>257.392569</ele>
        <time>2024-12-17T11:25:29.000Z</time>
      </trkpt>
      <trkpt lat="50.28769" lon="4.58253">
        <ele>257.283572</ele>
        <time>2024-12-17T11:25:30.000Z</time>
      </trkpt>
      <trkpt lat="50.28767" lon="4.58245">
        <ele>257.387358</ele>
        <time>2024-12-17T11:25:31.000Z</time>
      </trkpt>
      <trkpt lat="50.28765" lon="4.58236">
        <ele>257.493986</ele>
        <time>2024-12-17T11:25:32.000Z</time>
      </trkpt>
      <trkpt lat="50.28763" lon="4.58228">
        <ele>257.598894</ele>
        <time>2024-12-17T11:25:33.000Z</time>
      </trkpt>
      <trkpt lat="50.28762" lon="4.5822">
        <ele>257.701064</ele>
        <time>2024-12-17T11:25:34.000Z</time>
      </trkpt>
      <trkpt lat="50.2876" lon="4.58211">
        <ele>257.803143</ele>
        <time>2024-12-17T11:25:35.000Z</time>
      </trkpt>
      <trkpt lat="50.28758" lon="4.58203">
        <ele>257.905808</ele>
        <time>2024-12-17T11:25:36.000Z</time>
      </trkpt>
      <trkpt lat="50.28756" lon="4.58195">
        <ele>258.010413</ele>
        <time>2024-12-17T11:25:37.000Z</time>
      </trkpt>
      <trkpt lat="50.28754" lon="4.58187">
        <ele>258.110841</ele>
        <time>2024-12-17T11:25:38.000Z</time>
      </trkpt>
      <trkpt lat="50.28752" lon="4.58179">
        <ele>258.209685</ele>
        <time>2024-12-17T11:25:39.000Z</time>
      </trkpt>
      <trkpt lat="50.28751" lon="4.58171">
        <ele>258.30556</ele>
        <time>2024-12-17T11:25:40.000Z</time>
      </trkpt>
      <trkpt lat="50.28749" lon="4.58164">
        <ele>258.394107</ele>
        <time>2024-12-17T11:25:41.000Z</time>
      </trkpt>
      <trkpt lat="50.28748" lon="4.58158">
        <ele>258.478801</ele>
        <time>2024-12-17T11:25:42.000Z</time>
      </trkpt>
      <trkpt lat="50.28746" lon="4.58151">
        <ele>258.557301</ele>
        <time>2024-12-17T11:25:43.000Z</time>
      </trkpt>
      <trkpt lat="50.28745" lon="4.58145">
        <ele>258.633442</ele>
        <time>2024-12-17T11:25:44.000Z</time>
      </trkpt>
      <trkpt lat="50.28743" lon="4.5814">
        <ele>258.704647</ele>
        <time>2024-12-17T11:25:45.000Z</time>
      </trkpt>
      <trkpt lat="50.28742" lon="4.58134">
        <ele>258.774085</ele>
        <time>2024-12-17T11:25:46.000Z</time>
      </trkpt>
      <trkpt lat="50.28741" lon="4.58129">
        <ele>258.843523</ele>
        <time>2024-12-17T11:25:47.000Z</time>
      </trkpt>
      <trkpt lat="50.28739" lon="4.58123">
        <ele>258.911852</ele>
        <time>2024-12-17T11:25:48.000Z</time>
      </trkpt>
      <trkpt lat="50.28738" lon="4.58118">
        <ele>258.98049</ele>
        <time>2024-12-17T11:25:49.000Z</time>
      </trkpt>
      <trkpt lat="50.28736" lon="4.58113">
        <ele>259.052375</ele>
        <time>2024-12-17T11:25:50.000Z</time>
      </trkpt>
      <trkpt lat="50.28733" lon="4.58109">
        <ele>259.124011</ele>
        <time>2024-12-17T11:25:51.000Z</time>
      </trkpt>
      <trkpt lat="50.2873" lon="4.58106">
        <ele>259.192479</ele>
        <time>2024-12-17T11:25:52.000Z</time>
      </trkpt>
      <trkpt lat="50.28726" lon="4.58105">
        <ele>259.25888</ele>
        <time>2024-12-17T11:25:53.000Z</time>
      </trkpt>
      <trkpt lat="50.28723" lon="4.58105">
        <ele>259.323915</ele>
        <time>2024-12-17T11:25:54.000Z</time>
      </trkpt>
      <trkpt lat="50.28719" lon="4.58104">
        <ele>259.388951</ele>
        <time>2024-12-17T11:25:55.000Z</time>
      </trkpt>
      <trkpt lat="50.28716" lon="4.58104">
        <ele>259.445162</ele>
        <time>2024-12-17T11:25:56.000Z</time>
      </trkpt>
      <trkpt lat="50.28713" lon="4.58103">
        <ele>259.497268</ele>
        <time>2024-12-17T11:25:57.000Z</time>
      </trkpt>
      <trkpt lat="50.28711" lon="4.58104">
        <ele>259.545683</ele>
        <time>2024-12-17T11:25:58.000Z</time>
      </trkpt>
      <trkpt lat="50.28708" lon="4.58104">
        <ele>259.593925</ele>
        <time>2024-12-17T11:25:59.000Z</time>
      </trkpt>
      <trkpt lat="50.28705" lon="4.58104">
        <ele>259.645829</ele>
        <time>2024-12-17T11:26:00.000Z</time>
      </trkpt>
      <trkpt lat="50.28703" lon="4.58104">
        <ele>259.695992</ele>
        <time>2024-12-17T11:26:01.000Z</time>
      </trkpt>
      <trkpt lat="50.287" lon="4.58103">
        <ele>259.746378</ele>
        <time>2024-12-17T11:26:02.000Z</time>
      </trkpt>
      <trkpt lat="50.28697" lon="4.58103">
        <ele>259.800121</ele>
        <time>2024-12-17T11:26:03.000Z</time>
      </trkpt>
      <trkpt lat="50.28694" lon="4.58103">
        <ele>259.852065</ele>
        <time>2024-12-17T11:26:04.000Z</time>
      </trkpt>
      <trkpt lat="50.28691" lon="4.58103">
        <ele>259.903969</ele>
        <time>2024-12-17T11:26:05.000Z</time>
      </trkpt>
      <trkpt lat="50.28689" lon="4.58103">
        <ele>259.955913</ele>
        <time>2024-12-17T11:26:06.000Z</time>
      </trkpt>
      <trkpt lat="50.28686" lon="4.58103">
        <ele>260.007857</ele>
        <time>2024-12-17T11:26:07.000Z</time>
      </trkpt>
      <trkpt lat="50.28683" lon="4.58103">
        <ele>260.059761</ele>
        <time>2024-12-17T11:26:08.000Z</time>
      </trkpt>
      <trkpt lat="50.2868" lon="4.58103">
        <ele>260.11537</ele>
        <time>2024-12-17T11:26:09.000Z</time>
      </trkpt>
      <trkpt lat="50.28677" lon="4.58103">
        <ele>260.17282</ele>
        <time>2024-12-17T11:26:10.000Z</time>
      </trkpt>
      <trkpt lat="50.28674" lon="4.58103">
        <ele>260.23027</ele>
        <time>2024-12-17T11:26:11.000Z</time>
      </trkpt>
      <trkpt lat="50.28671" lon="4.58103">
        <ele>260.287769</ele>
        <time>2024-12-17T11:26:12.000Z</time>
      </trkpt>
      <trkpt lat="50.28667" lon="4.58103">
        <ele>260.347083</ele>
        <time>2024-12-17T11:26:13.000Z</time>
      </trkpt>
      <trkpt lat="50.28664" lon="4.58103">
        <ele>260.406387</ele>
        <time>2024-12-17T11:26:14.000Z</time>
      </trkpt>
      <trkpt lat="50.28661" lon="4.58103">
        <ele>260.467543</ele>
        <time>2024-12-17T11:26:15.000Z</time>
      </trkpt>
      <trkpt lat="50.28658" lon="4.58103">
        <ele>260.528699</ele>
        <time>2024-12-17T11:26:16.000Z</time>
      </trkpt>
      <trkpt lat="50.28655" lon="4.58103">
        <ele>260.584308</ele>
        <time>2024-12-17T11:26:17.000Z</time>
      </trkpt>
      <trkpt lat="50.28652" lon="4.58103">
        <ele>260.671543</ele>
        <time>2024-12-17T11:26:18.000Z</time>
      </trkpt>
      <trkpt lat="50.28648" lon="4.58104">
        <ele>260.794475</ele>
        <time>2024-12-17T11:26:19.000Z</time>
      </trkpt>
      <trkpt lat="50.28645" lon="4.58103">
        <ele>260.917408</ele>
        <time>2024-12-17T11:26:20.000Z</time>
      </trkpt>
      <trkpt lat="50.28642" lon="4.58103">
        <ele>261.032496</ele>
        <time>2024-12-17T11:26:21.000Z</time>
      </trkpt>
      <trkpt lat="50.2864" lon="4.58103">
        <ele>261.147473</ele>
        <time>2024-12-17T11:26:22.000Z</time>
      </trkpt>
      <trkpt lat="50.28637" lon="4.58104">
        <ele>261.258744</ele>
        <time>2024-12-17T11:26:23.000Z</time>
      </trkpt>
      <trkpt lat="50.28634" lon="4.58104">
        <ele>261.361951</ele>
        <time>2024-12-17T11:26:24.000Z</time>
      </trkpt>
      <trkpt lat="50.28632" lon="4.58104">
        <ele>261.461069</ele>
        <time>2024-12-17T11:26:25.000Z</time>
      </trkpt>
      <trkpt lat="50.28629" lon="4.58104">
        <ele>261.54833</ele>
        <time>2024-12-17T11:26:26.000Z</time>
      </trkpt>
      <trkpt lat="50.28627" lon="4.58104">
        <ele>261.63559</ele>
        <time>2024-12-17T11:26:27.000Z</time>
      </trkpt>
      <trkpt lat="50.28625" lon="4.58104">
        <ele>261.718849</ele>
        <time>2024-12-17T11:26:28.000Z</time>
      </trkpt>
      <trkpt lat="50.28623" lon="4.58104">
        <ele>261.802147</ele>
        <time>2024-12-17T11:26:29.000Z</time>
      </trkpt>
      <trkpt lat="50.28621" lon="4.58104">
        <ele>261.881481</ele>
        <time>2024-12-17T11:26:30.000Z</time>
      </trkpt>
      <trkpt lat="50.28619" lon="4.58104">
        <ele>261.968852</ele>
        <time>2024-12-17T11:26:31.000Z</time>
      </trkpt>
      <trkpt lat="50.28617" lon="4.58104">
        <ele>262.052265</ele>
        <time>2024-12-17T11:26:32.000Z</time>
      </trkpt>
      <trkpt lat="50.28615" lon="4.58104">
        <ele>262.139489</ele>
        <time>2024-12-17T11:26:33.000Z</time>
      </trkpt>
      <trkpt lat="50.28612" lon="4.58103">
        <ele>262.230993</ele>
        <time>2024-12-17T11:26:34.000Z</time>
      </trkpt>
      <trkpt lat="50.2861" lon="4.58103">
        <ele>262.322217</ele>
        <time>2024-12-17T11:26:35.000Z</time>
      </trkpt>
      <trkpt lat="50.28608" lon="4.58103">
        <ele>262.413546</ele>
        <time>2024-12-17T11:26:36.000Z</time>
      </trkpt>
      <trkpt lat="50.28605" lon="4.58104">
        <ele>262.5011</ele>
        <time>2024-12-17T11:26:37.000Z</time>
      </trkpt>
      <trkpt lat="50.28603" lon="4.58104">
        <ele>262.588361</ele>
        <time>2024-12-17T11:26:38.000Z</time>
      </trkpt>
      <trkpt lat="50.28601" lon="4.58104">
        <ele>262.667696</ele>
        <time>2024-12-17T11:26:39.000Z</time>
      </trkpt>
      <trkpt lat="50.28599" lon="4.58103">
        <ele>262.751301</ele>
        <time>2024-12-17T11:26:40.000Z</time>
      </trkpt>
      <trkpt lat="50.28597" lon="4.58103">
        <ele>262.830635</ele>
        <time>2024-12-17T11:26:41.000Z</time>
      </trkpt>
      <trkpt lat="50.28595" lon="4.58103">
        <ele>262.913933</ele>
        <time>2024-12-17T11:26:42.000Z</time>
      </trkpt>
      <trkpt lat="50.28593" lon="4.58103">
        <ele>262.997192</ele>
        <time>2024-12-17T11:26:43.000Z</time>
      </trkpt>
      <trkpt lat="50.28591" lon="4.58103">
        <ele>263.076527</ele>
        <time>2024-12-17T11:26:44.000Z</time>
      </trkpt>
      <trkpt lat="50.28589" lon="4.58103">
        <ele>263.159824</ele>
        <time>2024-12-17T11:26:45.000Z</time>
      </trkpt>
      <trkpt lat="50.28587" lon="4.58103">
        <ele>263.247195</ele>
        <time>2024-12-17T11:26:46.000Z</time>
      </trkpt>
      <trkpt lat="50.28585" lon="4.58103">
        <ele>263.330492</ele>
        <time>2024-12-17T11:26:47.000Z</time>
      </trkpt>
      <trkpt lat="50.28582" lon="4.58103">
        <ele>263.413751</ele>
        <time>2024-12-17T11:26:48.000Z</time>
      </trkpt>
      <trkpt lat="50.2858" lon="4.58103">
        <ele>263.497164</ele>
        <time>2024-12-17T11:26:49.000Z</time>
      </trkpt>
      <trkpt lat="50.28578" lon="4.58103">
        <ele>263.580577</ele>
        <time>2024-12-17T11:26:50.000Z</time>
      </trkpt>
      <trkpt lat="50.28576" lon="4.58103">
        <ele>263.655907</ele>
        <time>2024-12-17T11:26:51.000Z</time>
      </trkpt>
      <trkpt lat="50.28574" lon="4.58103">
        <ele>263.739166</ele>
        <time>2024-12-17T11:26:52.000Z</time>
      </trkpt>
      <trkpt lat="50.28572" lon="4.58103">
        <ele>263.822425</ele>
        <time>2024-12-17T11:26:53.000Z</time>
      </trkpt>
      <trkpt lat="50.2857" lon="4.58103">
        <ele>263.913754</ele>
        <time>2024-12-17T11:26:54.000Z</time>
      </trkpt>
      <trkpt lat="50.28568" lon="4.58103">
        <ele>263.99321</ele>
        <time>2024-12-17T11:26:55.000Z</time>
      </trkpt>
      <trkpt lat="50.28566" lon="4.58103">
        <ele>264.076508</ele>
        <time>2024-12-17T11:26:56.000Z</time>
      </trkpt>
      <trkpt lat="50.28564" lon="4.58103">
        <ele>264.159921</ele>
        <time>2024-12-17T11:26:57.000Z</time>
      </trkpt>
      <trkpt lat="50.28562" lon="4.58103">
        <ele>264.24318</ele>
        <time>2024-12-17T11:26:58.000Z</time>
      </trkpt>
      <trkpt lat="50.28559" lon="4.58104">
        <ele>264.326593</ele>
        <time>2024-12-17T11:26:59.000Z</time>
      </trkpt>
      <trkpt lat="50.28557" lon="4.58103">
        <ele>264.413853</ele>
        <time>2024-12-17T11:27:00.000Z</time>
      </trkpt>
      <trkpt lat="50.28555" lon="4.58103">
        <ele>264.497458</ele>
        <time>2024-12-17T11:27:01.000Z</time>
      </trkpt>
      <trkpt lat="50.28553" lon="4.58103">
        <ele>264.588682</ele>
        <time>2024-12-17T11:27:02.000Z</time>
      </trkpt>
      <trkpt lat="50.28551" lon="4.58103">
        <ele>264.667976</ele>
        <time>2024-12-17T11:27:03.000Z</time>
      </trkpt>
      <trkpt lat="50.28549" lon="4.58103">
        <ele>264.751274</ele>
        <time>2024-12-17T11:27:04.000Z</time>
      </trkpt>
      <trkpt lat="50.28547" lon="4.58103">
        <ele>264.830608</ele>
        <time>2024-12-17T11:27:05.000Z</time>
      </trkpt>
      <trkpt lat="50.28545" lon="4.58103">
        <ele>264.917832</ele>
        <time>2024-12-17T11:27:06.000Z</time>
      </trkpt>
      <trkpt lat="50.28542" lon="4.58103">
        <ele>265.001091</ele>
        <time>2024-12-17T11:27:07.000Z</time>
      </trkpt>
      <trkpt lat="50.2854" lon="4.58103">
        <ele>265.084504</ele>
        <time>2024-12-17T11:27:08.000Z</time>
      </trkpt>
      <trkpt lat="50.28538" lon="4.58104">
        <ele>265.172314</ele>
        <time>2024-12-17T11:27:09.000Z</time>
      </trkpt>
      <trkpt lat="50.28536" lon="4.58104">
        <ele>265.25177</ele>
        <time>2024-12-17T11:27:10.000Z</time>
      </trkpt>
      <trkpt lat="50.28534" lon="4.58104">
        <ele>265.331105</ele>
        <time>2024-12-17T11:27:11.000Z</time>
      </trkpt>
      <trkpt lat="50.28532" lon="4.58103">
        <ele>265.406817</ele>
        <time>2024-12-17T11:27:12.000Z</time>
      </trkpt>
      <trkpt lat="50.2853" lon="4.58103">
        <ele>265.490691</ele>
        <time>2024-12-17T11:27:13.000Z</time>
      </trkpt>
      <trkpt lat="50.28528" lon="4.58103">
        <ele>265.574296</ele>
        <time>2024-12-17T11:27:14.000Z</time>
      </trkpt>
      <trkpt lat="50.28526" lon="4.58103">
        <ele>265.657709</ele>
        <time>2024-12-17T11:27:15.000Z</time>
      </trkpt>
      <trkpt lat="50.28524" lon="4.58103">
        <ele>265.737043</ele>
        <time>2024-12-17T11:27:16.000Z</time>
      </trkpt>
      <trkpt lat="50.28522" lon="4.58103">
        <ele>265.820302</ele>
        <time>2024-12-17T11:27:17.000Z</time>
      </trkpt>
      <trkpt lat="50.2852" lon="4.58103">
        <ele>265.899637</ele>
        <time>2024-12-17T11:27:18.000Z</time>
      </trkpt>
      <trkpt lat="50.28518" lon="4.58103">
        <ele>265.98305</ele>
        <time>2024-12-17T11:27:19.000Z</time>
      </trkpt>
      <trkpt lat="50.28516" lon="4.58103">
        <ele>266.062344</ele>
        <time>2024-12-17T11:27:20.000Z</time>
      </trkpt>
      <trkpt lat="50.28514" lon="4.58103">
        <ele>266.145642</ele>
        <time>2024-12-17T11:27:21.000Z</time>
      </trkpt>
      <trkpt lat="50.28512" lon="4.58102">
        <ele>266.225098</ele>
        <time>2024-12-17T11:27:22.000Z</time>
      </trkpt>
      <trkpt lat="50.2851" lon="4.58103">
        <ele>266.296508</ele>
        <time>2024-12-17T11:27:23.000Z</time>
      </trkpt>
      <trkpt lat="50.28508" lon="4.58103">
        <ele>266.375802</ele>
        <time>2024-12-17T11:27:24.000Z</time>
      </trkpt>
      <trkpt lat="50.28506" lon="4.58103">
        <ele>266.456102</ele>
        <time>2024-12-17T11:27:25.000Z</time>
      </trkpt>
      <trkpt lat="50.28504" lon="4.58104">
        <ele>266.528582</ele>
        <time>2024-12-17T11:27:26.000Z</time>
      </trkpt>
      <trkpt lat="50.28502" lon="4.58104">
        <ele>266.600126</ele>
        <time>2024-12-17T11:27:27.000Z</time>
      </trkpt>
      <trkpt lat="50.285" lon="4.58104">
        <ele>266.671671</ele>
        <time>2024-12-17T11:27:28.000Z</time>
      </trkpt>
      <trkpt lat="50.28499" lon="4.58103">
        <ele>266.747043</ele>
        <time>2024-12-17T11:27:29.000Z</time>
      </trkpt>
      <trkpt lat="50.28497" lon="4.58104">
        <ele>266.815623</ele>
        <time>2024-12-17T11:27:30.000Z</time>
      </trkpt>
      <trkpt lat="50.28495" lon="4.58104">
        <ele>266.887168</ele>
        <time>2024-12-17T11:27:31.000Z</time>
      </trkpt>
      <trkpt lat="50.28493" lon="4.58104">
        <ele>266.954995</ele>
        <time>2024-12-17T11:27:32.000Z</time>
      </trkpt>
      <trkpt lat="50.28491" lon="4.58104">
        <ele>267.034451</ele>
        <time>2024-12-17T11:27:33.000Z</time>
      </trkpt>
      <trkpt lat="50.2849" lon="4.58103">
        <ele>267.106532</ele>
        <time>2024-12-17T11:27:34.000Z</time>
      </trkpt>
      <trkpt lat="50.28488" lon="4.58103">
        <ele>267.181861</ele>
        <time>2024-12-17T11:27:35.000Z</time>
      </trkpt>
      <trkpt lat="50.28486" lon="4.58103">
        <ele>267.257191</ele>
        <time>2024-12-17T11:27:36.000Z</time>
      </trkpt>
      <trkpt lat="50.28484" lon="4.58103">
        <ele>267.3286</ele>
        <time>2024-12-17T11:27:37.000Z</time>
      </trkpt>
      <trkpt lat="50.28482" lon="4.58103">
        <ele>267.408056</ele>
        <time>2024-12-17T11:27:38.000Z</time>
      </trkpt>
      <trkpt lat="50.2848" lon="4.58104">
        <ele>267.495867</ele>
        <time>2024-12-17T11:27:39.000Z</time>
      </trkpt>
      <trkpt lat="50.28478" lon="4.58104">
        <ele>267.579164</ele>
        <time>2024-12-17T11:27:40.000Z</time>
      </trkpt>
      <trkpt lat="50.28476" lon="4.58104">
        <ele>267.658822</ele>
        <time>2024-12-17T11:27:41.000Z</time>
      </trkpt>
      <trkpt lat="50.28474" lon="4.58104">
        <ele>267.738278</ele>
        <time>2024-12-17T11:27:42.000Z</time>
      </trkpt>
      <trkpt lat="50.28472" lon="4.58105">
        <ele>267.762992</ele>
        <time>2024-12-17T11:27:43.000Z</time>
      </trkpt>
      <trkpt lat="50.28469" lon="4.58106">
        <ele>267.783485</ele>
        <time>2024-12-17T11:27:44.000Z</time>
      </trkpt>
      <trkpt lat="50.28467" lon="4.58106">
        <ele>267.802629</ele>
        <time>2024-12-17T11:27:45.000Z</time>
      </trkpt>
      <trkpt lat="50.28465" lon="4.58106">
        <ele>267.820663</ele>
        <time>2024-12-17T11:27:46.000Z</time>
      </trkpt>
      <trkpt lat="50.28463" lon="4.58106">
        <ele>267.839729</ele>
        <time>2024-12-17T11:27:47.000Z</time>
      </trkpt>
      <trkpt lat="50.28461" lon="4.58105">
        <ele>267.858082</ele>
        <time>2024-12-17T11:27:48.000Z</time>
      </trkpt>
      <trkpt lat="50.28459" lon="4.58104">
        <ele>267.874668</ele>
        <time>2024-12-17T11:27:49.000Z</time>
      </trkpt>
      <trkpt lat="50.28458" lon="4.58104">
        <ele>267.88895</ele>
        <time>2024-12-17T11:27:50.000Z</time>
      </trkpt>
      <trkpt lat="50.28456" lon="4.58103">
        <ele>267.90684</ele>
        <time>2024-12-17T11:27:51.000Z</time>
      </trkpt>
      <trkpt lat="50.28454" lon="4.58102">
        <ele>267.92243</ele>
        <time>2024-12-17T11:27:52.000Z</time>
      </trkpt>
      <trkpt lat="50.28453" lon="4.58102">
        <ele>267.938693</ele>
        <time>2024-12-17T11:27:53.000Z</time>
      </trkpt>
      <trkpt lat="50.28451" lon="4.58102">
        <ele>267.955826</ele>
        <time>2024-12-17T11:27:54.000Z</time>
      </trkpt>
      <trkpt lat="50.28449" lon="4.58102">
        <ele>267.972988</ele>
        <time>2024-12-17T11:27:55.000Z</time>
      </trkpt>
      <trkpt lat="50.28447" lon="4.58103">
        <ele>267.990198</ele>
        <time>2024-12-17T11:27:56.000Z</time>
      </trkpt>
      <trkpt lat="50.28445" lon="4.58103">
        <ele>268.005692</ele>
        <time>2024-12-17T11:27:57.000Z</time>
      </trkpt>
      <trkpt lat="50.28443" lon="4.58103">
        <ele>268.021185</ele>
        <time>2024-12-17T11:27:58.000Z</time>
      </trkpt>
      <trkpt lat="50.28442" lon="4.58104">
        <ele>268.03757</ele>
        <time>2024-12-17T11:27:59.000Z</time>
      </trkpt>
      <trkpt lat="50.2844" lon="4.58104">
        <ele>268.054703</ele>
        <time>2024-12-17T11:28:00.000Z</time>
      </trkpt>
      <trkpt lat="50.28438" lon="4.58104">
        <ele>268.07281</ele>
        <time>2024-12-17T11:28:01.000Z</time>
      </trkpt>
      <trkpt lat="50.28436" lon="4.58103">
        <ele>268.091163</ele>
        <time>2024-12-17T11:28:02.000Z</time>
      </trkpt>
      <trkpt lat="50.28434" lon="4.58103">
        <ele>268.110124</ele>
        <time>2024-12-17T11:28:03.000Z</time>
      </trkpt>
      <trkpt lat="50.28432" lon="4.58103">
        <ele>268.128149</ele>
        <time>2024-12-17T11:28:04.000Z</time>
      </trkpt>
      <trkpt lat="50.2843" lon="4.58103">
        <ele>268.146183</ele>
        <time>2024-12-17T11:28:05.000Z</time>
      </trkpt>
      <trkpt lat="50.28428" lon="4.58102">
        <ele>268.163461</ele>
        <time>2024-12-17T11:28:06.000Z</time>
      </trkpt>
      <trkpt lat="50.28426" lon="4.58102">
        <ele>268.179693</ele>
        <time>2024-12-17T11:28:07.000Z</time>
      </trkpt>
      <trkpt lat="50.28424" lon="4.58102">
        <ele>268.196855</ele>
        <time>2024-12-17T11:28:08.000Z</time>
      </trkpt>
      <trkpt lat="50.28422" lon="4.58103">
        <ele>268.214018</ele>
        <time>2024-12-17T11:28:09.000Z</time>
      </trkpt>
      <trkpt lat="50.28421" lon="4.58103">
        <ele>268.22862</ele>
        <time>2024-12-17T11:28:10.000Z</time>
      </trkpt>
      <trkpt lat="50.28419" lon="4.58103">
        <ele>268.242151</ele>
        <time>2024-12-17T11:28:11.000Z</time>
      </trkpt>
      <trkpt lat="50.28418" lon="4.58103">
        <ele>268.255093</ele>
        <time>2024-12-17T11:28:12.000Z</time>
      </trkpt>
      <trkpt lat="50.28416" lon="4.58103">
        <ele>268.266809</ele>
        <time>2024-12-17T11:28:13.000Z</time>
      </trkpt>
      <trkpt lat="50.28415" lon="4.58102">
        <ele>268.278581</ele>
        <time>2024-12-17T11:28:14.000Z</time>
      </trkpt>
      <trkpt lat="50.28414" lon="4.58102">
        <ele>268.290646</ele>
        <time>2024-12-17T11:28:15.000Z</time>
      </trkpt>
      <trkpt lat="50.28412" lon="4.58102">
        <ele>268.304177</ele>
        <time>2024-12-17T11:28:16.000Z</time>
      </trkpt>
      <trkpt lat="50.28411" lon="4.58102">
        <ele>268.316912</ele>
        <time>2024-12-17T11:28:17.000Z</time>
      </trkpt>
      <trkpt lat="50.28409" lon="4.58103">
        <ele>268.329582</ele>
        <time>2024-12-17T11:28:18.000Z</time>
      </trkpt>
      <trkpt lat="50.28408" lon="4.58102">
        <ele>268.343112</ele>
        <time>2024-12-17T11:28:19.000Z</time>
      </trkpt>
      <trkpt lat="50.28406" lon="4.58103">
        <ele>268.356741</ele>
        <time>2024-12-17T11:28:20.000Z</time>
      </trkpt>
      <trkpt lat="50.28405" lon="4.58103">
        <ele>268.369411</ele>
        <time>2024-12-17T11:28:21.000Z</time>
      </trkpt>
      <trkpt lat="50.28403" lon="4.58103">
        <ele>268.38383</ele>
        <time>2024-12-17T11:28:22.000Z</time>
      </trkpt>
      <trkpt lat="50.28402" lon="4.58103">
        <ele>268.396461</ele>
        <time>2024-12-17T11:28:23.000Z</time>
      </trkpt>
      <trkpt lat="50.28401" lon="4.58103">
        <ele>268.409992</ele>
        <time>2024-12-17T11:28:24.000Z</time>
      </trkpt>
      <trkpt lat="50.28399" lon="4.58103">
        <ele>268.42362</ele>
        <time>2024-12-17T11:28:25.000Z</time>
      </trkpt>
      <trkpt lat="50.28397" lon="4.58102">
        <ele>268.438325</ele>
        <time>2024-12-17T11:28:26.000Z</time>
      </trkpt>
      <trkpt lat="50.28396" lon="4.58102">
        <ele>268.453657</ele>
        <time>2024-12-17T11:28:27.000Z</time>
      </trkpt>
      <trkpt lat="50.28394" lon="4.58102">
        <ele>268.468978</ele>
        <time>2024-12-17T11:28:28.000Z</time>
      </trkpt>
      <trkpt lat="50.28392" lon="4.58102">
        <ele>268.484299</ele>
        <time>2024-12-17T11:28:29.000Z</time>
      </trkpt>
      <trkpt lat="50.28391" lon="4.58102">
        <ele>268.500531</ele>
        <time>2024-12-17T11:28:30.000Z</time>
      </trkpt>
      <trkpt lat="50.28389" lon="4.58102">
        <ele>268.516764</ele>
        <time>2024-12-17T11:28:31.000Z</time>
      </trkpt>
      <trkpt lat="50.28387" lon="4.58102">
        <ele>268.532986</ele>
        <time>2024-12-17T11:28:32.000Z</time>
      </trkpt>
      <trkpt lat="50.28385" lon="4.58102">
        <ele>268.548404</ele>
        <time>2024-12-17T11:28:33.000Z</time>
      </trkpt>
      <trkpt lat="50.28384" lon="4.58102">
        <ele>268.563007</ele>
        <time>2024-12-17T11:28:34.000Z</time>
      </trkpt>
      <trkpt lat="50.28382" lon="4.58102">
        <ele>268.578338</ele>
        <time>2024-12-17T11:28:35.000Z</time>
      </trkpt>
      <trkpt lat="50.2838" lon="4.58102">
        <ele>268.59277</ele>
        <time>2024-12-17T11:28:36.000Z</time>
      </trkpt>
      <trkpt lat="50.28379" lon="4.58102">
        <ele>268.604612</ele>
        <time>2024-12-17T11:28:37.000Z</time>
      </trkpt>
      <trkpt lat="50.28378" lon="4.58103">
        <ele>268.615966</ele>
        <time>2024-12-17T11:28:38.000Z</time>
      </trkpt>
      <trkpt lat="50.28376" lon="4.58103">
        <ele>268.629788</ele>
        <time>2024-12-17T11:28:39.000Z</time>
      </trkpt>
      <trkpt lat="50.28375" lon="4.58103">
        <ele>268.64602</ele>
        <time>2024-12-17T11:28:40.000Z</time>
      </trkpt>
      <trkpt lat="50.28373" lon="4.58103">
        <ele>268.663298</ele>
        <time>2024-12-17T11:28:41.000Z</time>
      </trkpt>
      <trkpt lat="50.2837" lon="4.58102">
        <ele>268.683333</ele>
        <time>2024-12-17T11:28:42.000Z</time>
      </trkpt>
      <trkpt lat="50.28368" lon="4.58102">
        <ele>268.702399</ele>
        <time>2024-12-17T11:28:43.000Z</time>
      </trkpt>
      <trkpt lat="50.28366" lon="4.58102">
        <ele>268.723135</ele>
        <time>2024-12-17T11:28:44.000Z</time>
      </trkpt>
      <trkpt lat="50.28364" lon="4.58102">
        <ele>268.744765</ele>
        <time>2024-12-17T11:28:45.000Z</time>
      </trkpt>
      <trkpt lat="50.28361" lon="4.58102">
        <ele>268.765493</ele>
        <time>2024-12-17T11:28:46.000Z</time>
      </trkpt>
      <trkpt lat="50.28359" lon="4.58102">
        <ele>268.787131</ele>
        <time>2024-12-17T11:28:47.000Z</time>
      </trkpt>
      <trkpt lat="50.28356" lon="4.58102">
        <ele>268.810591</ele>
        <time>2024-12-17T11:28:48.000Z</time>
      </trkpt>
      <trkpt lat="50.28354" lon="4.58102">
        <ele>268.834986</ele>
        <time>2024-12-17T11:28:49.000Z</time>
      </trkpt>
      <trkpt lat="50.28351" lon="4.58103">
        <ele>268.85938</ele>
        <time>2024-12-17T11:28:50.000Z</time>
      </trkpt>
      <trkpt lat="50.28348" lon="4.58103">
        <ele>268.885516</ele>
        <time>2024-12-17T11:28:51.000Z</time>
      </trkpt>
      <trkpt lat="50.28345" lon="4.58103">
        <ele>268.913461</ele>
        <time>2024-12-17T11:28:52.000Z</time>
      </trkpt>
      <trkpt lat="50.28342" lon="4.58103">
        <ele>268.943201</ele>
        <time>2024-12-17T11:28:53.000Z</time>
      </trkpt>
      <trkpt lat="50.28338" lon="4.58103">
        <ele>268.973865</ele>
        <time>2024-12-17T11:28:54.000Z</time>
      </trkpt>
      <trkpt lat="50.28335" lon="4.58103">
        <ele>269.004529</ele>
        <time>2024-12-17T11:28:55.000Z</time>
      </trkpt>
      <trkpt lat="50.28332" lon="4.58103">
        <ele>269.03427</ele>
        <time>2024-12-17T11:28:56.000Z</time>
      </trkpt>
      <trkpt lat="50.28328" lon="4.58103">
        <ele>269.06401</ele>
        <time>2024-12-17T11:28:57.000Z</time>
      </trkpt>
      <trkpt lat="50.28325" lon="4.58103">
        <ele>269.094674</ele>
        <time>2024-12-17T11:28:58.000Z</time>
      </trkpt>
      <trkpt lat="50.28321" lon="4.58104">
        <ele>269.126265</ele>
        <time>2024-12-17T11:28:59.000Z</time>
      </trkpt>
      <trkpt lat="50.28318" lon="4.58104">
        <ele>269.156056</ele>
        <time>2024-12-17T11:29:00.000Z</time>
      </trkpt>
      <trkpt lat="50.28315" lon="4.58104">
        <ele>269.185802</ele>
        <time>2024-12-17T11:29:01.000Z</time>
      </trkpt>
      <trkpt lat="50.28311" lon="4.58103">
        <ele>269.217392</ele>
        <time>2024-12-17T11:29:02.000Z</time>
      </trkpt>
      <trkpt lat="50.28308" lon="4.58103">
        <ele>269.248957</ele>
        <time>2024-12-17T11:29:03.000Z</time>
      </trkpt>
      <trkpt lat="50.28304" lon="4.58103">
        <ele>269.280505</ele>
        <time>2024-12-17T11:29:04.000Z</time>
      </trkpt>
      <trkpt lat="50.28301" lon="4.58103">
        <ele>269.311169</ele>
        <time>2024-12-17T11:29:05.000Z</time>
      </trkpt>
      <trkpt lat="50.28297" lon="4.58103">
        <ele>269.343619</ele>
        <time>2024-12-17T11:29:06.000Z</time>
      </trkpt>
      <trkpt lat="50.28294" lon="4.58103">
        <ele>269.348432</ele>
        <time>2024-12-17T11:29:07.000Z</time>
      </trkpt>
      <trkpt lat="50.2829" lon="4.58103">
        <ele>269.263953</ele>
        <time>2024-12-17T11:29:08.000Z</time>
      </trkpt>
      <trkpt lat="50.28286" lon="4.58103">
        <ele>269.177114</ele>
        <time>2024-12-17T11:29:09.000Z</time>
      </trkpt>
      <trkpt lat="50.28283" lon="4.58103">
        <ele>269.092582</ele>
        <time>2024-12-17T11:29:10.000Z</time>
      </trkpt>
      <trkpt lat="50.28279" lon="4.58103">
        <ele>269.003397</ele>
        <time>2024-12-17T11:29:11.000Z</time>
      </trkpt>
      <trkpt lat="50.28275" lon="4.58103">
        <ele>268.909519</ele>
        <time>2024-12-17T11:29:12.000Z</time>
      </trkpt>
      <trkpt lat="50.28271" lon="4.58103">
        <ele>268.818</ele>
        <time>2024-12-17T11:29:13.000Z</time>
      </trkpt>
      <trkpt lat="50.28267" lon="4.58103">
        <ele>268.726468</ele>
        <time>2024-12-17T11:29:14.000Z</time>
      </trkpt>
      <trkpt lat="50.28263" lon="4.58103">
        <ele>268.630244</ele>
        <time>2024-12-17T11:29:15.000Z</time>
      </trkpt>
      <trkpt lat="50.28259" lon="4.58103">
        <ele>268.531685</ele>
        <time>2024-12-17T11:29:16.000Z</time>
      </trkpt>
      <trkpt lat="50.28255" lon="4.58103">
        <ele>268.433126</ele>
        <time>2024-12-17T11:29:17.000Z</time>
      </trkpt>
      <trkpt lat="50.2825" lon="4.58103">
        <ele>268.332176</ele>
        <time>2024-12-17T11:29:18.000Z</time>
      </trkpt>
      <trkpt lat="50.28246" lon="4.58104">
        <ele>268.23087</ele>
        <time>2024-12-17T11:29:19.000Z</time>
      </trkpt>
      <trkpt lat="50.28242" lon="4.58105">
        <ele>268.128856</ele>
        <time>2024-12-17T11:29:20.000Z</time>
      </trkpt>
      <trkpt lat="50.28238" lon="4.58107">
        <ele>268.027621</ele>
        <time>2024-12-17T11:29:21.000Z</time>
      </trkpt>
      <trkpt lat="50.28234" lon="4.5811">
        <ele>267.919895</ele>
        <time>2024-12-17T11:29:22.000Z</time>
      </trkpt>
      <trkpt lat="50.2823" lon="4.58114">
        <ele>267.808502</ele>
        <time>2024-12-17T11:29:23.000Z</time>
      </trkpt>
      <trkpt lat="50.28226" lon="4.58119">
        <ele>267.704034</ele>
        <time>2024-12-17T11:29:24.000Z</time>
      </trkpt>
      <trkpt lat="50.28224" lon="4.58125">
        <ele>267.597692</ele>
        <time>2024-12-17T11:29:25.000Z</time>
      </trkpt>
      <trkpt lat="50.28223" lon="4.58132">
        <ele>267.488198</ele>
        <time>2024-12-17T11:29:26.000Z</time>
      </trkpt>
      <trkpt lat="50.28221" lon="4.58139">
        <ele>267.380105</ele>
        <time>2024-12-17T11:29:27.000Z</time>
      </trkpt>
      <trkpt lat="50.28221" lon="4.58146">
        <ele>267.272994</ele>
        <time>2024-12-17T11:29:28.000Z</time>
      </trkpt>
      <trkpt lat="50.28221" lon="4.58153">
        <ele>267.167792</ele>
        <time>2024-12-17T11:29:29.000Z</time>
      </trkpt>
      <trkpt lat="50.2822" lon="4.5816">
        <ele>267.067214</ele>
        <time>2024-12-17T11:29:30.000Z</time>
      </trkpt>
      <trkpt lat="50.2822" lon="4.58167">
        <ele>266.963747</ele>
        <time>2024-12-17T11:29:31.000Z</time>
      </trkpt>
      <trkpt lat="50.2822" lon="4.58174">
        <ele>266.858754</ele>
        <time>2024-12-17T11:29:32.000Z</time>
      </trkpt>
      <trkpt lat="50.2822" lon="4.58181">
        <ele>266.750789</ele>
        <time>2024-12-17T11:29:33.000Z</time>
      </trkpt>
      <trkpt lat="50.2822" lon="4.58188">
        <ele>266.641323</ele>
        <time>2024-12-17T11:29:34.000Z</time>
      </trkpt>
      <trkpt lat="50.2822" lon="4.58195">
        <ele>266.536331</ele>
        <time>2024-12-17T11:29:35.000Z</time>
      </trkpt>
      <trkpt lat="50.28221" lon="4.58202">
        <ele>266.435616</ele>
        <time>2024-12-17T11:29:36.000Z</time>
      </trkpt>
      <trkpt lat="50.28221" lon="4.58209">
        <ele>266.332334</ele>
        <time>2024-12-17T11:29:37.000Z</time>
      </trkpt>
      <trkpt lat="50.28222" lon="4.58215">
        <ele>266.227914</ele>
        <time>2024-12-17T11:29:38.000Z</time>
      </trkpt>
      <trkpt lat="50.28222" lon="4.58222">
        <ele>266.127199</ele>
        <time>2024-12-17T11:29:39.000Z</time>
      </trkpt>
      <trkpt lat="50.28223" lon="4.58229">
        <ele>266.027981</ele>
        <time>2024-12-17T11:29:40.000Z</time>
      </trkpt>
      <trkpt lat="50.28223" lon="4.58235">
        <ele>265.933046</ele>
        <time>2024-12-17T11:29:41.000Z</time>
      </trkpt>
      <trkpt lat="50.28223" lon="4.58241">
        <ele>265.841545</ele>
        <time>2024-12-17T11:29:42.000Z</time>
      </trkpt>
      <trkpt lat="50.28223" lon="4.58247">
        <ele>265.753073</ele>
        <time>2024-12-17T11:29:43.000Z</time>
      </trkpt>
      <trkpt lat="50.28223" lon="4.58253">
        <ele>265.665974</ele>
        <time>2024-12-17T11:29:44.000Z</time>
      </trkpt>
      <trkpt lat="50.28224" lon="4.58258">
        <ele>265.584458</ele>
        <time>2024-12-17T11:29:45.000Z</time>
      </trkpt>
      <trkpt lat="50.28224" lon="4.58264">
        <ele>265.501851</ele>
        <time>2024-12-17T11:29:46.000Z</time>
      </trkpt>
      <trkpt lat="50.28224" lon="4.58269">
        <ele>265.42448</ele>
        <time>2024-12-17T11:29:47.000Z</time>
      </trkpt>
      <trkpt lat="50.28225" lon="4.58274">
        <ele>265.349667</ele>
        <time>2024-12-17T11:29:48.000Z</time>
      </trkpt>
      <trkpt lat="50.28226" lon="4.58279">
        <ele>265.274854</ele>
        <time>2024-12-17T11:29:49.000Z</time>
      </trkpt>
      <trkpt lat="50.28226" lon="4.58284">
        <ele>265.198342</ele>
        <time>2024-12-17T11:29:50.000Z</time>
      </trkpt>
      <trkpt lat="50.28224" lon="4.58288">
        <ele>265.098</ele>
        <time>2024-12-17T11:29:51.000Z</time>
      </trkpt>
      <trkpt lat="50.28222" lon="4.58291">
        <ele>264.936759</ele>
        <time>2024-12-17T11:29:52.000Z</time>
      </trkpt>
      <trkpt lat="50.28219" lon="4.58293">
        <ele>264.763852</ele>
        <time>2024-12-17T11:29:53.000Z</time>
      </trkpt>
      <trkpt lat="50.28216" lon="4.58293">
        <ele>264.579587</ele>
        <time>2024-12-17T11:29:54.000Z</time>
      </trkpt>
      <trkpt lat="50.28213" lon="4.58292">
        <ele>264.386738</ele>
        <time>2024-12-17T11:29:55.000Z</time>
      </trkpt>
      <trkpt lat="50.28209" lon="4.5829">
        <ele>264.173177</ele>
        <time>2024-12-17T11:29:56.000Z</time>
      </trkpt>
      <trkpt lat="50.28206" lon="4.58289">
        <ele>263.966079</ele>
        <time>2024-12-17T11:29:57.000Z</time>
      </trkpt>
      <trkpt lat="50.28202" lon="4.58288">
        <ele>263.741327</ele>
        <time>2024-12-17T11:29:58.000Z</time>
      </trkpt>
      <trkpt lat="50.28198" lon="4.58286">
        <ele>263.508251</ele>
        <time>2024-12-17T11:29:59.000Z</time>
      </trkpt>
      <trkpt lat="50.28194" lon="4.58284">
        <ele>263.267591</ele>
        <time>2024-12-17T11:30:00.000Z</time>
      </trkpt>
      <trkpt lat="50.2819" lon="4.58282">
        <ele>263.027974</ele>
        <time>2024-12-17T11:30:01.000Z</time>
      </trkpt>
      <trkpt lat="50.28186" lon="4.58281">
        <ele>262.7623</ele>
        <time>2024-12-17T11:30:02.000Z</time>
      </trkpt>
      <trkpt lat="50.28181" lon="4.58279">
        <ele>262.499519</ele>
        <time>2024-12-17T11:30:03.000Z</time>
      </trkpt>
      <trkpt lat="50.28176" lon="4.58277">
        <ele>262.217088</ele>
        <time>2024-12-17T11:30:04.000Z</time>
      </trkpt>
      <trkpt lat="50.28172" lon="4.58275">
        <ele>261.931118</ele>
        <time>2024-12-17T11:30:05.000Z</time>
      </trkpt>
      <trkpt lat="50.28167" lon="4.58273">
        <ele>261.644179</ele>
        <time>2024-12-17T11:30:06.000Z</time>
      </trkpt>
      <trkpt lat="50.28162" lon="4.5827">
        <ele>261.338616</ele>
        <time>2024-12-17T11:30:07.000Z</time>
      </trkpt>
      <trkpt lat="50.28156" lon="4.58268">
        <ele>261.023859</ele>
        <time>2024-12-17T11:30:08.000Z</time>
      </trkpt>
      <trkpt lat="50.28151" lon="4.58266">
        <ele>260.710827</ele>
        <time>2024-12-17T11:30:09.000Z</time>
      </trkpt>
      <trkpt lat="50.28146" lon="4.58264">
        <ele>260.39218</ele>
        <time>2024-12-17T11:30:10.000Z</time>
      </trkpt>
      <trkpt lat="50.2814" lon="4.58262">
        <ele>260.060653</ele>
        <time>2024-12-17T11:30:11.000Z</time>
      </trkpt>
      <trkpt lat="50.28135" lon="4.5826">
        <ele>259.732899</ele>
        <time>2024-12-17T11:30:12.000Z</time>
      </trkpt>
      <trkpt lat="50.28129" lon="4.58257">
        <ele>259.392097</ele>
        <time>2024-12-17T11:30:13.000Z</time>
      </trkpt>
      <trkpt lat="50.28123" lon="4.58255">
        <ele>259.047629</ele>
        <time>2024-12-17T11:30:14.000Z</time>
      </trkpt>
      <trkpt lat="50.28117" lon="4.58253">
        <ele>258.697577</ele>
        <time>2024-12-17T11:30:15.000Z</time>
      </trkpt>
      <trkpt lat="50.28111" lon="4.58251">
        <ele>258.349231</ele>
        <time>2024-12-17T11:30:16.000Z</time>
      </trkpt>
      <trkpt lat="50.28105" lon="4.58249">
        <ele>257.996053</ele>
        <time>2024-12-17T11:30:17.000Z</time>
      </trkpt>
      <trkpt lat="50.28099" lon="4.58247">
        <ele>257.640558</ele>
        <time>2024-12-17T11:30:18.000Z</time>
      </trkpt>
      <trkpt lat="50.28093" lon="4.58246">
        <ele>257.29015</ele>
        <time>2024-12-17T11:30:19.000Z</time>
      </trkpt>
      <trkpt lat="50.28087" lon="4.58245">
        <ele>256.919477</ele>
        <time>2024-12-17T11:30:20.000Z</time>
      </trkpt>
      <trkpt lat="50.2808" lon="4.58244">
        <ele>256.537729</ele>
        <time>2024-12-17T11:30:21.000Z</time>
      </trkpt>
      <trkpt lat="50.28074" lon="4.58242">
        <ele>256.149047</ele>
        <time>2024-12-17T11:30:22.000Z</time>
      </trkpt>
      <trkpt lat="50.28067" lon="4.58241">
        <ele>255.74799</ele>
        <time>2024-12-17T11:30:23.000Z</time>
      </trkpt>
      <trkpt lat="50.2806" lon="4.58239">
        <ele>255.337651</ele>
        <time>2024-12-17T11:30:24.000Z</time>
      </trkpt>
      <trkpt lat="50.28052" lon="4.58236">
        <ele>254.914589</ele>
        <time>2024-12-17T11:30:25.000Z</time>
      </trkpt>
      <trkpt lat="50.28045" lon="4.58234">
        <ele>254.307054</ele>
        <time>2024-12-17T11:30:26.000Z</time>
      </trkpt>
      <trkpt lat="50.28037" lon="4.58231">
        <ele>253.59033</ele>
        <time>2024-12-17T11:30:27.000Z</time>
      </trkpt>
      <trkpt lat="50.28029" lon="4.58227">
        <ele>252.851261</ele>
        <time>2024-12-17T11:30:28.000Z</time>
      </trkpt>
      <trkpt lat="50.2802" lon="4.58224">
        <ele>252.086897</ele>
        <time>2024-12-17T11:30:29.000Z</time>
      </trkpt>
      <trkpt lat="50.28012" lon="4.5822">
        <ele>251.330971</ele>
        <time>2024-12-17T11:30:30.000Z</time>
      </trkpt>
      <trkpt lat="50.28004" lon="4.58217">
        <ele>250.60032</ele>
        <time>2024-12-17T11:30:31.000Z</time>
      </trkpt>
      <trkpt lat="50.27996" lon="4.58214">
        <ele>249.868207</ele>
        <time>2024-12-17T11:30:32.000Z</time>
      </trkpt>
      <trkpt lat="50.27988" lon="4.58211">
        <ele>249.143007</ele>
        <time>2024-12-17T11:30:33.000Z</time>
      </trkpt>
      <trkpt lat="50.2798" lon="4.58208">
        <ele>248.447013</ele>
        <time>2024-12-17T11:30:34.000Z</time>
      </trkpt>
      <trkpt lat="50.27972" lon="4.58205">
        <ele>247.744801</ele>
        <time>2024-12-17T11:30:35.000Z</time>
      </trkpt>
      <trkpt lat="50.27963" lon="4.58203">
        <ele>247.000861</ele>
        <time>2024-12-17T11:30:36.000Z</time>
      </trkpt>
      <trkpt lat="50.27955" lon="4.58201">
        <ele>246.25974</ele>
        <time>2024-12-17T11:30:37.000Z</time>
      </trkpt>
      <trkpt lat="50.27946" lon="4.58198">
        <ele>245.498652</ele>
        <time>2024-12-17T11:30:38.000Z</time>
      </trkpt>
      <trkpt lat="50.27938" lon="4.58196">
        <ele>244.733341</ele>
        <time>2024-12-17T11:30:39.000Z</time>
      </trkpt>
      <trkpt lat="50.27929" lon="4.58193">
        <ele>243.942422</ele>
        <time>2024-12-17T11:30:40.000Z</time>
      </trkpt>
      <trkpt lat="50.2792" lon="4.5819">
        <ele>243.144027</ele>
        <time>2024-12-17T11:30:41.000Z</time>
      </trkpt>
      <trkpt lat="50.27911" lon="4.58188">
        <ele>242.323718</ele>
        <time>2024-12-17T11:30:42.000Z</time>
      </trkpt>
      <trkpt lat="50.27901" lon="4.58186">
        <ele>241.507956</ele>
        <time>2024-12-17T11:30:43.000Z</time>
      </trkpt>
      <trkpt lat="50.27893" lon="4.58185">
        <ele>240.740275</ele>
        <time>2024-12-17T11:30:44.000Z</time>
      </trkpt>
      <trkpt lat="50.27886" lon="4.58185">
        <ele>240.147728</ele>
        <time>2024-12-17T11:30:45.000Z</time>
      </trkpt>
      <trkpt lat="50.27881" lon="4.58185">
        <ele>239.746803</ele>
        <time>2024-12-17T11:30:46.000Z</time>
      </trkpt>
      <trkpt lat="50.27878" lon="4.58185">
        <ele>239.45795</ele>
        <time>2024-12-17T11:30:47.000Z</time>
      </trkpt>
      <trkpt lat="50.27875" lon="4.58184">
        <ele>239.187636</ele>
        <time>2024-12-17T11:30:48.000Z</time>
      </trkpt>
      <trkpt lat="50.27871" lon="4.58184">
        <ele>239.157061</ele>
        <time>2024-12-17T11:30:49.000Z</time>
      </trkpt>
      <trkpt lat="50.27867" lon="4.58185">
        <ele>239.210353</ele>
        <time>2024-12-17T11:30:50.000Z</time>
      </trkpt>
      <trkpt lat="50.27862" lon="4.58185">
        <ele>239.266061</ele>
        <time>2024-12-17T11:30:51.000Z</time>
      </trkpt>
      <trkpt lat="50.27857" lon="4.58185">
        <ele>239.325402</ele>
        <time>2024-12-17T11:30:52.000Z</time>
      </trkpt>
      <trkpt lat="50.27852" lon="4.58185">
        <ele>239.38717</ele>
        <time>2024-12-17T11:30:53.000Z</time>
      </trkpt>
      <trkpt lat="50.27847" lon="4.58185">
        <ele>239.448934</ele>
        <time>2024-12-17T11:30:54.000Z</time>
      </trkpt>
      <trkpt lat="50.27842" lon="4.58185">
        <ele>239.510717</ele>
        <time>2024-12-17T11:30:55.000Z</time>
      </trkpt>
      <trkpt lat="50.27837" lon="4.58185">
        <ele>239.573767</ele>
        <time>2024-12-17T11:30:56.000Z</time>
      </trkpt>
      <trkpt lat="50.27831" lon="4.58185">
        <ele>239.636761</ele>
        <time>2024-12-17T11:30:57.000Z</time>
      </trkpt>
      <trkpt lat="50.27826" lon="4.58185">
        <ele>239.698529</ele>
        <time>2024-12-17T11:30:58.000Z</time>
      </trkpt>
      <trkpt lat="50.27821" lon="4.58185">
        <ele>239.760336</ele>
        <time>2024-12-17T11:30:59.000Z</time>
      </trkpt>
      <trkpt lat="50.27816" lon="4.58185">
        <ele>239.820967</ele>
        <time>2024-12-17T11:31:00.000Z</time>
      </trkpt>
      <trkpt lat="50.27811" lon="4.58184">
        <ele>239.879611</ele>
        <time>2024-12-17T11:31:01.000Z</time>
      </trkpt>
      <trkpt lat="50.27807" lon="4.58182">
        <ele>239.939045</ele>
        <time>2024-12-17T11:31:02.000Z</time>
      </trkpt>
      <trkpt lat="50.27802" lon="4.58179">
        <ele>239.997693</ele>
        <time>2024-12-17T11:31:03.000Z</time>
      </trkpt>
      <trkpt lat="50.27798" lon="4.58176">
        <ele>240.054609</ele>
        <time>2024-12-17T11:31:04.000Z</time>
      </trkpt>
      <trkpt lat="50.27794" lon="4.58172">
        <ele>240.111509</ele>
        <time>2024-12-17T11:31:05.000Z</time>
      </trkpt>
      <trkpt lat="50.27791" lon="4.58167">
        <ele>240.164014</ele>
        <time>2024-12-17T11:31:06.000Z</time>
      </trkpt>
      <trkpt lat="50.27788" lon="4.58163">
        <ele>240.216288</ele>
        <time>2024-12-17T11:31:07.000Z</time>
      </trkpt>
      <trkpt lat="50.27785" lon="4.58158">
        <ele>240.266586</ele>
        <time>2024-12-17T11:31:08.000Z</time>
      </trkpt>
      <trkpt lat="50.27782" lon="4.58153">
        <ele>240.317248</ele>
        <time>2024-12-17T11:31:09.000Z</time>
      </trkpt>
      <trkpt lat="50.2778" lon="4.58148">
        <ele>240.368855</ele>
        <time>2024-12-17T11:31:10.000Z</time>
      </trkpt>
      <trkpt lat="50.27777" lon="4.58142">
        <ele>240.418437</ele>
        <time>2024-12-17T11:31:11.000Z</time>
      </trkpt>
      <trkpt lat="50.27775" lon="4.58137">
        <ele>240.468</ele>
        <time>2024-12-17T11:31:12.000Z</time>
      </trkpt>
      <trkpt lat="50.27773" lon="4.58131">
        <ele>240.517207</ele>
        <time>2024-12-17T11:31:13.000Z</time>
      </trkpt>
      <trkpt lat="50.27772" lon="4.58125">
        <ele>240.567524</ele>
        <time>2024-12-17T11:31:14.000Z</time>
      </trkpt>
      <trkpt lat="50.27771" lon="4.58119">
        <ele>240.616181</ele>
        <time>2024-12-17T11:31:15.000Z</time>
      </trkpt>
      <trkpt lat="50.2777" lon="4.58113">
        <ele>240.66388</ele>
        <time>2024-12-17T11:31:16.000Z</time>
      </trkpt>
      <trkpt lat="50.27769" lon="4.58107">
        <ele>240.712607</ele>
        <time>2024-12-17T11:31:17.000Z</time>
      </trkpt>
      <trkpt lat="50.27769" lon="4.58101">
        <ele>240.759107</ele>
        <time>2024-12-17T11:31:18.000Z</time>
      </trkpt>
      <trkpt lat="50.27769" lon="4.58095">
        <ele>240.805559</ele>
        <time>2024-12-17T11:31:19.000Z</time>
      </trkpt>
      <trkpt lat="50.27769" lon="4.58089">
        <ele>240.852058</ele>
        <time>2024-12-17T11:31:20.000Z</time>
      </trkpt>
      <trkpt lat="50.27769" lon="4.58083">
        <ele>240.899284</ele>
        <time>2024-12-17T11:31:21.000Z</time>
      </trkpt>
      <trkpt lat="50.2777" lon="4.58076">
        <ele>240.949185</ele>
        <time>2024-12-17T11:31:22.000Z</time>
      </trkpt>
      <trkpt lat="50.2777" lon="4.5807">
        <ele>240.997231</ele>
        <time>2024-12-17T11:31:23.000Z</time>
      </trkpt>
      <trkpt lat="50.2777" lon="4.58064">
        <ele>241.045276</ele>
        <time>2024-12-17T11:31:24.000Z</time>
      </trkpt>
      <trkpt lat="50.2777" lon="4.58058">
        <ele>241.090955</ele>
        <time>2024-12-17T11:31:25.000Z</time>
      </trkpt>
      <trkpt lat="50.2777" lon="4.58052">
        <ele>241.135908</ele>
        <time>2024-12-17T11:31:26.000Z</time>
      </trkpt>
      <trkpt lat="50.27771" lon="4.58047">
        <ele>241.180172</ele>
        <time>2024-12-17T11:31:27.000Z</time>
      </trkpt>
      <trkpt lat="50.27771" lon="4.58041">
        <ele>241.222123</ele>
        <time>2024-12-17T11:31:28.000Z</time>
      </trkpt>
      <trkpt lat="50.27771" lon="4.58036">
        <ele>241.260896</ele>
        <time>2024-12-17T11:31:29.000Z</time>
      </trkpt>
      <trkpt lat="50.27771" lon="4.58032">
        <ele>241.295035</ele>
        <time>2024-12-17T11:31:30.000Z</time>
      </trkpt>
      <trkpt lat="50.27772" lon="4.58028">
        <ele>241.331605</ele>
        <time>2024-12-17T11:31:31.000Z</time>
      </trkpt>
      <trkpt lat="50.27772" lon="4.58023">
        <ele>241.367961</ele>
        <time>2024-12-17T11:31:32.000Z</time>
      </trkpt>
      <trkpt lat="50.27772" lon="4.58019">
        <ele>241.407045</ele>
        <time>2024-12-17T11:31:33.000Z</time>
      </trkpt>
      <trkpt lat="50.27772" lon="4.58014">
        <ele>241.446709</ele>
        <time>2024-12-17T11:31:34.000Z</time>
      </trkpt>
      <trkpt lat="50.27773" lon="4.5801">
        <ele>241.487164</ele>
        <time>2024-12-17T11:31:35.000Z</time>
      </trkpt>
      <trkpt lat="50.27773" lon="4.58005">
        <ele>241.529509</ele>
        <time>2024-12-17T11:31:36.000Z</time>
      </trkpt>
      <trkpt lat="50.27773" lon="4.58">
        <ele>241.572711</ele>
        <time>2024-12-17T11:31:37.000Z</time>
      </trkpt>
      <trkpt lat="50.27773" lon="4.57995">
        <ele>241.61677</ele>
        <time>2024-12-17T11:31:38.000Z</time>
      </trkpt>
      <trkpt lat="50.27774" lon="4.57989">
        <ele>241.662443</ele>
        <time>2024-12-17T11:31:39.000Z</time>
      </trkpt>
      <trkpt lat="50.27774" lon="4.57984">
        <ele>241.709073</ele>
        <time>2024-12-17T11:31:40.000Z</time>
      </trkpt>
      <trkpt lat="50.27774" lon="4.57978">
        <ele>241.755605</ele>
        <time>2024-12-17T11:31:41.000Z</time>
      </trkpt>
      <trkpt lat="50.27774" lon="4.57973">
        <ele>241.803948</ele>
        <time>2024-12-17T11:31:42.000Z</time>
      </trkpt>
      <trkpt lat="50.27775" lon="4.57967">
        <ele>241.853057</ele>
        <time>2024-12-17T11:31:43.000Z</time>
      </trkpt>
      <trkpt lat="50.27775" lon="4.57962">
        <ele>241.901307</ele>
        <time>2024-12-17T11:31:44.000Z</time>
      </trkpt>
      <trkpt lat="50.27775" lon="4.57956">
        <ele>241.9495</ele>
        <time>2024-12-17T11:31:45.000Z</time>
      </trkpt>
      <trkpt lat="50.27775" lon="4.5795">
        <ele>241.999413</ele>
        <time>2024-12-17T11:31:46.000Z</time>
      </trkpt>
      <trkpt lat="50.27775" lon="4.57944">
        <ele>242.048467</ele>
        <time>2024-12-17T11:31:47.000Z</time>
      </trkpt>
      <trkpt lat="50.27775" lon="4.57938">
        <ele>242.100082</ele>
        <time>2024-12-17T11:31:48.000Z</time>
      </trkpt>
      <trkpt lat="50.27775" lon="4.57933">
        <ele>242.150855</ele>
        <time>2024-12-17T11:31:49.000Z</time>
      </trkpt>
      <trkpt lat="50.27775" lon="4.57927">
        <ele>242.202541</ele>
        <time>2024-12-17T11:31:50.000Z</time>
      </trkpt>
      <trkpt lat="50.27775" lon="4.57921">
        <ele>242.253314</ele>
        <time>2024-12-17T11:31:51.000Z</time>
      </trkpt>
      <trkpt lat="50.27775" lon="4.57915">
        <ele>242.304088</ele>
        <time>2024-12-17T11:31:52.000Z</time>
      </trkpt>
      <trkpt lat="50.27776" lon="4.57909">
        <ele>242.355721</ele>
        <time>2024-12-17T11:31:53.000Z</time>
      </trkpt>
      <trkpt lat="50.27776" lon="4.57903">
        <ele>242.406547</ele>
        <time>2024-12-17T11:31:54.000Z</time>
      </trkpt>
      <trkpt lat="50.27776" lon="4.57897">
        <ele>242.457463</ele>
        <time>2024-12-17T11:31:55.000Z</time>
      </trkpt>
      <trkpt lat="50.27776" lon="4.57891">
        <ele>242.508236</ele>
        <time>2024-12-17T11:31:56.000Z</time>
      </trkpt>
      <trkpt lat="50.27776" lon="4.57885">
        <ele>242.559009</ele>
        <time>2024-12-17T11:31:57.000Z</time>
      </trkpt>
      <trkpt lat="50.27776" lon="4.57879">
        <ele>242.609836</ele>
        <time>2024-12-17T11:31:58.000Z</time>
      </trkpt>
      <trkpt lat="50.27776" lon="4.57873">
        <ele>242.659731</ele>
        <time>2024-12-17T11:31:59.000Z</time>
      </trkpt>
      <trkpt lat="50.27776" lon="4.57868">
        <ele>242.709699</ele>
        <time>2024-12-17T11:32:00.000Z</time>
      </trkpt>
      <trkpt lat="50.27776" lon="4.57862">
        <ele>242.759884</ele>
        <time>2024-12-17T11:32:01.000Z</time>
      </trkpt>
      <trkpt lat="50.27775" lon="4.57856">
        <ele>242.808227</ele>
        <time>2024-12-17T11:32:02.000Z</time>
      </trkpt>
      <trkpt lat="50.27775" lon="4.57851">
        <ele>242.85687</ele>
        <time>2024-12-17T11:32:03.000Z</time>
      </trkpt>
      <trkpt lat="50.27774" lon="4.57845">
        <ele>242.903809</ele>
        <time>2024-12-17T11:32:04.000Z</time>
      </trkpt>
      <trkpt lat="50.27774" lon="4.5784">
        <ele>242.949897</ele>
        <time>2024-12-17T11:32:05.000Z</time>
      </trkpt>
      <trkpt lat="50.27773" lon="4.57835">
        <ele>242.994099</ele>
        <time>2024-12-17T11:32:06.000Z</time>
      </trkpt>
      <trkpt lat="50.27773" lon="4.5783">
        <ele>243.039772</ele>
        <time>2024-12-17T11:32:07.000Z</time>
      </trkpt>
      <trkpt lat="50.27773" lon="4.57824">
        <ele>243.085683</ele>
        <time>2024-12-17T11:32:08.000Z</time>
      </trkpt>
      <trkpt lat="50.27772" lon="4.57819">
        <ele>243.129716</ele>
        <time>2024-12-17T11:32:09.000Z</time>
      </trkpt>
      <trkpt lat="50.27771" lon="4.57814">
        <ele>243.17207</ele>
        <time>2024-12-17T11:32:10.000Z</time>
      </trkpt>
      <trkpt lat="50.27771" lon="4.5781">
        <ele>243.213586</ele>
        <time>2024-12-17T11:32:11.000Z</time>
      </trkpt>
      <trkpt lat="50.2777" lon="4.57805">
        <ele>243.255794</ele>
        <time>2024-12-17T11:32:12.000Z</time>
      </trkpt>
      <trkpt lat="50.27769" lon="4.578">
        <ele>243.297636</ele>
        <time>2024-12-17T11:32:13.000Z</time>
      </trkpt>
      <trkpt lat="50.27768" lon="4.57796">
        <ele>243.338314</ele>
        <time>2024-12-17T11:32:14.000Z</time>
      </trkpt>
      <trkpt lat="50.27767" lon="4.57791">
        <ele>243.378058</ele>
        <time>2024-12-17T11:32:15.000Z</time>
      </trkpt>
      <trkpt lat="50.27766" lon="4.57787">
        <ele>243.419043</ele>
        <time>2024-12-17T11:32:16.000Z</time>
      </trkpt>
      <trkpt lat="50.27765" lon="4.57782">
        <ele>243.46049</ele>
        <time>2024-12-17T11:32:17.000Z</time>
      </trkpt>
      <trkpt lat="50.27764" lon="4.57778">
        <ele>243.502437</ele>
        <time>2024-12-17T11:32:18.000Z</time>
      </trkpt>
      <trkpt lat="50.27763" lon="4.57773">
        <ele>243.546267</ele>
        <time>2024-12-17T11:32:19.000Z</time>
      </trkpt>
      <trkpt lat="50.27761" lon="4.57769">
        <ele>243.589536</ele>
        <time>2024-12-17T11:32:20.000Z</time>
      </trkpt>
      <trkpt lat="50.2776" lon="4.57764">
        <ele>243.634678</ele>
        <time>2024-12-17T11:32:21.000Z</time>
      </trkpt>
      <trkpt lat="50.27759" lon="4.57759">
        <ele>243.680319</ele>
        <time>2024-12-17T11:32:22.000Z</time>
      </trkpt>
      <trkpt lat="50.27758" lon="4.57754">
        <ele>243.730301</ele>
        <time>2024-12-17T11:32:23.000Z</time>
      </trkpt>
      <trkpt lat="50.27756" lon="4.57749">
        <ele>243.790486</ele>
        <time>2024-12-17T11:32:24.000Z</time>
      </trkpt>
      <trkpt lat="50.27755" lon="4.57743">
        <ele>243.850022</ele>
        <time>2024-12-17T11:32:25.000Z</time>
      </trkpt>
      <trkpt lat="50.27754" lon="4.57738">
        <ele>243.910991</ele>
        <time>2024-12-17T11:32:26.000Z</time>
      </trkpt>
      <trkpt lat="50.27752" lon="4.57733">
        <ele>243.975184</ele>
        <time>2024-12-17T11:32:27.000Z</time>
      </trkpt>
      <trkpt lat="50.27751" lon="4.57727">
        <ele>244.040024</ele>
        <time>2024-12-17T11:32:28.000Z</time>
      </trkpt>
      <trkpt lat="50.27749" lon="4.57721">
        <ele>244.107869</ele>
        <time>2024-12-17T11:32:29.000Z</time>
      </trkpt>
      <trkpt lat="50.27748" lon="4.57716">
        <ele>244.177782</ele>
        <time>2024-12-17T11:32:30.000Z</time>
      </trkpt>
      <trkpt lat="50.27746" lon="4.57709">
        <ele>244.250635</ele>
        <time>2024-12-17T11:32:31.000Z</time>
      </trkpt>
      <trkpt lat="50.27744" lon="4.57703">
        <ele>244.32113</ele>
        <time>2024-12-17T11:32:32.000Z</time>
      </trkpt>
      <trkpt lat="50.27742" lon="4.57697">
        <ele>244.399296</ele>
        <time>2024-12-17T11:32:33.000Z</time>
      </trkpt>
      <trkpt lat="50.27741" lon="4.5769">
        <ele>244.477104</ele>
        <time>2024-12-17T11:32:34.000Z</time>
      </trkpt>
      <trkpt lat="50.27739" lon="4.57684">
        <ele>244.55338</ele>
        <time>2024-12-17T11:32:35.000Z</time>
      </trkpt>
      <trkpt lat="50.27737" lon="4.57678">
        <ele>244.627719</ele>
        <time>2024-12-17T11:32:36.000Z</time>
      </trkpt>
      <trkpt lat="50.27735" lon="4.57672">
        <ele>244.69959</ele>
        <time>2024-12-17T11:32:37.000Z</time>
      </trkpt>
      <trkpt lat="50.27733" lon="4.57665">
        <ele>244.773098</ele>
        <time>2024-12-17T11:32:38.000Z</time>
      </trkpt>
      <trkpt lat="50.27732" lon="4.57659">
        <ele>244.849053</ele>
        <time>2024-12-17T11:32:39.000Z</time>
      </trkpt>
      <trkpt lat="50.27731" lon="4.57652">
        <ele>244.924501</ele>
        <time>2024-12-17T11:32:40.000Z</time>
      </trkpt>
      <trkpt lat="50.27729" lon="4.57646">
        <ele>244.994744</ele>
        <time>2024-12-17T11:32:41.000Z</time>
      </trkpt>
      <trkpt lat="50.27729" lon="4.57639">
        <ele>245.067584</ele>
        <time>2024-12-17T11:32:42.000Z</time>
      </trkpt>
      <trkpt lat="50.27728" lon="4.57633">
        <ele>245.140425</ele>
        <time>2024-12-17T11:32:43.000Z</time>
      </trkpt>
      <trkpt lat="50.27727" lon="4.57626">
        <ele>245.209491</ele>
        <time>2024-12-17T11:32:44.000Z</time>
      </trkpt>
      <trkpt lat="50.27727" lon="4.5762">
        <ele>245.274638</ele>
        <time>2024-12-17T11:32:45.000Z</time>
      </trkpt>
      <trkpt lat="50.27727" lon="4.57614">
        <ele>245.340803</ele>
        <time>2024-12-17T11:32:46.000Z</time>
      </trkpt>
      <trkpt lat="50.27727" lon="4.57609">
        <ele>245.402632</ele>
        <time>2024-12-17T11:32:47.000Z</time>
      </trkpt>
      <trkpt lat="50.27727" lon="4.57603">
        <ele>245.461283</ele>
        <time>2024-12-17T11:32:48.000Z</time>
      </trkpt>
      <trkpt lat="50.27728" lon="4.57598">
        <ele>245.519374</ele>
        <time>2024-12-17T11:32:49.000Z</time>
      </trkpt>
      <trkpt lat="50.27728" lon="4.57593">
        <ele>245.576996</ele>
        <time>2024-12-17T11:32:50.000Z</time>
      </trkpt>
      <trkpt lat="50.27729" lon="4.57587">
        <ele>245.639634</ele>
        <time>2024-12-17T11:32:51.000Z</time>
      </trkpt>
      <trkpt lat="50.2773" lon="4.57582">
        <ele>245.697998</ele>
        <time>2024-12-17T11:32:52.000Z</time>
      </trkpt>
      <trkpt lat="50.2773" lon="4.57576">
        <ele>245.761093</ele>
        <time>2024-12-17T11:32:53.000Z</time>
      </trkpt>
      <trkpt lat="50.2773" lon="4.5757">
        <ele>245.828342</ele>
        <time>2024-12-17T11:32:54.000Z</time>
      </trkpt>
      <trkpt lat="50.2773" lon="4.57563">
        <ele>245.896675</ele>
        <time>2024-12-17T11:32:55.000Z</time>
      </trkpt>
      <trkpt lat="50.2773" lon="4.57557">
        <ele>245.966154</ele>
        <time>2024-12-17T11:32:56.000Z</time>
      </trkpt>
      <trkpt lat="50.27729" lon="4.57552">
        <ele>246.026176</ele>
        <time>2024-12-17T11:32:57.000Z</time>
      </trkpt>
      <trkpt lat="50.27729" lon="4.57547">
        <ele>246.080618</ele>
        <time>2024-12-17T11:32:58.000Z</time>
      </trkpt>
      <trkpt lat="50.27728" lon="4.57542">
        <ele>246.13231</ele>
        <time>2024-12-17T11:32:59.000Z</time>
      </trkpt>
      <trkpt lat="50.27727" lon="4.57537">
        <ele>246.187148</ele>
        <time>2024-12-17T11:33:00.000Z</time>
      </trkpt>
      <trkpt lat="50.27727" lon="4.57533">
        <ele>246.236412</ele>
        <time>2024-12-17T11:33:01.000Z</time>
      </trkpt>
      <trkpt lat="50.27726" lon="4.57528">
        <ele>246.286549</ele>
        <time>2024-12-17T11:33:02.000Z</time>
      </trkpt>
      <trkpt lat="50.27726" lon="4.57523">
        <ele>246.339037</ele>
        <time>2024-12-17T11:33:03.000Z</time>
      </trkpt>
      <trkpt lat="50.27725" lon="4.57518">
        <ele>246.396333</ele>
        <time>2024-12-17T11:33:04.000Z</time>
      </trkpt>
      <trkpt lat="50.27724" lon="4.57513">
        <ele>246.453141</ele>
        <time>2024-12-17T11:33:05.000Z</time>
      </trkpt>
      <trkpt lat="50.27723" lon="4.57508">
        <ele>246.505881</ele>
        <time>2024-12-17T11:33:06.000Z</time>
      </trkpt>
      <trkpt lat="50.27722" lon="4.57503">
        <ele>246.566304</ele>
        <time>2024-12-17T11:33:07.000Z</time>
      </trkpt>
      <trkpt lat="50.27721" lon="4.57498">
        <ele>246.622079</ele>
        <time>2024-12-17T11:33:08.000Z</time>
      </trkpt>
      <trkpt lat="50.2772" lon="4.57493">
        <ele>246.680961</ele>
        <time>2024-12-17T11:33:09.000Z</time>
      </trkpt>
      <trkpt lat="50.2772" lon="4.57488">
        <ele>246.735415</ele>
        <time>2024-12-17T11:33:10.000Z</time>
      </trkpt>
      <trkpt lat="50.2772" lon="4.57483">
        <ele>246.789496</ele>
        <time>2024-12-17T11:33:11.000Z</time>
      </trkpt>
      <trkpt lat="50.2772" lon="4.57478">
        <ele>246.838787</ele>
        <time>2024-12-17T11:33:12.000Z</time>
      </trkpt>
      <trkpt lat="50.27719" lon="4.57473">
        <ele>246.898178</ele>
        <time>2024-12-17T11:33:13.000Z</time>
      </trkpt>
      <trkpt lat="50.27719" lon="4.57468">
        <ele>246.954669</ele>
        <time>2024-12-17T11:33:14.000Z</time>
      </trkpt>
      <trkpt lat="50.27717" lon="4.57463">
        <ele>247.011201</ele>
        <time>2024-12-17T11:33:15.000Z</time>
      </trkpt>
      <trkpt lat="50.27717" lon="4.57458">
        <ele>247.065955</ele>
        <time>2024-12-17T11:33:16.000Z</time>
      </trkpt>
      <trkpt lat="50.27718" lon="4.57453">
        <ele>247.115468</ele>
        <time>2024-12-17T11:33:17.000Z</time>
      </trkpt>
      <trkpt lat="50.27718" lon="4.57448">
        <ele>247.167852</ele>
        <time>2024-12-17T11:33:18.000Z</time>
      </trkpt>
      <trkpt lat="50.27718" lon="4.57444">
        <ele>247.209847</ele>
        <time>2024-12-17T11:33:19.000Z</time>
      </trkpt>
      <trkpt lat="50.27718" lon="4.5744">
        <ele>247.260094</ele>
        <time>2024-12-17T11:33:20.000Z</time>
      </trkpt>
      <trkpt lat="50.27719" lon="4.57435">
        <ele>247.314815</ele>
        <time>2024-12-17T11:33:21.000Z</time>
      </trkpt>
      <trkpt lat="50.27719" lon="4.5743">
        <ele>247.361854</ele>
        <time>2024-12-17T11:33:22.000Z</time>
      </trkpt>
      <trkpt lat="50.27718" lon="4.57425">
        <ele>247.423545</ele>
        <time>2024-12-17T11:33:23.000Z</time>
      </trkpt>
      <trkpt lat="50.27718" lon="4.57421">
        <ele>247.463242</ele>
        <time>2024-12-17T11:33:24.000Z</time>
      </trkpt>
      <trkpt lat="50.27718" lon="4.57418">
        <ele>247.499629</ele>
        <time>2024-12-17T11:33:25.000Z</time>
      </trkpt>
      <trkpt lat="50.27718" lon="4.57414">
        <ele>247.534205</ele>
        <time>2024-12-17T11:33:26.000Z</time>
      </trkpt>
      <trkpt lat="50.27718" lon="4.57412">
        <ele>247.563836</ele>
        <time>2024-12-17T11:33:27.000Z</time>
      </trkpt>
      <trkpt lat="50.27719" lon="4.57409">
        <ele>247.595979</ele>
        <time>2024-12-17T11:33:28.000Z</time>
      </trkpt>
      <trkpt lat="50.2772" lon="4.57406">
        <ele>247.632913</ele>
        <time>2024-12-17T11:33:29.000Z</time>
      </trkpt>
      <trkpt lat="50.27721" lon="4.57403">
        <ele>247.672553</ele>
        <time>2024-12-17T11:33:30.000Z</time>
      </trkpt>
      <trkpt lat="50.27722" lon="4.574">
        <ele>247.713294</ele>
        <time>2024-12-17T11:33:31.000Z</time>
      </trkpt>
      <trkpt lat="50.27723" lon="4.57396">
        <ele>247.751651</ele>
        <time>2024-12-17T11:33:32.000Z</time>
      </trkpt>
      <trkpt lat="50.27724" lon="4.57393">
        <ele>247.789028</ele>
        <time>2024-12-17T11:33:33.000Z</time>
      </trkpt>
      <trkpt lat="50.27725" lon="4.5739">
        <ele>247.82676</ele>
        <time>2024-12-17T11:33:34.000Z</time>
      </trkpt>
      <trkpt lat="50.27726" lon="4.57386">
        <ele>247.868013</ele>
        <time>2024-12-17T11:33:35.000Z</time>
      </trkpt>
      <trkpt lat="50.27726" lon="4.57382">
        <ele>247.908947</ele>
        <time>2024-12-17T11:33:36.000Z</time>
      </trkpt>
      <trkpt lat="50.27726" lon="4.57378">
        <ele>247.951832</ele>
        <time>2024-12-17T11:33:37.000Z</time>
      </trkpt>
      <trkpt lat="50.27727" lon="4.57374">
        <ele>247.998685</ele>
        <time>2024-12-17T11:33:38.000Z</time>
      </trkpt>
      <trkpt lat="50.27728" lon="4.5737">
        <ele>248.044054</ele>
        <time>2024-12-17T11:33:39.000Z</time>
      </trkpt>
      <trkpt lat="50.27729" lon="4.57366">
        <ele>248.087979</ele>
        <time>2024-12-17T11:33:40.000Z</time>
      </trkpt>
      <trkpt lat="50.27729" lon="4.57362">
        <ele>248.133652</ele>
        <time>2024-12-17T11:33:41.000Z</time>
      </trkpt>
      <trkpt lat="50.2773" lon="4.57358">
        <ele>248.180377</ele>
        <time>2024-12-17T11:33:42.000Z</time>
      </trkpt>
      <trkpt lat="50.2773" lon="4.57354">
        <ele>248.221036</ele>
        <time>2024-12-17T11:33:43.000Z</time>
      </trkpt>
      <trkpt lat="50.2773" lon="4.5735">
        <ele>248.259377</ele>
        <time>2024-12-17T11:33:44.000Z</time>
      </trkpt>
      <trkpt lat="50.2773" lon="4.57346">
        <ele>248.306684</ele>
        <time>2024-12-17T11:33:45.000Z</time>
      </trkpt>
      <trkpt lat="50.27731" lon="4.57341">
        <ele>248.358026</ele>
        <time>2024-12-17T11:33:46.000Z</time>
      </trkpt>
      <trkpt lat="50.2773" lon="4.57338">
        <ele>248.395481</ele>
        <time>2024-12-17T11:33:47.000Z</time>
      </trkpt>
      <trkpt lat="50.27731" lon="4.57334">
        <ele>248.437476</ele>
        <time>2024-12-17T11:33:48.000Z</time>
      </trkpt>
      <trkpt lat="50.27731" lon="4.57328">
        <ele>248.493294</ele>
        <time>2024-12-17T11:33:49.000Z</time>
      </trkpt>
      <trkpt lat="50.27731" lon="4.57325">
        <ele>248.535521</ele>
        <time>2024-12-17T11:33:50.000Z</time>
      </trkpt>
      <trkpt lat="50.27731" lon="4.5732">
        <ele>248.585768</ele>
        <time>2024-12-17T11:33:51.000Z</time>
      </trkpt>
      <trkpt lat="50.27731" lon="4.57315">
        <ele>248.642453</ele>
        <time>2024-12-17T11:33:52.000Z</time>
      </trkpt>
      <trkpt lat="50.2773" lon="4.57309">
        <ele>248.698671</ele>
        <time>2024-12-17T11:33:53.000Z</time>
      </trkpt>
      <trkpt lat="50.27729" lon="4.57304">
        <ele>248.754437</ele>
        <time>2024-12-17T11:33:54.000Z</time>
      </trkpt>
      <trkpt lat="50.27729" lon="4.57299">
        <ele>248.812384</ele>
        <time>2024-12-17T11:33:55.000Z</time>
      </trkpt>
      <trkpt lat="50.27728" lon="4.57293">
        <ele>248.879709</ele>
        <time>2024-12-17T11:33:56.000Z</time>
      </trkpt>
      <trkpt lat="50.27728" lon="4.57287">
        <ele>248.943941</ele>
        <time>2024-12-17T11:33:57.000Z</time>
      </trkpt>
      <trkpt lat="50.27728" lon="4.57282">
        <ele>248.999758</ele>
        <time>2024-12-17T11:33:58.000Z</time>
      </trkpt>
      <trkpt lat="50.27728" lon="4.57277">
        <ele>249.053317</ele>
        <time>2024-12-17T11:33:59.000Z</time>
      </trkpt>
      <trkpt lat="50.27728" lon="4.57271">
        <ele>249.107865</ele>
        <time>2024-12-17T11:34:00.000Z</time>
      </trkpt>
      <trkpt lat="50.27729" lon="4.57267">
        <ele>249.160897</ele>
        <time>2024-12-17T11:34:01.000Z</time>
      </trkpt>
      <trkpt lat="50.27729" lon="4.57261">
        <ele>249.220765</ele>
        <time>2024-12-17T11:34:02.000Z</time>
      </trkpt>
      <trkpt lat="50.27728" lon="4.57257">
        <ele>249.269671</ele>
        <time>2024-12-17T11:34:03.000Z</time>
      </trkpt>
      <trkpt lat="50.27728" lon="4.57253">
        <ele>249.31363</ele>
        <time>2024-12-17T11:34:04.000Z</time>
      </trkpt>
      <trkpt lat="50.27727" lon="4.57248">
        <ele>249.36714</ele>
        <time>2024-12-17T11:34:05.000Z</time>
      </trkpt>
      <trkpt lat="50.27726" lon="4.57243">
        <ele>249.41551</ele>
        <time>2024-12-17T11:34:06.000Z</time>
      </trkpt>
      <trkpt lat="50.27726" lon="4.57238">
        <ele>249.471101</ele>
        <time>2024-12-17T11:34:07.000Z</time>
      </trkpt>
      <trkpt lat="50.27726" lon="4.57233">
        <ele>249.523593</ele>
        <time>2024-12-17T11:34:08.000Z</time>
      </trkpt>
      <trkpt lat="50.27727" lon="4.57228">
        <ele>249.583671</ele>
        <time>2024-12-17T11:34:09.000Z</time>
      </trkpt>
      <trkpt lat="50.27727" lon="4.57222">
        <ele>249.639288</ele>
        <time>2024-12-17T11:34:10.000Z</time>
      </trkpt>
      <trkpt lat="50.27727" lon="4.57218">
        <ele>249.689171</ele>
        <time>2024-12-17T11:34:11.000Z</time>
      </trkpt>
      <trkpt lat="50.27727" lon="4.57211">
        <ele>249.759809</ele>
        <time>2024-12-17T11:34:12.000Z</time>
      </trkpt>
      <trkpt lat="50.27728" lon="4.57205">
        <ele>249.718589</ele>
        <time>2024-12-17T11:34:13.000Z</time>
      </trkpt>
      <trkpt lat="50.27728" lon="4.57198">
        <ele>249.630213</ele>
        <time>2024-12-17T11:34:14.000Z</time>
      </trkpt>
      <trkpt lat="50.27727" lon="4.57192">
        <ele>249.5382</ele>
        <time>2024-12-17T11:34:15.000Z</time>
      </trkpt>
      <trkpt lat="50.27727" lon="4.57186">
        <ele>249.457264</ele>
        <time>2024-12-17T11:34:16.000Z</time>
      </trkpt>
      <trkpt lat="50.27727" lon="4.5718">
        <ele>249.36609</ele>
        <time>2024-12-17T11:34:17.000Z</time>
      </trkpt>
      <trkpt lat="50.27727" lon="4.57173">
        <ele>249.269194</ele>
        <time>2024-12-17T11:34:18.000Z</time>
      </trkpt>
      <trkpt lat="50.27727" lon="4.57166">
        <ele>249.173897</ele>
        <time>2024-12-17T11:34:19.000Z</time>
      </trkpt>
      <trkpt lat="50.27727" lon="4.57159">
        <ele>249.079617</ele>
        <time>2024-12-17T11:34:20.000Z</time>
      </trkpt>
      <trkpt lat="50.27726" lon="4.57153">
        <ele>248.985645</ele>
        <time>2024-12-17T11:34:21.000Z</time>
      </trkpt>
      <trkpt lat="50.27726" lon="4.57146">
        <ele>248.890373</ele>
        <time>2024-12-17T11:34:22.000Z</time>
      </trkpt>
      <trkpt lat="50.27727" lon="4.57139">
        <ele>248.7964</ele>
        <time>2024-12-17T11:34:23.000Z</time>
      </trkpt>
      <trkpt lat="50.27727" lon="4.57132">
        <ele>248.698302</ele>
        <time>2024-12-17T11:34:24.000Z</time>
      </trkpt>
      <trkpt lat="50.27726" lon="4.57125">
        <ele>248.601406</ele>
        <time>2024-12-17T11:34:25.000Z</time>
      </trkpt>
      <trkpt lat="50.27727" lon="4.57119">
        <ele>248.50891</ele>
        <time>2024-12-17T11:34:26.000Z</time>
      </trkpt>
      <trkpt lat="50.27727" lon="4.57112">
        <ele>248.417604</ele>
        <time>2024-12-17T11:34:27.000Z</time>
      </trkpt>
      <trkpt lat="50.27727" lon="4.57105">
        <ele>248.322333</ele>
        <time>2024-12-17T11:34:28.000Z</time>
      </trkpt>
      <trkpt lat="50.27727" lon="4.57098">
        <ele>248.224161</ele>
        <time>2024-12-17T11:34:29.000Z</time>
      </trkpt>
      <trkpt lat="50.27727" lon="4.57093">
        <ele>248.144181</ele>
        <time>2024-12-17T11:34:30.000Z</time>
      </trkpt>
      <trkpt lat="50.27727" lon="4.57086">
        <ele>248.053086</ele>
        <time>2024-12-17T11:34:31.000Z</time>
      </trkpt>
      <trkpt lat="50.27727" lon="4.57079">
        <ele>247.957789</ele>
        <time>2024-12-17T11:34:32.000Z</time>
      </trkpt>
      <trkpt lat="50.27727" lon="4.57073">
        <ele>247.865293</ele>
        <time>2024-12-17T11:34:33.000Z</time>
      </trkpt>
      <trkpt lat="50.27727" lon="4.57066">
        <ele>247.766999</ele>
        <time>2024-12-17T11:34:34.000Z</time>
      </trkpt>
      <trkpt lat="50.27727" lon="4.57059">
        <ele>247.6675</ele>
        <time>2024-12-17T11:34:35.000Z</time>
      </trkpt>
      <trkpt lat="50.27727" lon="4.57052">
        <ele>247.568001</ele>
        <time>2024-12-17T11:34:36.000Z</time>
      </trkpt>
      <trkpt lat="50.27726" lon="4.57044">
        <ele>247.46703</ele>
        <time>2024-12-17T11:34:37.000Z</time>
      </trkpt>
      <trkpt lat="50.27726" lon="4.57037">
        <ele>247.368736</ele>
        <time>2024-12-17T11:34:38.000Z</time>
      </trkpt>
      <trkpt lat="50.27726" lon="4.5703">
        <ele>247.270271</ele>
        <time>2024-12-17T11:34:39.000Z</time>
      </trkpt>
      <trkpt lat="50.27726" lon="4.57023">
        <ele>247.172173</ele>
        <time>2024-12-17T11:34:40.000Z</time>
      </trkpt>
      <trkpt lat="50.27726" lon="4.57016">
        <ele>247.075475</ele>
        <time>2024-12-17T11:34:41.000Z</time>
      </trkpt>
      <trkpt lat="50.27726" lon="4.5701">
        <ele>246.978778</ele>
        <time>2024-12-17T11:34:42.000Z</time>
      </trkpt>
      <trkpt lat="50.27725" lon="4.57003">
        <ele>246.890922</ele>
        <time>2024-12-17T11:34:43.000Z</time>
      </trkpt>
      <trkpt lat="50.27725" lon="4.56998">
        <ele>246.809986</ele>
        <time>2024-12-17T11:34:44.000Z</time>
      </trkpt>
      <trkpt lat="50.27724" lon="4.56991">
        <ele>246.718485</ele>
        <time>2024-12-17T11:34:45.000Z</time>
      </trkpt>
      <trkpt lat="50.27723" lon="4.56984">
        <ele>246.616095</ele>
        <time>2024-12-17T11:34:46.000Z</time>
      </trkpt>
      <trkpt lat="50.27721" lon="4.56977">
        <ele>246.50797</ele>
        <time>2024-12-17T11:34:47.000Z</time>
      </trkpt>
      <trkpt lat="50.2772" lon="4.5697">
        <ele>246.405858</ele>
        <time>2024-12-17T11:34:48.000Z</time>
      </trkpt>
      <trkpt lat="50.27718" lon="4.56964">
        <ele>246.311083</ele>
        <time>2024-12-17T11:34:49.000Z</time>
      </trkpt>
      <trkpt lat="50.27717" lon="4.56957">
        <ele>246.209558</ele>
        <time>2024-12-17T11:34:50.000Z</time>
      </trkpt>
      <trkpt lat="50.27716" lon="4.56949">
        <ele>246.100382</ele>
        <time>2024-12-17T11:34:51.000Z</time>
      </trkpt>
      <trkpt lat="50.27714" lon="4.56941">
        <ele>245.984362</ele>
        <time>2024-12-17T11:34:52.000Z</time>
      </trkpt>
      <trkpt lat="50.27713" lon="4.56933">
        <ele>245.859519</ele>
        <time>2024-12-17T11:34:53.000Z</time>
      </trkpt>
      <trkpt lat="50.27711" lon="4.56924">
        <ele>245.723854</ele>
        <time>2024-12-17T11:34:54.000Z</time>
      </trkpt>
      <trkpt lat="50.2771" lon="4.56914">
        <ele>245.581312</ele>
        <time>2024-12-17T11:34:55.000Z</time>
      </trkpt>
      <trkpt lat="50.27708" lon="4.56905">
        <ele>245.428853</ele>
        <time>2024-12-17T11:34:56.000Z</time>
      </trkpt>
      <trkpt lat="50.27705" lon="4.56894">
        <ele>245.255678</ele>
        <time>2024-12-17T11:34:57.000Z</time>
      </trkpt>
      <trkpt lat="50.27702" lon="4.56885">
        <ele>245.102885</ele>
        <time>2024-12-17T11:34:58.000Z</time>
      </trkpt>
      <trkpt lat="50.27699" lon="4.56876">
        <ele>244.950092</ele>
        <time>2024-12-17T11:34:59.000Z</time>
      </trkpt>
      <trkpt lat="50.27697" lon="4.56866">
        <ele>244.790459</ele>
        <time>2024-12-17T11:35:00.000Z</time>
      </trkpt>
      <trkpt lat="50.27694" lon="4.56857">
        <ele>244.648547</ele>
        <time>2024-12-17T11:35:01.000Z</time>
      </trkpt>
      <trkpt lat="50.27692" lon="4.56848">
        <ele>244.493961</ele>
        <time>2024-12-17T11:35:02.000Z</time>
      </trkpt>
      <trkpt lat="50.2769" lon="4.56839">
        <ele>244.354325</ele>
        <time>2024-12-17T11:35:03.000Z</time>
      </trkpt>
      <trkpt lat="50.27689" lon="4.5683">
        <ele>244.221666</ele>
        <time>2024-12-17T11:35:04.000Z</time>
      </trkpt>
      <trkpt lat="50.27687" lon="4.56822">
        <ele>244.086177</ele>
        <time>2024-12-17T11:35:05.000Z</time>
      </trkpt>
      <trkpt lat="50.27686" lon="4.56813">
        <ele>243.950527</ele>
        <time>2024-12-17T11:35:06.000Z</time>
      </trkpt>
      <trkpt lat="50.27684" lon="4.56804">
        <ele>243.812231</ele>
        <time>2024-12-17T11:35:07.000Z</time>
      </trkpt>
      <trkpt lat="50.27682" lon="4.56795">
        <ele>243.676742</ele>
        <time>2024-12-17T11:35:08.000Z</time>
      </trkpt>
      <trkpt lat="50.2768" lon="4.56786">
        <ele>243.525705</ele>
        <time>2024-12-17T11:35:09.000Z</time>
      </trkpt>
      <trkpt lat="50.27678" lon="4.56776">
        <ele>243.363118</ele>
        <time>2024-12-17T11:35:10.000Z</time>
      </trkpt>
      <trkpt lat="50.27675" lon="4.56766">
        <ele>243.209341</ele>
        <time>2024-12-17T11:35:11.000Z</time>
      </trkpt>
      <trkpt lat="50.27673" lon="4.56757">
        <ele>243.06672</ele>
        <time>2024-12-17T11:35:12.000Z</time>
      </trkpt>
      <trkpt lat="50.27673" lon="4.56749">
        <ele>242.952173</ele>
        <time>2024-12-17T11:35:13.000Z</time>
      </trkpt>
      <trkpt lat="50.27671" lon="4.56741">
        <ele>242.822892</ele>
        <time>2024-12-17T11:35:14.000Z</time>
      </trkpt>
      <trkpt lat="50.2767" lon="4.56732">
        <ele>242.685376</ele>
        <time>2024-12-17T11:35:15.000Z</time>
      </trkpt>
      <trkpt lat="50.27667" lon="4.56723">
        <ele>242.538997</ele>
        <time>2024-12-17T11:35:16.000Z</time>
      </trkpt>
      <trkpt lat="50.27664" lon="4.56713">
        <ele>242.371389</ele>
        <time>2024-12-17T11:35:17.000Z</time>
      </trkpt>
      <trkpt lat="50.27663" lon="4.56704">
        <ele>242.231908</ele>
        <time>2024-12-17T11:35:18.000Z</time>
      </trkpt>
      <trkpt lat="50.27662" lon="4.56695">
        <ele>242.100077</ele>
        <time>2024-12-17T11:35:19.000Z</time>
      </trkpt>
      <trkpt lat="50.27661" lon="4.56687">
        <ele>241.969341</ele>
        <time>2024-12-17T11:35:20.000Z</time>
      </trkpt>
      <trkpt lat="50.27659" lon="4.56678">
        <ele>241.839661</ele>
        <time>2024-12-17T11:35:21.000Z</time>
      </trkpt>
      <trkpt lat="50.27657" lon="4.5667">
        <ele>241.713399</ele>
        <time>2024-12-17T11:35:22.000Z</time>
      </trkpt>
      <trkpt lat="50.27655" lon="4.56663">
        <ele>241.624936</ele>
        <time>2024-12-17T11:35:23.000Z</time>
      </trkpt>
      <trkpt lat="50.27654" lon="4.56655">
        <ele>241.614321</ele>
        <time>2024-12-17T11:35:24.000Z</time>
      </trkpt>
      <trkpt lat="50.27653" lon="4.56647">
        <ele>241.603807</ele>
        <time>2024-12-17T11:35:25.000Z</time>
      </trkpt>
      <trkpt lat="50.27651" lon="4.5664">
        <ele>241.593066</ele>
        <time>2024-12-17T11:35:26.000Z</time>
      </trkpt>
      <trkpt lat="50.27649" lon="4.56633">
        <ele>241.582954</ele>
        <time>2024-12-17T11:35:27.000Z</time>
      </trkpt>
      <trkpt lat="50.27648" lon="4.56626">
        <ele>241.573596</ele>
        <time>2024-12-17T11:35:28.000Z</time>
      </trkpt>
      <trkpt lat="50.27647" lon="4.56619">
        <ele>241.564162</ele>
        <time>2024-12-17T11:35:29.000Z</time>
      </trkpt>
      <trkpt lat="50.27646" lon="4.56613">
        <ele>241.555506</ele>
        <time>2024-12-17T11:35:30.000Z</time>
      </trkpt>
      <trkpt lat="50.27645" lon="4.56607">
        <ele>241.547607</ele>
        <time>2024-12-17T11:35:31.000Z</time>
      </trkpt>
      <trkpt lat="50.27644" lon="4.56602">
        <ele>241.540947</ele>
        <time>2024-12-17T11:35:32.000Z</time>
      </trkpt>
      <trkpt lat="50.27644" lon="4.56598">
        <ele>241.536039</ele>
        <time>2024-12-17T11:35:33.000Z</time>
      </trkpt>
      <trkpt lat="50.27644" lon="4.56595">
        <ele>241.532186</ele>
        <time>2024-12-17T11:35:34.000Z</time>
      </trkpt>
      <trkpt lat="50.27644" lon="4.56593">
        <ele>241.5295</ele>
        <time>2024-12-17T11:35:35.000Z</time>
      </trkpt>
      <trkpt lat="50.27644" lon="4.56593">
        <ele>241.528382</ele>
        <time>2024-12-17T11:35:36.000Z</time>
      </trkpt>
      <trkpt lat="50.27644" lon="4.56593">
        <ele>241.528382</ele>
        <time>2024-12-17T11:35:37.000Z</time>
      </trkpt>
      <trkpt lat="50.2764" lon="4.56586">
        <ele>241.516262</ele>
        <time>2024-12-17T11:35:41.000Z</time>
      </trkpt>
      <trkpt lat="50.27638" lon="4.56585">
        <ele>241.511574</ele>
        <time>2024-12-17T11:35:42.000Z</time>
      </trkpt>
      <trkpt lat="50.27635" lon="4.56584">
        <ele>241.506481</ele>
        <time>2024-12-17T11:35:43.000Z</time>
      </trkpt>
      <trkpt lat="50.27633" lon="4.56583">
        <ele>241.501845</ele>
        <time>2024-12-17T11:35:44.000Z</time>
      </trkpt>
      <trkpt lat="50.27631" lon="4.56583">
        <ele>241.496856</ele>
        <time>2024-12-17T11:35:45.000Z</time>
      </trkpt>
      <trkpt lat="50.27628" lon="4.56583">
        <ele>241.49125</ele>
        <time>2024-12-17T11:35:46.000Z</time>
      </trkpt>
      <trkpt lat="50.27625" lon="4.56583">
        <ele>241.48501</ele>
        <time>2024-12-17T11:35:47.000Z</time>
      </trkpt>
      <trkpt lat="50.27622" lon="4.56583">
        <ele>241.478563</ele>
        <time>2024-12-17T11:35:48.000Z</time>
      </trkpt>
      <trkpt lat="50.27619" lon="4.56582">
        <ele>241.47192</ele>
        <time>2024-12-17T11:35:49.000Z</time>
      </trkpt>
      <trkpt lat="50.27616" lon="4.56583">
        <ele>241.465691</ele>
        <time>2024-12-17T11:35:50.000Z</time>
      </trkpt>
      <trkpt lat="50.27613" lon="4.56583">
        <ele>241.459879</ele>
        <time>2024-12-17T11:35:51.000Z</time>
      </trkpt>
      <trkpt lat="50.2761" lon="4.56582">
        <ele>241.454066</ele>
        <time>2024-12-17T11:35:52.000Z</time>
      </trkpt>
      <trkpt lat="50.27607" lon="4.56582">
        <ele>241.448254</ele>
        <time>2024-12-17T11:35:53.000Z</time>
      </trkpt>
      <trkpt lat="50.27604" lon="4.56583">
        <ele>241.442428</ele>
        <time>2024-12-17T11:35:54.000Z</time>
      </trkpt>
      <trkpt lat="50.27601" lon="4.56583">
        <ele>241.436395</ele>
        <time>2024-12-17T11:35:55.000Z</time>
      </trkpt>
      <trkpt lat="50.27599" lon="4.56583">
        <ele>241.430777</ele>
        <time>2024-12-17T11:35:56.000Z</time>
      </trkpt>
      <trkpt lat="50.27596" lon="4.56584">
        <ele>241.42558</ele>
        <time>2024-12-17T11:35:57.000Z</time>
      </trkpt>
      <trkpt lat="50.27594" lon="4.56583">
        <ele>241.419974</ele>
        <time>2024-12-17T11:35:58.000Z</time>
      </trkpt>
      <trkpt lat="50.27591" lon="4.56583">
        <ele>241.414345</ele>
        <time>2024-12-17T11:35:59.000Z</time>
      </trkpt>
      <trkpt lat="50.27588" lon="4.56583">
        <ele>241.409347</ele>
        <time>2024-12-17T11:36:00.000Z</time>
      </trkpt>
      <trkpt lat="50.27587" lon="4.56582">
        <ele>241.40573</ele>
        <time>2024-12-17T11:36:01.000Z</time>
      </trkpt>
      <trkpt lat="50.27585" lon="4.56581">
        <ele>241.401807</ele>
        <time>2024-12-17T11:36:02.000Z</time>
      </trkpt>
      <trkpt lat="50.27583" lon="4.56581">
        <ele>241.396824</ele>
        <time>2024-12-17T11:36:03.000Z</time>
      </trkpt>
      <trkpt lat="50.2758" lon="4.56582">
        <ele>241.391608</ele>
        <time>2024-12-17T11:36:04.000Z</time>
      </trkpt>
      <trkpt lat="50.27578" lon="4.56582">
        <ele>241.386376</ele>
        <time>2024-12-17T11:36:05.000Z</time>
      </trkpt>
      <trkpt lat="50.27575" lon="4.56583">
        <ele>241.380819</ele>
        <time>2024-12-17T11:36:06.000Z</time>
      </trkpt>
      <trkpt lat="50.27572" lon="4.56584">
        <ele>241.375363</ele>
        <time>2024-12-17T11:36:07.000Z</time>
      </trkpt>
      <trkpt lat="50.2757" lon="4.56584">
        <ele>241.369513</ele>
        <time>2024-12-17T11:36:08.000Z</time>
      </trkpt>
      <trkpt lat="50.27567" lon="4.56585">
        <ele>241.363677</ele>
        <time>2024-12-17T11:36:09.000Z</time>
      </trkpt>
      <trkpt lat="50.27564" lon="4.56585">
        <ele>241.357221</ele>
        <time>2024-12-17T11:36:10.000Z</time>
      </trkpt>
      <trkpt lat="50.27561" lon="4.56585">
        <ele>241.350774</ele>
        <time>2024-12-17T11:36:11.000Z</time>
      </trkpt>
      <trkpt lat="50.27558" lon="4.56586">
        <ele>241.344478</ele>
        <time>2024-12-17T11:36:12.000Z</time>
      </trkpt>
      <trkpt lat="50.27554" lon="4.56587">
        <ele>241.337788</ele>
        <time>2024-12-17T11:36:13.000Z</time>
      </trkpt>
      <trkpt lat="50.27551" lon="4.56587">
        <ele>241.330892</ele>
        <time>2024-12-17T11:36:14.000Z</time>
      </trkpt>
      <trkpt lat="50.27548" lon="4.56588">
        <ele>241.32379</ele>
        <time>2024-12-17T11:36:15.000Z</time>
      </trkpt>
      <trkpt lat="50.27544" lon="4.56588">
        <ele>241.316514</ele>
        <time>2024-12-17T11:36:16.000Z</time>
      </trkpt>
      <trkpt lat="50.27541" lon="4.56588">
        <ele>241.309456</ele>
        <time>2024-12-17T11:36:17.000Z</time>
      </trkpt>
      <trkpt lat="50.27537" lon="4.56588">
        <ele>241.30219</ele>
        <time>2024-12-17T11:36:18.000Z</time>
      </trkpt>
      <trkpt lat="50.27534" lon="4.56588">
        <ele>241.294509</ele>
        <time>2024-12-17T11:36:19.000Z</time>
      </trkpt>
      <trkpt lat="50.2753" lon="4.56588">
        <ele>241.286824</ele>
        <time>2024-12-17T11:36:20.000Z</time>
      </trkpt>
      <trkpt lat="50.27526" lon="4.56588">
        <ele>241.279125</ele>
        <time>2024-12-17T11:36:21.000Z</time>
      </trkpt>
      <trkpt lat="50.27523" lon="4.56587">
        <ele>241.271642</ele>
        <time>2024-12-17T11:36:22.000Z</time>
      </trkpt>
      <trkpt lat="50.27519" lon="4.56587">
        <ele>241.264377</ele>
        <time>2024-12-17T11:36:23.000Z</time>
      </trkpt>
      <trkpt lat="50.27516" lon="4.56588">
        <ele>241.257101</ele>
        <time>2024-12-17T11:36:24.000Z</time>
      </trkpt>
      <trkpt lat="50.27512" lon="4.56589">
        <ele>241.216703</ele>
        <time>2024-12-17T11:36:25.000Z</time>
      </trkpt>
      <trkpt lat="50.27509" lon="4.5659">
        <ele>241.16249</ele>
        <time>2024-12-17T11:36:26.000Z</time>
      </trkpt>
      <trkpt lat="50.27505" lon="4.56591">
        <ele>241.108277</ele>
        <time>2024-12-17T11:36:27.000Z</time>
      </trkpt>
      <trkpt lat="50.27502" lon="4.56592">
        <ele>241.052982</ele>
        <time>2024-12-17T11:36:28.000Z</time>
      </trkpt>
      <trkpt lat="50.27498" lon="4.56593">
        <ele>241.000309</ele>
        <time>2024-12-17T11:36:29.000Z</time>
      </trkpt>
      <trkpt lat="50.27495" lon="4.56591">
        <ele>240.946323</ele>
        <time>2024-12-17T11:36:30.000Z</time>
      </trkpt>
      <trkpt lat="50.27492" lon="4.56589">
        <ele>240.895417</ele>
        <time>2024-12-17T11:36:31.000Z</time>
      </trkpt>
      <trkpt lat="50.27488" lon="4.56588">
        <ele>240.834199</ele>
        <time>2024-12-17T11:36:32.000Z</time>
      </trkpt>
      <trkpt lat="50.27484" lon="4.56587">
        <ele>240.766864</ele>
        <time>2024-12-17T11:36:33.000Z</time>
      </trkpt>
      <trkpt lat="50.27479" lon="4.56585">
        <ele>240.689924</ele>
        <time>2024-12-17T11:36:34.000Z</time>
      </trkpt>
      <trkpt lat="50.27474" lon="4.56581">
        <ele>240.601999</ele>
        <time>2024-12-17T11:36:35.000Z</time>
      </trkpt>
      <trkpt lat="50.27469" lon="4.56576">
        <ele>240.509957</ele>
        <time>2024-12-17T11:36:36.000Z</time>
      </trkpt>
      <trkpt lat="50.27463" lon="4.56571">
        <ele>240.411744</ele>
        <time>2024-12-17T11:36:37.000Z</time>
      </trkpt>
      <trkpt lat="50.27458" lon="4.56565">
        <ele>240.313401</ele>
        <time>2024-12-17T11:36:38.000Z</time>
      </trkpt>
      <trkpt lat="50.27453" lon="4.56559">
        <ele>240.212607</ele>
        <time>2024-12-17T11:36:39.000Z</time>
      </trkpt>
      <trkpt lat="50.27449" lon="4.5655">
        <ele>240.105856</ele>
        <time>2024-12-17T11:36:40.000Z</time>
      </trkpt>
      <trkpt lat="50.27445" lon="4.56541">
        <ele>239.995749</ele>
        <time>2024-12-17T11:36:41.000Z</time>
      </trkpt>
      <trkpt lat="50.27442" lon="4.56531">
        <ele>239.884338</ele>
        <time>2024-12-17T11:36:42.000Z</time>
      </trkpt>
      <trkpt lat="50.27439" lon="4.56521">
        <ele>239.776531</ele>
        <time>2024-12-17T11:36:43.000Z</time>
      </trkpt>
      <trkpt lat="50.27436" lon="4.56511">
        <ele>239.665998</ele>
        <time>2024-12-17T11:36:44.000Z</time>
      </trkpt>
      <trkpt lat="50.27432" lon="4.56502">
        <ele>239.56165</ele>
        <time>2024-12-17T11:36:45.000Z</time>
      </trkpt>
      <trkpt lat="50.27429" lon="4.56494">
        <ele>239.464843</ele>
        <time>2024-12-17T11:36:46.000Z</time>
      </trkpt>
      <trkpt lat="50.27426" lon="4.56486">
        <ele>239.373067</ele>
        <time>2024-12-17T11:36:47.000Z</time>
      </trkpt>
      <trkpt lat="50.27422" lon="4.56478">
        <ele>239.2777</ele>
        <time>2024-12-17T11:36:48.000Z</time>
      </trkpt>
      <trkpt lat="50.27419" lon="4.5647">
        <ele>239.183354</ele>
        <time>2024-12-17T11:36:49.000Z</time>
      </trkpt>
      <trkpt lat="50.27415" lon="4.56463">
        <ele>239.091422</ele>
        <time>2024-12-17T11:36:50.000Z</time>
      </trkpt>
      <trkpt lat="50.27411" lon="4.56456">
        <ele>239.000503</ele>
        <time>2024-12-17T11:36:51.000Z</time>
      </trkpt>
      <trkpt lat="50.27408" lon="4.56449">
        <ele>238.916245</ele>
        <time>2024-12-17T11:36:52.000Z</time>
      </trkpt>
      <trkpt lat="50.27406" lon="4.56442">
        <ele>238.836996</ele>
        <time>2024-12-17T11:36:53.000Z</time>
      </trkpt>
      <trkpt lat="50.27403" lon="4.56435">
        <ele>238.75689</ele>
        <time>2024-12-17T11:36:54.000Z</time>
      </trkpt>
      <trkpt lat="50.274" lon="4.56429">
        <ele>238.679908</ele>
        <time>2024-12-17T11:36:55.000Z</time>
      </trkpt>
      <trkpt lat="50.27397" lon="4.56423">
        <ele>238.60353</ele>
        <time>2024-12-17T11:36:56.000Z</time>
      </trkpt>
      <trkpt lat="50.27394" lon="4.56418">
        <ele>238.538171</ele>
        <time>2024-12-17T11:36:57.000Z</time>
      </trkpt>
      <trkpt lat="50.27392" lon="4.56413">
        <ele>238.48221</ele>
        <time>2024-12-17T11:36:58.000Z</time>
      </trkpt>
      <trkpt lat="50.2739" lon="4.56408">
        <ele>238.603901</ele>
        <time>2024-12-17T11:36:59.000Z</time>
      </trkpt>
      <trkpt lat="50.27388" lon="4.56404">
        <ele>238.774989</ele>
        <time>2024-12-17T11:37:00.000Z</time>
      </trkpt>
      <trkpt lat="50.27386" lon="4.56399">
        <ele>238.951503</ele>
        <time>2024-12-17T11:37:01.000Z</time>
      </trkpt>
      <trkpt lat="50.27384" lon="4.56394">
        <ele>239.136339</ele>
        <time>2024-12-17T11:37:02.000Z</time>
      </trkpt>
      <trkpt lat="50.27382" lon="4.5639">
        <ele>239.297389</ele>
        <time>2024-12-17T11:37:03.000Z</time>
      </trkpt>
      <trkpt lat="50.2738" lon="4.56386">
        <ele>239.4403</ele>
        <time>2024-12-17T11:37:04.000Z</time>
      </trkpt>
      <trkpt lat="50.27379" lon="4.56382">
        <ele>239.577645</ele>
        <time>2024-12-17T11:37:05.000Z</time>
      </trkpt>
      <trkpt lat="50.27378" lon="4.56378">
        <ele>239.717316</ele>
        <time>2024-12-17T11:37:06.000Z</time>
      </trkpt>
      <trkpt lat="50.27376" lon="4.56375">
        <ele>239.867527</ele>
        <time>2024-12-17T11:37:07.000Z</time>
      </trkpt>
      <trkpt lat="50.27374" lon="4.56371">
        <ele>240.015218</ele>
        <time>2024-12-17T11:37:08.000Z</time>
      </trkpt>
      <trkpt lat="50.27372" lon="4.56366">
        <ele>240.178449</ele>
        <time>2024-12-17T11:37:09.000Z</time>
      </trkpt>
      <trkpt lat="50.2737" lon="4.56362">
        <ele>240.336349</ele>
        <time>2024-12-17T11:37:10.000Z</time>
      </trkpt>
      <trkpt lat="50.27369" lon="4.56358">
        <ele>240.488953</ele>
        <time>2024-12-17T11:37:11.000Z</time>
      </trkpt>
      <trkpt lat="50.27367" lon="4.56354">
        <ele>240.639164</ele>
        <time>2024-12-17T11:37:12.000Z</time>
      </trkpt>
      <trkpt lat="50.27365" lon="4.5635">
        <ele>240.789815</ele>
        <time>2024-12-17T11:37:13.000Z</time>
      </trkpt>
      <trkpt lat="50.27363" lon="4.56347">
        <ele>240.942938</ele>
        <time>2024-12-17T11:37:14.000Z</time>
      </trkpt>
      <trkpt lat="50.27361" lon="4.56343">
        <ele>241.095691</ele>
        <time>2024-12-17T11:37:15.000Z</time>
      </trkpt>
      <trkpt lat="50.2736" lon="4.56338">
        <ele>241.243205</ele>
        <time>2024-12-17T11:37:16.000Z</time>
      </trkpt>
      <trkpt lat="50.27358" lon="4.56335">
        <ele>241.382698</ele>
        <time>2024-12-17T11:37:17.000Z</time>
      </trkpt>
      <trkpt lat="50.27357" lon="4.56331">
        <ele>241.522191</ele>
        <time>2024-12-17T11:37:18.000Z</time>
      </trkpt>
      <trkpt lat="50.27355" lon="4.56327">
        <ele>241.667027</ele>
        <time>2024-12-17T11:37:19.000Z</time>
      </trkpt>
      <trkpt lat="50.27353" lon="4.56323">
        <ele>241.833536</ele>
        <time>2024-12-17T11:37:20.000Z</time>
      </trkpt>
      <trkpt lat="50.27351" lon="4.56319">
        <ele>241.996661</ele>
        <time>2024-12-17T11:37:21.000Z</time>
      </trkpt>
      <trkpt lat="50.27349" lon="4.56314">
        <ele>242.151894</ele>
        <time>2024-12-17T11:37:22.000Z</time>
      </trkpt>
      <trkpt lat="50.27347" lon="4.5631">
        <ele>242.315126</ele>
        <time>2024-12-17T11:37:23.000Z</time>
      </trkpt>
      <trkpt lat="50.27346" lon="4.56306">
        <ele>242.46264</ele>
        <time>2024-12-17T11:37:24.000Z</time>
      </trkpt>
      <trkpt lat="50.27344" lon="4.56302">
        <ele>242.617873</ele>
        <time>2024-12-17T11:37:25.000Z</time>
      </trkpt>
      <trkpt lat="50.27343" lon="4.56298">
        <ele>242.773106</ele>
        <time>2024-12-17T11:37:26.000Z</time>
      </trkpt>
      <trkpt lat="50.27341" lon="4.56294">
        <ele>242.92586</ele>
        <time>2024-12-17T11:37:27.000Z</time>
      </trkpt>
      <trkpt lat="50.27339" lon="4.56289">
        <ele>243.09785</ele>
        <time>2024-12-17T11:37:28.000Z</time>
      </trkpt>
      <trkpt lat="50.27337" lon="4.56285">
        <ele>243.255731</ele>
        <time>2024-12-17T11:37:29.000Z</time>
      </trkpt>
      <trkpt lat="50.27335" lon="4.56281">
        <ele>243.408485</ele>
        <time>2024-12-17T11:37:30.000Z</time>
      </trkpt>
      <trkpt lat="50.27333" lon="4.56278">
        <ele>243.540324</ele>
        <time>2024-12-17T11:37:31.000Z</time>
      </trkpt>
      <trkpt lat="50.27332" lon="4.56274">
        <ele>243.664238</ele>
        <time>2024-12-17T11:37:32.000Z</time>
      </trkpt>
      <trkpt lat="50.27331" lon="4.56271">
        <ele>243.782792</ele>
        <time>2024-12-17T11:37:33.000Z</time>
      </trkpt>
      <trkpt lat="50.2733" lon="4.56268">
        <ele>243.88806</ele>
        <time>2024-12-17T11:37:34.000Z</time>
      </trkpt>
      <trkpt lat="50.27328" lon="4.56266">
        <ele>243.980279</ele>
        <time>2024-12-17T11:37:35.000Z</time>
      </trkpt>
      <trkpt lat="50.27327" lon="4.56264">
        <ele>244.069738</ele>
        <time>2024-12-17T11:37:36.000Z</time>
      </trkpt>
      <trkpt lat="50.27326" lon="4.56261">
        <ele>244.16449</ele>
        <time>2024-12-17T11:37:37.000Z</time>
      </trkpt>
      <trkpt lat="50.27325" lon="4.56258">
        <ele>244.262117</ele>
        <time>2024-12-17T11:37:38.000Z</time>
      </trkpt>
      <trkpt lat="50.27324" lon="4.56256">
        <ele>244.365195</ele>
        <time>2024-12-17T11:37:39.000Z</time>
      </trkpt>
      <trkpt lat="50.27323" lon="4.56253">
        <ele>244.47075</ele>
        <time>2024-12-17T11:37:40.000Z</time>
      </trkpt>
      <trkpt lat="50.27321" lon="4.5625">
        <ele>244.587242</ele>
        <time>2024-12-17T11:37:41.000Z</time>
      </trkpt>
      <trkpt lat="50.2732" lon="4.56247">
        <ele>244.695307</ele>
        <time>2024-12-17T11:37:42.000Z</time>
      </trkpt>
      <trkpt lat="50.27319" lon="4.56245">
        <ele>244.803372</ele>
        <time>2024-12-17T11:37:43.000Z</time>
      </trkpt>
      <trkpt lat="50.27317" lon="4.56242">
        <ele>244.916854</ele>
        <time>2024-12-17T11:37:44.000Z</time>
      </trkpt>
      <trkpt lat="50.27316" lon="4.56239">
        <ele>245.027861</ele>
        <time>2024-12-17T11:37:45.000Z</time>
      </trkpt>
      <trkpt lat="50.27314" lon="4.56236">
        <ele>245.138868</ele>
        <time>2024-12-17T11:37:46.000Z</time>
      </trkpt>
      <trkpt lat="50.27313" lon="4.56234">
        <ele>245.234017</ele>
        <time>2024-12-17T11:37:47.000Z</time>
      </trkpt>
      <trkpt lat="50.27312" lon="4.56231">
        <ele>245.323612</ele>
        <time>2024-12-17T11:37:48.000Z</time>
      </trkpt>
      <trkpt lat="50.27311" lon="4.56229">
        <ele>245.410473</ele>
        <time>2024-12-17T11:37:49.000Z</time>
      </trkpt>
      <trkpt lat="50.2731" lon="4.56227">
        <ele>245.500785</ele>
        <time>2024-12-17T11:37:50.000Z</time>
      </trkpt>
      <trkpt lat="50.27309" lon="4.56224">
        <ele>245.593003</ele>
        <time>2024-12-17T11:37:51.000Z</time>
      </trkpt>
      <trkpt lat="50.27308" lon="4.56222">
        <ele>245.690365</ele>
        <time>2024-12-17T11:37:52.000Z</time>
      </trkpt>
      <trkpt lat="50.27307" lon="4.56219">
        <ele>245.787727</ele>
        <time>2024-12-17T11:37:53.000Z</time>
      </trkpt>
      <trkpt lat="50.27305" lon="4.56217">
        <ele>245.883601</ele>
        <time>2024-12-17T11:37:54.000Z</time>
      </trkpt>
      <trkpt lat="50.27304" lon="4.56215">
        <ele>245.977158</ele>
        <time>2024-12-17T11:37:55.000Z</time>
      </trkpt>
      <trkpt lat="50.27303" lon="4.56212">
        <ele>246.076336</ele>
        <time>2024-12-17T11:37:56.000Z</time>
      </trkpt>
      <trkpt lat="50.27302" lon="4.5621">
        <ele>246.168428</ele>
        <time>2024-12-17T11:37:57.000Z</time>
      </trkpt>
      <trkpt lat="50.27301" lon="4.56207">
        <ele>246.268583</ele>
        <time>2024-12-17T11:37:58.000Z</time>
      </trkpt>
      <trkpt lat="50.273" lon="4.56204">
        <ele>246.365945</ele>
        <time>2024-12-17T11:37:59.000Z</time>
      </trkpt>
      <trkpt lat="50.27299" lon="4.56202">
        <ele>246.458164</ele>
        <time>2024-12-17T11:38:00.000Z</time>
      </trkpt>
      <trkpt lat="50.27297" lon="4.56199">
        <ele>246.560853</ele>
        <time>2024-12-17T11:38:01.000Z</time>
      </trkpt>
      <trkpt lat="50.27296" lon="4.56197">
        <ele>246.655627</ele>
        <time>2024-12-17T11:38:02.000Z</time>
      </trkpt>
      <trkpt lat="50.27295" lon="4.56195">
        <ele>246.748337</ele>
        <time>2024-12-17T11:38:03.000Z</time>
      </trkpt>
      <trkpt lat="50.27294" lon="4.56192">
        <ele>246.847515</ele>
        <time>2024-12-17T11:38:04.000Z</time>
      </trkpt>
      <trkpt lat="50.27293" lon="4.5619">
        <ele>246.939734</ele>
        <time>2024-12-17T11:38:05.000Z</time>
      </trkpt>
      <trkpt lat="50.27291" lon="4.56188">
        <ele>247.029434</ele>
        <time>2024-12-17T11:38:06.000Z</time>
      </trkpt>
      <trkpt lat="50.2729" lon="4.56185">
        <ele>247.119134</ele>
        <time>2024-12-17T11:38:07.000Z</time>
      </trkpt>
      <trkpt lat="50.27289" lon="4.56183">
        <ele>247.211353</ele>
        <time>2024-12-17T11:38:08.000Z</time>
      </trkpt>
      <trkpt lat="50.27288" lon="4.56181">
        <ele>247.262211</ele>
        <time>2024-12-17T11:38:09.000Z</time>
      </trkpt>
      <trkpt lat="50.27287" lon="4.56178">
        <ele>247.273617</ele>
        <time>2024-12-17T11:38:10.000Z</time>
      </trkpt>
      <trkpt lat="50.27286" lon="4.56175">
        <ele>247.286042</ele>
        <time>2024-12-17T11:38:11.000Z</time>
      </trkpt>
      <trkpt lat="50.27285" lon="4.56173">
        <ele>247.297274</ele>
        <time>2024-12-17T11:38:12.000Z</time>
      </trkpt>
      <trkpt lat="50.27284" lon="4.5617">
        <ele>247.309689</ele>
        <time>2024-12-17T11:38:13.000Z</time>
      </trkpt>
      <trkpt lat="50.27283" lon="4.56168">
        <ele>247.321821</ele>
        <time>2024-12-17T11:38:14.000Z</time>
      </trkpt>
      <trkpt lat="50.27282" lon="4.56165">
        <ele>247.334269</ele>
        <time>2024-12-17T11:38:15.000Z</time>
      </trkpt>
      <trkpt lat="50.27281" lon="4.56163">
        <ele>247.346717</ele>
        <time>2024-12-17T11:38:16.000Z</time>
      </trkpt>
      <trkpt lat="50.27279" lon="4.5616">
        <ele>247.361263</ele>
        <time>2024-12-17T11:38:17.000Z</time>
      </trkpt>
      <trkpt lat="50.27278" lon="4.56158">
        <ele>247.373711</ele>
        <time>2024-12-17T11:38:18.000Z</time>
      </trkpt>
      <trkpt lat="50.27277" lon="4.56155">
        <ele>247.385469</ele>
        <time>2024-12-17T11:38:19.000Z</time>
      </trkpt>
      <trkpt lat="50.27276" lon="4.56153">
        <ele>247.39729</ele>
        <time>2024-12-17T11:38:20.000Z</time>
      </trkpt>
      <trkpt lat="50.27274" lon="4.5615">
        <ele>247.410433</ele>
        <time>2024-12-17T11:38:21.000Z</time>
      </trkpt>
      <trkpt lat="50.27273" lon="4.56148">
        <ele>247.42337</ele>
        <time>2024-12-17T11:38:22.000Z</time>
      </trkpt>
      <trkpt lat="50.27272" lon="4.56146">
        <ele>247.435595</ele>
        <time>2024-12-17T11:38:23.000Z</time>
      </trkpt>
      <trkpt lat="50.27271" lon="4.56143">
        <ele>247.448043</ele>
        <time>2024-12-17T11:38:24.000Z</time>
      </trkpt>
      <trkpt lat="50.27269" lon="4.56141">
        <ele>247.459164</ele>
        <time>2024-12-17T11:38:25.000Z</time>
      </trkpt>
      <trkpt lat="50.27268" lon="4.56139">
        <ele>247.470804</ele>
        <time>2024-12-17T11:38:26.000Z</time>
      </trkpt>
      <trkpt lat="50.27267" lon="4.56137">
        <ele>247.483343</ele>
        <time>2024-12-17T11:38:27.000Z</time>
      </trkpt>
      <trkpt lat="50.27265" lon="4.56134">
        <ele>247.495703</ele>
        <time>2024-12-17T11:38:28.000Z</time>
      </trkpt>
      <trkpt lat="50.27264" lon="4.56132">
        <ele>247.507343</ele>
        <time>2024-12-17T11:38:29.000Z</time>
      </trkpt>
      <trkpt lat="50.27263" lon="4.5613">
        <ele>247.51878</ele>
        <time>2024-12-17T11:38:30.000Z</time>
      </trkpt>
      <trkpt lat="50.27261" lon="4.56127">
        <ele>247.532726</ele>
        <time>2024-12-17T11:38:31.000Z</time>
      </trkpt>
      <trkpt lat="50.2726" lon="4.56125">
        <ele>247.547272</ele>
        <time>2024-12-17T11:38:32.000Z</time>
      </trkpt>
      <trkpt lat="50.27258" lon="4.56122">
        <ele>247.561217</ele>
        <time>2024-12-17T11:38:33.000Z</time>
      </trkpt>
      <trkpt lat="50.27257" lon="4.56119">
        <ele>247.575371</ele>
        <time>2024-12-17T11:38:34.000Z</time>
      </trkpt>
      <trkpt lat="50.27256" lon="4.56117">
        <ele>247.588465</ele>
        <time>2024-12-17T11:38:35.000Z</time>
      </trkpt>
      <trkpt lat="50.27254" lon="4.56114">
        <ele>247.601548</ele>
        <time>2024-12-17T11:38:36.000Z</time>
      </trkpt>
      <trkpt lat="50.27253" lon="4.56112">
        <ele>247.615041</ele>
        <time>2024-12-17T11:38:37.000Z</time>
      </trkpt>
      <trkpt lat="50.27251" lon="4.5611">
        <ele>247.628051</ele>
        <time>2024-12-17T11:38:38.000Z</time>
      </trkpt>
      <trkpt lat="50.27249" lon="4.56108">
        <ele>247.64132</ele>
        <time>2024-12-17T11:38:39.000Z</time>
      </trkpt>
      <trkpt lat="50.27248" lon="4.56106">
        <ele>247.654329</ele>
        <time>2024-12-17T11:38:40.000Z</time>
      </trkpt>
      <trkpt lat="50.27246" lon="4.56103">
        <ele>247.668137</ele>
        <time>2024-12-17T11:38:41.000Z</time>
      </trkpt>
      <trkpt lat="50.27244" lon="4.56101">
        <ele>247.682946</ele>
        <time>2024-12-17T11:38:42.000Z</time>
      </trkpt>
      <trkpt lat="50.27243" lon="4.56098">
        <ele>247.698322</ele>
        <time>2024-12-17T11:38:43.000Z</time>
      </trkpt>
      <trkpt lat="50.27241" lon="4.56095">
        <ele>247.714134</ele>
        <time>2024-12-17T11:38:44.000Z</time>
      </trkpt>
      <trkpt lat="50.27239" lon="4.56092">
        <ele>247.730669</ele>
        <time>2024-12-17T11:38:45.000Z</time>
      </trkpt>
      <trkpt lat="50.27237" lon="4.56089">
        <ele>247.746764</ele>
        <time>2024-12-17T11:38:46.000Z</time>
      </trkpt>
      <trkpt lat="50.27235" lon="4.56087">
        <ele>247.763482</ele>
        <time>2024-12-17T11:38:47.000Z</time>
      </trkpt>
      <trkpt lat="50.27233" lon="4.56084">
        <ele>247.780414</ele>
        <time>2024-12-17T11:38:48.000Z</time>
      </trkpt>
      <trkpt lat="50.27231" lon="4.56081">
        <ele>247.797636</ele>
        <time>2024-12-17T11:38:49.000Z</time>
      </trkpt>
      <trkpt lat="50.27228" lon="4.56079">
        <ele>247.816441</ele>
        <time>2024-12-17T11:38:50.000Z</time>
      </trkpt>
      <trkpt lat="50.27226" lon="4.56076">
        <ele>247.834117</ele>
        <time>2024-12-17T11:38:51.000Z</time>
      </trkpt>
      <trkpt lat="50.27223" lon="4.56074">
        <ele>247.852389</ele>
        <time>2024-12-17T11:38:52.000Z</time>
      </trkpt>
      <trkpt lat="50.27221" lon="4.56072">
        <ele>247.869716</ele>
        <time>2024-12-17T11:38:53.000Z</time>
      </trkpt>
      <trkpt lat="50.27219" lon="4.56069">
        <ele>247.887162</ele>
        <time>2024-12-17T11:38:54.000Z</time>
      </trkpt>
      <trkpt lat="50.27217" lon="4.56067">
        <ele>247.904337</ele>
        <time>2024-12-17T11:38:55.000Z</time>
      </trkpt>
      <trkpt lat="50.27214" lon="4.56064">
        <ele>247.921559</ele>
        <time>2024-12-17T11:38:56.000Z</time>
      </trkpt>
      <trkpt lat="50.27212" lon="4.56062">
        <ele>247.938266</ele>
        <time>2024-12-17T11:38:57.000Z</time>
      </trkpt>
      <trkpt lat="50.2721" lon="4.56059">
        <ele>247.954948</ele>
        <time>2024-12-17T11:38:58.000Z</time>
      </trkpt>
      <trkpt lat="50.27208" lon="4.56057">
        <ele>247.97188</ele>
        <time>2024-12-17T11:38:59.000Z</time>
      </trkpt>
      <trkpt lat="50.27206" lon="4.56054">
        <ele>247.988818</ele>
        <time>2024-12-17T11:39:00.000Z</time>
      </trkpt>
      <trkpt lat="50.27203" lon="4.56052">
        <ele>248.005993</ele>
        <time>2024-12-17T11:39:01.000Z</time>
      </trkpt>
      <trkpt lat="50.27201" lon="4.56049">
        <ele>248.023215</ele>
        <time>2024-12-17T11:39:02.000Z</time>
      </trkpt>
      <trkpt lat="50.27199" lon="4.56046">
        <ele>248.041629</ele>
        <time>2024-12-17T11:39:03.000Z</time>
      </trkpt>
      <trkpt lat="50.27196" lon="4.56044">
        <ele>248.06033</ele>
        <time>2024-12-17T11:39:04.000Z</time>
      </trkpt>
      <trkpt lat="50.27194" lon="4.56042">
        <ele>248.077821</ele>
        <time>2024-12-17T11:39:05.000Z</time>
      </trkpt>
      <trkpt lat="50.27192" lon="4.5604">
        <ele>248.090608</ele>
        <time>2024-12-17T11:39:06.000Z</time>
      </trkpt>
      <trkpt lat="50.27191" lon="4.56037">
        <ele>248.101841</ele>
        <time>2024-12-17T11:39:07.000Z</time>
      </trkpt>
      <trkpt lat="50.27191" lon="4.56034">
        <ele>248.114246</ele>
        <time>2024-12-17T11:39:08.000Z</time>
      </trkpt>
      <trkpt lat="50.27191" lon="4.56031">
        <ele>248.127798</ele>
        <time>2024-12-17T11:39:09.000Z</time>
      </trkpt>
      <trkpt lat="50.2719" lon="4.56027">
        <ele>248.144544</ele>
        <time>2024-12-17T11:39:10.000Z</time>
      </trkpt>
      <trkpt lat="50.27189" lon="4.56022">
        <ele>248.163958</ele>
        <time>2024-12-17T11:39:11.000Z</time>
      </trkpt>
      <trkpt lat="50.27188" lon="4.56018">
        <ele>248.184603</ele>
        <time>2024-12-17T11:39:12.000Z</time>
      </trkpt>
      <trkpt lat="50.27186" lon="4.56013">
        <ele>248.207452</ele>
        <time>2024-12-17T11:39:13.000Z</time>
      </trkpt>
      <trkpt lat="50.27184" lon="4.56008">
        <ele>248.230955</ele>
        <time>2024-12-17T11:39:14.000Z</time>
      </trkpt>
      <trkpt lat="50.27182" lon="4.56002">
        <ele>248.255557</ele>
        <time>2024-12-17T11:39:15.000Z</time>
      </trkpt>
      <trkpt lat="50.27181" lon="4.55996">
        <ele>248.280601</ele>
        <time>2024-12-17T11:39:16.000Z</time>
      </trkpt>
      <trkpt lat="50.27179" lon="4.55991">
        <ele>248.305286</ele>
        <time>2024-12-17T11:39:17.000Z</time>
      </trkpt>
      <trkpt lat="50.27178" lon="4.55985">
        <ele>248.330567</ele>
        <time>2024-12-17T11:39:18.000Z</time>
      </trkpt>
      <trkpt lat="50.27176" lon="4.55979">
        <ele>248.35659</ele>
        <time>2024-12-17T11:39:19.000Z</time>
      </trkpt>
      <trkpt lat="50.27175" lon="4.55973">
        <ele>248.364761</ele>
        <time>2024-12-17T11:39:20.000Z</time>
      </trkpt>
      <trkpt lat="50.27173" lon="4.55967">
        <ele>248.29999</ele>
        <time>2024-12-17T11:39:21.000Z</time>
      </trkpt>
      <trkpt lat="50.27171" lon="4.55961">
        <ele>248.234603</ele>
        <time>2024-12-17T11:39:22.000Z</time>
      </trkpt>
      <trkpt lat="50.2717" lon="4.55955">
        <ele>248.169832</ele>
        <time>2024-12-17T11:39:23.000Z</time>
      </trkpt>
      <trkpt lat="50.27168" lon="4.55949">
        <ele>248.105645</ele>
        <time>2024-12-17T11:39:24.000Z</time>
      </trkpt>
      <trkpt lat="50.27167" lon="4.55943">
        <ele>248.040258</ele>
        <time>2024-12-17T11:39:25.000Z</time>
      </trkpt>
      <trkpt lat="50.27165" lon="4.55937">
        <ele>247.97487</ele>
        <time>2024-12-17T11:39:26.000Z</time>
      </trkpt>
      <trkpt lat="50.27163" lon="4.55931">
        <ele>247.908571</ele>
        <time>2024-12-17T11:39:27.000Z</time>
      </trkpt>
      <trkpt lat="50.27161" lon="4.55924">
        <ele>247.841634</ele>
        <time>2024-12-17T11:39:28.000Z</time>
      </trkpt>
      <trkpt lat="50.27159" lon="4.55919">
        <ele>247.774353</ele>
        <time>2024-12-17T11:39:29.000Z</time>
      </trkpt>
      <trkpt lat="50.27157" lon="4.55913">
        <ele>247.709421</ele>
        <time>2024-12-17T11:39:30.000Z</time>
      </trkpt>
      <trkpt lat="50.27156" lon="4.55907">
        <ele>247.643122</ele>
        <time>2024-12-17T11:39:31.000Z</time>
      </trkpt>
      <trkpt lat="50.27154" lon="4.55901">
        <ele>247.576822</ele>
        <time>2024-12-17T11:39:32.000Z</time>
      </trkpt>
      <trkpt lat="50.27152" lon="4.55895">
        <ele>247.510788</ele>
        <time>2024-12-17T11:39:33.000Z</time>
      </trkpt>
      <trkpt lat="50.2715" lon="4.55889">
        <ele>247.444376</ele>
        <time>2024-12-17T11:39:34.000Z</time>
      </trkpt>
      <trkpt lat="50.27148" lon="4.55883">
        <ele>247.377964</ele>
        <time>2024-12-17T11:39:35.000Z</time>
      </trkpt>
      <trkpt lat="50.27146" lon="4.55877">
        <ele>247.308935</ele>
        <time>2024-12-17T11:39:36.000Z</time>
      </trkpt>
      <trkpt lat="50.27144" lon="4.55871">
        <ele>247.237412</ele>
        <time>2024-12-17T11:39:37.000Z</time>
      </trkpt>
      <trkpt lat="50.27141" lon="4.55864">
        <ele>247.163391</ele>
        <time>2024-12-17T11:39:38.000Z</time>
      </trkpt>
      <trkpt lat="50.27139" lon="4.55858">
        <ele>247.086996</ele>
        <time>2024-12-17T11:39:39.000Z</time>
      </trkpt>
      <trkpt lat="50.27136" lon="4.55851">
        <ele>247.010561</ele>
        <time>2024-12-17T11:39:40.000Z</time>
      </trkpt>
      <trkpt lat="50.27134" lon="4.55844">
        <ele>246.934126</ele>
        <time>2024-12-17T11:39:41.000Z</time>
      </trkpt>
      <trkpt lat="50.27131" lon="4.55838">
        <ele>246.855215</ele>
        <time>2024-12-17T11:39:42.000Z</time>
      </trkpt>
      <trkpt lat="50.27128" lon="4.55831">
        <ele>246.77461</ele>
        <time>2024-12-17T11:39:43.000Z</time>
      </trkpt>
      <trkpt lat="50.27126" lon="4.55824">
        <ele>246.694721</ele>
        <time>2024-12-17T11:39:44.000Z</time>
      </trkpt>
      <trkpt lat="50.27124" lon="4.55817">
        <ele>246.613819</ele>
        <time>2024-12-17T11:39:45.000Z</time>
      </trkpt>
      <trkpt lat="50.27121" lon="4.55809">
        <ele>246.532917</ele>
        <time>2024-12-17T11:39:46.000Z</time>
      </trkpt>
      <trkpt lat="50.27119" lon="4.55802">
        <ele>246.452256</ele>
        <time>2024-12-17T11:39:47.000Z</time>
      </trkpt>
      <trkpt lat="50.27116" lon="4.55795">
        <ele>246.369138</ele>
        <time>2024-12-17T11:39:48.000Z</time>
      </trkpt>
      <trkpt lat="50.27113" lon="4.55788">
        <ele>246.286747</ele>
        <time>2024-12-17T11:39:49.000Z</time>
      </trkpt>
      <trkpt lat="50.2711" lon="4.55781">
        <ele>246.201855</ele>
        <time>2024-12-17T11:39:50.000Z</time>
      </trkpt>
      <trkpt lat="50.27108" lon="4.55774">
        <ele>246.121834</ele>
        <time>2024-12-17T11:39:51.000Z</time>
      </trkpt>
      <trkpt lat="50.27105" lon="4.55766">
        <ele>246.038575</ele>
        <time>2024-12-17T11:39:52.000Z</time>
      </trkpt>
      <trkpt lat="50.27103" lon="4.55759">
        <ele>245.955316</ele>
        <time>2024-12-17T11:39:53.000Z</time>
      </trkpt>
      <trkpt lat="50.271" lon="4.55752">
        <ele>245.872642</ele>
        <time>2024-12-17T11:39:54.000Z</time>
      </trkpt>
      <trkpt lat="50.27098" lon="4.55744">
        <ele>245.789078</ele>
        <time>2024-12-17T11:39:55.000Z</time>
      </trkpt>
      <trkpt lat="50.27096" lon="4.55737">
        <ele>245.707097</ele>
        <time>2024-12-17T11:39:56.000Z</time>
      </trkpt>
      <trkpt lat="50.27094" lon="4.55729">
        <ele>245.627588</ele>
        <time>2024-12-17T11:39:57.000Z</time>
      </trkpt>
      <trkpt lat="50.27092" lon="4.55723">
        <ele>245.596418</ele>
        <time>2024-12-17T11:39:58.000Z</time>
      </trkpt>
      <trkpt lat="50.2709" lon="4.55716">
        <ele>245.675909</ele>
        <time>2024-12-17T11:39:59.000Z</time>
      </trkpt>
      <trkpt lat="50.27088" lon="4.5571">
        <ele>245.752195</ele>
        <time>2024-12-17T11:40:00.000Z</time>
      </trkpt>
      <trkpt lat="50.27086" lon="4.55704">
        <ele>245.824812</ele>
        <time>2024-12-17T11:40:01.000Z</time>
      </trkpt>
      <trkpt lat="50.27084" lon="4.55697">
        <ele>245.898402</ele>
        <time>2024-12-17T11:40:02.000Z</time>
      </trkpt>
      <trkpt lat="50.27082" lon="4.55691">
        <ele>245.970282</ele>
        <time>2024-12-17T11:40:03.000Z</time>
      </trkpt>
      <trkpt lat="50.2708" lon="4.55685">
        <ele>246.044809</ele>
        <time>2024-12-17T11:40:04.000Z</time>
      </trkpt>
      <trkpt lat="50.27079" lon="4.55679">
        <ele>246.120638</ele>
        <time>2024-12-17T11:40:05.000Z</time>
      </trkpt>
      <trkpt lat="50.27077" lon="4.55672">
        <ele>246.194487</ele>
        <time>2024-12-17T11:40:06.000Z</time>
      </trkpt>
      <trkpt lat="50.27075" lon="4.55666">
        <ele>246.268337</ele>
        <time>2024-12-17T11:40:07.000Z</time>
      </trkpt>
      <trkpt lat="50.27073" lon="4.5566">
        <ele>246.343883</ele>
        <time>2024-12-17T11:40:08.000Z</time>
      </trkpt>
      <trkpt lat="50.27071" lon="4.55654">
        <ele>246.419712</ele>
        <time>2024-12-17T11:40:09.000Z</time>
      </trkpt>
      <trkpt lat="50.27069" lon="4.55647">
        <ele>246.496241</ele>
        <time>2024-12-17T11:40:10.000Z</time>
      </trkpt>
      <trkpt lat="50.27067" lon="4.55641">
        <ele>246.575454</ele>
        <time>2024-12-17T11:40:11.000Z</time>
      </trkpt>
      <trkpt lat="50.27066" lon="4.55634">
        <ele>246.65363</ele>
        <time>2024-12-17T11:40:12.000Z</time>
      </trkpt>
      <trkpt lat="50.27064" lon="4.55627">
        <ele>246.734452</ele>
        <time>2024-12-17T11:40:13.000Z</time>
      </trkpt>
      <trkpt lat="50.27062" lon="4.5562">
        <ele>246.813035</ele>
        <time>2024-12-17T11:40:14.000Z</time>
      </trkpt>
      <trkpt lat="50.27061" lon="4.55613">
        <ele>246.893102</ele>
        <time>2024-12-17T11:40:15.000Z</time>
      </trkpt>
      <trkpt lat="50.27059" lon="4.55606">
        <ele>246.971611</ele>
        <time>2024-12-17T11:40:16.000Z</time>
      </trkpt>
      <trkpt lat="50.27058" lon="4.55599">
        <ele>247.049625</ele>
        <time>2024-12-17T11:40:17.000Z</time>
      </trkpt>
      <trkpt lat="50.27056" lon="4.55593">
        <ele>247.12457</ele>
        <time>2024-12-17T11:40:18.000Z</time>
      </trkpt>
      <trkpt lat="50.27055" lon="4.55586">
        <ele>247.198957</ele>
        <time>2024-12-17T11:40:19.000Z</time>
      </trkpt>
      <trkpt lat="50.27054" lon="4.5558">
        <ele>247.273343</ele>
        <time>2024-12-17T11:40:20.000Z</time>
      </trkpt>
      <trkpt lat="50.27052" lon="4.55574">
        <ele>247.342613</ele>
        <time>2024-12-17T11:40:21.000Z</time>
      </trkpt>
      <trkpt lat="50.27051" lon="4.55568">
        <ele>247.407185</ele>
        <time>2024-12-17T11:40:22.000Z</time>
      </trkpt>
      <trkpt lat="50.2705" lon="4.55563">
        <ele>247.470242</ele>
        <time>2024-12-17T11:40:23.000Z</time>
      </trkpt>
      <trkpt lat="50.27049" lon="4.55557">
        <ele>247.531812</ele>
        <time>2024-12-17T11:40:24.000Z</time>
      </trkpt>
      <trkpt lat="50.27048" lon="4.55552">
        <ele>247.591927</ele>
        <time>2024-12-17T11:40:25.000Z</time>
      </trkpt>
      <trkpt lat="50.27048" lon="4.55547">
        <ele>247.647825</ele>
        <time>2024-12-17T11:40:26.000Z</time>
      </trkpt>
      <trkpt lat="50.27047" lon="4.55542">
        <ele>247.699492</ele>
        <time>2024-12-17T11:40:27.000Z</time>
      </trkpt>
      <trkpt lat="50.27046" lon="4.55538">
        <ele>247.743441</ele>
        <time>2024-12-17T11:40:28.000Z</time>
      </trkpt>
      <trkpt lat="50.27045" lon="4.55535">
        <ele>247.78274</ele>
        <time>2024-12-17T11:40:29.000Z</time>
      </trkpt>
      <trkpt lat="50.27045" lon="4.55532">
        <ele>247.814268</ele>
        <time>2024-12-17T11:40:30.000Z</time>
      </trkpt>
      <trkpt lat="50.27044" lon="4.55529">
        <ele>247.845058</ele>
        <time>2024-12-17T11:40:31.000Z</time>
      </trkpt>
      <trkpt lat="50.27044" lon="4.55526">
        <ele>247.879355</ele>
        <time>2024-12-17T11:40:32.000Z</time>
      </trkpt>
      <trkpt lat="50.27043" lon="4.55523">
        <ele>247.917191</ele>
        <time>2024-12-17T11:40:33.000Z</time>
      </trkpt>
      <trkpt lat="50.27043" lon="4.55519">
        <ele>247.95649</ele>
        <time>2024-12-17T11:40:34.000Z</time>
      </trkpt>
      <trkpt lat="50.27042" lon="4.55516">
        <ele>247.998939</ele>
        <time>2024-12-17T11:40:35.000Z</time>
      </trkpt>
      <trkpt lat="50.27042" lon="4.55512">
        <ele>248.042442</ele>
        <time>2024-12-17T11:40:36.000Z</time>
      </trkpt>
      <trkpt lat="50.27041" lon="4.55507">
        <ele>248.089514</ele>
        <time>2024-12-17T11:40:37.000Z</time>
      </trkpt>
      <trkpt lat="50.2704" lon="4.55503">
        <ele>248.137042</ele>
        <time>2024-12-17T11:40:38.000Z</time>
      </trkpt>
      <trkpt lat="50.27039" lon="4.55499">
        <ele>248.184055</ele>
        <time>2024-12-17T11:40:39.000Z</time>
      </trkpt>
      <trkpt lat="50.27038" lon="4.55495">
        <ele>248.231069</ele>
        <time>2024-12-17T11:40:40.000Z</time>
      </trkpt>
      <trkpt lat="50.27038" lon="4.55491">
        <ele>248.279637</ele>
        <time>2024-12-17T11:40:41.000Z</time>
      </trkpt>
      <trkpt lat="50.27037" lon="4.55486">
        <ele>248.328206</ele>
        <time>2024-12-17T11:40:42.000Z</time>
      </trkpt>
      <trkpt lat="50.27036" lon="4.55482">
        <ele>248.37886</ele>
        <time>2024-12-17T11:40:43.000Z</time>
      </trkpt>
      <trkpt lat="50.27035" lon="4.55478">
        <ele>248.427652</ele>
        <time>2024-12-17T11:40:44.000Z</time>
      </trkpt>
      <trkpt lat="50.27034" lon="4.55473">
        <ele>248.480345</ele>
        <time>2024-12-17T11:40:45.000Z</time>
      </trkpt>
      <trkpt lat="50.27034" lon="4.55468">
        <ele>248.533093</ele>
        <time>2024-12-17T11:40:46.000Z</time>
      </trkpt>
      <trkpt lat="50.27033" lon="4.55464">
        <ele>248.584228</ele>
        <time>2024-12-17T11:40:47.000Z</time>
      </trkpt>
      <trkpt lat="50.27032" lon="4.55459">
        <ele>248.63799</ele>
        <time>2024-12-17T11:40:48.000Z</time>
      </trkpt>
      <trkpt lat="50.27031" lon="4.55455">
        <ele>248.695942</ele>
        <time>2024-12-17T11:40:49.000Z</time>
      </trkpt>
      <trkpt lat="50.2703" lon="4.5545">
        <ele>248.755156</ele>
        <time>2024-12-17T11:40:50.000Z</time>
      </trkpt>
      <trkpt lat="50.27029" lon="4.55446">
        <ele>248.815459</ele>
        <time>2024-12-17T11:40:51.000Z</time>
      </trkpt>
      <trkpt lat="50.27028" lon="4.55441">
        <ele>248.876342</ele>
        <time>2024-12-17T11:40:52.000Z</time>
      </trkpt>
      <trkpt lat="50.27027" lon="4.55436">
        <ele>248.936706</ele>
        <time>2024-12-17T11:40:53.000Z</time>
      </trkpt>
      <trkpt lat="50.27025" lon="4.55432">
        <ele>248.996634</ele>
        <time>2024-12-17T11:40:54.000Z</time>
      </trkpt>
      <trkpt lat="50.27025" lon="4.55427">
        <ele>249.055227</ele>
        <time>2024-12-17T11:40:55.000Z</time>
      </trkpt>
      <trkpt lat="50.27024" lon="4.55423">
        <ele>249.108121</ele>
        <time>2024-12-17T11:40:56.000Z</time>
      </trkpt>
      <trkpt lat="50.27023" lon="4.55419">
        <ele>249.15701</ele>
        <time>2024-12-17T11:40:57.000Z</time>
      </trkpt>
      <trkpt lat="50.27023" lon="4.55416">
        <ele>249.199241</ele>
        <time>2024-12-17T11:40:58.000Z</time>
      </trkpt>
      <trkpt lat="50.27022" lon="4.55413">
        <ele>249.24221</ele>
        <time>2024-12-17T11:40:59.000Z</time>
      </trkpt>
      <trkpt lat="50.27021" lon="4.55409">
        <ele>249.286289</ele>
        <time>2024-12-17T11:41:00.000Z</time>
      </trkpt>
      <trkpt lat="50.27021" lon="4.55405">
        <ele>249.335592</ele>
        <time>2024-12-17T11:41:01.000Z</time>
      </trkpt>
      <trkpt lat="50.2702" lon="4.55401">
        <ele>249.384764</ele>
        <time>2024-12-17T11:41:02.000Z</time>
      </trkpt>
      <trkpt lat="50.27019" lon="4.55398">
        <ele>249.435106</ele>
        <time>2024-12-17T11:41:03.000Z</time>
      </trkpt>
      <trkpt lat="50.27018" lon="4.55394">
        <ele>249.483113</ele>
        <time>2024-12-17T11:41:04.000Z</time>
      </trkpt>
      <trkpt lat="50.27017" lon="4.5539">
        <ele>249.532487</ele>
        <time>2024-12-17T11:41:05.000Z</time>
      </trkpt>
      <trkpt lat="50.27016" lon="4.55386">
        <ele>249.585685</ele>
        <time>2024-12-17T11:41:06.000Z</time>
      </trkpt>
      <trkpt lat="50.27015" lon="4.55382">
        <ele>249.639593</ele>
        <time>2024-12-17T11:41:07.000Z</time>
      </trkpt>
      <trkpt lat="50.27013" lon="4.55379">
        <ele>249.692792</ele>
        <time>2024-12-17T11:41:08.000Z</time>
      </trkpt>
      <trkpt lat="50.27012" lon="4.55375">
        <ele>249.746852</ele>
        <time>2024-12-17T11:41:09.000Z</time>
      </trkpt>
      <trkpt lat="50.27011" lon="4.55371">
        <ele>249.802903</ele>
        <time>2024-12-17T11:41:10.000Z</time>
      </trkpt>
      <trkpt lat="50.27009" lon="4.55367">
        <ele>249.859911</ele>
        <time>2024-12-17T11:41:11.000Z</time>
      </trkpt>
      <trkpt lat="50.27008" lon="4.55363">
        <ele>249.911704</ele>
        <time>2024-12-17T11:41:12.000Z</time>
      </trkpt>
      <trkpt lat="50.27006" lon="4.5536">
        <ele>249.96052</ele>
        <time>2024-12-17T11:41:13.000Z</time>
      </trkpt>
      <trkpt lat="50.27005" lon="4.55357">
        <ele>250.00298</ele>
        <time>2024-12-17T11:41:14.000Z</time>
      </trkpt>
      <trkpt lat="50.27004" lon="4.55354">
        <ele>250.043832</ele>
        <time>2024-12-17T11:41:15.000Z</time>
      </trkpt>
      <trkpt lat="50.27003" lon="4.55352">
        <ele>250.079763</ele>
        <time>2024-12-17T11:41:16.000Z</time>
      </trkpt>
      <trkpt lat="50.27001" lon="4.5535">
        <ele>250.110371</ele>
        <time>2024-12-17T11:41:17.000Z</time>
      </trkpt>
      <trkpt lat="50.27" lon="4.55349">
        <ele>250.140979</ele>
        <time>2024-12-17T11:41:18.000Z</time>
      </trkpt>
      <trkpt lat="50.26999" lon="4.55347">
        <ele>250.175601</ele>
        <time>2024-12-17T11:41:19.000Z</time>
      </trkpt>
      <trkpt lat="50.26998" lon="4.55344">
        <ele>250.211148</ele>
        <time>2024-12-17T11:41:20.000Z</time>
      </trkpt>
      <trkpt lat="50.26997" lon="4.55342">
        <ele>250.247725</ele>
        <time>2024-12-17T11:41:21.000Z</time>
      </trkpt>
      <trkpt lat="50.26996" lon="4.55339">
        <ele>250.288224</ele>
        <time>2024-12-17T11:41:22.000Z</time>
      </trkpt>
      <trkpt lat="50.26995" lon="4.55336">
        <ele>250.330008</ele>
        <time>2024-12-17T11:41:23.000Z</time>
      </trkpt>
      <trkpt lat="50.26993" lon="4.55333">
        <ele>250.373977</ele>
        <time>2024-12-17T11:41:24.000Z</time>
      </trkpt>
      <trkpt lat="50.26992" lon="4.55331">
        <ele>250.418644</ele>
        <time>2024-12-17T11:41:25.000Z</time>
      </trkpt>
      <trkpt lat="50.2699" lon="4.55328">
        <ele>250.462612</ele>
        <time>2024-12-17T11:41:26.000Z</time>
      </trkpt>
      <trkpt lat="50.26989" lon="4.55325">
        <ele>250.507515</ele>
        <time>2024-12-17T11:41:27.000Z</time>
      </trkpt>
      <trkpt lat="50.26987" lon="4.55322">
        <ele>250.553367</ele>
        <time>2024-12-17T11:41:28.000Z</time>
      </trkpt>
      <trkpt lat="50.26986" lon="4.55319">
        <ele>250.598034</ele>
        <time>2024-12-17T11:41:29.000Z</time>
      </trkpt>
      <trkpt lat="50.26984" lon="4.55316">
        <ele>250.64512</ele>
        <time>2024-12-17T11:41:30.000Z</time>
      </trkpt>
      <trkpt lat="50.26983" lon="4.55314">
        <ele>250.692585</ele>
        <time>2024-12-17T11:41:31.000Z</time>
      </trkpt>
      <trkpt lat="50.26981" lon="4.55311">
        <ele>250.74005</ele>
        <time>2024-12-17T11:41:32.000Z</time>
      </trkpt>
      <trkpt lat="50.2698" lon="4.55308">
        <ele>250.785704</ele>
        <time>2024-12-17T11:41:33.000Z</time>
      </trkpt>
      <trkpt lat="50.26978" lon="4.55305">
        <ele>250.830251</ele>
        <time>2024-12-17T11:41:34.000Z</time>
      </trkpt>
      <trkpt lat="50.26977" lon="4.55302">
        <ele>250.870671</ele>
        <time>2024-12-17T11:41:35.000Z</time>
      </trkpt>
      <trkpt lat="50.26976" lon="4.553">
        <ele>250.907495</ele>
        <time>2024-12-17T11:41:36.000Z</time>
      </trkpt>
      <trkpt lat="50.26975" lon="4.55298">
        <ele>250.943042</ele>
        <time>2024-12-17T11:41:37.000Z</time>
      </trkpt>
      <trkpt lat="50.26973" lon="4.55295">
        <ele>250.978348</ele>
        <time>2024-12-17T11:41:38.000Z</time>
      </trkpt>
      <trkpt lat="50.26973" lon="4.55293">
        <ele>251.011494</ele>
        <time>2024-12-17T11:41:39.000Z</time>
      </trkpt>
      <trkpt lat="50.26972" lon="4.55291">
        <ele>251.043598</ele>
        <time>2024-12-17T11:41:40.000Z</time>
      </trkpt>
      <trkpt lat="50.2697" lon="4.55288">
        <ele>251.081049</ele>
        <time>2024-12-17T11:41:41.000Z</time>
      </trkpt>
      <trkpt lat="50.26969" lon="4.55286">
        <ele>251.123193</ele>
        <time>2024-12-17T11:41:42.000Z</time>
      </trkpt>
      <trkpt lat="50.26968" lon="4.55283">
        <ele>251.166886</ele>
        <time>2024-12-17T11:41:43.000Z</time>
      </trkpt>
      <trkpt lat="50.26966" lon="4.5528">
        <ele>251.214908</ele>
        <time>2024-12-17T11:41:44.000Z</time>
      </trkpt>
      <trkpt lat="50.26965" lon="4.55277">
        <ele>251.260563</ele>
        <time>2024-12-17T11:41:45.000Z</time>
      </trkpt>
      <trkpt lat="50.26963" lon="4.55274">
        <ele>251.306132</ele>
        <time>2024-12-17T11:41:46.000Z</time>
      </trkpt>
      <trkpt lat="50.26962" lon="4.55271">
        <ele>251.356067</ele>
        <time>2024-12-17T11:41:47.000Z</time>
      </trkpt>
      <trkpt lat="50.2696" lon="4.55268">
        <ele>251.407209</ele>
        <time>2024-12-17T11:41:48.000Z</time>
      </trkpt>
      <trkpt lat="50.26958" lon="4.55264">
        <ele>251.459102</ele>
        <time>2024-12-17T11:41:49.000Z</time>
      </trkpt>
      <trkpt lat="50.26957" lon="4.55261">
        <ele>251.51199</ele>
        <time>2024-12-17T11:41:50.000Z</time>
      </trkpt>
      <trkpt lat="50.26955" lon="4.55257">
        <ele>251.567003</ele>
        <time>2024-12-17T11:41:51.000Z</time>
      </trkpt>
      <trkpt lat="50.26953" lon="4.55253">
        <ele>251.623009</ele>
        <time>2024-12-17T11:41:52.000Z</time>
      </trkpt>
      <trkpt lat="50.26952" lon="4.5525">
        <ele>251.676917</ele>
        <time>2024-12-17T11:41:53.000Z</time>
      </trkpt>
      <trkpt lat="50.2695" lon="4.55246">
        <ele>251.734937</ele>
        <time>2024-12-17T11:41:54.000Z</time>
      </trkpt>
      <trkpt lat="50.26949" lon="4.55242">
        <ele>251.790943</ele>
        <time>2024-12-17T11:41:55.000Z</time>
      </trkpt>
      <trkpt lat="50.26947" lon="4.55238">
        <ele>251.851069</ele>
        <time>2024-12-17T11:41:56.000Z</time>
      </trkpt>
      <trkpt lat="50.26945" lon="4.55234">
        <ele>251.911164</ele>
        <time>2024-12-17T11:41:57.000Z</time>
      </trkpt>
      <trkpt lat="50.26944" lon="4.5523">
        <ele>251.970297</ele>
        <time>2024-12-17T11:41:58.000Z</time>
      </trkpt>
      <trkpt lat="50.26942" lon="4.55225">
        <ele>252.031588</ele>
        <time>2024-12-17T11:41:59.000Z</time>
      </trkpt>
      <trkpt lat="50.2694" lon="4.55221">
        <ele>252.090843</ele>
        <time>2024-12-17T11:42:00.000Z</time>
      </trkpt>
      <trkpt lat="50.26939" lon="4.55217">
        <ele>252.135665</ele>
        <time>2024-12-17T11:42:01.000Z</time>
      </trkpt>
      <trkpt lat="50.26937" lon="4.55212">
        <ele>252.178371</ele>
        <time>2024-12-17T11:42:02.000Z</time>
      </trkpt>
      <trkpt lat="50.26936" lon="4.55208">
        <ele>252.220996</ele>
        <time>2024-12-17T11:42:03.000Z</time>
      </trkpt>
      <trkpt lat="50.26934" lon="4.55204">
        <ele>252.265074</ele>
        <time>2024-12-17T11:42:04.000Z</time>
      </trkpt>
      <trkpt lat="50.26932" lon="4.552">
        <ele>252.30845</ele>
        <time>2024-12-17T11:42:05.000Z</time>
      </trkpt>
      <trkpt lat="50.26931" lon="4.55195">
        <ele>252.351501</ele>
        <time>2024-12-17T11:42:06.000Z</time>
      </trkpt>
      <trkpt lat="50.2693" lon="4.55191">
        <ele>252.389463</ele>
        <time>2024-12-17T11:42:07.000Z</time>
      </trkpt>
      <trkpt lat="50.26928" lon="4.55187">
        <ele>252.4277</ele>
        <time>2024-12-17T11:42:08.000Z</time>
      </trkpt>
      <trkpt lat="50.26927" lon="4.55184">
        <ele>252.46224</ele>
        <time>2024-12-17T11:42:09.000Z</time>
      </trkpt>
      <trkpt lat="50.26926" lon="4.55181">
        <ele>252.495295</ele>
        <time>2024-12-17T11:42:10.000Z</time>
      </trkpt>
      <trkpt lat="50.26925" lon="4.55178">
        <ele>252.524791</ele>
        <time>2024-12-17T11:42:11.000Z</time>
      </trkpt>
      <trkpt lat="50.26924" lon="4.55175">
        <ele>252.549386</ele>
        <time>2024-12-17T11:42:12.000Z</time>
      </trkpt>
      <trkpt lat="50.26923" lon="4.55173">
        <ele>252.572983</ele>
        <time>2024-12-17T11:42:13.000Z</time>
      </trkpt>
      <trkpt lat="50.26922" lon="4.5517">
        <ele>252.597241</ele>
        <time>2024-12-17T11:42:14.000Z</time>
      </trkpt>
      <trkpt lat="50.26922" lon="4.55168">
        <ele>252.622397</ele>
        <time>2024-12-17T11:42:15.000Z</time>
      </trkpt>
      <trkpt lat="50.26921" lon="4.55165">
        <ele>252.648971</ele>
        <time>2024-12-17T11:42:16.000Z</time>
      </trkpt>
      <trkpt lat="50.26921" lon="4.55162">
        <ele>252.675156</ele>
        <time>2024-12-17T11:42:17.000Z</time>
      </trkpt>
      <trkpt lat="50.2692" lon="4.55159">
        <ele>252.702998</ele>
        <time>2024-12-17T11:42:18.000Z</time>
      </trkpt>
      <trkpt lat="50.26919" lon="4.55156">
        <ele>252.731337</ele>
        <time>2024-12-17T11:42:19.000Z</time>
      </trkpt>
      <trkpt lat="50.26918" lon="4.55153">
        <ele>252.760228</ele>
        <time>2024-12-17T11:42:20.000Z</time>
      </trkpt>
      <trkpt lat="50.26918" lon="4.5515">
        <ele>252.790138</ele>
        <time>2024-12-17T11:42:21.000Z</time>
      </trkpt>
      <trkpt lat="50.26917" lon="4.55146">
        <ele>252.820048</ele>
        <time>2024-12-17T11:42:22.000Z</time>
      </trkpt>
      <trkpt lat="50.26916" lon="4.55143">
        <ele>252.85213</ele>
        <time>2024-12-17T11:42:23.000Z</time>
      </trkpt>
      <trkpt lat="50.26915" lon="4.55139">
        <ele>252.884935</ele>
        <time>2024-12-17T11:42:24.000Z</time>
      </trkpt>
      <trkpt lat="50.26915" lon="4.55136">
        <ele>252.916906</ele>
        <time>2024-12-17T11:42:25.000Z</time>
      </trkpt>
      <trkpt lat="50.26914" lon="4.55132">
        <ele>252.949876</ele>
        <time>2024-12-17T11:42:26.000Z</time>
      </trkpt>
      <trkpt lat="50.26914" lon="4.55128">
        <ele>252.984</ele>
        <time>2024-12-17T11:42:27.000Z</time>
      </trkpt>
      <trkpt lat="50.26913" lon="4.55124">
        <ele>253.018677</ele>
        <time>2024-12-17T11:42:28.000Z</time>
      </trkpt>
      <trkpt lat="50.26912" lon="4.5512">
        <ele>253.053647</ele>
        <time>2024-12-17T11:42:29.000Z</time>
      </trkpt>
      <trkpt lat="50.26912" lon="4.55117">
        <ele>253.088618</ele>
        <time>2024-12-17T11:42:30.000Z</time>
      </trkpt>
      <trkpt lat="50.26911" lon="4.55113">
        <ele>253.123295</ele>
        <time>2024-12-17T11:42:31.000Z</time>
      </trkpt>
      <trkpt lat="50.26911" lon="4.55109">
        <ele>253.159453</ele>
        <time>2024-12-17T11:42:32.000Z</time>
      </trkpt>
      <trkpt lat="50.26911" lon="4.55105">
        <ele>253.194563</ele>
        <time>2024-12-17T11:42:33.000Z</time>
      </trkpt>
      <trkpt lat="50.2691" lon="4.55101">
        <ele>253.228809</ele>
        <time>2024-12-17T11:42:34.000Z</time>
      </trkpt>
      <trkpt lat="50.2691" lon="4.55096">
        <ele>253.265652</ele>
        <time>2024-12-17T11:42:35.000Z</time>
      </trkpt>
      <trkpt lat="50.2691" lon="4.55092">
        <ele>253.302671</ele>
        <time>2024-12-17T11:42:36.000Z</time>
      </trkpt>
      <trkpt lat="50.26909" lon="4.55088">
        <ele>253.34019</ele>
        <time>2024-12-17T11:42:37.000Z</time>
      </trkpt>
      <trkpt lat="50.26909" lon="4.55084">
        <ele>253.378072</ele>
        <time>2024-12-17T11:42:38.000Z</time>
      </trkpt>
      <trkpt lat="50.26908" lon="4.5508">
        <ele>253.415316</ele>
        <time>2024-12-17T11:42:39.000Z</time>
      </trkpt>
      <trkpt lat="50.26908" lon="4.55075">
        <ele>253.451474</ele>
        <time>2024-12-17T11:42:40.000Z</time>
      </trkpt>
      <trkpt lat="50.26907" lon="4.55071">
        <ele>253.486585</ele>
        <time>2024-12-17T11:42:41.000Z</time>
      </trkpt>
      <trkpt lat="50.26907" lon="4.55067">
        <ele>253.521881</ele>
        <time>2024-12-17T11:42:42.000Z</time>
      </trkpt>
      <trkpt lat="50.26907" lon="4.55064">
        <ele>253.556315</ele>
        <time>2024-12-17T11:42:43.000Z</time>
      </trkpt>
      <trkpt lat="50.26906" lon="4.5506">
        <ele>253.590138</ele>
        <time>2024-12-17T11:42:44.000Z</time>
      </trkpt>
      <trkpt lat="50.26906" lon="4.55056">
        <ele>253.623712</ele>
        <time>2024-12-17T11:42:45.000Z</time>
      </trkpt>
      <trkpt lat="50.26905" lon="4.55052">
        <ele>253.657958</ele>
        <time>2024-12-17T11:42:46.000Z</time>
      </trkpt>
      <trkpt lat="50.26905" lon="4.55048">
        <ele>253.692635</ele>
        <time>2024-12-17T11:42:47.000Z</time>
      </trkpt>
      <trkpt lat="50.26904" lon="4.55044">
        <ele>253.726274</ele>
        <time>2024-12-17T11:42:48.000Z</time>
      </trkpt>
      <trkpt lat="50.26904" lon="4.55041">
        <ele>253.758246</ele>
        <time>2024-12-17T11:42:49.000Z</time>
      </trkpt>
      <trkpt lat="50.26903" lon="4.55038">
        <ele>253.783166</ele>
        <time>2024-12-17T11:42:50.000Z</time>
      </trkpt>
      <trkpt lat="50.26902" lon="4.55036">
        <ele>253.805172</ele>
        <time>2024-12-17T11:42:51.000Z</time>
      </trkpt>
      <trkpt lat="50.26902" lon="4.55033">
        <ele>253.82701</ele>
        <time>2024-12-17T11:42:52.000Z</time>
      </trkpt>
      <trkpt lat="50.26903" lon="4.55031">
        <ele>253.844072</ele>
        <time>2024-12-17T11:42:53.000Z</time>
      </trkpt>
      <trkpt lat="50.26903" lon="4.5503">
        <ele>253.860859</ele>
        <time>2024-12-17T11:42:54.000Z</time>
      </trkpt>
      <trkpt lat="50.26903" lon="4.55027">
        <ele>253.882178</ele>
        <time>2024-12-17T11:42:55.000Z</time>
      </trkpt>
      <trkpt lat="50.26902" lon="4.55024">
        <ele>253.907789</ele>
        <time>2024-12-17T11:42:56.000Z</time>
      </trkpt>
      <trkpt lat="50.26902" lon="4.55021">
        <ele>253.938786</ele>
        <time>2024-12-17T11:42:57.000Z</time>
      </trkpt>
      <trkpt lat="50.26902" lon="4.55017">
        <ele>253.969572</ele>
        <time>2024-12-17T11:42:58.000Z</time>
      </trkpt>
      <trkpt lat="50.26901" lon="4.55013">
        <ele>254.003395</ele>
        <time>2024-12-17T11:42:59.000Z</time>
      </trkpt>
      <trkpt lat="50.26901" lon="4.5501">
        <ele>254.038072</ele>
        <time>2024-12-17T11:43:00.000Z</time>
      </trkpt>
      <trkpt lat="50.269" lon="4.55006">
        <ele>254.073183</ele>
        <time>2024-12-17T11:43:01.000Z</time>
      </trkpt>
      <trkpt lat="50.269" lon="4.55002">
        <ele>254.109002</ele>
        <time>2024-12-17T11:43:02.000Z</time>
      </trkpt>
      <trkpt lat="50.26899" lon="4.54998">
        <ele>254.144317</ele>
        <time>2024-12-17T11:43:03.000Z</time>
      </trkpt>
      <trkpt lat="50.26898" lon="4.54994">
        <ele>254.180024</ele>
        <time>2024-12-17T11:43:04.000Z</time>
      </trkpt>
      <trkpt lat="50.26897" lon="4.5499">
        <ele>254.215732</ele>
        <time>2024-12-17T11:43:05.000Z</time>
      </trkpt>
      <trkpt lat="50.26897" lon="4.54986">
        <ele>254.250409</ele>
        <time>2024-12-17T11:43:06.000Z</time>
      </trkpt>
      <trkpt lat="50.26896" lon="4.54982">
        <ele>254.284232</ele>
        <time>2024-12-17T11:43:07.000Z</time>
      </trkpt>
      <trkpt lat="50.26896" lon="4.54978">
        <ele>254.318478</ele>
        <time>2024-12-17T11:43:08.000Z</time>
      </trkpt>
      <trkpt lat="50.26896" lon="4.54974">
        <ele>254.353773</ele>
        <time>2024-12-17T11:43:09.000Z</time>
      </trkpt>
      <trkpt lat="50.26895" lon="4.5497">
        <ele>254.388652</ele>
        <time>2024-12-17T11:43:10.000Z</time>
      </trkpt>
      <trkpt lat="50.26894" lon="4.54967">
        <ele>254.42436</ele>
        <time>2024-12-17T11:43:11.000Z</time>
      </trkpt>
      <trkpt lat="50.26893" lon="4.54963">
        <ele>254.459675</ele>
        <time>2024-12-17T11:43:12.000Z</time>
      </trkpt>
      <trkpt lat="50.26893" lon="4.54959">
        <ele>254.49499</ele>
        <time>2024-12-17T11:43:13.000Z</time>
      </trkpt>
      <trkpt lat="50.26892" lon="4.54955">
        <ele>254.528217</ele>
        <time>2024-12-17T11:43:14.000Z</time>
      </trkpt>
      <trkpt lat="50.26892" lon="4.54952">
        <ele>254.568774</ele>
        <time>2024-12-17T11:43:15.000Z</time>
      </trkpt>
      <trkpt lat="50.26892" lon="4.54948">
        <ele>254.612561</ele>
        <time>2024-12-17T11:43:16.000Z</time>
      </trkpt>
      <trkpt lat="50.26892" lon="4.54946">
        <ele>254.647021</ele>
        <time>2024-12-17T11:43:17.000Z</time>
      </trkpt>
      <trkpt lat="50.26891" lon="4.54944">
        <ele>254.671824</ele>
        <time>2024-12-17T11:43:18.000Z</time>
      </trkpt>
      <trkpt lat="50.26891" lon="4.54944">
        <ele>254.680913</ele>
        <time>2024-12-17T11:43:19.000Z</time>
      </trkpt>
      <trkpt lat="50.26888" lon="4.54939">
        <ele>254.766068</ele>
        <time>2024-12-17T11:44:55.000Z</time>
      </trkpt>
      <trkpt lat="50.26888" lon="4.54936">
        <ele>254.801513</ele>
        <time>2024-12-17T11:44:56.000Z</time>
      </trkpt>
      <trkpt lat="50.26888" lon="4.54934">
        <ele>254.836222</ele>
        <time>2024-12-17T11:44:57.000Z</time>
      </trkpt>
      <trkpt lat="50.26887" lon="4.54931">
        <ele>254.870931</ele>
        <time>2024-12-17T11:44:58.000Z</time>
      </trkpt>
      <trkpt lat="50.26887" lon="4.54928">
        <ele>254.916472</ele>
        <time>2024-12-17T11:44:59.000Z</time>
      </trkpt>
      <trkpt lat="50.26886" lon="4.54924">
        <ele>254.965738</ele>
        <time>2024-12-17T11:45:00.000Z</time>
      </trkpt>
      <trkpt lat="50.26885" lon="4.54921">
        <ele>255.018904</ele>
        <time>2024-12-17T11:45:01.000Z</time>
      </trkpt>
      <trkpt lat="50.26884" lon="4.54917">
        <ele>255.073191</ele>
        <time>2024-12-17T11:45:02.000Z</time>
      </trkpt>
      <trkpt lat="50.26884" lon="4.54913">
        <ele>255.126218</ele>
        <time>2024-12-17T11:45:03.000Z</time>
      </trkpt>
      <trkpt lat="50.26883" lon="4.54909">
        <ele>255.179929</ele>
        <time>2024-12-17T11:45:04.000Z</time>
      </trkpt>
      <trkpt lat="50.26882" lon="4.54905">
        <ele>255.237386</ele>
        <time>2024-12-17T11:45:05.000Z</time>
      </trkpt>
      <trkpt lat="50.26881" lon="4.54901">
        <ele>255.292936</ele>
        <time>2024-12-17T11:45:06.000Z</time>
      </trkpt>
      <trkpt lat="50.2688" lon="4.54897">
        <ele>255.350464</ele>
        <time>2024-12-17T11:45:07.000Z</time>
      </trkpt>
      <trkpt lat="50.2688" lon="4.54893">
        <ele>255.407504</ele>
        <time>2024-12-17T11:45:08.000Z</time>
      </trkpt>
      <trkpt lat="50.26879" lon="4.54888">
        <ele>255.465032</ele>
        <time>2024-12-17T11:45:09.000Z</time>
      </trkpt>
      <trkpt lat="50.26878" lon="4.54884">
        <ele>255.521849</ele>
        <time>2024-12-17T11:45:10.000Z</time>
      </trkpt>
      <trkpt lat="50.26877" lon="4.5488">
        <ele>255.584344</ele>
        <time>2024-12-17T11:45:11.000Z</time>
      </trkpt>
      <trkpt lat="50.26876" lon="4.54876">
        <ele>255.643278</ele>
        <time>2024-12-17T11:45:12.000Z</time>
      </trkpt>
      <trkpt lat="50.26875" lon="4.54872">
        <ele>255.700735</ele>
        <time>2024-12-17T11:45:13.000Z</time>
      </trkpt>
      <trkpt lat="50.26875" lon="4.54867">
        <ele>255.756056</ele>
        <time>2024-12-17T11:45:14.000Z</time>
      </trkpt>
      <trkpt lat="50.26874" lon="4.54863">
        <ele>255.811023</ele>
        <time>2024-12-17T11:45:15.000Z</time>
      </trkpt>
      <trkpt lat="50.26873" lon="4.54859">
        <ele>255.86795</ele>
        <time>2024-12-17T11:45:16.000Z</time>
      </trkpt>
      <trkpt lat="50.26872" lon="4.54855">
        <ele>255.922917</ele>
        <time>2024-12-17T11:45:17.000Z</time>
      </trkpt>
      <trkpt lat="50.26872" lon="4.54852">
        <ele>255.976607</ele>
        <time>2024-12-17T11:45:18.000Z</time>
      </trkpt>
      <trkpt lat="50.26871" lon="4.54847">
        <ele>256.033424</ele>
        <time>2024-12-17T11:45:19.000Z</time>
      </trkpt>
      <trkpt lat="50.2687" lon="4.54843">
        <ele>256.088975</ele>
        <time>2024-12-17T11:45:20.000Z</time>
      </trkpt>
      <trkpt lat="50.26869" lon="4.54839">
        <ele>256.145179</ele>
        <time>2024-12-17T11:45:21.000Z</time>
      </trkpt>
      <trkpt lat="50.26869" lon="4.54835">
        <ele>256.200927</ele>
        <time>2024-12-17T11:45:22.000Z</time>
      </trkpt>
      <trkpt lat="50.26868" lon="4.54831">
        <ele>256.259738</ele>
        <time>2024-12-17T11:45:23.000Z</time>
      </trkpt>
      <trkpt lat="50.26867" lon="4.54827">
        <ele>256.320369</ele>
        <time>2024-12-17T11:45:24.000Z</time>
      </trkpt>
      <trkpt lat="50.26866" lon="4.54822">
        <ele>256.380466</ele>
        <time>2024-12-17T11:45:25.000Z</time>
      </trkpt>
      <trkpt lat="50.26866" lon="4.54818">
        <ele>256.441097</ele>
        <time>2024-12-17T11:45:26.000Z</time>
      </trkpt>
      <trkpt lat="50.26865" lon="4.54813">
        <ele>256.504858</ele>
        <time>2024-12-17T11:45:27.000Z</time>
      </trkpt>
      <trkpt lat="50.26864" lon="4.54809">
        <ele>256.569954</ele>
        <time>2024-12-17T11:45:28.000Z</time>
      </trkpt>
      <trkpt lat="50.26863" lon="4.54804">
        <ele>256.630601</ele>
        <time>2024-12-17T11:45:29.000Z</time>
      </trkpt>
      <trkpt lat="50.26862" lon="4.548">
        <ele>256.694457</ele>
        <time>2024-12-17T11:45:30.000Z</time>
      </trkpt>
      <trkpt lat="50.2686" lon="4.54795">
        <ele>256.761119</ele>
        <time>2024-12-17T11:45:31.000Z</time>
      </trkpt>
      <trkpt lat="50.26859" lon="4.54791">
        <ele>256.825517</ele>
        <time>2024-12-17T11:45:32.000Z</time>
      </trkpt>
      <trkpt lat="50.26859" lon="4.54786">
        <ele>256.88948</ele>
        <time>2024-12-17T11:45:33.000Z</time>
      </trkpt>
      <trkpt lat="50.26858" lon="4.54781">
        <ele>256.953944</ele>
        <time>2024-12-17T11:45:34.000Z</time>
      </trkpt>
      <trkpt lat="50.26857" lon="4.54776">
        <ele>257.020974</ele>
        <time>2024-12-17T11:45:35.000Z</time>
      </trkpt>
      <trkpt lat="50.26856" lon="4.54772">
        <ele>257.087888</ele>
        <time>2024-12-17T11:45:36.000Z</time>
      </trkpt>
      <trkpt lat="50.26855" lon="4.54767">
        <ele>257.154188</ele>
        <time>2024-12-17T11:45:37.000Z</time>
      </trkpt>
      <trkpt lat="50.26854" lon="4.54762">
        <ele>257.222363</ele>
        <time>2024-12-17T11:45:38.000Z</time>
      </trkpt>
      <trkpt lat="50.26853" lon="4.54757">
        <ele>257.288017</ele>
        <time>2024-12-17T11:45:39.000Z</time>
      </trkpt>
      <trkpt lat="50.26852" lon="4.54752">
        <ele>257.353046</ele>
        <time>2024-12-17T11:45:40.000Z</time>
      </trkpt>
      <trkpt lat="50.26851" lon="4.54748">
        <ele>257.413678</ele>
        <time>2024-12-17T11:45:41.000Z</time>
      </trkpt>
      <trkpt lat="50.2685" lon="4.54743">
        <ele>257.481251</ele>
        <time>2024-12-17T11:45:42.000Z</time>
      </trkpt>
      <trkpt lat="50.2685" lon="4.54739">
        <ele>257.545012</ele>
        <time>2024-12-17T11:45:43.000Z</time>
      </trkpt>
      <trkpt lat="50.26849" lon="4.54734">
        <ele>257.605643</ele>
        <time>2024-12-17T11:45:44.000Z</time>
      </trkpt>
      <trkpt lat="50.26848" lon="4.5473">
        <ele>257.668138</ele>
        <time>2024-12-17T11:45:45.000Z</time>
      </trkpt>
      <trkpt lat="50.26847" lon="4.54725">
        <ele>257.731899</ele>
        <time>2024-12-17T11:45:46.000Z</time>
      </trkpt>
      <trkpt lat="50.26846" lon="4.5472">
        <ele>257.797553</ele>
        <time>2024-12-17T11:45:47.000Z</time>
      </trkpt>
      <trkpt lat="50.26845" lon="4.54716">
        <ele>257.862649</ele>
        <time>2024-12-17T11:45:48.000Z</time>
      </trkpt>
      <trkpt lat="50.26844" lon="4.54711">
        <ele>257.92388</ele>
        <time>2024-12-17T11:45:49.000Z</time>
      </trkpt>
      <trkpt lat="50.26843" lon="4.54707">
        <ele>257.987025</ele>
        <time>2024-12-17T11:45:50.000Z</time>
      </trkpt>
      <trkpt lat="50.26842" lon="4.54703">
        <ele>258.047673</ele>
        <time>2024-12-17T11:45:51.000Z</time>
      </trkpt>
      <trkpt lat="50.26841" lon="4.54698">
        <ele>258.105759</ele>
        <time>2024-12-17T11:45:52.000Z</time>
      </trkpt>
      <trkpt lat="50.2684" lon="4.54694">
        <ele>258.165163</ele>
        <time>2024-12-17T11:45:53.000Z</time>
      </trkpt>
      <trkpt lat="50.26839" lon="4.5469">
        <ele>258.223728</ele>
        <time>2024-12-17T11:45:54.000Z</time>
      </trkpt>
      <trkpt lat="50.26838" lon="4.54686">
        <ele>258.289856</ele>
        <time>2024-12-17T11:45:55.000Z</time>
      </trkpt>
      <trkpt lat="50.26837" lon="4.54683">
        <ele>258.375142</ele>
        <time>2024-12-17T11:45:56.000Z</time>
      </trkpt>
      <trkpt lat="50.26836" lon="4.5468">
        <ele>258.45728</ele>
        <time>2024-12-17T11:45:57.000Z</time>
      </trkpt>
      <trkpt lat="50.26835" lon="4.54676">
        <ele>258.543109</ele>
        <time>2024-12-17T11:45:58.000Z</time>
      </trkpt>
      <trkpt lat="50.26833" lon="4.54673">
        <ele>258.628938</ele>
        <time>2024-12-17T11:45:59.000Z</time>
      </trkpt>
      <trkpt lat="50.26832" lon="4.5467">
        <ele>258.716739</ele>
        <time>2024-12-17T11:46:00.000Z</time>
      </trkpt>
      <trkpt lat="50.26831" lon="4.54666">
        <ele>258.802568</ele>
        <time>2024-12-17T11:46:01.000Z</time>
      </trkpt>
      <trkpt lat="50.2683" lon="4.54663">
        <ele>258.892133</ele>
        <time>2024-12-17T11:46:02.000Z</time>
      </trkpt>
      <trkpt lat="50.26828" lon="4.54659">
        <ele>258.985471</ele>
        <time>2024-12-17T11:46:03.000Z</time>
      </trkpt>
      <trkpt lat="50.26827" lon="4.54656">
        <ele>259.083056</ele>
        <time>2024-12-17T11:46:04.000Z</time>
      </trkpt>
      <trkpt lat="50.26825" lon="4.54653">
        <ele>259.172765</ele>
        <time>2024-12-17T11:46:05.000Z</time>
      </trkpt>
      <trkpt lat="50.26824" lon="4.5465">
        <ele>259.264609</ele>
        <time>2024-12-17T11:46:06.000Z</time>
      </trkpt>
      <trkpt lat="50.26822" lon="4.54646">
        <ele>259.358245</ele>
        <time>2024-12-17T11:46:07.000Z</time>
      </trkpt>
      <trkpt lat="50.2682" lon="4.54643">
        <ele>259.449786</ele>
        <time>2024-12-17T11:46:08.000Z</time>
      </trkpt>
      <trkpt lat="50.26819" lon="4.5464">
        <ele>259.539495</ele>
        <time>2024-12-17T11:46:09.000Z</time>
      </trkpt>
      <trkpt lat="50.26817" lon="4.54637">
        <ele>259.62957</ele>
        <time>2024-12-17T11:46:10.000Z</time>
      </trkpt>
      <trkpt lat="50.26816" lon="4.54634">
        <ele>259.709644</ele>
        <time>2024-12-17T11:46:11.000Z</time>
      </trkpt>
      <trkpt lat="50.26814" lon="4.54631">
        <ele>259.800278</ele>
        <time>2024-12-17T11:46:12.000Z</time>
      </trkpt>
      <trkpt lat="50.26812" lon="4.54628">
        <ele>259.89737</ele>
        <time>2024-12-17T11:46:13.000Z</time>
      </trkpt>
      <trkpt lat="50.26811" lon="4.54624">
        <ele>259.993734</ele>
        <time>2024-12-17T11:46:14.000Z</time>
      </trkpt>
      <trkpt lat="50.26809" lon="4.54622">
        <ele>260.092801</ele>
        <time>2024-12-17T11:46:15.000Z</time>
      </trkpt>
      <trkpt lat="50.26807" lon="4.54619">
        <ele>260.185819</ele>
        <time>2024-12-17T11:46:16.000Z</time>
      </trkpt>
      <trkpt lat="50.26805" lon="4.54616">
        <ele>260.273121</ele>
        <time>2024-12-17T11:46:17.000Z</time>
      </trkpt>
      <trkpt lat="50.26803" lon="4.54613">
        <ele>260.357203</ele>
        <time>2024-12-17T11:46:18.000Z</time>
      </trkpt>
      <trkpt lat="50.26802" lon="4.54611">
        <ele>260.443849</ele>
        <time>2024-12-17T11:46:19.000Z</time>
      </trkpt>
      <trkpt lat="50.268" lon="4.54608">
        <ele>260.52793</ele>
        <time>2024-12-17T11:46:20.000Z</time>
      </trkpt>
      <trkpt lat="50.26798" lon="4.54605">
        <ele>260.610521</ele>
        <time>2024-12-17T11:46:21.000Z</time>
      </trkpt>
      <trkpt lat="50.26797" lon="4.54602">
        <ele>260.696198</ele>
        <time>2024-12-17T11:46:22.000Z</time>
      </trkpt>
      <trkpt lat="50.26795" lon="4.546">
        <ele>260.781103</ele>
        <time>2024-12-17T11:46:23.000Z</time>
      </trkpt>
      <trkpt lat="50.26793" lon="4.54597">
        <ele>260.868406</ele>
        <time>2024-12-17T11:46:24.000Z</time>
      </trkpt>
      <trkpt lat="50.26792" lon="4.54594">
        <ele>260.955052</ele>
        <time>2024-12-17T11:46:25.000Z</time>
      </trkpt>
      <trkpt lat="50.2679" lon="4.54592">
        <ele>261.040729</ele>
        <time>2024-12-17T11:46:26.000Z</time>
      </trkpt>
      <trkpt lat="50.26788" lon="4.54589">
        <ele>261.120706</ele>
        <time>2024-12-17T11:46:27.000Z</time>
      </trkpt>
      <trkpt lat="50.26786" lon="4.54587">
        <ele>261.204351</ele>
        <time>2024-12-17T11:46:28.000Z</time>
      </trkpt>
      <trkpt lat="50.26785" lon="4.54584">
        <ele>261.285337</ele>
        <time>2024-12-17T11:46:29.000Z</time>
      </trkpt>
      <trkpt lat="50.26783" lon="4.54582">
        <ele>261.369419</ele>
        <time>2024-12-17T11:46:30.000Z</time>
      </trkpt>
      <trkpt lat="50.26781" lon="4.54579">
        <ele>261.461757</ele>
        <time>2024-12-17T11:46:31.000Z</time>
      </trkpt>
      <trkpt lat="50.2678" lon="4.54576">
        <ele>261.552391</ele>
        <time>2024-12-17T11:46:32.000Z</time>
      </trkpt>
      <trkpt lat="50.26778" lon="4.54573">
        <ele>261.639694</ele>
        <time>2024-12-17T11:46:33.000Z</time>
      </trkpt>
      <trkpt lat="50.26776" lon="4.5457">
        <ele>261.721284</ele>
        <time>2024-12-17T11:46:34.000Z</time>
      </trkpt>
      <trkpt lat="50.26775" lon="4.54568">
        <ele>261.797167</ele>
        <time>2024-12-17T11:46:35.000Z</time>
      </trkpt>
      <trkpt lat="50.26773" lon="4.54565">
        <ele>261.879684</ele>
        <time>2024-12-17T11:46:36.000Z</time>
      </trkpt>
      <trkpt lat="50.26772" lon="4.54563">
        <ele>261.962918</ele>
        <time>2024-12-17T11:46:37.000Z</time>
      </trkpt>
      <trkpt lat="50.2677" lon="4.5456">
        <ele>262.040433</ele>
        <time>2024-12-17T11:46:38.000Z</time>
      </trkpt>
      <trkpt lat="50.26768" lon="4.54557">
        <ele>262.127079</ele>
        <time>2024-12-17T11:46:39.000Z</time>
      </trkpt>
      <trkpt lat="50.26767" lon="4.54555">
        <ele>262.211161</ele>
        <time>2024-12-17T11:46:40.000Z</time>
      </trkpt>
      <trkpt lat="50.26765" lon="4.54552">
        <ele>262.29629</ele>
        <time>2024-12-17T11:46:41.000Z</time>
      </trkpt>
      <trkpt lat="50.26763" lon="4.5455">
        <ele>262.384486</ele>
        <time>2024-12-17T11:46:42.000Z</time>
      </trkpt>
      <trkpt lat="50.26761" lon="4.54547">
        <ele>262.470163</ele>
        <time>2024-12-17T11:46:43.000Z</time>
      </trkpt>
      <trkpt lat="50.26759" lon="4.54544">
        <ele>262.55681</ele>
        <time>2024-12-17T11:46:44.000Z</time>
      </trkpt>
      <trkpt lat="50.26758" lon="4.54542">
        <ele>262.637796</ele>
        <time>2024-12-17T11:46:45.000Z</time>
      </trkpt>
      <trkpt lat="50.26756" lon="4.5454">
        <ele>262.707496</ele>
        <time>2024-12-17T11:46:46.000Z</time>
      </trkpt>
      <trkpt lat="50.26755" lon="4.54538">
        <ele>262.776092</ele>
        <time>2024-12-17T11:46:47.000Z</time>
      </trkpt>
      <trkpt lat="50.26753" lon="4.54536">
        <ele>262.846272</ele>
        <time>2024-12-17T11:46:48.000Z</time>
      </trkpt>
      <trkpt lat="50.26752" lon="4.54534">
        <ele>262.920555</ele>
        <time>2024-12-17T11:46:49.000Z</time>
      </trkpt>
      <trkpt lat="50.26751" lon="4.54531">
        <ele>262.991673</ele>
        <time>2024-12-17T11:46:50.000Z</time>
      </trkpt>
      <trkpt lat="50.26749" lon="4.54529">
        <ele>263.067556</ele>
        <time>2024-12-17T11:46:51.000Z</time>
      </trkpt>
      <trkpt lat="50.26747" lon="4.54526">
        <ele>263.144405</ele>
        <time>2024-12-17T11:46:52.000Z</time>
      </trkpt>
      <trkpt lat="50.26746" lon="4.54524">
        <ele>263.215522</ele>
        <time>2024-12-17T11:46:53.000Z</time>
      </trkpt>
      <trkpt lat="50.26745" lon="4.54522">
        <ele>263.28664</ele>
        <time>2024-12-17T11:46:54.000Z</time>
      </trkpt>
      <trkpt lat="50.26743" lon="4.54519">
        <ele>263.361978</ele>
        <time>2024-12-17T11:46:55.000Z</time>
      </trkpt>
      <trkpt lat="50.26742" lon="4.54518">
        <ele>263.430238</ele>
        <time>2024-12-17T11:46:56.000Z</time>
      </trkpt>
      <trkpt lat="50.2674" lon="4.54515">
        <ele>263.506121</ele>
        <time>2024-12-17T11:46:57.000Z</time>
      </trkpt>
      <trkpt lat="50.26739" lon="4.54513">
        <ele>263.574717</ele>
        <time>2024-12-17T11:46:58.000Z</time>
      </trkpt>
      <trkpt lat="50.26737" lon="4.54511">
        <ele>263.641578</ele>
        <time>2024-12-17T11:46:59.000Z</time>
      </trkpt>
      <trkpt lat="50.26736" lon="4.54509">
        <ele>263.706062</ele>
        <time>2024-12-17T11:47:00.000Z</time>
      </trkpt>
      <trkpt lat="50.26735" lon="4.54507">
        <ele>263.773793</ele>
        <time>2024-12-17T11:47:01.000Z</time>
      </trkpt>
      <trkpt lat="50.26733" lon="4.54505">
        <ele>263.845594</ele>
        <time>2024-12-17T11:47:02.000Z</time>
      </trkpt>
      <trkpt lat="50.26732" lon="4.54503">
        <ele>263.915774</ele>
        <time>2024-12-17T11:47:03.000Z</time>
      </trkpt>
      <trkpt lat="50.2673" lon="4.545">
        <ele>263.991112</ele>
        <time>2024-12-17T11:47:04.000Z</time>
      </trkpt>
      <trkpt lat="50.26729" lon="4.54498">
        <ele>264.064566</ele>
        <time>2024-12-17T11:47:05.000Z</time>
      </trkpt>
      <trkpt lat="50.26728" lon="4.54495">
        <ele>264.139705</ele>
        <time>2024-12-17T11:47:06.000Z</time>
      </trkpt>
      <trkpt lat="50.26726" lon="4.54493">
        <ele>264.218101</ele>
        <time>2024-12-17T11:47:07.000Z</time>
      </trkpt>
      <trkpt lat="50.26725" lon="4.54491">
        <ele>264.289901</ele>
        <time>2024-12-17T11:47:08.000Z</time>
      </trkpt>
      <trkpt lat="50.26723" lon="4.54488">
        <ele>264.364185</ele>
        <time>2024-12-17T11:47:09.000Z</time>
      </trkpt>
      <trkpt lat="50.26721" lon="4.54486">
        <ele>264.444162</ele>
        <time>2024-12-17T11:47:10.000Z</time>
      </trkpt>
      <trkpt lat="50.2672" lon="4.54483">
        <ele>264.52668</ele>
        <time>2024-12-17T11:47:11.000Z</time>
      </trkpt>
      <trkpt lat="50.26718" lon="4.54481">
        <ele>264.604196</ele>
        <time>2024-12-17T11:47:12.000Z</time>
      </trkpt>
      <trkpt lat="50.26717" lon="4.54478">
        <ele>264.652116</ele>
        <time>2024-12-17T11:47:13.000Z</time>
      </trkpt>
      <trkpt lat="50.26716" lon="4.54476">
        <ele>264.689132</ele>
        <time>2024-12-17T11:47:14.000Z</time>
      </trkpt>
      <trkpt lat="50.26714" lon="4.54473">
        <ele>264.726148</ele>
        <time>2024-12-17T11:47:15.000Z</time>
      </trkpt>
      <trkpt lat="50.26713" lon="4.54471">
        <ele>264.765154</ele>
        <time>2024-12-17T11:47:16.000Z</time>
      </trkpt>
      <trkpt lat="50.26711" lon="4.54468">
        <ele>264.802537</ele>
        <time>2024-12-17T11:47:17.000Z</time>
      </trkpt>
      <trkpt lat="50.2671" lon="4.54466">
        <ele>264.841256</ele>
        <time>2024-12-17T11:47:18.000Z</time>
      </trkpt>
      <trkpt lat="50.26708" lon="4.54463">
        <ele>264.88162</ele>
        <time>2024-12-17T11:47:19.000Z</time>
      </trkpt>
      <trkpt lat="50.26707" lon="4.5446">
        <ele>264.922988</ele>
        <time>2024-12-17T11:47:20.000Z</time>
      </trkpt>
      <trkpt lat="50.26706" lon="4.54457">
        <ele>264.964279</ele>
        <time>2024-12-17T11:47:21.000Z</time>
      </trkpt>
      <trkpt lat="50.26705" lon="4.54453">
        <ele>265.006562</ele>
        <time>2024-12-17T11:47:22.000Z</time>
      </trkpt>
      <trkpt lat="50.26703" lon="4.5445">
        <ele>265.049816</ele>
        <time>2024-12-17T11:47:23.000Z</time>
      </trkpt>
      <trkpt lat="50.26702" lon="4.54447">
        <ele>265.093939</ele>
        <time>2024-12-17T11:47:24.000Z</time>
      </trkpt>
      <trkpt lat="50.26701" lon="4.54443">
        <ele>265.139988</ele>
        <time>2024-12-17T11:47:25.000Z</time>
      </trkpt>
      <trkpt lat="50.267" lon="4.54439">
        <ele>265.18422</ele>
        <time>2024-12-17T11:47:26.000Z</time>
      </trkpt>
      <trkpt lat="50.26698" lon="4.54436">
        <ele>265.225669</ele>
        <time>2024-12-17T11:47:27.000Z</time>
      </trkpt>
      <trkpt lat="50.26698" lon="4.54433">
        <ele>265.262901</ele>
        <time>2024-12-17T11:47:28.000Z</time>
      </trkpt>
      <trkpt lat="50.26697" lon="4.5443">
        <ele>265.29791</ele>
        <time>2024-12-17T11:47:29.000Z</time>
      </trkpt>
      <trkpt lat="50.26696" lon="4.54427">
        <ele>265.331053</ele>
        <time>2024-12-17T11:47:30.000Z</time>
      </trkpt>
      <trkpt lat="50.26695" lon="4.54425">
        <ele>265.36521</ele>
        <time>2024-12-17T11:47:31.000Z</time>
      </trkpt>
      <trkpt lat="50.26695" lon="4.54422">
        <ele>265.401411</ele>
        <time>2024-12-17T11:47:32.000Z</time>
      </trkpt>
      <trkpt lat="50.26694" lon="4.54418">
        <ele>265.439679</ele>
        <time>2024-12-17T11:47:33.000Z</time>
      </trkpt>
      <trkpt lat="50.26693" lon="4.54415">
        <ele>265.482126</ele>
        <time>2024-12-17T11:47:34.000Z</time>
      </trkpt>
      <trkpt lat="50.26692" lon="4.54411">
        <ele>265.530405</ele>
        <time>2024-12-17T11:47:35.000Z</time>
      </trkpt>
      <trkpt lat="50.26691" lon="4.54406">
        <ele>265.580281</ele>
        <time>2024-12-17T11:47:36.000Z</time>
      </trkpt>
      <trkpt lat="50.26691" lon="4.54402">
        <ele>265.630157</ele>
        <time>2024-12-17T11:47:37.000Z</time>
      </trkpt>
      <trkpt lat="50.2669" lon="4.54397">
        <ele>265.683733</ele>
        <time>2024-12-17T11:47:38.000Z</time>
      </trkpt>
      <trkpt lat="50.26689" lon="4.54393">
        <ele>265.739959</ele>
        <time>2024-12-17T11:47:39.000Z</time>
      </trkpt>
      <trkpt lat="50.26688" lon="4.54388">
        <ele>265.791538</ele>
        <time>2024-12-17T11:47:40.000Z</time>
      </trkpt>
      <trkpt lat="50.26687" lon="4.54384">
        <ele>265.842733</ele>
        <time>2024-12-17T11:47:41.000Z</time>
      </trkpt>
      <trkpt lat="50.26687" lon="4.5438">
        <ele>265.889996</ele>
        <time>2024-12-17T11:47:42.000Z</time>
      </trkpt>
      <trkpt lat="50.26686" lon="4.54376">
        <ele>265.933711</ele>
        <time>2024-12-17T11:47:43.000Z</time>
      </trkpt>
      <trkpt lat="50.26685" lon="4.54372">
        <ele>265.976407</ele>
        <time>2024-12-17T11:47:44.000Z</time>
      </trkpt>
      <trkpt lat="50.26684" lon="4.54369">
        <ele>266.01725</ele>
        <time>2024-12-17T11:47:45.000Z</time>
      </trkpt>
      <trkpt lat="50.26683" lon="4.54366">
        <ele>266.054918</ele>
        <time>2024-12-17T11:47:46.000Z</time>
      </trkpt>
      <trkpt lat="50.26683" lon="4.54363">
        <ele>266.092585</ele>
        <time>2024-12-17T11:47:47.000Z</time>
      </trkpt>
      <trkpt lat="50.26682" lon="4.54359">
        <ele>266.135032</ele>
        <time>2024-12-17T11:47:48.000Z</time>
      </trkpt>
      <trkpt lat="50.26681" lon="4.54355">
        <ele>266.181831</ele>
        <time>2024-12-17T11:47:49.000Z</time>
      </trkpt>
      <trkpt lat="50.2668" lon="4.54351">
        <ele>266.230848</ele>
        <time>2024-12-17T11:47:50.000Z</time>
      </trkpt>
      <trkpt lat="50.2668" lon="4.54346">
        <ele>266.284225</ele>
        <time>2024-12-17T11:47:51.000Z</time>
      </trkpt>
      <trkpt lat="50.26679" lon="4.54341">
        <ele>266.341005</ele>
        <time>2024-12-17T11:47:52.000Z</time>
      </trkpt>
      <trkpt lat="50.26677" lon="4.54336">
        <ele>266.400486</ele>
        <time>2024-12-17T11:47:53.000Z</time>
      </trkpt>
      <trkpt lat="50.26676" lon="4.54331">
        <ele>266.463325</ele>
        <time>2024-12-17T11:47:54.000Z</time>
      </trkpt>
      <trkpt lat="50.26675" lon="4.54326">
        <ele>266.524897</ele>
        <time>2024-12-17T11:47:55.000Z</time>
      </trkpt>
      <trkpt lat="50.26674" lon="4.5432">
        <ele>266.591208</ele>
        <time>2024-12-17T11:47:56.000Z</time>
      </trkpt>
      <trkpt lat="50.26673" lon="4.54315">
        <ele>266.655931</ele>
        <time>2024-12-17T11:47:57.000Z</time>
      </trkpt>
      <trkpt lat="50.26671" lon="4.54309">
        <ele>266.722527</ele>
        <time>2024-12-17T11:47:58.000Z</time>
      </trkpt>
      <trkpt lat="50.26669" lon="4.54304">
        <ele>266.787309</ele>
        <time>2024-12-17T11:47:59.000Z</time>
      </trkpt>
      <trkpt lat="50.26667" lon="4.543">
        <ele>266.852579</ele>
        <time>2024-12-17T11:48:00.000Z</time>
      </trkpt>
      <trkpt lat="50.26663" lon="4.54296">
        <ele>266.919645</ele>
        <time>2024-12-17T11:48:01.000Z</time>
      </trkpt>
      <trkpt lat="50.2666" lon="4.54295">
        <ele>266.979921</ele>
        <time>2024-12-17T11:48:02.000Z</time>
      </trkpt>
      <trkpt lat="50.26657" lon="4.54296">
        <ele>267.032202</ele>
        <time>2024-12-17T11:48:03.000Z</time>
      </trkpt>
      <trkpt lat="50.26654" lon="4.54297">
        <ele>267.079759</ele>
        <time>2024-12-17T11:48:04.000Z</time>
      </trkpt>
      <trkpt lat="50.26652" lon="4.54299">
        <ele>267.123015</ele>
        <time>2024-12-17T11:48:05.000Z</time>
      </trkpt>
      <trkpt lat="50.2665" lon="4.543">
        <ele>267.159648</ele>
        <time>2024-12-17T11:48:06.000Z</time>
      </trkpt>
      <trkpt lat="50.26649" lon="4.54302">
        <ele>267.19192</ele>
        <time>2024-12-17T11:48:07.000Z</time>
      </trkpt>
      <trkpt lat="50.26648" lon="4.54304">
        <ele>267.215431</ele>
        <time>2024-12-17T11:48:08.000Z</time>
      </trkpt>
      <trkpt lat="50.26648" lon="4.54304">
        <ele>267.222113</ele>
        <time>2024-12-17T11:48:09.000Z</time>
      </trkpt>
      <trkpt lat="50.26642" lon="4.54306">
        <ele>267.336047</ele>
        <time>2024-12-17T11:48:52.000Z</time>
      </trkpt>
      <trkpt lat="50.2664" lon="4.54307">
        <ele>267.361654</ele>
        <time>2024-12-17T11:48:53.000Z</time>
      </trkpt>
      <trkpt lat="50.26639" lon="4.54308">
        <ele>267.388166</ele>
        <time>2024-12-17T11:48:54.000Z</time>
      </trkpt>
      <trkpt lat="50.26637" lon="4.54308">
        <ele>267.414677</ele>
        <time>2024-12-17T11:48:55.000Z</time>
      </trkpt>
      <trkpt lat="50.26636" lon="4.54309">
        <ele>267.44195</ele>
        <time>2024-12-17T11:48:56.000Z</time>
      </trkpt>
      <trkpt lat="50.26634" lon="4.5431">
        <ele>267.471574</ele>
        <time>2024-12-17T11:48:57.000Z</time>
      </trkpt>
      <trkpt lat="50.26633" lon="4.54311">
        <ele>267.503218</ele>
        <time>2024-12-17T11:48:58.000Z</time>
      </trkpt>
      <trkpt lat="50.2663" lon="4.54312">
        <ele>267.542566</ele>
        <time>2024-12-17T11:48:59.000Z</time>
      </trkpt>
      <trkpt lat="50.26628" lon="4.54313">
        <ele>267.579887</ele>
        <time>2024-12-17T11:49:00.000Z</time>
      </trkpt>
      <trkpt lat="50.26626" lon="4.54315">
        <ele>267.623144</ele>
        <time>2024-12-17T11:49:01.000Z</time>
      </trkpt>
      <trkpt lat="50.26624" lon="4.54316">
        <ele>267.663841</ele>
        <time>2024-12-17T11:49:02.000Z</time>
      </trkpt>
      <trkpt lat="50.26622" lon="4.54318">
        <ele>267.702979</ele>
        <time>2024-12-17T11:49:03.000Z</time>
      </trkpt>
      <trkpt lat="50.2662" lon="4.5432">
        <ele>267.75089</ele>
        <time>2024-12-17T11:49:04.000Z</time>
      </trkpt>
      <trkpt lat="50.26617" lon="4.54322">
        <ele>267.78326</ele>
        <time>2024-12-17T11:49:05.000Z</time>
      </trkpt>
      <trkpt lat="50.26615" lon="4.54324">
        <ele>267.808985</ele>
        <time>2024-12-17T11:49:06.000Z</time>
      </trkpt>
      <trkpt lat="50.26613" lon="4.54326">
        <ele>267.830408</ele>
        <time>2024-12-17T11:49:07.000Z</time>
      </trkpt>
      <trkpt lat="50.26611" lon="4.54328">
        <ele>267.84736</ele>
        <time>2024-12-17T11:49:08.000Z</time>
      </trkpt>
      <trkpt lat="50.2661" lon="4.5433">
        <ele>267.866904</ele>
        <time>2024-12-17T11:49:09.000Z</time>
      </trkpt>
      <trkpt lat="50.26608" lon="4.54332">
        <ele>267.886574</ele>
        <time>2024-12-17T11:49:10.000Z</time>
      </trkpt>
      <trkpt lat="50.26606" lon="4.54334">
        <ele>267.907353</ele>
        <time>2024-12-17T11:49:11.000Z</time>
      </trkpt>
      <trkpt lat="50.26604" lon="4.54335">
        <ele>267.926144</ele>
        <time>2024-12-17T11:49:12.000Z</time>
      </trkpt>
      <trkpt lat="50.26603" lon="4.54338">
        <ele>267.948618</ele>
        <time>2024-12-17T11:49:13.000Z</time>
      </trkpt>
      <trkpt lat="50.266" lon="4.54341">
        <ele>267.975881</ele>
        <time>2024-12-17T11:49:14.000Z</time>
      </trkpt>
      <trkpt lat="50.26598" lon="4.54343">
        <ele>267.999196</ele>
        <time>2024-12-17T11:49:15.000Z</time>
      </trkpt>
      <trkpt lat="50.26596" lon="4.54345">
        <ele>268.023949</ele>
        <time>2024-12-17T11:49:16.000Z</time>
      </trkpt>
      <trkpt lat="50.26594" lon="4.54348">
        <ele>268.053449</ele>
        <time>2024-12-17T11:49:17.000Z</time>
      </trkpt>
      <trkpt lat="50.26591" lon="4.54352">
        <ele>268.085235</ele>
        <time>2024-12-17T11:49:18.000Z</time>
      </trkpt>
      <trkpt lat="50.26589" lon="4.54355">
        <ele>268.114164</ele>
        <time>2024-12-17T11:49:19.000Z</time>
      </trkpt>
      <trkpt lat="50.26586" lon="4.54359">
        <ele>268.145153</ele>
        <time>2024-12-17T11:49:20.000Z</time>
      </trkpt>
      <trkpt lat="50.26584" lon="4.54362">
        <ele>268.171915</ele>
        <time>2024-12-17T11:49:21.000Z</time>
      </trkpt>
      <trkpt lat="50.26583" lon="4.54364">
        <ele>268.194432</ele>
        <time>2024-12-17T11:49:22.000Z</time>
      </trkpt>
      <trkpt lat="50.2658" lon="4.54368">
        <ele>268.223627</ele>
        <time>2024-12-17T11:49:23.000Z</time>
      </trkpt>
      <trkpt lat="50.26578" lon="4.54371">
        <ele>268.257602</ele>
        <time>2024-12-17T11:49:24.000Z</time>
      </trkpt>
      <trkpt lat="50.26575" lon="4.54376">
        <ele>268.290537</ele>
        <time>2024-12-17T11:49:25.000Z</time>
      </trkpt>
      <trkpt lat="50.26573" lon="4.54379">
        <ele>268.318235</ele>
        <time>2024-12-17T11:49:26.000Z</time>
      </trkpt>
      <trkpt lat="50.2657" lon="4.54382">
        <ele>268.349983</ele>
        <time>2024-12-17T11:49:27.000Z</time>
      </trkpt>
      <trkpt lat="50.26568" lon="4.54385">
        <ele>268.381769</ele>
        <time>2024-12-17T11:49:28.000Z</time>
      </trkpt>
      <trkpt lat="50.26566" lon="4.54389">
        <ele>268.411668</ele>
        <time>2024-12-17T11:49:29.000Z</time>
      </trkpt>
      <trkpt lat="50.26565" lon="4.54392">
        <ele>268.433838</ele>
        <time>2024-12-17T11:49:30.000Z</time>
      </trkpt>
      <trkpt lat="50.26563" lon="4.54395">
        <ele>268.456146</ele>
        <time>2024-12-17T11:49:31.000Z</time>
      </trkpt>
      <trkpt lat="50.26561" lon="4.54398">
        <ele>268.480899</ele>
        <time>2024-12-17T11:49:32.000Z</time>
      </trkpt>
      <trkpt lat="50.26559" lon="4.544">
        <ele>268.503104</ele>
        <time>2024-12-17T11:49:33.000Z</time>
      </trkpt>
      <trkpt lat="50.26557" lon="4.54402">
        <ele>268.526718</ele>
        <time>2024-12-17T11:49:34.000Z</time>
      </trkpt>
      <trkpt lat="50.26555" lon="4.54404">
        <ele>268.54846</ele>
        <time>2024-12-17T11:49:35.000Z</time>
      </trkpt>
      <trkpt lat="50.26553" lon="4.54407">
        <ele>268.570202</ele>
        <time>2024-12-17T11:49:36.000Z</time>
      </trkpt>
      <trkpt lat="50.26551" lon="4.54409">
        <ele>268.595995</ele>
        <time>2024-12-17T11:49:37.000Z</time>
      </trkpt>
      <trkpt lat="50.26549" lon="4.54411">
        <ele>268.620907</ele>
        <time>2024-12-17T11:49:38.000Z</time>
      </trkpt>
      <trkpt lat="50.26547" lon="4.54413">
        <ele>268.643906</ele>
        <time>2024-12-17T11:49:39.000Z</time>
      </trkpt>
      <trkpt lat="50.26545" lon="4.54416">
        <ele>268.666778</ele>
        <time>2024-12-17T11:49:40.000Z</time>
      </trkpt>
      <trkpt lat="50.26543" lon="4.54418">
        <ele>268.692206</ele>
        <time>2024-12-17T11:49:41.000Z</time>
      </trkpt>
      <trkpt lat="50.26541" lon="4.54421">
        <ele>268.717634</ele>
        <time>2024-12-17T11:49:42.000Z</time>
      </trkpt>
      <trkpt lat="50.26539" lon="4.54424">
        <ele>268.742742</ele>
        <time>2024-12-17T11:49:43.000Z</time>
      </trkpt>
      <trkpt lat="50.26536" lon="4.54427">
        <ele>268.771142</ele>
        <time>2024-12-17T11:49:44.000Z</time>
      </trkpt>
      <trkpt lat="50.26534" lon="4.54429">
        <ele>268.794367</ele>
        <time>2024-12-17T11:49:45.000Z</time>
      </trkpt>
      <trkpt lat="50.26533" lon="4.54432">
        <ele>268.815007</ele>
        <time>2024-12-17T11:49:46.000Z</time>
      </trkpt>
      <trkpt lat="50.26531" lon="4.54434">
        <ele>268.836748</ele>
        <time>2024-12-17T11:49:47.000Z</time>
      </trkpt>
      <trkpt lat="50.26529" lon="4.54437">
        <ele>268.861461</ele>
        <time>2024-12-17T11:49:48.000Z</time>
      </trkpt>
      <trkpt lat="50.26527" lon="4.54439">
        <ele>268.887273</ele>
        <time>2024-12-17T11:49:49.000Z</time>
      </trkpt>
      <trkpt lat="50.26525" lon="4.54442">
        <ele>268.91196</ele>
        <time>2024-12-17T11:49:50.000Z</time>
      </trkpt>
      <trkpt lat="50.26523" lon="4.54444">
        <ele>268.934434</ele>
        <time>2024-12-17T11:49:51.000Z</time>
      </trkpt>
      <trkpt lat="50.26521" lon="4.54447">
        <ele>268.955855</ele>
        <time>2024-12-17T11:49:52.000Z</time>
      </trkpt>
      <trkpt lat="50.2652" lon="4.54449">
        <ele>268.976358</ele>
        <time>2024-12-17T11:49:53.000Z</time>
      </trkpt>
      <trkpt lat="50.26519" lon="4.54452">
        <ele>268.993994</ele>
        <time>2024-12-17T11:49:54.000Z</time>
      </trkpt>
      <trkpt lat="50.26517" lon="4.54454">
        <ele>269.013647</ele>
        <time>2024-12-17T11:49:55.000Z</time>
      </trkpt>
      <trkpt lat="50.26516" lon="4.54457">
        <ele>269.036121</ele>
        <time>2024-12-17T11:49:56.000Z</time>
      </trkpt>
      <trkpt lat="50.26514" lon="4.54458">
        <ele>269.053448</ele>
        <time>2024-12-17T11:49:57.000Z</time>
      </trkpt>
      <trkpt lat="50.26513" lon="4.54459">
        <ele>269.068701</ele>
        <time>2024-12-17T11:49:58.000Z</time>
      </trkpt>
      <trkpt lat="50.26511" lon="4.54461">
        <ele>269.086386</ele>
        <time>2024-12-17T11:49:59.000Z</time>
      </trkpt>
      <trkpt lat="50.2651" lon="4.54462">
        <ele>269.099938</ele>
        <time>2024-12-17T11:50:00.000Z</time>
      </trkpt>
      <trkpt lat="50.26509" lon="4.54463">
        <ele>269.111551</ele>
        <time>2024-12-17T11:50:01.000Z</time>
      </trkpt>
      <trkpt lat="50.26508" lon="4.54465">
        <ele>269.123643</ele>
        <time>2024-12-17T11:50:02.000Z</time>
      </trkpt>
      <trkpt lat="50.26507" lon="4.54467">
        <ele>269.139615</ele>
        <time>2024-12-17T11:50:03.000Z</time>
      </trkpt>
      <trkpt lat="50.26494" lon="4.54487">
        <ele>269.308853</ele>
        <time>2024-12-17T11:50:14.000Z</time>
      </trkpt>
      <trkpt lat="50.26492" lon="4.54487">
        <ele>269.324116</ele>
        <time>2024-12-17T11:50:15.000Z</time>
      </trkpt>
      <trkpt lat="50.26491" lon="4.54488">
        <ele>269.337127</ele>
        <time>2024-12-17T11:50:16.000Z</time>
      </trkpt>
      <trkpt lat="50.2649" lon="4.54489">
        <ele>269.350876</ele>
        <time>2024-12-17T11:50:17.000Z</time>
      </trkpt>
      <trkpt lat="50.26489" lon="4.54491">
        <ele>269.362969</ele>
        <time>2024-12-17T11:50:18.000Z</time>
      </trkpt>
      <trkpt lat="50.26488" lon="4.54492">
        <ele>269.379188</ele>
        <time>2024-12-17T11:50:19.000Z</time>
      </trkpt>
      <trkpt lat="50.26486" lon="4.54494">
        <ele>269.395591</ele>
        <time>2024-12-17T11:50:20.000Z</time>
      </trkpt>
      <trkpt lat="50.26485" lon="4.54495">
        <ele>269.40975</ele>
        <time>2024-12-17T11:50:21.000Z</time>
      </trkpt>
      <trkpt lat="50.26485" lon="4.54496">
        <ele>269.415301</ele>
        <time>2024-12-17T11:50:22.000Z</time>
      </trkpt>
      <trkpt lat="50.26484" lon="4.54496">
        <ele>269.419743</ele>
        <time>2024-12-17T11:50:23.000Z</time>
      </trkpt>
      <trkpt lat="50.26484" lon="4.54497">
        <ele>269.427118</ele>
        <time>2024-12-17T11:50:24.000Z</time>
      </trkpt>
      <trkpt lat="50.26483" lon="4.54498">
        <ele>269.435417</ele>
        <time>2024-12-17T11:50:25.000Z</time>
      </trkpt>
      <trkpt lat="50.26482" lon="4.54498">
        <ele>269.439345</ele>
        <time>2024-12-17T11:50:26.000Z</time>
      </trkpt>
      <trkpt lat="50.26468" lon="4.54512">
        <ele>269.542207</ele>
        <time>2024-12-17T11:51:38.000Z</time>
      </trkpt>
      <trkpt lat="50.26466" lon="4.54514">
        <ele>269.553412</ele>
        <time>2024-12-17T11:51:39.000Z</time>
      </trkpt>
      <trkpt lat="50.26465" lon="4.54515">
        <ele>269.562022</ele>
        <time>2024-12-17T11:51:40.000Z</time>
      </trkpt>
      <trkpt lat="50.26464" lon="4.54517">
        <ele>269.573177</ele>
        <time>2024-12-17T11:51:41.000Z</time>
      </trkpt>
      <trkpt lat="50.26462" lon="4.54519">
        <ele>269.584621</ele>
        <time>2024-12-17T11:51:42.000Z</time>
      </trkpt>
      <trkpt lat="50.26461" lon="4.54521">
        <ele>269.596499</ele>
        <time>2024-12-17T11:51:43.000Z</time>
      </trkpt>
      <trkpt lat="50.26459" lon="4.54524">
        <ele>269.608631</ele>
        <time>2024-12-17T11:51:44.000Z</time>
      </trkpt>
      <trkpt lat="50.26458" lon="4.54526">
        <ele>269.621974</ele>
        <time>2024-12-17T11:51:45.000Z</time>
      </trkpt>
      <trkpt lat="50.26456" lon="4.54528">
        <ele>269.634086</ele>
        <time>2024-12-17T11:51:46.000Z</time>
      </trkpt>
      <trkpt lat="50.26454" lon="4.5453">
        <ele>269.648114</ele>
        <time>2024-12-17T11:51:47.000Z</time>
      </trkpt>
      <trkpt lat="50.26453" lon="4.54533">
        <ele>269.662955</ele>
        <time>2024-12-17T11:51:48.000Z</time>
      </trkpt>
      <trkpt lat="50.26452" lon="4.54536">
        <ele>269.674145</ele>
        <time>2024-12-17T11:51:49.000Z</time>
      </trkpt>
      <trkpt lat="50.26452" lon="4.54538">
        <ele>269.680665</ele>
        <time>2024-12-17T11:51:50.000Z</time>
      </trkpt>
      <trkpt lat="50.26451" lon="4.5454">
        <ele>269.688612</ele>
        <time>2024-12-17T11:51:51.000Z</time>
      </trkpt>
      <trkpt lat="50.26451" lon="4.54542">
        <ele>269.699157</ele>
        <time>2024-12-17T11:51:52.000Z</time>
      </trkpt>
      <trkpt lat="50.2645" lon="4.54544">
        <ele>269.707738</ele>
        <time>2024-12-17T11:51:53.000Z</time>
      </trkpt>
      <trkpt lat="50.26448" lon="4.54546">
        <ele>269.718243</ele>
        <time>2024-12-17T11:51:54.000Z</time>
      </trkpt>
      <trkpt lat="50.26447" lon="4.54548">
        <ele>269.73012</ele>
        <time>2024-12-17T11:51:55.000Z</time>
      </trkpt>
      <trkpt lat="50.26445" lon="4.54549">
        <ele>269.742356</ele>
        <time>2024-12-17T11:51:56.000Z</time>
      </trkpt>
      <trkpt lat="50.26444" lon="4.5455">
        <ele>269.747759</ele>
        <time>2024-12-17T11:51:57.000Z</time>
      </trkpt>
      <trkpt lat="50.26444" lon="4.54552">
        <ele>269.753201</ele>
        <time>2024-12-17T11:51:58.000Z</time>
      </trkpt>
      <trkpt lat="50.26443" lon="4.54553">
        <ele>269.759328</ele>
        <time>2024-12-17T11:51:59.000Z</time>
      </trkpt>
      <trkpt lat="50.26443" lon="4.54554">
        <ele>269.765768</ele>
        <time>2024-12-17T11:52:00.000Z</time>
      </trkpt>
      <trkpt lat="50.26442" lon="4.54556">
        <ele>269.775572</ele>
        <time>2024-12-17T11:52:01.000Z</time>
      </trkpt>
      <trkpt lat="50.26441" lon="4.54557">
        <ele>269.783484</ele>
        <time>2024-12-17T11:52:02.000Z</time>
      </trkpt>
      <trkpt lat="50.2644" lon="4.54558">
        <ele>269.791888</ele>
        <time>2024-12-17T11:52:03.000Z</time>
      </trkpt>
      <trkpt lat="50.26439" lon="4.54559">
        <ele>269.798866</ele>
        <time>2024-12-17T11:52:04.000Z</time>
      </trkpt>
      <trkpt lat="50.26438" lon="4.5456">
        <ele>269.806718</ele>
        <time>2024-12-17T11:52:05.000Z</time>
      </trkpt>
      <trkpt lat="50.26436" lon="4.54562">
        <ele>269.815624</ele>
        <time>2024-12-17T11:52:06.000Z</time>
      </trkpt>
      <trkpt lat="50.26435" lon="4.54563">
        <ele>269.824237</ele>
        <time>2024-12-17T11:52:07.000Z</time>
      </trkpt>
      <trkpt lat="50.26434" lon="4.54565">
        <ele>269.835263</ele>
        <time>2024-12-17T11:52:08.000Z</time>
      </trkpt>
      <trkpt lat="50.26433" lon="4.54567">
        <ele>269.845214</ele>
        <time>2024-12-17T11:52:09.000Z</time>
      </trkpt>
      <trkpt lat="50.26432" lon="4.54568">
        <ele>269.852974</ele>
        <time>2024-12-17T11:52:10.000Z</time>
      </trkpt>
      <trkpt lat="50.26431" lon="4.54569">
        <ele>269.860826</ele>
        <time>2024-12-17T11:52:11.000Z</time>
      </trkpt>
      <trkpt lat="50.2643" lon="4.5457">
        <ele>269.866061</ele>
        <time>2024-12-17T11:52:12.000Z</time>
      </trkpt>
      <trkpt lat="50.26429" lon="4.54571">
        <ele>269.871234</ele>
        <time>2024-12-17T11:52:13.000Z</time>
      </trkpt>
      <trkpt lat="50.26428" lon="4.54572">
        <ele>269.879637</ele>
        <time>2024-12-17T11:52:14.000Z</time>
      </trkpt>
      <trkpt lat="50.26427" lon="4.54573">
        <ele>269.888041</ele>
        <time>2024-12-17T11:52:15.000Z</time>
      </trkpt>
      <trkpt lat="50.26426" lon="4.54574">
        <ele>269.895744</ele>
        <time>2024-12-17T11:52:16.000Z</time>
      </trkpt>
      <trkpt lat="50.26425" lon="4.54575">
        <ele>269.903069</ele>
        <time>2024-12-17T11:52:17.000Z</time>
      </trkpt>
      <trkpt lat="50.26423" lon="4.54577">
        <ele>269.911931</ele>
        <time>2024-12-17T11:52:18.000Z</time>
      </trkpt>
      <trkpt lat="50.26403" lon="4.54589">
        <ele>270.040134</ele>
        <time>2024-12-17T11:52:32.000Z</time>
      </trkpt>
      <trkpt lat="50.26401" lon="4.5459">
        <ele>270.050773</ele>
        <time>2024-12-17T11:52:33.000Z</time>
      </trkpt>
      <trkpt lat="50.264" lon="4.54592">
        <ele>270.062402</ele>
        <time>2024-12-17T11:52:34.000Z</time>
      </trkpt>
      <trkpt lat="50.26398" lon="4.54594">
        <ele>270.077416</ele>
        <time>2024-12-17T11:52:35.000Z</time>
      </trkpt>
      <trkpt lat="50.26397" lon="4.54596">
        <ele>270.08749</ele>
        <time>2024-12-17T11:52:36.000Z</time>
      </trkpt>
      <trkpt lat="50.26395" lon="4.546">
        <ele>270.104653</ele>
        <time>2024-12-17T11:52:37.000Z</time>
      </trkpt>
      <trkpt lat="50.26394" lon="4.54601">
        <ele>270.115345</ele>
        <time>2024-12-17T11:52:38.000Z</time>
      </trkpt>
      <trkpt lat="50.26392" lon="4.54603">
        <ele>270.127198</ele>
        <time>2024-12-17T11:52:39.000Z</time>
      </trkpt>
      <trkpt lat="50.2639" lon="4.54605">
        <ele>270.141411</ele>
        <time>2024-12-17T11:52:40.000Z</time>
      </trkpt>
      <trkpt lat="50.26388" lon="4.54607">
        <ele>270.153523</ele>
        <time>2024-12-17T11:52:41.000Z</time>
      </trkpt>
      <trkpt lat="50.26387" lon="4.54609">
        <ele>270.166304</ele>
        <time>2024-12-17T11:52:42.000Z</time>
      </trkpt>
      <trkpt lat="50.26385" lon="4.54611">
        <ele>270.179219</ele>
        <time>2024-12-17T11:52:43.000Z</time>
      </trkpt>
      <trkpt lat="50.26383" lon="4.54612">
        <ele>270.190764</ele>
        <time>2024-12-17T11:52:44.000Z</time>
      </trkpt>
      <trkpt lat="50.26381" lon="4.54613">
        <ele>270.203153</ele>
        <time>2024-12-17T11:52:45.000Z</time>
      </trkpt>
      <trkpt lat="50.26379" lon="4.54615">
        <ele>270.21836</ele>
        <time>2024-12-17T11:52:46.000Z</time>
      </trkpt>
      <trkpt lat="50.26377" lon="4.54618">
        <ele>270.232816</ele>
        <time>2024-12-17T11:52:47.000Z</time>
      </trkpt>
      <trkpt lat="50.26375" lon="4.5462">
        <ele>270.243528</ele>
        <time>2024-12-17T11:52:48.000Z</time>
      </trkpt>
      <trkpt lat="50.26374" lon="4.54621">
        <ele>270.252361</ele>
        <time>2024-12-17T11:52:49.000Z</time>
      </trkpt>
      <trkpt lat="50.26373" lon="4.54622">
        <ele>270.262136</ele>
        <time>2024-12-17T11:52:50.000Z</time>
      </trkpt>
      <trkpt lat="50.26371" lon="4.54624">
        <ele>270.274693</ele>
        <time>2024-12-17T11:52:51.000Z</time>
      </trkpt>
      <trkpt lat="50.26369" lon="4.54625">
        <ele>270.289008</ele>
        <time>2024-12-17T11:52:52.000Z</time>
      </trkpt>
      <trkpt lat="50.26366" lon="4.54628">
        <ele>270.308617</ele>
        <time>2024-12-17T11:52:53.000Z</time>
      </trkpt>
      <trkpt lat="50.26363" lon="4.5463">
        <ele>270.328262</ele>
        <time>2024-12-17T11:52:54.000Z</time>
      </trkpt>
      <trkpt lat="50.2636" lon="4.54632">
        <ele>270.344889</ele>
        <time>2024-12-17T11:52:55.000Z</time>
      </trkpt>
      <trkpt lat="50.26358" lon="4.54633">
        <ele>270.360434</ele>
        <time>2024-12-17T11:52:56.000Z</time>
      </trkpt>
      <trkpt lat="50.26356" lon="4.54635">
        <ele>270.375347</ele>
        <time>2024-12-17T11:52:57.000Z</time>
      </trkpt>
      <trkpt lat="50.26353" lon="4.54638">
        <ele>270.392272</ele>
        <time>2024-12-17T11:52:58.000Z</time>
      </trkpt>
      <trkpt lat="50.2635" lon="4.5464">
        <ele>270.41028</ele>
        <time>2024-12-17T11:52:59.000Z</time>
      </trkpt>
      <trkpt lat="50.26348" lon="4.54642">
        <ele>270.42842</ele>
        <time>2024-12-17T11:53:00.000Z</time>
      </trkpt>
      <trkpt lat="50.26345" lon="4.54643">
        <ele>270.44385</ele>
        <time>2024-12-17T11:53:01.000Z</time>
      </trkpt>
      <trkpt lat="50.26342" lon="4.54644">
        <ele>270.459956</ele>
        <time>2024-12-17T11:53:02.000Z</time>
      </trkpt>
      <trkpt lat="50.2634" lon="4.54647">
        <ele>270.479868</ele>
        <time>2024-12-17T11:53:03.000Z</time>
      </trkpt>
      <trkpt lat="50.26337" lon="4.54649">
        <ele>270.497134</ele>
        <time>2024-12-17T11:53:04.000Z</time>
      </trkpt>
      <trkpt lat="50.26335" lon="4.5465">
        <ele>270.500347</ele>
        <time>2024-12-17T11:53:05.000Z</time>
      </trkpt>
      <trkpt lat="50.26333" lon="4.54652">
        <ele>270.486601</ele>
        <time>2024-12-17T11:53:06.000Z</time>
      </trkpt>
      <trkpt lat="50.2633" lon="4.54654">
        <ele>270.473058</ele>
        <time>2024-12-17T11:53:07.000Z</time>
      </trkpt>
      <trkpt lat="50.26328" lon="4.54655">
        <ele>270.460192</ele>
        <time>2024-12-17T11:53:08.000Z</time>
      </trkpt>
      <trkpt lat="50.26327" lon="4.54656">
        <ele>270.45099</ele>
        <time>2024-12-17T11:53:09.000Z</time>
      </trkpt>
      <trkpt lat="50.26325" lon="4.54657">
        <ele>270.440489</ele>
        <time>2024-12-17T11:53:10.000Z</time>
      </trkpt>
      <trkpt lat="50.26323" lon="4.54659">
        <ele>270.426407</ele>
        <time>2024-12-17T11:53:11.000Z</time>
      </trkpt>
      <trkpt lat="50.26321" lon="4.54663">
        <ele>270.407511</ele>
        <time>2024-12-17T11:53:12.000Z</time>
      </trkpt>
      <trkpt lat="50.26319" lon="4.54664">
        <ele>270.396828</ele>
        <time>2024-12-17T11:53:13.000Z</time>
      </trkpt>
      <trkpt lat="50.26317" lon="4.54666">
        <ele>270.385092</ele>
        <time>2024-12-17T11:53:14.000Z</time>
      </trkpt>
      <trkpt lat="50.26315" lon="4.54667">
        <ele>270.371713</ele>
        <time>2024-12-17T11:53:15.000Z</time>
      </trkpt>
      <trkpt lat="50.26313" lon="4.54669">
        <ele>270.358334</ele>
        <time>2024-12-17T11:53:16.000Z</time>
      </trkpt>
      <trkpt lat="50.26311" lon="4.5467">
        <ele>270.34563</ele>
        <time>2024-12-17T11:53:17.000Z</time>
      </trkpt>
      <trkpt lat="50.26309" lon="4.54671">
        <ele>270.334689</ele>
        <time>2024-12-17T11:53:18.000Z</time>
      </trkpt>
      <trkpt lat="50.26308" lon="4.54672">
        <ele>270.324287</ele>
        <time>2024-12-17T11:53:19.000Z</time>
      </trkpt>
      <trkpt lat="50.26306" lon="4.54673">
        <ele>270.312805</ele>
        <time>2024-12-17T11:53:20.000Z</time>
      </trkpt>
      <trkpt lat="50.26304" lon="4.54674">
        <ele>270.301981</ele>
        <time>2024-12-17T11:53:21.000Z</time>
      </trkpt>
      <trkpt lat="50.26302" lon="4.54675">
        <ele>270.292642</ele>
        <time>2024-12-17T11:53:22.000Z</time>
      </trkpt>
      <trkpt lat="50.26301" lon="4.54676">
        <ele>270.284344</ele>
        <time>2024-12-17T11:53:23.000Z</time>
      </trkpt>
      <trkpt lat="50.26301" lon="4.54677">
        <ele>270.280248</ele>
        <time>2024-12-17T11:53:24.000Z</time>
      </trkpt>
      <trkpt lat="50.263" lon="4.54678">
        <ele>270.275489</ele>
        <time>2024-12-17T11:53:25.000Z</time>
      </trkpt>
      <trkpt lat="50.26299" lon="4.54679">
        <ele>270.269624</ele>
        <time>2024-12-17T11:53:26.000Z</time>
      </trkpt>
      <trkpt lat="50.26298" lon="4.5468">
        <ele>270.262146</ele>
        <time>2024-12-17T11:53:27.000Z</time>
      </trkpt>
      <trkpt lat="50.26297" lon="4.54681">
        <ele>270.253988</ele>
        <time>2024-12-17T11:53:28.000Z</time>
      </trkpt>
      <trkpt lat="50.26296" lon="4.54682">
        <ele>270.245866</ele>
        <time>2024-12-17T11:53:29.000Z</time>
      </trkpt>
      <trkpt lat="50.26295" lon="4.54684">
        <ele>270.237292</ele>
        <time>2024-12-17T11:53:30.000Z</time>
      </trkpt>
      <trkpt lat="50.26293" lon="4.54685">
        <ele>270.228717</ele>
        <time>2024-12-17T11:53:31.000Z</time>
      </trkpt>
      <trkpt lat="50.26292" lon="4.54686">
        <ele>270.218895</ele>
        <time>2024-12-17T11:53:32.000Z</time>
      </trkpt>
      <trkpt lat="50.26291" lon="4.54688">
        <ele>270.209421</ele>
        <time>2024-12-17T11:53:33.000Z</time>
      </trkpt>
      <trkpt lat="50.26289" lon="4.54689">
        <ele>270.200381</ele>
        <time>2024-12-17T11:53:34.000Z</time>
      </trkpt>
      <trkpt lat="50.26288" lon="4.5469">
        <ele>270.19291</ele>
        <time>2024-12-17T11:53:35.000Z</time>
      </trkpt>
      <trkpt lat="50.26287" lon="4.5469">
        <ele>270.186027</ele>
        <time>2024-12-17T11:53:36.000Z</time>
      </trkpt>
      <trkpt lat="50.26285" lon="4.54691">
        <ele>270.177311</ele>
        <time>2024-12-17T11:53:37.000Z</time>
      </trkpt>
      <trkpt lat="50.26284" lon="4.54692">
        <ele>270.166912</ele>
        <time>2024-12-17T11:53:38.000Z</time>
      </trkpt>
      <trkpt lat="50.26282" lon="4.54694">
        <ele>270.15623</ele>
        <time>2024-12-17T11:53:39.000Z</time>
      </trkpt>
      <trkpt lat="50.2628" lon="4.54694">
        <ele>270.146161</ele>
        <time>2024-12-17T11:53:40.000Z</time>
      </trkpt>
      <trkpt lat="50.26279" lon="4.54695">
        <ele>270.136959</ele>
        <time>2024-12-17T11:53:41.000Z</time>
      </trkpt>
      <trkpt lat="50.26278" lon="4.54696">
        <ele>270.12974</ele>
        <time>2024-12-17T11:53:42.000Z</time>
      </trkpt>
      <trkpt lat="50.26277" lon="4.54697">
        <ele>270.121866</ele>
        <time>2024-12-17T11:53:43.000Z</time>
      </trkpt>
      <trkpt lat="50.26275" lon="4.54698">
        <ele>270.112127</ele>
        <time>2024-12-17T11:53:44.000Z</time>
      </trkpt>
      <trkpt lat="50.26273" lon="4.54699">
        <ele>270.101959</ele>
        <time>2024-12-17T11:53:45.000Z</time>
      </trkpt>
      <trkpt lat="50.26272" lon="4.547">
        <ele>270.091458</ele>
        <time>2024-12-17T11:53:46.000Z</time>
      </trkpt>
      <trkpt lat="50.2627" lon="4.54701">
        <ele>270.079722</ele>
        <time>2024-12-17T11:53:47.000Z</time>
      </trkpt>
      <trkpt lat="50.26268" lon="4.54703">
        <ele>270.067986</ele>
        <time>2024-12-17T11:53:48.000Z</time>
      </trkpt>
      <trkpt lat="50.26266" lon="4.54704">
        <ele>270.056908</ele>
        <time>2024-12-17T11:53:49.000Z</time>
      </trkpt>
      <trkpt lat="50.26265" lon="4.54706">
        <ele>270.046594</ele>
        <time>2024-12-17T11:53:50.000Z</time>
      </trkpt>
      <trkpt lat="50.26264" lon="4.54707">
        <ele>270.038628</ele>
        <time>2024-12-17T11:53:51.000Z</time>
      </trkpt>
      <trkpt lat="50.26263" lon="4.54709">
        <ele>270.031409</ele>
        <time>2024-12-17T11:53:52.000Z</time>
      </trkpt>
      <trkpt lat="50.26262" lon="4.5471">
        <ele>270.023621</ele>
        <time>2024-12-17T11:53:53.000Z</time>
      </trkpt>
      <trkpt lat="50.2626" lon="4.54711">
        <ele>270.010816</ele>
        <time>2024-12-17T11:53:54.000Z</time>
      </trkpt>
      <trkpt lat="50.26257" lon="4.54713">
        <ele>269.995053</ele>
        <time>2024-12-17T11:53:55.000Z</time>
      </trkpt>
      <trkpt lat="50.26255" lon="4.54714">
        <ele>269.979843</ele>
        <time>2024-12-17T11:53:56.000Z</time>
      </trkpt>
      <trkpt lat="50.26252" lon="4.54714">
        <ele>269.966092</ele>
        <time>2024-12-17T11:53:57.000Z</time>
      </trkpt>
      <trkpt lat="50.2625" lon="4.54714">
        <ele>269.954631</ele>
        <time>2024-12-17T11:53:58.000Z</time>
      </trkpt>
      <trkpt lat="50.26249" lon="4.54713">
        <ele>269.944892</ele>
        <time>2024-12-17T11:53:59.000Z</time>
      </trkpt>
      <trkpt lat="50.26247" lon="4.54712">
        <ele>269.936735</ele>
        <time>2024-12-17T11:54:00.000Z</time>
      </trkpt>
      <trkpt lat="50.26246" lon="4.5471">
        <ele>269.928003</ele>
        <time>2024-12-17T11:54:01.000Z</time>
      </trkpt>
      <trkpt lat="50.26245" lon="4.54707">
        <ele>269.917205</ele>
        <time>2024-12-17T11:54:02.000Z</time>
      </trkpt>
      <trkpt lat="50.26245" lon="4.54705">
        <ele>269.906379</ele>
        <time>2024-12-17T11:54:03.000Z</time>
      </trkpt>
      <trkpt lat="50.26244" lon="4.54702">
        <ele>269.894903</ele>
        <time>2024-12-17T11:54:04.000Z</time>
      </trkpt>
      <trkpt lat="50.26242" lon="4.547">
        <ele>269.883456</ele>
        <time>2024-12-17T11:54:05.000Z</time>
      </trkpt>
      <trkpt lat="50.26242" lon="4.54697">
        <ele>269.873126</ele>
        <time>2024-12-17T11:54:06.000Z</time>
      </trkpt>
      <trkpt lat="50.26241" lon="4.54694">
        <ele>269.861267</ele>
        <time>2024-12-17T11:54:07.000Z</time>
      </trkpt>
      <trkpt lat="50.2624" lon="4.54692">
        <ele>269.849236</ele>
        <time>2024-12-17T11:54:08.000Z</time>
      </trkpt>
      <trkpt lat="50.26238" lon="4.54688">
        <ele>269.832444</ele>
        <time>2024-12-17T11:54:09.000Z</time>
      </trkpt>
      <trkpt lat="50.26236" lon="4.54686">
        <ele>269.819346</ele>
        <time>2024-12-17T11:54:10.000Z</time>
      </trkpt>
      <trkpt lat="50.26235" lon="4.54683">
        <ele>269.807177</ele>
        <time>2024-12-17T11:54:11.000Z</time>
      </trkpt>
      <trkpt lat="50.26233" lon="4.5468">
        <ele>269.789988</ele>
        <time>2024-12-17T11:54:12.000Z</time>
      </trkpt>
      <trkpt lat="50.2623" lon="4.54676">
        <ele>269.769185</ele>
        <time>2024-12-17T11:54:13.000Z</time>
      </trkpt>
      <trkpt lat="50.26227" lon="4.54671">
        <ele>269.745775</ele>
        <time>2024-12-17T11:54:14.000Z</time>
      </trkpt>
      <trkpt lat="50.26225" lon="4.54666">
        <ele>269.724488</ele>
        <time>2024-12-17T11:54:15.000Z</time>
      </trkpt>
      <trkpt lat="50.26224" lon="4.54662">
        <ele>269.706635</ele>
        <time>2024-12-17T11:54:16.000Z</time>
      </trkpt>
      <trkpt lat="50.26222" lon="4.54658">
        <ele>269.687206</ele>
        <time>2024-12-17T11:54:17.000Z</time>
      </trkpt>
      <trkpt lat="50.26221" lon="4.54653">
        <ele>269.669592</ele>
        <time>2024-12-17T11:54:18.000Z</time>
      </trkpt>
      <trkpt lat="50.2622" lon="4.54649">
        <ele>269.653319</ele>
        <time>2024-12-17T11:54:19.000Z</time>
      </trkpt>
      <trkpt lat="50.2622" lon="4.54645">
        <ele>269.638322</ele>
        <time>2024-12-17T11:54:20.000Z</time>
      </trkpt>
      <trkpt lat="50.26218" lon="4.54641">
        <ele>269.621891</ele>
        <time>2024-12-17T11:54:21.000Z</time>
      </trkpt>
      <trkpt lat="50.26217" lon="4.54637">
        <ele>269.604909</ele>
        <time>2024-12-17T11:54:22.000Z</time>
      </trkpt>
      <trkpt lat="50.26215" lon="4.54634">
        <ele>269.588917</ele>
        <time>2024-12-17T11:54:23.000Z</time>
      </trkpt>
      <trkpt lat="50.26212" lon="4.54631">
        <ele>269.571042</ele>
        <time>2024-12-17T11:54:24.000Z</time>
      </trkpt>
      <trkpt lat="50.26211" lon="4.54627">
        <ele>269.554594</ele>
        <time>2024-12-17T11:54:25.000Z</time>
      </trkpt>
      <trkpt lat="50.26209" lon="4.54623">
        <ele>269.537611</ele>
        <time>2024-12-17T11:54:26.000Z</time>
      </trkpt>
      <trkpt lat="50.26207" lon="4.54619">
        <ele>269.5197</ele>
        <time>2024-12-17T11:54:27.000Z</time>
      </trkpt>
      <trkpt lat="50.26206" lon="4.54615">
        <ele>269.502111</ele>
        <time>2024-12-17T11:54:28.000Z</time>
      </trkpt>
      <trkpt lat="50.26204" lon="4.54611">
        <ele>269.483292</ele>
        <time>2024-12-17T11:54:29.000Z</time>
      </trkpt>
      <trkpt lat="50.26201" lon="4.54606">
        <ele>269.456911</ele>
        <time>2024-12-17T11:54:30.000Z</time>
      </trkpt>
      <trkpt lat="50.26199" lon="4.54601">
        <ele>269.429145</ele>
        <time>2024-12-17T11:54:31.000Z</time>
      </trkpt>
      <trkpt lat="50.26197" lon="4.54596">
        <ele>269.402235</ele>
        <time>2024-12-17T11:54:32.000Z</time>
      </trkpt>
      <trkpt lat="50.26195" lon="4.54591">
        <ele>269.375326</ele>
        <time>2024-12-17T11:54:33.000Z</time>
      </trkpt>
      <trkpt lat="50.26193" lon="4.54586">
        <ele>269.351293</ele>
        <time>2024-12-17T11:54:34.000Z</time>
      </trkpt>
      <trkpt lat="50.26191" lon="4.54581">
        <ele>269.32582</ele>
        <time>2024-12-17T11:54:35.000Z</time>
      </trkpt>
      <trkpt lat="50.26189" lon="4.54576">
        <ele>269.297007</ele>
        <time>2024-12-17T11:54:36.000Z</time>
      </trkpt>
      <trkpt lat="50.26188" lon="4.54571">
        <ele>269.272163</ele>
        <time>2024-12-17T11:54:37.000Z</time>
      </trkpt>
      <trkpt lat="50.26186" lon="4.54567">
        <ele>269.249394</ele>
        <time>2024-12-17T11:54:38.000Z</time>
      </trkpt>
      <trkpt lat="50.26184" lon="4.54562">
        <ele>269.222864</ele>
        <time>2024-12-17T11:54:39.000Z</time>
      </trkpt>
      <trkpt lat="50.26183" lon="4.54557">
        <ele>269.200434</ele>
        <time>2024-12-17T11:54:40.000Z</time>
      </trkpt>
      <trkpt lat="50.2618" lon="4.54552">
        <ele>269.173524</ele>
        <time>2024-12-17T11:54:41.000Z</time>
      </trkpt>
      <trkpt lat="50.26177" lon="4.54545">
        <ele>269.132766</ele>
        <time>2024-12-17T11:54:42.000Z</time>
      </trkpt>
      <trkpt lat="50.26172" lon="4.54538">
        <ele>269.085525</ele>
        <time>2024-12-17T11:54:43.000Z</time>
      </trkpt>
      <trkpt lat="50.26169" lon="4.54532">
        <ele>269.052074</ele>
        <time>2024-12-17T11:54:44.000Z</time>
      </trkpt>
      <trkpt lat="50.26166" lon="4.54526">
        <ele>269.018659</ele>
        <time>2024-12-17T11:54:45.000Z</time>
      </trkpt>
      <trkpt lat="50.26162" lon="4.54522">
        <ele>268.986789</ele>
        <time>2024-12-17T11:54:46.000Z</time>
      </trkpt>
      <trkpt lat="50.26159" lon="4.54518">
        <ele>268.957107</ele>
        <time>2024-12-17T11:54:47.000Z</time>
      </trkpt>
      <trkpt lat="50.26156" lon="4.54514">
        <ele>268.928779</ele>
        <time>2024-12-17T11:54:48.000Z</time>
      </trkpt>
      <trkpt lat="50.26153" lon="4.54509">
        <ele>268.900532</ele>
        <time>2024-12-17T11:54:49.000Z</time>
      </trkpt>
      <trkpt lat="50.26151" lon="4.54505">
        <ele>268.87374</ele>
        <time>2024-12-17T11:54:50.000Z</time>
      </trkpt>
      <trkpt lat="50.26147" lon="4.54502">
        <ele>268.848553</ele>
        <time>2024-12-17T11:54:51.000Z</time>
      </trkpt>
      <trkpt lat="50.26145" lon="4.54499">
        <ele>268.82517</ele>
        <time>2024-12-17T11:54:52.000Z</time>
      </trkpt>
      <trkpt lat="50.26142" lon="4.54496">
        <ele>268.801893</ele>
        <time>2024-12-17T11:54:53.000Z</time>
      </trkpt>
      <trkpt lat="50.2614" lon="4.54493">
        <ele>268.783304</ele>
        <time>2024-12-17T11:54:54.000Z</time>
      </trkpt>
      <trkpt lat="50.26138" lon="4.54491">
        <ele>268.765243</ele>
        <time>2024-12-17T11:54:55.000Z</time>
      </trkpt>
      <trkpt lat="50.26135" lon="4.54487">
        <ele>268.737807</ele>
        <time>2024-12-17T11:54:56.000Z</time>
      </trkpt>
      <trkpt lat="50.26132" lon="4.54484">
        <ele>268.71174</ele>
        <time>2024-12-17T11:54:57.000Z</time>
      </trkpt>
      <trkpt lat="50.26129" lon="4.54481">
        <ele>268.689488</ele>
        <time>2024-12-17T11:54:58.000Z</time>
      </trkpt>
      <trkpt lat="50.26126" lon="4.54479">
        <ele>268.660948</ele>
        <time>2024-12-17T11:54:59.000Z</time>
      </trkpt>
      <trkpt lat="50.26122" lon="4.54477">
        <ele>268.632207</ele>
        <time>2024-12-17T11:55:00.000Z</time>
      </trkpt>
      <trkpt lat="50.26118" lon="4.54475">
        <ele>268.60779</ele>
        <time>2024-12-17T11:55:01.000Z</time>
      </trkpt>
      <trkpt lat="50.26116" lon="4.54472">
        <ele>268.585343</ele>
        <time>2024-12-17T11:55:02.000Z</time>
      </trkpt>
      <trkpt lat="50.26114" lon="4.5447">
        <ele>268.566828</ele>
        <time>2024-12-17T11:55:03.000Z</time>
      </trkpt>
      <trkpt lat="50.26112" lon="4.54468">
        <ele>268.551198</ele>
        <time>2024-12-17T11:55:04.000Z</time>
      </trkpt>
      <trkpt lat="50.2611" lon="4.54466">
        <ele>268.534128</ele>
        <time>2024-12-17T11:55:05.000Z</time>
      </trkpt>
      <trkpt lat="50.26107" lon="4.54464">
        <ele>268.51659</ele>
        <time>2024-12-17T11:55:06.000Z</time>
      </trkpt>
      <trkpt lat="50.26105" lon="4.54462">
        <ele>268.498289</ele>
        <time>2024-12-17T11:55:07.000Z</time>
      </trkpt>
      <trkpt lat="50.26103" lon="4.54461">
        <ele>268.479449</ele>
        <time>2024-12-17T11:55:08.000Z</time>
      </trkpt>
      <trkpt lat="50.261" lon="4.54459">
        <ele>268.462902</ele>
        <time>2024-12-17T11:55:09.000Z</time>
      </trkpt>
      <trkpt lat="50.26099" lon="4.54458">
        <ele>268.448758</ele>
        <time>2024-12-17T11:55:10.000Z</time>
      </trkpt>
      <trkpt lat="50.26097" lon="4.54457">
        <ele>268.437392</ele>
        <time>2024-12-17T11:55:11.000Z</time>
      </trkpt>
      <trkpt lat="50.26096" lon="4.54455">
        <ele>268.423658</ele>
        <time>2024-12-17T11:55:12.000Z</time>
      </trkpt>
      <trkpt lat="50.26094" lon="4.54454">
        <ele>268.409924</ele>
        <time>2024-12-17T11:55:13.000Z</time>
      </trkpt>
      <trkpt lat="50.26091" lon="4.54453">
        <ele>268.391651</ele>
        <time>2024-12-17T11:55:14.000Z</time>
      </trkpt>
      <trkpt lat="50.26089" lon="4.54452">
        <ele>268.372914</ele>
        <time>2024-12-17T11:55:15.000Z</time>
      </trkpt>
      <trkpt lat="50.26086" lon="4.54452">
        <ele>268.356428</ele>
        <time>2024-12-17T11:55:16.000Z</time>
      </trkpt>
      <trkpt lat="50.26083" lon="4.54451">
        <ele>268.335086</ele>
        <time>2024-12-17T11:55:17.000Z</time>
      </trkpt>
      <trkpt lat="50.2608" lon="4.5445">
        <ele>268.311435</ele>
        <time>2024-12-17T11:55:18.000Z</time>
      </trkpt>
      <trkpt lat="50.26077" lon="4.54449">
        <ele>268.287865</ele>
        <time>2024-12-17T11:55:19.000Z</time>
      </trkpt>
      <trkpt lat="50.26073" lon="4.54449">
        <ele>268.263837</ele>
        <time>2024-12-17T11:55:20.000Z</time>
      </trkpt>
      <trkpt lat="50.2607" lon="4.54448">
        <ele>268.239763</ele>
        <time>2024-12-17T11:55:21.000Z</time>
      </trkpt>
      <trkpt lat="50.26067" lon="4.54447">
        <ele>268.216387</ele>
        <time>2024-12-17T11:55:22.000Z</time>
      </trkpt>
      <trkpt lat="50.26063" lon="4.54447">
        <ele>268.201997</ele>
        <time>2024-12-17T11:55:23.000Z</time>
      </trkpt>
      <trkpt lat="50.2606" lon="4.54446">
        <ele>268.191732</ele>
        <time>2024-12-17T11:55:24.000Z</time>
      </trkpt>
      <trkpt lat="50.26056" lon="4.54446">
        <ele>268.181746</ele>
        <time>2024-12-17T11:55:25.000Z</time>
      </trkpt>
      <trkpt lat="50.26054" lon="4.54445">
        <ele>268.172953</ele>
        <time>2024-12-17T11:55:26.000Z</time>
      </trkpt>
      <trkpt lat="50.26051" lon="4.54444">
        <ele>268.164184</ele>
        <time>2024-12-17T11:55:27.000Z</time>
      </trkpt>
      <trkpt lat="50.26048" lon="4.54444">
        <ele>268.155133</ele>
        <time>2024-12-17T11:55:28.000Z</time>
      </trkpt>
      <trkpt lat="50.26044" lon="4.54444">
        <ele>268.145513</ele>
        <time>2024-12-17T11:55:29.000Z</time>
      </trkpt>
      <trkpt lat="50.26041" lon="4.54444">
        <ele>268.136487</ele>
        <time>2024-12-17T11:55:30.000Z</time>
      </trkpt>
      <trkpt lat="50.26039" lon="4.54445">
        <ele>268.127717</ele>
        <time>2024-12-17T11:55:31.000Z</time>
      </trkpt>
      <trkpt lat="50.26035" lon="4.54446">
        <ele>268.116904</ele>
        <time>2024-12-17T11:55:32.000Z</time>
      </trkpt>
      <trkpt lat="50.26032" lon="4.54447">
        <ele>268.108639</ele>
        <time>2024-12-17T11:55:33.000Z</time>
      </trkpt>
      <trkpt lat="50.26031" lon="4.54449">
        <ele>268.102951</ele>
        <time>2024-12-17T11:55:34.000Z</time>
      </trkpt>
      <trkpt lat="50.26029" lon="4.5445">
        <ele>268.097383</ele>
        <time>2024-12-17T11:55:35.000Z</time>
      </trkpt>
      <trkpt lat="50.26028" lon="4.54452">
        <ele>268.092113</ele>
        <time>2024-12-17T11:55:36.000Z</time>
      </trkpt>
      <trkpt lat="50.26026" lon="4.54454">
        <ele>268.084193</ele>
        <time>2024-12-17T11:55:37.000Z</time>
      </trkpt>
      <trkpt lat="50.26024" lon="4.54454">
        <ele>268.078169</ele>
        <time>2024-12-17T11:55:38.000Z</time>
      </trkpt>
      <trkpt lat="50.26022" lon="4.54453">
        <ele>268.07275</ele>
        <time>2024-12-17T11:55:39.000Z</time>
      </trkpt>
      <trkpt lat="50.26021" lon="4.5445">
        <ele>268.067718</ele>
        <time>2024-12-17T11:55:40.000Z</time>
      </trkpt>
      <trkpt lat="50.2602" lon="4.54448">
        <ele>268.062213</ele>
        <time>2024-12-17T11:55:41.000Z</time>
      </trkpt>
      <trkpt lat="50.26019" lon="4.54446">
        <ele>268.057144</ele>
        <time>2024-12-17T11:55:42.000Z</time>
      </trkpt>
      <trkpt lat="50.26019" lon="4.54443">
        <ele>268.050897</ele>
        <time>2024-12-17T11:55:43.000Z</time>
      </trkpt>
      <trkpt lat="50.26018" lon="4.5444">
        <ele>268.045496</ele>
        <time>2024-12-17T11:55:44.000Z</time>
      </trkpt>
      <trkpt lat="50.26017" lon="4.54437">
        <ele>268.040364</ele>
        <time>2024-12-17T11:55:45.000Z</time>
      </trkpt>
      <trkpt lat="50.26017" lon="4.54435">
        <ele>268.036474</ele>
        <time>2024-12-17T11:55:46.000Z</time>
      </trkpt>
      <trkpt lat="50.26017" lon="4.54433">
        <ele>268.030799</ele>
        <time>2024-12-17T11:55:47.000Z</time>
      </trkpt>
      <trkpt lat="50.26016" lon="4.5443">
        <ele>268.024298</ele>
        <time>2024-12-17T11:55:48.000Z</time>
      </trkpt>
      <trkpt lat="50.26014" lon="4.54427">
        <ele>268.017497</ele>
        <time>2024-12-17T11:55:49.000Z</time>
      </trkpt>
      <trkpt lat="50.26013" lon="4.54423">
        <ele>268.01048</ele>
        <time>2024-12-17T11:55:50.000Z</time>
      </trkpt>
      <trkpt lat="50.26012" lon="4.5442">
        <ele>268.003157</ele>
        <time>2024-12-17T11:55:51.000Z</time>
      </trkpt>
      <trkpt lat="50.26011" lon="4.54416">
        <ele>267.995614</ele>
        <time>2024-12-17T11:55:52.000Z</time>
      </trkpt>
      <trkpt lat="50.2601" lon="4.54413">
        <ele>267.987947</ele>
        <time>2024-12-17T11:55:53.000Z</time>
      </trkpt>
      <trkpt lat="50.26009" lon="4.5441">
        <ele>267.981615</ele>
        <time>2024-12-17T11:55:54.000Z</time>
      </trkpt>
      <trkpt lat="50.26009" lon="4.54407">
        <ele>267.97637</ele>
        <time>2024-12-17T11:55:55.000Z</time>
      </trkpt>
      <trkpt lat="50.26008" lon="4.54405">
        <ele>267.972244</ele>
        <time>2024-12-17T11:55:56.000Z</time>
      </trkpt>
      <trkpt lat="50.26007" lon="4.54403">
        <ele>267.967693</ele>
        <time>2024-12-17T11:55:57.000Z</time>
      </trkpt>
      <trkpt lat="50.26006" lon="4.54401">
        <ele>267.962674</ele>
        <time>2024-12-17T11:55:58.000Z</time>
      </trkpt>
      <trkpt lat="50.26006" lon="4.54399">
        <ele>267.957301</ele>
        <time>2024-12-17T11:55:59.000Z</time>
      </trkpt>
      <trkpt lat="50.26005" lon="4.54396">
        <ele>267.951345</ele>
        <time>2024-12-17T11:56:00.000Z</time>
      </trkpt>
      <trkpt lat="50.26004" lon="4.54393">
        <ele>267.945208</ele>
        <time>2024-12-17T11:56:01.000Z</time>
      </trkpt>
      <trkpt lat="50.26003" lon="4.54389">
        <ele>267.937665</ele>
        <time>2024-12-17T11:56:02.000Z</time>
      </trkpt>
      <trkpt lat="50.26002" lon="4.54385">
        <ele>267.930057</ele>
        <time>2024-12-17T11:56:03.000Z</time>
      </trkpt>
      <trkpt lat="50.26001" lon="4.54381">
        <ele>267.921866</ele>
        <time>2024-12-17T11:56:04.000Z</time>
      </trkpt>
      <trkpt lat="50.26" lon="4.54378">
        <ele>267.912961</ele>
        <time>2024-12-17T11:56:05.000Z</time>
      </trkpt>
      <trkpt lat="50.25998" lon="4.54373">
        <ele>267.904029</ele>
        <time>2024-12-17T11:56:06.000Z</time>
      </trkpt>
      <trkpt lat="50.25997" lon="4.54369">
        <ele>267.895596</ele>
        <time>2024-12-17T11:56:07.000Z</time>
      </trkpt>
      <trkpt lat="50.25996" lon="4.54365">
        <ele>267.887266</ele>
        <time>2024-12-17T11:56:08.000Z</time>
      </trkpt>
      <trkpt lat="50.25995" lon="4.5436">
        <ele>267.877003</ele>
        <time>2024-12-17T11:56:09.000Z</time>
      </trkpt>
      <trkpt lat="50.25994" lon="4.54355">
        <ele>267.866936</ele>
        <time>2024-12-17T11:56:10.000Z</time>
      </trkpt>
      <trkpt lat="50.25993" lon="4.54351">
        <ele>267.856841</ele>
        <time>2024-12-17T11:56:11.000Z</time>
      </trkpt>
      <trkpt lat="50.25991" lon="4.54346">
        <ele>267.846268</ele>
        <time>2024-12-17T11:56:12.000Z</time>
      </trkpt>
      <trkpt lat="50.25989" lon="4.54341">
        <ele>267.835215</ele>
        <time>2024-12-17T11:56:13.000Z</time>
      </trkpt>
      <trkpt lat="50.25988" lon="4.54335">
        <ele>267.824195</ele>
        <time>2024-12-17T11:56:14.000Z</time>
      </trkpt>
      <trkpt lat="50.25987" lon="4.5433">
        <ele>267.812997</ele>
        <time>2024-12-17T11:56:15.000Z</time>
      </trkpt>
      <trkpt lat="50.25985" lon="4.54325">
        <ele>267.802155</ele>
        <time>2024-12-17T11:56:16.000Z</time>
      </trkpt>
      <trkpt lat="50.25983" lon="4.54319">
        <ele>267.790622</ele>
        <time>2024-12-17T11:56:17.000Z</time>
      </trkpt>
      <trkpt lat="50.25981" lon="4.54314">
        <ele>267.778965</ele>
        <time>2024-12-17T11:56:18.000Z</time>
      </trkpt>
      <trkpt lat="50.25979" lon="4.54309">
        <ele>267.767793</ele>
        <time>2024-12-17T11:56:19.000Z</time>
      </trkpt>
      <trkpt lat="50.25977" lon="4.54304">
        <ele>267.756766</ele>
        <time>2024-12-17T11:56:20.000Z</time>
      </trkpt>
      <trkpt lat="50.25976" lon="4.543">
        <ele>267.746402</ele>
        <time>2024-12-17T11:56:21.000Z</time>
      </trkpt>
      <trkpt lat="50.25974" lon="4.54295">
        <ele>267.73665</ele>
        <time>2024-12-17T11:56:22.000Z</time>
      </trkpt>
      <trkpt lat="50.25973" lon="4.54291">
        <ele>267.726985</ele>
        <time>2024-12-17T11:56:23.000Z</time>
      </trkpt>
      <trkpt lat="50.25972" lon="4.54286">
        <ele>267.717906</ele>
        <time>2024-12-17T11:56:24.000Z</time>
      </trkpt>
      <trkpt lat="50.25971" lon="4.54282">
        <ele>267.709539</ele>
        <time>2024-12-17T11:56:25.000Z</time>
      </trkpt>
      <trkpt lat="50.25969" lon="4.54278">
        <ele>267.701394</ele>
        <time>2024-12-17T11:56:26.000Z</time>
      </trkpt>
      <trkpt lat="50.25968" lon="4.54275">
        <ele>267.693497</ele>
        <time>2024-12-17T11:56:27.000Z</time>
      </trkpt>
      <trkpt lat="50.25967" lon="4.54271">
        <ele>267.685601</ele>
        <time>2024-12-17T11:56:28.000Z</time>
      </trkpt>
      <trkpt lat="50.25966" lon="4.54267">
        <ele>267.677487</ele>
        <time>2024-12-17T11:56:29.000Z</time>
      </trkpt>
      <trkpt lat="50.25965" lon="4.54263">
        <ele>267.66917</ele>
        <time>2024-12-17T11:56:30.000Z</time>
      </trkpt>
      <trkpt lat="50.25964" lon="4.54259">
        <ele>267.653966</ele>
        <time>2024-12-17T11:56:31.000Z</time>
      </trkpt>
      <trkpt lat="50.25962" lon="4.54255">
        <ele>267.638233</ele>
        <time>2024-12-17T11:56:32.000Z</time>
      </trkpt>
      <trkpt lat="50.25961" lon="4.5425">
        <ele>267.621344</ele>
        <time>2024-12-17T11:56:33.000Z</time>
      </trkpt>
      <trkpt lat="50.25959" lon="4.54245">
        <ele>267.604015</ele>
        <time>2024-12-17T11:56:34.000Z</time>
      </trkpt>
      <trkpt lat="50.25958" lon="4.5424">
        <ele>267.586912</ele>
        <time>2024-12-17T11:56:35.000Z</time>
      </trkpt>
      <trkpt lat="50.25956" lon="4.54236">
        <ele>267.570813</ele>
        <time>2024-12-17T11:56:36.000Z</time>
      </trkpt>
      <trkpt lat="50.25955" lon="4.54231">
        <ele>267.554791</ele>
        <time>2024-12-17T11:56:37.000Z</time>
      </trkpt>
      <trkpt lat="50.25954" lon="4.54226">
        <ele>267.538398</ele>
        <time>2024-12-17T11:56:38.000Z</time>
      </trkpt>
      <trkpt lat="50.25953" lon="4.54221">
        <ele>267.521007</ele>
        <time>2024-12-17T11:56:39.000Z</time>
      </trkpt>
      <trkpt lat="50.25951" lon="4.54217">
        <ele>267.504409</ele>
        <time>2024-12-17T11:56:40.000Z</time>
      </trkpt>
      <trkpt lat="50.2595" lon="4.54211">
        <ele>267.486642</ele>
        <time>2024-12-17T11:56:41.000Z</time>
      </trkpt>
      <trkpt lat="50.25948" lon="4.54206">
        <ele>267.468768</ele>
        <time>2024-12-17T11:56:42.000Z</time>
      </trkpt>
      <trkpt lat="50.25947" lon="4.54201">
        <ele>267.450597</ele>
        <time>2024-12-17T11:56:43.000Z</time>
      </trkpt>
      <trkpt lat="50.25946" lon="4.54196">
        <ele>267.432723</ele>
        <time>2024-12-17T11:56:44.000Z</time>
      </trkpt>
      <trkpt lat="50.25945" lon="4.54191">
        <ele>267.41485</ele>
        <time>2024-12-17T11:56:45.000Z</time>
      </trkpt>
      <trkpt lat="50.25943" lon="4.54185">
        <ele>267.396296</ele>
        <time>2024-12-17T11:56:46.000Z</time>
      </trkpt>
      <trkpt lat="50.25942" lon="4.5418">
        <ele>267.377345</ele>
        <time>2024-12-17T11:56:47.000Z</time>
      </trkpt>
      <trkpt lat="50.2594" lon="4.54175">
        <ele>267.359284</ele>
        <time>2024-12-17T11:56:48.000Z</time>
      </trkpt>
      <trkpt lat="50.25939" lon="4.5417">
        <ele>267.342005</ele>
        <time>2024-12-17T11:56:49.000Z</time>
      </trkpt>
      <trkpt lat="50.25938" lon="4.54165">
        <ele>267.324909</ele>
        <time>2024-12-17T11:56:50.000Z</time>
      </trkpt>
      <trkpt lat="50.25937" lon="4.5416">
        <ele>267.30903</ele>
        <time>2024-12-17T11:56:51.000Z</time>
      </trkpt>
      <trkpt lat="50.25936" lon="4.54155">
        <ele>267.293324</ele>
        <time>2024-12-17T11:56:52.000Z</time>
      </trkpt>
      <trkpt lat="50.25935" lon="4.54151">
        <ele>267.278809</ele>
        <time>2024-12-17T11:56:53.000Z</time>
      </trkpt>
      <trkpt lat="50.25934" lon="4.54147">
        <ele>267.265235</ele>
        <time>2024-12-17T11:56:54.000Z</time>
      </trkpt>
      <trkpt lat="50.25934" lon="4.54143">
        <ele>267.252428</ele>
        <time>2024-12-17T11:56:55.000Z</time>
      </trkpt>
      <trkpt lat="50.25933" lon="4.54139">
        <ele>267.238752</ele>
        <time>2024-12-17T11:56:56.000Z</time>
      </trkpt>
      <trkpt lat="50.25933" lon="4.54134">
        <ele>267.224037</ele>
        <time>2024-12-17T11:56:57.000Z</time>
      </trkpt>
      <trkpt lat="50.25932" lon="4.5413">
        <ele>267.209523</ele>
        <time>2024-12-17T11:56:58.000Z</time>
      </trkpt>
      <trkpt lat="50.25931" lon="4.54125">
        <ele>267.19427</ele>
        <time>2024-12-17T11:56:59.000Z</time>
      </trkpt>
      <trkpt lat="50.25931" lon="4.5412">
        <ele>267.177671</ele>
        <time>2024-12-17T11:57:00.000Z</time>
      </trkpt>
      <trkpt lat="50.2593" lon="4.54115">
        <ele>267.161043</ele>
        <time>2024-12-17T11:57:01.000Z</time>
      </trkpt>
      <trkpt lat="50.25929" lon="4.54109">
        <ele>267.142738</ele>
        <time>2024-12-17T11:57:02.000Z</time>
      </trkpt>
      <trkpt lat="50.25928" lon="4.54104">
        <ele>267.124596</ele>
        <time>2024-12-17T11:57:03.000Z</time>
      </trkpt>
      <trkpt lat="50.25927" lon="4.54099">
        <ele>267.107825</ele>
        <time>2024-12-17T11:57:04.000Z</time>
      </trkpt>
      <trkpt lat="50.25926" lon="4.54094">
        <ele>267.091812</ele>
        <time>2024-12-17T11:57:05.000Z</time>
      </trkpt>
      <trkpt lat="50.25925" lon="4.5409">
        <ele>267.075956</ele>
        <time>2024-12-17T11:57:06.000Z</time>
      </trkpt>
      <trkpt lat="50.25924" lon="4.54084">
        <ele>267.059146</ele>
        <time>2024-12-17T11:57:07.000Z</time>
      </trkpt>
      <trkpt lat="50.25923" lon="4.54079">
        <ele>267.041713</ele>
        <time>2024-12-17T11:57:08.000Z</time>
      </trkpt>
      <trkpt lat="50.25923" lon="4.54074">
        <ele>267.0259</ele>
        <time>2024-12-17T11:57:09.000Z</time>
      </trkpt>
      <trkpt lat="50.25922" lon="4.54069">
        <ele>267.010016</ele>
        <time>2024-12-17T11:57:10.000Z</time>
      </trkpt>
      <trkpt lat="50.25922" lon="4.54065">
        <ele>266.994521</ele>
        <time>2024-12-17T11:57:11.000Z</time>
      </trkpt>
      <trkpt lat="50.25921" lon="4.5406">
        <ele>266.97855</ele>
        <time>2024-12-17T11:57:12.000Z</time>
      </trkpt>
      <trkpt lat="50.25921" lon="4.54054">
        <ele>266.960373</ele>
        <time>2024-12-17T11:57:13.000Z</time>
      </trkpt>
      <trkpt lat="50.2592" lon="4.54048">
        <ele>266.941004</ele>
        <time>2024-12-17T11:57:14.000Z</time>
      </trkpt>
      <trkpt lat="50.2592" lon="4.54042">
        <ele>266.922828</ele>
        <time>2024-12-17T11:57:15.000Z</time>
      </trkpt>
      <trkpt lat="50.2592" lon="4.54036">
        <ele>266.902955</ele>
        <time>2024-12-17T11:57:16.000Z</time>
      </trkpt>
      <trkpt lat="50.2592" lon="4.54031">
        <ele>266.88727</ele>
        <time>2024-12-17T11:57:17.000Z</time>
      </trkpt>
      <trkpt lat="50.2592" lon="4.54026">
        <ele>266.871264</ele>
        <time>2024-12-17T11:57:18.000Z</time>
      </trkpt>
      <trkpt lat="50.25919" lon="4.54021">
        <ele>266.854747</ele>
        <time>2024-12-17T11:57:19.000Z</time>
      </trkpt>
      <trkpt lat="50.25919" lon="4.54017">
        <ele>266.840307</ele>
        <time>2024-12-17T11:57:20.000Z</time>
      </trkpt>
      <trkpt lat="50.25918" lon="4.54012">
        <ele>266.823537</ele>
        <time>2024-12-17T11:57:21.000Z</time>
      </trkpt>
      <trkpt lat="50.25917" lon="4.54005">
        <ele>266.799587</ele>
        <time>2024-12-17T11:57:22.000Z</time>
      </trkpt>
      <trkpt lat="50.25916" lon="4.53998">
        <ele>266.776824</ele>
        <time>2024-12-17T11:57:23.000Z</time>
      </trkpt>
      <trkpt lat="50.25916" lon="4.53992">
        <ele>266.753432</ele>
        <time>2024-12-17T11:57:24.000Z</time>
      </trkpt>
      <trkpt lat="50.25915" lon="4.53986">
        <ele>266.730648</ele>
        <time>2024-12-17T11:57:25.000Z</time>
      </trkpt>
      <trkpt lat="50.25914" lon="4.53981">
        <ele>266.705451</ele>
        <time>2024-12-17T11:57:26.000Z</time>
      </trkpt>
      <trkpt lat="50.25914" lon="4.53977">
        <ele>266.687237</ele>
        <time>2024-12-17T11:57:27.000Z</time>
      </trkpt>
      <trkpt lat="50.25912" lon="4.53971">
        <ele>266.65927</ele>
        <time>2024-12-17T11:57:28.000Z</time>
      </trkpt>
      <trkpt lat="50.25912" lon="4.53966">
        <ele>266.638658</ele>
        <time>2024-12-17T11:57:29.000Z</time>
      </trkpt>
      <trkpt lat="50.25912" lon="4.53962">
        <ele>266.622062</ele>
        <time>2024-12-17T11:57:30.000Z</time>
      </trkpt>
      <trkpt lat="50.25912" lon="4.53959">
        <ele>266.607646</ele>
        <time>2024-12-17T11:57:31.000Z</time>
      </trkpt>
      <trkpt lat="50.25911" lon="4.53956">
        <ele>266.592674</ele>
        <time>2024-12-17T11:57:32.000Z</time>
      </trkpt>
      <trkpt lat="50.25911" lon="4.53952">
        <ele>266.574783</ele>
        <time>2024-12-17T11:57:33.000Z</time>
      </trkpt>
      <trkpt lat="50.25911" lon="4.53947">
        <ele>266.556404</ele>
        <time>2024-12-17T11:57:34.000Z</time>
      </trkpt>
      <trkpt lat="50.25911" lon="4.53944">
        <ele>266.543676</ele>
        <time>2024-12-17T11:57:35.000Z</time>
      </trkpt>
      <trkpt lat="50.25911" lon="4.53941">
        <ele>266.526644</ele>
        <time>2024-12-17T11:57:36.000Z</time>
      </trkpt>
      <trkpt lat="50.25912" lon="4.53937">
        <ele>266.510484</ele>
        <time>2024-12-17T11:57:37.000Z</time>
      </trkpt>
      <trkpt lat="50.25912" lon="4.53932">
        <ele>266.489872</ele>
        <time>2024-12-17T11:57:38.000Z</time>
      </trkpt>
      <trkpt lat="50.25912" lon="4.53927">
        <ele>266.467606</ele>
        <time>2024-12-17T11:57:39.000Z</time>
      </trkpt>
      <trkpt lat="50.25912" lon="4.53922">
        <ele>266.443596</ele>
        <time>2024-12-17T11:57:40.000Z</time>
      </trkpt>
      <trkpt lat="50.25912" lon="4.53917">
        <ele>266.42204</ele>
        <time>2024-12-17T11:57:41.000Z</time>
      </trkpt>
      <trkpt lat="50.25913" lon="4.53912">
        <ele>266.401981</ele>
        <time>2024-12-17T11:57:42.000Z</time>
      </trkpt>
      <trkpt lat="50.25913" lon="4.53907">
        <ele>266.378328</ele>
        <time>2024-12-17T11:57:43.000Z</time>
      </trkpt>
      <trkpt lat="50.25913" lon="4.53901">
        <ele>266.35424</ele>
        <time>2024-12-17T11:57:44.000Z</time>
      </trkpt>
      <trkpt lat="50.25913" lon="4.53896">
        <ele>266.332814</ele>
        <time>2024-12-17T11:57:45.000Z</time>
      </trkpt>
      <trkpt lat="50.25914" lon="4.53892">
        <ele>266.312023</ele>
        <time>2024-12-17T11:57:46.000Z</time>
      </trkpt>
      <trkpt lat="50.25914" lon="4.53887">
        <ele>266.291332</ele>
        <time>2024-12-17T11:57:47.000Z</time>
      </trkpt>
      <trkpt lat="50.25914" lon="4.53882">
        <ele>266.268599</ele>
        <time>2024-12-17T11:57:48.000Z</time>
      </trkpt>
      <trkpt lat="50.25913" lon="4.53876">
        <ele>266.244556</ele>
        <time>2024-12-17T11:57:49.000Z</time>
      </trkpt>
      <trkpt lat="50.25914" lon="4.53872">
        <ele>266.226026</ele>
        <time>2024-12-17T11:57:50.000Z</time>
      </trkpt>
      <trkpt lat="50.25914" lon="4.53868">
        <ele>266.208451</ele>
        <time>2024-12-17T11:57:51.000Z</time>
      </trkpt>
      <trkpt lat="50.25914" lon="4.53864">
        <ele>266.188274</ele>
        <time>2024-12-17T11:57:52.000Z</time>
      </trkpt>
      <trkpt lat="50.25915" lon="4.53858">
        <ele>266.165085</ele>
        <time>2024-12-17T11:57:53.000Z</time>
      </trkpt>
      <trkpt lat="50.25915" lon="4.53853">
        <ele>266.141917</ele>
        <time>2024-12-17T11:57:54.000Z</time>
      </trkpt>
      <trkpt lat="50.25915" lon="4.53847">
        <ele>266.117006</ele>
        <time>2024-12-17T11:57:55.000Z</time>
      </trkpt>
      <trkpt lat="50.25915" lon="4.53842">
        <ele>266.09474</ele>
        <time>2024-12-17T11:57:56.000Z</time>
      </trkpt>
      <trkpt lat="50.25915" lon="4.53838">
        <ele>266.077667</ele>
        <time>2024-12-17T11:57:57.000Z</time>
      </trkpt>
      <trkpt lat="50.25916" lon="4.53834">
        <ele>266.05999</ele>
        <time>2024-12-17T11:57:58.000Z</time>
      </trkpt>
      <trkpt lat="50.25916" lon="4.53829">
        <ele>266.037289</ele>
        <time>2024-12-17T11:57:59.000Z</time>
      </trkpt>
      <trkpt lat="50.25916" lon="4.53825">
        <ele>266.01764</ele>
        <time>2024-12-17T11:58:00.000Z</time>
      </trkpt>
      <trkpt lat="50.25916" lon="4.5382">
        <ele>265.997085</ele>
        <time>2024-12-17T11:58:01.000Z</time>
      </trkpt>
      <trkpt lat="50.25916" lon="4.53813">
        <ele>265.968276</ele>
        <time>2024-12-17T11:58:02.000Z</time>
      </trkpt>
      <trkpt lat="50.25916" lon="4.53806">
        <ele>265.934178</ele>
        <time>2024-12-17T11:58:03.000Z</time>
      </trkpt>
      <trkpt lat="50.25916" lon="4.53799">
        <ele>265.906678</ele>
        <time>2024-12-17T11:58:04.000Z</time>
      </trkpt>
      <trkpt lat="50.25915" lon="4.5379">
        <ele>265.866323</ele>
        <time>2024-12-17T11:58:05.000Z</time>
      </trkpt>
      <trkpt lat="50.25915" lon="4.53784">
        <ele>265.839669</ele>
        <time>2024-12-17T11:58:06.000Z</time>
      </trkpt>
      <trkpt lat="50.25915" lon="4.53778">
        <ele>265.812536</ele>
        <time>2024-12-17T11:58:07.000Z</time>
      </trkpt>
      <trkpt lat="50.25915" lon="4.53771">
        <ele>265.781117</ele>
        <time>2024-12-17T11:58:08.000Z</time>
      </trkpt>
      <trkpt lat="50.25915" lon="4.53763">
        <ele>265.747073</ele>
        <time>2024-12-17T11:58:09.000Z</time>
      </trkpt>
      <trkpt lat="50.25915" lon="4.53758">
        <ele>265.726439</ele>
        <time>2024-12-17T11:58:10.000Z</time>
      </trkpt>
      <trkpt lat="50.25916" lon="4.53754">
        <ele>265.706653</ele>
        <time>2024-12-17T11:58:11.000Z</time>
      </trkpt>
      <trkpt lat="50.25915" lon="4.53748">
        <ele>265.681325</ele>
        <time>2024-12-17T11:58:12.000Z</time>
      </trkpt>
      <trkpt lat="50.25915" lon="4.53742">
        <ele>265.653099</ele>
        <time>2024-12-17T11:58:13.000Z</time>
      </trkpt>
      <trkpt lat="50.25916" lon="4.53736">
        <ele>265.626279</ele>
        <time>2024-12-17T11:58:14.000Z</time>
      </trkpt>
      <trkpt lat="50.25916" lon="4.53729">
        <ele>265.597405</ele>
        <time>2024-12-17T11:58:15.000Z</time>
      </trkpt>
      <trkpt lat="50.25915" lon="4.53725">
        <ele>265.578963</ele>
        <time>2024-12-17T11:58:16.000Z</time>
      </trkpt>
      <trkpt lat="50.25916" lon="4.53721">
        <ele>265.561822</ele>
        <time>2024-12-17T11:58:17.000Z</time>
      </trkpt>
      <trkpt lat="50.25916" lon="4.53718">
        <ele>265.545165</ele>
        <time>2024-12-17T11:58:18.000Z</time>
      </trkpt>
      <trkpt lat="50.25916" lon="4.53713">
        <ele>265.544695</ele>
        <time>2024-12-17T11:58:19.000Z</time>
      </trkpt>
      <trkpt lat="50.25915" lon="4.53707">
        <ele>265.551593</ele>
        <time>2024-12-17T11:58:20.000Z</time>
      </trkpt>
      <trkpt lat="50.25915" lon="4.53702">
        <ele>265.557618</ele>
        <time>2024-12-17T11:58:21.000Z</time>
      </trkpt>
      <trkpt lat="50.25915" lon="4.53697">
        <ele>265.56297</ele>
        <time>2024-12-17T11:58:22.000Z</time>
      </trkpt>
      <trkpt lat="50.25916" lon="4.53692">
        <ele>265.569078</ele>
        <time>2024-12-17T11:58:23.000Z</time>
      </trkpt>
      <trkpt lat="50.25916" lon="4.53687">
        <ele>265.574823</ele>
        <time>2024-12-17T11:58:24.000Z</time>
      </trkpt>
      <trkpt lat="50.25916" lon="4.53682">
        <ele>265.580535</ele>
        <time>2024-12-17T11:58:25.000Z</time>
      </trkpt>
      <trkpt lat="50.25917" lon="4.53677">
        <ele>265.58636</ele>
        <time>2024-12-17T11:58:26.000Z</time>
      </trkpt>
      <trkpt lat="50.25917" lon="4.53672">
        <ele>265.592063</ele>
        <time>2024-12-17T11:58:27.000Z</time>
      </trkpt>
      <trkpt lat="50.25916" lon="4.53667">
        <ele>265.597653</ele>
        <time>2024-12-17T11:58:28.000Z</time>
      </trkpt>
      <trkpt lat="50.25917" lon="4.53662">
        <ele>265.603151</ele>
        <time>2024-12-17T11:58:29.000Z</time>
      </trkpt>
      <trkpt lat="50.25917" lon="4.53657">
        <ele>265.609318</ele>
        <time>2024-12-17T11:58:30.000Z</time>
      </trkpt>
      <trkpt lat="50.25917" lon="4.53651">
        <ele>265.615612</ele>
        <time>2024-12-17T11:58:31.000Z</time>
      </trkpt>
      <trkpt lat="50.25918" lon="4.53646">
        <ele>265.621923</ele>
        <time>2024-12-17T11:58:32.000Z</time>
      </trkpt>
      <trkpt lat="50.25918" lon="4.5364">
        <ele>265.62831</ele>
        <time>2024-12-17T11:58:33.000Z</time>
      </trkpt>
      <trkpt lat="50.25918" lon="4.53634">
        <ele>265.635152</ele>
        <time>2024-12-17T11:58:34.000Z</time>
      </trkpt>
      <trkpt lat="50.25918" lon="4.53629">
        <ele>265.641423</ele>
        <time>2024-12-17T11:58:35.000Z</time>
      </trkpt>
      <trkpt lat="50.25918" lon="4.53623">
        <ele>265.647961</ele>
        <time>2024-12-17T11:58:36.000Z</time>
      </trkpt>
      <trkpt lat="50.25918" lon="4.53617">
        <ele>265.654595</ele>
        <time>2024-12-17T11:58:37.000Z</time>
      </trkpt>
      <trkpt lat="50.25918" lon="4.53611">
        <ele>265.661777</ele>
        <time>2024-12-17T11:58:38.000Z</time>
      </trkpt>
      <trkpt lat="50.25919" lon="4.53605">
        <ele>265.668525</ele>
        <time>2024-12-17T11:58:39.000Z</time>
      </trkpt>
      <trkpt lat="50.25918" lon="4.53599">
        <ele>265.67597</ele>
        <time>2024-12-17T11:58:40.000Z</time>
      </trkpt>
      <trkpt lat="50.25918" lon="4.53592">
        <ele>265.683048</ele>
        <time>2024-12-17T11:58:41.000Z</time>
      </trkpt>
      <trkpt lat="50.25918" lon="4.53586">
        <ele>265.690231</ele>
        <time>2024-12-17T11:58:42.000Z</time>
      </trkpt>
      <trkpt lat="50.25918" lon="4.5358">
        <ele>265.696959</ele>
        <time>2024-12-17T11:58:43.000Z</time>
      </trkpt>
      <trkpt lat="50.25918" lon="4.53574">
        <ele>265.703914</ele>
        <time>2024-12-17T11:58:44.000Z</time>
      </trkpt>
      <trkpt lat="50.25918" lon="4.53569">
        <ele>265.710321</ele>
        <time>2024-12-17T11:58:45.000Z</time>
      </trkpt>
      <trkpt lat="50.25919" lon="4.53563">
        <ele>265.716316</ele>
        <time>2024-12-17T11:58:46.000Z</time>
      </trkpt>
      <trkpt lat="50.25919" lon="4.53559">
        <ele>265.721722</ele>
        <time>2024-12-17T11:58:47.000Z</time>
      </trkpt>
      <trkpt lat="50.2592" lon="4.53553">
        <ele>265.727675</ele>
        <time>2024-12-17T11:58:48.000Z</time>
      </trkpt>
      <trkpt lat="50.2592" lon="4.53549">
        <ele>265.732629</ele>
        <time>2024-12-17T11:58:49.000Z</time>
      </trkpt>
      <trkpt lat="50.2592" lon="4.53545">
        <ele>265.737245</ele>
        <time>2024-12-17T11:58:50.000Z</time>
      </trkpt>
      <trkpt lat="50.2592" lon="4.53541">
        <ele>265.742289</ele>
        <time>2024-12-17T11:58:51.000Z</time>
      </trkpt>
      <trkpt lat="50.2592" lon="4.53537">
        <ele>265.74685</ele>
        <time>2024-12-17T11:58:52.000Z</time>
      </trkpt>
      <trkpt lat="50.2592" lon="4.53533">
        <ele>265.751068</ele>
        <time>2024-12-17T11:58:53.000Z</time>
      </trkpt>
      <trkpt lat="50.2592" lon="4.53529">
        <ele>265.755188</ele>
        <time>2024-12-17T11:58:54.000Z</time>
      </trkpt>
      <trkpt lat="50.2592" lon="4.53526">
        <ele>265.75941</ele>
        <time>2024-12-17T11:58:55.000Z</time>
      </trkpt>
      <trkpt lat="50.2592" lon="4.53522">
        <ele>265.763984</ele>
        <time>2024-12-17T11:58:56.000Z</time>
      </trkpt>
      <trkpt lat="50.2592" lon="4.53517">
        <ele>265.769127</ele>
        <time>2024-12-17T11:58:57.000Z</time>
      </trkpt>
      <trkpt lat="50.25921" lon="4.53512">
        <ele>265.77508</ele>
        <time>2024-12-17T11:58:58.000Z</time>
      </trkpt>
      <trkpt lat="50.25921" lon="4.53506">
        <ele>265.782037</ele>
        <time>2024-12-17T11:58:59.000Z</time>
      </trkpt>
      <trkpt lat="50.25921" lon="4.53501">
        <ele>265.788204</ele>
        <time>2024-12-17T11:59:00.000Z</time>
      </trkpt>
      <trkpt lat="50.25921" lon="4.53494">
        <ele>265.795422</ele>
        <time>2024-12-17T11:59:01.000Z</time>
      </trkpt>
      <trkpt lat="50.25921" lon="4.53489">
        <ele>265.801467</ele>
        <time>2024-12-17T11:59:02.000Z</time>
      </trkpt>
      <trkpt lat="50.25921" lon="4.53484">
        <ele>265.807281</ele>
        <time>2024-12-17T11:59:03.000Z</time>
      </trkpt>
      <trkpt lat="50.25921" lon="4.53476">
        <ele>265.81629</ele>
        <time>2024-12-17T11:59:04.000Z</time>
      </trkpt>
      <trkpt lat="50.25921" lon="4.5347">
        <ele>265.822798</ele>
        <time>2024-12-17T11:59:05.000Z</time>
      </trkpt>
      <trkpt lat="50.25921" lon="4.53464">
        <ele>265.829432</ele>
        <time>2024-12-17T11:59:06.000Z</time>
      </trkpt>
      <trkpt lat="50.2592" lon="4.53457">
        <ele>265.837721</ele>
        <time>2024-12-17T11:59:07.000Z</time>
      </trkpt>
      <trkpt lat="50.25919" lon="4.53452">
        <ele>265.843378</ele>
        <time>2024-12-17T11:59:08.000Z</time>
      </trkpt>
      <trkpt lat="50.25919" lon="4.53449">
        <ele>265.847726</ele>
        <time>2024-12-17T11:59:09.000Z</time>
      </trkpt>
      <trkpt lat="50.25919" lon="4.53442">
        <ele>265.855259</ele>
        <time>2024-12-17T11:59:10.000Z</time>
      </trkpt>
      <trkpt lat="50.2592" lon="4.53435">
        <ele>265.855483</ele>
        <time>2024-12-17T11:59:11.000Z</time>
      </trkpt>
      <trkpt lat="50.2592" lon="4.53427">
        <ele>265.83232</ele>
        <time>2024-12-17T11:59:12.000Z</time>
      </trkpt>
      <trkpt lat="50.2592" lon="4.5342">
        <ele>265.809755</ele>
        <time>2024-12-17T11:59:13.000Z</time>
      </trkpt>
      <trkpt lat="50.2592" lon="4.53415">
        <ele>265.792962</ele>
        <time>2024-12-17T11:59:14.000Z</time>
      </trkpt>
      <trkpt lat="50.2592" lon="4.5341">
        <ele>265.776366</ele>
        <time>2024-12-17T11:59:15.000Z</time>
      </trkpt>
      <trkpt lat="50.2592" lon="4.53404">
        <ele>265.757786</ele>
        <time>2024-12-17T11:59:16.000Z</time>
      </trkpt>
      <trkpt lat="50.25919" lon="4.534">
        <ele>265.742217</ele>
        <time>2024-12-17T11:59:17.000Z</time>
      </trkpt>
      <trkpt lat="50.2592" lon="4.53396">
        <ele>265.729195</ele>
        <time>2024-12-17T11:59:18.000Z</time>
      </trkpt>
      <trkpt lat="50.2592" lon="4.53392">
        <ele>265.716936</ele>
        <time>2024-12-17T11:59:19.000Z</time>
      </trkpt>
      <trkpt lat="50.2592" lon="4.53388">
        <ele>265.702428</ele>
        <time>2024-12-17T11:59:20.000Z</time>
      </trkpt>
      <trkpt lat="50.2592" lon="4.53383">
        <ele>265.687012</ele>
        <time>2024-12-17T11:59:21.000Z</time>
      </trkpt>
      <trkpt lat="50.25919" lon="4.53379">
        <ele>265.672459</ele>
        <time>2024-12-17T11:59:22.000Z</time>
      </trkpt>
      <trkpt lat="50.25919" lon="4.53375">
        <ele>265.661845</ele>
        <time>2024-12-17T11:59:23.000Z</time>
      </trkpt>
      <trkpt lat="50.25919" lon="4.53372">
        <ele>265.651862</ele>
        <time>2024-12-17T11:59:24.000Z</time>
      </trkpt>
      <trkpt lat="50.25919" lon="4.53369">
        <ele>265.641569</ele>
        <time>2024-12-17T11:59:25.000Z</time>
      </trkpt>
      <trkpt lat="50.25919" lon="4.53366">
        <ele>265.630634</ele>
        <time>2024-12-17T11:59:26.000Z</time>
      </trkpt>
      <trkpt lat="50.25919" lon="4.53363">
        <ele>265.621293</ele>
        <time>2024-12-17T11:59:27.000Z</time>
      </trkpt>
      <trkpt lat="50.25919" lon="4.5336">
        <ele>265.61163</ele>
        <time>2024-12-17T11:59:28.000Z</time>
      </trkpt>
      <trkpt lat="50.25919" lon="4.53356">
        <ele>265.601326</ele>
        <time>2024-12-17T11:59:29.000Z</time>
      </trkpt>
      <trkpt lat="50.25919" lon="4.53354">
        <ele>265.592828</ele>
        <time>2024-12-17T11:59:30.000Z</time>
      </trkpt>
      <trkpt lat="50.2592" lon="4.53352">
        <ele>265.583882</ele>
        <time>2024-12-17T11:59:31.000Z</time>
      </trkpt>
      <trkpt lat="50.25922" lon="4.5335">
        <ele>265.574925</ele>
        <time>2024-12-17T11:59:32.000Z</time>
      </trkpt>
      <trkpt lat="50.25923" lon="4.53349">
        <ele>265.565405</ele>
        <time>2024-12-17T11:59:33.000Z</time>
      </trkpt>
      <trkpt lat="50.25925" lon="4.53348">
        <ele>265.555094</ele>
        <time>2024-12-17T11:59:34.000Z</time>
      </trkpt>
      <trkpt lat="50.25928" lon="4.53348">
        <ele>265.544007</ele>
        <time>2024-12-17T11:59:35.000Z</time>
      </trkpt>
      <trkpt lat="50.2593" lon="4.53348">
        <ele>265.53292</ele>
        <time>2024-12-17T11:59:36.000Z</time>
      </trkpt>
      <trkpt lat="50.25932" lon="4.53349">
        <ele>265.521625</ele>
        <time>2024-12-17T11:59:37.000Z</time>
      </trkpt>
      <trkpt lat="50.25934" lon="4.53349">
        <ele>265.510014</ele>
        <time>2024-12-17T11:59:38.000Z</time>
      </trkpt>
      <trkpt lat="50.25937" lon="4.53349">
        <ele>265.498372</ele>
        <time>2024-12-17T11:59:39.000Z</time>
      </trkpt>
      <trkpt lat="50.25939" lon="4.5335">
        <ele>265.485692</ele>
        <time>2024-12-17T11:59:40.000Z</time>
      </trkpt>
      <trkpt lat="50.25942" lon="4.53351">
        <ele>265.471473</ele>
        <time>2024-12-17T11:59:41.000Z</time>
      </trkpt>
      <trkpt lat="50.25945" lon="4.53351">
        <ele>265.456295</ele>
        <time>2024-12-17T11:59:42.000Z</time>
      </trkpt>
      <trkpt lat="50.25948" lon="4.53352">
        <ele>265.44058</ele>
        <time>2024-12-17T11:59:43.000Z</time>
      </trkpt>
      <trkpt lat="50.25951" lon="4.53352">
        <ele>265.425402</ele>
        <time>2024-12-17T11:59:44.000Z</time>
      </trkpt>
      <trkpt lat="50.25954" lon="4.53353">
        <ele>265.410091</ele>
        <time>2024-12-17T11:59:45.000Z</time>
      </trkpt>
      <trkpt lat="50.25957" lon="4.53354">
        <ele>265.394284</ele>
        <time>2024-12-17T11:59:46.000Z</time>
      </trkpt>
      <trkpt lat="50.2596" lon="4.53354">
        <ele>265.37807</ele>
        <time>2024-12-17T11:59:47.000Z</time>
      </trkpt>
      <trkpt lat="50.25964" lon="4.53355">
        <ele>265.359913</ele>
        <time>2024-12-17T11:59:48.000Z</time>
      </trkpt>
      <trkpt lat="50.25967" lon="4.53355">
        <ele>265.342301</ele>
        <time>2024-12-17T11:59:49.000Z</time>
      </trkpt>
      <trkpt lat="50.25971" lon="4.53355">
        <ele>265.324619</ele>
        <time>2024-12-17T11:59:50.000Z</time>
      </trkpt>
      <trkpt lat="50.25974" lon="4.53356">
        <ele>265.308491</ele>
        <time>2024-12-17T11:59:51.000Z</time>
      </trkpt>
      <trkpt lat="50.25977" lon="4.53356">
        <ele>265.292389</ele>
        <time>2024-12-17T11:59:52.000Z</time>
      </trkpt>
      <trkpt lat="50.2598" lon="4.53356">
        <ele>265.27679</ele>
        <time>2024-12-17T11:59:53.000Z</time>
      </trkpt>
      <trkpt lat="50.25984" lon="4.53356">
        <ele>265.261164</ele>
        <time>2024-12-17T11:59:54.000Z</time>
      </trkpt>
      <trkpt lat="50.25987" lon="4.53355">
        <ele>265.246016</ele>
        <time>2024-12-17T11:59:55.000Z</time>
      </trkpt>
      <trkpt lat="50.25989" lon="4.53355">
        <ele>265.231395</ele>
        <time>2024-12-17T11:59:56.000Z</time>
      </trkpt>
      <trkpt lat="50.25992" lon="4.53355">
        <ele>265.216288</ele>
        <time>2024-12-17T11:59:57.000Z</time>
      </trkpt>
      <trkpt lat="50.25995" lon="4.53355">
        <ele>265.201695</ele>
        <time>2024-12-17T11:59:58.000Z</time>
      </trkpt>
      <trkpt lat="50.25998" lon="4.53354">
        <ele>265.186095</ele>
        <time>2024-12-17T11:59:59.000Z</time>
      </trkpt>
      <trkpt lat="50.26002" lon="4.53354">
        <ele>265.170469</ele>
        <time>2024-12-17T12:00:00.000Z</time>
      </trkpt>
      <trkpt lat="50.26005" lon="4.53354">
        <ele>265.153789</ele>
        <time>2024-12-17T12:00:01.000Z</time>
      </trkpt>
      <trkpt lat="50.26008" lon="4.53353">
        <ele>265.136609</ele>
        <time>2024-12-17T12:00:02.000Z</time>
      </trkpt>
      <trkpt lat="50.26012" lon="4.53353">
        <ele>265.118895</ele>
        <time>2024-12-17T12:00:03.000Z</time>
      </trkpt>
      <trkpt lat="50.26015" lon="4.53352">
        <ele>265.101681</ele>
        <time>2024-12-17T12:00:04.000Z</time>
      </trkpt>
      <trkpt lat="50.26018" lon="4.53351">
        <ele>265.085966</ele>
        <time>2024-12-17T12:00:05.000Z</time>
      </trkpt>
      <trkpt lat="50.26023" lon="4.5335">
        <ele>265.062103</ele>
        <time>2024-12-17T12:00:06.000Z</time>
      </trkpt>
      <trkpt lat="50.26027" lon="4.53349">
        <ele>265.04222</ele>
        <time>2024-12-17T12:00:07.000Z</time>
      </trkpt>
      <trkpt lat="50.26031" lon="4.53348">
        <ele>265.021729</ele>
        <time>2024-12-17T12:00:08.000Z</time>
      </trkpt>
      <trkpt lat="50.26035" lon="4.53347">
        <ele>265.00148</ele>
        <time>2024-12-17T12:00:09.000Z</time>
      </trkpt>
      <trkpt lat="50.26039" lon="4.53347">
        <ele>264.98079</ele>
        <time>2024-12-17T12:00:10.000Z</time>
      </trkpt>
      <trkpt lat="50.26043" lon="4.53346">
        <ele>264.959599</ele>
        <time>2024-12-17T12:00:11.000Z</time>
      </trkpt>
      <trkpt lat="50.26047" lon="4.53346">
        <ele>264.945131</ele>
        <time>2024-12-17T12:00:12.000Z</time>
      </trkpt>
      <trkpt lat="50.26051" lon="4.53345">
        <ele>264.93163</ele>
        <time>2024-12-17T12:00:13.000Z</time>
      </trkpt>
      <trkpt lat="50.26056" lon="4.53344">
        <ele>264.917832</ele>
        <time>2024-12-17T12:00:14.000Z</time>
      </trkpt>
      <trkpt lat="50.2606" lon="4.53343">
        <ele>264.904035</ele>
        <time>2024-12-17T12:00:15.000Z</time>
      </trkpt>
      <trkpt lat="50.26064" lon="4.53342">
        <ele>264.889565</ele>
        <time>2024-12-17T12:00:16.000Z</time>
      </trkpt>
      <trkpt lat="50.26068" lon="4.53341">
        <ele>264.875418</ele>
        <time>2024-12-17T12:00:17.000Z</time>
      </trkpt>
      <trkpt lat="50.26073" lon="4.5334">
        <ele>264.861095</ele>
        <time>2024-12-17T12:00:18.000Z</time>
      </trkpt>
      <trkpt lat="50.26077" lon="4.53339">
        <ele>264.846851</ele>
        <time>2024-12-17T12:00:19.000Z</time>
      </trkpt>
      <trkpt lat="50.26081" lon="4.53338">
        <ele>264.833027</ele>
        <time>2024-12-17T12:00:20.000Z</time>
      </trkpt>
      <trkpt lat="50.26086" lon="4.53337">
        <ele>264.81888</ele>
        <time>2024-12-17T12:00:21.000Z</time>
      </trkpt>
      <trkpt lat="50.2609" lon="4.53336">
        <ele>264.804458</ele>
        <time>2024-12-17T12:00:22.000Z</time>
      </trkpt>
      <trkpt lat="50.26094" lon="4.53336">
        <ele>264.790036</ele>
        <time>2024-12-17T12:00:23.000Z</time>
      </trkpt>
      <trkpt lat="50.26099" lon="4.53335">
        <ele>264.775938</ele>
        <time>2024-12-17T12:00:24.000Z</time>
      </trkpt>
      <trkpt lat="50.26103" lon="4.53334">
        <ele>264.762084</ele>
        <time>2024-12-17T12:00:25.000Z</time>
      </trkpt>
      <trkpt lat="50.26107" lon="4.53333">
        <ele>264.748906</ele>
        <time>2024-12-17T12:00:26.000Z</time>
      </trkpt>
      <trkpt lat="50.26111" lon="4.53332">
        <ele>264.735109</ele>
        <time>2024-12-17T12:00:27.000Z</time>
      </trkpt>
      <trkpt lat="50.26115" lon="4.53332">
        <ele>264.721335</ele>
        <time>2024-12-17T12:00:28.000Z</time>
      </trkpt>
      <trkpt lat="50.2612" lon="4.53331">
        <ele>264.707188</ele>
        <time>2024-12-17T12:00:29.000Z</time>
      </trkpt>
      <trkpt lat="50.26124" lon="4.5333">
        <ele>264.693391</ele>
        <time>2024-12-17T12:00:30.000Z</time>
      </trkpt>
      <trkpt lat="50.26128" lon="4.53329">
        <ele>264.67927</ele>
        <time>2024-12-17T12:00:31.000Z</time>
      </trkpt>
      <trkpt lat="50.26132" lon="4.53328">
        <ele>264.665446</ele>
        <time>2024-12-17T12:00:32.000Z</time>
      </trkpt>
      <trkpt lat="50.26136" lon="4.53327">
        <ele>264.651622</ele>
        <time>2024-12-17T12:00:33.000Z</time>
      </trkpt>
      <trkpt lat="50.26141" lon="4.53326">
        <ele>264.637151</ele>
        <time>2024-12-17T12:00:34.000Z</time>
      </trkpt>
      <trkpt lat="50.26145" lon="4.53325">
        <ele>264.622975</ele>
        <time>2024-12-17T12:00:35.000Z</time>
      </trkpt>
      <trkpt lat="50.26149" lon="4.53324">
        <ele>264.608828</ele>
        <time>2024-12-17T12:00:36.000Z</time>
      </trkpt>
      <trkpt lat="50.26154" lon="4.53324">
        <ele>264.594707</ele>
        <time>2024-12-17T12:00:37.000Z</time>
      </trkpt>
      <trkpt lat="50.26158" lon="4.53323">
        <ele>264.58056</ele>
        <time>2024-12-17T12:00:38.000Z</time>
      </trkpt>
      <trkpt lat="50.26162" lon="4.53322">
        <ele>264.566413</ele>
        <time>2024-12-17T12:00:39.000Z</time>
      </trkpt>
      <trkpt lat="50.26166" lon="4.53321">
        <ele>264.553169</ele>
        <time>2024-12-17T12:00:40.000Z</time>
      </trkpt>
      <trkpt lat="50.2617" lon="4.5332">
        <ele>264.540208</ele>
        <time>2024-12-17T12:00:41.000Z</time>
      </trkpt>
      <trkpt lat="50.26174" lon="4.53319">
        <ele>264.526998</ele>
        <time>2024-12-17T12:00:42.000Z</time>
      </trkpt>
      <trkpt lat="50.26178" lon="4.53318">
        <ele>264.514465</ele>
        <time>2024-12-17T12:00:43.000Z</time>
      </trkpt>
      <trkpt lat="50.26182" lon="4.53317">
        <ele>264.503035</ele>
        <time>2024-12-17T12:00:44.000Z</time>
      </trkpt>
      <trkpt lat="50.26185" lon="4.53317">
        <ele>264.491553</ele>
        <time>2024-12-17T12:00:45.000Z</time>
      </trkpt>
      <trkpt lat="50.26188" lon="4.53316">
        <ele>264.481043</ele>
        <time>2024-12-17T12:00:46.000Z</time>
      </trkpt>
      <trkpt lat="50.26191" lon="4.53315">
        <ele>264.470441</ele>
        <time>2024-12-17T12:00:47.000Z</time>
      </trkpt>
      <trkpt lat="50.26194" lon="4.53314">
        <ele>264.46048</ele>
        <time>2024-12-17T12:00:48.000Z</time>
      </trkpt>
      <trkpt lat="50.26197" lon="4.53314">
        <ele>264.45129</ele>
        <time>2024-12-17T12:00:49.000Z</time>
      </trkpt>
      <trkpt lat="50.262" lon="4.53314">
        <ele>264.442788</ele>
        <time>2024-12-17T12:00:50.000Z</time>
      </trkpt>
      <trkpt lat="50.26202" lon="4.53313">
        <ele>264.434593</ele>
        <time>2024-12-17T12:00:51.000Z</time>
      </trkpt>
      <trkpt lat="50.26205" lon="4.53313">
        <ele>264.426417</ele>
        <time>2024-12-17T12:00:52.000Z</time>
      </trkpt>
      <trkpt lat="50.26208" lon="4.53312">
        <ele>264.417573</ele>
        <time>2024-12-17T12:00:53.000Z</time>
      </trkpt>
      <trkpt lat="50.26211" lon="4.53312">
        <ele>264.407649</ele>
        <time>2024-12-17T12:00:54.000Z</time>
      </trkpt>
      <trkpt lat="50.26214" lon="4.53311">
        <ele>264.397162</ele>
        <time>2024-12-17T12:00:55.000Z</time>
      </trkpt>
      <trkpt lat="50.26217" lon="4.53311">
        <ele>264.386057</ele>
        <time>2024-12-17T12:00:56.000Z</time>
      </trkpt>
      <trkpt lat="50.26221" lon="4.5331">
        <ele>264.374575</ele>
        <time>2024-12-17T12:00:57.000Z</time>
      </trkpt>
      <trkpt lat="50.26224" lon="4.5331">
        <ele>264.365145</ele>
        <time>2024-12-17T12:00:58.000Z</time>
      </trkpt>
      <trkpt lat="50.26228" lon="4.5331">
        <ele>264.355936</ele>
        <time>2024-12-17T12:00:59.000Z</time>
      </trkpt>
      <trkpt lat="50.26231" lon="4.53309">
        <ele>264.346705</ele>
        <time>2024-12-17T12:01:00.000Z</time>
      </trkpt>
      <trkpt lat="50.26234" lon="4.53309">
        <ele>264.339004</ele>
        <time>2024-12-17T12:01:01.000Z</time>
      </trkpt>
      <trkpt lat="50.26238" lon="4.53308">
        <ele>264.330283</ele>
        <time>2024-12-17T12:01:02.000Z</time>
      </trkpt>
      <trkpt lat="50.26241" lon="4.53308">
        <ele>264.321843</ele>
        <time>2024-12-17T12:01:03.000Z</time>
      </trkpt>
      <trkpt lat="50.26244" lon="4.53309">
        <ele>264.313912</ele>
        <time>2024-12-17T12:01:04.000Z</time>
      </trkpt>
      <trkpt lat="50.26247" lon="4.53309">
        <ele>264.306177</ele>
        <time>2024-12-17T12:01:05.000Z</time>
      </trkpt>
      <trkpt lat="50.2625" lon="4.5331">
        <ele>264.298112</ele>
        <time>2024-12-17T12:01:06.000Z</time>
      </trkpt>
      <trkpt lat="50.26253" lon="4.53312">
        <ele>264.2903</ele>
        <time>2024-12-17T12:01:07.000Z</time>
      </trkpt>
      <trkpt lat="50.26256" lon="4.53314">
        <ele>264.282514</ele>
        <time>2024-12-17T12:01:08.000Z</time>
      </trkpt>
      <trkpt lat="50.26258" lon="4.53316">
        <ele>264.275315</ele>
        <time>2024-12-17T12:01:09.000Z</time>
      </trkpt>
      <trkpt lat="50.2626" lon="4.53318">
        <ele>264.268435</ele>
        <time>2024-12-17T12:01:10.000Z</time>
      </trkpt>
      <trkpt lat="50.26263" lon="4.53319">
        <ele>264.261824</ele>
        <time>2024-12-17T12:01:11.000Z</time>
      </trkpt>
      <trkpt lat="50.26265" lon="4.5332">
        <ele>264.256364</ele>
        <time>2024-12-17T12:01:12.000Z</time>
      </trkpt>
      <trkpt lat="50.26267" lon="4.5332">
        <ele>264.251225</ele>
        <time>2024-12-17T12:01:13.000Z</time>
      </trkpt>
      <trkpt lat="50.26269" lon="4.5332">
        <ele>264.245832</ele>
        <time>2024-12-17T12:01:14.000Z</time>
      </trkpt>
      <trkpt lat="50.26271" lon="4.53319">
        <ele>264.240228</ele>
        <time>2024-12-17T12:01:15.000Z</time>
      </trkpt>
      <trkpt lat="50.26273" lon="4.53316">
        <ele>264.234147</ele>
        <time>2024-12-17T12:01:16.000Z</time>
      </trkpt>
      <trkpt lat="50.26274" lon="4.53313">
        <ele>264.228462</ele>
        <time>2024-12-17T12:01:17.000Z</time>
      </trkpt>
      <trkpt lat="50.26275" lon="4.53311">
        <ele>264.222804</ele>
        <time>2024-12-17T12:01:18.000Z</time>
      </trkpt>
      <trkpt lat="50.26276" lon="4.53307">
        <ele>264.217274</ele>
        <time>2024-12-17T12:01:19.000Z</time>
      </trkpt>
      <trkpt lat="50.26276" lon="4.53304">
        <ele>264.211872</ele>
        <time>2024-12-17T12:01:20.000Z</time>
      </trkpt>
      <trkpt lat="50.26276" lon="4.53301">
        <ele>264.206422</ele>
        <time>2024-12-17T12:01:21.000Z</time>
      </trkpt>
      <trkpt lat="50.26276" lon="4.53298">
        <ele>264.201184</ele>
        <time>2024-12-17T12:01:22.000Z</time>
      </trkpt>
      <trkpt lat="50.26276" lon="4.53294">
        <ele>264.195782</ele>
        <time>2024-12-17T12:01:23.000Z</time>
      </trkpt>
      <trkpt lat="50.26276" lon="4.53291">
        <ele>264.189711</ele>
        <time>2024-12-17T12:01:24.000Z</time>
      </trkpt>
      <trkpt lat="50.26276" lon="4.53287">
        <ele>264.183819</ele>
        <time>2024-12-17T12:01:25.000Z</time>
      </trkpt>
      <trkpt lat="50.26276" lon="4.53284">
        <ele>264.178744</ele>
        <time>2024-12-17T12:01:26.000Z</time>
      </trkpt>
      <trkpt lat="50.26276" lon="4.53281">
        <ele>264.173675</ele>
        <time>2024-12-17T12:01:27.000Z</time>
      </trkpt>
      <trkpt lat="50.26276" lon="4.53278">
        <ele>264.1686</ele>
        <time>2024-12-17T12:01:28.000Z</time>
      </trkpt>
      <trkpt lat="50.26276" lon="4.53275">
        <ele>264.163505</ele>
        <time>2024-12-17T12:01:29.000Z</time>
      </trkpt>
      <trkpt lat="50.26277" lon="4.53271">
        <ele>264.157531</ele>
        <time>2024-12-17T12:01:30.000Z</time>
      </trkpt>
      <trkpt lat="50.26277" lon="4.53267">
        <ele>264.151667</ele>
        <time>2024-12-17T12:01:31.000Z</time>
      </trkpt>
      <trkpt lat="50.26278" lon="4.53264">
        <ele>264.145358</ele>
        <time>2024-12-17T12:01:32.000Z</time>
      </trkpt>
      <trkpt lat="50.26279" lon="4.5326">
        <ele>264.138533</ele>
        <time>2024-12-17T12:01:33.000Z</time>
      </trkpt>
      <trkpt lat="50.26279" lon="4.53256">
        <ele>264.132299</ele>
        <time>2024-12-17T12:01:34.000Z</time>
      </trkpt>
      <trkpt lat="50.26279" lon="4.53252">
        <ele>264.125739</ele>
        <time>2024-12-17T12:01:35.000Z</time>
      </trkpt>
      <trkpt lat="50.26279" lon="4.53248">
        <ele>264.119199</ele>
        <time>2024-12-17T12:01:36.000Z</time>
      </trkpt>
      <trkpt lat="50.26279" lon="4.53243">
        <ele>264.112004</ele>
        <time>2024-12-17T12:01:37.000Z</time>
      </trkpt>
      <trkpt lat="50.26279" lon="4.5324">
        <ele>264.105607</ele>
        <time>2024-12-17T12:01:38.000Z</time>
      </trkpt>
      <trkpt lat="50.26279" lon="4.53236">
        <ele>264.099184</ele>
        <time>2024-12-17T12:01:39.000Z</time>
      </trkpt>
      <trkpt lat="50.2628" lon="4.53232">
        <ele>264.093113</ele>
        <time>2024-12-17T12:01:40.000Z</time>
      </trkpt>
      <trkpt lat="50.2628" lon="4.53228">
        <ele>264.086404</ele>
        <time>2024-12-17T12:01:41.000Z</time>
      </trkpt>
      <trkpt lat="50.26279" lon="4.53223">
        <ele>264.078715</ele>
        <time>2024-12-17T12:01:42.000Z</time>
      </trkpt>
      <trkpt lat="50.2628" lon="4.53218">
        <ele>264.070925</ele>
        <time>2024-12-17T12:01:43.000Z</time>
      </trkpt>
      <trkpt lat="50.2628" lon="4.53214">
        <ele>264.063527</ele>
        <time>2024-12-17T12:01:44.000Z</time>
      </trkpt>
      <trkpt lat="50.2628" lon="4.5321">
        <ele>264.056328</ele>
        <time>2024-12-17T12:01:45.000Z</time>
      </trkpt>
      <trkpt lat="50.26281" lon="4.53204">
        <ele>264.047791</ele>
        <time>2024-12-17T12:01:46.000Z</time>
      </trkpt>
      <trkpt lat="50.26281" lon="4.53199">
        <ele>264.039417</ele>
        <time>2024-12-17T12:01:47.000Z</time>
      </trkpt>
      <trkpt lat="50.26281" lon="4.53195">
        <ele>264.031694</ele>
        <time>2024-12-17T12:01:48.000Z</time>
      </trkpt>
      <trkpt lat="50.26281" lon="4.5319">
        <ele>264.024337</ele>
        <time>2024-12-17T12:01:49.000Z</time>
      </trkpt>
      <trkpt lat="50.26281" lon="4.53185">
        <ele>264.016648</ele>
        <time>2024-12-17T12:01:50.000Z</time>
      </trkpt>
      <trkpt lat="50.26281" lon="4.5318">
        <ele>264.008293</ele>
        <time>2024-12-17T12:01:51.000Z</time>
      </trkpt>
      <trkpt lat="50.26282" lon="4.53176">
        <ele>264.000754</ele>
        <time>2024-12-17T12:01:52.000Z</time>
      </trkpt>
      <trkpt lat="50.26282" lon="4.53171">
        <ele>263.993868</ele>
        <time>2024-12-17T12:01:53.000Z</time>
      </trkpt>
      <trkpt lat="50.26282" lon="4.53167">
        <ele>263.987204</ele>
        <time>2024-12-17T12:01:54.000Z</time>
      </trkpt>
      <trkpt lat="50.26283" lon="4.53164">
        <ele>263.980861</ele>
        <time>2024-12-17T12:01:55.000Z</time>
      </trkpt>
      <trkpt lat="50.26283" lon="4.5316">
        <ele>263.975249</ele>
        <time>2024-12-17T12:01:56.000Z</time>
      </trkpt>
      <trkpt lat="50.26283" lon="4.53157">
        <ele>263.970398</ele>
        <time>2024-12-17T12:01:57.000Z</time>
      </trkpt>
      <trkpt lat="50.26284" lon="4.53155">
        <ele>263.965935</ele>
        <time>2024-12-17T12:01:58.000Z</time>
      </trkpt>
      <trkpt lat="50.26285" lon="4.53153">
        <ele>263.961784</ele>
        <time>2024-12-17T12:01:59.000Z</time>
      </trkpt>
      <trkpt lat="50.26286" lon="4.53151">
        <ele>263.95737</ele>
        <time>2024-12-17T12:02:00.000Z</time>
      </trkpt>
      <trkpt lat="50.26287" lon="4.53149">
        <ele>263.953593</ele>
        <time>2024-12-17T12:02:01.000Z</time>
      </trkpt>
      <trkpt lat="50.26288" lon="4.53148">
        <ele>263.950568</ele>
        <time>2024-12-17T12:02:02.000Z</time>
      </trkpt>
      <trkpt lat="50.26289" lon="4.53147">
        <ele>263.947344</ele>
        <time>2024-12-17T12:02:03.000Z</time>
      </trkpt>
      <trkpt lat="50.26289" lon="4.53146">
        <ele>263.946737</ele>
        <time>2024-12-17T12:02:04.000Z</time>
      </trkpt>
      <trkpt lat="50.26294" lon="4.53145">
        <ele>263.935253</ele>
        <time>2024-12-17T12:02:27.000Z</time>
      </trkpt>
      <trkpt lat="50.26295" lon="4.53144">
        <ele>263.930662</ele>
        <time>2024-12-17T12:02:28.000Z</time>
      </trkpt>
      <trkpt lat="50.26298" lon="4.53144">
        <ele>263.924998</ele>
        <time>2024-12-17T12:02:29.000Z</time>
      </trkpt>
      <trkpt lat="50.263" lon="4.53143">
        <ele>263.919221</ele>
        <time>2024-12-17T12:02:30.000Z</time>
      </trkpt>
      <trkpt lat="50.26302" lon="4.53142">
        <ele>263.913261</ele>
        <time>2024-12-17T12:02:31.000Z</time>
      </trkpt>
      <trkpt lat="50.26304" lon="4.5314">
        <ele>263.903519</ele>
        <time>2024-12-17T12:02:32.000Z</time>
      </trkpt>
      <trkpt lat="50.26306" lon="4.53139">
        <ele>263.891944</ele>
        <time>2024-12-17T12:02:33.000Z</time>
      </trkpt>
      <trkpt lat="50.26308" lon="4.53139">
        <ele>263.880651</ele>
        <time>2024-12-17T12:02:34.000Z</time>
      </trkpt>
      <trkpt lat="50.26311" lon="4.53138">
        <ele>263.867606</ele>
        <time>2024-12-17T12:02:35.000Z</time>
      </trkpt>
      <trkpt lat="50.26313" lon="4.53137">
        <ele>263.853601</ele>
        <time>2024-12-17T12:02:36.000Z</time>
      </trkpt>
      <trkpt lat="50.26316" lon="4.53136">
        <ele>263.841215</ele>
        <time>2024-12-17T12:02:37.000Z</time>
      </trkpt>
      <trkpt lat="50.26318" lon="4.53134">
        <ele>263.82721</ele>
        <time>2024-12-17T12:02:38.000Z</time>
      </trkpt>
      <trkpt lat="50.26321" lon="4.53133">
        <ele>263.812592</ele>
        <time>2024-12-17T12:02:39.000Z</time>
      </trkpt>
      <trkpt lat="50.26323" lon="4.53131">
        <ele>263.798101</ele>
        <time>2024-12-17T12:02:40.000Z</time>
      </trkpt>
      <trkpt lat="50.26326" lon="4.5313">
        <ele>263.783741</ele>
        <time>2024-12-17T12:02:41.000Z</time>
      </trkpt>
      <trkpt lat="50.26328" lon="4.53128">
        <ele>263.76933</ele>
        <time>2024-12-17T12:02:42.000Z</time>
      </trkpt>
      <trkpt lat="50.26331" lon="4.53127">
        <ele>263.754655</ele>
        <time>2024-12-17T12:02:43.000Z</time>
      </trkpt>
      <trkpt lat="50.26333" lon="4.53127">
        <ele>263.742352</ele>
        <time>2024-12-17T12:02:44.000Z</time>
      </trkpt>
      <trkpt lat="50.26336" lon="4.53126">
        <ele>263.728034</ele>
        <time>2024-12-17T12:02:45.000Z</time>
      </trkpt>
      <trkpt lat="50.26338" lon="4.53125">
        <ele>263.714989</ele>
        <time>2024-12-17T12:02:46.000Z</time>
      </trkpt>
      <trkpt lat="50.2634" lon="4.53125">
        <ele>263.70527</ele>
        <time>2024-12-17T12:02:47.000Z</time>
      </trkpt>
      <trkpt lat="50.26342" lon="4.53124">
        <ele>263.693399</ele>
        <time>2024-12-17T12:02:48.000Z</time>
      </trkpt>
      <trkpt lat="50.26344" lon="4.53123">
        <ele>263.681527</ele>
        <time>2024-12-17T12:02:49.000Z</time>
      </trkpt>
      <trkpt lat="50.26347" lon="4.53122">
        <ele>263.664884</ele>
        <time>2024-12-17T12:02:50.000Z</time>
      </trkpt>
      <trkpt lat="50.26352" lon="4.53121">
        <ele>263.641721</ele>
        <time>2024-12-17T12:02:51.000Z</time>
      </trkpt>
      <trkpt lat="50.26356" lon="4.5312">
        <ele>263.620712</ele>
        <time>2024-12-17T12:02:52.000Z</time>
      </trkpt>
      <trkpt lat="50.26359" lon="4.53119">
        <ele>263.603136</ele>
        <time>2024-12-17T12:02:53.000Z</time>
      </trkpt>
      <trkpt lat="50.26361" lon="4.53117">
        <ele>263.590136</ele>
        <time>2024-12-17T12:02:54.000Z</time>
      </trkpt>
      <trkpt lat="50.26364" lon="4.53117">
        <ele>263.576634</ele>
        <time>2024-12-17T12:02:55.000Z</time>
      </trkpt>
      <trkpt lat="50.26366" lon="4.53115">
        <ele>263.562518</ele>
        <time>2024-12-17T12:02:56.000Z</time>
      </trkpt>
      <trkpt lat="50.26368" lon="4.53114">
        <ele>263.552603</ele>
        <time>2024-12-17T12:02:57.000Z</time>
      </trkpt>
      <trkpt lat="50.2637" lon="4.53112">
        <ele>263.540033</ele>
        <time>2024-12-17T12:02:58.000Z</time>
      </trkpt>
      <trkpt lat="50.26372" lon="4.53111">
        <ele>263.525799</ele>
        <time>2024-12-17T12:02:59.000Z</time>
      </trkpt>
      <trkpt lat="50.26375" lon="4.53109">
        <ele>263.510451</ele>
        <time>2024-12-17T12:03:00.000Z</time>
      </trkpt>
      <trkpt lat="50.26377" lon="4.53107">
        <ele>263.498642</ele>
        <time>2024-12-17T12:03:01.000Z</time>
      </trkpt>
      <trkpt lat="50.2638" lon="4.53105">
        <ele>263.48079</ele>
        <time>2024-12-17T12:03:02.000Z</time>
      </trkpt>
      <trkpt lat="50.26382" lon="4.53103">
        <ele>263.468373</ele>
        <time>2024-12-17T12:03:03.000Z</time>
      </trkpt>
      <trkpt lat="50.26384" lon="4.53102">
        <ele>263.458589</ele>
        <time>2024-12-17T12:03:04.000Z</time>
      </trkpt>
      <trkpt lat="50.26385" lon="4.53102">
        <ele>263.449842</ele>
        <time>2024-12-17T12:03:05.000Z</time>
      </trkpt>
      <trkpt lat="50.26388" lon="4.531">
        <ele>263.436316</ele>
        <time>2024-12-17T12:03:06.000Z</time>
      </trkpt>
      <trkpt lat="50.2639" lon="4.53098">
        <ele>263.423069</ele>
        <time>2024-12-17T12:03:07.000Z</time>
      </trkpt>
      <trkpt lat="50.26392" lon="4.53097">
        <ele>263.408088</ele>
        <time>2024-12-17T12:03:08.000Z</time>
      </trkpt>
      <trkpt lat="50.26395" lon="4.53095">
        <ele>263.394099</ele>
        <time>2024-12-17T12:03:09.000Z</time>
      </trkpt>
      <trkpt lat="50.26397" lon="4.53094">
        <ele>263.383857</ele>
        <time>2024-12-17T12:03:10.000Z</time>
      </trkpt>
      <trkpt lat="50.26399" lon="4.53093">
        <ele>263.372586</ele>
        <time>2024-12-17T12:03:11.000Z</time>
      </trkpt>
      <trkpt lat="50.264" lon="4.53092">
        <ele>263.363154</ele>
        <time>2024-12-17T12:03:12.000Z</time>
      </trkpt>
      <trkpt lat="50.26402" lon="4.53091">
        <ele>263.354972</ele>
        <time>2024-12-17T12:03:13.000Z</time>
      </trkpt>
      <trkpt lat="50.26403" lon="4.5309">
        <ele>263.345813</ele>
        <time>2024-12-17T12:03:14.000Z</time>
      </trkpt>
      <trkpt lat="50.26405" lon="4.53088">
        <ele>263.335273</ele>
        <time>2024-12-17T12:03:15.000Z</time>
      </trkpt>
      <trkpt lat="50.26407" lon="4.53087">
        <ele>263.326317</ele>
        <time>2024-12-17T12:03:16.000Z</time>
      </trkpt>
      <trkpt lat="50.26408" lon="4.53086">
        <ele>263.319868</ele>
        <time>2024-12-17T12:03:17.000Z</time>
      </trkpt>
      <trkpt lat="50.26409" lon="4.53086">
        <ele>263.313171</ele>
        <time>2024-12-17T12:03:18.000Z</time>
      </trkpt>
      <trkpt lat="50.2641" lon="4.53085">
        <ele>263.306236</ele>
        <time>2024-12-17T12:03:19.000Z</time>
      </trkpt>
      <trkpt lat="50.26411" lon="4.53084">
        <ele>263.300265</ele>
        <time>2024-12-17T12:03:20.000Z</time>
      </trkpt>
      <trkpt lat="50.26412" lon="4.53084">
        <ele>263.29433</ele>
        <time>2024-12-17T12:03:21.000Z</time>
      </trkpt>
      <trkpt lat="50.26413" lon="4.53084">
        <ele>263.287869</ele>
        <time>2024-12-17T12:03:22.000Z</time>
      </trkpt>
      <trkpt lat="50.26415" lon="4.53083">
        <ele>263.279688</ele>
        <time>2024-12-17T12:03:23.000Z</time>
      </trkpt>
      <trkpt lat="50.26416" lon="4.53081">
        <ele>263.270103</ele>
        <time>2024-12-17T12:03:24.000Z</time>
      </trkpt>
      <trkpt lat="50.26418" lon="4.5308">
        <ele>263.259702</ele>
        <time>2024-12-17T12:03:25.000Z</time>
      </trkpt>
      <trkpt lat="50.2642" lon="4.5308">
        <ele>263.250127</ele>
        <time>2024-12-17T12:03:26.000Z</time>
      </trkpt>
      <trkpt lat="50.26422" lon="4.5308">
        <ele>263.241064</ele>
        <time>2024-12-17T12:03:27.000Z</time>
      </trkpt>
      <trkpt lat="50.26423" lon="4.53079">
        <ele>263.231626</ele>
        <time>2024-12-17T12:03:28.000Z</time>
      </trkpt>
      <trkpt lat="50.26425" lon="4.53078">
        <ele>263.222794</ele>
        <time>2024-12-17T12:03:29.000Z</time>
      </trkpt>
      <trkpt lat="50.26427" lon="4.53078">
        <ele>263.212642</ele>
        <time>2024-12-17T12:03:30.000Z</time>
      </trkpt>
      <trkpt lat="50.26429" lon="4.53078">
        <ele>263.201473</ele>
        <time>2024-12-17T12:03:31.000Z</time>
      </trkpt>
      <trkpt lat="50.26431" lon="4.53078">
        <ele>263.19082</ele>
        <time>2024-12-17T12:03:32.000Z</time>
      </trkpt>
      <trkpt lat="50.26433" lon="4.53078">
        <ele>263.182307</ele>
        <time>2024-12-17T12:03:33.000Z</time>
      </trkpt>
      <trkpt lat="50.26434" lon="4.53078">
        <ele>263.174857</ele>
        <time>2024-12-17T12:03:34.000Z</time>
      </trkpt>
      <trkpt lat="50.26435" lon="4.53077">
        <ele>263.167383</ele>
        <time>2024-12-17T12:03:35.000Z</time>
      </trkpt>
      <trkpt lat="50.26437" lon="4.53077">
        <ele>263.161004</ele>
        <time>2024-12-17T12:03:36.000Z</time>
      </trkpt>
      <trkpt lat="50.26438" lon="4.53078">
        <ele>263.155517</ele>
        <time>2024-12-17T12:03:37.000Z</time>
      </trkpt>
      <trkpt lat="50.26439" lon="4.53077">
        <ele>263.148915</ele>
        <time>2024-12-17T12:03:38.000Z</time>
      </trkpt>
      <trkpt lat="50.26442" lon="4.53077">
        <ele>263.132837</ele>
        <time>2024-12-17T12:03:40.000Z</time>
      </trkpt>
      <trkpt lat="50.26444" lon="4.53077">
        <ele>263.122977</ele>
        <time>2024-12-17T12:03:41.000Z</time>
      </trkpt>
      <trkpt lat="50.26445" lon="4.53077">
        <ele>263.113259</ele>
        <time>2024-12-17T12:03:42.000Z</time>
      </trkpt>
      <trkpt lat="50.26447" lon="4.53076">
        <ele>263.103475</ele>
        <time>2024-12-17T12:03:43.000Z</time>
      </trkpt>
      <trkpt lat="50.26449" lon="4.53075">
        <ele>263.093073</ele>
        <time>2024-12-17T12:03:44.000Z</time>
      </trkpt>
      <trkpt lat="50.26451" lon="4.53074">
        <ele>263.079334</ele>
        <time>2024-12-17T12:03:45.000Z</time>
      </trkpt>
      <trkpt lat="50.26454" lon="4.53073">
        <ele>263.066131</ele>
        <time>2024-12-17T12:03:46.000Z</time>
      </trkpt>
      <trkpt lat="50.26456" lon="4.53072">
        <ele>263.053674</ele>
        <time>2024-12-17T12:03:47.000Z</time>
      </trkpt>
      <trkpt lat="50.26458" lon="4.53071">
        <ele>263.040803</ele>
        <time>2024-12-17T12:03:48.000Z</time>
      </trkpt>
      <trkpt lat="50.26461" lon="4.53071">
        <ele>263.029103</ele>
        <time>2024-12-17T12:03:49.000Z</time>
      </trkpt>
      <trkpt lat="50.26464" lon="4.53071">
        <ele>263.012497</ele>
        <time>2024-12-17T12:03:50.000Z</time>
      </trkpt>
      <trkpt lat="50.26467" lon="4.5307">
        <ele>262.995401</ele>
        <time>2024-12-17T12:03:51.000Z</time>
      </trkpt>
      <trkpt lat="50.2647" lon="4.53068">
        <ele>262.976708</ele>
        <time>2024-12-17T12:03:52.000Z</time>
      </trkpt>
      <trkpt lat="50.26473" lon="4.53067">
        <ele>262.959646</ele>
        <time>2024-12-17T12:03:53.000Z</time>
      </trkpt>
      <trkpt lat="50.26476" lon="4.53066">
        <ele>262.951031</ele>
        <time>2024-12-17T12:03:54.000Z</time>
      </trkpt>
      <trkpt lat="50.26479" lon="4.53065">
        <ele>262.946137</ele>
        <time>2024-12-17T12:03:55.000Z</time>
      </trkpt>
      <trkpt lat="50.26481" lon="4.53064">
        <ele>262.941895</ele>
        <time>2024-12-17T12:03:56.000Z</time>
      </trkpt>
      <trkpt lat="50.26483" lon="4.53063">
        <ele>262.937449</ele>
        <time>2024-12-17T12:03:57.000Z</time>
      </trkpt>
      <trkpt lat="50.26486" lon="4.53061">
        <ele>262.933009</ele>
        <time>2024-12-17T12:03:58.000Z</time>
      </trkpt>
      <trkpt lat="50.26486" lon="4.53057">
        <ele>262.927678</ele>
        <time>2024-12-17T12:03:59.000Z</time>
      </trkpt>
      <trkpt lat="50.26486" lon="4.53053">
        <ele>262.922736</ele>
        <time>2024-12-17T12:04:00.000Z</time>
      </trkpt>
      <trkpt lat="50.26484" lon="4.53049">
        <ele>262.91741</ele>
        <time>2024-12-17T12:04:01.000Z</time>
      </trkpt>
      <trkpt lat="50.26482" lon="4.53045">
        <ele>262.911986</ele>
        <time>2024-12-17T12:04:02.000Z</time>
      </trkpt>
      <trkpt lat="50.2648" lon="4.53041">
        <ele>262.906608</ele>
        <time>2024-12-17T12:04:03.000Z</time>
      </trkpt>
      <trkpt lat="50.26478" lon="4.53037">
        <ele>262.900828</ele>
        <time>2024-12-17T12:04:04.000Z</time>
      </trkpt>
      <trkpt lat="50.26476" lon="4.53033">
        <ele>262.894618</ele>
        <time>2024-12-17T12:04:05.000Z</time>
      </trkpt>
      <trkpt lat="50.26474" lon="4.53028">
        <ele>262.887923</ele>
        <time>2024-12-17T12:04:06.000Z</time>
      </trkpt>
      <trkpt lat="50.26471" lon="4.53023">
        <ele>262.880257</ele>
        <time>2024-12-17T12:04:07.000Z</time>
      </trkpt>
      <trkpt lat="50.26468" lon="4.53018">
        <ele>262.872417</ele>
        <time>2024-12-17T12:04:08.000Z</time>
      </trkpt>
      <trkpt lat="50.26465" lon="4.53012">
        <ele>262.864489</ele>
        <time>2024-12-17T12:04:09.000Z</time>
      </trkpt>
      <trkpt lat="50.26462" lon="4.53007">
        <ele>262.856561</ele>
        <time>2024-12-17T12:04:10.000Z</time>
      </trkpt>
      <trkpt lat="50.2646" lon="4.53001">
        <ele>262.848634</ele>
        <time>2024-12-17T12:04:11.000Z</time>
      </trkpt>
      <trkpt lat="50.26457" lon="4.52996">
        <ele>262.840595</ele>
        <time>2024-12-17T12:04:12.000Z</time>
      </trkpt>
      <trkpt lat="50.26454" lon="4.5299">
        <ele>262.832528</ele>
        <time>2024-12-17T12:04:13.000Z</time>
      </trkpt>
      <trkpt lat="50.2645" lon="4.52985">
        <ele>262.823975</ele>
        <time>2024-12-17T12:04:14.000Z</time>
      </trkpt>
      <trkpt lat="50.26447" lon="4.52979">
        <ele>262.815266</ele>
        <time>2024-12-17T12:04:15.000Z</time>
      </trkpt>
      <trkpt lat="50.26443" lon="4.52973">
        <ele>262.806151</ele>
        <time>2024-12-17T12:04:16.000Z</time>
      </trkpt>
      <trkpt lat="50.2644" lon="4.52967">
        <ele>262.796832</ele>
        <time>2024-12-17T12:04:17.000Z</time>
      </trkpt>
      <trkpt lat="50.26436" lon="4.52961">
        <ele>262.787024</ele>
        <time>2024-12-17T12:04:18.000Z</time>
      </trkpt>
      <trkpt lat="50.26432" lon="4.52955">
        <ele>262.777258</ele>
        <time>2024-12-17T12:04:19.000Z</time>
      </trkpt>
      <trkpt lat="50.26428" lon="4.52949">
        <ele>262.767325</ele>
        <time>2024-12-17T12:04:20.000Z</time>
      </trkpt>
      <trkpt lat="50.26424" lon="4.52943">
        <ele>262.757677</ele>
        <time>2024-12-17T12:04:21.000Z</time>
      </trkpt>
      <trkpt lat="50.26421" lon="4.52937">
        <ele>262.748435</ele>
        <time>2024-12-17T12:04:22.000Z</time>
      </trkpt>
      <trkpt lat="50.26417" lon="4.5293">
        <ele>262.738907</ele>
        <time>2024-12-17T12:04:23.000Z</time>
      </trkpt>
      <trkpt lat="50.26413" lon="4.52924">
        <ele>262.729038</ele>
        <time>2024-12-17T12:04:24.000Z</time>
      </trkpt>
      <trkpt lat="50.2641" lon="4.52917">
        <ele>262.719256</ele>
        <time>2024-12-17T12:04:25.000Z</time>
      </trkpt>
      <trkpt lat="50.26407" lon="4.52911">
        <ele>262.710202</ele>
        <time>2024-12-17T12:04:26.000Z</time>
      </trkpt>
      <trkpt lat="50.26404" lon="4.52904">
        <ele>262.701356</ele>
        <time>2024-12-17T12:04:27.000Z</time>
      </trkpt>
      <trkpt lat="50.26401" lon="4.52897">
        <ele>262.692697</ele>
        <time>2024-12-17T12:04:28.000Z</time>
      </trkpt>
      <trkpt lat="50.26399" lon="4.52891">
        <ele>262.684181</ele>
        <time>2024-12-17T12:04:29.000Z</time>
      </trkpt>
      <trkpt lat="50.26397" lon="4.52884">
        <ele>262.675844</ele>
        <time>2024-12-17T12:04:30.000Z</time>
      </trkpt>
      <trkpt lat="50.26395" lon="4.52877">
        <ele>262.667373</ele>
        <time>2024-12-17T12:04:31.000Z</time>
      </trkpt>
      <trkpt lat="50.26393" lon="4.5287">
        <ele>262.658727</ele>
        <time>2024-12-17T12:04:32.000Z</time>
      </trkpt>
      <trkpt lat="50.26391" lon="4.52863">
        <ele>262.649772</ele>
        <time>2024-12-17T12:04:33.000Z</time>
      </trkpt>
      <trkpt lat="50.26389" lon="4.52855">
        <ele>262.640468</ele>
        <time>2024-12-17T12:04:34.000Z</time>
      </trkpt>
      <trkpt lat="50.26387" lon="4.52848">
        <ele>262.643098</ele>
        <time>2024-12-17T12:04:35.000Z</time>
      </trkpt>
      <trkpt lat="50.26385" lon="4.5284">
        <ele>262.65381</ele>
        <time>2024-12-17T12:04:36.000Z</time>
      </trkpt>
      <trkpt lat="50.26383" lon="4.52832">
        <ele>262.664641</ele>
        <time>2024-12-17T12:04:37.000Z</time>
      </trkpt>
      <trkpt lat="50.26381" lon="4.52824">
        <ele>262.675589</ele>
        <time>2024-12-17T12:04:38.000Z</time>
      </trkpt>
      <trkpt lat="50.26379" lon="4.52815">
        <ele>262.686772</ele>
        <time>2024-12-17T12:04:39.000Z</time>
      </trkpt>
      <trkpt lat="50.26377" lon="4.52807">
        <ele>262.697942</ele>
        <time>2024-12-17T12:04:40.000Z</time>
      </trkpt>
      <trkpt lat="50.26375" lon="4.52798">
        <ele>262.709171</ele>
        <time>2024-12-17T12:04:41.000Z</time>
      </trkpt>
      <trkpt lat="50.26373" lon="4.5279">
        <ele>262.720591</ele>
        <time>2024-12-17T12:04:42.000Z</time>
      </trkpt>
      <trkpt lat="50.26371" lon="4.52781">
        <ele>262.732152</ele>
        <time>2024-12-17T12:04:43.000Z</time>
      </trkpt>
      <trkpt lat="50.26369" lon="4.52773">
        <ele>262.743691</ele>
        <time>2024-12-17T12:04:44.000Z</time>
      </trkpt>
      <trkpt lat="50.26367" lon="4.52764">
        <ele>262.755298</ele>
        <time>2024-12-17T12:04:45.000Z</time>
      </trkpt>
      <trkpt lat="50.26365" lon="4.52756">
        <ele>262.766819</ele>
        <time>2024-12-17T12:04:46.000Z</time>
      </trkpt>
      <trkpt lat="50.26362" lon="4.52748">
        <ele>262.778273</ele>
        <time>2024-12-17T12:04:47.000Z</time>
      </trkpt>
      <trkpt lat="50.26359" lon="4.5274">
        <ele>262.789759</ele>
        <time>2024-12-17T12:04:48.000Z</time>
      </trkpt>
      <trkpt lat="50.26356" lon="4.52732">
        <ele>262.801342</ele>
        <time>2024-12-17T12:04:49.000Z</time>
      </trkpt>
      <trkpt lat="50.26353" lon="4.52725">
        <ele>262.812967</ele>
        <time>2024-12-17T12:04:50.000Z</time>
      </trkpt>
      <trkpt lat="50.26349" lon="4.52717">
        <ele>262.825011</ele>
        <time>2024-12-17T12:04:51.000Z</time>
      </trkpt>
      <trkpt lat="50.26345" lon="4.52709">
        <ele>262.837999</ele>
        <time>2024-12-17T12:04:52.000Z</time>
      </trkpt>
      <trkpt lat="50.26341" lon="4.527">
        <ele>262.851424</ele>
        <time>2024-12-17T12:04:53.000Z</time>
      </trkpt>
      <trkpt lat="50.26337" lon="4.52692">
        <ele>262.865038</ele>
        <time>2024-12-17T12:04:54.000Z</time>
      </trkpt>
      <trkpt lat="50.26333" lon="4.52682">
        <ele>262.878546</ele>
        <time>2024-12-17T12:04:55.000Z</time>
      </trkpt>
      <trkpt lat="50.2633" lon="4.52672">
        <ele>262.892533</ele>
        <time>2024-12-17T12:04:56.000Z</time>
      </trkpt>
      <trkpt lat="50.26328" lon="4.52662">
        <ele>262.906542</ele>
        <time>2024-12-17T12:04:57.000Z</time>
      </trkpt>
      <trkpt lat="50.26326" lon="4.52651">
        <ele>262.920888</ele>
        <time>2024-12-17T12:04:58.000Z</time>
      </trkpt>
      <trkpt lat="50.26325" lon="4.52639">
        <ele>262.935549</ele>
        <time>2024-12-17T12:04:59.000Z</time>
      </trkpt>
      <trkpt lat="50.26324" lon="4.52628">
        <ele>262.95077</ele>
        <time>2024-12-17T12:05:00.000Z</time>
      </trkpt>
      <trkpt lat="50.26323" lon="4.52616">
        <ele>262.966055</ele>
        <time>2024-12-17T12:05:01.000Z</time>
      </trkpt>
      <trkpt lat="50.26322" lon="4.52604">
        <ele>262.981339</ele>
        <time>2024-12-17T12:05:02.000Z</time>
      </trkpt>
      <trkpt lat="50.2632" lon="4.52592">
        <ele>262.999057</ele>
        <time>2024-12-17T12:05:03.000Z</time>
      </trkpt>
      <trkpt lat="50.26319" lon="4.5258">
        <ele>263.02204</ele>
        <time>2024-12-17T12:05:04.000Z</time>
      </trkpt>
      <trkpt lat="50.26318" lon="4.52568">
        <ele>263.044622</ele>
        <time>2024-12-17T12:05:05.000Z</time>
      </trkpt>
      <trkpt lat="50.26316" lon="4.52556">
        <ele>263.066912</ele>
        <time>2024-12-17T12:05:06.000Z</time>
      </trkpt>
      <trkpt lat="50.26315" lon="4.52544">
        <ele>263.089493</ele>
        <time>2024-12-17T12:05:07.000Z</time>
      </trkpt>
      <trkpt lat="50.26313" lon="4.52533">
        <ele>263.112014</ele>
        <time>2024-12-17T12:05:08.000Z</time>
      </trkpt>
      <trkpt lat="50.26311" lon="4.52521">
        <ele>263.134287</ele>
        <time>2024-12-17T12:05:09.000Z</time>
      </trkpt>
      <trkpt lat="50.2631" lon="4.52509">
        <ele>263.156207</ele>
        <time>2024-12-17T12:05:10.000Z</time>
      </trkpt>
      <trkpt lat="50.26308" lon="4.52498">
        <ele>263.178215</ele>
        <time>2024-12-17T12:05:11.000Z</time>
      </trkpt>
      <trkpt lat="50.26306" lon="4.52487">
        <ele>263.200146</ele>
        <time>2024-12-17T12:05:12.000Z</time>
      </trkpt>
      <trkpt lat="50.26305" lon="4.52476">
        <ele>263.221387</ele>
        <time>2024-12-17T12:05:13.000Z</time>
      </trkpt>
      <trkpt lat="50.26303" lon="4.52465">
        <ele>263.242807</ele>
        <time>2024-12-17T12:05:14.000Z</time>
      </trkpt>
      <trkpt lat="50.26302" lon="4.52454">
        <ele>263.263859</ele>
        <time>2024-12-17T12:05:15.000Z</time>
      </trkpt>
      <trkpt lat="50.263" lon="4.52443">
        <ele>263.284553</ele>
        <time>2024-12-17T12:05:16.000Z</time>
      </trkpt>
      <trkpt lat="50.26298" lon="4.52433">
        <ele>263.304448</ele>
        <time>2024-12-17T12:05:17.000Z</time>
      </trkpt>
      <trkpt lat="50.26297" lon="4.52422">
        <ele>263.324526</ele>
        <time>2024-12-17T12:05:18.000Z</time>
      </trkpt>
      <trkpt lat="50.26295" lon="4.52412">
        <ele>263.343693</ele>
        <time>2024-12-17T12:05:19.000Z</time>
      </trkpt>
      <trkpt lat="50.26294" lon="4.52403">
        <ele>263.361951</ele>
        <time>2024-12-17T12:05:20.000Z</time>
      </trkpt>
      <trkpt lat="50.26292" lon="4.52394">
        <ele>263.379943</ele>
        <time>2024-12-17T12:05:21.000Z</time>
      </trkpt>
      <trkpt lat="50.26291" lon="4.52385">
        <ele>263.396895</ele>
        <time>2024-12-17T12:05:22.000Z</time>
      </trkpt>
      <trkpt lat="50.26289" lon="4.52376">
        <ele>263.413971</ele>
        <time>2024-12-17T12:05:23.000Z</time>
      </trkpt>
      <trkpt lat="50.26287" lon="4.52367">
        <ele>263.432045</ele>
        <time>2024-12-17T12:05:24.000Z</time>
      </trkpt>
      <trkpt lat="50.26284" lon="4.52359">
        <ele>263.450462</ele>
        <time>2024-12-17T12:05:25.000Z</time>
      </trkpt>
      <trkpt lat="50.26281" lon="4.5235">
        <ele>263.469441</ele>
        <time>2024-12-17T12:05:26.000Z</time>
      </trkpt>
      <trkpt lat="50.26277" lon="4.52342">
        <ele>263.48828</ele>
        <time>2024-12-17T12:05:27.000Z</time>
      </trkpt>
      <trkpt lat="50.26273" lon="4.52334">
        <ele>263.507612</ele>
        <time>2024-12-17T12:05:28.000Z</time>
      </trkpt>
      <trkpt lat="50.26268" lon="4.52327">
        <ele>263.521383</ele>
        <time>2024-12-17T12:05:29.000Z</time>
      </trkpt>
      <trkpt lat="50.26264" lon="4.52319">
        <ele>263.526556</ele>
        <time>2024-12-17T12:05:30.000Z</time>
      </trkpt>
      <trkpt lat="50.26259" lon="4.52312">
        <ele>263.531422</ele>
        <time>2024-12-17T12:05:31.000Z</time>
      </trkpt>
      <trkpt lat="50.26255" lon="4.52306">
        <ele>263.536275</ele>
        <time>2024-12-17T12:05:32.000Z</time>
      </trkpt>
      <trkpt lat="50.26251" lon="4.52299">
        <ele>263.541014</ele>
        <time>2024-12-17T12:05:33.000Z</time>
      </trkpt>
      <trkpt lat="50.26246" lon="4.52293">
        <ele>263.545662</ele>
        <time>2024-12-17T12:05:34.000Z</time>
      </trkpt>
      <trkpt lat="50.26242" lon="4.52286">
        <ele>263.550401</ele>
        <time>2024-12-17T12:05:35.000Z</time>
      </trkpt>
      <trkpt lat="50.26238" lon="4.52279">
        <ele>263.555283</ele>
        <time>2024-12-17T12:05:36.000Z</time>
      </trkpt>
      <trkpt lat="50.26234" lon="4.52271">
        <ele>263.56035</ele>
        <time>2024-12-17T12:05:37.000Z</time>
      </trkpt>
      <trkpt lat="50.26229" lon="4.52264">
        <ele>263.56544</ele>
        <time>2024-12-17T12:05:38.000Z</time>
      </trkpt>
      <trkpt lat="50.26225" lon="4.52256">
        <ele>263.570508</ele>
        <time>2024-12-17T12:05:39.000Z</time>
      </trkpt>
      <trkpt lat="50.26221" lon="4.52248">
        <ele>263.575528</ele>
        <time>2024-12-17T12:05:40.000Z</time>
      </trkpt>
      <trkpt lat="50.26217" lon="4.5224">
        <ele>263.580557</ele>
        <time>2024-12-17T12:05:41.000Z</time>
      </trkpt>
      <trkpt lat="50.26214" lon="4.52232">
        <ele>263.585482</ele>
        <time>2024-12-17T12:05:42.000Z</time>
      </trkpt>
      <trkpt lat="50.2621" lon="4.52225">
        <ele>263.590286</ele>
        <time>2024-12-17T12:05:43.000Z</time>
      </trkpt>
      <trkpt lat="50.26206" lon="4.52217">
        <ele>263.595011</ele>
        <time>2024-12-17T12:05:44.000Z</time>
      </trkpt>
      <trkpt lat="50.26203" lon="4.5221">
        <ele>263.599579</ele>
        <time>2024-12-17T12:05:45.000Z</time>
      </trkpt>
      <trkpt lat="50.26199" lon="4.52203">
        <ele>263.604147</ele>
        <time>2024-12-17T12:05:46.000Z</time>
      </trkpt>
      <trkpt lat="50.26196" lon="4.52196">
        <ele>263.608568</ele>
        <time>2024-12-17T12:05:47.000Z</time>
      </trkpt>
      <trkpt lat="50.26192" lon="4.52189">
        <ele>263.612989</ele>
        <time>2024-12-17T12:05:48.000Z</time>
      </trkpt>
      <trkpt lat="50.26189" lon="4.52183">
        <ele>263.617243</ele>
        <time>2024-12-17T12:05:49.000Z</time>
      </trkpt>
      <trkpt lat="50.26185" lon="4.52176">
        <ele>263.621428</ele>
        <time>2024-12-17T12:05:50.000Z</time>
      </trkpt>
      <trkpt lat="50.26182" lon="4.5217">
        <ele>263.625524</ele>
        <time>2024-12-17T12:05:51.000Z</time>
      </trkpt>
      <trkpt lat="50.26179" lon="4.52164">
        <ele>263.629482</ele>
        <time>2024-12-17T12:05:52.000Z</time>
      </trkpt>
      <trkpt lat="50.26176" lon="4.52158">
        <ele>263.633185</ele>
        <time>2024-12-17T12:05:53.000Z</time>
      </trkpt>
      <trkpt lat="50.26173" lon="4.52152">
        <ele>263.636873</ele>
        <time>2024-12-17T12:05:54.000Z</time>
      </trkpt>
      <trkpt lat="50.2617" lon="4.52147">
        <ele>263.64037</ele>
        <time>2024-12-17T12:05:55.000Z</time>
      </trkpt>
      <trkpt lat="50.26168" lon="4.52142">
        <ele>263.643739</ele>
        <time>2024-12-17T12:05:56.000Z</time>
      </trkpt>
      <trkpt lat="50.26165" lon="4.52137">
        <ele>263.646892</ele>
        <time>2024-12-17T12:05:57.000Z</time>
      </trkpt>
      <trkpt lat="50.26162" lon="4.52132">
        <ele>263.649905</ele>
        <time>2024-12-17T12:05:58.000Z</time>
      </trkpt>
      <trkpt lat="50.2616" lon="4.52128">
        <ele>263.652774</ele>
        <time>2024-12-17T12:05:59.000Z</time>
      </trkpt>
      <trkpt lat="50.26158" lon="4.52125">
        <ele>263.6553</ele>
        <time>2024-12-17T12:06:00.000Z</time>
      </trkpt>
      <trkpt lat="50.26156" lon="4.52121">
        <ele>263.657847</ele>
        <time>2024-12-17T12:06:01.000Z</time>
      </trkpt>
      <trkpt lat="50.26154" lon="4.52116">
        <ele>263.660305</ele>
        <time>2024-12-17T12:06:02.000Z</time>
      </trkpt>
      <trkpt lat="50.26153" lon="4.52112">
        <ele>263.658372</ele>
        <time>2024-12-17T12:06:03.000Z</time>
      </trkpt>
      <trkpt lat="50.26151" lon="4.52108">
        <ele>263.654424</ele>
        <time>2024-12-17T12:06:04.000Z</time>
      </trkpt>
      <trkpt lat="50.2615" lon="4.52104">
        <ele>263.650204</ele>
        <time>2024-12-17T12:06:05.000Z</time>
      </trkpt>
      <trkpt lat="50.26149" lon="4.52099">
        <ele>263.645637</ele>
        <time>2024-12-17T12:06:06.000Z</time>
      </trkpt>
      <trkpt lat="50.26148" lon="4.52093">
        <ele>263.640864</ele>
        <time>2024-12-17T12:06:07.000Z</time>
      </trkpt>
      <trkpt lat="50.26147" lon="4.52087">
        <ele>263.635731</ele>
        <time>2024-12-17T12:06:08.000Z</time>
      </trkpt>
      <trkpt lat="50.26146" lon="4.52081">
        <ele>263.630531</ele>
        <time>2024-12-17T12:06:09.000Z</time>
      </trkpt>
      <trkpt lat="50.26145" lon="4.52075">
        <ele>263.625249</ele>
        <time>2024-12-17T12:06:10.000Z</time>
      </trkpt>
      <trkpt lat="50.26144" lon="4.52069">
        <ele>263.619686</ele>
        <time>2024-12-17T12:06:11.000Z</time>
      </trkpt>
      <trkpt lat="50.26142" lon="4.52063">
        <ele>263.614004</ele>
        <time>2024-12-17T12:06:12.000Z</time>
      </trkpt>
      <trkpt lat="50.26141" lon="4.52056">
        <ele>263.608396</ele>
        <time>2024-12-17T12:06:13.000Z</time>
      </trkpt>
      <trkpt lat="50.2614" lon="4.5205">
        <ele>263.603033</ele>
        <time>2024-12-17T12:06:14.000Z</time>
      </trkpt>
      <trkpt lat="50.26139" lon="4.52044">
        <ele>263.597308</ele>
        <time>2024-12-17T12:06:15.000Z</time>
      </trkpt>
      <trkpt lat="50.26138" lon="4.52037">
        <ele>263.591733</ele>
        <time>2024-12-17T12:06:16.000Z</time>
      </trkpt>
      <trkpt lat="50.26137" lon="4.52031">
        <ele>263.586008</ele>
        <time>2024-12-17T12:06:17.000Z</time>
      </trkpt>
      <trkpt lat="50.26136" lon="4.52025">
        <ele>263.580563</ele>
        <time>2024-12-17T12:06:18.000Z</time>
      </trkpt>
      <trkpt lat="50.26135" lon="4.52018">
        <ele>263.575101</ele>
        <time>2024-12-17T12:06:19.000Z</time>
      </trkpt>
      <trkpt lat="50.26133" lon="4.52012">
        <ele>263.569297</ele>
        <time>2024-12-17T12:06:20.000Z</time>
      </trkpt>
      <trkpt lat="50.26132" lon="4.52005">
        <ele>263.563607</ele>
        <time>2024-12-17T12:06:21.000Z</time>
      </trkpt>
      <trkpt lat="50.26131" lon="4.51999">
        <ele>263.557882</ele>
        <time>2024-12-17T12:06:22.000Z</time>
      </trkpt>
      <trkpt lat="50.2613" lon="4.51992">
        <ele>263.552275</ele>
        <time>2024-12-17T12:06:23.000Z</time>
      </trkpt>
      <trkpt lat="50.26129" lon="4.51986">
        <ele>263.546667</ele>
        <time>2024-12-17T12:06:24.000Z</time>
      </trkpt>
      <trkpt lat="50.26128" lon="4.5198">
        <ele>263.54114</ele>
        <time>2024-12-17T12:06:25.000Z</time>
      </trkpt>
      <trkpt lat="50.26126" lon="4.51973">
        <ele>263.535253</ele>
        <time>2024-12-17T12:06:26.000Z</time>
      </trkpt>
      <trkpt lat="50.26125" lon="4.51966">
        <ele>263.529365</ele>
        <time>2024-12-17T12:06:27.000Z</time>
      </trkpt>
      <trkpt lat="50.26124" lon="4.51959">
        <ele>263.523347</ele>
        <time>2024-12-17T12:06:28.000Z</time>
      </trkpt>
      <trkpt lat="50.26123" lon="4.51952">
        <ele>263.517098</ele>
        <time>2024-12-17T12:06:29.000Z</time>
      </trkpt>
      <trkpt lat="50.26122" lon="4.51945">
        <ele>263.511047</ele>
        <time>2024-12-17T12:06:30.000Z</time>
      </trkpt>
      <trkpt lat="50.2612" lon="4.51938">
        <ele>263.504879</ele>
        <time>2024-12-17T12:06:31.000Z</time>
      </trkpt>
      <trkpt lat="50.26119" lon="4.51931">
        <ele>263.498471</ele>
        <time>2024-12-17T12:06:32.000Z</time>
      </trkpt>
      <trkpt lat="50.26117" lon="4.51924">
        <ele>263.491902</ele>
        <time>2024-12-17T12:06:33.000Z</time>
      </trkpt>
      <trkpt lat="50.26116" lon="4.51916">
        <ele>263.485131</ele>
        <time>2024-12-17T12:06:34.000Z</time>
      </trkpt>
      <trkpt lat="50.26114" lon="4.51909">
        <ele>263.478682</ele>
        <time>2024-12-17T12:06:35.000Z</time>
      </trkpt>
      <trkpt lat="50.26113" lon="4.51902">
        <ele>263.47227</ele>
        <time>2024-12-17T12:06:36.000Z</time>
      </trkpt>
      <trkpt lat="50.26112" lon="4.51894">
        <ele>263.465511</ele>
        <time>2024-12-17T12:06:37.000Z</time>
      </trkpt>
      <trkpt lat="50.26111" lon="4.51886">
        <ele>263.458722</ele>
        <time>2024-12-17T12:06:38.000Z</time>
      </trkpt>
      <trkpt lat="50.2611" lon="4.51878">
        <ele>263.451933</ele>
        <time>2024-12-17T12:06:39.000Z</time>
      </trkpt>
      <trkpt lat="50.26109" lon="4.5187">
        <ele>263.444976</ele>
        <time>2024-12-17T12:06:40.000Z</time>
      </trkpt>
      <trkpt lat="50.26108" lon="4.51862">
        <ele>263.437922</ele>
        <time>2024-12-17T12:06:41.000Z</time>
      </trkpt>
      <trkpt lat="50.26108" lon="4.51853">
        <ele>263.430634</ele>
        <time>2024-12-17T12:06:42.000Z</time>
      </trkpt>
      <trkpt lat="50.26108" lon="4.51844">
        <ele>263.423102</ele>
        <time>2024-12-17T12:06:43.000Z</time>
      </trkpt>
      <trkpt lat="50.26108" lon="4.51835">
        <ele>263.40669</ele>
        <time>2024-12-17T12:06:44.000Z</time>
      </trkpt>
      <trkpt lat="50.26108" lon="4.51826">
        <ele>263.389733</ele>
        <time>2024-12-17T12:06:45.000Z</time>
      </trkpt>
      <trkpt lat="50.26109" lon="4.51817">
        <ele>263.372204</ele>
        <time>2024-12-17T12:06:46.000Z</time>
      </trkpt>
      <trkpt lat="50.26109" lon="4.51807">
        <ele>263.354125</ele>
        <time>2024-12-17T12:06:47.000Z</time>
      </trkpt>
      <trkpt lat="50.2611" lon="4.51797">
        <ele>263.335655</ele>
        <time>2024-12-17T12:06:48.000Z</time>
      </trkpt>
      <trkpt lat="50.26111" lon="4.51787">
        <ele>263.317156</ele>
        <time>2024-12-17T12:06:49.000Z</time>
      </trkpt>
      <trkpt lat="50.26111" lon="4.51777">
        <ele>263.298441</ele>
        <time>2024-12-17T12:06:50.000Z</time>
      </trkpt>
      <trkpt lat="50.26112" lon="4.51767">
        <ele>263.279646</ele>
        <time>2024-12-17T12:06:51.000Z</time>
      </trkpt>
      <trkpt lat="50.26114" lon="4.51756">
        <ele>263.260262</ele>
        <time>2024-12-17T12:06:52.000Z</time>
      </trkpt>
      <trkpt lat="50.26115" lon="4.51746">
        <ele>263.240775</ele>
        <time>2024-12-17T12:06:53.000Z</time>
      </trkpt>
      <trkpt lat="50.26116" lon="4.51735">
        <ele>263.220927</ele>
        <time>2024-12-17T12:06:54.000Z</time>
      </trkpt>
      <trkpt lat="50.26117" lon="4.51725">
        <ele>263.200898</ele>
        <time>2024-12-17T12:06:55.000Z</time>
      </trkpt>
      <trkpt lat="50.26118" lon="4.51714">
        <ele>263.180831</ele>
        <time>2024-12-17T12:06:56.000Z</time>
      </trkpt>
      <trkpt lat="50.26119" lon="4.51703">
        <ele>263.160763</ele>
        <time>2024-12-17T12:06:57.000Z</time>
      </trkpt>
      <trkpt lat="50.2612" lon="4.51692">
        <ele>263.140484</ele>
        <time>2024-12-17T12:06:58.000Z</time>
      </trkpt>
      <trkpt lat="50.2612" lon="4.51681">
        <ele>263.119838</ele>
        <time>2024-12-17T12:06:59.000Z</time>
      </trkpt>
      <trkpt lat="50.26121" lon="4.51669">
        <ele>263.098673</ele>
        <time>2024-12-17T12:07:00.000Z</time>
      </trkpt>
      <trkpt lat="50.26121" lon="4.51658">
        <ele>263.077158</ele>
        <time>2024-12-17T12:07:01.000Z</time>
      </trkpt>
      <trkpt lat="50.26121" lon="4.51646">
        <ele>263.05564</ele>
        <time>2024-12-17T12:07:02.000Z</time>
      </trkpt>
      <trkpt lat="50.26121" lon="4.51634">
        <ele>263.033388</ele>
        <time>2024-12-17T12:07:03.000Z</time>
      </trkpt>
      <trkpt lat="50.2612" lon="4.51622">
        <ele>263.010936</ele>
        <time>2024-12-17T12:07:04.000Z</time>
      </trkpt>
      <trkpt lat="50.2612" lon="4.51609">
        <ele>262.988685</ele>
        <time>2024-12-17T12:07:05.000Z</time>
      </trkpt>
      <trkpt lat="50.2612" lon="4.51597">
        <ele>262.966435</ele>
        <time>2024-12-17T12:07:06.000Z</time>
      </trkpt>
      <trkpt lat="50.26121" lon="4.51585">
        <ele>262.94436</ele>
        <time>2024-12-17T12:07:07.000Z</time>
      </trkpt>
      <trkpt lat="50.26121" lon="4.51573">
        <ele>262.921918</ele>
        <time>2024-12-17T12:07:08.000Z</time>
      </trkpt>
      <trkpt lat="50.26121" lon="4.51561">
        <ele>262.894428</ele>
        <time>2024-12-17T12:07:09.000Z</time>
      </trkpt>
      <trkpt lat="50.26122" lon="4.51549">
        <ele>262.852503</ele>
        <time>2024-12-17T12:07:10.000Z</time>
      </trkpt>
      <trkpt lat="50.26123" lon="4.51537">
        <ele>262.810421</ele>
        <time>2024-12-17T12:07:11.000Z</time>
      </trkpt>
      <trkpt lat="50.26124" lon="4.51525">
        <ele>262.767517</ele>
        <time>2024-12-17T12:07:12.000Z</time>
      </trkpt>
      <trkpt lat="50.26125" lon="4.51512">
        <ele>262.724613</ele>
        <time>2024-12-17T12:07:13.000Z</time>
      </trkpt>
      <trkpt lat="50.26126" lon="4.515">
        <ele>262.681289</ele>
        <time>2024-12-17T12:07:14.000Z</time>
      </trkpt>
      <trkpt lat="50.26127" lon="4.51488">
        <ele>262.640266</ele>
        <time>2024-12-17T12:07:15.000Z</time>
      </trkpt>
      <trkpt lat="50.26128" lon="4.51478">
        <ele>262.603251</ele>
        <time>2024-12-17T12:07:16.000Z</time>
      </trkpt>
      <trkpt lat="50.26129" lon="4.51468">
        <ele>262.568366</ele>
        <time>2024-12-17T12:07:17.000Z</time>
      </trkpt>
      <trkpt lat="50.2613" lon="4.51458">
        <ele>262.535949</ele>
        <time>2024-12-17T12:07:18.000Z</time>
      </trkpt>
      <trkpt lat="50.26131" lon="4.5145">
        <ele>262.507636</ele>
        <time>2024-12-17T12:07:19.000Z</time>
      </trkpt>
      <trkpt lat="50.26131" lon="4.51443">
        <ele>262.481182</ele>
        <time>2024-12-17T12:07:20.000Z</time>
      </trkpt>
      <trkpt lat="50.26132" lon="4.51435">
        <ele>262.454999</ele>
        <time>2024-12-17T12:07:21.000Z</time>
      </trkpt>
      <trkpt lat="50.26133" lon="4.51427">
        <ele>262.42805</ele>
        <time>2024-12-17T12:07:22.000Z</time>
      </trkpt>
      <trkpt lat="50.26133" lon="4.51419">
        <ele>262.400022</ele>
        <time>2024-12-17T12:07:23.000Z</time>
      </trkpt>
      <trkpt lat="50.26134" lon="4.51411">
        <ele>262.371649</ele>
        <time>2024-12-17T12:07:24.000Z</time>
      </trkpt>
      <trkpt lat="50.26134" lon="4.51403">
        <ele>262.343677</ele>
        <time>2024-12-17T12:07:25.000Z</time>
      </trkpt>
      <trkpt lat="50.26135" lon="4.51395">
        <ele>262.315993</ele>
        <time>2024-12-17T12:07:26.000Z</time>
      </trkpt>
      <trkpt lat="50.26134" lon="4.51387">
        <ele>262.289257</ele>
        <time>2024-12-17T12:07:27.000Z</time>
      </trkpt>
      <trkpt lat="50.26133" lon="4.51381">
        <ele>262.267508</ele>
        <time>2024-12-17T12:07:28.000Z</time>
      </trkpt>
      <trkpt lat="50.26133" lon="4.51376">
        <ele>262.249826</ele>
        <time>2024-12-17T12:07:29.000Z</time>
      </trkpt>
      <trkpt lat="50.26132" lon="4.51372">
        <ele>262.234023</ele>
        <time>2024-12-17T12:07:30.000Z</time>
      </trkpt>
      <trkpt lat="50.26132" lon="4.51368">
        <ele>262.22123</ele>
        <time>2024-12-17T12:07:31.000Z</time>
      </trkpt>
      <trkpt lat="50.26133" lon="4.51366">
        <ele>262.211029</ele>
        <time>2024-12-17T12:07:32.000Z</time>
      </trkpt>
      <trkpt lat="50.26135" lon="4.51364">
        <ele>262.199026</ele>
        <time>2024-12-17T12:07:33.000Z</time>
      </trkpt>
      <trkpt lat="50.26137" lon="4.51362">
        <ele>262.184491</ele>
        <time>2024-12-17T12:07:34.000Z</time>
      </trkpt>
      <trkpt lat="50.2614" lon="4.5136">
        <ele>262.168177</ele>
        <time>2024-12-17T12:07:35.000Z</time>
      </trkpt>
      <trkpt lat="50.26143" lon="4.51356">
        <ele>262.149439</ele>
        <time>2024-12-17T12:07:36.000Z</time>
      </trkpt>
      <trkpt lat="50.26146" lon="4.51352">
        <ele>262.127087</ele>
        <time>2024-12-17T12:07:37.000Z</time>
      </trkpt>
      <trkpt lat="50.26149" lon="4.51348">
        <ele>262.102568</ele>
        <time>2024-12-17T12:07:38.000Z</time>
      </trkpt>
      <trkpt lat="50.26153" lon="4.51342">
        <ele>262.076874</ele>
        <time>2024-12-17T12:07:39.000Z</time>
      </trkpt>
      <trkpt lat="50.26156" lon="4.51337">
        <ele>262.049681</ele>
        <time>2024-12-17T12:07:40.000Z</time>
      </trkpt>
      <trkpt lat="50.26161" lon="4.51331">
        <ele>262.019</ele>
        <time>2024-12-17T12:07:41.000Z</time>
      </trkpt>
      <trkpt lat="50.26165" lon="4.51325">
        <ele>261.986189</ele>
        <time>2024-12-17T12:07:42.000Z</time>
      </trkpt>
      <trkpt lat="50.2617" lon="4.51318">
        <ele>261.951358</ele>
        <time>2024-12-17T12:07:43.000Z</time>
      </trkpt>
      <trkpt lat="50.26174" lon="4.51311">
        <ele>261.904703</ele>
        <time>2024-12-17T12:07:44.000Z</time>
      </trkpt>
      <trkpt lat="50.2618" lon="4.51304">
        <ele>261.841193</ele>
        <time>2024-12-17T12:07:45.000Z</time>
      </trkpt>
      <trkpt lat="50.26185" lon="4.51296">
        <ele>261.773276</ele>
        <time>2024-12-17T12:07:46.000Z</time>
      </trkpt>
      <trkpt lat="50.2619" lon="4.51289">
        <ele>261.703986</ele>
        <time>2024-12-17T12:07:47.000Z</time>
      </trkpt>
      <trkpt lat="50.26195" lon="4.51281">
        <ele>261.639388</ele>
        <time>2024-12-17T12:07:48.000Z</time>
      </trkpt>
      <trkpt lat="50.262" lon="4.51273">
        <ele>261.575431</ele>
        <time>2024-12-17T12:07:49.000Z</time>
      </trkpt>
      <trkpt lat="50.26205" lon="4.51266">
        <ele>261.510954</ele>
        <time>2024-12-17T12:07:50.000Z</time>
      </trkpt>
      <trkpt lat="50.2621" lon="4.51259">
        <ele>261.447164</ele>
        <time>2024-12-17T12:07:51.000Z</time>
      </trkpt>
      <trkpt lat="50.26214" lon="4.51251">
        <ele>261.386259</ele>
        <time>2024-12-17T12:07:52.000Z</time>
      </trkpt>
      <trkpt lat="50.26218" lon="4.51244">
        <ele>261.326666</ele>
        <time>2024-12-17T12:07:53.000Z</time>
      </trkpt>
      <trkpt lat="50.26223" lon="4.51238">
        <ele>261.269198</ele>
        <time>2024-12-17T12:07:54.000Z</time>
      </trkpt>
      <trkpt lat="50.26227" lon="4.51231">
        <ele>261.212827</ele>
        <time>2024-12-17T12:07:55.000Z</time>
      </trkpt>
      <trkpt lat="50.26231" lon="4.51225">
        <ele>261.157796</ele>
        <time>2024-12-17T12:07:56.000Z</time>
      </trkpt>
      <trkpt lat="50.26235" lon="4.51218">
        <ele>261.104267</ele>
        <time>2024-12-17T12:07:57.000Z</time>
      </trkpt>
      <trkpt lat="50.26239" lon="4.51212">
        <ele>261.05271</ele>
        <time>2024-12-17T12:07:58.000Z</time>
      </trkpt>
      <trkpt lat="50.26243" lon="4.51206">
        <ele>261.00029</ele>
        <time>2024-12-17T12:07:59.000Z</time>
      </trkpt>
      <trkpt lat="50.26247" lon="4.512">
        <ele>260.950481</ele>
        <time>2024-12-17T12:08:00.000Z</time>
      </trkpt>
      <trkpt lat="50.26251" lon="4.51194">
        <ele>260.898652</ele>
        <time>2024-12-17T12:08:01.000Z</time>
      </trkpt>
      <trkpt lat="50.26254" lon="4.51187">
        <ele>260.847828</ele>
        <time>2024-12-17T12:08:02.000Z</time>
      </trkpt>
      <trkpt lat="50.26256" lon="4.5118">
        <ele>260.796608</ele>
        <time>2024-12-17T12:08:03.000Z</time>
      </trkpt>
      <trkpt lat="50.26258" lon="4.51172">
        <ele>260.743195</ele>
        <time>2024-12-17T12:08:04.000Z</time>
      </trkpt>
      <trkpt lat="50.2626" lon="4.51163">
        <ele>260.68793</ele>
        <time>2024-12-17T12:08:05.000Z</time>
      </trkpt>
      <trkpt lat="50.26263" lon="4.51154">
        <ele>260.63175</ele>
        <time>2024-12-17T12:08:06.000Z</time>
      </trkpt>
      <trkpt lat="50.26265" lon="4.51146">
        <ele>260.576125</ele>
        <time>2024-12-17T12:08:07.000Z</time>
      </trkpt>
      <trkpt lat="50.26267" lon="4.51138">
        <ele>260.522161</ele>
        <time>2024-12-17T12:08:08.000Z</time>
      </trkpt>
      <trkpt lat="50.2627" lon="4.5113">
        <ele>260.468747</ele>
        <time>2024-12-17T12:08:09.000Z</time>
      </trkpt>
      <trkpt lat="50.26272" lon="4.51122">
        <ele>260.418469</ele>
        <time>2024-12-17T12:08:10.000Z</time>
      </trkpt>
      <trkpt lat="50.26274" lon="4.51115">
        <ele>260.37187</ele>
        <time>2024-12-17T12:08:11.000Z</time>
      </trkpt>
      <trkpt lat="50.26276" lon="4.51109">
        <ele>260.328797</ele>
        <time>2024-12-17T12:08:12.000Z</time>
      </trkpt>
      <trkpt lat="50.26278" lon="4.51102">
        <ele>260.285915</ele>
        <time>2024-12-17T12:08:13.000Z</time>
      </trkpt>
      <trkpt lat="50.26279" lon="4.51095">
        <ele>260.243592</ele>
        <time>2024-12-17T12:08:14.000Z</time>
      </trkpt>
      <trkpt lat="50.26281" lon="4.51089">
        <ele>260.150775</ele>
        <time>2024-12-17T12:08:15.000Z</time>
      </trkpt>
      <trkpt lat="50.26282" lon="4.51084">
        <ele>260.062118</ele>
        <time>2024-12-17T12:08:16.000Z</time>
      </trkpt>
      <trkpt lat="50.26284" lon="4.5108">
        <ele>259.99033</ele>
        <time>2024-12-17T12:08:17.000Z</time>
      </trkpt>
      <trkpt lat="50.26286" lon="4.51078">
        <ele>259.932593</ele>
        <time>2024-12-17T12:08:18.000Z</time>
      </trkpt>
      <trkpt lat="50.26289" lon="4.51078">
        <ele>259.873074</ele>
        <time>2024-12-17T12:08:19.000Z</time>
      </trkpt>
      <trkpt lat="50.26291" lon="4.51079">
        <ele>259.813554</ele>
        <time>2024-12-17T12:08:20.000Z</time>
      </trkpt>
      <trkpt lat="50.26293" lon="4.5108">
        <ele>259.760345</ele>
        <time>2024-12-17T12:08:21.000Z</time>
      </trkpt>
      <trkpt lat="50.26295" lon="4.51082">
        <ele>259.707135</ele>
        <time>2024-12-17T12:08:22.000Z</time>
      </trkpt>
      <trkpt lat="50.26297" lon="4.51083">
        <ele>259.659115</ele>
        <time>2024-12-17T12:08:23.000Z</time>
      </trkpt>
      <trkpt lat="50.26298" lon="4.51085">
        <ele>259.613083</ele>
        <time>2024-12-17T12:08:24.000Z</time>
      </trkpt>
      <trkpt lat="50.263" lon="4.51086">
        <ele>259.570173</ele>
        <time>2024-12-17T12:08:25.000Z</time>
      </trkpt>
      <trkpt lat="50.26301" lon="4.51087">
        <ele>259.53415</ele>
        <time>2024-12-17T12:08:26.000Z</time>
      </trkpt>
      <trkpt lat="50.26303" lon="4.51088">
        <ele>259.498974</ele>
        <time>2024-12-17T12:08:27.000Z</time>
      </trkpt>
      <trkpt lat="50.26304" lon="4.5109">
        <ele>259.461448</ele>
        <time>2024-12-17T12:08:28.000Z</time>
      </trkpt>
      <trkpt lat="50.26305" lon="4.51092">
        <ele>259.418239</ele>
        <time>2024-12-17T12:08:29.000Z</time>
      </trkpt>
      <trkpt lat="50.26307" lon="4.51093">
        <ele>259.371787</ele>
        <time>2024-12-17T12:08:30.000Z</time>
      </trkpt>
      <trkpt lat="50.26309" lon="4.51095">
        <ele>259.328578</ele>
        <time>2024-12-17T12:08:31.000Z</time>
      </trkpt>
      <trkpt lat="50.2631" lon="4.51097">
        <ele>259.279835</ele>
        <time>2024-12-17T12:08:32.000Z</time>
      </trkpt>
      <trkpt lat="50.26312" lon="4.51099">
        <ele>259.231092</ele>
        <time>2024-12-17T12:08:33.000Z</time>
      </trkpt>
      <trkpt lat="50.26314" lon="4.51101">
        <ele>259.17765</ele>
        <time>2024-12-17T12:08:34.000Z</time>
      </trkpt>
      <trkpt lat="50.26315" lon="4.51103">
        <ele>259.129842</ele>
        <time>2024-12-17T12:08:35.000Z</time>
      </trkpt>
      <trkpt lat="50.26317" lon="4.51105">
        <ele>259.0764</ele>
        <time>2024-12-17T12:08:36.000Z</time>
      </trkpt>
      <trkpt lat="50.26319" lon="4.51107">
        <ele>259.021086</ele>
        <time>2024-12-17T12:08:37.000Z</time>
      </trkpt>
      <trkpt lat="50.2632" lon="4.51109">
        <ele>258.972342</ele>
        <time>2024-12-17T12:08:38.000Z</time>
      </trkpt>
      <trkpt lat="50.26322" lon="4.51111">
        <ele>258.921644</ele>
        <time>2024-12-17T12:08:39.000Z</time>
      </trkpt>
      <trkpt lat="50.26324" lon="4.51114">
        <ele>258.871654</ele>
        <time>2024-12-17T12:08:40.000Z</time>
      </trkpt>
      <trkpt lat="50.26325" lon="4.51116">
        <ele>258.821665</ele>
        <time>2024-12-17T12:08:41.000Z</time>
      </trkpt>
      <trkpt lat="50.26327" lon="4.51118">
        <ele>258.772729</ele>
        <time>2024-12-17T12:08:42.000Z</time>
      </trkpt>
      <trkpt lat="50.26328" lon="4.5112">
        <ele>258.723793</ele>
        <time>2024-12-17T12:08:43.000Z</time>
      </trkpt>
      <trkpt lat="50.26329" lon="4.51122">
        <ele>258.676564</ele>
        <time>2024-12-17T12:08:44.000Z</time>
      </trkpt>
      <trkpt lat="50.26331" lon="4.51125">
        <ele>258.629336</ele>
        <time>2024-12-17T12:08:45.000Z</time>
      </trkpt>
      <trkpt lat="50.26332" lon="4.51127">
        <ele>258.580593</ele>
        <time>2024-12-17T12:08:46.000Z</time>
      </trkpt>
      <trkpt lat="50.26334" lon="4.51128">
        <ele>258.529941</ele>
        <time>2024-12-17T12:08:47.000Z</time>
      </trkpt>
      <trkpt lat="50.26336" lon="4.51129">
        <ele>258.484314</ele>
        <time>2024-12-17T12:08:48.000Z</time>
      </trkpt>
      <trkpt lat="50.26338" lon="4.51128">
        <ele>258.442838</ele>
        <time>2024-12-17T12:08:49.000Z</time>
      </trkpt>
      <trkpt lat="50.26339" lon="4.51126">
        <ele>258.399709</ele>
        <time>2024-12-17T12:08:50.000Z</time>
      </trkpt>
      <trkpt lat="50.2634" lon="4.51124">
        <ele>258.359081</ele>
        <time>2024-12-17T12:08:51.000Z</time>
      </trkpt>
      <trkpt lat="50.2634" lon="4.51121">
        <ele>258.319453</ele>
        <time>2024-12-17T12:08:52.000Z</time>
      </trkpt>
      <trkpt lat="50.2634" lon="4.51118">
        <ele>258.275076</ele>
        <time>2024-12-17T12:08:53.000Z</time>
      </trkpt>
      <trkpt lat="50.26339" lon="4.51115">
        <ele>258.228452</ele>
        <time>2024-12-17T12:08:54.000Z</time>
      </trkpt>
      <trkpt lat="50.26339" lon="4.51112">
        <ele>258.183757</ele>
        <time>2024-12-17T12:08:55.000Z</time>
      </trkpt>
      <trkpt lat="50.26339" lon="4.51109">
        <ele>258.138059</ele>
        <time>2024-12-17T12:08:56.000Z</time>
      </trkpt>
      <trkpt lat="50.26338" lon="4.51107">
        <ele>258.095292</ele>
        <time>2024-12-17T12:08:57.000Z</time>
      </trkpt>
      <trkpt lat="50.26338" lon="4.51104">
        <ele>258.054606</ele>
        <time>2024-12-17T12:08:58.000Z</time>
      </trkpt>
      <trkpt lat="50.26338" lon="4.51101">
        <ele>258.010229</ele>
        <time>2024-12-17T12:08:59.000Z</time>
      </trkpt>
      <trkpt lat="50.26337" lon="4.51098">
        <ele>257.967365</ele>
        <time>2024-12-17T12:09:00.000Z</time>
      </trkpt>
      <trkpt lat="50.26337" lon="4.51096">
        <ele>257.925671</ele>
        <time>2024-12-17T12:09:01.000Z</time>
      </trkpt>
      <trkpt lat="50.26337" lon="4.51093">
        <ele>257.890356</ele>
        <time>2024-12-17T12:09:02.000Z</time>
      </trkpt>
      <trkpt lat="50.26337" lon="4.51091">
        <ele>257.856548</ele>
        <time>2024-12-17T12:09:03.000Z</time>
      </trkpt>
      <trkpt lat="50.26336" lon="4.51089">
        <ele>257.821025</ele>
        <time>2024-12-17T12:09:04.000Z</time>
      </trkpt>
      <trkpt lat="50.26335" lon="4.51087">
        <ele>257.78513</ele>
        <time>2024-12-17T12:09:05.000Z</time>
      </trkpt>
      <trkpt lat="50.26335" lon="4.51085">
        <ele>257.746375</ele>
        <time>2024-12-17T12:09:06.000Z</time>
      </trkpt>
      <trkpt lat="50.26334" lon="4.51082">
        <ele>257.706521</ele>
        <time>2024-12-17T12:09:07.000Z</time>
      </trkpt>
      <trkpt lat="50.26334" lon="4.5108">
        <ele>257.669316</ele>
        <time>2024-12-17T12:09:08.000Z</time>
      </trkpt>
      <trkpt lat="50.26334" lon="4.51077">
        <ele>257.632493</ele>
        <time>2024-12-17T12:09:09.000Z</time>
      </trkpt>
      <trkpt lat="50.26334" lon="4.51075">
        <ele>257.595902</ele>
        <time>2024-12-17T12:09:10.000Z</time>
      </trkpt>
      <trkpt lat="50.26333" lon="4.51072">
        <ele>257.556059</ele>
        <time>2024-12-17T12:09:11.000Z</time>
      </trkpt>
      <trkpt lat="50.26333" lon="4.5107">
        <ele>257.513195</ele>
        <time>2024-12-17T12:09:12.000Z</time>
      </trkpt>
      <trkpt lat="50.26333" lon="4.51067">
        <ele>257.473353</ele>
        <time>2024-12-17T12:09:13.000Z</time>
      </trkpt>
      <trkpt lat="50.26333" lon="4.51064">
        <ele>257.427155</ele>
        <time>2024-12-17T12:09:14.000Z</time>
      </trkpt>
      <trkpt lat="50.26332" lon="4.51061">
        <ele>257.379987</ele>
        <time>2024-12-17T12:09:15.000Z</time>
      </trkpt>
      <trkpt lat="50.26332" lon="4.51058">
        <ele>257.335292</ele>
        <time>2024-12-17T12:09:16.000Z</time>
      </trkpt>
      <trkpt lat="50.26332" lon="4.51055">
        <ele>257.292428</ele>
        <time>2024-12-17T12:09:17.000Z</time>
      </trkpt>
      <trkpt lat="50.26331" lon="4.51052">
        <ele>257.249563</ele>
        <time>2024-12-17T12:09:18.000Z</time>
      </trkpt>
      <trkpt lat="50.26331" lon="4.5105">
        <ele>257.210006</ele>
        <time>2024-12-17T12:09:19.000Z</time>
      </trkpt>
      <trkpt lat="50.26331" lon="4.51047">
        <ele>257.173492</ele>
        <time>2024-12-17T12:09:20.000Z</time>
      </trkpt>
      <trkpt lat="50.26331" lon="4.51045">
        <ele>257.14119</ele>
        <time>2024-12-17T12:09:21.000Z</time>
      </trkpt>
      <trkpt lat="50.26331" lon="4.51043">
        <ele>257.109935</ele>
        <time>2024-12-17T12:09:22.000Z</time>
      </trkpt>
      <trkpt lat="50.26331" lon="4.51041">
        <ele>257.074222</ele>
        <time>2024-12-17T12:09:23.000Z</time>
      </trkpt>
      <trkpt lat="50.2633" lon="4.51039">
        <ele>257.044363</ele>
        <time>2024-12-17T12:09:24.000Z</time>
      </trkpt>
      <trkpt lat="50.2633" lon="4.51038">
        <ele>257.018719</ele>
        <time>2024-12-17T12:09:25.000Z</time>
      </trkpt>
      <trkpt lat="50.26329" lon="4.51036">
        <ele>256.995389</ele>
        <time>2024-12-17T12:09:26.000Z</time>
      </trkpt>
      <trkpt lat="50.26329" lon="4.51035">
        <ele>256.96909</ele>
        <time>2024-12-17T12:09:27.000Z</time>
      </trkpt>
      <trkpt lat="50.26329" lon="4.51033">
        <ele>256.944287</ele>
        <time>2024-12-17T12:09:28.000Z</time>
      </trkpt>
      <trkpt lat="50.26329" lon="4.51032">
        <ele>256.921465</ele>
        <time>2024-12-17T12:09:29.000Z</time>
      </trkpt>
      <trkpt lat="50.26329" lon="4.5103">
        <ele>256.896662</ele>
        <time>2024-12-17T12:09:30.000Z</time>
      </trkpt>
      <trkpt lat="50.26329" lon="4.51028">
        <ele>256.868361</ele>
        <time>2024-12-17T12:09:31.000Z</time>
      </trkpt>
      <trkpt lat="50.26329" lon="4.51027">
        <ele>256.842062</ele>
        <time>2024-12-17T12:09:32.000Z</time>
      </trkpt>
      <trkpt lat="50.26329" lon="4.51025">
        <ele>256.814574</ele>
        <time>2024-12-17T12:09:33.000Z</time>
      </trkpt>
      <trkpt lat="50.26329" lon="4.51023">
        <ele>256.786778</ele>
        <time>2024-12-17T12:09:34.000Z</time>
      </trkpt>
      <trkpt lat="50.26329" lon="4.51021">
        <ele>256.759289</ele>
        <time>2024-12-17T12:09:35.000Z</time>
      </trkpt>
      <trkpt lat="50.26329" lon="4.51019">
        <ele>256.7318</ele>
        <time>2024-12-17T12:09:36.000Z</time>
      </trkpt>
      <trkpt lat="50.26329" lon="4.51017">
        <ele>256.701279</ele>
        <time>2024-12-17T12:09:37.000Z</time>
      </trkpt>
      <trkpt lat="50.26329" lon="4.51015">
        <ele>256.668977</ele>
        <time>2024-12-17T12:09:38.000Z</time>
      </trkpt>
      <trkpt lat="50.26329" lon="4.51013">
        <ele>256.636674</ele>
        <time>2024-12-17T12:09:39.000Z</time>
      </trkpt>
      <trkpt lat="50.26329" lon="4.51011">
        <ele>256.603119</ele>
        <time>2024-12-17T12:09:40.000Z</time>
      </trkpt>
      <trkpt lat="50.26329" lon="4.51008">
        <ele>256.564787</ele>
        <time>2024-12-17T12:09:41.000Z</time>
      </trkpt>
      <trkpt lat="50.26329" lon="4.51006">
        <ele>256.530979</ele>
        <time>2024-12-17T12:09:42.000Z</time>
      </trkpt>
      <trkpt lat="50.26329" lon="4.51004">
        <ele>256.497171</ele>
        <time>2024-12-17T12:09:43.000Z</time>
      </trkpt>
      <trkpt lat="50.26328" lon="4.51002">
        <ele>256.465916</ele>
        <time>2024-12-17T12:09:44.000Z</time>
      </trkpt>
      <trkpt lat="50.26328" lon="4.51">
        <ele>256.436141</ele>
        <time>2024-12-17T12:09:45.000Z</time>
      </trkpt>
      <trkpt lat="50.26328" lon="4.50998">
        <ele>256.40784</ele>
        <time>2024-12-17T12:09:46.000Z</time>
      </trkpt>
      <trkpt lat="50.26327" lon="4.50996">
        <ele>256.378544</ele>
        <time>2024-12-17T12:09:47.000Z</time>
      </trkpt>
      <trkpt lat="50.26327" lon="4.50995">
        <ele>256.349637</ele>
        <time>2024-12-17T12:09:48.000Z</time>
      </trkpt>
      <trkpt lat="50.26327" lon="4.50993">
        <ele>256.322251</ele>
        <time>2024-12-17T12:09:49.000Z</time>
      </trkpt>
      <trkpt lat="50.26328" lon="4.50991">
        <ele>256.294763</ele>
        <time>2024-12-17T12:09:50.000Z</time>
      </trkpt>
      <trkpt lat="50.26327" lon="4.50989">
        <ele>256.263508</ele>
        <time>2024-12-17T12:09:51.000Z</time>
      </trkpt>
      <trkpt lat="50.26327" lon="4.50987">
        <ele>256.231625</ele>
        <time>2024-12-17T12:09:52.000Z</time>
      </trkpt>
      <trkpt lat="50.26327" lon="4.50985">
        <ele>256.200827</ele>
        <time>2024-12-17T12:09:53.000Z</time>
      </trkpt>
      <trkpt lat="50.26326" lon="4.50983">
        <ele>256.170029</ele>
        <time>2024-12-17T12:09:54.000Z</time>
      </trkpt>
      <trkpt lat="50.26326" lon="4.50981">
        <ele>256.14373</ele>
        <time>2024-12-17T12:09:55.000Z</time>
      </trkpt>
      <trkpt lat="50.26326" lon="4.50979">
        <ele>256.113209</ele>
        <time>2024-12-17T12:09:56.000Z</time>
      </trkpt>
      <trkpt lat="50.26326" lon="4.50977">
        <ele>256.079653</ele>
        <time>2024-12-17T12:09:57.000Z</time>
      </trkpt>
      <trkpt lat="50.26326" lon="4.50975">
        <ele>256.050649</ele>
        <time>2024-12-17T12:09:58.000Z</time>
      </trkpt>
      <trkpt lat="50.26326" lon="4.50973">
        <ele>256.021644</ele>
        <time>2024-12-17T12:09:59.000Z</time>
      </trkpt>
      <trkpt lat="50.26326" lon="4.50971">
        <ele>255.990846</ele>
        <time>2024-12-17T12:10:00.000Z</time>
      </trkpt>
      <trkpt lat="50.26325" lon="4.50969">
        <ele>255.956755</ele>
        <time>2024-12-17T12:10:01.000Z</time>
      </trkpt>
      <trkpt lat="50.26325" lon="4.50967">
        <ele>255.938268</ele>
        <time>2024-12-17T12:10:02.000Z</time>
      </trkpt>
      <trkpt lat="50.26325" lon="4.50964">
        <ele>255.91823</ele>
        <time>2024-12-17T12:10:03.000Z</time>
      </trkpt>
      <trkpt lat="50.26325" lon="4.50961">
        <ele>255.897733</ele>
        <time>2024-12-17T12:10:04.000Z</time>
      </trkpt>
      <trkpt lat="50.26324" lon="4.50958">
        <ele>255.878172</ele>
        <time>2024-12-17T12:10:05.000Z</time>
      </trkpt>
      <trkpt lat="50.26324" lon="4.50955">
        <ele>255.859084</ele>
        <time>2024-12-17T12:10:06.000Z</time>
      </trkpt>
      <trkpt lat="50.26324" lon="4.50953">
        <ele>255.841405</ele>
        <time>2024-12-17T12:10:07.000Z</time>
      </trkpt>
      <trkpt lat="50.26324" lon="4.5095">
        <ele>255.823727</ele>
        <time>2024-12-17T12:10:08.000Z</time>
      </trkpt>
      <trkpt lat="50.26324" lon="4.50948">
        <ele>255.804639</ele>
        <time>2024-12-17T12:10:09.000Z</time>
      </trkpt>
      <trkpt lat="50.26325" lon="4.50945">
        <ele>255.785476</ele>
        <time>2024-12-17T12:10:10.000Z</time>
      </trkpt>
      <trkpt lat="50.26325" lon="4.50943">
        <ele>255.769242</ele>
        <time>2024-12-17T12:10:11.000Z</time>
      </trkpt>
      <trkpt lat="50.26326" lon="4.50941">
        <ele>255.752527</ele>
        <time>2024-12-17T12:10:12.000Z</time>
      </trkpt>
      <trkpt lat="50.26327" lon="4.50938">
        <ele>255.734338</ele>
        <time>2024-12-17T12:10:13.000Z</time>
      </trkpt>
      <trkpt lat="50.26327" lon="4.50936">
        <ele>255.718522</ele>
        <time>2024-12-17T12:10:14.000Z</time>
      </trkpt>
      <trkpt lat="50.26328" lon="4.50935">
        <ele>255.704195</ele>
        <time>2024-12-17T12:10:15.000Z</time>
      </trkpt>
      <trkpt lat="50.26328" lon="4.50933">
        <ele>255.689694</ele>
        <time>2024-12-17T12:10:16.000Z</time>
      </trkpt>
      <trkpt lat="50.26328" lon="4.50931">
        <ele>255.674709</ele>
        <time>2024-12-17T12:10:17.000Z</time>
      </trkpt>
      <trkpt lat="50.26328" lon="4.50928">
        <ele>255.657627</ele>
        <time>2024-12-17T12:10:18.000Z</time>
      </trkpt>
      <trkpt lat="50.26328" lon="4.50926">
        <ele>255.639144</ele>
        <time>2024-12-17T12:10:19.000Z</time>
      </trkpt>
      <trkpt lat="50.26327" lon="4.50923">
        <ele>255.617264</ele>
        <time>2024-12-17T12:10:20.000Z</time>
      </trkpt>
      <trkpt lat="50.26327" lon="4.50919">
        <ele>255.592354</ele>
        <time>2024-12-17T12:10:21.000Z</time>
      </trkpt>
      <trkpt lat="50.26326" lon="4.50916">
        <ele>255.566472</ele>
        <time>2024-12-17T12:10:22.000Z</time>
      </trkpt>
      <trkpt lat="50.26325" lon="4.50912">
        <ele>255.537208</ele>
        <time>2024-12-17T12:10:23.000Z</time>
      </trkpt>
      <trkpt lat="50.26324" lon="4.50908">
        <ele>255.505576</ele>
        <time>2024-12-17T12:10:24.000Z</time>
      </trkpt>
      <trkpt lat="50.26323" lon="4.50903">
        <ele>255.472611</ele>
        <time>2024-12-17T12:10:25.000Z</time>
      </trkpt>
      <trkpt lat="50.26323" lon="4.50898">
        <ele>255.437864</ele>
        <time>2024-12-17T12:10:26.000Z</time>
      </trkpt>
      <trkpt lat="50.26322" lon="4.50893">
        <ele>255.401486</ele>
        <time>2024-12-17T12:10:27.000Z</time>
      </trkpt>
      <trkpt lat="50.26321" lon="4.50888">
        <ele>255.363738</ele>
        <time>2024-12-17T12:10:28.000Z</time>
      </trkpt>
      <trkpt lat="50.2632" lon="4.50883">
        <ele>255.325542</ele>
        <time>2024-12-17T12:10:29.000Z</time>
      </trkpt>
      <trkpt lat="50.2632" lon="4.50877">
        <ele>255.284771</ele>
        <time>2024-12-17T12:10:30.000Z</time>
      </trkpt>
      <trkpt lat="50.26319" lon="4.50871">
        <ele>255.243584</ele>
        <time>2024-12-17T12:10:31.000Z</time>
      </trkpt>
      <trkpt lat="50.26318" lon="4.50865">
        <ele>255.200326</ele>
        <time>2024-12-17T12:10:32.000Z</time>
      </trkpt>
      <trkpt lat="50.26318" lon="4.5086">
        <ele>255.158452</ele>
        <time>2024-12-17T12:10:33.000Z</time>
      </trkpt>
      <trkpt lat="50.26317" lon="4.50854">
        <ele>255.118377</ele>
        <time>2024-12-17T12:10:34.000Z</time>
      </trkpt>
      <trkpt lat="50.26316" lon="4.50848">
        <ele>255.078999</ele>
        <time>2024-12-17T12:10:35.000Z</time>
      </trkpt>
      <trkpt lat="50.26316" lon="4.50843">
        <ele>255.040489</ele>
        <time>2024-12-17T12:10:36.000Z</time>
      </trkpt>
      <trkpt lat="50.26316" lon="4.50838">
        <ele>255.002823</ele>
        <time>2024-12-17T12:10:37.000Z</time>
      </trkpt>
      <trkpt lat="50.26315" lon="4.50832">
        <ele>254.963943</ele>
        <time>2024-12-17T12:10:38.000Z</time>
      </trkpt>
      <trkpt lat="50.26315" lon="4.50827">
        <ele>254.927226</ele>
        <time>2024-12-17T12:10:39.000Z</time>
      </trkpt>
      <trkpt lat="50.26315" lon="4.50822">
        <ele>254.891079</ele>
        <time>2024-12-17T12:10:40.000Z</time>
      </trkpt>
      <trkpt lat="50.26315" lon="4.50817">
        <ele>254.856479</ele>
        <time>2024-12-17T12:10:41.000Z</time>
      </trkpt>
      <trkpt lat="50.26315" lon="4.50812">
        <ele>254.820416</ele>
        <time>2024-12-17T12:10:42.000Z</time>
      </trkpt>
      <trkpt lat="50.26315" lon="4.50807">
        <ele>254.782289</ele>
        <time>2024-12-17T12:10:43.000Z</time>
      </trkpt>
      <trkpt lat="50.26314" lon="4.50801">
        <ele>254.741923</ele>
        <time>2024-12-17T12:10:44.000Z</time>
      </trkpt>
      <trkpt lat="50.26314" lon="4.50795">
        <ele>254.699519</ele>
        <time>2024-12-17T12:10:45.000Z</time>
      </trkpt>
      <trkpt lat="50.26314" lon="4.50789">
        <ele>254.65641</ele>
        <time>2024-12-17T12:10:46.000Z</time>
      </trkpt>
      <trkpt lat="50.26314" lon="4.50783">
        <ele>254.612597</ele>
        <time>2024-12-17T12:10:47.000Z</time>
      </trkpt>
      <trkpt lat="50.26314" lon="4.50777">
        <ele>254.57025</ele>
        <time>2024-12-17T12:10:48.000Z</time>
      </trkpt>
      <trkpt lat="50.26314" lon="4.5077">
        <ele>254.526492</ele>
        <time>2024-12-17T12:10:49.000Z</time>
      </trkpt>
      <trkpt lat="50.26314" lon="4.50764">
        <ele>254.480564</ele>
        <time>2024-12-17T12:10:50.000Z</time>
      </trkpt>
      <trkpt lat="50.26314" lon="4.50757">
        <ele>254.434675</ele>
        <time>2024-12-17T12:10:51.000Z</time>
      </trkpt>
      <trkpt lat="50.26314" lon="4.50751">
        <ele>254.388799</ele>
        <time>2024-12-17T12:10:52.000Z</time>
      </trkpt>
      <trkpt lat="50.26314" lon="4.50744">
        <ele>254.342205</ele>
        <time>2024-12-17T12:10:53.000Z</time>
      </trkpt>
      <trkpt lat="50.26313" lon="4.50738">
        <ele>254.296277</ele>
        <time>2024-12-17T12:10:54.000Z</time>
      </trkpt>
      <trkpt lat="50.26313" lon="4.50732">
        <ele>254.252505</ele>
        <time>2024-12-17T12:10:55.000Z</time>
      </trkpt>
      <trkpt lat="50.26313" lon="4.50725">
        <ele>254.209438</ele>
        <time>2024-12-17T12:10:56.000Z</time>
      </trkpt>
      <trkpt lat="50.26313" lon="4.5072">
        <ele>254.167797</ele>
        <time>2024-12-17T12:10:57.000Z</time>
      </trkpt>
      <trkpt lat="50.26314" lon="4.50714">
        <ele>254.126848</ele>
        <time>2024-12-17T12:10:58.000Z</time>
      </trkpt>
      <trkpt lat="50.26314" lon="4.50708">
        <ele>254.087324</ele>
        <time>2024-12-17T12:10:59.000Z</time>
      </trkpt>
      <trkpt lat="50.26314" lon="4.50703">
        <ele>254.048507</ele>
        <time>2024-12-17T12:11:00.000Z</time>
      </trkpt>
      <trkpt lat="50.26313" lon="4.50697">
        <ele>254.011035</ele>
        <time>2024-12-17T12:11:01.000Z</time>
      </trkpt>
      <trkpt lat="50.26313" lon="4.50692">
        <ele>253.97407</ele>
        <time>2024-12-17T12:11:02.000Z</time>
      </trkpt>
      <trkpt lat="50.26313" lon="4.50687">
        <ele>253.971584</ele>
        <time>2024-12-17T12:11:03.000Z</time>
      </trkpt>
      <trkpt lat="50.26312" lon="4.50681">
        <ele>253.971584</ele>
        <time>2024-12-17T12:11:04.000Z</time>
      </trkpt>
      <trkpt lat="50.26312" lon="4.50675">
        <ele>253.971584</ele>
        <time>2024-12-17T12:11:05.000Z</time>
      </trkpt>
      <trkpt lat="50.26311" lon="4.50668">
        <ele>253.971584</ele>
        <time>2024-12-17T12:11:06.000Z</time>
      </trkpt>
      <trkpt lat="50.26311" lon="4.50661">
        <ele>253.971584</ele>
        <time>2024-12-17T12:11:07.000Z</time>
      </trkpt>
      <trkpt lat="50.2631" lon="4.50655">
        <ele>253.971584</ele>
        <time>2024-12-17T12:11:08.000Z</time>
      </trkpt>
      <trkpt lat="50.2631" lon="4.50647">
        <ele>253.971584</ele>
        <time>2024-12-17T12:11:09.000Z</time>
      </trkpt>
      <trkpt lat="50.26309" lon="4.5064">
        <ele>253.971584</ele>
        <time>2024-12-17T12:11:10.000Z</time>
      </trkpt>
      <trkpt lat="50.26308" lon="4.50633">
        <ele>253.971584</ele>
        <time>2024-12-17T12:11:11.000Z</time>
      </trkpt>
      <trkpt lat="50.26307" lon="4.50625">
        <ele>253.971584</ele>
        <time>2024-12-17T12:11:12.000Z</time>
      </trkpt>
      <trkpt lat="50.26306" lon="4.50617">
        <ele>253.971584</ele>
        <time>2024-12-17T12:11:13.000Z</time>
      </trkpt>
      <trkpt lat="50.26305" lon="4.50609">
        <ele>253.971584</ele>
        <time>2024-12-17T12:11:14.000Z</time>
      </trkpt>
      <trkpt lat="50.26303" lon="4.50602">
        <ele>253.971584</ele>
        <time>2024-12-17T12:11:15.000Z</time>
      </trkpt>
      <trkpt lat="50.26301" lon="4.50596">
        <ele>253.971584</ele>
        <time>2024-12-17T12:11:16.000Z</time>
      </trkpt>
      <trkpt lat="50.263" lon="4.50591">
        <ele>253.971584</ele>
        <time>2024-12-17T12:11:17.000Z</time>
      </trkpt>
      <trkpt lat="50.26298" lon="4.50587">
        <ele>253.971584</ele>
        <time>2024-12-17T12:11:18.000Z</time>
      </trkpt>
      <trkpt lat="50.26297" lon="4.50584">
        <ele>253.971584</ele>
        <time>2024-12-17T12:11:19.000Z</time>
      </trkpt>
      <trkpt lat="50.26296" lon="4.5058">
        <ele>253.971584</ele>
        <time>2024-12-17T12:11:20.000Z</time>
      </trkpt>
      <trkpt lat="50.26296" lon="4.50577">
        <ele>253.971584</ele>
        <time>2024-12-17T12:11:21.000Z</time>
      </trkpt>
      <trkpt lat="50.26295" lon="4.50574">
        <ele>253.971584</ele>
        <time>2024-12-17T12:11:22.000Z</time>
      </trkpt>
      <trkpt lat="50.26296" lon="4.50571">
        <ele>253.971584</ele>
        <time>2024-12-17T12:11:23.000Z</time>
      </trkpt>
      <trkpt lat="50.26296" lon="4.50569">
        <ele>253.971584</ele>
        <time>2024-12-17T12:11:24.000Z</time>
      </trkpt>
      <trkpt lat="50.26296" lon="4.50566">
        <ele>253.971584</ele>
        <time>2024-12-17T12:11:25.000Z</time>
      </trkpt>
      <trkpt lat="50.26296" lon="4.50564">
        <ele>253.971584</ele>
        <time>2024-12-17T12:11:26.000Z</time>
      </trkpt>
      <trkpt lat="50.26295" lon="4.50561">
        <ele>253.971584</ele>
        <time>2024-12-17T12:11:27.000Z</time>
      </trkpt>
      <trkpt lat="50.26295" lon="4.50559">
        <ele>253.971584</ele>
        <time>2024-12-17T12:11:28.000Z</time>
      </trkpt>
      <trkpt lat="50.26294" lon="4.50556">
        <ele>253.971584</ele>
        <time>2024-12-17T12:11:29.000Z</time>
      </trkpt>
      <trkpt lat="50.26294" lon="4.50553">
        <ele>253.971584</ele>
        <time>2024-12-17T12:11:30.000Z</time>
      </trkpt>
      <trkpt lat="50.26294" lon="4.5055">
        <ele>253.971584</ele>
        <time>2024-12-17T12:11:31.000Z</time>
      </trkpt>
      <trkpt lat="50.26294" lon="4.50547">
        <ele>253.971584</ele>
        <time>2024-12-17T12:11:32.000Z</time>
      </trkpt>
      <trkpt lat="50.26293" lon="4.50546">
        <ele>253.971584</ele>
        <time>2024-12-17T12:11:33.000Z</time>
      </trkpt>
      <trkpt lat="50.26293" lon="4.50546">
        <ele>253.971584</ele>
        <time>2024-12-17T12:11:34.000Z</time>
      </trkpt>
    </trkseg>
  </trk>
</gpx>